<?xml version="1.0" encoding="UTF-8"?>
<gpx version="1.1" creator="2bulu-scraper" xmlns="http://www.topografix.com/GPX/1/1">
  <metadata><name>峨眉山</name><desc>source: 2bulu.com trackId=81627892; exported 2026-09-01T15:56:46.245Z</desc>
    <bounds minlat="29.522567" minlon="103.326893" maxlat="29.581335" maxlon="103.465169"/>
    <link href="https://www.2bulu.com/track/t-loPzi0tumc3p%252FR2KBg5Tzw%253D%253D.htm"><text>2bulu 源页面</text></link>
  </metadata>
  <wpt lat="29.580257" lon="103.465169"><ele>459</ele><name>起点峨眉山站</name></wpt>
  <wpt lat="29.580641" lon="103.463296"><ele>460</ele><name>风景点</name></wpt>
  <wpt lat="29.570402" lon="103.451099"><ele>490</ele><name></name></wpt>
  <wpt lat="29.568809" lon="103.445193"><ele>503</ele><name>风景点</name></wpt>
  <wpt lat="29.568508" lon="103.443847"><ele>511</ele><name></name></wpt>
  <wpt lat="29.5681" lon="103.439245"><ele>544</ele><name></name></wpt>
  <wpt lat="29.565429" lon="103.432311"><ele>596</ele><name>商店</name></wpt>
  <wpt lat="29.564938" lon="103.426731"><ele>652</ele><name>上台阶</name></wpt>
  <wpt lat="29.565162" lon="103.425804"><ele>680</ele><name>雷音寺</name></wpt>
  <wpt lat="29.56444" lon="103.423057"><ele>734</ele><name></name></wpt>
  <wpt lat="29.564377" lon="103.42139"><ele>793</ele><name>休息区</name></wpt>
  <wpt lat="29.565215" lon="103.421296"><ele>821</ele><name>免费休息区</name></wpt>
  <wpt lat="29.567741" lon="103.420263"><ele>887</ele><name>商店</name></wpt>
  <wpt lat="29.568694" lon="103.420037"><ele>923</ele><name>商店</name></wpt>
  <wpt lat="29.569467" lon="103.419669"><ele>925</ele><name>打卡点</name></wpt>
  <wpt lat="29.57035" lon="103.417029"><ele>908</ele><name>打卡点</name></wpt>
  <wpt lat="29.569359" lon="103.412566"><ele>911</ele><name>打卡点</name></wpt>
  <wpt lat="29.568399" lon="103.409924"><ele>860</ele><name>商店</name></wpt>
  <wpt lat="29.566644" lon="103.407913"><ele>805</ele><name>打卡点</name></wpt>
  <wpt lat="29.568897" lon="103.403945"><ele>788</ele><name>打卡点</name></wpt>
  <wpt lat="29.570978" lon="103.402578"><ele>767</ele><name>打卡点</name></wpt>
  <wpt lat="29.571896" lon="103.400724"><ele>784</ele><name>检票登山</name></wpt>
  <wpt lat="29.573598" lon="103.393521"><ele>716</ele><name>打卡点</name></wpt>
  <wpt lat="29.574167" lon="103.392464"><ele>698</ele><name>风景点</name></wpt>
  <wpt lat="29.574201" lon="103.392427"><ele>695</ele><name>打卡点</name></wpt>
  <wpt lat="29.574202" lon="103.392321"><ele>705</ele><name>风景点</name></wpt>
  <wpt lat="29.570118" lon="103.391073"><ele>724</ele><name></name></wpt>
  <wpt lat="29.568907" lon="103.391123"><ele>716</ele><name>打卡点</name></wpt>
  <wpt lat="29.566091" lon="103.389717"><ele>747</ele><name>打卡点</name></wpt>
  <wpt lat="29.563778" lon="103.389113"><ele>757</ele><name></name></wpt>
  <wpt lat="29.556847" lon="103.386116"><ele>842</ele><name></name></wpt>
  <wpt lat="29.556796" lon="103.386101"><ele>843</ele><name>打卡点</name></wpt>
  <wpt lat="29.555049" lon="103.383658"><ele>996</ele><name>风景点</name></wpt>
  <wpt lat="29.55163" lon="103.375615"><ele>1234</ele><name></name></wpt>
  <wpt lat="29.550448" lon="103.374167"><ele>1276</ele><name>打卡点</name></wpt>
  <wpt lat="29.549618" lon="103.368751"><ele>1309</ele><name></name></wpt>
  <wpt lat="29.549902" lon="103.368173"><ele>1363</ele><name>风景点</name></wpt>
  <wpt lat="29.549417" lon="103.36627"><ele>1491</ele><name></name></wpt>
  <wpt lat="29.550382" lon="103.361517"><ele>1630</ele><name></name></wpt>
  <wpt lat="29.550156" lon="103.360196"><ele>1645</ele><name>绝望😞</name></wpt>
  <wpt lat="29.550386" lon="103.357491"><ele>1730</ele><name></name></wpt>
  <wpt lat="29.550384" lon="103.357006"><ele>1739</ele><name>打卡点</name></wpt>
  <wpt lat="29.550305" lon="103.356938"><ele>1743</ele><name>风景点</name></wpt>
  <wpt lat="29.55442" lon="103.352904"><ele>1635</ele><name></name></wpt>
  <wpt lat="29.560906" lon="103.351506"><ele>1703</ele><name></name></wpt>
  <wpt lat="29.561972" lon="103.352071"><ele>1775</ele><name></name></wpt>
  <wpt lat="29.562822" lon="103.350721"><ele>1827</ele><name></name></wpt>
  <wpt lat="29.561407" lon="103.345261"><ele>1805</ele><name></name></wpt>
  <wpt lat="29.560621" lon="103.344684"><ele>1859</ele><name></name></wpt>
  <wpt lat="29.558957" lon="103.3437"><ele>2029</ele><name></name></wpt>
  <wpt lat="29.558883" lon="103.344225"><ele>2038</ele><name></name></wpt>
  <wpt lat="29.552322" lon="103.34517"><ele>2263</ele><name></name></wpt>
  <wpt lat="29.549363" lon="103.342024"><ele>2262</ele><name></name></wpt>
  <wpt lat="29.546583" lon="103.337107"><ele>2450</ele><name></name></wpt>
  <wpt lat="29.542345" lon="103.332137"><ele>2415</ele><name></name></wpt>
  <wpt lat="29.534876" lon="103.332951"><ele>2527</ele><name></name></wpt>
  <wpt lat="29.532217" lon="103.330316"><ele>2691</ele><name></name></wpt>
  <wpt lat="29.529782" lon="103.327782"><ele>2867</ele><name></name></wpt>
  <wpt lat="29.523245" lon="103.33485"><ele>3040</ele><name></name></wpt>
  <wpt lat="29.522865" lon="103.334803"><ele>3057</ele><name></name></wpt>
  <wpt lat="29.551951" lon="103.354081"><ele>1669</ele><name></name></wpt>
  <wpt lat="29.568427" lon="103.443393"><ele>516</ele><name>报国寺</name></wpt>
  <trk><name>峨眉山</name>
      <trkseg>
        <trkpt lat="29.580257" lon="103.465169"><ele>458.66232</ele><time>2026-04-03T07:16:23.000Z</time></trkpt>
        <trkpt lat="29.580304" lon="103.465155"><ele>458.70004</ele><time>2026-04-03T07:16:43.000Z</time></trkpt>
        <trkpt lat="29.580343" lon="103.465121"><ele>457.87335</ele><time>2026-04-03T07:16:46.000Z</time></trkpt>
        <trkpt lat="29.580381" lon="103.465083"><ele>458.5203</ele><time>2026-04-03T07:16:50.000Z</time></trkpt>
        <trkpt lat="29.580422" lon="103.465039"><ele>458.5923</ele><time>2026-04-03T07:16:54.000Z</time></trkpt>
        <trkpt lat="29.580468" lon="103.464998"><ele>459.16757</ele><time>2026-04-03T07:16:58.000Z</time></trkpt>
        <trkpt lat="29.580512" lon="103.464964"><ele>460.86334</ele><time>2026-04-03T07:17:02.000Z</time></trkpt>
        <trkpt lat="29.580554" lon="103.464926"><ele>461.53516</ele><time>2026-04-03T07:17:06.000Z</time></trkpt>
        <trkpt lat="29.580588" lon="103.464893"><ele>461.10852</ele><time>2026-04-03T07:17:09.000Z</time></trkpt>
        <trkpt lat="29.580628" lon="103.464845"><ele>460.3254</ele><time>2026-04-03T07:17:13.000Z</time></trkpt>
        <trkpt lat="29.580672" lon="103.464818"><ele>459.99457</ele><time>2026-04-03T07:17:17.000Z</time></trkpt>
        <trkpt lat="29.580716" lon="103.464787"><ele>461.10388</ele><time>2026-04-03T07:17:21.000Z</time></trkpt>
        <trkpt lat="29.580754" lon="103.464757"><ele>461.3905</ele><time>2026-04-03T07:17:25.000Z</time></trkpt>
        <trkpt lat="29.580798" lon="103.464725"><ele>461.58334</ele><time>2026-04-03T07:17:29.000Z</time></trkpt>
        <trkpt lat="29.580843" lon="103.464694"><ele>461.78055</ele><time>2026-04-03T07:17:34.000Z</time></trkpt>
        <trkpt lat="29.580886" lon="103.464656"><ele>461.96295</ele><time>2026-04-03T07:17:40.000Z</time></trkpt>
        <trkpt lat="29.580922" lon="103.464619"><ele>462.2061</ele><time>2026-04-03T07:17:44.000Z</time></trkpt>
        <trkpt lat="29.580975" lon="103.464587"><ele>462.3214</ele><time>2026-04-03T07:17:48.000Z</time></trkpt>
        <trkpt lat="29.581015" lon="103.464551"><ele>462.17004</ele><time>2026-04-03T07:17:52.000Z</time></trkpt>
        <trkpt lat="29.581058" lon="103.464524"><ele>461.74557</ele><time>2026-04-03T07:17:56.000Z</time></trkpt>
        <trkpt lat="29.581097" lon="103.464496"><ele>460.98636</ele><time>2026-04-03T07:17:59.000Z</time></trkpt>
        <trkpt lat="29.581147" lon="103.464463"><ele>459.52142</ele><time>2026-04-03T07:18:03.000Z</time></trkpt>
        <trkpt lat="29.581182" lon="103.464429"><ele>459.25897</ele><time>2026-04-03T07:18:06.000Z</time></trkpt>
        <trkpt lat="29.581227" lon="103.464387"><ele>459.03015</ele><time>2026-04-03T07:18:10.000Z</time></trkpt>
        <trkpt lat="29.581272" lon="103.464343"><ele>458.40826</ele><time>2026-04-03T07:18:14.000Z</time></trkpt>
        <trkpt lat="29.581315" lon="103.464297"><ele>458.07086</ele><time>2026-04-03T07:18:18.000Z</time></trkpt>
        <trkpt lat="29.581334" lon="103.464245"><ele>458.52106</ele><time>2026-04-03T07:18:21.000Z</time></trkpt>
        <trkpt lat="29.581335" lon="103.464192"><ele>458.49765</ele><time>2026-04-03T07:18:24.000Z</time></trkpt>
        <trkpt lat="29.581317" lon="103.464134"><ele>457.76694</ele><time>2026-04-03T07:18:28.000Z</time></trkpt>
        <trkpt lat="29.58127" lon="103.464113"><ele>457.8956</ele><time>2026-04-03T07:18:35.000Z</time></trkpt>
        <trkpt lat="29.581229" lon="103.464081"><ele>458.6878</ele><time>2026-04-03T07:18:39.000Z</time></trkpt>
        <trkpt lat="29.58118" lon="103.464045"><ele>459.91937</ele><time>2026-04-03T07:18:43.000Z</time></trkpt>
        <trkpt lat="29.581129" lon="103.46401"><ele>460.07935</ele><time>2026-04-03T07:18:46.000Z</time></trkpt>
        <trkpt lat="29.581078" lon="103.463975"><ele>460.34448</ele><time>2026-04-03T07:18:50.000Z</time></trkpt>
        <trkpt lat="29.58104" lon="103.463946"><ele>461.30795</ele><time>2026-04-03T07:18:53.000Z</time></trkpt>
        <trkpt lat="29.581" lon="103.463919"><ele>461.87122</ele><time>2026-04-03T07:18:56.000Z</time></trkpt>
        <trkpt lat="29.580961" lon="103.463891"><ele>461.55966</ele><time>2026-04-03T07:18:59.000Z</time></trkpt>
        <trkpt lat="29.580923" lon="103.463862"><ele>462.0577</ele><time>2026-04-03T07:19:02.000Z</time></trkpt>
        <trkpt lat="29.580883" lon="103.463838"><ele>461.98276</ele><time>2026-04-03T07:19:05.000Z</time></trkpt>
        <trkpt lat="29.580841" lon="103.463795"><ele>461.8397</ele><time>2026-04-03T07:19:09.000Z</time></trkpt>
        <trkpt lat="29.5808" lon="103.463762"><ele>461.25366</ele><time>2026-04-03T07:19:15.000Z</time></trkpt>
        <trkpt lat="29.580761" lon="103.463729"><ele>463.3136</ele><time>2026-04-03T07:19:19.000Z</time></trkpt>
        <trkpt lat="29.580719" lon="103.463699"><ele>462.76614</ele><time>2026-04-03T07:19:22.000Z</time></trkpt>
        <trkpt lat="29.580675" lon="103.463668"><ele>461.83768</ele><time>2026-04-03T07:19:25.000Z</time></trkpt>
        <trkpt lat="29.580635" lon="103.463634"><ele>461.69965</ele><time>2026-04-03T07:19:28.000Z</time></trkpt>
        <trkpt lat="29.580596" lon="103.463607"><ele>461.10706</ele><time>2026-04-03T07:19:31.000Z</time></trkpt>
        <trkpt lat="29.580561" lon="103.463574"><ele>460.0362</ele><time>2026-04-03T07:19:34.000Z</time></trkpt>
        <trkpt lat="29.580562" lon="103.46352"><ele>459.58392</ele><time>2026-04-03T07:19:38.000Z</time></trkpt>
        <trkpt lat="29.580596" lon="103.46347"><ele>460.61127</ele><time>2026-04-03T07:19:43.000Z</time></trkpt>
        <trkpt lat="29.580621" lon="103.463419"><ele>461.30603</ele><time>2026-04-03T07:19:47.000Z</time></trkpt>
        <trkpt lat="29.580637" lon="103.463351"><ele>461.51364</ele><time>2026-04-03T07:19:51.000Z</time></trkpt>
        <trkpt lat="29.580641" lon="103.463296"><ele>459.87927</ele><time>2026-04-03T07:19:54.000Z</time></trkpt>
        <trkpt lat="29.580616" lon="103.463243"><ele>462.91794</ele><time>2026-04-03T07:19:58.000Z</time></trkpt>
        <trkpt lat="29.580576" lon="103.463208"><ele>461.61618</ele><time>2026-04-03T07:20:09.000Z</time></trkpt>
        <trkpt lat="29.580535" lon="103.463176"><ele>461.37088</ele><time>2026-04-03T07:20:14.000Z</time></trkpt>
        <trkpt lat="29.580487" lon="103.463151"><ele>461.77017</ele><time>2026-04-03T07:20:28.000Z</time></trkpt>
        <trkpt lat="29.580441" lon="103.463112"><ele>460.61453</ele><time>2026-04-03T07:20:32.000Z</time></trkpt>
        <trkpt lat="29.580396" lon="103.463082"><ele>461.20755</ele><time>2026-04-03T07:20:35.000Z</time></trkpt>
        <trkpt lat="29.580346" lon="103.463044"><ele>461.60355</ele><time>2026-04-03T07:20:39.000Z</time></trkpt>
        <trkpt lat="29.580295" lon="103.463009"><ele>461.5728</ele><time>2026-04-03T07:20:43.000Z</time></trkpt>
        <trkpt lat="29.580255" lon="103.462986"><ele>460.65485</ele><time>2026-04-03T07:20:46.000Z</time></trkpt>
        <trkpt lat="29.580218" lon="103.462954"><ele>460.98404</ele><time>2026-04-03T07:20:49.000Z</time></trkpt>
        <trkpt lat="29.58018" lon="103.462924"><ele>461.19632</ele><time>2026-04-03T07:20:52.000Z</time></trkpt>
        <trkpt lat="29.580135" lon="103.4629"><ele>461.18298</ele><time>2026-04-03T07:20:55.000Z</time></trkpt>
        <trkpt lat="29.580096" lon="103.462869"><ele>461.16324</ele><time>2026-04-03T07:20:58.000Z</time></trkpt>
        <trkpt lat="29.580055" lon="103.462839"><ele>461.38132</ele><time>2026-04-03T07:21:01.000Z</time></trkpt>
        <trkpt lat="29.580014" lon="103.462813"><ele>461.93442</ele><time>2026-04-03T07:21:03.000Z</time></trkpt>
        <trkpt lat="29.579967" lon="103.462774"><ele>461.9832</ele><time>2026-04-03T07:21:07.000Z</time></trkpt>
        <trkpt lat="29.579921" lon="103.462731"><ele>462.0271</ele><time>2026-04-03T07:21:11.000Z</time></trkpt>
        <trkpt lat="29.579873" lon="103.462692"><ele>461.9325</ele><time>2026-04-03T07:21:15.000Z</time></trkpt>
        <trkpt lat="29.579832" lon="103.462666"><ele>461.7472</ele><time>2026-04-03T07:21:18.000Z</time></trkpt>
        <trkpt lat="29.579789" lon="103.462636"><ele>461.6817</ele><time>2026-04-03T07:21:21.000Z</time></trkpt>
        <trkpt lat="29.579747" lon="103.462607"><ele>462.2531</ele><time>2026-04-03T07:21:24.000Z</time></trkpt>
        <trkpt lat="29.579713" lon="103.462571"><ele>461.15585</ele><time>2026-04-03T07:21:27.000Z</time></trkpt>
        <trkpt lat="29.579666" lon="103.462546"><ele>461.9673</ele><time>2026-04-03T07:21:30.000Z</time></trkpt>
        <trkpt lat="29.579621" lon="103.462515"><ele>461.6909</ele><time>2026-04-03T07:21:33.000Z</time></trkpt>
        <trkpt lat="29.579579" lon="103.462487"><ele>462.34042</ele><time>2026-04-03T07:21:36.000Z</time></trkpt>
        <trkpt lat="29.579536" lon="103.462462"><ele>462.7195</ele><time>2026-04-03T07:21:39.000Z</time></trkpt>
        <trkpt lat="29.579492" lon="103.462433"><ele>461.78424</ele><time>2026-04-03T07:21:42.000Z</time></trkpt>
        <trkpt lat="29.579454" lon="103.4624"><ele>462.89536</ele><time>2026-04-03T07:21:45.000Z</time></trkpt>
        <trkpt lat="29.579407" lon="103.462362"><ele>463.13513</ele><time>2026-04-03T07:21:50.000Z</time></trkpt>
        <trkpt lat="29.579363" lon="103.462334"><ele>462.6429</ele><time>2026-04-03T07:21:53.000Z</time></trkpt>
        <trkpt lat="29.579313" lon="103.462311"><ele>462.0087</ele><time>2026-04-03T07:21:56.000Z</time></trkpt>
        <trkpt lat="29.57927" lon="103.462281"><ele>461.9409</ele><time>2026-04-03T07:21:59.000Z</time></trkpt>
        <trkpt lat="29.579227" lon="103.462252"><ele>461.88177</ele><time>2026-04-03T07:22:02.000Z</time></trkpt>
        <trkpt lat="29.579184" lon="103.462226"><ele>461.97607</ele><time>2026-04-03T07:22:05.000Z</time></trkpt>
        <trkpt lat="29.579143" lon="103.462199"><ele>461.88242</ele><time>2026-04-03T07:22:08.000Z</time></trkpt>
        <trkpt lat="29.579103" lon="103.462171"><ele>461.91898</ele><time>2026-04-03T07:22:11.000Z</time></trkpt>
        <trkpt lat="29.579066" lon="103.462142"><ele>462.47925</ele><time>2026-04-03T07:22:14.000Z</time></trkpt>
        <trkpt lat="29.579013" lon="103.462108"><ele>462.9378</ele><time>2026-04-03T07:22:18.000Z</time></trkpt>
        <trkpt lat="29.578973" lon="103.462083"><ele>462.50537</ele><time>2026-04-03T07:22:21.000Z</time></trkpt>
        <trkpt lat="29.578924" lon="103.462047"><ele>462.6863</ele><time>2026-04-03T07:22:25.000Z</time></trkpt>
        <trkpt lat="29.578881" lon="103.462024"><ele>463.39612</ele><time>2026-04-03T07:22:28.000Z</time></trkpt>
        <trkpt lat="29.578838" lon="103.461999"><ele>464.04416</ele><time>2026-04-03T07:22:31.000Z</time></trkpt>
        <trkpt lat="29.578799" lon="103.461971"><ele>465.55463</ele><time>2026-04-03T07:22:34.000Z</time></trkpt>
        <trkpt lat="29.578756" lon="103.461948"><ele>466.11285</ele><time>2026-04-03T07:22:37.000Z</time></trkpt>
        <trkpt lat="29.578704" lon="103.461914"><ele>465.93842</ele><time>2026-04-03T07:22:41.000Z</time></trkpt>
        <trkpt lat="29.578657" lon="103.461872"><ele>466.31894</ele><time>2026-04-03T07:22:45.000Z</time></trkpt>
        <trkpt lat="29.578629" lon="103.461821"><ele>466.0401</ele><time>2026-04-03T07:22:48.000Z</time></trkpt>
        <trkpt lat="29.57858" lon="103.461796"><ele>466.06757</ele><time>2026-04-03T07:22:51.000Z</time></trkpt>
        <trkpt lat="29.578542" lon="103.461764"><ele>466.12146</ele><time>2026-04-03T07:22:54.000Z</time></trkpt>
        <trkpt lat="29.578492" lon="103.461733"><ele>467.02054</ele><time>2026-04-03T07:22:57.000Z</time></trkpt>
        <trkpt lat="29.578448" lon="103.46171"><ele>466.60388</ele><time>2026-04-03T07:23:00.000Z</time></trkpt>
        <trkpt lat="29.578401" lon="103.461699"><ele>466.70715</ele><time>2026-04-03T07:23:03.000Z</time></trkpt>
        <trkpt lat="29.578345" lon="103.461682"><ele>468.04834</ele><time>2026-04-03T07:23:07.000Z</time></trkpt>
        <trkpt lat="29.578299" lon="103.461676"><ele>469.16925</ele><time>2026-04-03T07:23:10.000Z</time></trkpt>
        <trkpt lat="29.57825" lon="103.461669"><ele>469.73816</ele><time>2026-04-03T07:23:13.000Z</time></trkpt>
        <trkpt lat="29.578203" lon="103.461642"><ele>470.87436</ele><time>2026-04-03T07:23:16.000Z</time></trkpt>
        <trkpt lat="29.578154" lon="103.461632"><ele>471.1169</ele><time>2026-04-03T07:23:19.000Z</time></trkpt>
        <trkpt lat="29.578109" lon="103.461615"><ele>471.4086</ele><time>2026-04-03T07:23:22.000Z</time></trkpt>
        <trkpt lat="29.578054" lon="103.461594"><ele>471.59583</ele><time>2026-04-03T07:23:26.000Z</time></trkpt>
        <trkpt lat="29.577996" lon="103.461579"><ele>471.0605</ele><time>2026-04-03T07:23:30.000Z</time></trkpt>
        <trkpt lat="29.577959" lon="103.461549"><ele>470.09552</ele><time>2026-04-03T07:23:33.000Z</time></trkpt>
        <trkpt lat="29.577911" lon="103.461508"><ele>471.203</ele><time>2026-04-03T07:23:37.000Z</time></trkpt>
        <trkpt lat="29.577853" lon="103.46149"><ele>470.4058</ele><time>2026-04-03T07:23:41.000Z</time></trkpt>
        <trkpt lat="29.577792" lon="103.461483"><ele>470.54276</ele><time>2026-04-03T07:23:45.000Z</time></trkpt>
        <trkpt lat="29.577743" lon="103.461483"><ele>470.4456</ele><time>2026-04-03T07:23:48.000Z</time></trkpt>
        <trkpt lat="29.577697" lon="103.461474"><ele>470.04138</ele><time>2026-04-03T07:23:51.000Z</time></trkpt>
        <trkpt lat="29.577653" lon="103.46145"><ele>471.8383</ele><time>2026-04-03T07:23:55.000Z</time></trkpt>
        <trkpt lat="29.577596" lon="103.461442"><ele>469.4808</ele><time>2026-04-03T07:23:59.000Z</time></trkpt>
        <trkpt lat="29.577541" lon="103.461422"><ele>467.66046</ele><time>2026-04-03T07:24:03.000Z</time></trkpt>
        <trkpt lat="29.577494" lon="103.461421"><ele>467.08963</ele><time>2026-04-03T07:24:06.000Z</time></trkpt>
        <trkpt lat="29.577445" lon="103.461424"><ele>467.9411</ele><time>2026-04-03T07:24:09.000Z</time></trkpt>
        <trkpt lat="29.577398" lon="103.46143"><ele>468.63336</ele><time>2026-04-03T07:24:12.000Z</time></trkpt>
        <trkpt lat="29.577343" lon="103.46142"><ele>468.5121</ele><time>2026-04-03T07:24:16.000Z</time></trkpt>
        <trkpt lat="29.577292" lon="103.461422"><ele>468.71182</ele><time>2026-04-03T07:24:20.000Z</time></trkpt>
        <trkpt lat="29.57724" lon="103.461413"><ele>468.54263</ele><time>2026-04-03T07:24:24.000Z</time></trkpt>
        <trkpt lat="29.577184" lon="103.461397"><ele>468.9211</ele><time>2026-04-03T07:24:28.000Z</time></trkpt>
        <trkpt lat="29.577143" lon="103.461371"><ele>469.42493</ele><time>2026-04-03T07:24:31.000Z</time></trkpt>
        <trkpt lat="29.577088" lon="103.461351"><ele>469.85495</ele><time>2026-04-03T07:24:35.000Z</time></trkpt>
        <trkpt lat="29.577046" lon="103.461329"><ele>469.63226</ele><time>2026-04-03T07:24:38.000Z</time></trkpt>
        <trkpt lat="29.576992" lon="103.461299"><ele>469.69452</ele><time>2026-04-03T07:24:42.000Z</time></trkpt>
        <trkpt lat="29.576943" lon="103.46126"><ele>469.50748</ele><time>2026-04-03T07:24:46.000Z</time></trkpt>
        <trkpt lat="29.576895" lon="103.461225"><ele>468.66354</ele><time>2026-04-03T07:24:50.000Z</time></trkpt>
        <trkpt lat="29.576844" lon="103.46119"><ele>471.00885</ele><time>2026-04-03T07:24:54.000Z</time></trkpt>
        <trkpt lat="29.5768" lon="103.461147"><ele>471.11517</ele><time>2026-04-03T07:24:58.000Z</time></trkpt>
        <trkpt lat="29.576761" lon="103.461104"><ele>472.48184</ele><time>2026-04-03T07:25:02.000Z</time></trkpt>
        <trkpt lat="29.576718" lon="103.461054"><ele>472.77475</ele><time>2026-04-03T07:25:06.000Z</time></trkpt>
        <trkpt lat="29.576687" lon="103.461003"><ele>471.608</ele><time>2026-04-03T07:25:09.000Z</time></trkpt>
        <trkpt lat="29.576645" lon="103.460967"><ele>471.83893</ele><time>2026-04-03T07:25:13.000Z</time></trkpt>
        <trkpt lat="29.576635" lon="103.460906"><ele>471.98532</ele><time>2026-04-03T07:25:16.000Z</time></trkpt>
        <trkpt lat="29.576608" lon="103.460862"><ele>471.1228</ele><time>2026-04-03T07:25:19.000Z</time></trkpt>
        <trkpt lat="29.576575" lon="103.460808"><ele>471.87338</ele><time>2026-04-03T07:25:23.000Z</time></trkpt>
        <trkpt lat="29.576549" lon="103.46076"><ele>471.62402</ele><time>2026-04-03T07:25:27.000Z</time></trkpt>
        <trkpt lat="29.57652" lon="103.460707"><ele>471.0089</ele><time>2026-04-03T07:25:31.000Z</time></trkpt>
        <trkpt lat="29.576488" lon="103.46065"><ele>470.01138</ele><time>2026-04-03T07:25:35.000Z</time></trkpt>
        <trkpt lat="29.576457" lon="103.460592"><ele>469.759</ele><time>2026-04-03T07:25:39.000Z</time></trkpt>
        <trkpt lat="29.576424" lon="103.460536"><ele>470.0382</ele><time>2026-04-03T07:25:43.000Z</time></trkpt>
        <trkpt lat="29.576399" lon="103.460492"><ele>470.53955</ele><time>2026-04-03T07:25:46.000Z</time></trkpt>
        <trkpt lat="29.576365" lon="103.460436"><ele>470.8184</ele><time>2026-04-03T07:25:50.000Z</time></trkpt>
        <trkpt lat="29.576331" lon="103.460383"><ele>471.1617</ele><time>2026-04-03T07:25:54.000Z</time></trkpt>
        <trkpt lat="29.576298" lon="103.46033"><ele>472.35617</ele><time>2026-04-03T07:25:59.000Z</time></trkpt>
        <trkpt lat="29.576267" lon="103.460284"><ele>472.92325</ele><time>2026-04-03T07:26:03.000Z</time></trkpt>
        <trkpt lat="29.576241" lon="103.460235"><ele>472.64407</ele><time>2026-04-03T07:26:07.000Z</time></trkpt>
        <trkpt lat="29.576217" lon="103.460184"><ele>471.5764</ele><time>2026-04-03T07:26:11.000Z</time></trkpt>
        <trkpt lat="29.576197" lon="103.460137"><ele>470.49246</ele><time>2026-04-03T07:26:15.000Z</time></trkpt>
        <trkpt lat="29.57617" lon="103.460081"><ele>470.33957</ele><time>2026-04-03T07:26:20.000Z</time></trkpt>
        <trkpt lat="29.576154" lon="103.460018"><ele>468.53925</ele><time>2026-04-03T07:26:25.000Z</time></trkpt>
        <trkpt lat="29.576137" lon="103.459955"><ele>468.3252</ele><time>2026-04-03T07:26:29.000Z</time></trkpt>
        <trkpt lat="29.576143" lon="103.459885"><ele>468.8398</ele><time>2026-04-03T07:26:33.000Z</time></trkpt>
        <trkpt lat="29.576151" lon="103.45982"><ele>468.4564</ele><time>2026-04-03T07:26:37.000Z</time></trkpt>
        <trkpt lat="29.576162" lon="103.459768"><ele>468.0345</ele><time>2026-04-03T07:26:40.000Z</time></trkpt>
        <trkpt lat="29.57617" lon="103.459703"><ele>468.9395</ele><time>2026-04-03T07:26:44.000Z</time></trkpt>
        <trkpt lat="29.576178" lon="103.459636"><ele>468.57306</ele><time>2026-04-03T07:26:48.000Z</time></trkpt>
        <trkpt lat="29.576182" lon="103.459585"><ele>467.34113</ele><time>2026-04-03T07:26:51.000Z</time></trkpt>
        <trkpt lat="29.576194" lon="103.459532"><ele>469.2777</ele><time>2026-04-03T07:26:54.000Z</time></trkpt>
        <trkpt lat="29.5762" lon="103.459477"><ele>469.2615</ele><time>2026-04-03T07:26:57.000Z</time></trkpt>
        <trkpt lat="29.576206" lon="103.459424"><ele>468.5416</ele><time>2026-04-03T07:27:00.000Z</time></trkpt>
        <trkpt lat="29.57621" lon="103.459369"><ele>469.09836</ele><time>2026-04-03T07:27:03.000Z</time></trkpt>
        <trkpt lat="29.57622" lon="103.459317"><ele>468.8829</ele><time>2026-04-03T07:27:06.000Z</time></trkpt>
        <trkpt lat="29.576227" lon="103.459264"><ele>468.89566</ele><time>2026-04-03T07:27:08.000Z</time></trkpt>
        <trkpt lat="29.576219" lon="103.459203"><ele>470.21707</ele><time>2026-04-03T07:27:12.000Z</time></trkpt>
        <trkpt lat="29.576219" lon="103.459151"><ele>471.48187</ele><time>2026-04-03T07:27:15.000Z</time></trkpt>
        <trkpt lat="29.576221" lon="103.459098"><ele>471.06992</ele><time>2026-04-03T07:27:18.000Z</time></trkpt>
        <trkpt lat="29.576228" lon="103.459046"><ele>471.01373</ele><time>2026-04-03T07:27:21.000Z</time></trkpt>
        <trkpt lat="29.576232" lon="103.458989"><ele>471.03156</ele><time>2026-04-03T07:27:24.000Z</time></trkpt>
        <trkpt lat="29.576247" lon="103.458939"><ele>469.95544</ele><time>2026-04-03T07:27:27.000Z</time></trkpt>
        <trkpt lat="29.576266" lon="103.45889"><ele>469.65082</ele><time>2026-04-03T07:27:30.000Z</time></trkpt>
        <trkpt lat="29.576305" lon="103.458843"><ele>471.60083</ele><time>2026-04-03T07:27:35.000Z</time></trkpt>
        <trkpt lat="29.57633" lon="103.458786"><ele>471.49265</ele><time>2026-04-03T07:27:40.000Z</time></trkpt>
        <trkpt lat="29.576295" lon="103.458742"><ele>471.46594</ele><time>2026-04-03T07:27:43.000Z</time></trkpt>
        <trkpt lat="29.576253" lon="103.45871"><ele>470.50787</ele><time>2026-04-03T07:27:46.000Z</time></trkpt>
        <trkpt lat="29.576209" lon="103.45868"><ele>469.42426</ele><time>2026-04-03T07:27:49.000Z</time></trkpt>
        <trkpt lat="29.576163" lon="103.458662"><ele>468.65707</ele><time>2026-04-03T07:27:52.000Z</time></trkpt>
        <trkpt lat="29.576117" lon="103.458647"><ele>468.5751</ele><time>2026-04-03T07:27:55.000Z</time></trkpt>
        <trkpt lat="29.576073" lon="103.458628"><ele>468.2471</ele><time>2026-04-03T07:27:58.000Z</time></trkpt>
        <trkpt lat="29.576029" lon="103.458603"><ele>468.33633</ele><time>2026-04-03T07:28:01.000Z</time></trkpt>
        <trkpt lat="29.575986" lon="103.458573"><ele>468.7229</ele><time>2026-04-03T07:28:05.000Z</time></trkpt>
        <trkpt lat="29.575934" lon="103.458544"><ele>467.1831</ele><time>2026-04-03T07:28:09.000Z</time></trkpt>
        <trkpt lat="29.57596" lon="103.458492"><ele>469.0228</ele><time>2026-04-03T07:28:37.000Z</time></trkpt>
        <trkpt lat="29.575985" lon="103.458442"><ele>471.05164</ele><time>2026-04-03T07:28:41.000Z</time></trkpt>
        <trkpt lat="29.576012" lon="103.458397"><ele>471.02722</ele><time>2026-04-03T07:28:46.000Z</time></trkpt>
        <trkpt lat="29.576041" lon="103.45834"><ele>469.63092</ele><time>2026-04-03T07:28:50.000Z</time></trkpt>
        <trkpt lat="29.576031" lon="103.458262"><ele>469.43033</ele><time>2026-04-03T07:29:00.000Z</time></trkpt>
        <trkpt lat="29.575992" lon="103.458225"><ele>468.602</ele><time>2026-04-03T07:29:04.000Z</time></trkpt>
        <trkpt lat="29.575957" lon="103.45819"><ele>468.15662</ele><time>2026-04-03T07:29:06.000Z</time></trkpt>
        <trkpt lat="29.575903" lon="103.458173"><ele>469.20886</ele><time>2026-04-03T07:29:10.000Z</time></trkpt>
        <trkpt lat="29.575851" lon="103.458148"><ele>469.60037</ele><time>2026-04-03T07:29:14.000Z</time></trkpt>
        <trkpt lat="29.575804" lon="103.458126"><ele>470.8517</ele><time>2026-04-03T07:29:17.000Z</time></trkpt>
        <trkpt lat="29.575759" lon="103.458096"><ele>471.1984</ele><time>2026-04-03T07:29:20.000Z</time></trkpt>
        <trkpt lat="29.575725" lon="103.458059"><ele>470.2683</ele><time>2026-04-03T07:29:23.000Z</time></trkpt>
        <trkpt lat="29.57568" lon="103.458018"><ele>470.48074</ele><time>2026-04-03T07:29:27.000Z</time></trkpt>
        <trkpt lat="29.575641" lon="103.457986"><ele>470.07187</ele><time>2026-04-03T07:29:30.000Z</time></trkpt>
        <trkpt lat="29.575593" lon="103.457952"><ele>472.21863</ele><time>2026-04-03T07:29:34.000Z</time></trkpt>
        <trkpt lat="29.575557" lon="103.457904"><ele>473.22714</ele><time>2026-04-03T07:29:38.000Z</time></trkpt>
        <trkpt lat="29.575527" lon="103.45785"><ele>471.97827</ele><time>2026-04-03T07:29:42.000Z</time></trkpt>
        <trkpt lat="29.575483" lon="103.45781"><ele>470.46774</ele><time>2026-04-03T07:29:46.000Z</time></trkpt>
        <trkpt lat="29.575441" lon="103.457785"><ele>470.33234</ele><time>2026-04-03T07:29:49.000Z</time></trkpt>
        <trkpt lat="29.575394" lon="103.457744"><ele>470.63605</ele><time>2026-04-03T07:29:53.000Z</time></trkpt>
        <trkpt lat="29.575346" lon="103.457723"><ele>470.96793</ele><time>2026-04-03T07:29:56.000Z</time></trkpt>
        <trkpt lat="29.575307" lon="103.457692"><ele>470.4694</ele><time>2026-04-03T07:29:59.000Z</time></trkpt>
        <trkpt lat="29.575267" lon="103.457649"><ele>471.35013</ele><time>2026-04-03T07:30:03.000Z</time></trkpt>
        <trkpt lat="29.575222" lon="103.457625"><ele>471.57465</ele><time>2026-04-03T07:30:06.000Z</time></trkpt>
        <trkpt lat="29.575192" lon="103.45757"><ele>473.48178</ele><time>2026-04-03T07:30:11.000Z</time></trkpt>
        <trkpt lat="29.575153" lon="103.457542"><ele>474.32806</ele><time>2026-04-03T07:30:14.000Z</time></trkpt>
        <trkpt lat="29.575102" lon="103.457538"><ele>476.85123</ele><time>2026-04-03T07:30:17.000Z</time></trkpt>
        <trkpt lat="29.575054" lon="103.457535"><ele>475.6434</ele><time>2026-04-03T07:30:20.000Z</time></trkpt>
        <trkpt lat="29.575005" lon="103.457502"><ele>477.22372</ele><time>2026-04-03T07:30:24.000Z</time></trkpt>
        <trkpt lat="29.574981" lon="103.457443"><ele>477.29254</ele><time>2026-04-03T07:30:28.000Z</time></trkpt>
        <trkpt lat="29.574953" lon="103.457387"><ele>476.69388</ele><time>2026-04-03T07:30:32.000Z</time></trkpt>
        <trkpt lat="29.574919" lon="103.457349"><ele>476.7883</ele><time>2026-04-03T07:30:35.000Z</time></trkpt>
        <trkpt lat="29.574887" lon="103.457306"><ele>475.19092</ele><time>2026-04-03T07:30:39.000Z</time></trkpt>
        <trkpt lat="29.574844" lon="103.457273"><ele>475.35443</ele><time>2026-04-03T07:30:42.000Z</time></trkpt>
        <trkpt lat="29.574807" lon="103.457236"><ele>476.53183</ele><time>2026-04-03T07:30:45.000Z</time></trkpt>
        <trkpt lat="29.574773" lon="103.457184"><ele>478.37177</ele><time>2026-04-03T07:30:49.000Z</time></trkpt>
        <trkpt lat="29.574736" lon="103.457132"><ele>475.72186</ele><time>2026-04-03T07:30:53.000Z</time></trkpt>
        <trkpt lat="29.574698" lon="103.457102"><ele>476.31955</ele><time>2026-04-03T07:30:56.000Z</time></trkpt>
        <trkpt lat="29.57466" lon="103.457065"><ele>478.8399</ele><time>2026-04-03T07:31:00.000Z</time></trkpt>
        <trkpt lat="29.574638" lon="103.457007"><ele>478.52493</ele><time>2026-04-03T07:31:04.000Z</time></trkpt>
        <trkpt lat="29.574626" lon="103.456953"><ele>478.41257</ele><time>2026-04-03T07:31:06.000Z</time></trkpt>
        <trkpt lat="29.574602" lon="103.4569"><ele>478.2969</ele><time>2026-04-03T07:31:09.000Z</time></trkpt>
        <trkpt lat="29.574556" lon="103.456882"><ele>480.10352</ele><time>2026-04-03T07:31:12.000Z</time></trkpt>
        <trkpt lat="29.574501" lon="103.456862"><ele>480.08862</ele><time>2026-04-03T07:31:15.000Z</time></trkpt>
        <trkpt lat="29.574483" lon="103.456812"><ele>478.85046</ele><time>2026-04-03T07:31:17.000Z</time></trkpt>
        <trkpt lat="29.574444" lon="103.456773"><ele>477.84512</ele><time>2026-04-03T07:31:20.000Z</time></trkpt>
        <trkpt lat="29.574404" lon="103.456747"><ele>477.95676</ele><time>2026-04-03T07:31:23.000Z</time></trkpt>
        <trkpt lat="29.574359" lon="103.456728"><ele>478.66873</ele><time>2026-04-03T07:31:26.000Z</time></trkpt>
        <trkpt lat="29.574316" lon="103.456704"><ele>477.24612</ele><time>2026-04-03T07:31:29.000Z</time></trkpt>
        <trkpt lat="29.574275" lon="103.456671"><ele>476.3674</ele><time>2026-04-03T07:31:32.000Z</time></trkpt>
        <trkpt lat="29.574252" lon="103.456625"><ele>477.21136</ele><time>2026-04-03T07:31:35.000Z</time></trkpt>
        <trkpt lat="29.574208" lon="103.456586"><ele>477.09427</ele><time>2026-04-03T07:31:39.000Z</time></trkpt>
        <trkpt lat="29.574161" lon="103.456558"><ele>477.68463</ele><time>2026-04-03T07:31:43.000Z</time></trkpt>
        <trkpt lat="29.574125" lon="103.456521"><ele>477.79486</ele><time>2026-04-03T07:31:48.000Z</time></trkpt>
        <trkpt lat="29.5741" lon="103.456477"><ele>477.86066</ele><time>2026-04-03T07:31:51.000Z</time></trkpt>
        <trkpt lat="29.574058" lon="103.456455"><ele>478.09738</ele><time>2026-04-03T07:31:55.000Z</time></trkpt>
        <trkpt lat="29.574018" lon="103.456409"><ele>478.8613</ele><time>2026-04-03T07:32:00.000Z</time></trkpt>
        <trkpt lat="29.573984" lon="103.456364"><ele>478.99072</ele><time>2026-04-03T07:32:04.000Z</time></trkpt>
        <trkpt lat="29.573956" lon="103.456314"><ele>479.37628</ele><time>2026-04-03T07:32:08.000Z</time></trkpt>
        <trkpt lat="29.573928" lon="103.456263"><ele>479.09155</ele><time>2026-04-03T07:32:11.000Z</time></trkpt>
        <trkpt lat="29.573895" lon="103.456217"><ele>479.3542</ele><time>2026-04-03T07:32:15.000Z</time></trkpt>
        <trkpt lat="29.573853" lon="103.456182"><ele>481.7431</ele><time>2026-04-03T07:32:19.000Z</time></trkpt>
        <trkpt lat="29.573813" lon="103.456135"><ele>482.73383</ele><time>2026-04-03T07:32:23.000Z</time></trkpt>
        <trkpt lat="29.573781" lon="103.456098"><ele>481.9603</ele><time>2026-04-03T07:32:26.000Z</time></trkpt>
        <trkpt lat="29.573739" lon="103.456066"><ele>481.90656</ele><time>2026-04-03T07:32:29.000Z</time></trkpt>
        <trkpt lat="29.573704" lon="103.456021"><ele>481.3642</ele><time>2026-04-03T07:32:32.000Z</time></trkpt>
        <trkpt lat="29.573671" lon="103.455976"><ele>480.11206</ele><time>2026-04-03T07:32:35.000Z</time></trkpt>
        <trkpt lat="29.573609" lon="103.455958"><ele>478.80023</ele><time>2026-04-03T07:32:38.000Z</time></trkpt>
        <trkpt lat="29.573557" lon="103.455936"><ele>479.5204</ele><time>2026-04-03T07:32:41.000Z</time></trkpt>
        <trkpt lat="29.573524" lon="103.455895"><ele>479.167</ele><time>2026-04-03T07:32:44.000Z</time></trkpt>
        <trkpt lat="29.573485" lon="103.455864"><ele>479.59012</ele><time>2026-04-03T07:32:47.000Z</time></trkpt>
        <trkpt lat="29.573449" lon="103.455833"><ele>480.83633</ele><time>2026-04-03T07:32:50.000Z</time></trkpt>
        <trkpt lat="29.573417" lon="103.455791"><ele>481.26355</ele><time>2026-04-03T07:32:53.000Z</time></trkpt>
        <trkpt lat="29.573383" lon="103.455738"><ele>481.41144</ele><time>2026-04-03T07:32:57.000Z</time></trkpt>
        <trkpt lat="29.573349" lon="103.455697"><ele>481.2017</ele><time>2026-04-03T07:33:00.000Z</time></trkpt>
        <trkpt lat="29.573322" lon="103.455638"><ele>480.84003</ele><time>2026-04-03T07:33:04.000Z</time></trkpt>
        <trkpt lat="29.573282" lon="103.455603"><ele>481.0755</ele><time>2026-04-03T07:33:06.000Z</time></trkpt>
        <trkpt lat="29.573259" lon="103.455557"><ele>480.39133</ele><time>2026-04-03T07:33:09.000Z</time></trkpt>
        <trkpt lat="29.573233" lon="103.455506"><ele>480.26987</ele><time>2026-04-03T07:33:12.000Z</time></trkpt>
        <trkpt lat="29.573197" lon="103.455466"><ele>480.52454</ele><time>2026-04-03T07:33:15.000Z</time></trkpt>
        <trkpt lat="29.573156" lon="103.455436"><ele>480.3479</ele><time>2026-04-03T07:33:18.000Z</time></trkpt>
        <trkpt lat="29.573117" lon="103.455406"><ele>481.18518</ele><time>2026-04-03T07:33:21.000Z</time></trkpt>
        <trkpt lat="29.573076" lon="103.455376"><ele>481.0234</ele><time>2026-04-03T07:33:24.000Z</time></trkpt>
        <trkpt lat="29.573035" lon="103.455326"><ele>480.50754</ele><time>2026-04-03T07:33:28.000Z</time></trkpt>
        <trkpt lat="29.57299" lon="103.455297"><ele>478.48676</ele><time>2026-04-03T07:33:31.000Z</time></trkpt>
        <trkpt lat="29.572953" lon="103.455263"><ele>479.10516</ele><time>2026-04-03T07:33:34.000Z</time></trkpt>
        <trkpt lat="29.572919" lon="103.455216"><ele>481.23975</ele><time>2026-04-03T07:33:38.000Z</time></trkpt>
        <trkpt lat="29.572884" lon="103.455178"><ele>482.87137</ele><time>2026-04-03T07:33:42.000Z</time></trkpt>
        <trkpt lat="29.572847" lon="103.455133"><ele>484.4707</ele><time>2026-04-03T07:33:46.000Z</time></trkpt>
        <trkpt lat="29.572813" lon="103.455096"><ele>483.81262</ele><time>2026-04-03T07:33:49.000Z</time></trkpt>
        <trkpt lat="29.572769" lon="103.455054"><ele>483.86426</ele><time>2026-04-03T07:33:53.000Z</time></trkpt>
        <trkpt lat="29.572714" lon="103.455022"><ele>483.95407</ele><time>2026-04-03T07:33:57.000Z</time></trkpt>
        <trkpt lat="29.572673" lon="103.454997"><ele>483.43845</ele><time>2026-04-03T07:34:00.000Z</time></trkpt>
        <trkpt lat="29.572635" lon="103.454967"><ele>483.5439</ele><time>2026-04-03T07:34:03.000Z</time></trkpt>
        <trkpt lat="29.572596" lon="103.454929"><ele>484.19678</ele><time>2026-04-03T07:34:06.000Z</time></trkpt>
        <trkpt lat="29.572572" lon="103.454878"><ele>484.29153</ele><time>2026-04-03T07:34:09.000Z</time></trkpt>
        <trkpt lat="29.572546" lon="103.454823"><ele>483.84097</ele><time>2026-04-03T07:34:12.000Z</time></trkpt>
        <trkpt lat="29.572509" lon="103.454782"><ele>483.252</ele><time>2026-04-03T07:34:15.000Z</time></trkpt>
        <trkpt lat="29.572464" lon="103.454751"><ele>482.6133</ele><time>2026-04-03T07:34:18.000Z</time></trkpt>
        <trkpt lat="29.572424" lon="103.45471"><ele>480.6599</ele><time>2026-04-03T07:34:22.000Z</time></trkpt>
        <trkpt lat="29.572381" lon="103.454689"><ele>480.7056</ele><time>2026-04-03T07:34:25.000Z</time></trkpt>
        <trkpt lat="29.572347" lon="103.454632"><ele>481.99796</ele><time>2026-04-03T07:34:29.000Z</time></trkpt>
        <trkpt lat="29.572304" lon="103.454588"><ele>482.46844</ele><time>2026-04-03T07:34:33.000Z</time></trkpt>
        <trkpt lat="29.572261" lon="103.454538"><ele>481.661</ele><time>2026-04-03T07:34:37.000Z</time></trkpt>
        <trkpt lat="29.572219" lon="103.454493"><ele>481.97784</ele><time>2026-04-03T07:34:41.000Z</time></trkpt>
        <trkpt lat="29.572174" lon="103.454448"><ele>481.81973</ele><time>2026-04-03T07:34:45.000Z</time></trkpt>
        <trkpt lat="29.572133" lon="103.454426"><ele>481.69617</ele><time>2026-04-03T07:34:48.000Z</time></trkpt>
        <trkpt lat="29.572105" lon="103.454383"><ele>481.60925</ele><time>2026-04-03T07:34:51.000Z</time></trkpt>
        <trkpt lat="29.572079" lon="103.45434"><ele>482.33893</ele><time>2026-04-03T07:34:54.000Z</time></trkpt>
        <trkpt lat="29.572052" lon="103.454296"><ele>481.51993</ele><time>2026-04-03T07:34:57.000Z</time></trkpt>
        <trkpt lat="29.57202" lon="103.45426"><ele>481.71622</ele><time>2026-04-03T07:35:00.000Z</time></trkpt>
        <trkpt lat="29.571978" lon="103.454229"><ele>480.35315</ele><time>2026-04-03T07:35:04.000Z</time></trkpt>
        <trkpt lat="29.57194" lon="103.45419"><ele>481.2267</ele><time>2026-04-03T07:35:07.000Z</time></trkpt>
        <trkpt lat="29.571912" lon="103.45415"><ele>481.45184</ele><time>2026-04-03T07:35:10.000Z</time></trkpt>
        <trkpt lat="29.571877" lon="103.454108"><ele>483.1691</ele><time>2026-04-03T07:35:14.000Z</time></trkpt>
        <trkpt lat="29.571836" lon="103.454066"><ele>481.04446</ele><time>2026-04-03T07:35:18.000Z</time></trkpt>
        <trkpt lat="29.571801" lon="103.454033"><ele>483.2127</ele><time>2026-04-03T07:35:21.000Z</time></trkpt>
        <trkpt lat="29.57176" lon="103.453985"><ele>484.75925</ele><time>2026-04-03T07:35:25.000Z</time></trkpt>
        <trkpt lat="29.571721" lon="103.453942"><ele>483.63885</ele><time>2026-04-03T07:35:29.000Z</time></trkpt>
        <trkpt lat="29.571674" lon="103.453906"><ele>485.3931</ele><time>2026-04-03T07:35:33.000Z</time></trkpt>
        <trkpt lat="29.571642" lon="103.453862"><ele>485.16617</ele><time>2026-04-03T07:35:36.000Z</time></trkpt>
        <trkpt lat="29.571598" lon="103.453814"><ele>484.9203</ele><time>2026-04-03T07:35:40.000Z</time></trkpt>
        <trkpt lat="29.571566" lon="103.453769"><ele>485.16068</ele><time>2026-04-03T07:35:43.000Z</time></trkpt>
        <trkpt lat="29.571536" lon="103.45371"><ele>485.33844</ele><time>2026-04-03T07:35:47.000Z</time></trkpt>
        <trkpt lat="29.571515" lon="103.453647"><ele>484.53802</ele><time>2026-04-03T07:35:51.000Z</time></trkpt>
        <trkpt lat="29.571501" lon="103.453593"><ele>485.2359</ele><time>2026-04-03T07:35:54.000Z</time></trkpt>
        <trkpt lat="29.571486" lon="103.453542"><ele>485.43954</ele><time>2026-04-03T07:35:57.000Z</time></trkpt>
        <trkpt lat="29.571472" lon="103.453477"><ele>485.7661</ele><time>2026-04-03T07:36:01.000Z</time></trkpt>
        <trkpt lat="29.571452" lon="103.453417"><ele>486.21594</ele><time>2026-04-03T07:36:05.000Z</time></trkpt>
        <trkpt lat="29.571441" lon="103.453356"><ele>485.87628</ele><time>2026-04-03T07:36:09.000Z</time></trkpt>
        <trkpt lat="29.571423" lon="103.453293"><ele>485.40067</ele><time>2026-04-03T07:36:13.000Z</time></trkpt>
        <trkpt lat="29.57142" lon="103.453231"><ele>485.80005</ele><time>2026-04-03T07:36:17.000Z</time></trkpt>
        <trkpt lat="29.571403" lon="103.453166"><ele>486.34058</ele><time>2026-04-03T07:36:21.000Z</time></trkpt>
        <trkpt lat="29.571394" lon="103.453101"><ele>487.04742</ele><time>2026-04-03T07:36:25.000Z</time></trkpt>
        <trkpt lat="29.571386" lon="103.453034"><ele>487.35062</ele><time>2026-04-03T07:36:30.000Z</time></trkpt>
        <trkpt lat="29.571375" lon="103.452983"><ele>487.3742</ele><time>2026-04-03T07:36:33.000Z</time></trkpt>
        <trkpt lat="29.571356" lon="103.452933"><ele>487.69208</ele><time>2026-04-03T07:36:36.000Z</time></trkpt>
        <trkpt lat="29.571355" lon="103.452869"><ele>488.38223</ele><time>2026-04-03T07:36:40.000Z</time></trkpt>
        <trkpt lat="29.571338" lon="103.452806"><ele>487.82477</ele><time>2026-04-03T07:36:44.000Z</time></trkpt>
        <trkpt lat="29.571317" lon="103.452759"><ele>487.67972</ele><time>2026-04-03T07:36:47.000Z</time></trkpt>
        <trkpt lat="29.571297" lon="103.45271"><ele>487.0456</ele><time>2026-04-03T07:36:50.000Z</time></trkpt>
        <trkpt lat="29.571267" lon="103.452666"><ele>486.60104</ele><time>2026-04-03T07:36:53.000Z</time></trkpt>
        <trkpt lat="29.571252" lon="103.452614"><ele>486.49463</ele><time>2026-04-03T07:36:56.000Z</time></trkpt>
        <trkpt lat="29.571232" lon="103.452565"><ele>486.5123</ele><time>2026-04-03T07:36:59.000Z</time></trkpt>
        <trkpt lat="29.571205" lon="103.452507"><ele>488.07016</ele><time>2026-04-03T07:37:03.000Z</time></trkpt>
        <trkpt lat="29.57119" lon="103.452442"><ele>487.60403</ele><time>2026-04-03T07:37:06.000Z</time></trkpt>
        <trkpt lat="29.571178" lon="103.45238"><ele>488.39603</ele><time>2026-04-03T07:37:10.000Z</time></trkpt>
        <trkpt lat="29.571163" lon="103.452316"><ele>488.68848</ele><time>2026-04-03T07:37:14.000Z</time></trkpt>
        <trkpt lat="29.571144" lon="103.452264"><ele>488.2652</ele><time>2026-04-03T07:37:17.000Z</time></trkpt>
        <trkpt lat="29.57112" lon="103.452214"><ele>489.26984</ele><time>2026-04-03T07:37:20.000Z</time></trkpt>
        <trkpt lat="29.571108" lon="103.452163"><ele>489.608</ele><time>2026-04-03T07:37:23.000Z</time></trkpt>
        <trkpt lat="29.571091" lon="103.4521"><ele>488.51212</ele><time>2026-04-03T07:37:27.000Z</time></trkpt>
        <trkpt lat="29.571072" lon="103.452052"><ele>488.67346</ele><time>2026-04-03T07:37:30.000Z</time></trkpt>
        <trkpt lat="29.571062" lon="103.451999"><ele>488.60953</ele><time>2026-04-03T07:37:33.000Z</time></trkpt>
        <trkpt lat="29.571056" lon="103.451948"><ele>488.02158</ele><time>2026-04-03T07:37:36.000Z</time></trkpt>
        <trkpt lat="29.571041" lon="103.451896"><ele>488.29214</ele><time>2026-04-03T07:37:39.000Z</time></trkpt>
        <trkpt lat="29.571025" lon="103.451846"><ele>488.6826</ele><time>2026-04-03T07:37:42.000Z</time></trkpt>
        <trkpt lat="29.571013" lon="103.451795"><ele>489.0246</ele><time>2026-04-03T07:37:45.000Z</time></trkpt>
        <trkpt lat="29.570998" lon="103.451743"><ele>489.5675</ele><time>2026-04-03T07:37:48.000Z</time></trkpt>
        <trkpt lat="29.570985" lon="103.451692"><ele>489.71243</ele><time>2026-04-03T07:37:51.000Z</time></trkpt>
        <trkpt lat="29.570968" lon="103.451641"><ele>489.44177</ele><time>2026-04-03T07:37:54.000Z</time></trkpt>
        <trkpt lat="29.570951" lon="103.451591"><ele>489.37228</ele><time>2026-04-03T07:37:57.000Z</time></trkpt>
        <trkpt lat="29.570927" lon="103.451542"><ele>489.73135</ele><time>2026-04-03T07:38:00.000Z</time></trkpt>
        <trkpt lat="29.570897" lon="103.451483"><ele>489.70978</ele><time>2026-04-03T07:38:04.000Z</time></trkpt>
        <trkpt lat="29.570861" lon="103.451437"><ele>490.1292</ele><time>2026-04-03T07:38:08.000Z</time></trkpt>
        <trkpt lat="29.570823" lon="103.451386"><ele>490.5104</ele><time>2026-04-03T07:38:12.000Z</time></trkpt>
        <trkpt lat="29.570785" lon="103.451338"><ele>490.87106</ele><time>2026-04-03T07:38:16.000Z</time></trkpt>
        <trkpt lat="29.570753" lon="103.451299"><ele>490.83185</ele><time>2026-04-03T07:38:19.000Z</time></trkpt>
        <trkpt lat="29.570705" lon="103.451262"><ele>489.74112</ele><time>2026-04-03T07:38:23.000Z</time></trkpt>
        <trkpt lat="29.570656" lon="103.451226"><ele>489.57318</ele><time>2026-04-03T07:38:27.000Z</time></trkpt>
        <trkpt lat="29.57061" lon="103.451191"><ele>490.2959</ele><time>2026-04-03T07:38:32.000Z</time></trkpt>
        <trkpt lat="29.570553" lon="103.451171"><ele>490.194</ele><time>2026-04-03T07:38:36.000Z</time></trkpt>
        <trkpt lat="29.570504" lon="103.451141"><ele>490.31403</ele><time>2026-04-03T07:38:40.000Z</time></trkpt>
        <trkpt lat="29.570455" lon="103.451109"><ele>490.45148</ele><time>2026-04-03T07:38:44.000Z</time></trkpt>
        <trkpt lat="29.570402" lon="103.451099"><ele>490.31412</ele><time>2026-04-03T07:38:48.000Z</time></trkpt>
        <trkpt lat="29.570353" lon="103.451066"><ele>492.63626</ele><time>2026-04-03T07:39:30.000Z</time></trkpt>
        <trkpt lat="29.570316" lon="103.45103"><ele>492.48138</ele><time>2026-04-03T07:39:33.000Z</time></trkpt>
        <trkpt lat="29.570287" lon="103.450989"><ele>492.7288</ele><time>2026-04-03T07:39:36.000Z</time></trkpt>
        <trkpt lat="29.570256" lon="103.45095"><ele>493.4385</ele><time>2026-04-03T07:39:39.000Z</time></trkpt>
        <trkpt lat="29.570229" lon="103.450892"><ele>493.31894</ele><time>2026-04-03T07:39:43.000Z</time></trkpt>
        <trkpt lat="29.570216" lon="103.450839"><ele>492.41806</ele><time>2026-04-03T07:39:46.000Z</time></trkpt>
        <trkpt lat="29.570195" lon="103.450792"><ele>492.25302</ele><time>2026-04-03T07:39:49.000Z</time></trkpt>
        <trkpt lat="29.570174" lon="103.450744"><ele>491.65228</ele><time>2026-04-03T07:39:52.000Z</time></trkpt>
        <trkpt lat="29.570156" lon="103.450678"><ele>491.50534</ele><time>2026-04-03T07:39:56.000Z</time></trkpt>
        <trkpt lat="29.570124" lon="103.450621"><ele>492.59055</ele><time>2026-04-03T07:40:00.000Z</time></trkpt>
        <trkpt lat="29.570124" lon="103.450559"><ele>491.26782</ele><time>2026-04-03T07:40:04.000Z</time></trkpt>
        <trkpt lat="29.570102" lon="103.450509"><ele>491.59238</ele><time>2026-04-03T07:40:07.000Z</time></trkpt>
        <trkpt lat="29.57009" lon="103.450457"><ele>491.6123</ele><time>2026-04-03T07:40:10.000Z</time></trkpt>
        <trkpt lat="29.570082" lon="103.450403"><ele>491.9986</ele><time>2026-04-03T07:40:13.000Z</time></trkpt>
        <trkpt lat="29.570068" lon="103.450337"><ele>491.69147</ele><time>2026-04-03T07:40:17.000Z</time></trkpt>
        <trkpt lat="29.570053" lon="103.450274"><ele>491.1134</ele><time>2026-04-03T07:40:21.000Z</time></trkpt>
        <trkpt lat="29.570048" lon="103.450221"><ele>491.5394</ele><time>2026-04-03T07:40:24.000Z</time></trkpt>
        <trkpt lat="29.570023" lon="103.450163"><ele>492.17603</ele><time>2026-04-03T07:40:28.000Z</time></trkpt>
        <trkpt lat="29.570021" lon="103.450108"><ele>491.5268</ele><time>2026-04-03T07:40:31.000Z</time></trkpt>
        <trkpt lat="29.570006" lon="103.450057"><ele>490.98303</ele><time>2026-04-03T07:40:34.000Z</time></trkpt>
        <trkpt lat="29.569994" lon="103.449991"><ele>491.48074</ele><time>2026-04-03T07:40:38.000Z</time></trkpt>
        <trkpt lat="29.569976" lon="103.449939"><ele>491.47586</ele><time>2026-04-03T07:40:41.000Z</time></trkpt>
        <trkpt lat="29.569971" lon="103.449883"><ele>492.1392</ele><time>2026-04-03T07:40:44.000Z</time></trkpt>
        <trkpt lat="29.569953" lon="103.449829"><ele>493.6437</ele><time>2026-04-03T07:40:47.000Z</time></trkpt>
        <trkpt lat="29.569954" lon="103.449762"><ele>491.23593</ele><time>2026-04-03T07:40:51.000Z</time></trkpt>
        <trkpt lat="29.56994" lon="103.449707"><ele>491.59094</ele><time>2026-04-03T07:40:54.000Z</time></trkpt>
        <trkpt lat="29.569924" lon="103.449656"><ele>492.9698</ele><time>2026-04-03T07:40:57.000Z</time></trkpt>
        <trkpt lat="29.569905" lon="103.44959"><ele>493.69394</ele><time>2026-04-03T07:41:01.000Z</time></trkpt>
        <trkpt lat="29.569899" lon="103.449534"><ele>494.42383</ele><time>2026-04-03T07:41:04.000Z</time></trkpt>
        <trkpt lat="29.569884" lon="103.449483"><ele>494.46082</ele><time>2026-04-03T07:41:07.000Z</time></trkpt>
        <trkpt lat="29.569877" lon="103.449414"><ele>493.474</ele><time>2026-04-03T07:41:11.000Z</time></trkpt>
        <trkpt lat="29.569852" lon="103.449361"><ele>494.30368</ele><time>2026-04-03T07:41:14.000Z</time></trkpt>
        <trkpt lat="29.569833" lon="103.44931"><ele>495.11942</ele><time>2026-04-03T07:41:17.000Z</time></trkpt>
        <trkpt lat="29.569824" lon="103.449257"><ele>494.67575</ele><time>2026-04-03T07:41:20.000Z</time></trkpt>
        <trkpt lat="29.569813" lon="103.449192"><ele>492.88657</ele><time>2026-04-03T07:41:24.000Z</time></trkpt>
        <trkpt lat="29.569791" lon="103.449134"><ele>492.5385</ele><time>2026-04-03T07:41:28.000Z</time></trkpt>
        <trkpt lat="29.569784" lon="103.449065"><ele>493.41876</ele><time>2026-04-03T07:41:32.000Z</time></trkpt>
        <trkpt lat="29.569773" lon="103.449"><ele>493.34738</ele><time>2026-04-03T07:41:36.000Z</time></trkpt>
        <trkpt lat="29.569758" lon="103.448947"><ele>494.09415</ele><time>2026-04-03T07:41:39.000Z</time></trkpt>
        <trkpt lat="29.569738" lon="103.44888"><ele>494.49374</ele><time>2026-04-03T07:41:43.000Z</time></trkpt>
        <trkpt lat="29.569733" lon="103.448826"><ele>493.73346</ele><time>2026-04-03T07:41:46.000Z</time></trkpt>
        <trkpt lat="29.569715" lon="103.448761"><ele>493.39066</ele><time>2026-04-03T07:41:50.000Z</time></trkpt>
        <trkpt lat="29.569699" lon="103.448699"><ele>492.03348</ele><time>2026-04-03T07:41:54.000Z</time></trkpt>
        <trkpt lat="29.569676" lon="103.448637"><ele>494.11633</ele><time>2026-04-03T07:41:58.000Z</time></trkpt>
        <trkpt lat="29.569653" lon="103.448589"><ele>494.5657</ele><time>2026-04-03T07:42:01.000Z</time></trkpt>
        <trkpt lat="29.569649" lon="103.448532"><ele>495.6428</ele><time>2026-04-03T07:42:04.000Z</time></trkpt>
        <trkpt lat="29.569628" lon="103.448478"><ele>497.2022</ele><time>2026-04-03T07:42:07.000Z</time></trkpt>
        <trkpt lat="29.569603" lon="103.448416"><ele>498.59897</ele><time>2026-04-03T07:42:11.000Z</time></trkpt>
        <trkpt lat="29.569597" lon="103.448352"><ele>500.15875</ele><time>2026-04-03T07:42:15.000Z</time></trkpt>
        <trkpt lat="29.569578" lon="103.448284"><ele>499.841</ele><time>2026-04-03T07:42:19.000Z</time></trkpt>
        <trkpt lat="29.569558" lon="103.448237"><ele>499.25644</ele><time>2026-04-03T07:42:22.000Z</time></trkpt>
        <trkpt lat="29.569527" lon="103.448181"><ele>499.40665</ele><time>2026-04-03T07:42:26.000Z</time></trkpt>
        <trkpt lat="29.569516" lon="103.44812"><ele>500.44696</ele><time>2026-04-03T07:42:30.000Z</time></trkpt>
        <trkpt lat="29.569506" lon="103.448056"><ele>499.1806</ele><time>2026-04-03T07:42:34.000Z</time></trkpt>
        <trkpt lat="29.569487" lon="103.447987"><ele>498.25845</ele><time>2026-04-03T07:42:38.000Z</time></trkpt>
        <trkpt lat="29.569481" lon="103.447931"><ele>497.96725</ele><time>2026-04-03T07:42:41.000Z</time></trkpt>
        <trkpt lat="29.569472" lon="103.447863"><ele>496.85303</ele><time>2026-04-03T07:42:45.000Z</time></trkpt>
        <trkpt lat="29.569458" lon="103.447814"><ele>496.7191</ele><time>2026-04-03T07:42:48.000Z</time></trkpt>
        <trkpt lat="29.569445" lon="103.447764"><ele>496.55884</ele><time>2026-04-03T07:42:51.000Z</time></trkpt>
        <trkpt lat="29.569432" lon="103.447696"><ele>496.8692</ele><time>2026-04-03T07:42:55.000Z</time></trkpt>
        <trkpt lat="29.569422" lon="103.447646"><ele>497.75406</ele><time>2026-04-03T07:42:58.000Z</time></trkpt>
        <trkpt lat="29.569406" lon="103.447581"><ele>498.66507</ele><time>2026-04-03T07:43:02.000Z</time></trkpt>
        <trkpt lat="29.56939" lon="103.447518"><ele>499.3459</ele><time>2026-04-03T07:43:06.000Z</time></trkpt>
        <trkpt lat="29.569378" lon="103.447452"><ele>499.59082</ele><time>2026-04-03T07:43:10.000Z</time></trkpt>
        <trkpt lat="29.569368" lon="103.4474"><ele>499.00974</ele><time>2026-04-03T07:43:13.000Z</time></trkpt>
        <trkpt lat="29.56935" lon="103.447339"><ele>498.16574</ele><time>2026-04-03T07:43:17.000Z</time></trkpt>
        <trkpt lat="29.569329" lon="103.447277"><ele>498.187</ele><time>2026-04-03T07:43:21.000Z</time></trkpt>
        <trkpt lat="29.569313" lon="103.447214"><ele>497.73962</ele><time>2026-04-03T07:43:25.000Z</time></trkpt>
        <trkpt lat="29.569298" lon="103.447157"><ele>497.1495</ele><time>2026-04-03T07:43:29.000Z</time></trkpt>
        <trkpt lat="29.569286" lon="103.447102"><ele>497.33218</ele><time>2026-04-03T07:43:33.000Z</time></trkpt>
        <trkpt lat="29.569266" lon="103.447044"><ele>497.49677</ele><time>2026-04-03T07:43:37.000Z</time></trkpt>
        <trkpt lat="29.569252" lon="103.446994"><ele>498.30237</ele><time>2026-04-03T07:43:40.000Z</time></trkpt>
        <trkpt lat="29.56924" lon="103.446944"><ele>498.48926</ele><time>2026-04-03T07:43:43.000Z</time></trkpt>
        <trkpt lat="29.569227" lon="103.446893"><ele>496.83154</ele><time>2026-04-03T07:43:46.000Z</time></trkpt>
        <trkpt lat="29.569214" lon="103.446841"><ele>496.05136</ele><time>2026-04-03T07:43:49.000Z</time></trkpt>
        <trkpt lat="29.569199" lon="103.446776"><ele>497.48453</ele><time>2026-04-03T07:43:53.000Z</time></trkpt>
        <trkpt lat="29.569186" lon="103.446709"><ele>499.18588</ele><time>2026-04-03T07:43:57.000Z</time></trkpt>
        <trkpt lat="29.569173" lon="103.446659"><ele>498.2418</ele><time>2026-04-03T07:44:00.000Z</time></trkpt>
        <trkpt lat="29.569161" lon="103.446607"><ele>499.8427</ele><time>2026-04-03T07:44:03.000Z</time></trkpt>
        <trkpt lat="29.569145" lon="103.446544"><ele>499.91757</ele><time>2026-04-03T07:44:07.000Z</time></trkpt>
        <trkpt lat="29.569135" lon="103.44649"><ele>499.85062</ele><time>2026-04-03T07:44:10.000Z</time></trkpt>
        <trkpt lat="29.569125" lon="103.446438"><ele>499.09</ele><time>2026-04-03T07:44:13.000Z</time></trkpt>
        <trkpt lat="29.569106" lon="103.446373"><ele>499.7101</ele><time>2026-04-03T07:44:17.000Z</time></trkpt>
        <trkpt lat="29.569092" lon="103.446323"><ele>499.61752</ele><time>2026-04-03T07:44:20.000Z</time></trkpt>
        <trkpt lat="29.569076" lon="103.446272"><ele>499.14313</ele><time>2026-04-03T07:44:23.000Z</time></trkpt>
        <trkpt lat="29.569066" lon="103.446221"><ele>499.42807</ele><time>2026-04-03T07:44:26.000Z</time></trkpt>
        <trkpt lat="29.569046" lon="103.446162"><ele>500.97446</ele><time>2026-04-03T07:44:30.000Z</time></trkpt>
        <trkpt lat="29.569031" lon="103.446095"><ele>501.369</ele><time>2026-04-03T07:44:34.000Z</time></trkpt>
        <trkpt lat="29.56902" lon="103.446028"><ele>501.25293</ele><time>2026-04-03T07:44:38.000Z</time></trkpt>
        <trkpt lat="29.569" lon="103.445964"><ele>502.15918</ele><time>2026-04-03T07:44:42.000Z</time></trkpt>
        <trkpt lat="29.568991" lon="103.445911"><ele>502.09283</ele><time>2026-04-03T07:44:45.000Z</time></trkpt>
        <trkpt lat="29.568975" lon="103.445846"><ele>502.20053</ele><time>2026-04-03T07:44:50.000Z</time></trkpt>
        <trkpt lat="29.568957" lon="103.445797"><ele>501.8697</ele><time>2026-04-03T07:44:53.000Z</time></trkpt>
        <trkpt lat="29.568934" lon="103.445738"><ele>502.3446</ele><time>2026-04-03T07:44:57.000Z</time></trkpt>
        <trkpt lat="29.568922" lon="103.445685"><ele>502.82062</ele><time>2026-04-03T07:45:00.000Z</time></trkpt>
        <trkpt lat="29.56891" lon="103.445617"><ele>502.3452</ele><time>2026-04-03T07:45:04.000Z</time></trkpt>
        <trkpt lat="29.568899" lon="103.445566"><ele>502.73276</ele><time>2026-04-03T07:45:07.000Z</time></trkpt>
        <trkpt lat="29.568886" lon="103.445502"><ele>501.85052</ele><time>2026-04-03T07:45:11.000Z</time></trkpt>
        <trkpt lat="29.56887" lon="103.445435"><ele>501.28436</ele><time>2026-04-03T07:45:15.000Z</time></trkpt>
        <trkpt lat="29.568853" lon="103.445372"><ele>501.86417</ele><time>2026-04-03T07:45:18.000Z</time></trkpt>
        <trkpt lat="29.568836" lon="103.445308"><ele>500.9824</ele><time>2026-04-03T07:45:22.000Z</time></trkpt>
        <trkpt lat="29.568822" lon="103.445245"><ele>501.85577</ele><time>2026-04-03T07:45:26.000Z</time></trkpt>
        <trkpt lat="29.568809" lon="103.445193"><ele>503.1427</ele><time>2026-04-03T07:45:29.000Z</time></trkpt>
        <trkpt lat="29.568794" lon="103.445131"><ele>504.29077</ele><time>2026-04-03T07:45:33.000Z</time></trkpt>
        <trkpt lat="29.568765" lon="103.445091"><ele>504.26727</ele><time>2026-04-03T07:45:37.000Z</time></trkpt>
        <trkpt lat="29.568757" lon="103.445024"><ele>502.23935</ele><time>2026-04-03T07:45:41.000Z</time></trkpt>
        <trkpt lat="29.568742" lon="103.444975"><ele>504.37177</ele><time>2026-04-03T07:45:44.000Z</time></trkpt>
        <trkpt lat="29.56873" lon="103.444925"><ele>505.9048</ele><time>2026-04-03T07:45:47.000Z</time></trkpt>
        <trkpt lat="29.568712" lon="103.444864"><ele>505.14697</ele><time>2026-04-03T07:45:51.000Z</time></trkpt>
        <trkpt lat="29.568703" lon="103.444811"><ele>505.479</ele><time>2026-04-03T07:45:55.000Z</time></trkpt>
        <trkpt lat="29.568685" lon="103.444761"><ele>506.66705</ele><time>2026-04-03T07:45:59.000Z</time></trkpt>
        <trkpt lat="29.568677" lon="103.444699"><ele>505.70755</ele><time>2026-04-03T07:46:03.000Z</time></trkpt>
        <trkpt lat="29.568664" lon="103.44465"><ele>506.7615</ele><time>2026-04-03T07:46:06.000Z</time></trkpt>
        <trkpt lat="29.568642" lon="103.444582"><ele>508.70297</ele><time>2026-04-03T07:46:10.000Z</time></trkpt>
        <trkpt lat="29.568626" lon="103.444528"><ele>510.19537</ele><time>2026-04-03T07:46:15.000Z</time></trkpt>
        <trkpt lat="29.568619" lon="103.444463"><ele>508.65967</ele><time>2026-04-03T07:46:24.000Z</time></trkpt>
        <trkpt lat="29.568599" lon="103.4444"><ele>508.30536</ele><time>2026-04-03T07:46:28.000Z</time></trkpt>
        <trkpt lat="29.568587" lon="103.44434"><ele>508.77264</ele><time>2026-04-03T07:46:32.000Z</time></trkpt>
        <trkpt lat="29.568577" lon="103.444282"><ele>508.30905</ele><time>2026-04-03T07:46:36.000Z</time></trkpt>
        <trkpt lat="29.568557" lon="103.444226"><ele>508.1981</ele><time>2026-04-03T07:46:40.000Z</time></trkpt>
        <trkpt lat="29.568534" lon="103.444177"><ele>509.37543</ele><time>2026-04-03T07:46:44.000Z</time></trkpt>
        <trkpt lat="29.56851" lon="103.444123"><ele>510.7334</ele><time>2026-04-03T07:46:48.000Z</time></trkpt>
        <trkpt lat="29.568499" lon="103.44407"><ele>511.21387</ele><time>2026-04-03T07:46:52.000Z</time></trkpt>
        <trkpt lat="29.568494" lon="103.444016"><ele>512.27313</ele><time>2026-04-03T07:46:57.000Z</time></trkpt>
        <trkpt lat="29.568512" lon="103.443957"><ele>512.5436</ele><time>2026-04-03T07:47:01.000Z</time></trkpt>
        <trkpt lat="29.568515" lon="103.4439"><ele>512.45874</ele><time>2026-04-03T07:47:06.000Z</time></trkpt>
        <trkpt lat="29.568508" lon="103.443847"><ele>511.37344</ele><time>2026-04-03T07:47:20.000Z</time></trkpt>
        <trkpt lat="29.56852" lon="103.443793"><ele>511.5738</ele><time>2026-04-03T07:47:30.000Z</time></trkpt>
        <trkpt lat="29.568562" lon="103.44377"><ele>514.27673</ele><time>2026-04-03T07:47:47.000Z</time></trkpt>
        <trkpt lat="29.568559" lon="103.443714"><ele>513.3676</ele><time>2026-04-03T07:47:52.000Z</time></trkpt>
        <trkpt lat="29.568546" lon="103.443662"><ele>511.84982</ele><time>2026-04-03T07:48:05.000Z</time></trkpt>
        <trkpt lat="29.568525" lon="103.44361"><ele>510.3758</ele><time>2026-04-03T07:48:09.000Z</time></trkpt>
        <trkpt lat="29.568496" lon="103.443563"><ele>511.4536</ele><time>2026-04-03T07:48:17.000Z</time></trkpt>
        <trkpt lat="29.568456" lon="103.443515"><ele>510.98596</ele><time>2026-04-03T07:48:23.000Z</time></trkpt>
        <trkpt lat="29.568409" lon="103.443546"><ele>510.35507</ele><time>2026-04-03T07:48:31.000Z</time></trkpt>
        <trkpt lat="29.56838" lon="103.443591"><ele>509.66318</ele><time>2026-04-03T07:48:35.000Z</time></trkpt>
        <trkpt lat="29.568332" lon="103.443615"><ele>510.1923</ele><time>2026-04-03T07:48:40.000Z</time></trkpt>
        <trkpt lat="29.568282" lon="103.443635"><ele>511.56848</ele><time>2026-04-03T07:49:02.000Z</time></trkpt>
        <trkpt lat="29.56827" lon="103.443695"><ele>511.09448</ele><time>2026-04-03T07:49:06.000Z</time></trkpt>
        <trkpt lat="29.568239" lon="103.443739"><ele>510.13452</ele><time>2026-04-03T07:49:10.000Z</time></trkpt>
        <trkpt lat="29.568249" lon="103.443791"><ele>510.151</ele><time>2026-04-03T07:49:16.000Z</time></trkpt>
        <trkpt lat="29.568271" lon="103.443848"><ele>508.845</ele><time>2026-04-03T07:49:20.000Z</time></trkpt>
        <trkpt lat="29.568304" lon="103.443899"><ele>508.3008</ele><time>2026-04-03T07:49:25.000Z</time></trkpt>
        <trkpt lat="29.568337" lon="103.443949"><ele>507.86002</ele><time>2026-04-03T07:49:29.000Z</time></trkpt>
        <trkpt lat="29.568352" lon="103.444005"><ele>508.25027</ele><time>2026-04-03T07:49:33.000Z</time></trkpt>
        <trkpt lat="29.568392" lon="103.444036"><ele>508.39545</ele><time>2026-04-03T07:49:39.000Z</time></trkpt>
        <trkpt lat="29.568427" lon="103.44399"><ele>508.6304</ele><time>2026-04-03T07:49:49.000Z</time></trkpt>
        <trkpt lat="29.568444" lon="103.443929"><ele>508.76825</ele><time>2026-04-03T07:49:53.000Z</time></trkpt>
        <trkpt lat="29.568436" lon="103.443861"><ele>509.31573</ele><time>2026-04-03T07:49:57.000Z</time></trkpt>
        <trkpt lat="29.568442" lon="103.443795"><ele>509.8447</ele><time>2026-04-03T07:50:01.000Z</time></trkpt>
        <trkpt lat="29.568444" lon="103.443727"><ele>510.43942</ele><time>2026-04-03T07:50:05.000Z</time></trkpt>
        <trkpt lat="29.568454" lon="103.44366"><ele>510.18613</ele><time>2026-04-03T07:50:09.000Z</time></trkpt>
        <trkpt lat="29.568454" lon="103.443593"><ele>509.3868</ele><time>2026-04-03T07:50:13.000Z</time></trkpt>
        <trkpt lat="29.568454" lon="103.44354"><ele>509.6465</ele><time>2026-04-03T07:50:16.000Z</time></trkpt>
        <trkpt lat="29.568453" lon="103.443488"><ele>510.5185</ele><time>2026-04-03T07:50:19.000Z</time></trkpt>
        <trkpt lat="29.568465" lon="103.443421"><ele>510.68503</ele><time>2026-04-03T07:50:23.000Z</time></trkpt>
        <trkpt lat="29.568493" lon="103.443367"><ele>511.04617</ele><time>2026-04-03T07:50:27.000Z</time></trkpt>
        <trkpt lat="29.568513" lon="103.443319"><ele>512.0544</ele><time>2026-04-03T07:50:38.000Z</time></trkpt>
        <trkpt lat="29.568561" lon="103.443318"><ele>512.1507</ele><time>2026-04-03T07:50:45.000Z</time></trkpt>
        <trkpt lat="29.568595" lon="103.443277"><ele>512.57837</ele><time>2026-04-03T07:50:50.000Z</time></trkpt>
        <trkpt lat="29.568645" lon="103.443259"><ele>512.80225</ele><time>2026-04-03T07:50:55.000Z</time></trkpt>
        <trkpt lat="29.56867" lon="103.443213"><ele>511.91306</ele><time>2026-04-03T07:50:59.000Z</time></trkpt>
        <trkpt lat="29.568685" lon="103.443157"><ele>512.3319</ele><time>2026-04-03T07:51:03.000Z</time></trkpt>
        <trkpt lat="29.568703" lon="103.443102"><ele>512.13446</ele><time>2026-04-03T07:51:07.000Z</time></trkpt>
        <trkpt lat="29.568719" lon="103.443051"><ele>511.28012</ele><time>2026-04-03T07:51:11.000Z</time></trkpt>
        <trkpt lat="29.56873" lon="103.442997"><ele>510.785</ele><time>2026-04-03T07:51:15.000Z</time></trkpt>
        <trkpt lat="29.568742" lon="103.442946"><ele>511.2682</ele><time>2026-04-03T07:51:19.000Z</time></trkpt>
        <trkpt lat="29.568753" lon="103.44289"><ele>512.12823</ele><time>2026-04-03T07:51:23.000Z</time></trkpt>
        <trkpt lat="29.568757" lon="103.442836"><ele>513.7265</ele><time>2026-04-03T07:51:27.000Z</time></trkpt>
        <trkpt lat="29.56877" lon="103.442781"><ele>514.43085</ele><time>2026-04-03T07:51:31.000Z</time></trkpt>
        <trkpt lat="29.568791" lon="103.442727"><ele>515.1586</ele><time>2026-04-03T07:51:35.000Z</time></trkpt>
        <trkpt lat="29.568811" lon="103.442667"><ele>515.70135</ele><time>2026-04-03T07:51:39.000Z</time></trkpt>
        <trkpt lat="29.568823" lon="103.442609"><ele>515.40625</ele><time>2026-04-03T07:51:43.000Z</time></trkpt>
        <trkpt lat="29.568831" lon="103.442547"><ele>515.2541</ele><time>2026-04-03T07:51:47.000Z</time></trkpt>
        <trkpt lat="29.56883" lon="103.442489"><ele>516.5306</ele><time>2026-04-03T07:51:51.000Z</time></trkpt>
        <trkpt lat="29.568834" lon="103.442432"><ele>517.75446</ele><time>2026-04-03T07:51:54.000Z</time></trkpt>
        <trkpt lat="29.568841" lon="103.442372"><ele>520.7606</ele><time>2026-04-03T07:51:58.000Z</time></trkpt>
        <trkpt lat="29.568853" lon="103.44231"><ele>523.0169</ele><time>2026-04-03T07:52:02.000Z</time></trkpt>
        <trkpt lat="29.568863" lon="103.442251"><ele>524.3283</ele><time>2026-04-03T07:52:06.000Z</time></trkpt>
        <trkpt lat="29.568879" lon="103.44219"><ele>523.1247</ele><time>2026-04-03T07:52:10.000Z</time></trkpt>
        <trkpt lat="29.568902" lon="103.442143"><ele>520.3568</ele><time>2026-04-03T07:52:16.000Z</time></trkpt>
        <trkpt lat="29.568907" lon="103.442092"><ele>521.16595</ele><time>2026-04-03T07:52:20.000Z</time></trkpt>
        <trkpt lat="29.568915" lon="103.442039"><ele>518.9706</ele><time>2026-04-03T07:52:23.000Z</time></trkpt>
        <trkpt lat="29.568928" lon="103.441974"><ele>517.93896</ele><time>2026-04-03T07:52:27.000Z</time></trkpt>
        <trkpt lat="29.568941" lon="103.441922"><ele>516.5569</ele><time>2026-04-03T07:52:30.000Z</time></trkpt>
        <trkpt lat="29.568952" lon="103.441855"><ele>517.2798</ele><time>2026-04-03T07:52:34.000Z</time></trkpt>
        <trkpt lat="29.568952" lon="103.441794"><ele>517.1996</ele><time>2026-04-03T07:52:38.000Z</time></trkpt>
        <trkpt lat="29.568959" lon="103.441739"><ele>518.8286</ele><time>2026-04-03T07:52:41.000Z</time></trkpt>
        <trkpt lat="29.568965" lon="103.441679"><ele>520.46246</ele><time>2026-04-03T07:52:45.000Z</time></trkpt>
        <trkpt lat="29.568968" lon="103.441624"><ele>521.2293</ele><time>2026-04-03T07:52:49.000Z</time></trkpt>
        <trkpt lat="29.568973" lon="103.441566"><ele>519.8352</ele><time>2026-04-03T07:52:53.000Z</time></trkpt>
        <trkpt lat="29.568983" lon="103.441507"><ele>519.0534</ele><time>2026-04-03T07:52:57.000Z</time></trkpt>
        <trkpt lat="29.568985" lon="103.441452"><ele>521.0876</ele><time>2026-04-03T07:53:06.000Z</time></trkpt>
        <trkpt lat="29.568936" lon="103.441454"><ele>522.2214</ele><time>2026-04-03T07:53:13.000Z</time></trkpt>
        <trkpt lat="29.568887" lon="103.441452"><ele>521.863</ele><time>2026-04-03T07:53:17.000Z</time></trkpt>
        <trkpt lat="29.568834" lon="103.441433"><ele>521.5247</ele><time>2026-04-03T07:53:21.000Z</time></trkpt>
        <trkpt lat="29.56878" lon="103.441412"><ele>521.45886</ele><time>2026-04-03T07:53:26.000Z</time></trkpt>
        <trkpt lat="29.568729" lon="103.441389"><ele>520.4759</ele><time>2026-04-03T07:53:29.000Z</time></trkpt>
        <trkpt lat="29.568677" lon="103.441373"><ele>519.8141</ele><time>2026-04-03T07:53:33.000Z</time></trkpt>
        <trkpt lat="29.568659" lon="103.441319"><ele>519.63605</ele><time>2026-04-03T07:53:42.000Z</time></trkpt>
        <trkpt lat="29.568676" lon="103.441258"><ele>518.7273</ele><time>2026-04-03T07:53:49.000Z</time></trkpt>
        <trkpt lat="29.568677" lon="103.441194"><ele>518.19696</ele><time>2026-04-03T07:53:54.000Z</time></trkpt>
        <trkpt lat="29.568685" lon="103.441137"><ele>520.20917</ele><time>2026-04-03T07:53:58.000Z</time></trkpt>
        <trkpt lat="29.568678" lon="103.44107"><ele>521.8341</ele><time>2026-04-03T07:54:02.000Z</time></trkpt>
        <trkpt lat="29.568664" lon="103.441013"><ele>521.8227</ele><time>2026-04-03T07:54:06.000Z</time></trkpt>
        <trkpt lat="29.568637" lon="103.440967"><ele>522.9418</ele><time>2026-04-03T07:54:11.000Z</time></trkpt>
        <trkpt lat="29.568621" lon="103.440912"><ele>522.09906</ele><time>2026-04-03T07:54:14.000Z</time></trkpt>
        <trkpt lat="29.568588" lon="103.44087"><ele>522.8087</ele><time>2026-04-03T07:54:17.000Z</time></trkpt>
        <trkpt lat="29.568585" lon="103.440817"><ele>520.7619</ele><time>2026-04-03T07:54:20.000Z</time></trkpt>
        <trkpt lat="29.568614" lon="103.440766"><ele>520.7979</ele><time>2026-04-03T07:54:24.000Z</time></trkpt>
        <trkpt lat="29.568659" lon="103.440731"><ele>523.2875</ele><time>2026-04-03T07:54:28.000Z</time></trkpt>
        <trkpt lat="29.568682" lon="103.440685"><ele>523.60626</ele><time>2026-04-03T07:54:33.000Z</time></trkpt>
        <trkpt lat="29.568647" lon="103.440634"><ele>523.2875</ele><time>2026-04-03T07:54:37.000Z</time></trkpt>
        <trkpt lat="29.568641" lon="103.440576"><ele>522.58527</ele><time>2026-04-03T07:54:41.000Z</time></trkpt>
        <trkpt lat="29.568648" lon="103.440521"><ele>522.8055</ele><time>2026-04-03T07:54:46.000Z</time></trkpt>
        <trkpt lat="29.568679" lon="103.440479"><ele>522.35345</ele><time>2026-04-03T07:54:50.000Z</time></trkpt>
        <trkpt lat="29.568702" lon="103.44043"><ele>525.754</ele><time>2026-04-03T07:54:55.000Z</time></trkpt>
        <trkpt lat="29.568745" lon="103.440447"><ele>527.3874</ele><time>2026-04-03T07:55:07.000Z</time></trkpt>
        <trkpt lat="29.568794" lon="103.440483"><ele>525.1197</ele><time>2026-04-03T07:55:12.000Z</time></trkpt>
        <trkpt lat="29.568835" lon="103.440521"><ele>523.98096</ele><time>2026-04-03T07:55:16.000Z</time></trkpt>
        <trkpt lat="29.568874" lon="103.44056"><ele>523.745</ele><time>2026-04-03T07:55:20.000Z</time></trkpt>
        <trkpt lat="29.568908" lon="103.4406"><ele>524.3663</ele><time>2026-04-03T07:55:24.000Z</time></trkpt>
        <trkpt lat="29.568935" lon="103.44066"><ele>528.3502</ele><time>2026-04-03T07:55:28.000Z</time></trkpt>
        <trkpt lat="29.568987" lon="103.44066"><ele>529.5616</ele><time>2026-04-03T07:55:33.000Z</time></trkpt>
        <trkpt lat="29.56901" lon="103.44071"><ele>528.2211</ele><time>2026-04-03T07:55:37.000Z</time></trkpt>
        <trkpt lat="29.569039" lon="103.440767"><ele>527.4519</ele><time>2026-04-03T07:55:41.000Z</time></trkpt>
        <trkpt lat="29.569052" lon="103.44082"><ele>526.0168</ele><time>2026-04-03T07:55:46.000Z</time></trkpt>
        <trkpt lat="29.569058" lon="103.440874"><ele>524.6005</ele><time>2026-04-03T07:55:49.000Z</time></trkpt>
        <trkpt lat="29.569077" lon="103.440926"><ele>525.02545</ele><time>2026-04-03T07:55:53.000Z</time></trkpt>
        <trkpt lat="29.569102" lon="103.440969"><ele>533.4815</ele><time>2026-04-03T07:56:37.000Z</time></trkpt>
        <trkpt lat="29.569147" lon="103.44096"><ele>532.4319</ele><time>2026-04-03T07:56:42.000Z</time></trkpt>
        <trkpt lat="29.569098" lon="103.440972"><ele>530.38556</ele><time>2026-04-03T07:56:57.000Z</time></trkpt>
        <trkpt lat="29.569072" lon="103.440926"><ele>531.30756</ele><time>2026-04-03T07:57:02.000Z</time></trkpt>
        <trkpt lat="29.569048" lon="103.440864"><ele>531.65283</ele><time>2026-04-03T07:57:08.000Z</time></trkpt>
        <trkpt lat="29.569052" lon="103.440806"><ele>530.6723</ele><time>2026-04-03T07:57:12.000Z</time></trkpt>
        <trkpt lat="29.569045" lon="103.440748"><ele>530.9736</ele><time>2026-04-03T07:57:16.000Z</time></trkpt>
        <trkpt lat="29.569031" lon="103.440698"><ele>530.7943</ele><time>2026-04-03T07:57:20.000Z</time></trkpt>
        <trkpt lat="29.569026" lon="103.440643"><ele>532.0265</ele><time>2026-04-03T07:57:25.000Z</time></trkpt>
        <trkpt lat="29.569011" lon="103.440584"><ele>531.67505</ele><time>2026-04-03T07:57:30.000Z</time></trkpt>
        <trkpt lat="29.568996" lon="103.44053"><ele>533.97296</ele><time>2026-04-03T07:57:34.000Z</time></trkpt>
        <trkpt lat="29.569004" lon="103.440471"><ele>535.1103</ele><time>2026-04-03T07:57:39.000Z</time></trkpt>
        <trkpt lat="29.569011" lon="103.440416"><ele>533.8699</ele><time>2026-04-03T07:57:43.000Z</time></trkpt>
        <trkpt lat="29.569003" lon="103.44036"><ele>532.8221</ele><time>2026-04-03T07:57:47.000Z</time></trkpt>
        <trkpt lat="29.56899" lon="103.440303"><ele>532.11053</ele><time>2026-04-03T07:57:52.000Z</time></trkpt>
        <trkpt lat="29.568961" lon="103.440246"><ele>532.72833</ele><time>2026-04-03T07:57:57.000Z</time></trkpt>
        <trkpt lat="29.568933" lon="103.4402"><ele>532.3848</ele><time>2026-04-03T07:58:01.000Z</time></trkpt>
        <trkpt lat="29.568904" lon="103.440148"><ele>532.34436</ele><time>2026-04-03T07:58:06.000Z</time></trkpt>
        <trkpt lat="29.568883" lon="103.440098"><ele>533.31946</ele><time>2026-04-03T07:58:11.000Z</time></trkpt>
        <trkpt lat="29.568845" lon="103.440064"><ele>534.23755</ele><time>2026-04-03T07:58:16.000Z</time></trkpt>
        <trkpt lat="29.568815" lon="103.440024"><ele>535.89526</ele><time>2026-04-03T07:58:22.000Z</time></trkpt>
        <trkpt lat="29.568767" lon="103.440001"><ele>536.70264</ele><time>2026-04-03T07:58:26.000Z</time></trkpt>
        <trkpt lat="29.568732" lon="103.439968"><ele>535.0459</ele><time>2026-04-03T07:58:31.000Z</time></trkpt>
        <trkpt lat="29.568699" lon="103.439922"><ele>538.3942</ele><time>2026-04-03T07:59:20.000Z</time></trkpt>
        <trkpt lat="29.568663" lon="103.439883"><ele>535.88684</ele><time>2026-04-03T07:59:25.000Z</time></trkpt>
        <trkpt lat="29.56864" lon="103.439836"><ele>536.309</ele><time>2026-04-03T07:59:29.000Z</time></trkpt>
        <trkpt lat="29.568623" lon="103.439784"><ele>536.9135</ele><time>2026-04-03T07:59:34.000Z</time></trkpt>
        <trkpt lat="29.568588" lon="103.439744"><ele>538.45593</ele><time>2026-04-03T07:59:38.000Z</time></trkpt>
        <trkpt lat="29.568551" lon="103.439709"><ele>539.1226</ele><time>2026-04-03T07:59:43.000Z</time></trkpt>
        <trkpt lat="29.568521" lon="103.439664"><ele>539.2078</ele><time>2026-04-03T07:59:47.000Z</time></trkpt>
        <trkpt lat="29.568496" lon="103.439619"><ele>539.99286</ele><time>2026-04-03T07:59:51.000Z</time></trkpt>
        <trkpt lat="29.568462" lon="103.439572"><ele>541.1892</ele><time>2026-04-03T07:59:56.000Z</time></trkpt>
        <trkpt lat="29.568442" lon="103.439526"><ele>540.34656</ele><time>2026-04-03T08:00:00.000Z</time></trkpt>
        <trkpt lat="29.568403" lon="103.439483"><ele>538.9436</ele><time>2026-04-03T08:00:04.000Z</time></trkpt>
        <trkpt lat="29.56835" lon="103.439455"><ele>540.2898</ele><time>2026-04-03T08:00:08.000Z</time></trkpt>
        <trkpt lat="29.568305" lon="103.439426"><ele>540.8303</ele><time>2026-04-03T08:00:13.000Z</time></trkpt>
        <trkpt lat="29.56825" lon="103.439388"><ele>541.4549</ele><time>2026-04-03T08:00:19.000Z</time></trkpt>
        <trkpt lat="29.568197" lon="103.439359"><ele>543.1704</ele><time>2026-04-03T08:00:24.000Z</time></trkpt>
        <trkpt lat="29.568162" lon="103.439322"><ele>543.55524</ele><time>2026-04-03T08:00:29.000Z</time></trkpt>
        <trkpt lat="29.568124" lon="103.439292"><ele>545.2381</ele><time>2026-04-03T08:00:32.000Z</time></trkpt>
        <trkpt lat="29.5681" lon="103.439245"><ele>543.80023</ele><time>2026-04-03T08:00:36.000Z</time></trkpt>
        <trkpt lat="29.568066" lon="103.4392"><ele>543.1263</ele><time>2026-04-03T08:00:41.000Z</time></trkpt>
        <trkpt lat="29.568026" lon="103.439173"><ele>542.91095</ele><time>2026-04-03T08:00:46.000Z</time></trkpt>
        <trkpt lat="29.567987" lon="103.439128"><ele>541.5456</ele><time>2026-04-03T08:00:51.000Z</time></trkpt>
        <trkpt lat="29.567964" lon="103.439083"><ele>541.1858</ele><time>2026-04-03T08:00:55.000Z</time></trkpt>
        <trkpt lat="29.567938" lon="103.439029"><ele>542.4681</ele><time>2026-04-03T08:01:00.000Z</time></trkpt>
        <trkpt lat="29.5679" lon="103.438992"><ele>542.3627</ele><time>2026-04-03T08:01:05.000Z</time></trkpt>
        <trkpt lat="29.567862" lon="103.438945"><ele>543.2215</ele><time>2026-04-03T08:01:10.000Z</time></trkpt>
        <trkpt lat="29.567828" lon="103.4389"><ele>544.9411</ele><time>2026-04-03T08:01:15.000Z</time></trkpt>
        <trkpt lat="29.567801" lon="103.438852"><ele>545.3561</ele><time>2026-04-03T08:01:20.000Z</time></trkpt>
        <trkpt lat="29.567769" lon="103.438808"><ele>546.1163</ele><time>2026-04-03T08:01:26.000Z</time></trkpt>
        <trkpt lat="29.567735" lon="103.438767"><ele>546.97253</ele><time>2026-04-03T08:01:37.000Z</time></trkpt>
        <trkpt lat="29.5677" lon="103.438717"><ele>546.24615</ele><time>2026-04-03T08:01:43.000Z</time></trkpt>
        <trkpt lat="29.567669" lon="103.438676"><ele>546.05457</ele><time>2026-04-03T08:01:47.000Z</time></trkpt>
        <trkpt lat="29.567644" lon="103.43863"><ele>545.7868</ele><time>2026-04-03T08:01:51.000Z</time></trkpt>
        <trkpt lat="29.567611" lon="103.438593"><ele>545.99146</ele><time>2026-04-03T08:01:55.000Z</time></trkpt>
        <trkpt lat="29.567577" lon="103.438549"><ele>547.2501</ele><time>2026-04-03T08:02:01.000Z</time></trkpt>
        <trkpt lat="29.567539" lon="103.438503"><ele>549.3698</ele><time>2026-04-03T08:02:05.000Z</time></trkpt>
        <trkpt lat="29.567503" lon="103.438461"><ele>549.40607</ele><time>2026-04-03T08:02:10.000Z</time></trkpt>
        <trkpt lat="29.567478" lon="103.438412"><ele>548.7284</ele><time>2026-04-03T08:02:18.000Z</time></trkpt>
        <trkpt lat="29.56746" lon="103.438354"><ele>548.7244</ele><time>2026-04-03T08:02:23.000Z</time></trkpt>
        <trkpt lat="29.567425" lon="103.438315"><ele>550.66895</ele><time>2026-04-03T08:02:27.000Z</time></trkpt>
        <trkpt lat="29.567393" lon="103.438273"><ele>550.08606</ele><time>2026-04-03T08:02:31.000Z</time></trkpt>
        <trkpt lat="29.567359" lon="103.438233"><ele>552.8512</ele><time>2026-04-03T08:02:36.000Z</time></trkpt>
        <trkpt lat="29.567326" lon="103.438188"><ele>553.248</ele><time>2026-04-03T08:02:41.000Z</time></trkpt>
        <trkpt lat="29.567289" lon="103.438136"><ele>550.88837</ele><time>2026-04-03T08:02:47.000Z</time></trkpt>
        <trkpt lat="29.567257" lon="103.438086"><ele>552.25635</ele><time>2026-04-03T08:02:53.000Z</time></trkpt>
        <trkpt lat="29.567235" lon="103.438038"><ele>553.0038</ele><time>2026-04-03T08:02:57.000Z</time></trkpt>
        <trkpt lat="29.567219" lon="103.437986"><ele>552.42413</ele><time>2026-04-03T08:03:04.000Z</time></trkpt>
        <trkpt lat="29.567184" lon="103.437943"><ele>553.72205</ele><time>2026-04-03T08:03:09.000Z</time></trkpt>
        <trkpt lat="29.567162" lon="103.437896"><ele>553.74304</ele><time>2026-04-03T08:03:12.000Z</time></trkpt>
        <trkpt lat="29.56713" lon="103.437851"><ele>555.58563</ele><time>2026-04-03T08:03:18.000Z</time></trkpt>
        <trkpt lat="29.567111" lon="103.437792"><ele>558.4619</ele><time>2026-04-03T08:03:24.000Z</time></trkpt>
        <trkpt lat="29.56708" lon="103.437741"><ele>554.35944</ele><time>2026-04-03T08:03:30.000Z</time></trkpt>
        <trkpt lat="29.567045" lon="103.437697"><ele>555.27673</ele><time>2026-04-03T08:03:34.000Z</time></trkpt>
        <trkpt lat="29.567016" lon="103.437651"><ele>553.68994</ele><time>2026-04-03T08:03:38.000Z</time></trkpt>
        <trkpt lat="29.566993" lon="103.437604"><ele>552.83044</ele><time>2026-04-03T08:03:44.000Z</time></trkpt>
        <trkpt lat="29.566969" lon="103.437553"><ele>551.94775</ele><time>2026-04-03T08:03:49.000Z</time></trkpt>
        <trkpt lat="29.566939" lon="103.43751"><ele>552.4158</ele><time>2026-04-03T08:03:54.000Z</time></trkpt>
        <trkpt lat="29.566905" lon="103.43746"><ele>554.49945</ele><time>2026-04-03T08:03:58.000Z</time></trkpt>
        <trkpt lat="29.566878" lon="103.437412"><ele>552.6569</ele><time>2026-04-03T08:04:03.000Z</time></trkpt>
        <trkpt lat="29.566847" lon="103.437365"><ele>554.5013</ele><time>2026-04-03T08:04:07.000Z</time></trkpt>
        <trkpt lat="29.566818" lon="103.437318"><ele>554.7594</ele><time>2026-04-03T08:04:11.000Z</time></trkpt>
        <trkpt lat="29.566791" lon="103.437272"><ele>555.532</ele><time>2026-04-03T08:04:15.000Z</time></trkpt>
        <trkpt lat="29.566763" lon="103.437229"><ele>555.59393</ele><time>2026-04-03T08:04:22.000Z</time></trkpt>
        <trkpt lat="29.566739" lon="103.437186"><ele>555.4154</ele><time>2026-04-03T08:04:25.000Z</time></trkpt>
        <trkpt lat="29.566709" lon="103.437131"><ele>556.51044</ele><time>2026-04-03T08:04:29.000Z</time></trkpt>
        <trkpt lat="29.566685" lon="103.437086"><ele>558.51056</ele><time>2026-04-03T08:04:33.000Z</time></trkpt>
        <trkpt lat="29.566664" lon="103.437038"><ele>558.9292</ele><time>2026-04-03T08:04:39.000Z</time></trkpt>
        <trkpt lat="29.566638" lon="103.436986"><ele>557.99536</ele><time>2026-04-03T08:04:43.000Z</time></trkpt>
        <trkpt lat="29.566597" lon="103.43694"><ele>559.2943</ele><time>2026-04-03T08:04:49.000Z</time></trkpt>
        <trkpt lat="29.566569" lon="103.436881"><ele>558.27924</ele><time>2026-04-03T08:04:54.000Z</time></trkpt>
        <trkpt lat="29.566537" lon="103.436826"><ele>558.5395</ele><time>2026-04-03T08:04:58.000Z</time></trkpt>
        <trkpt lat="29.566503" lon="103.43677"><ele>558.0769</ele><time>2026-04-03T08:05:03.000Z</time></trkpt>
        <trkpt lat="29.566482" lon="103.436712"><ele>558.89215</ele><time>2026-04-03T08:05:08.000Z</time></trkpt>
        <trkpt lat="29.566466" lon="103.436659"><ele>558.72266</ele><time>2026-04-03T08:05:13.000Z</time></trkpt>
        <trkpt lat="29.566436" lon="103.436611"><ele>558.5959</ele><time>2026-04-03T08:05:17.000Z</time></trkpt>
        <trkpt lat="29.56641" lon="103.436539"><ele>559.82544</ele><time>2026-04-03T08:05:22.000Z</time></trkpt>
        <trkpt lat="29.566398" lon="103.436486"><ele>560.10284</ele><time>2026-04-03T08:05:26.000Z</time></trkpt>
        <trkpt lat="29.566369" lon="103.436447"><ele>559.4888</ele><time>2026-04-03T08:05:31.000Z</time></trkpt>
        <trkpt lat="29.566349" lon="103.436399"><ele>558.8711</ele><time>2026-04-03T08:05:35.000Z</time></trkpt>
        <trkpt lat="29.566339" lon="103.43634"><ele>559.1215</ele><time>2026-04-03T08:05:40.000Z</time></trkpt>
        <trkpt lat="29.566315" lon="103.436286"><ele>560.1031</ele><time>2026-04-03T08:05:44.000Z</time></trkpt>
        <trkpt lat="29.566291" lon="103.436238"><ele>558.8919</ele><time>2026-04-03T08:05:49.000Z</time></trkpt>
        <trkpt lat="29.566262" lon="103.43618"><ele>559.1034</ele><time>2026-04-03T08:05:53.000Z</time></trkpt>
        <trkpt lat="29.566228" lon="103.436136"><ele>560.5739</ele><time>2026-04-03T08:05:58.000Z</time></trkpt>
        <trkpt lat="29.566201" lon="103.436087"><ele>560.69714</ele><time>2026-04-03T08:06:03.000Z</time></trkpt>
        <trkpt lat="29.566184" lon="103.436022"><ele>559.6343</ele><time>2026-04-03T08:06:07.000Z</time></trkpt>
        <trkpt lat="29.566172" lon="103.435963"><ele>559.92145</ele><time>2026-04-03T08:06:11.000Z</time></trkpt>
        <trkpt lat="29.566153" lon="103.435913"><ele>559.04755</ele><time>2026-04-03T08:06:15.000Z</time></trkpt>
        <trkpt lat="29.566137" lon="103.435855"><ele>559.0473</ele><time>2026-04-03T08:06:20.000Z</time></trkpt>
        <trkpt lat="29.566115" lon="103.435792"><ele>558.31964</ele><time>2026-04-03T08:06:25.000Z</time></trkpt>
        <trkpt lat="29.566095" lon="103.435744"><ele>558.6123</ele><time>2026-04-03T08:06:29.000Z</time></trkpt>
        <trkpt lat="29.566081" lon="103.435694"><ele>558.29803</ele><time>2026-04-03T08:06:33.000Z</time></trkpt>
        <trkpt lat="29.566062" lon="103.435643"><ele>561.8425</ele><time>2026-04-03T08:06:37.000Z</time></trkpt>
        <trkpt lat="29.566043" lon="103.435585"><ele>561.74445</ele><time>2026-04-03T08:06:41.000Z</time></trkpt>
        <trkpt lat="29.566027" lon="103.435528"><ele>561.07684</ele><time>2026-04-03T08:06:45.000Z</time></trkpt>
        <trkpt lat="29.566014" lon="103.435467"><ele>564.1379</ele><time>2026-04-03T08:06:50.000Z</time></trkpt>
        <trkpt lat="29.565986" lon="103.43542"><ele>566.99194</ele><time>2026-04-03T08:06:54.000Z</time></trkpt>
        <trkpt lat="29.565973" lon="103.435366"><ele>566.2531</ele><time>2026-04-03T08:07:01.000Z</time></trkpt>
        <trkpt lat="29.565962" lon="103.435314"><ele>567.9677</ele><time>2026-04-03T08:07:06.000Z</time></trkpt>
        <trkpt lat="29.565954" lon="103.435256"><ele>569.73175</ele><time>2026-04-03T08:07:14.000Z</time></trkpt>
        <trkpt lat="29.565929" lon="103.435203"><ele>571.4792</ele><time>2026-04-03T08:07:20.000Z</time></trkpt>
        <trkpt lat="29.565891" lon="103.43516"><ele>572.6288</ele><time>2026-04-03T08:07:26.000Z</time></trkpt>
        <trkpt lat="29.565853" lon="103.43513"><ele>574.45496</ele><time>2026-04-03T08:07:31.000Z</time></trkpt>
        <trkpt lat="29.565821" lon="103.435076"><ele>572.84357</ele><time>2026-04-03T08:07:35.000Z</time></trkpt>
        <trkpt lat="29.565777" lon="103.435038"><ele>575.2939</ele><time>2026-04-03T08:07:39.000Z</time></trkpt>
        <trkpt lat="29.565741" lon="103.435004"><ele>574.94037</ele><time>2026-04-03T08:07:45.000Z</time></trkpt>
        <trkpt lat="29.565697" lon="103.434965"><ele>576.6644</ele><time>2026-04-03T08:07:49.000Z</time></trkpt>
        <trkpt lat="29.565656" lon="103.434929"><ele>578.59735</ele><time>2026-04-03T08:07:54.000Z</time></trkpt>
        <trkpt lat="29.565621" lon="103.434891"><ele>578.60754</ele><time>2026-04-03T08:08:00.000Z</time></trkpt>
        <trkpt lat="29.565592" lon="103.434852"><ele>578.21515</ele><time>2026-04-03T08:08:05.000Z</time></trkpt>
        <trkpt lat="29.565564" lon="103.434804"><ele>577.5123</ele><time>2026-04-03T08:08:09.000Z</time></trkpt>
        <trkpt lat="29.565551" lon="103.434744"><ele>572.54535</ele><time>2026-04-03T08:08:13.000Z</time></trkpt>
        <trkpt lat="29.565532" lon="103.434678"><ele>573.91895</ele><time>2026-04-03T08:08:17.000Z</time></trkpt>
        <trkpt lat="29.565519" lon="103.434612"><ele>572.5694</ele><time>2026-04-03T08:08:22.000Z</time></trkpt>
        <trkpt lat="29.565532" lon="103.434556"><ele>573.1174</ele><time>2026-04-03T08:08:26.000Z</time></trkpt>
        <trkpt lat="29.565554" lon="103.434498"><ele>574.1514</ele><time>2026-04-03T08:08:31.000Z</time></trkpt>
        <trkpt lat="29.56558" lon="103.434454"><ele>575.33093</ele><time>2026-04-03T08:08:35.000Z</time></trkpt>
        <trkpt lat="29.565587" lon="103.434401"><ele>573.9705</ele><time>2026-04-03T08:08:39.000Z</time></trkpt>
        <trkpt lat="29.565589" lon="103.434341"><ele>577.1898</ele><time>2026-04-03T08:08:42.000Z</time></trkpt>
        <trkpt lat="29.565602" lon="103.434288"><ele>579.03723</ele><time>2026-04-03T08:08:46.000Z</time></trkpt>
        <trkpt lat="29.565622" lon="103.434238"><ele>579.158</ele><time>2026-04-03T08:08:52.000Z</time></trkpt>
        <trkpt lat="29.565639" lon="103.434188"><ele>576.4516</ele><time>2026-04-03T08:08:58.000Z</time></trkpt>
        <trkpt lat="29.565631" lon="103.434131"><ele>575.49786</ele><time>2026-04-03T08:09:03.000Z</time></trkpt>
        <trkpt lat="29.565627" lon="103.434077"><ele>575.9036</ele><time>2026-04-03T08:09:07.000Z</time></trkpt>
        <trkpt lat="29.565621" lon="103.434019"><ele>579.59015</ele><time>2026-04-03T08:09:18.000Z</time></trkpt>
        <trkpt lat="29.565615" lon="103.433947"><ele>580.6621</ele><time>2026-04-03T08:09:23.000Z</time></trkpt>
        <trkpt lat="29.565601" lon="103.433897"><ele>578.68146</ele><time>2026-04-03T08:09:28.000Z</time></trkpt>
        <trkpt lat="29.565591" lon="103.433839"><ele>578.84216</ele><time>2026-04-03T08:09:32.000Z</time></trkpt>
        <trkpt lat="29.565576" lon="103.433786"><ele>576.75446</ele><time>2026-04-03T08:09:37.000Z</time></trkpt>
        <trkpt lat="29.565564" lon="103.433721"><ele>576.002</ele><time>2026-04-03T08:09:41.000Z</time></trkpt>
        <trkpt lat="29.565565" lon="103.433663"><ele>574.7636</ele><time>2026-04-03T08:09:45.000Z</time></trkpt>
        <trkpt lat="29.565558" lon="103.433605"><ele>574.8961</ele><time>2026-04-03T08:09:49.000Z</time></trkpt>
        <trkpt lat="29.565537" lon="103.433552"><ele>576.259</ele><time>2026-04-03T08:09:53.000Z</time></trkpt>
        <trkpt lat="29.565515" lon="103.433498"><ele>575.9731</ele><time>2026-04-03T08:09:58.000Z</time></trkpt>
        <trkpt lat="29.565485" lon="103.433449"><ele>576.13446</ele><time>2026-04-03T08:10:02.000Z</time></trkpt>
        <trkpt lat="29.565469" lon="103.433392"><ele>574.8279</ele><time>2026-04-03T08:10:06.000Z</time></trkpt>
        <trkpt lat="29.565442" lon="103.433337"><ele>575.8298</ele><time>2026-04-03T08:10:10.000Z</time></trkpt>
        <trkpt lat="29.565406" lon="103.433298"><ele>576.8865</ele><time>2026-04-03T08:10:14.000Z</time></trkpt>
        <trkpt lat="29.565371" lon="103.433261"><ele>577.15656</ele><time>2026-04-03T08:10:18.000Z</time></trkpt>
        <trkpt lat="29.565338" lon="103.433219"><ele>577.3405</ele><time>2026-04-03T08:10:22.000Z</time></trkpt>
        <trkpt lat="29.565301" lon="103.43318"><ele>580.8938</ele><time>2026-04-03T08:10:27.000Z</time></trkpt>
        <trkpt lat="29.565264" lon="103.433146"><ele>580.3893</ele><time>2026-04-03T08:10:33.000Z</time></trkpt>
        <trkpt lat="29.56529" lon="103.433102"><ele>584.2685</ele><time>2026-04-03T08:10:45.000Z</time></trkpt>
        <trkpt lat="29.565285" lon="103.43304"><ele>583.45404</ele><time>2026-04-03T08:11:18.000Z</time></trkpt>
        <trkpt lat="29.565243" lon="103.432977"><ele>583.91223</ele><time>2026-04-03T08:11:27.000Z</time></trkpt>
        <trkpt lat="29.565231" lon="103.432912"><ele>582.6132</ele><time>2026-04-03T08:11:31.000Z</time></trkpt>
        <trkpt lat="29.565204" lon="103.432856"><ele>581.8949</ele><time>2026-04-03T08:11:34.000Z</time></trkpt>
        <trkpt lat="29.565159" lon="103.43282"><ele>582.8101</ele><time>2026-04-03T08:11:38.000Z</time></trkpt>
        <trkpt lat="29.565162" lon="103.432739"><ele>585.459</ele><time>2026-04-03T08:11:43.000Z</time></trkpt>
        <trkpt lat="29.565161" lon="103.432683"><ele>587.53845</ele><time>2026-04-03T08:11:46.000Z</time></trkpt>
        <trkpt lat="29.565144" lon="103.432623"><ele>588.76685</ele><time>2026-04-03T08:11:52.000Z</time></trkpt>
        <trkpt lat="29.565129" lon="103.432573"><ele>589.87946</ele><time>2026-04-03T08:11:56.000Z</time></trkpt>
        <trkpt lat="29.565139" lon="103.43251"><ele>587.5007</ele><time>2026-04-03T08:12:01.000Z</time></trkpt>
        <trkpt lat="29.565134" lon="103.432446"><ele>587.1004</ele><time>2026-04-03T08:12:08.000Z</time></trkpt>
        <trkpt lat="29.565136" lon="103.432391"><ele>588.24115</ele><time>2026-04-03T08:12:13.000Z</time></trkpt>
        <trkpt lat="29.565176" lon="103.432424"><ele>591.87067</ele><time>2026-04-03T08:12:23.000Z</time></trkpt>
        <trkpt lat="29.565225" lon="103.432413"><ele>592.99005</ele><time>2026-04-03T08:12:28.000Z</time></trkpt>
        <trkpt lat="29.56528" lon="103.432396"><ele>593.4794</ele><time>2026-04-03T08:12:32.000Z</time></trkpt>
        <trkpt lat="29.565331" lon="103.432397"><ele>593.6095</ele><time>2026-04-03T08:12:37.000Z</time></trkpt>
        <trkpt lat="29.565383" lon="103.432401"><ele>595.3742</ele><time>2026-04-03T08:12:44.000Z</time></trkpt>
        <trkpt lat="29.565421" lon="103.432362"><ele>596.4834</ele><time>2026-04-03T08:12:49.000Z</time></trkpt>
        <trkpt lat="29.565429" lon="103.432311"><ele>596.28204</ele><time>2026-04-03T08:12:53.000Z</time></trkpt>
        <trkpt lat="29.565416" lon="103.432258"><ele>591.95593</ele><time>2026-04-03T08:13:16.000Z</time></trkpt>
        <trkpt lat="29.5654" lon="103.432204"><ele>591.3005</ele><time>2026-04-03T08:13:20.000Z</time></trkpt>
        <trkpt lat="29.565375" lon="103.43216"><ele>591.03937</ele><time>2026-04-03T08:13:24.000Z</time></trkpt>
        <trkpt lat="29.565347" lon="103.432115"><ele>591.76355</ele><time>2026-04-03T08:13:28.000Z</time></trkpt>
        <trkpt lat="29.565334" lon="103.432063"><ele>595.2756</ele><time>2026-04-03T08:13:33.000Z</time></trkpt>
        <trkpt lat="29.565333" lon="103.432009"><ele>595.16003</ele><time>2026-04-03T08:13:38.000Z</time></trkpt>
        <trkpt lat="29.565325" lon="103.431944"><ele>596.0783</ele><time>2026-04-03T08:13:43.000Z</time></trkpt>
        <trkpt lat="29.565347" lon="103.431894"><ele>596.40625</ele><time>2026-04-03T08:13:47.000Z</time></trkpt>
        <trkpt lat="29.565353" lon="103.431833"><ele>597.0641</ele><time>2026-04-03T08:13:51.000Z</time></trkpt>
        <trkpt lat="29.565374" lon="103.431786"><ele>596.60596</ele><time>2026-04-03T08:13:55.000Z</time></trkpt>
        <trkpt lat="29.565385" lon="103.431729"><ele>598.3623</ele><time>2026-04-03T08:14:00.000Z</time></trkpt>
        <trkpt lat="29.565411" lon="103.431674"><ele>596.1805</ele><time>2026-04-03T08:14:05.000Z</time></trkpt>
        <trkpt lat="29.565425" lon="103.431623"><ele>598.92773</ele><time>2026-04-03T08:14:13.000Z</time></trkpt>
        <trkpt lat="29.565448" lon="103.431572"><ele>596.6381</ele><time>2026-04-03T08:14:18.000Z</time></trkpt>
        <trkpt lat="29.565463" lon="103.431515"><ele>596.6204</ele><time>2026-04-03T08:14:22.000Z</time></trkpt>
        <trkpt lat="29.565471" lon="103.431455"><ele>600.6794</ele><time>2026-04-03T08:14:28.000Z</time></trkpt>
        <trkpt lat="29.565472" lon="103.431401"><ele>601.635</ele><time>2026-04-03T08:14:33.000Z</time></trkpt>
        <trkpt lat="29.565486" lon="103.431348"><ele>605.3114</ele><time>2026-04-03T08:14:41.000Z</time></trkpt>
        <trkpt lat="29.565507" lon="103.431292"><ele>607.44965</ele><time>2026-04-03T08:14:45.000Z</time></trkpt>
        <trkpt lat="29.565508" lon="103.431223"><ele>606.99976</ele><time>2026-04-03T08:14:49.000Z</time></trkpt>
        <trkpt lat="29.565522" lon="103.431167"><ele>607.70557</ele><time>2026-04-03T08:14:55.000Z</time></trkpt>
        <trkpt lat="29.565553" lon="103.431117"><ele>604.4742</ele><time>2026-04-03T08:15:00.000Z</time></trkpt>
        <trkpt lat="29.565539" lon="103.431064"><ele>601.93805</ele><time>2026-04-03T08:15:04.000Z</time></trkpt>
        <trkpt lat="29.565523" lon="103.431002"><ele>601.97076</ele><time>2026-04-03T08:15:09.000Z</time></trkpt>
        <trkpt lat="29.565478" lon="103.430953"><ele>601.03394</ele><time>2026-04-03T08:15:15.000Z</time></trkpt>
        <trkpt lat="29.565441" lon="103.430913"><ele>604.1322</ele><time>2026-04-03T08:15:20.000Z</time></trkpt>
        <trkpt lat="29.565403" lon="103.430864"><ele>605.0984</ele><time>2026-04-03T08:15:25.000Z</time></trkpt>
        <trkpt lat="29.565368" lon="103.430819"><ele>608.38293</ele><time>2026-04-03T08:15:30.000Z</time></trkpt>
        <trkpt lat="29.565369" lon="103.430764"><ele>605.7439</ele><time>2026-04-03T08:15:35.000Z</time></trkpt>
        <trkpt lat="29.56536" lon="103.430703"><ele>608.565</ele><time>2026-04-03T08:15:41.000Z</time></trkpt>
        <trkpt lat="29.565358" lon="103.430651"><ele>608.55493</ele><time>2026-04-03T08:15:45.000Z</time></trkpt>
        <trkpt lat="29.565349" lon="103.4306"><ele>612.26715</ele><time>2026-04-03T08:15:50.000Z</time></trkpt>
        <trkpt lat="29.565345" lon="103.43054"><ele>612.62964</ele><time>2026-04-03T08:15:55.000Z</time></trkpt>
        <trkpt lat="29.565329" lon="103.43049"><ele>615.5023</ele><time>2026-04-03T08:16:00.000Z</time></trkpt>
        <trkpt lat="29.565317" lon="103.43043"><ele>616.2895</ele><time>2026-04-03T08:16:08.000Z</time></trkpt>
        <trkpt lat="29.565313" lon="103.430376"><ele>615.62115</ele><time>2026-04-03T08:16:14.000Z</time></trkpt>
        <trkpt lat="29.565314" lon="103.430316"><ele>615.16473</ele><time>2026-04-03T08:16:19.000Z</time></trkpt>
        <trkpt lat="29.565293" lon="103.430256"><ele>615.5557</ele><time>2026-04-03T08:16:23.000Z</time></trkpt>
        <trkpt lat="29.565278" lon="103.430194"><ele>615.71783</ele><time>2026-04-03T08:16:28.000Z</time></trkpt>
        <trkpt lat="29.565277" lon="103.430131"><ele>615.38336</ele><time>2026-04-03T08:16:33.000Z</time></trkpt>
        <trkpt lat="29.565256" lon="103.430077"><ele>615.04333</ele><time>2026-04-03T08:16:37.000Z</time></trkpt>
        <trkpt lat="29.565243" lon="103.430026"><ele>614.5466</ele><time>2026-04-03T08:16:42.000Z</time></trkpt>
        <trkpt lat="29.565223" lon="103.429971"><ele>613.1368</ele><time>2026-04-03T08:16:47.000Z</time></trkpt>
        <trkpt lat="29.565197" lon="103.42992"><ele>614.60706</ele><time>2026-04-03T08:16:52.000Z</time></trkpt>
        <trkpt lat="29.565172" lon="103.429862"><ele>614.3607</ele><time>2026-04-03T08:16:57.000Z</time></trkpt>
        <trkpt lat="29.565149" lon="103.429816"><ele>616.0691</ele><time>2026-04-03T08:17:02.000Z</time></trkpt>
        <trkpt lat="29.565118" lon="103.429774"><ele>616.54504</ele><time>2026-04-03T08:17:06.000Z</time></trkpt>
        <trkpt lat="29.565084" lon="103.429729"><ele>616.955</ele><time>2026-04-03T08:17:09.000Z</time></trkpt>
        <trkpt lat="29.565079" lon="103.429668"><ele>620.823</ele><time>2026-04-03T08:17:15.000Z</time></trkpt>
        <trkpt lat="29.565042" lon="103.429637"><ele>620.12683</ele><time>2026-04-03T08:17:22.000Z</time></trkpt>
        <trkpt lat="29.565026" lon="103.429588"><ele>617.97504</ele><time>2026-04-03T08:17:25.000Z</time></trkpt>
        <trkpt lat="29.565003" lon="103.429537"><ele>616.29285</ele><time>2026-04-03T08:17:29.000Z</time></trkpt>
        <trkpt lat="29.564974" lon="103.429488"><ele>616.9341</ele><time>2026-04-03T08:17:33.000Z</time></trkpt>
        <trkpt lat="29.564945" lon="103.429444"><ele>617.6547</ele><time>2026-04-03T08:17:37.000Z</time></trkpt>
        <trkpt lat="29.564924" lon="103.429393"><ele>617.8573</ele><time>2026-04-03T08:17:41.000Z</time></trkpt>
        <trkpt lat="29.564918" lon="103.429339"><ele>616.62964</ele><time>2026-04-03T08:17:46.000Z</time></trkpt>
        <trkpt lat="29.564917" lon="103.42928"><ele>615.5993</ele><time>2026-04-03T08:17:51.000Z</time></trkpt>
        <trkpt lat="29.564911" lon="103.429217"><ele>614.6217</ele><time>2026-04-03T08:17:56.000Z</time></trkpt>
        <trkpt lat="29.564901" lon="103.429166"><ele>615.81323</ele><time>2026-04-03T08:18:00.000Z</time></trkpt>
        <trkpt lat="29.564889" lon="103.429113"><ele>616.31256</ele><time>2026-04-03T08:18:04.000Z</time></trkpt>
        <trkpt lat="29.564879" lon="103.429062"><ele>618.2651</ele><time>2026-04-03T08:18:08.000Z</time></trkpt>
        <trkpt lat="29.56487" lon="103.429009"><ele>618.14166</ele><time>2026-04-03T08:18:12.000Z</time></trkpt>
        <trkpt lat="29.564857" lon="103.428958"><ele>618.3206</ele><time>2026-04-03T08:18:16.000Z</time></trkpt>
        <trkpt lat="29.564839" lon="103.428899"><ele>618.64954</ele><time>2026-04-03T08:18:23.000Z</time></trkpt>
        <trkpt lat="29.56483" lon="103.42884"><ele>621.7854</ele><time>2026-04-03T08:18:29.000Z</time></trkpt>
        <trkpt lat="29.564834" lon="103.428777"><ele>623.5827</ele><time>2026-04-03T08:18:34.000Z</time></trkpt>
        <trkpt lat="29.564824" lon="103.428718"><ele>625.2071</ele><time>2026-04-03T08:18:39.000Z</time></trkpt>
        <trkpt lat="29.564819" lon="103.42866"><ele>625.5201</ele><time>2026-04-03T08:18:43.000Z</time></trkpt>
        <trkpt lat="29.564816" lon="103.428602"><ele>627.84576</ele><time>2026-04-03T08:18:56.000Z</time></trkpt>
        <trkpt lat="29.564797" lon="103.428544"><ele>627.6209</ele><time>2026-04-03T08:19:05.000Z</time></trkpt>
        <trkpt lat="29.564817" lon="103.428492"><ele>629.9737</ele><time>2026-04-03T08:19:11.000Z</time></trkpt>
        <trkpt lat="29.564868" lon="103.428473"><ele>632.1423</ele><time>2026-04-03T08:19:17.000Z</time></trkpt>
        <trkpt lat="29.564916" lon="103.428451"><ele>633.09753</ele><time>2026-04-03T08:19:22.000Z</time></trkpt>
        <trkpt lat="29.564962" lon="103.428439"><ele>634.7646</ele><time>2026-04-03T08:19:26.000Z</time></trkpt>
        <trkpt lat="29.565011" lon="103.428431"><ele>634.44196</ele><time>2026-04-03T08:19:31.000Z</time></trkpt>
        <trkpt lat="29.565049" lon="103.428397"><ele>634.8669</ele><time>2026-04-03T08:19:35.000Z</time></trkpt>
        <trkpt lat="29.565089" lon="103.428358"><ele>635.988</ele><time>2026-04-03T08:19:39.000Z</time></trkpt>
        <trkpt lat="29.565131" lon="103.428326"><ele>635.7016</ele><time>2026-04-03T08:19:43.000Z</time></trkpt>
        <trkpt lat="29.56517" lon="103.428283"><ele>635.82574</ele><time>2026-04-03T08:19:48.000Z</time></trkpt>
        <trkpt lat="29.565219" lon="103.428261"><ele>636.92</ele><time>2026-04-03T08:19:53.000Z</time></trkpt>
        <trkpt lat="29.565268" lon="103.42824"><ele>636.14044</ele><time>2026-04-03T08:19:57.000Z</time></trkpt>
        <trkpt lat="29.565296" lon="103.428193"><ele>634.2099</ele><time>2026-04-03T08:20:01.000Z</time></trkpt>
        <trkpt lat="29.565334" lon="103.428157"><ele>633.3007</ele><time>2026-04-03T08:20:06.000Z</time></trkpt>
        <trkpt lat="29.565367" lon="103.428121"><ele>633.87225</ele><time>2026-04-03T08:20:10.000Z</time></trkpt>
        <trkpt lat="29.565415" lon="103.42809"><ele>633.57404</ele><time>2026-04-03T08:20:15.000Z</time></trkpt>
        <trkpt lat="29.565442" lon="103.428032"><ele>635.3934</ele><time>2026-04-03T08:20:20.000Z</time></trkpt>
        <trkpt lat="29.565422" lon="103.427962"><ele>637.7554</ele><time>2026-04-03T08:20:23.000Z</time></trkpt>
        <trkpt lat="29.565422" lon="103.427909"><ele>638.28864</ele><time>2026-04-03T08:20:28.000Z</time></trkpt>
        <trkpt lat="29.565406" lon="103.427855"><ele>637.289</ele><time>2026-04-03T08:20:31.000Z</time></trkpt>
        <trkpt lat="29.565404" lon="103.42779"><ele>638.3233</ele><time>2026-04-03T08:20:36.000Z</time></trkpt>
        <trkpt lat="29.565415" lon="103.427733"><ele>636.9259</ele><time>2026-04-03T08:20:40.000Z</time></trkpt>
        <trkpt lat="29.565405" lon="103.427665"><ele>637.2386</ele><time>2026-04-03T08:20:44.000Z</time></trkpt>
        <trkpt lat="29.565398" lon="103.427603"><ele>641.63165</ele><time>2026-04-03T08:20:51.000Z</time></trkpt>
        <trkpt lat="29.565413" lon="103.42753"><ele>641.96423</ele><time>2026-04-03T08:20:54.000Z</time></trkpt>
        <trkpt lat="29.565412" lon="103.427464"><ele>644.13763</ele><time>2026-04-03T08:20:58.000Z</time></trkpt>
        <trkpt lat="29.565426" lon="103.427396"><ele>647.186</ele><time>2026-04-03T08:21:02.000Z</time></trkpt>
        <trkpt lat="29.565419" lon="103.42734"><ele>651.65564</ele><time>2026-04-03T08:21:06.000Z</time></trkpt>
        <trkpt lat="29.565411" lon="103.427282"><ele>652.6136</ele><time>2026-04-03T08:21:10.000Z</time></trkpt>
        <trkpt lat="29.565414" lon="103.427221"><ele>653.00555</ele><time>2026-04-03T08:21:14.000Z</time></trkpt>
        <trkpt lat="29.565403" lon="103.427171"><ele>657.20746</ele><time>2026-04-03T08:21:19.000Z</time></trkpt>
        <trkpt lat="29.565363" lon="103.427131"><ele>658.76404</ele><time>2026-04-03T08:21:24.000Z</time></trkpt>
        <trkpt lat="29.565321" lon="103.427095"><ele>658.1497</ele><time>2026-04-03T08:21:28.000Z</time></trkpt>
        <trkpt lat="29.565275" lon="103.427067"><ele>655.26764</ele><time>2026-04-03T08:21:31.000Z</time></trkpt>
        <trkpt lat="29.565231" lon="103.427034"><ele>654.33453</ele><time>2026-04-03T08:21:36.000Z</time></trkpt>
        <trkpt lat="29.565198" lon="103.426994"><ele>653.50354</ele><time>2026-04-03T08:21:40.000Z</time></trkpt>
        <trkpt lat="29.565146" lon="103.426968"><ele>652.2637</ele><time>2026-04-03T08:21:44.000Z</time></trkpt>
        <trkpt lat="29.565097" lon="103.426941"><ele>653.0693</ele><time>2026-04-03T08:21:48.000Z</time></trkpt>
        <trkpt lat="29.565042" lon="103.426942"><ele>652.5313</ele><time>2026-04-03T08:21:53.000Z</time></trkpt>
        <trkpt lat="29.564991" lon="103.426925"><ele>653.2654</ele><time>2026-04-03T08:22:07.000Z</time></trkpt>
        <trkpt lat="29.564949" lon="103.426892"><ele>653.78955</ele><time>2026-04-03T08:22:13.000Z</time></trkpt>
        <trkpt lat="29.564928" lon="103.426838"><ele>653.8457</ele><time>2026-04-03T08:22:17.000Z</time></trkpt>
        <trkpt lat="29.564926" lon="103.426782"><ele>653.22565</ele><time>2026-04-03T08:22:21.000Z</time></trkpt>
        <trkpt lat="29.564938" lon="103.426731"><ele>652.072</ele><time>2026-04-03T08:22:26.000Z</time></trkpt>
        <trkpt lat="29.564963" lon="103.426688"><ele>653.3132</ele><time>2026-04-03T08:22:45.000Z</time></trkpt>
        <trkpt lat="29.564983" lon="103.426639"><ele>654.1566</ele><time>2026-04-03T08:22:55.000Z</time></trkpt>
        <trkpt lat="29.565" lon="103.426583"><ele>652.13116</ele><time>2026-04-03T08:23:08.000Z</time></trkpt>
        <trkpt lat="29.565013" lon="103.42653"><ele>655.42</ele><time>2026-04-03T08:23:21.000Z</time></trkpt>
        <trkpt lat="29.565019" lon="103.426478"><ele>654.62616</ele><time>2026-04-03T08:23:26.000Z</time></trkpt>
        <trkpt lat="29.565032" lon="103.426421"><ele>656.8025</ele><time>2026-04-03T08:23:33.000Z</time></trkpt>
        <trkpt lat="29.565057" lon="103.426372"><ele>660.22205</ele><time>2026-04-03T08:23:42.000Z</time></trkpt>
        <trkpt lat="29.565055" lon="103.426317"><ele>659.9979</ele><time>2026-04-03T08:23:48.000Z</time></trkpt>
        <trkpt lat="29.565035" lon="103.42627"><ele>664.4576</ele><time>2026-04-03T08:23:55.000Z</time></trkpt>
        <trkpt lat="29.56508" lon="103.426263"><ele>665.155</ele><time>2026-04-03T08:24:02.000Z</time></trkpt>
        <trkpt lat="29.565079" lon="103.426211"><ele>665.16583</ele><time>2026-04-03T08:24:14.000Z</time></trkpt>
        <trkpt lat="29.565095" lon="103.426163"><ele>664.2548</ele><time>2026-04-03T08:24:23.000Z</time></trkpt>
        <trkpt lat="29.565091" lon="103.42611"><ele>666.91504</ele><time>2026-04-03T08:24:32.000Z</time></trkpt>
        <trkpt lat="29.565109" lon="103.426062"><ele>669.3727</ele><time>2026-04-03T08:24:45.000Z</time></trkpt>
        <trkpt lat="29.565133" lon="103.426017"><ele>673.6828</ele><time>2026-04-03T08:24:57.000Z</time></trkpt>
        <trkpt lat="29.565135" lon="103.425957"><ele>672.53705</ele><time>2026-04-03T08:25:05.000Z</time></trkpt>
        <trkpt lat="29.565142" lon="103.425904"><ele>674.9622</ele><time>2026-04-03T08:25:16.000Z</time></trkpt>
        <trkpt lat="29.565173" lon="103.425856"><ele>677.8269</ele><time>2026-04-03T08:25:28.000Z</time></trkpt>
        <trkpt lat="29.565162" lon="103.425804"><ele>679.718</ele><time>2026-04-03T08:25:36.000Z</time></trkpt>
        <trkpt lat="29.565132" lon="103.425754"><ele>684.6495</ele><time>2026-04-03T08:26:29.000Z</time></trkpt>
        <trkpt lat="29.565109" lon="103.425709"><ele>683.84247</ele><time>2026-04-03T08:26:33.000Z</time></trkpt>
        <trkpt lat="29.565098" lon="103.425652"><ele>685.31915</ele><time>2026-04-03T08:26:37.000Z</time></trkpt>
        <trkpt lat="29.565109" lon="103.425596"><ele>687.8747</ele><time>2026-04-03T08:26:43.000Z</time></trkpt>
        <trkpt lat="29.565063" lon="103.425561"><ele>690.5983</ele><time>2026-04-03T08:26:46.000Z</time></trkpt>
        <trkpt lat="29.56501" lon="103.425526"><ele>692.1582</ele><time>2026-04-03T08:26:51.000Z</time></trkpt>
        <trkpt lat="29.565001" lon="103.42547"><ele>692.9797</ele><time>2026-04-03T08:26:56.000Z</time></trkpt>
        <trkpt lat="29.565031" lon="103.425423"><ele>694.90875</ele><time>2026-04-03T08:27:01.000Z</time></trkpt>
        <trkpt lat="29.565004" lon="103.425371"><ele>697.00464</ele><time>2026-04-03T08:27:04.000Z</time></trkpt>
        <trkpt lat="29.564944" lon="103.425339"><ele>696.1239</ele><time>2026-04-03T08:27:06.000Z</time></trkpt>
        <trkpt lat="29.564907" lon="103.4253"><ele>693.30365</ele><time>2026-04-03T08:27:09.000Z</time></trkpt>
        <trkpt lat="29.564877" lon="103.425254"><ele>693.6366</ele><time>2026-04-03T08:27:11.000Z</time></trkpt>
        <trkpt lat="29.564836" lon="103.425227"><ele>693.68726</ele><time>2026-04-03T08:27:16.000Z</time></trkpt>
        <trkpt lat="29.564809" lon="103.425186"><ele>694.04175</ele><time>2026-04-03T08:27:20.000Z</time></trkpt>
        <trkpt lat="29.564801" lon="103.425129"><ele>693.0136</ele><time>2026-04-03T08:27:25.000Z</time></trkpt>
        <trkpt lat="29.564772" lon="103.425079"><ele>695.288</ele><time>2026-04-03T08:27:42.000Z</time></trkpt>
        <trkpt lat="29.564759" lon="103.425022"><ele>695.35333</ele><time>2026-04-03T08:27:48.000Z</time></trkpt>
        <trkpt lat="29.564742" lon="103.42497"><ele>696.8259</ele><time>2026-04-03T08:27:54.000Z</time></trkpt>
        <trkpt lat="29.564729" lon="103.424919"><ele>695.3858</ele><time>2026-04-03T08:27:58.000Z</time></trkpt>
        <trkpt lat="29.564697" lon="103.424866"><ele>692.2219</ele><time>2026-04-03T08:28:03.000Z</time></trkpt>
        <trkpt lat="29.564676" lon="103.424805"><ele>699.88794</ele><time>2026-04-03T08:28:12.000Z</time></trkpt>
        <trkpt lat="29.564668" lon="103.424743"><ele>699.13873</ele><time>2026-04-03T08:28:17.000Z</time></trkpt>
        <trkpt lat="29.564678" lon="103.424686"><ele>698.4566</ele><time>2026-04-03T08:28:25.000Z</time></trkpt>
        <trkpt lat="29.564671" lon="103.42462"><ele>700.4816</ele><time>2026-04-03T08:28:31.000Z</time></trkpt>
        <trkpt lat="29.564653" lon="103.424562"><ele>701.2036</ele><time>2026-04-03T08:28:37.000Z</time></trkpt>
        <trkpt lat="29.564634" lon="103.424512"><ele>701.6137</ele><time>2026-04-03T08:28:42.000Z</time></trkpt>
        <trkpt lat="29.564615" lon="103.424461"><ele>700.78125</ele><time>2026-04-03T08:28:49.000Z</time></trkpt>
        <trkpt lat="29.564623" lon="103.424402"><ele>700.06775</ele><time>2026-04-03T08:28:54.000Z</time></trkpt>
        <trkpt lat="29.564625" lon="103.424344"><ele>701.92664</ele><time>2026-04-03T08:29:02.000Z</time></trkpt>
        <trkpt lat="29.564626" lon="103.424287"><ele>702.05316</ele><time>2026-04-03T08:29:10.000Z</time></trkpt>
        <trkpt lat="29.564607" lon="103.424239"><ele>699.31976</ele><time>2026-04-03T08:29:16.000Z</time></trkpt>
        <trkpt lat="29.564608" lon="103.424185"><ele>701.0978</ele><time>2026-04-03T08:29:25.000Z</time></trkpt>
        <trkpt lat="29.564605" lon="103.424127"><ele>708.2922</ele><time>2026-04-03T08:29:38.000Z</time></trkpt>
        <trkpt lat="29.564558" lon="103.424105"><ele>711.47473</ele><time>2026-04-03T08:29:44.000Z</time></trkpt>
        <trkpt lat="29.564563" lon="103.424044"><ele>713.2563</ele><time>2026-04-03T08:29:52.000Z</time></trkpt>
        <trkpt lat="29.564563" lon="103.423992"><ele>715.2943</ele><time>2026-04-03T08:30:00.000Z</time></trkpt>
        <trkpt lat="29.564511" lon="103.423993"><ele>718.8885</ele><time>2026-04-03T08:30:04.000Z</time></trkpt>
        <trkpt lat="29.564462" lon="103.423969"><ele>724.62415</ele><time>2026-04-03T08:30:09.000Z</time></trkpt>
        <trkpt lat="29.564426" lon="103.423927"><ele>728.64825</ele><time>2026-04-03T08:30:14.000Z</time></trkpt>
        <trkpt lat="29.564399" lon="103.423878"><ele>727.415</ele><time>2026-04-03T08:30:19.000Z</time></trkpt>
        <trkpt lat="29.564425" lon="103.423827"><ele>731.82904</ele><time>2026-04-03T08:30:33.000Z</time></trkpt>
        <trkpt lat="29.564416" lon="103.423774"><ele>733.90985</ele><time>2026-04-03T08:30:37.000Z</time></trkpt>
        <trkpt lat="29.564391" lon="103.423729"><ele>734.75073</ele><time>2026-04-03T08:30:44.000Z</time></trkpt>
        <trkpt lat="29.564372" lon="103.42368"><ele>736.4807</ele><time>2026-04-03T08:30:51.000Z</time></trkpt>
        <trkpt lat="29.564375" lon="103.423627"><ele>735.746</ele><time>2026-04-03T08:30:59.000Z</time></trkpt>
        <trkpt lat="29.56442" lon="103.423605"><ele>739.66644</ele><time>2026-04-03T08:31:04.000Z</time></trkpt>
        <trkpt lat="29.564442" lon="103.423559"><ele>735.66254</ele><time>2026-04-03T08:31:19.000Z</time></trkpt>
        <trkpt lat="29.564445" lon="103.423501"><ele>733.231</ele><time>2026-04-03T08:31:25.000Z</time></trkpt>
        <trkpt lat="29.564452" lon="103.423447"><ele>732.9868</ele><time>2026-04-03T08:31:31.000Z</time></trkpt>
        <trkpt lat="29.564457" lon="103.423388"><ele>732.32855</ele><time>2026-04-03T08:31:35.000Z</time></trkpt>
        <trkpt lat="29.564467" lon="103.423333"><ele>734.5077</ele><time>2026-04-03T08:31:46.000Z</time></trkpt>
        <trkpt lat="29.564456" lon="103.423283"><ele>734.99</ele><time>2026-04-03T08:31:51.000Z</time></trkpt>
        <trkpt lat="29.564444" lon="103.423222"><ele>734.5535</ele><time>2026-04-03T08:31:57.000Z</time></trkpt>
        <trkpt lat="29.564447" lon="103.423166"><ele>733.87585</ele><time>2026-04-03T08:32:05.000Z</time></trkpt>
        <trkpt lat="29.564432" lon="103.423115"><ele>733.79626</ele><time>2026-04-03T08:32:12.000Z</time></trkpt>
        <trkpt lat="29.56444" lon="103.423057"><ele>734.02136</ele><time>2026-04-03T08:32:19.000Z</time></trkpt>
        <trkpt lat="29.564484" lon="103.423039"><ele>749.1091</ele><time>2026-04-03T08:33:21.000Z</time></trkpt>
        <trkpt lat="29.564441" lon="103.423023"><ele>744.8471</ele><time>2026-04-03T08:34:19.000Z</time></trkpt>
        <trkpt lat="29.564415" lon="103.423066"><ele>750.4529</ele><time>2026-04-03T08:34:37.000Z</time></trkpt>
        <trkpt lat="29.564467" lon="103.423046"><ele>753.9751</ele><time>2026-04-03T08:35:06.000Z</time></trkpt>
        <trkpt lat="29.56449" lon="103.422992"><ele>753.41626</ele><time>2026-04-03T08:35:17.000Z</time></trkpt>
        <trkpt lat="29.564516" lon="103.422943"><ele>753.1218</ele><time>2026-04-03T08:35:23.000Z</time></trkpt>
        <trkpt lat="29.56452" lon="103.42289"><ele>753.6338</ele><time>2026-04-03T08:35:29.000Z</time></trkpt>
        <trkpt lat="29.564509" lon="103.42283"><ele>756.2266</ele><time>2026-04-03T08:35:35.000Z</time></trkpt>
        <trkpt lat="29.564495" lon="103.422774"><ele>752.49835</ele><time>2026-04-03T08:35:43.000Z</time></trkpt>
        <trkpt lat="29.564469" lon="103.422715"><ele>753.55646</ele><time>2026-04-03T08:35:48.000Z</time></trkpt>
        <trkpt lat="29.564484" lon="103.42266"><ele>757.26465</ele><time>2026-04-03T08:35:58.000Z</time></trkpt>
        <trkpt lat="29.56451" lon="103.422607"><ele>759.0374</ele><time>2026-04-03T08:36:09.000Z</time></trkpt>
        <trkpt lat="29.564527" lon="103.42255"><ele>764.79395</ele><time>2026-04-03T08:36:20.000Z</time></trkpt>
        <trkpt lat="29.564522" lon="103.422499"><ele>766.56134</ele><time>2026-04-03T08:36:26.000Z</time></trkpt>
        <trkpt lat="29.564521" lon="103.42244"><ele>769.7264</ele><time>2026-04-03T08:36:35.000Z</time></trkpt>
        <trkpt lat="29.564517" lon="103.422387"><ele>770.86847</ele><time>2026-04-03T08:36:43.000Z</time></trkpt>
        <trkpt lat="29.564513" lon="103.422333"><ele>770.3756</ele><time>2026-04-03T08:36:54.000Z</time></trkpt>
        <trkpt lat="29.564514" lon="103.422281"><ele>772.16864</ele><time>2026-04-03T08:36:59.000Z</time></trkpt>
        <trkpt lat="29.564521" lon="103.422224"><ele>776.59204</ele><time>2026-04-03T08:37:06.000Z</time></trkpt>
        <trkpt lat="29.564513" lon="103.422172"><ele>779.6168</ele><time>2026-04-03T08:37:14.000Z</time></trkpt>
        <trkpt lat="29.564515" lon="103.422118"><ele>781.952</ele><time>2026-04-03T08:37:22.000Z</time></trkpt>
        <trkpt lat="29.564502" lon="103.422068"><ele>785.55444</ele><time>2026-04-03T08:37:30.000Z</time></trkpt>
        <trkpt lat="29.564489" lon="103.422018"><ele>786.2715</ele><time>2026-04-03T08:37:40.000Z</time></trkpt>
        <trkpt lat="29.56446" lon="103.421968"><ele>785.95197</ele><time>2026-04-03T08:37:50.000Z</time></trkpt>
        <trkpt lat="29.564474" lon="103.421916"><ele>784.4233</ele><time>2026-04-03T08:38:00.000Z</time></trkpt>
        <trkpt lat="29.564441" lon="103.421871"><ele>783.59125</ele><time>2026-04-03T08:38:10.000Z</time></trkpt>
        <trkpt lat="29.564443" lon="103.421817"><ele>781.5776</ele><time>2026-04-03T08:38:23.000Z</time></trkpt>
        <trkpt lat="29.564461" lon="103.421763"><ele>788.36224</ele><time>2026-04-03T08:38:33.000Z</time></trkpt>
        <trkpt lat="29.564427" lon="103.421728"><ele>790.6008</ele><time>2026-04-03T08:38:37.000Z</time></trkpt>
        <trkpt lat="29.564383" lon="103.421675"><ele>792.89233</ele><time>2026-04-03T08:38:43.000Z</time></trkpt>
        <trkpt lat="29.564354" lon="103.421625"><ele>790.39825</ele><time>2026-04-03T08:38:47.000Z</time></trkpt>
        <trkpt lat="29.564319" lon="103.42159"><ele>789.16785</ele><time>2026-04-03T08:38:54.000Z</time></trkpt>
        <trkpt lat="29.564315" lon="103.421534"><ele>793.76196</ele><time>2026-04-03T08:39:06.000Z</time></trkpt>
        <trkpt lat="29.564296" lon="103.421487"><ele>790.1783</ele><time>2026-04-03T08:39:11.000Z</time></trkpt>
        <trkpt lat="29.564262" lon="103.421435"><ele>788.22656</ele><time>2026-04-03T08:39:18.000Z</time></trkpt>
        <trkpt lat="29.564272" lon="103.421383"><ele>789.9222</ele><time>2026-04-03T08:39:35.000Z</time></trkpt>
        <trkpt lat="29.564324" lon="103.421388"><ele>790.72516</ele><time>2026-04-03T08:39:41.000Z</time></trkpt>
        <trkpt lat="29.564377" lon="103.42139"><ele>792.7212</ele><time>2026-04-03T08:40:00.000Z</time></trkpt>
        <trkpt lat="29.564426" lon="103.421378"><ele>801.90063</ele><time>2026-04-03T08:42:12.000Z</time></trkpt>
        <trkpt lat="29.564434" lon="103.421319"><ele>798.64026</ele><time>2026-04-03T08:42:31.000Z</time></trkpt>
        <trkpt lat="29.564473" lon="103.421287"><ele>794.3581</ele><time>2026-04-03T08:42:39.000Z</time></trkpt>
        <trkpt lat="29.564513" lon="103.421249"><ele>791.03125</ele><time>2026-04-03T08:42:45.000Z</time></trkpt>
        <trkpt lat="29.564555" lon="103.421221"><ele>791.40393</ele><time>2026-04-03T08:42:50.000Z</time></trkpt>
        <trkpt lat="29.564595" lon="103.421189"><ele>792.08246</ele><time>2026-04-03T08:42:54.000Z</time></trkpt>
        <trkpt lat="29.564623" lon="103.421133"><ele>793.46954</ele><time>2026-04-03T08:42:59.000Z</time></trkpt>
        <trkpt lat="29.564668" lon="103.421142"><ele>793.49695</ele><time>2026-04-03T08:43:16.000Z</time></trkpt>
        <trkpt lat="29.56469" lon="103.421188"><ele>797.05884</ele><time>2026-04-03T08:43:21.000Z</time></trkpt>
        <trkpt lat="29.564706" lon="103.421238"><ele>799.9882</ele><time>2026-04-03T08:43:26.000Z</time></trkpt>
        <trkpt lat="29.564747" lon="103.421276"><ele>800.2083</ele><time>2026-04-03T08:43:32.000Z</time></trkpt>
        <trkpt lat="29.564781" lon="103.421321"><ele>802.10693</ele><time>2026-04-03T08:43:38.000Z</time></trkpt>
        <trkpt lat="29.564819" lon="103.421349"><ele>799.08545</ele><time>2026-04-03T08:43:45.000Z</time></trkpt>
        <trkpt lat="29.564858" lon="103.42138"><ele>803.1229</ele><time>2026-04-03T08:43:51.000Z</time></trkpt>
        <trkpt lat="29.564904" lon="103.421378"><ele>806.2434</ele><time>2026-04-03T08:44:03.000Z</time></trkpt>
        <trkpt lat="29.564955" lon="103.421388"><ele>812.2438</ele><time>2026-04-03T08:44:13.000Z</time></trkpt>
        <trkpt lat="29.565" lon="103.421392"><ele>815.1598</ele><time>2026-04-03T08:44:19.000Z</time></trkpt>
        <trkpt lat="29.565046" lon="103.421396"><ele>814.8755</ele><time>2026-04-03T08:44:23.000Z</time></trkpt>
        <trkpt lat="29.565089" lon="103.421353"><ele>812.3237</ele><time>2026-04-03T08:44:29.000Z</time></trkpt>
        <trkpt lat="29.565134" lon="103.421345"><ele>817.42474</ele><time>2026-04-03T08:44:38.000Z</time></trkpt>
        <trkpt lat="29.565173" lon="103.421318"><ele>820.89026</ele><time>2026-04-03T08:44:45.000Z</time></trkpt>
        <trkpt lat="29.565215" lon="103.421296"><ele>820.90936</ele><time>2026-04-03T08:44:56.000Z</time></trkpt>
        <trkpt lat="29.565261" lon="103.421267"><ele>819.42664</ele><time>2026-04-03T08:45:04.000Z</time></trkpt>
        <trkpt lat="29.565299" lon="103.421239"><ele>823.10254</ele><time>2026-04-03T08:45:12.000Z</time></trkpt>
        <trkpt lat="29.565346" lon="103.421228"><ele>826.0848</ele><time>2026-04-03T08:46:01.000Z</time></trkpt>
        <trkpt lat="29.565359" lon="103.421177"><ele>825.20233</ele><time>2026-04-03T08:49:24.000Z</time></trkpt>
        <trkpt lat="29.565349" lon="103.421231"><ele>827.2457</ele><time>2026-04-03T08:56:32.000Z</time></trkpt>
        <trkpt lat="29.565384" lon="103.421194"><ele>829.81836</ele><time>2026-04-03T08:58:28.000Z</time></trkpt>
        <trkpt lat="29.565425" lon="103.421165"><ele>826.81366</ele><time>2026-04-03T08:58:34.000Z</time></trkpt>
        <trkpt lat="29.565475" lon="103.421141"><ele>828.06805</ele><time>2026-04-03T08:58:41.000Z</time></trkpt>
        <trkpt lat="29.565527" lon="103.421114"><ele>826.33386</ele><time>2026-04-03T08:58:47.000Z</time></trkpt>
        <trkpt lat="29.565572" lon="103.421129"><ele>828.285</ele><time>2026-04-03T08:58:54.000Z</time></trkpt>
        <trkpt lat="29.565619" lon="103.421118"><ele>828.2935</ele><time>2026-04-03T08:58:58.000Z</time></trkpt>
        <trkpt lat="29.565674" lon="103.421116"><ele>829.5363</ele><time>2026-04-03T08:59:04.000Z</time></trkpt>
        <trkpt lat="29.565723" lon="103.421124"><ele>829.11127</ele><time>2026-04-03T08:59:09.000Z</time></trkpt>
        <trkpt lat="29.565774" lon="103.421121"><ele>828.6738</ele><time>2026-04-03T08:59:13.000Z</time></trkpt>
        <trkpt lat="29.56583" lon="103.421102"><ele>831.7215</ele><time>2026-04-03T08:59:18.000Z</time></trkpt>
        <trkpt lat="29.565877" lon="103.421094"><ele>830.95856</ele><time>2026-04-03T08:59:22.000Z</time></trkpt>
        <trkpt lat="29.565923" lon="103.421088"><ele>829.7277</ele><time>2026-04-03T08:59:29.000Z</time></trkpt>
        <trkpt lat="29.565966" lon="103.421109"><ele>830.2207</ele><time>2026-04-03T08:59:34.000Z</time></trkpt>
        <trkpt lat="29.566013" lon="103.421116"><ele>835.10144</ele><time>2026-04-03T08:59:45.000Z</time></trkpt>
        <trkpt lat="29.566071" lon="103.421134"><ele>835.7733</ele><time>2026-04-03T08:59:50.000Z</time></trkpt>
        <trkpt lat="29.566096" lon="103.421082"><ele>838.99084</ele><time>2026-04-03T09:00:00.000Z</time></trkpt>
        <trkpt lat="29.566132" lon="103.421039"><ele>839.9197</ele><time>2026-04-03T09:00:05.000Z</time></trkpt>
        <trkpt lat="29.566176" lon="103.421"><ele>837.0919</ele><time>2026-04-03T09:00:09.000Z</time></trkpt>
        <trkpt lat="29.5662" lon="103.420945"><ele>837.0545</ele><time>2026-04-03T09:00:14.000Z</time></trkpt>
        <trkpt lat="29.566216" lon="103.420891"><ele>835.0608</ele><time>2026-04-03T09:00:19.000Z</time></trkpt>
        <trkpt lat="29.566224" lon="103.420838"><ele>836.1171</ele><time>2026-04-03T09:00:24.000Z</time></trkpt>
        <trkpt lat="29.566253" lon="103.420789"><ele>833.4926</ele><time>2026-04-03T09:00:33.000Z</time></trkpt>
        <trkpt lat="29.566268" lon="103.420722"><ele>831.7657</ele><time>2026-04-03T09:00:39.000Z</time></trkpt>
        <trkpt lat="29.566296" lon="103.420661"><ele>834.28955</ele><time>2026-04-03T09:00:44.000Z</time></trkpt>
        <trkpt lat="29.566316" lon="103.42061"><ele>835.4655</ele><time>2026-04-03T09:00:48.000Z</time></trkpt>
        <trkpt lat="29.566319" lon="103.420556"><ele>838.5663</ele><time>2026-04-03T09:00:52.000Z</time></trkpt>
        <trkpt lat="29.566348" lon="103.420511"><ele>838.6625</ele><time>2026-04-03T09:00:57.000Z</time></trkpt>
        <trkpt lat="29.566365" lon="103.42046"><ele>839.34735</ele><time>2026-04-03T09:01:02.000Z</time></trkpt>
        <trkpt lat="29.566388" lon="103.420415"><ele>837.65155</ele><time>2026-04-03T09:01:07.000Z</time></trkpt>
        <trkpt lat="29.566421" lon="103.420377"><ele>837.40985</ele><time>2026-04-03T09:01:11.000Z</time></trkpt>
        <trkpt lat="29.566447" lon="103.420324"><ele>837.3405</ele><time>2026-04-03T09:01:16.000Z</time></trkpt>
        <trkpt lat="29.566489" lon="103.420288"><ele>836.1874</ele><time>2026-04-03T09:01:20.000Z</time></trkpt>
        <trkpt lat="29.566528" lon="103.420244"><ele>837.4851</ele><time>2026-04-03T09:01:24.000Z</time></trkpt>
        <trkpt lat="29.566552" lon="103.420197"><ele>837.4894</ele><time>2026-04-03T09:01:28.000Z</time></trkpt>
        <trkpt lat="29.566578" lon="103.420149"><ele>836.482</ele><time>2026-04-03T09:01:33.000Z</time></trkpt>
        <trkpt lat="29.566626" lon="103.420121"><ele>838.0047</ele><time>2026-04-03T09:01:44.000Z</time></trkpt>
        <trkpt lat="29.566632" lon="103.420068"><ele>839.3513</ele><time>2026-04-03T09:01:50.000Z</time></trkpt>
        <trkpt lat="29.566635" lon="103.420006"><ele>840.10803</ele><time>2026-04-03T09:01:56.000Z</time></trkpt>
        <trkpt lat="29.566657" lon="103.419954"><ele>840.35815</ele><time>2026-04-03T09:02:00.000Z</time></trkpt>
        <trkpt lat="29.566663" lon="103.419901"><ele>840.8322</ele><time>2026-04-03T09:02:05.000Z</time></trkpt>
        <trkpt lat="29.566672" lon="103.41985"><ele>841.0545</ele><time>2026-04-03T09:02:09.000Z</time></trkpt>
        <trkpt lat="29.566714" lon="103.419817"><ele>840.91394</ele><time>2026-04-03T09:02:14.000Z</time></trkpt>
        <trkpt lat="29.566773" lon="103.419839"><ele>841.65875</ele><time>2026-04-03T09:02:22.000Z</time></trkpt>
        <trkpt lat="29.566815" lon="103.419859"><ele>844.1793</ele><time>2026-04-03T09:02:28.000Z</time></trkpt>
        <trkpt lat="29.566857" lon="103.419901"><ele>847.5655</ele><time>2026-04-03T09:02:34.000Z</time></trkpt>
        <trkpt lat="29.566893" lon="103.419936"><ele>848.8674</ele><time>2026-04-03T09:02:41.000Z</time></trkpt>
        <trkpt lat="29.566931" lon="103.419978"><ele>849.8632</ele><time>2026-04-03T09:02:50.000Z</time></trkpt>
        <trkpt lat="29.566975" lon="103.420011"><ele>851.2329</ele><time>2026-04-03T09:02:58.000Z</time></trkpt>
        <trkpt lat="29.567001" lon="103.420054"><ele>852.37976</ele><time>2026-04-03T09:03:07.000Z</time></trkpt>
        <trkpt lat="29.567003" lon="103.420122"><ele>854.6935</ele><time>2026-04-03T09:03:16.000Z</time></trkpt>
        <trkpt lat="29.567007" lon="103.420178"><ele>853.8749</ele><time>2026-04-03T09:03:22.000Z</time></trkpt>
        <trkpt lat="29.567027" lon="103.420239"><ele>853.97687</ele><time>2026-04-03T09:03:27.000Z</time></trkpt>
        <trkpt lat="29.567039" lon="103.420298"><ele>856.0467</ele><time>2026-04-03T09:03:31.000Z</time></trkpt>
        <trkpt lat="29.567077" lon="103.420336"><ele>858.35565</ele><time>2026-04-03T09:03:40.000Z</time></trkpt>
        <trkpt lat="29.567113" lon="103.420373"><ele>857.7873</ele><time>2026-04-03T09:03:47.000Z</time></trkpt>
        <trkpt lat="29.567149" lon="103.420415"><ele>859.43066</ele><time>2026-04-03T09:03:55.000Z</time></trkpt>
        <trkpt lat="29.567195" lon="103.420427"><ele>863.68494</ele><time>2026-04-03T09:04:11.000Z</time></trkpt>
        <trkpt lat="29.567242" lon="103.420413"><ele>865.38214</ele><time>2026-04-03T09:04:23.000Z</time></trkpt>
        <trkpt lat="29.567293" lon="103.420414"><ele>864.6088</ele><time>2026-04-03T09:04:31.000Z</time></trkpt>
        <trkpt lat="29.56734" lon="103.420411"><ele>868.5065</ele><time>2026-04-03T09:04:42.000Z</time></trkpt>
        <trkpt lat="29.567387" lon="103.420417"><ele>870.92126</ele><time>2026-04-03T09:04:57.000Z</time></trkpt>
        <trkpt lat="29.567437" lon="103.420404"><ele>875.2505</ele><time>2026-04-03T09:05:04.000Z</time></trkpt>
        <trkpt lat="29.567477" lon="103.420378"><ele>876.3311</ele><time>2026-04-03T09:05:12.000Z</time></trkpt>
        <trkpt lat="29.567519" lon="103.420352"><ele>877.2641</ele><time>2026-04-03T09:05:20.000Z</time></trkpt>
        <trkpt lat="29.567566" lon="103.420351"><ele>877.8352</ele><time>2026-04-03T09:05:29.000Z</time></trkpt>
        <trkpt lat="29.567612" lon="103.420337"><ele>882.5858</ele><time>2026-04-03T09:05:39.000Z</time></trkpt>
        <trkpt lat="29.567657" lon="103.420327"><ele>886.6333</ele><time>2026-04-03T09:05:48.000Z</time></trkpt>
        <trkpt lat="29.567694" lon="103.420294"><ele>886.5378</ele><time>2026-04-03T09:05:55.000Z</time></trkpt>
        <trkpt lat="29.567741" lon="103.420263"><ele>886.5848</ele><time>2026-04-03T09:06:02.000Z</time></trkpt>
        <trkpt lat="29.567785" lon="103.420233"><ele>887.4919</ele><time>2026-04-03T09:06:07.000Z</time></trkpt>
        <trkpt lat="29.567809" lon="103.420188"><ele>888.1926</ele><time>2026-04-03T09:06:13.000Z</time></trkpt>
        <trkpt lat="29.567849" lon="103.420158"><ele>888.8545</ele><time>2026-04-03T09:06:37.000Z</time></trkpt>
        <trkpt lat="29.567898" lon="103.420143"><ele>888.47095</ele><time>2026-04-03T09:06:44.000Z</time></trkpt>
        <trkpt lat="29.567948" lon="103.420134"><ele>890.05493</ele><time>2026-04-03T09:06:52.000Z</time></trkpt>
        <trkpt lat="29.567987" lon="103.420107"><ele>893.1477</ele><time>2026-04-03T09:07:02.000Z</time></trkpt>
        <trkpt lat="29.568032" lon="103.420091"><ele>893.5991</ele><time>2026-04-03T09:07:11.000Z</time></trkpt>
        <trkpt lat="29.568077" lon="103.420069"><ele>897.20483</ele><time>2026-04-03T09:07:24.000Z</time></trkpt>
        <trkpt lat="29.568123" lon="103.420062"><ele>899.80585</ele><time>2026-04-03T09:07:36.000Z</time></trkpt>
        <trkpt lat="29.568168" lon="103.42007"><ele>900.9198</ele><time>2026-04-03T09:07:49.000Z</time></trkpt>
        <trkpt lat="29.568214" lon="103.420081"><ele>905.3924</ele><time>2026-04-03T09:08:03.000Z</time></trkpt>
        <trkpt lat="29.568264" lon="103.42008"><ele>905.0018</ele><time>2026-04-03T09:08:12.000Z</time></trkpt>
        <trkpt lat="29.568312" lon="103.420068"><ele>909.56714</ele><time>2026-04-03T09:08:26.000Z</time></trkpt>
        <trkpt lat="29.568359" lon="103.420055"><ele>912.4019</ele><time>2026-04-03T09:08:36.000Z</time></trkpt>
        <trkpt lat="29.568408" lon="103.420047"><ele>914.2341</ele><time>2026-04-03T09:08:45.000Z</time></trkpt>
        <trkpt lat="29.568454" lon="103.420048"><ele>916.2605</ele><time>2026-04-03T09:08:58.000Z</time></trkpt>
        <trkpt lat="29.568501" lon="103.420037"><ele>919.0983</ele><time>2026-04-03T09:09:07.000Z</time></trkpt>
        <trkpt lat="29.568549" lon="103.420044"><ele>918.55316</ele><time>2026-04-03T09:09:13.000Z</time></trkpt>
        <trkpt lat="29.568599" lon="103.420043"><ele>919.41473</ele><time>2026-04-03T09:09:22.000Z</time></trkpt>
        <trkpt lat="29.568644" lon="103.420039"><ele>921.3968</ele><time>2026-04-03T09:09:29.000Z</time></trkpt>
        <trkpt lat="29.568694" lon="103.420037"><ele>922.5491</ele><time>2026-04-03T09:09:38.000Z</time></trkpt>
        <trkpt lat="29.568741" lon="103.420035"><ele>922.89154</ele><time>2026-04-03T09:09:53.000Z</time></trkpt>
        <trkpt lat="29.568778" lon="103.419996"><ele>925.88885</ele><time>2026-04-03T09:10:04.000Z</time></trkpt>
        <trkpt lat="29.568833" lon="103.419952"><ele>925.69727</ele><time>2026-04-03T09:10:08.000Z</time></trkpt>
        <trkpt lat="29.568881" lon="103.419954"><ele>927.5064</ele><time>2026-04-03T09:10:24.000Z</time></trkpt>
        <trkpt lat="29.568916" lon="103.419917"><ele>930.732</ele><time>2026-04-03T09:11:07.000Z</time></trkpt>
        <trkpt lat="29.568961" lon="103.419895"><ele>927.1043</ele><time>2026-04-03T09:12:03.000Z</time></trkpt>
        <trkpt lat="29.569048" lon="103.419868"><ele>924.8123</ele><time>2026-04-03T09:12:13.000Z</time></trkpt>
        <trkpt lat="29.5691" lon="103.41986"><ele>926.99023</ele><time>2026-04-03T09:12:19.000Z</time></trkpt>
        <trkpt lat="29.569147" lon="103.419848"><ele>927.70795</ele><time>2026-04-03T09:12:25.000Z</time></trkpt>
        <trkpt lat="29.569195" lon="103.419817"><ele>928.9175</ele><time>2026-04-03T09:12:31.000Z</time></trkpt>
        <trkpt lat="29.56924" lon="103.419775"><ele>929.05646</ele><time>2026-04-03T09:12:36.000Z</time></trkpt>
        <trkpt lat="29.569286" lon="103.419756"><ele>930.3076</ele><time>2026-04-03T09:12:47.000Z</time></trkpt>
        <trkpt lat="29.569335" lon="103.41974"><ele>927.4311</ele><time>2026-04-03T09:12:57.000Z</time></trkpt>
        <trkpt lat="29.569376" lon="103.41972"><ele>923.9862</ele><time>2026-04-03T09:13:04.000Z</time></trkpt>
        <trkpt lat="29.569423" lon="103.419695"><ele>926.89465</ele><time>2026-04-03T09:13:11.000Z</time></trkpt>
        <trkpt lat="29.569467" lon="103.419669"><ele>925.2832</ele><time>2026-04-03T09:13:16.000Z</time></trkpt>
        <trkpt lat="29.569501" lon="103.419635"><ele>924.6488</ele><time>2026-04-03T09:13:40.000Z</time></trkpt>
        <trkpt lat="29.569527" lon="103.419583"><ele>925.75476</ele><time>2026-04-03T09:14:12.000Z</time></trkpt>
        <trkpt lat="29.56955" lon="103.419532"><ele>926.7791</ele><time>2026-04-03T09:14:19.000Z</time></trkpt>
        <trkpt lat="29.569569" lon="103.419483"><ele>926.91064</ele><time>2026-04-03T09:14:24.000Z</time></trkpt>
        <trkpt lat="29.569606" lon="103.419445"><ele>926.66943</ele><time>2026-04-03T09:14:29.000Z</time></trkpt>
        <trkpt lat="29.569641" lon="103.41948"><ele>924.7208</ele><time>2026-04-03T09:14:49.000Z</time></trkpt>
        <trkpt lat="29.569657" lon="103.419427"><ele>927.7227</ele><time>2026-04-03T09:15:21.000Z</time></trkpt>
        <trkpt lat="29.569682" lon="103.419378"><ele>927.65027</ele><time>2026-04-03T09:15:25.000Z</time></trkpt>
        <trkpt lat="29.569705" lon="103.419331"><ele>925.2325</ele><time>2026-04-03T09:15:31.000Z</time></trkpt>
        <trkpt lat="29.569736" lon="103.41929"><ele>921.9477</ele><time>2026-04-03T09:15:35.000Z</time></trkpt>
        <trkpt lat="29.569769" lon="103.419243"><ele>921.61456</ele><time>2026-04-03T09:15:41.000Z</time></trkpt>
        <trkpt lat="29.569787" lon="103.419184"><ele>920.0973</ele><time>2026-04-03T09:15:46.000Z</time></trkpt>
        <trkpt lat="29.569771" lon="103.419133"><ele>921.9065</ele><time>2026-04-03T09:15:49.000Z</time></trkpt>
        <trkpt lat="29.569779" lon="103.419074"><ele>923.4299</ele><time>2026-04-03T09:15:53.000Z</time></trkpt>
        <trkpt lat="29.569784" lon="103.419023"><ele>923.83636</ele><time>2026-04-03T09:15:57.000Z</time></trkpt>
        <trkpt lat="29.5698" lon="103.418959"><ele>923.305</ele><time>2026-04-03T09:16:02.000Z</time></trkpt>
        <trkpt lat="29.569795" lon="103.418899"><ele>924.4844</ele><time>2026-04-03T09:16:07.000Z</time></trkpt>
        <trkpt lat="29.569778" lon="103.418839"><ele>923.53644</ele><time>2026-04-03T09:16:12.000Z</time></trkpt>
        <trkpt lat="29.569783" lon="103.418786"><ele>922.0899</ele><time>2026-04-03T09:16:17.000Z</time></trkpt>
        <trkpt lat="29.569794" lon="103.418731"><ele>922.2831</ele><time>2026-04-03T09:16:25.000Z</time></trkpt>
        <trkpt lat="29.569814" lon="103.41867"><ele>921.2259</ele><time>2026-04-03T09:16:30.000Z</time></trkpt>
        <trkpt lat="29.569821" lon="103.418603"><ele>919.5355</ele><time>2026-04-03T09:16:34.000Z</time></trkpt>
        <trkpt lat="29.569838" lon="103.418549"><ele>917.89764</ele><time>2026-04-03T09:16:37.000Z</time></trkpt>
        <trkpt lat="29.569854" lon="103.4185"><ele>919.2834</ele><time>2026-04-03T09:16:42.000Z</time></trkpt>
        <trkpt lat="29.569851" lon="103.418445"><ele>920.78674</ele><time>2026-04-03T09:16:46.000Z</time></trkpt>
        <trkpt lat="29.569863" lon="103.41839"><ele>921.2335</ele><time>2026-04-03T09:16:51.000Z</time></trkpt>
        <trkpt lat="29.569863" lon="103.418325"><ele>920.19934</ele><time>2026-04-03T09:16:58.000Z</time></trkpt>
        <trkpt lat="29.569866" lon="103.418265"><ele>918.82733</ele><time>2026-04-03T09:17:04.000Z</time></trkpt>
        <trkpt lat="29.569851" lon="103.418216"><ele>918.69934</ele><time>2026-04-03T09:17:08.000Z</time></trkpt>
        <trkpt lat="29.569854" lon="103.418159"><ele>918.07605</ele><time>2026-04-03T09:17:13.000Z</time></trkpt>
        <trkpt lat="29.56988" lon="103.4181"><ele>918.85675</ele><time>2026-04-03T09:17:19.000Z</time></trkpt>
        <trkpt lat="29.569919" lon="103.418067"><ele>919.5391</ele><time>2026-04-03T09:17:23.000Z</time></trkpt>
        <trkpt lat="29.569951" lon="103.41803"><ele>919.59155</ele><time>2026-04-03T09:17:28.000Z</time></trkpt>
        <trkpt lat="29.569959" lon="103.417976"><ele>916.5123</ele><time>2026-04-03T09:17:34.000Z</time></trkpt>
        <trkpt lat="29.569975" lon="103.417921"><ele>915.17175</ele><time>2026-04-03T09:17:37.000Z</time></trkpt>
        <trkpt lat="29.569992" lon="103.417864"><ele>913.5611</ele><time>2026-04-03T09:17:41.000Z</time></trkpt>
        <trkpt lat="29.570028" lon="103.41781"><ele>913.8014</ele><time>2026-04-03T09:17:44.000Z</time></trkpt>
        <trkpt lat="29.570063" lon="103.417767"><ele>915.2813</ele><time>2026-04-03T09:17:49.000Z</time></trkpt>
        <trkpt lat="29.570055" lon="103.417704"><ele>915.02563</ele><time>2026-04-03T09:17:52.000Z</time></trkpt>
        <trkpt lat="29.570062" lon="103.417639"><ele>914.45</ele><time>2026-04-03T09:17:56.000Z</time></trkpt>
        <trkpt lat="29.570072" lon="103.417577"><ele>913.038</ele><time>2026-04-03T09:18:01.000Z</time></trkpt>
        <trkpt lat="29.57008" lon="103.417524"><ele>916.02325</ele><time>2026-04-03T09:18:06.000Z</time></trkpt>
        <trkpt lat="29.570082" lon="103.417469"><ele>917.64</ele><time>2026-04-03T09:18:11.000Z</time></trkpt>
        <trkpt lat="29.570069" lon="103.41741"><ele>915.85706</ele><time>2026-04-03T09:18:17.000Z</time></trkpt>
        <trkpt lat="29.570073" lon="103.41735"><ele>917.91864</ele><time>2026-04-03T09:18:22.000Z</time></trkpt>
        <trkpt lat="29.570098" lon="103.4173"><ele>918.76</ele><time>2026-04-03T09:18:26.000Z</time></trkpt>
        <trkpt lat="29.570128" lon="103.417257"><ele>919.0849</ele><time>2026-04-03T09:18:30.000Z</time></trkpt>
        <trkpt lat="29.570146" lon="103.417207"><ele>919.7706</ele><time>2026-04-03T09:18:34.000Z</time></trkpt>
        <trkpt lat="29.570167" lon="103.417153"><ele>918.8846</ele><time>2026-04-03T09:18:39.000Z</time></trkpt>
        <trkpt lat="29.5702" lon="103.417112"><ele>916.31836</ele><time>2026-04-03T09:18:45.000Z</time></trkpt>
        <trkpt lat="29.570246" lon="103.417123"><ele>915.6409</ele><time>2026-04-03T09:18:51.000Z</time></trkpt>
        <trkpt lat="29.570288" lon="103.417101"><ele>914.09717</ele><time>2026-04-03T09:18:57.000Z</time></trkpt>
        <trkpt lat="29.570323" lon="103.417134"><ele>911.5235</ele><time>2026-04-03T09:19:06.000Z</time></trkpt>
        <trkpt lat="29.570345" lon="103.417082"><ele>909.61896</ele><time>2026-04-03T09:19:12.000Z</time></trkpt>
        <trkpt lat="29.57035" lon="103.417029"><ele>907.7267</ele><time>2026-04-03T09:19:15.000Z</time></trkpt>
        <trkpt lat="29.570374" lon="103.416982"><ele>910.3654</ele><time>2026-04-03T09:19:42.000Z</time></trkpt>
        <trkpt lat="29.570358" lon="103.416925"><ele>908.5662</ele><time>2026-04-03T09:19:48.000Z</time></trkpt>
        <trkpt lat="29.570366" lon="103.416865"><ele>909.8248</ele><time>2026-04-03T09:19:55.000Z</time></trkpt>
        <trkpt lat="29.570364" lon="103.416803"><ele>911.92175</ele><time>2026-04-03T09:20:00.000Z</time></trkpt>
        <trkpt lat="29.57039" lon="103.416749"><ele>912.6469</ele><time>2026-04-03T09:20:04.000Z</time></trkpt>
        <trkpt lat="29.570422" lon="103.416694"><ele>914.2074</ele><time>2026-04-03T09:20:14.000Z</time></trkpt>
        <trkpt lat="29.570432" lon="103.416638"><ele>911.431</ele><time>2026-04-03T09:20:17.000Z</time></trkpt>
        <trkpt lat="29.570411" lon="103.416591"><ele>908.69226</ele><time>2026-04-03T09:20:19.000Z</time></trkpt>
        <trkpt lat="29.57039" lon="103.416544"><ele>907.6384</ele><time>2026-04-03T09:20:23.000Z</time></trkpt>
        <trkpt lat="29.570364" lon="103.416493"><ele>904.9722</ele><time>2026-04-03T09:20:26.000Z</time></trkpt>
        <trkpt lat="29.570377" lon="103.416439"><ele>904.01575</ele><time>2026-04-03T09:20:30.000Z</time></trkpt>
        <trkpt lat="29.57039" lon="103.416388"><ele>906.2667</ele><time>2026-04-03T09:20:34.000Z</time></trkpt>
        <trkpt lat="29.570381" lon="103.416328"><ele>906.8047</ele><time>2026-04-03T09:20:39.000Z</time></trkpt>
        <trkpt lat="29.570402" lon="103.416274"><ele>909.4609</ele><time>2026-04-03T09:20:43.000Z</time></trkpt>
        <trkpt lat="29.57045" lon="103.41625"><ele>910.96875</ele><time>2026-04-03T09:20:47.000Z</time></trkpt>
        <trkpt lat="29.570498" lon="103.416248"><ele>913.3204</ele><time>2026-04-03T09:20:53.000Z</time></trkpt>
        <trkpt lat="29.570534" lon="103.416213"><ele>912.3102</ele><time>2026-04-03T09:20:58.000Z</time></trkpt>
        <trkpt lat="29.570567" lon="103.416174"><ele>909.8994</ele><time>2026-04-03T09:21:04.000Z</time></trkpt>
        <trkpt lat="29.570618" lon="103.41616"><ele>911.6867</ele><time>2026-04-03T09:21:14.000Z</time></trkpt>
        <trkpt lat="29.570664" lon="103.41614"><ele>918.6789</ele><time>2026-04-03T09:21:32.000Z</time></trkpt>
        <trkpt lat="29.570696" lon="103.416101"><ele>918.5145</ele><time>2026-04-03T09:21:39.000Z</time></trkpt>
        <trkpt lat="29.570729" lon="103.416066"><ele>919.33777</ele><time>2026-04-03T09:21:43.000Z</time></trkpt>
        <trkpt lat="29.570714" lon="103.416012"><ele>921.6376</ele><time>2026-04-03T09:21:56.000Z</time></trkpt>
        <trkpt lat="29.570689" lon="103.415969"><ele>921.54694</ele><time>2026-04-03T09:22:02.000Z</time></trkpt>
        <trkpt lat="29.570668" lon="103.41592"><ele>919.4729</ele><time>2026-04-03T09:22:06.000Z</time></trkpt>
        <trkpt lat="29.570631" lon="103.415875"><ele>917.26495</ele><time>2026-04-03T09:22:09.000Z</time></trkpt>
        <trkpt lat="29.570587" lon="103.415829"><ele>915.6231</ele><time>2026-04-03T09:22:14.000Z</time></trkpt>
        <trkpt lat="29.570539" lon="103.415817"><ele>916.07</ele><time>2026-04-03T09:22:19.000Z</time></trkpt>
        <trkpt lat="29.570497" lon="103.415786"><ele>915.4643</ele><time>2026-04-03T09:22:23.000Z</time></trkpt>
        <trkpt lat="29.570472" lon="103.415742"><ele>915.9743</ele><time>2026-04-03T09:22:27.000Z</time></trkpt>
        <trkpt lat="29.57044" lon="103.415696"><ele>917.756</ele><time>2026-04-03T09:22:31.000Z</time></trkpt>
        <trkpt lat="29.570413" lon="103.41565"><ele>917.26917</ele><time>2026-04-03T09:22:36.000Z</time></trkpt>
        <trkpt lat="29.570376" lon="103.415618"><ele>917.07153</ele><time>2026-04-03T09:22:40.000Z</time></trkpt>
        <trkpt lat="29.570327" lon="103.415583"><ele>916.38666</ele><time>2026-04-03T09:22:45.000Z</time></trkpt>
        <trkpt lat="29.570283" lon="103.415559"><ele>916.1318</ele><time>2026-04-03T09:22:50.000Z</time></trkpt>
        <trkpt lat="29.570235" lon="103.41555"><ele>915.7263</ele><time>2026-04-03T09:22:55.000Z</time></trkpt>
        <trkpt lat="29.57019" lon="103.415532"><ele>917.79047</ele><time>2026-04-03T09:23:00.000Z</time></trkpt>
        <trkpt lat="29.570149" lon="103.415503"><ele>921.5196</ele><time>2026-04-03T09:23:06.000Z</time></trkpt>
        <trkpt lat="29.570106" lon="103.415476"><ele>923.2194</ele><time>2026-04-03T09:23:16.000Z</time></trkpt>
        <trkpt lat="29.570067" lon="103.415447"><ele>923.3907</ele><time>2026-04-03T09:23:20.000Z</time></trkpt>
        <trkpt lat="29.570025" lon="103.415412"><ele>924.08276</ele><time>2026-04-03T09:23:27.000Z</time></trkpt>
        <trkpt lat="29.569988" lon="103.415377"><ele>923.2364</ele><time>2026-04-03T09:23:31.000Z</time></trkpt>
        <trkpt lat="29.569955" lon="103.415333"><ele>924.51904</ele><time>2026-04-03T09:23:36.000Z</time></trkpt>
        <trkpt lat="29.569933" lon="103.415282"><ele>925.42926</ele><time>2026-04-03T09:23:41.000Z</time></trkpt>
        <trkpt lat="29.569916" lon="103.415225"><ele>923.7525</ele><time>2026-04-03T09:23:48.000Z</time></trkpt>
        <trkpt lat="29.569902" lon="103.415165"><ele>921.1173</ele><time>2026-04-03T09:23:53.000Z</time></trkpt>
        <trkpt lat="29.569914" lon="103.415115"><ele>920.8765</ele><time>2026-04-03T09:23:59.000Z</time></trkpt>
        <trkpt lat="29.569912" lon="103.415057"><ele>918.3571</ele><time>2026-04-03T09:24:04.000Z</time></trkpt>
        <trkpt lat="29.56991" lon="103.415002"><ele>920.384</ele><time>2026-04-03T09:24:08.000Z</time></trkpt>
        <trkpt lat="29.569888" lon="103.414948"><ele>918.16235</ele><time>2026-04-03T09:24:13.000Z</time></trkpt>
        <trkpt lat="29.569851" lon="103.414907"><ele>919.8662</ele><time>2026-04-03T09:24:17.000Z</time></trkpt>
        <trkpt lat="29.569826" lon="103.414862"><ele>922.62103</ele><time>2026-04-03T09:24:21.000Z</time></trkpt>
        <trkpt lat="29.569796" lon="103.414814"><ele>922.1599</ele><time>2026-04-03T09:24:27.000Z</time></trkpt>
        <trkpt lat="29.569754" lon="103.414778"><ele>920.62634</ele><time>2026-04-03T09:24:32.000Z</time></trkpt>
        <trkpt lat="29.569709" lon="103.414745"><ele>921.5705</ele><time>2026-04-03T09:24:37.000Z</time></trkpt>
        <trkpt lat="29.569656" lon="103.414721"><ele>920.8827</ele><time>2026-04-03T09:24:41.000Z</time></trkpt>
        <trkpt lat="29.569604" lon="103.414718"><ele>919.1911</ele><time>2026-04-03T09:24:46.000Z</time></trkpt>
        <trkpt lat="29.569557" lon="103.41471"><ele>919.8836</ele><time>2026-04-03T09:24:50.000Z</time></trkpt>
        <trkpt lat="29.569512" lon="103.414725"><ele>919.92914</ele><time>2026-04-03T09:24:55.000Z</time></trkpt>
        <trkpt lat="29.569462" lon="103.414741"><ele>918.2211</ele><time>2026-04-03T09:25:00.000Z</time></trkpt>
        <trkpt lat="29.569413" lon="103.414752"><ele>918.04846</ele><time>2026-04-03T09:25:04.000Z</time></trkpt>
        <trkpt lat="29.569372" lon="103.41478"><ele>916.4572</ele><time>2026-04-03T09:25:10.000Z</time></trkpt>
        <trkpt lat="29.569326" lon="103.414809"><ele>916.9431</ele><time>2026-04-03T09:25:14.000Z</time></trkpt>
        <trkpt lat="29.569272" lon="103.414805"><ele>917.1132</ele><time>2026-04-03T09:25:20.000Z</time></trkpt>
        <trkpt lat="29.569226" lon="103.414803"><ele>915.4133</ele><time>2026-04-03T09:25:29.000Z</time></trkpt>
        <trkpt lat="29.569206" lon="103.414754"><ele>916.7717</ele><time>2026-04-03T09:25:49.000Z</time></trkpt>
        <trkpt lat="29.569175" lon="103.414711"><ele>916.7401</ele><time>2026-04-03T09:25:53.000Z</time></trkpt>
        <trkpt lat="29.569147" lon="103.414653"><ele>918.0645</ele><time>2026-04-03T09:25:57.000Z</time></trkpt>
        <trkpt lat="29.569103" lon="103.414618"><ele>920.34644</ele><time>2026-04-03T09:26:02.000Z</time></trkpt>
        <trkpt lat="29.569071" lon="103.414509"><ele>921.70593</ele><time>2026-04-03T09:26:59.000Z</time></trkpt>
        <trkpt lat="29.569062" lon="103.414458"><ele>922.04266</ele><time>2026-04-03T09:27:03.000Z</time></trkpt>
        <trkpt lat="29.569092" lon="103.414411"><ele>922.0321</ele><time>2026-04-03T09:27:07.000Z</time></trkpt>
        <trkpt lat="29.5691" lon="103.414357"><ele>921.68665</ele><time>2026-04-03T09:27:11.000Z</time></trkpt>
        <trkpt lat="29.569092" lon="103.414303"><ele>922.6581</ele><time>2026-04-03T09:27:15.000Z</time></trkpt>
        <trkpt lat="29.569095" lon="103.414251"><ele>921.70026</ele><time>2026-04-03T09:27:18.000Z</time></trkpt>
        <trkpt lat="29.569109" lon="103.414202"><ele>918.5146</ele><time>2026-04-03T09:27:26.000Z</time></trkpt>
        <trkpt lat="29.56914" lon="103.41416"><ele>914.8836</ele><time>2026-04-03T09:27:36.000Z</time></trkpt>
        <trkpt lat="29.569147" lon="103.414103"><ele>914.1055</ele><time>2026-04-03T09:27:42.000Z</time></trkpt>
        <trkpt lat="29.569153" lon="103.41405"><ele>913.16187</ele><time>2026-04-03T09:27:47.000Z</time></trkpt>
        <trkpt lat="29.569171" lon="103.413991"><ele>913.0164</ele><time>2026-04-03T09:27:53.000Z</time></trkpt>
        <trkpt lat="29.569179" lon="103.413932"><ele>913.1512</ele><time>2026-04-03T09:27:58.000Z</time></trkpt>
        <trkpt lat="29.569186" lon="103.413872"><ele>914.78546</ele><time>2026-04-03T09:28:03.000Z</time></trkpt>
        <trkpt lat="29.569166" lon="103.41381"><ele>914.82056</ele><time>2026-04-03T09:28:08.000Z</time></trkpt>
        <trkpt lat="29.569147" lon="103.41376"><ele>915.67725</ele><time>2026-04-03T09:28:12.000Z</time></trkpt>
        <trkpt lat="29.569136" lon="103.413708"><ele>913.93365</ele><time>2026-04-03T09:28:16.000Z</time></trkpt>
        <trkpt lat="29.5691" lon="103.413655"><ele>915.35034</ele><time>2026-04-03T09:28:20.000Z</time></trkpt>
        <trkpt lat="29.569073" lon="103.413609"><ele>916.53</ele><time>2026-04-03T09:28:23.000Z</time></trkpt>
        <trkpt lat="29.569041" lon="103.413566"><ele>918.4833</ele><time>2026-04-03T09:28:27.000Z</time></trkpt>
        <trkpt lat="29.569052" lon="103.413515"><ele>918.50433</ele><time>2026-04-03T09:28:32.000Z</time></trkpt>
        <trkpt lat="29.569031" lon="103.413468"><ele>918.731</ele><time>2026-04-03T09:28:36.000Z</time></trkpt>
        <trkpt lat="29.569024" lon="103.413406"><ele>915.52045</ele><time>2026-04-03T09:28:42.000Z</time></trkpt>
        <trkpt lat="29.569003" lon="103.413358"><ele>912.34064</ele><time>2026-04-03T09:28:48.000Z</time></trkpt>
        <trkpt lat="29.569001" lon="103.413305"><ele>909.5771</ele><time>2026-04-03T09:28:53.000Z</time></trkpt>
        <trkpt lat="29.569041" lon="103.413274"><ele>914.9871</ele><time>2026-04-03T09:29:01.000Z</time></trkpt>
        <trkpt lat="29.569056" lon="103.413223"><ele>915.3827</ele><time>2026-04-03T09:29:06.000Z</time></trkpt>
        <trkpt lat="29.569075" lon="103.413171"><ele>914.31885</ele><time>2026-04-03T09:29:12.000Z</time></trkpt>
        <trkpt lat="29.569096" lon="103.413115"><ele>911.5794</ele><time>2026-04-03T09:29:16.000Z</time></trkpt>
        <trkpt lat="29.569128" lon="103.413078"><ele>912.8799</ele><time>2026-04-03T09:29:19.000Z</time></trkpt>
        <trkpt lat="29.569149" lon="103.413026"><ele>913.5571</ele><time>2026-04-03T09:29:24.000Z</time></trkpt>
        <trkpt lat="29.569185" lon="103.412993"><ele>914.9274</ele><time>2026-04-03T09:29:30.000Z</time></trkpt>
        <trkpt lat="29.569217" lon="103.412956"><ele>911.879</ele><time>2026-04-03T09:29:35.000Z</time></trkpt>
        <trkpt lat="29.569241" lon="103.412906"><ele>911.9191</ele><time>2026-04-03T09:29:40.000Z</time></trkpt>
        <trkpt lat="29.569278" lon="103.412865"><ele>908.8787</ele><time>2026-04-03T09:29:46.000Z</time></trkpt>
        <trkpt lat="29.569322" lon="103.412838"><ele>911.4689</ele><time>2026-04-03T09:29:51.000Z</time></trkpt>
        <trkpt lat="29.569365" lon="103.412802"><ele>910.0817</ele><time>2026-04-03T09:29:56.000Z</time></trkpt>
        <trkpt lat="29.569406" lon="103.412756"><ele>909.5918</ele><time>2026-04-03T09:30:00.000Z</time></trkpt>
        <trkpt lat="29.569432" lon="103.412709"><ele>908.3389</ele><time>2026-04-03T09:30:05.000Z</time></trkpt>
        <trkpt lat="29.569426" lon="103.412655"><ele>909.0905</ele><time>2026-04-03T09:30:09.000Z</time></trkpt>
        <trkpt lat="29.569387" lon="103.412607"><ele>910.0372</ele><time>2026-04-03T09:30:15.000Z</time></trkpt>
        <trkpt lat="29.569359" lon="103.412566"><ele>910.6852</ele><time>2026-04-03T09:30:18.000Z</time></trkpt>
        <trkpt lat="29.569346" lon="103.412516"><ele>911.8393</ele><time>2026-04-03T09:30:31.000Z</time></trkpt>
        <trkpt lat="29.569306" lon="103.41248"><ele>909.955</ele><time>2026-04-03T09:31:05.000Z</time></trkpt>
        <trkpt lat="29.569317" lon="103.412421"><ele>907.96326</ele><time>2026-04-03T09:31:10.000Z</time></trkpt>
        <trkpt lat="29.569367" lon="103.412424"><ele>906.6021</ele><time>2026-04-03T09:31:15.000Z</time></trkpt>
        <trkpt lat="29.569354" lon="103.412373"><ele>904.2911</ele><time>2026-04-03T09:31:33.000Z</time></trkpt>
        <trkpt lat="29.569365" lon="103.412315"><ele>906.8424</ele><time>2026-04-03T09:31:41.000Z</time></trkpt>
        <trkpt lat="29.569379" lon="103.412266"><ele>904.47644</ele><time>2026-04-03T09:31:53.000Z</time></trkpt>
        <trkpt lat="29.569393" lon="103.412214"><ele>899.9393</ele><time>2026-04-03T09:32:00.000Z</time></trkpt>
        <trkpt lat="29.569346" lon="103.412197"><ele>897.2894</ele><time>2026-04-03T09:32:09.000Z</time></trkpt>
        <trkpt lat="29.569301" lon="103.412177"><ele>898.57776</ele><time>2026-04-03T09:32:16.000Z</time></trkpt>
        <trkpt lat="29.569256" lon="103.412162"><ele>898.34607</ele><time>2026-04-03T09:32:21.000Z</time></trkpt>
        <trkpt lat="29.569205" lon="103.412161"><ele>897.21356</ele><time>2026-04-03T09:32:27.000Z</time></trkpt>
        <trkpt lat="29.569163" lon="103.412131"><ele>896.556</ele><time>2026-04-03T09:32:35.000Z</time></trkpt>
        <trkpt lat="29.569119" lon="103.412118"><ele>896.9427</ele><time>2026-04-03T09:32:42.000Z</time></trkpt>
        <trkpt lat="29.569076" lon="103.412063"><ele>897.1242</ele><time>2026-04-03T09:32:49.000Z</time></trkpt>
        <trkpt lat="29.569036" lon="103.412036"><ele>897.15607</ele><time>2026-04-03T09:32:54.000Z</time></trkpt>
        <trkpt lat="29.568998" lon="103.412"><ele>899.23114</ele><time>2026-04-03T09:33:04.000Z</time></trkpt>
        <trkpt lat="29.568963" lon="103.411958"><ele>894.45544</ele><time>2026-04-03T09:33:12.000Z</time></trkpt>
        <trkpt lat="29.568924" lon="103.411908"><ele>890.7641</ele><time>2026-04-03T09:33:21.000Z</time></trkpt>
        <trkpt lat="29.568881" lon="103.411868"><ele>890.37274</ele><time>2026-04-03T09:33:27.000Z</time></trkpt>
        <trkpt lat="29.568837" lon="103.411855"><ele>888.0269</ele><time>2026-04-03T09:33:32.000Z</time></trkpt>
        <trkpt lat="29.568779" lon="103.411844"><ele>886.68964</ele><time>2026-04-03T09:33:37.000Z</time></trkpt>
        <trkpt lat="29.568733" lon="103.41184"><ele>884.74036</ele><time>2026-04-03T09:33:42.000Z</time></trkpt>
        <trkpt lat="29.568685" lon="103.41182"><ele>883.4466</ele><time>2026-04-03T09:33:52.000Z</time></trkpt>
        <trkpt lat="29.568641" lon="103.411812"><ele>885.9812</ele><time>2026-04-03T09:34:02.000Z</time></trkpt>
        <trkpt lat="29.568613" lon="103.411769"><ele>885.94135</ele><time>2026-04-03T09:34:08.000Z</time></trkpt>
        <trkpt lat="29.568563" lon="103.411746"><ele>880.10516</ele><time>2026-04-03T09:34:17.000Z</time></trkpt>
        <trkpt lat="29.56852" lon="103.411708"><ele>878.9047</ele><time>2026-04-03T09:34:22.000Z</time></trkpt>
        <trkpt lat="29.568496" lon="103.411661"><ele>877.03174</ele><time>2026-04-03T09:34:28.000Z</time></trkpt>
        <trkpt lat="29.568455" lon="103.411627"><ele>874.53595</ele><time>2026-04-03T09:34:36.000Z</time></trkpt>
        <trkpt lat="29.568417" lon="103.411593"><ele>872.5583</ele><time>2026-04-03T09:34:42.000Z</time></trkpt>
        <trkpt lat="29.568405" lon="103.411532"><ele>873.0935</ele><time>2026-04-03T09:34:49.000Z</time></trkpt>
        <trkpt lat="29.568424" lon="103.411477"><ele>875.1563</ele><time>2026-04-03T09:34:55.000Z</time></trkpt>
        <trkpt lat="29.568435" lon="103.411423"><ele>873.4547</ele><time>2026-04-03T09:35:01.000Z</time></trkpt>
        <trkpt lat="29.568453" lon="103.411368"><ele>874.146</ele><time>2026-04-03T09:35:05.000Z</time></trkpt>
        <trkpt lat="29.568453" lon="103.411305"><ele>873.58246</ele><time>2026-04-03T09:35:09.000Z</time></trkpt>
        <trkpt lat="29.56848" lon="103.411255"><ele>872.8355</ele><time>2026-04-03T09:35:13.000Z</time></trkpt>
        <trkpt lat="29.568513" lon="103.4112"><ele>873.73</ele><time>2026-04-03T09:35:19.000Z</time></trkpt>
        <trkpt lat="29.568524" lon="103.411134"><ele>869.75244</ele><time>2026-04-03T09:35:25.000Z</time></trkpt>
        <trkpt lat="29.568528" lon="103.411081"><ele>868.6707</ele><time>2026-04-03T09:35:31.000Z</time></trkpt>
        <trkpt lat="29.568537" lon="103.411027"><ele>868.7427</ele><time>2026-04-03T09:35:35.000Z</time></trkpt>
        <trkpt lat="29.568559" lon="103.410971"><ele>868.6277</ele><time>2026-04-03T09:35:41.000Z</time></trkpt>
        <trkpt lat="29.568563" lon="103.410916"><ele>868.9079</ele><time>2026-04-03T09:35:45.000Z</time></trkpt>
        <trkpt lat="29.56858" lon="103.410859"><ele>867.2166</ele><time>2026-04-03T09:35:49.000Z</time></trkpt>
        <trkpt lat="29.568585" lon="103.410808"><ele>865.64087</ele><time>2026-04-03T09:35:56.000Z</time></trkpt>
        <trkpt lat="29.568603" lon="103.410754"><ele>863.543</ele><time>2026-04-03T09:36:01.000Z</time></trkpt>
        <trkpt lat="29.568627" lon="103.410706"><ele>864.292</ele><time>2026-04-03T09:36:06.000Z</time></trkpt>
        <trkpt lat="29.56866" lon="103.410655"><ele>865.2541</ele><time>2026-04-03T09:36:11.000Z</time></trkpt>
        <trkpt lat="29.568677" lon="103.410607"><ele>863.13525</ele><time>2026-04-03T09:36:17.000Z</time></trkpt>
        <trkpt lat="29.568689" lon="103.410552"><ele>863.7276</ele><time>2026-04-03T09:36:21.000Z</time></trkpt>
        <trkpt lat="29.568675" lon="103.410492"><ele>862.92377</ele><time>2026-04-03T09:36:25.000Z</time></trkpt>
        <trkpt lat="29.568676" lon="103.410439"><ele>862.92456</ele><time>2026-04-03T09:36:29.000Z</time></trkpt>
        <trkpt lat="29.568662" lon="103.410377"><ele>864.64056</ele><time>2026-04-03T09:36:33.000Z</time></trkpt>
        <trkpt lat="29.568654" lon="103.410315"><ele>864.83344</ele><time>2026-04-03T09:36:36.000Z</time></trkpt>
        <trkpt lat="29.568645" lon="103.410255"><ele>865.6367</ele><time>2026-04-03T09:36:41.000Z</time></trkpt>
        <trkpt lat="29.568653" lon="103.410202"><ele>866.7464</ele><time>2026-04-03T09:36:53.000Z</time></trkpt>
        <trkpt lat="29.568674" lon="103.41014"><ele>866.86084</ele><time>2026-04-03T09:36:57.000Z</time></trkpt>
        <trkpt lat="29.568647" lon="103.410096"><ele>864.91125</ele><time>2026-04-03T09:37:05.000Z</time></trkpt>
        <trkpt lat="29.568615" lon="103.410055"><ele>865.625</ele><time>2026-04-03T09:37:10.000Z</time></trkpt>
        <trkpt lat="29.56857" lon="103.410013"><ele>865.2025</ele><time>2026-04-03T09:37:15.000Z</time></trkpt>
        <trkpt lat="29.568528" lon="103.409976"><ele>863.9505</ele><time>2026-04-03T09:37:19.000Z</time></trkpt>
        <trkpt lat="29.568488" lon="103.409947"><ele>862.36084</ele><time>2026-04-03T09:37:24.000Z</time></trkpt>
        <trkpt lat="29.568436" lon="103.409956"><ele>861.2498</ele><time>2026-04-03T09:37:29.000Z</time></trkpt>
        <trkpt lat="29.568399" lon="103.409924"><ele>860.09485</ele><time>2026-04-03T09:37:34.000Z</time></trkpt>
        <trkpt lat="29.568357" lon="103.409887"><ele>864.1536</ele><time>2026-04-03T09:37:46.000Z</time></trkpt>
        <trkpt lat="29.568331" lon="103.409832"><ele>861.5035</ele><time>2026-04-03T09:37:51.000Z</time></trkpt>
        <trkpt lat="29.568334" lon="103.409776"><ele>860.9982</ele><time>2026-04-03T09:37:58.000Z</time></trkpt>
        <trkpt lat="29.568317" lon="103.409725"><ele>861.701</ele><time>2026-04-03T09:38:04.000Z</time></trkpt>
        <trkpt lat="29.568277" lon="103.40969"><ele>860.92816</ele><time>2026-04-03T09:38:09.000Z</time></trkpt>
        <trkpt lat="29.568269" lon="103.409639"><ele>860.28076</ele><time>2026-04-03T09:38:17.000Z</time></trkpt>
        <trkpt lat="29.568253" lon="103.40959"><ele>857.2311</ele><time>2026-04-03T09:38:26.000Z</time></trkpt>
        <trkpt lat="29.568229" lon="103.40954"><ele>854.13055</ele><time>2026-04-03T09:38:35.000Z</time></trkpt>
        <trkpt lat="29.568213" lon="103.409491"><ele>852.87836</ele><time>2026-04-03T09:38:42.000Z</time></trkpt>
        <trkpt lat="29.568186" lon="103.409447"><ele>852.0095</ele><time>2026-04-03T09:38:52.000Z</time></trkpt>
        <trkpt lat="29.568162" lon="103.409402"><ele>850.3292</ele><time>2026-04-03T09:38:59.000Z</time></trkpt>
        <trkpt lat="29.568148" lon="103.409347"><ele>848.1741</ele><time>2026-04-03T09:39:07.000Z</time></trkpt>
        <trkpt lat="29.568125" lon="103.409298"><ele>847.7384</ele><time>2026-04-03T09:39:21.000Z</time></trkpt>
        <trkpt lat="29.56811" lon="103.409244"><ele>847.72906</ele><time>2026-04-03T09:39:27.000Z</time></trkpt>
        <trkpt lat="29.568086" lon="103.409198"><ele>844.4416</ele><time>2026-04-03T09:39:32.000Z</time></trkpt>
        <trkpt lat="29.568056" lon="103.409159"><ele>842.7089</ele><time>2026-04-03T09:39:36.000Z</time></trkpt>
        <trkpt lat="29.568042" lon="103.409109"><ele>838.30334</ele><time>2026-04-03T09:39:43.000Z</time></trkpt>
        <trkpt lat="29.568019" lon="103.409064"><ele>836.23035</ele><time>2026-04-03T09:39:50.000Z</time></trkpt>
        <trkpt lat="29.567987" lon="103.409021"><ele>831.7391</ele><time>2026-04-03T09:39:59.000Z</time></trkpt>
        <trkpt lat="29.567971" lon="103.408971"><ele>831.03064</ele><time>2026-04-03T09:40:04.000Z</time></trkpt>
        <trkpt lat="29.567942" lon="103.408931"><ele>828.72974</ele><time>2026-04-03T09:40:12.000Z</time></trkpt>
        <trkpt lat="29.567932" lon="103.408875"><ele>827.3231</ele><time>2026-04-03T09:40:25.000Z</time></trkpt>
        <trkpt lat="29.567918" lon="103.40882"><ele>826.1745</ele><time>2026-04-03T09:40:31.000Z</time></trkpt>
        <trkpt lat="29.567958" lon="103.408779"><ele>826.47906</ele><time>2026-04-03T09:41:04.000Z</time></trkpt>
        <trkpt lat="29.567894" lon="103.408676"><ele>822.9004</ele><time>2026-04-03T09:41:14.000Z</time></trkpt>
        <trkpt lat="29.567859" lon="103.408634"><ele>821.96375</ele><time>2026-04-03T09:41:19.000Z</time></trkpt>
        <trkpt lat="29.567829" lon="103.408595"><ele>820.002</ele><time>2026-04-03T09:41:31.000Z</time></trkpt>
        <trkpt lat="29.567799" lon="103.40855"><ele>818.1053</ele><time>2026-04-03T09:41:38.000Z</time></trkpt>
        <trkpt lat="29.567768" lon="103.408511"><ele>816.55194</ele><time>2026-04-03T09:41:44.000Z</time></trkpt>
        <trkpt lat="29.56775" lon="103.408461"><ele>818.3024</ele><time>2026-04-03T09:41:55.000Z</time></trkpt>
        <trkpt lat="29.567708" lon="103.408438"><ele>818.5706</ele><time>2026-04-03T09:42:05.000Z</time></trkpt>
        <trkpt lat="29.567661" lon="103.408443"><ele>817.2942</ele><time>2026-04-03T09:42:12.000Z</time></trkpt>
        <trkpt lat="29.567629" lon="103.408481"><ele>817.31586</ele><time>2026-04-03T09:42:26.000Z</time></trkpt>
        <trkpt lat="29.56762" lon="103.40854"><ele>813.74915</ele><time>2026-04-03T09:42:34.000Z</time></trkpt>
        <trkpt lat="29.567606" lon="103.408591"><ele>812.25366</ele><time>2026-04-03T09:42:38.000Z</time></trkpt>
        <trkpt lat="29.567575" lon="103.408632"><ele>811.3949</ele><time>2026-04-03T09:42:44.000Z</time></trkpt>
        <trkpt lat="29.567529" lon="103.408665"><ele>809.9647</ele><time>2026-04-03T09:42:47.000Z</time></trkpt>
        <trkpt lat="29.567474" lon="103.408671"><ele>809.3062</ele><time>2026-04-03T09:42:52.000Z</time></trkpt>
        <trkpt lat="29.567421" lon="103.408645"><ele>808.57416</ele><time>2026-04-03T09:42:57.000Z</time></trkpt>
        <trkpt lat="29.56737" lon="103.408622"><ele>809.3254</ele><time>2026-04-03T09:43:01.000Z</time></trkpt>
        <trkpt lat="29.567327" lon="103.408603"><ele>809.1978</ele><time>2026-04-03T09:43:05.000Z</time></trkpt>
        <trkpt lat="29.567284" lon="103.40857"><ele>809.92395</ele><time>2026-04-03T09:43:09.000Z</time></trkpt>
        <trkpt lat="29.567243" lon="103.40853"><ele>808.91125</ele><time>2026-04-03T09:43:14.000Z</time></trkpt>
        <trkpt lat="29.567203" lon="103.408505"><ele>807.6295</ele><time>2026-04-03T09:43:18.000Z</time></trkpt>
        <trkpt lat="29.567161" lon="103.408481"><ele>808.44604</ele><time>2026-04-03T09:43:22.000Z</time></trkpt>
        <trkpt lat="29.567114" lon="103.408466"><ele>808.09546</ele><time>2026-04-03T09:43:26.000Z</time></trkpt>
        <trkpt lat="29.567068" lon="103.40848"><ele>808.12103</ele><time>2026-04-03T09:43:31.000Z</time></trkpt>
        <trkpt lat="29.567018" lon="103.408482"><ele>807.6402</ele><time>2026-04-03T09:43:36.000Z</time></trkpt>
        <trkpt lat="29.566963" lon="103.408483"><ele>806.9308</ele><time>2026-04-03T09:43:41.000Z</time></trkpt>
        <trkpt lat="29.56691" lon="103.408485"><ele>806.9147</ele><time>2026-04-03T09:43:46.000Z</time></trkpt>
        <trkpt lat="29.566852" lon="103.408486"><ele>807.2269</ele><time>2026-04-03T09:43:51.000Z</time></trkpt>
        <trkpt lat="29.566807" lon="103.408489"><ele>806.76404</ele><time>2026-04-03T09:43:55.000Z</time></trkpt>
        <trkpt lat="29.566758" lon="103.408485"><ele>806.40155</ele><time>2026-04-03T09:44:00.000Z</time></trkpt>
        <trkpt lat="29.566717" lon="103.408451"><ele>805.1006</ele><time>2026-04-03T09:44:05.000Z</time></trkpt>
        <trkpt lat="29.566691" lon="103.408402"><ele>804.43024</ele><time>2026-04-03T09:44:10.000Z</time></trkpt>
        <trkpt lat="29.566678" lon="103.408349"><ele>806.8936</ele><time>2026-04-03T09:44:14.000Z</time></trkpt>
        <trkpt lat="29.566681" lon="103.408294"><ele>807.37964</ele><time>2026-04-03T09:44:19.000Z</time></trkpt>
        <trkpt lat="29.566695" lon="103.408233"><ele>803.769</ele><time>2026-04-03T09:44:24.000Z</time></trkpt>
        <trkpt lat="29.566695" lon="103.408174"><ele>805.5989</ele><time>2026-04-03T09:44:29.000Z</time></trkpt>
        <trkpt lat="29.566706" lon="103.408121"><ele>802.5781</ele><time>2026-04-03T09:44:34.000Z</time></trkpt>
        <trkpt lat="29.566703" lon="103.408063"><ele>802.5732</ele><time>2026-04-03T09:44:39.000Z</time></trkpt>
        <trkpt lat="29.566679" lon="103.408015"><ele>802.90204</ele><time>2026-04-03T09:44:43.000Z</time></trkpt>
        <trkpt lat="29.566656" lon="103.407968"><ele>804.18835</ele><time>2026-04-03T09:44:46.000Z</time></trkpt>
        <trkpt lat="29.566644" lon="103.407913"><ele>805.3805</ele><time>2026-04-03T09:44:51.000Z</time></trkpt>
        <trkpt lat="29.566685" lon="103.407887"><ele>808.61536</ele><time>2026-04-03T09:45:17.000Z</time></trkpt>
        <trkpt lat="29.566656" lon="103.407842"><ele>807.5374</ele><time>2026-04-03T09:45:22.000Z</time></trkpt>
        <trkpt lat="29.566625" lon="103.407788"><ele>805.6249</ele><time>2026-04-03T09:45:27.000Z</time></trkpt>
        <trkpt lat="29.566615" lon="103.407734"><ele>805.3465</ele><time>2026-04-03T09:45:32.000Z</time></trkpt>
        <trkpt lat="29.566614" lon="103.407676"><ele>805.46045</ele><time>2026-04-03T09:45:37.000Z</time></trkpt>
        <trkpt lat="29.56662" lon="103.40762"><ele>806.06494</ele><time>2026-04-03T09:45:42.000Z</time></trkpt>
        <trkpt lat="29.566594" lon="103.407569"><ele>806.05493</ele><time>2026-04-03T09:45:45.000Z</time></trkpt>
        <trkpt lat="29.566558" lon="103.407524"><ele>807.4204</ele><time>2026-04-03T09:45:49.000Z</time></trkpt>
        <trkpt lat="29.566513" lon="103.407485"><ele>808.266</ele><time>2026-04-03T09:45:54.000Z</time></trkpt>
        <trkpt lat="29.566467" lon="103.407455"><ele>808.3042</ele><time>2026-04-03T09:45:59.000Z</time></trkpt>
        <trkpt lat="29.566418" lon="103.407469"><ele>807.1898</ele><time>2026-04-03T09:46:04.000Z</time></trkpt>
        <trkpt lat="29.566372" lon="103.407492"><ele>809.4489</ele><time>2026-04-03T09:46:10.000Z</time></trkpt>
        <trkpt lat="29.566326" lon="103.40748"><ele>809.0029</ele><time>2026-04-03T09:46:17.000Z</time></trkpt>
        <trkpt lat="29.566373" lon="103.407469"><ele>806.8279</ele><time>2026-04-03T09:46:31.000Z</time></trkpt>
        <trkpt lat="29.566421" lon="103.407447"><ele>806.03174</ele><time>2026-04-03T09:46:36.000Z</time></trkpt>
        <trkpt lat="29.566458" lon="103.407407"><ele>805.831</ele><time>2026-04-03T09:46:41.000Z</time></trkpt>
        <trkpt lat="29.566467" lon="103.407355"><ele>805.4834</ele><time>2026-04-03T09:46:46.000Z</time></trkpt>
        <trkpt lat="29.566444" lon="103.407299"><ele>806.67426</ele><time>2026-04-03T09:46:49.000Z</time></trkpt>
        <trkpt lat="29.566445" lon="103.407237"><ele>808.9135</ele><time>2026-04-03T09:46:53.000Z</time></trkpt>
        <trkpt lat="29.566428" lon="103.407186"><ele>808.46515</ele><time>2026-04-03T09:46:57.000Z</time></trkpt>
        <trkpt lat="29.566422" lon="103.407134"><ele>808.86835</ele><time>2026-04-03T09:47:01.000Z</time></trkpt>
        <trkpt lat="29.566417" lon="103.407074"><ele>806.93317</ele><time>2026-04-03T09:47:06.000Z</time></trkpt>
        <trkpt lat="29.566429" lon="103.407014"><ele>806.7287</ele><time>2026-04-03T09:47:11.000Z</time></trkpt>
        <trkpt lat="29.566415" lon="103.406961"><ele>807.084</ele><time>2026-04-03T09:47:15.000Z</time></trkpt>
        <trkpt lat="29.566434" lon="103.406913"><ele>805.1275</ele><time>2026-04-03T09:47:19.000Z</time></trkpt>
        <trkpt lat="29.566458" lon="103.406861"><ele>807.01337</ele><time>2026-04-03T09:47:23.000Z</time></trkpt>
        <trkpt lat="29.566484" lon="103.406807"><ele>806.9276</ele><time>2026-04-03T09:47:28.000Z</time></trkpt>
        <trkpt lat="29.566526" lon="103.406763"><ele>806.1901</ele><time>2026-04-03T09:47:34.000Z</time></trkpt>
        <trkpt lat="29.566566" lon="103.406734"><ele>806.3212</ele><time>2026-04-03T09:47:38.000Z</time></trkpt>
        <trkpt lat="29.566603" lon="103.406701"><ele>805.6276</ele><time>2026-04-03T09:47:43.000Z</time></trkpt>
        <trkpt lat="29.566627" lon="103.406648"><ele>804.01636</ele><time>2026-04-03T09:47:48.000Z</time></trkpt>
        <trkpt lat="29.566649" lon="103.406597"><ele>804.1827</ele><time>2026-04-03T09:47:51.000Z</time></trkpt>
        <trkpt lat="29.566697" lon="103.406582"><ele>804.698</ele><time>2026-04-03T09:47:57.000Z</time></trkpt>
        <trkpt lat="29.566731" lon="103.406543"><ele>803.347</ele><time>2026-04-03T09:48:01.000Z</time></trkpt>
        <trkpt lat="29.566757" lon="103.406491"><ele>802.3854</ele><time>2026-04-03T09:48:05.000Z</time></trkpt>
        <trkpt lat="29.566788" lon="103.406444"><ele>803.12274</ele><time>2026-04-03T09:48:09.000Z</time></trkpt>
        <trkpt lat="29.566822" lon="103.406393"><ele>802.9318</ele><time>2026-04-03T09:48:15.000Z</time></trkpt>
        <trkpt lat="29.56686" lon="103.406363"><ele>800.7172</ele><time>2026-04-03T09:48:20.000Z</time></trkpt>
        <trkpt lat="29.566901" lon="103.40632"><ele>797.6829</ele><time>2026-04-03T09:48:25.000Z</time></trkpt>
        <trkpt lat="29.56693" lon="103.406268"><ele>796.66614</ele><time>2026-04-03T09:48:32.000Z</time></trkpt>
        <trkpt lat="29.566954" lon="103.406223"><ele>797.2425</ele><time>2026-04-03T09:48:36.000Z</time></trkpt>
        <trkpt lat="29.56699" lon="103.406168"><ele>797.9976</ele><time>2026-04-03T09:48:42.000Z</time></trkpt>
        <trkpt lat="29.567024" lon="103.40613"><ele>798.2676</ele><time>2026-04-03T09:48:46.000Z</time></trkpt>
        <trkpt lat="29.567046" lon="103.406079"><ele>797.6097</ele><time>2026-04-03T09:48:50.000Z</time></trkpt>
        <trkpt lat="29.567086" lon="103.406037"><ele>798.26886</ele><time>2026-04-03T09:48:54.000Z</time></trkpt>
        <trkpt lat="29.567128" lon="103.405991"><ele>799.268</ele><time>2026-04-03T09:48:58.000Z</time></trkpt>
        <trkpt lat="29.567139" lon="103.40594"><ele>798.3956</ele><time>2026-04-03T09:49:01.000Z</time></trkpt>
        <trkpt lat="29.567141" lon="103.405874"><ele>799.17535</ele><time>2026-04-03T09:49:05.000Z</time></trkpt>
        <trkpt lat="29.56713" lon="103.405804"><ele>797.0913</ele><time>2026-04-03T09:49:09.000Z</time></trkpt>
        <trkpt lat="29.567101" lon="103.405757"><ele>795.0589</ele><time>2026-04-03T09:49:13.000Z</time></trkpt>
        <trkpt lat="29.56706" lon="103.405734"><ele>794.9109</ele><time>2026-04-03T09:49:17.000Z</time></trkpt>
        <trkpt lat="29.567028" lon="103.405694"><ele>793.8674</ele><time>2026-04-03T09:49:21.000Z</time></trkpt>
        <trkpt lat="29.567001" lon="103.405646"><ele>793.25397</ele><time>2026-04-03T09:49:26.000Z</time></trkpt>
        <trkpt lat="29.566987" lon="103.405595"><ele>791.6527</ele><time>2026-04-03T09:49:30.000Z</time></trkpt>
        <trkpt lat="29.566949" lon="103.405548"><ele>792.3099</ele><time>2026-04-03T09:49:34.000Z</time></trkpt>
        <trkpt lat="29.56691" lon="103.405511"><ele>792.3561</ele><time>2026-04-03T09:49:40.000Z</time></trkpt>
        <trkpt lat="29.566869" lon="103.405465"><ele>791.5047</ele><time>2026-04-03T09:49:44.000Z</time></trkpt>
        <trkpt lat="29.566826" lon="103.405419"><ele>793.1212</ele><time>2026-04-03T09:49:48.000Z</time></trkpt>
        <trkpt lat="29.566805" lon="103.405373"><ele>791.74835</ele><time>2026-04-03T09:49:53.000Z</time></trkpt>
        <trkpt lat="29.566787" lon="103.405324"><ele>792.2254</ele><time>2026-04-03T09:49:59.000Z</time></trkpt>
        <trkpt lat="29.566767" lon="103.405271"><ele>792.2264</ele><time>2026-04-03T09:50:03.000Z</time></trkpt>
        <trkpt lat="29.566756" lon="103.405219"><ele>791.12897</ele><time>2026-04-03T09:50:06.000Z</time></trkpt>
        <trkpt lat="29.566772" lon="103.405167"><ele>791.307</ele><time>2026-04-03T09:50:10.000Z</time></trkpt>
        <trkpt lat="29.566804" lon="103.40513"><ele>790.03894</ele><time>2026-04-03T09:50:15.000Z</time></trkpt>
        <trkpt lat="29.566851" lon="103.40514"><ele>791.53296</ele><time>2026-04-03T09:50:20.000Z</time></trkpt>
        <trkpt lat="29.566898" lon="103.405123"><ele>791.04266</ele><time>2026-04-03T09:50:24.000Z</time></trkpt>
        <trkpt lat="29.566952" lon="103.405116"><ele>792.9869</ele><time>2026-04-03T09:50:28.000Z</time></trkpt>
        <trkpt lat="29.567004" lon="103.405121"><ele>795.5195</ele><time>2026-04-03T09:50:33.000Z</time></trkpt>
        <trkpt lat="29.567055" lon="103.405111"><ele>795.8205</ele><time>2026-04-03T09:50:39.000Z</time></trkpt>
        <trkpt lat="29.5671" lon="103.405088"><ele>793.56604</ele><time>2026-04-03T09:50:42.000Z</time></trkpt>
        <trkpt lat="29.567145" lon="103.405069"><ele>794.2736</ele><time>2026-04-03T09:50:46.000Z</time></trkpt>
        <trkpt lat="29.567191" lon="103.405054"><ele>792.57275</ele><time>2026-04-03T09:50:50.000Z</time></trkpt>
        <trkpt lat="29.56724" lon="103.40506"><ele>794.0882</ele><time>2026-04-03T09:50:55.000Z</time></trkpt>
        <trkpt lat="29.567292" lon="103.405044"><ele>795.66864</ele><time>2026-04-03T09:50:59.000Z</time></trkpt>
        <trkpt lat="29.567342" lon="103.40504"><ele>795.3519</ele><time>2026-04-03T09:51:03.000Z</time></trkpt>
        <trkpt lat="29.567396" lon="103.405031"><ele>795.6098</ele><time>2026-04-03T09:51:07.000Z</time></trkpt>
        <trkpt lat="29.567442" lon="103.405027"><ele>796.00287</ele><time>2026-04-03T09:51:11.000Z</time></trkpt>
        <trkpt lat="29.567497" lon="103.405033"><ele>796.09467</ele><time>2026-04-03T09:51:15.000Z</time></trkpt>
        <trkpt lat="29.567551" lon="103.40504"><ele>796.9044</ele><time>2026-04-03T09:51:19.000Z</time></trkpt>
        <trkpt lat="29.567599" lon="103.405054"><ele>796.78937</ele><time>2026-04-03T09:51:22.000Z</time></trkpt>
        <trkpt lat="29.567661" lon="103.40506"><ele>796.6833</ele><time>2026-04-03T09:51:27.000Z</time></trkpt>
        <trkpt lat="29.567714" lon="103.405066"><ele>796.8425</ele><time>2026-04-03T09:51:32.000Z</time></trkpt>
        <trkpt lat="29.567761" lon="103.405076"><ele>796.2339</ele><time>2026-04-03T09:51:36.000Z</time></trkpt>
        <trkpt lat="29.567816" lon="103.405077"><ele>795.6319</ele><time>2026-04-03T09:51:41.000Z</time></trkpt>
        <trkpt lat="29.567862" lon="103.405059"><ele>793.7839</ele><time>2026-04-03T09:51:45.000Z</time></trkpt>
        <trkpt lat="29.567914" lon="103.405034"><ele>791.45966</ele><time>2026-04-03T09:51:50.000Z</time></trkpt>
        <trkpt lat="29.56795" lon="103.404993"><ele>792.03705</ele><time>2026-04-03T09:51:54.000Z</time></trkpt>
        <trkpt lat="29.567995" lon="103.404956"><ele>792.1734</ele><time>2026-04-03T09:51:59.000Z</time></trkpt>
        <trkpt lat="29.568035" lon="103.404909"><ele>792.06116</ele><time>2026-04-03T09:52:04.000Z</time></trkpt>
        <trkpt lat="29.568068" lon="103.40487"><ele>793.3856</ele><time>2026-04-03T09:52:08.000Z</time></trkpt>
        <trkpt lat="29.56812" lon="103.404849"><ele>793.04047</ele><time>2026-04-03T09:52:12.000Z</time></trkpt>
        <trkpt lat="29.568163" lon="103.40483"><ele>793.42004</ele><time>2026-04-03T09:52:15.000Z</time></trkpt>
        <trkpt lat="29.568217" lon="103.40482"><ele>791.84674</ele><time>2026-04-03T09:52:20.000Z</time></trkpt>
        <trkpt lat="29.568257" lon="103.404787"><ele>791.652</ele><time>2026-04-03T09:52:24.000Z</time></trkpt>
        <trkpt lat="29.568294" lon="103.404746"><ele>790.9922</ele><time>2026-04-03T09:52:28.000Z</time></trkpt>
        <trkpt lat="29.568325" lon="103.404701"><ele>791.6684</ele><time>2026-04-03T09:52:33.000Z</time></trkpt>
        <trkpt lat="29.568352" lon="103.404654"><ele>791.11035</ele><time>2026-04-03T09:52:38.000Z</time></trkpt>
        <trkpt lat="29.568385" lon="103.404598"><ele>790.56915</ele><time>2026-04-03T09:52:44.000Z</time></trkpt>
        <trkpt lat="29.568414" lon="103.404548"><ele>787.4799</ele><time>2026-04-03T09:52:48.000Z</time></trkpt>
        <trkpt lat="29.568445" lon="103.404494"><ele>786.0629</ele><time>2026-04-03T09:52:52.000Z</time></trkpt>
        <trkpt lat="29.568469" lon="103.404445"><ele>784.677</ele><time>2026-04-03T09:52:56.000Z</time></trkpt>
        <trkpt lat="29.568487" lon="103.404389"><ele>783.16016</ele><time>2026-04-03T09:53:01.000Z</time></trkpt>
        <trkpt lat="29.568506" lon="103.404335"><ele>783.3698</ele><time>2026-04-03T09:53:06.000Z</time></trkpt>
        <trkpt lat="29.568534" lon="103.404292"><ele>784.2912</ele><time>2026-04-03T09:53:10.000Z</time></trkpt>
        <trkpt lat="29.568564" lon="103.40423"><ele>783.362</ele><time>2026-04-03T09:53:14.000Z</time></trkpt>
        <trkpt lat="29.568595" lon="103.404179"><ele>781.76404</ele><time>2026-04-03T09:53:19.000Z</time></trkpt>
        <trkpt lat="29.568626" lon="103.404134"><ele>782.66486</ele><time>2026-04-03T09:53:23.000Z</time></trkpt>
        <trkpt lat="29.568659" lon="103.404097"><ele>783.7549</ele><time>2026-04-03T09:53:26.000Z</time></trkpt>
        <trkpt lat="29.568694" lon="103.404057"><ele>783.74365</ele><time>2026-04-03T09:53:30.000Z</time></trkpt>
        <trkpt lat="29.568723" lon="103.404008"><ele>783.69885</ele><time>2026-04-03T09:53:34.000Z</time></trkpt>
        <trkpt lat="29.568751" lon="103.403961"><ele>784.4867</ele><time>2026-04-03T09:53:40.000Z</time></trkpt>
        <trkpt lat="29.568792" lon="103.403926"><ele>784.63196</ele><time>2026-04-03T09:53:44.000Z</time></trkpt>
        <trkpt lat="29.568842" lon="103.40391"><ele>785.5188</ele><time>2026-04-03T09:53:48.000Z</time></trkpt>
        <trkpt lat="29.568898" lon="103.403938"><ele>789.7855</ele><time>2026-04-03T09:53:52.000Z</time></trkpt>
        <trkpt lat="29.568947" lon="103.403943"><ele>789.43994</ele><time>2026-04-03T09:53:56.000Z</time></trkpt>
        <trkpt lat="29.568897" lon="103.403945"><ele>787.6497</ele><time>2026-04-03T09:54:05.000Z</time></trkpt>
        <trkpt lat="29.568958" lon="103.403957"><ele>787.49066</ele><time>2026-04-03T09:54:35.000Z</time></trkpt>
        <trkpt lat="29.569004" lon="103.403958"><ele>787.4986</ele><time>2026-04-03T09:54:38.000Z</time></trkpt>
        <trkpt lat="29.569056" lon="103.40396"><ele>786.34717</ele><time>2026-04-03T09:54:42.000Z</time></trkpt>
        <trkpt lat="29.569102" lon="103.403953"><ele>787.14935</ele><time>2026-04-03T09:54:46.000Z</time></trkpt>
        <trkpt lat="29.569147" lon="103.403924"><ele>785.67377</ele><time>2026-04-03T09:54:51.000Z</time></trkpt>
        <trkpt lat="29.56919" lon="103.403899"><ele>784.6886</ele><time>2026-04-03T09:54:55.000Z</time></trkpt>
        <trkpt lat="29.569234" lon="103.403875"><ele>785.19324</ele><time>2026-04-03T09:55:01.000Z</time></trkpt>
        <trkpt lat="29.569283" lon="103.403851"><ele>784.99164</ele><time>2026-04-03T09:55:06.000Z</time></trkpt>
        <trkpt lat="29.569328" lon="103.403822"><ele>783.0022</ele><time>2026-04-03T09:55:10.000Z</time></trkpt>
        <trkpt lat="29.569372" lon="103.403795"><ele>782.0504</ele><time>2026-04-03T09:55:15.000Z</time></trkpt>
        <trkpt lat="29.569415" lon="103.403772"><ele>781.3381</ele><time>2026-04-03T09:55:20.000Z</time></trkpt>
        <trkpt lat="29.56946" lon="103.403743"><ele>779.379</ele><time>2026-04-03T09:55:25.000Z</time></trkpt>
        <trkpt lat="29.569507" lon="103.403708"><ele>779.06555</ele><time>2026-04-03T09:55:29.000Z</time></trkpt>
        <trkpt lat="29.56954" lon="103.403668"><ele>778.3862</ele><time>2026-04-03T09:55:33.000Z</time></trkpt>
        <trkpt lat="29.569575" lon="103.403631"><ele>778.26843</ele><time>2026-04-03T09:55:37.000Z</time></trkpt>
        <trkpt lat="29.569617" lon="103.403604"><ele>778.5045</ele><time>2026-04-03T09:55:41.000Z</time></trkpt>
        <trkpt lat="29.569657" lon="103.403565"><ele>778.5289</ele><time>2026-04-03T09:55:46.000Z</time></trkpt>
        <trkpt lat="29.569695" lon="103.403514"><ele>776.5541</ele><time>2026-04-03T09:55:51.000Z</time></trkpt>
        <trkpt lat="29.569739" lon="103.403468"><ele>776.2929</ele><time>2026-04-03T09:55:55.000Z</time></trkpt>
        <trkpt lat="29.569776" lon="103.403412"><ele>775.6387</ele><time>2026-04-03T09:56:00.000Z</time></trkpt>
        <trkpt lat="29.569799" lon="103.403354"><ele>773.79456</ele><time>2026-04-03T09:56:05.000Z</time></trkpt>
        <trkpt lat="29.569831" lon="103.403299"><ele>772.8002</ele><time>2026-04-03T09:56:10.000Z</time></trkpt>
        <trkpt lat="29.569867" lon="103.403263"><ele>772.66974</ele><time>2026-04-03T09:56:14.000Z</time></trkpt>
        <trkpt lat="29.569901" lon="103.403227"><ele>773.1094</ele><time>2026-04-03T09:56:18.000Z</time></trkpt>
        <trkpt lat="29.569933" lon="103.403187"><ele>773.23486</ele><time>2026-04-03T09:56:22.000Z</time></trkpt>
        <trkpt lat="29.56996" lon="103.403144"><ele>772.32623</ele><time>2026-04-03T09:56:26.000Z</time></trkpt>
        <trkpt lat="29.56998" lon="103.403093"><ele>770.65686</ele><time>2026-04-03T09:56:30.000Z</time></trkpt>
        <trkpt lat="29.569991" lon="103.40303"><ele>771.4841</ele><time>2026-04-03T09:56:35.000Z</time></trkpt>
        <trkpt lat="29.569999" lon="103.402975"><ele>774.8655</ele><time>2026-04-03T09:56:39.000Z</time></trkpt>
        <trkpt lat="29.570034" lon="103.402933"><ele>773.4265</ele><time>2026-04-03T09:56:43.000Z</time></trkpt>
        <trkpt lat="29.570073" lon="103.4029"><ele>772.3988</ele><time>2026-04-03T09:56:47.000Z</time></trkpt>
        <trkpt lat="29.570118" lon="103.40285"><ele>774.4112</ele><time>2026-04-03T09:56:51.000Z</time></trkpt>
        <trkpt lat="29.570174" lon="103.402835"><ele>776.77765</ele><time>2026-04-03T09:56:56.000Z</time></trkpt>
        <trkpt lat="29.570224" lon="103.402819"><ele>776.35754</ele><time>2026-04-03T09:57:00.000Z</time></trkpt>
        <trkpt lat="29.570273" lon="103.402817"><ele>777.8921</ele><time>2026-04-03T09:57:03.000Z</time></trkpt>
        <trkpt lat="29.570323" lon="103.402811"><ele>778.0015</ele><time>2026-04-03T09:57:06.000Z</time></trkpt>
        <trkpt lat="29.570372" lon="103.402814"><ele>774.95197</ele><time>2026-04-03T09:57:11.000Z</time></trkpt>
        <trkpt lat="29.570424" lon="103.402798"><ele>774.8286</ele><time>2026-04-03T09:57:15.000Z</time></trkpt>
        <trkpt lat="29.570478" lon="103.402789"><ele>773.0854</ele><time>2026-04-03T09:57:19.000Z</time></trkpt>
        <trkpt lat="29.570526" lon="103.402778"><ele>773.65405</ele><time>2026-04-03T09:57:24.000Z</time></trkpt>
        <trkpt lat="29.570571" lon="103.402776"><ele>772.3394</ele><time>2026-04-03T09:57:27.000Z</time></trkpt>
        <trkpt lat="29.570625" lon="103.402777"><ele>772.30853</ele><time>2026-04-03T09:57:33.000Z</time></trkpt>
        <trkpt lat="29.570673" lon="103.402767"><ele>770.57184</ele><time>2026-04-03T09:57:37.000Z</time></trkpt>
        <trkpt lat="29.570668" lon="103.402715"><ele>768.3033</ele><time>2026-04-03T09:57:41.000Z</time></trkpt>
        <trkpt lat="29.570733" lon="103.402686"><ele>766.604</ele><time>2026-04-03T09:57:45.000Z</time></trkpt>
        <trkpt lat="29.570782" lon="103.402676"><ele>764.3823</ele><time>2026-04-03T09:57:50.000Z</time></trkpt>
        <trkpt lat="29.570833" lon="103.402669"><ele>766.0972</ele><time>2026-04-03T09:57:56.000Z</time></trkpt>
        <trkpt lat="29.570881" lon="103.402639"><ele>765.3077</ele><time>2026-04-03T09:58:00.000Z</time></trkpt>
        <trkpt lat="29.570936" lon="103.402616"><ele>767.4667</ele><time>2026-04-03T09:58:04.000Z</time></trkpt>
        <trkpt lat="29.570978" lon="103.402578"><ele>767.056</ele><time>2026-04-03T09:58:09.000Z</time></trkpt>
        <trkpt lat="29.571024" lon="103.402575"><ele>762.58203</ele><time>2026-04-03T09:58:33.000Z</time></trkpt>
        <trkpt lat="29.571068" lon="103.402535"><ele>762.7493</ele><time>2026-04-03T09:58:38.000Z</time></trkpt>
        <trkpt lat="29.571105" lon="103.402505"><ele>763.5034</ele><time>2026-04-03T09:58:41.000Z</time></trkpt>
        <trkpt lat="29.571138" lon="103.402467"><ele>762.2123</ele><time>2026-04-03T09:58:45.000Z</time></trkpt>
        <trkpt lat="29.571172" lon="103.402431"><ele>760.8662</ele><time>2026-04-03T09:58:49.000Z</time></trkpt>
        <trkpt lat="29.571196" lon="103.402387"><ele>760.4922</ele><time>2026-04-03T09:58:53.000Z</time></trkpt>
        <trkpt lat="29.571219" lon="103.402327"><ele>760.8384</ele><time>2026-04-03T09:58:59.000Z</time></trkpt>
        <trkpt lat="29.571246" lon="103.402282"><ele>759.587</ele><time>2026-04-03T09:59:02.000Z</time></trkpt>
        <trkpt lat="29.571269" lon="103.402234"><ele>758.6957</ele><time>2026-04-03T09:59:06.000Z</time></trkpt>
        <trkpt lat="29.571301" lon="103.402177"><ele>759.80066</ele><time>2026-04-03T09:59:10.000Z</time></trkpt>
        <trkpt lat="29.571344" lon="103.402134"><ele>759.8111</ele><time>2026-04-03T09:59:14.000Z</time></trkpt>
        <trkpt lat="29.571378" lon="103.402086"><ele>758.53204</ele><time>2026-04-03T09:59:19.000Z</time></trkpt>
        <trkpt lat="29.571409" lon="103.402044"><ele>759.50635</ele><time>2026-04-03T09:59:22.000Z</time></trkpt>
        <trkpt lat="29.571449" lon="103.401995"><ele>761.56635</ele><time>2026-04-03T09:59:27.000Z</time></trkpt>
        <trkpt lat="29.571493" lon="103.401954"><ele>761.3114</ele><time>2026-04-03T09:59:31.000Z</time></trkpt>
        <trkpt lat="29.571533" lon="103.401918"><ele>762.04694</ele><time>2026-04-03T09:59:36.000Z</time></trkpt>
        <trkpt lat="29.571576" lon="103.401891"><ele>763.18567</ele><time>2026-04-03T09:59:40.000Z</time></trkpt>
        <trkpt lat="29.571634" lon="103.401892"><ele>765.0236</ele><time>2026-04-03T09:59:44.000Z</time></trkpt>
        <trkpt lat="29.571688" lon="103.401893"><ele>764.3347</ele><time>2026-04-03T09:59:48.000Z</time></trkpt>
        <trkpt lat="29.571739" lon="103.401886"><ele>761.99164</ele><time>2026-04-03T09:59:53.000Z</time></trkpt>
        <trkpt lat="29.571795" lon="103.401872"><ele>761.1962</ele><time>2026-04-03T09:59:58.000Z</time></trkpt>
        <trkpt lat="29.57184" lon="103.401847"><ele>761.88324</ele><time>2026-04-03T10:00:02.000Z</time></trkpt>
        <trkpt lat="29.571887" lon="103.401826"><ele>761.2462</ele><time>2026-04-03T10:00:07.000Z</time></trkpt>
        <trkpt lat="29.571933" lon="103.401802"><ele>759.9786</ele><time>2026-04-03T10:00:11.000Z</time></trkpt>
        <trkpt lat="29.571969" lon="103.401766"><ele>757.62683</ele><time>2026-04-03T10:00:15.000Z</time></trkpt>
        <trkpt lat="29.571995" lon="103.401719"><ele>755.34186</ele><time>2026-04-03T10:00:19.000Z</time></trkpt>
        <trkpt lat="29.572033" lon="103.401685"><ele>755.33496</ele><time>2026-04-03T10:00:23.000Z</time></trkpt>
        <trkpt lat="29.572065" lon="103.40165"><ele>755.7107</ele><time>2026-04-03T10:00:26.000Z</time></trkpt>
        <trkpt lat="29.57209" lon="103.401606"><ele>755.38513</ele><time>2026-04-03T10:00:31.000Z</time></trkpt>
        <trkpt lat="29.572052" lon="103.401574"><ele>754.422</ele><time>2026-04-03T10:00:39.000Z</time></trkpt>
        <trkpt lat="29.572063" lon="103.401523"><ele>755.4142</ele><time>2026-04-03T10:00:46.000Z</time></trkpt>
        <trkpt lat="29.572042" lon="103.401477"><ele>758.14825</ele><time>2026-04-03T10:00:55.000Z</time></trkpt>
        <trkpt lat="29.572011" lon="103.401433"><ele>761.2354</ele><time>2026-04-03T10:01:01.000Z</time></trkpt>
        <trkpt lat="29.572" lon="103.401379"><ele>761.0158</ele><time>2026-04-03T10:01:08.000Z</time></trkpt>
        <trkpt lat="29.571995" lon="103.401319"><ele>760.9695</ele><time>2026-04-03T10:01:13.000Z</time></trkpt>
        <trkpt lat="29.571983" lon="103.401263"><ele>761.4314</ele><time>2026-04-03T10:01:22.000Z</time></trkpt>
        <trkpt lat="29.571971" lon="103.401208"><ele>767.2277</ele><time>2026-04-03T10:01:34.000Z</time></trkpt>
        <trkpt lat="29.572008" lon="103.40116"><ele>769.35205</ele><time>2026-04-03T10:01:37.000Z</time></trkpt>
        <trkpt lat="29.572036" lon="103.401217"><ele>771.9522</ele><time>2026-04-03T10:01:45.000Z</time></trkpt>
        <trkpt lat="29.572001" lon="103.401255"><ele>766.64496</ele><time>2026-04-03T10:01:59.000Z</time></trkpt>
        <trkpt lat="29.571979" lon="103.401203"><ele>765.48566</ele><time>2026-04-03T10:04:01.000Z</time></trkpt>
        <trkpt lat="29.571927" lon="103.401249"><ele>772.0368</ele><time>2026-04-03T10:04:14.000Z</time></trkpt>
        <trkpt lat="29.571859" lon="103.401287"><ele>774.3038</ele><time>2026-04-03T10:04:19.000Z</time></trkpt>
        <trkpt lat="29.571821" lon="103.401325"><ele>775.2706</ele><time>2026-04-03T10:04:22.000Z</time></trkpt>
        <trkpt lat="29.571896" lon="103.40128"><ele>776.57654</ele><time>2026-04-03T10:04:28.000Z</time></trkpt>
        <trkpt lat="29.571898" lon="103.401264"><ele>786.1443</ele><time>2026-04-03T10:04:46.000Z</time></trkpt>
        <trkpt lat="29.572006" lon="103.401091"><ele>779.37445</ele><time>2026-04-03T10:04:49.000Z</time></trkpt>
        <trkpt lat="29.57197" lon="103.40105"><ele>779.3501</ele><time>2026-04-03T10:04:50.000Z</time></trkpt>
        <trkpt lat="29.571928" lon="103.401021"><ele>780.03796</ele><time>2026-04-03T10:04:51.000Z</time></trkpt>
        <trkpt lat="29.571972" lon="103.401037"><ele>782.651</ele><time>2026-04-03T10:04:53.000Z</time></trkpt>
        <trkpt lat="29.571954" lon="103.400982"><ele>777.0234</ele><time>2026-04-03T10:04:58.000Z</time></trkpt>
        <trkpt lat="29.571928" lon="103.400937"><ele>779.08484</ele><time>2026-04-03T10:05:05.000Z</time></trkpt>
        <trkpt lat="29.571918" lon="103.400883"><ele>780.3668</ele><time>2026-04-03T10:05:12.000Z</time></trkpt>
        <trkpt lat="29.571908" lon="103.40083"><ele>779.54645</ele><time>2026-04-03T10:05:19.000Z</time></trkpt>
        <trkpt lat="29.571903" lon="103.400778"><ele>781.8618</ele><time>2026-04-03T10:05:29.000Z</time></trkpt>
        <trkpt lat="29.571896" lon="103.400724"><ele>784.0114</ele><time>2026-04-03T10:05:39.000Z</time></trkpt>
        <trkpt lat="29.571867" lon="103.400679"><ele>785.41406</ele><time>2026-04-03T10:05:51.000Z</time></trkpt>
        <trkpt lat="29.571863" lon="103.400624"><ele>788.88153</ele><time>2026-04-03T10:06:06.000Z</time></trkpt>
        <trkpt lat="29.571859" lon="103.40057"><ele>790.2013</ele><time>2026-04-03T10:06:15.000Z</time></trkpt>
        <trkpt lat="29.571854" lon="103.400518"><ele>790.66974</ele><time>2026-04-03T10:06:25.000Z</time></trkpt>
        <trkpt lat="29.571844" lon="103.400461"><ele>792.3496</ele><time>2026-04-03T10:06:40.000Z</time></trkpt>
        <trkpt lat="29.571851" lon="103.400404"><ele>794.34625</ele><time>2026-04-03T10:06:49.000Z</time></trkpt>
        <trkpt lat="29.57186" lon="103.40035"><ele>798.9021</ele><time>2026-04-03T10:07:01.000Z</time></trkpt>
        <trkpt lat="29.571863" lon="103.400296"><ele>804.6483</ele><time>2026-04-03T10:07:12.000Z</time></trkpt>
        <trkpt lat="29.57183" lon="103.400253"><ele>804.1822</ele><time>2026-04-03T10:07:20.000Z</time></trkpt>
        <trkpt lat="29.571817" lon="103.400202"><ele>805.2237</ele><time>2026-04-03T10:07:26.000Z</time></trkpt>
        <trkpt lat="29.571833" lon="103.400145"><ele>809.5759</ele><time>2026-04-03T10:07:39.000Z</time></trkpt>
        <trkpt lat="29.571851" lon="103.400089"><ele>814.01636</ele><time>2026-04-03T10:07:52.000Z</time></trkpt>
        <trkpt lat="29.571846" lon="103.400029"><ele>818.4688</ele><time>2026-04-03T10:08:03.000Z</time></trkpt>
        <trkpt lat="29.571825" lon="103.399977"><ele>819.995</ele><time>2026-04-03T10:08:09.000Z</time></trkpt>
        <trkpt lat="29.571838" lon="103.399924"><ele>820.9201</ele><time>2026-04-03T10:08:19.000Z</time></trkpt>
        <trkpt lat="29.571847" lon="103.399873"><ele>821.8725</ele><time>2026-04-03T10:08:25.000Z</time></trkpt>
        <trkpt lat="29.571849" lon="103.39981"><ele>822.65845</ele><time>2026-04-03T10:08:38.000Z</time></trkpt>
        <trkpt lat="29.571853" lon="103.399754"><ele>823.1007</ele><time>2026-04-03T10:08:43.000Z</time></trkpt>
        <trkpt lat="29.571864" lon="103.3997"><ele>826.7012</ele><time>2026-04-03T10:09:09.000Z</time></trkpt>
        <trkpt lat="29.571864" lon="103.399646"><ele>828.17535</ele><time>2026-04-03T10:09:17.000Z</time></trkpt>
        <trkpt lat="29.571857" lon="103.399576"><ele>831.226</ele><time>2026-04-03T10:09:25.000Z</time></trkpt>
        <trkpt lat="29.571837" lon="103.399513"><ele>831.6162</ele><time>2026-04-03T10:09:30.000Z</time></trkpt>
        <trkpt lat="29.571827" lon="103.399461"><ele>830.4335</ele><time>2026-04-03T10:09:34.000Z</time></trkpt>
        <trkpt lat="29.571818" lon="103.399407"><ele>828.53735</ele><time>2026-04-03T10:09:39.000Z</time></trkpt>
        <trkpt lat="29.571804" lon="103.399349"><ele>829.7435</ele><time>2026-04-03T10:09:45.000Z</time></trkpt>
        <trkpt lat="29.571799" lon="103.399297"><ele>832.4813</ele><time>2026-04-03T10:09:56.000Z</time></trkpt>
        <trkpt lat="29.571762" lon="103.399259"><ele>834.0036</ele><time>2026-04-03T10:10:04.000Z</time></trkpt>
        <trkpt lat="29.571723" lon="103.399222"><ele>833.59784</ele><time>2026-04-03T10:10:11.000Z</time></trkpt>
        <trkpt lat="29.571706" lon="103.39917"><ele>834.8144</ele><time>2026-04-03T10:10:23.000Z</time></trkpt>
        <trkpt lat="29.571696" lon="103.399111"><ele>837.48224</ele><time>2026-04-03T10:10:28.000Z</time></trkpt>
        <trkpt lat="29.571669" lon="103.399067"><ele>838.4859</ele><time>2026-04-03T10:10:33.000Z</time></trkpt>
        <trkpt lat="29.571646" lon="103.399018"><ele>843.14056</ele><time>2026-04-03T10:10:48.000Z</time></trkpt>
        <trkpt lat="29.571632" lon="103.398968"><ele>842.311</ele><time>2026-04-03T10:10:52.000Z</time></trkpt>
        <trkpt lat="29.571617" lon="103.398918"><ele>841.09875</ele><time>2026-04-03T10:11:06.000Z</time></trkpt>
        <trkpt lat="29.571615" lon="103.398865"><ele>840.4419</ele><time>2026-04-03T10:11:39.000Z</time></trkpt>
        <trkpt lat="29.571652" lon="103.398833"><ele>837.599</ele><time>2026-04-03T10:11:52.000Z</time></trkpt>
        <trkpt lat="29.571616" lon="103.39887"><ele>838.2804</ele><time>2026-04-03T10:12:14.000Z</time></trkpt>
        <trkpt lat="29.571596" lon="103.398805"><ele>837.9686</ele><time>2026-04-03T10:12:31.000Z</time></trkpt>
        <trkpt lat="29.571605" lon="103.398754"><ele>838.2473</ele><time>2026-04-03T10:12:35.000Z</time></trkpt>
        <trkpt lat="29.571608" lon="103.398694"><ele>837.5904</ele><time>2026-04-03T10:12:39.000Z</time></trkpt>
        <trkpt lat="29.571609" lon="103.398637"><ele>837.4154</ele><time>2026-04-03T10:12:44.000Z</time></trkpt>
        <trkpt lat="29.571611" lon="103.39858"><ele>835.7694</ele><time>2026-04-03T10:12:56.000Z</time></trkpt>
        <trkpt lat="29.571589" lon="103.398527"><ele>837.1781</ele><time>2026-04-03T10:13:06.000Z</time></trkpt>
        <trkpt lat="29.571555" lon="103.398487"><ele>836.2996</ele><time>2026-04-03T10:13:13.000Z</time></trkpt>
        <trkpt lat="29.571549" lon="103.398427"><ele>836.3969</ele><time>2026-04-03T10:13:19.000Z</time></trkpt>
        <trkpt lat="29.571553" lon="103.398372"><ele>833.1375</ele><time>2026-04-03T10:13:27.000Z</time></trkpt>
        <trkpt lat="29.571553" lon="103.398312"><ele>832.4289</ele><time>2026-04-03T10:13:32.000Z</time></trkpt>
        <trkpt lat="29.571545" lon="103.398254"><ele>829.748</ele><time>2026-04-03T10:13:40.000Z</time></trkpt>
        <trkpt lat="29.571544" lon="103.398199"><ele>830.46783</ele><time>2026-04-03T10:13:45.000Z</time></trkpt>
        <trkpt lat="29.571542" lon="103.398144"><ele>828.3978</ele><time>2026-04-03T10:13:53.000Z</time></trkpt>
        <trkpt lat="29.571554" lon="103.398079"><ele>825.05975</ele><time>2026-04-03T10:14:01.000Z</time></trkpt>
        <trkpt lat="29.57155" lon="103.398028"><ele>824.09393</ele><time>2026-04-03T10:14:06.000Z</time></trkpt>
        <trkpt lat="29.571532" lon="103.397974"><ele>822.44653</ele><time>2026-04-03T10:14:13.000Z</time></trkpt>
        <trkpt lat="29.571519" lon="103.397925"><ele>818.8163</ele><time>2026-04-03T10:14:19.000Z</time></trkpt>
        <trkpt lat="29.571507" lon="103.397873"><ele>817.3518</ele><time>2026-04-03T10:14:26.000Z</time></trkpt>
        <trkpt lat="29.571495" lon="103.397822"><ele>814.8914</ele><time>2026-04-03T10:14:32.000Z</time></trkpt>
        <trkpt lat="29.571478" lon="103.397754"><ele>816.24274</ele><time>2026-04-03T10:14:39.000Z</time></trkpt>
        <trkpt lat="29.571453" lon="103.397703"><ele>811.5685</ele><time>2026-04-03T10:14:50.000Z</time></trkpt>
        <trkpt lat="29.571438" lon="103.39765"><ele>810.97284</ele><time>2026-04-03T10:14:58.000Z</time></trkpt>
        <trkpt lat="29.571451" lon="103.397598"><ele>812.6537</ele><time>2026-04-03T10:15:04.000Z</time></trkpt>
        <trkpt lat="29.571457" lon="103.397544"><ele>811.73834</ele><time>2026-04-03T10:15:09.000Z</time></trkpt>
        <trkpt lat="29.571477" lon="103.397482"><ele>812.34064</ele><time>2026-04-03T10:15:16.000Z</time></trkpt>
        <trkpt lat="29.571488" lon="103.397418"><ele>810.32117</ele><time>2026-04-03T10:15:22.000Z</time></trkpt>
        <trkpt lat="29.571503" lon="103.397362"><ele>809.68945</ele><time>2026-04-03T10:15:27.000Z</time></trkpt>
        <trkpt lat="29.571518" lon="103.397314"><ele>809.9598</ele><time>2026-04-03T10:15:32.000Z</time></trkpt>
        <trkpt lat="29.57155" lon="103.397267"><ele>809.7919</ele><time>2026-04-03T10:15:39.000Z</time></trkpt>
        <trkpt lat="29.571545" lon="103.397212"><ele>808.02936</ele><time>2026-04-03T10:15:49.000Z</time></trkpt>
        <trkpt lat="29.571544" lon="103.397158"><ele>803.0861</ele><time>2026-04-03T10:15:59.000Z</time></trkpt>
        <trkpt lat="29.571579" lon="103.397122"><ele>800.47784</ele><time>2026-04-03T10:16:05.000Z</time></trkpt>
        <trkpt lat="29.571625" lon="103.397112"><ele>802.3442</ele><time>2026-04-03T10:16:11.000Z</time></trkpt>
        <trkpt lat="29.571654" lon="103.397072"><ele>802.3335</ele><time>2026-04-03T10:16:17.000Z</time></trkpt>
        <trkpt lat="29.571676" lon="103.397026"><ele>801.7583</ele><time>2026-04-03T10:16:20.000Z</time></trkpt>
        <trkpt lat="29.5717" lon="103.396976"><ele>800.19336</ele><time>2026-04-03T10:16:24.000Z</time></trkpt>
        <trkpt lat="29.571728" lon="103.396933"><ele>798.3499</ele><time>2026-04-03T10:16:30.000Z</time></trkpt>
        <trkpt lat="29.571758" lon="103.396894"><ele>798.54785</ele><time>2026-04-03T10:16:35.000Z</time></trkpt>
        <trkpt lat="29.571782" lon="103.396848"><ele>794.23315</ele><time>2026-04-03T10:16:39.000Z</time></trkpt>
        <trkpt lat="29.571818" lon="103.396811"><ele>791.0653</ele><time>2026-04-03T10:16:43.000Z</time></trkpt>
        <trkpt lat="29.57186" lon="103.396784"><ele>786.47815</ele><time>2026-04-03T10:16:53.000Z</time></trkpt>
        <trkpt lat="29.571906" lon="103.396801"><ele>786.1616</ele><time>2026-04-03T10:17:05.000Z</time></trkpt>
        <trkpt lat="29.571943" lon="103.396771"><ele>783.5358</ele><time>2026-04-03T10:17:11.000Z</time></trkpt>
        <trkpt lat="29.571992" lon="103.39675"><ele>782.4033</ele><time>2026-04-03T10:17:25.000Z</time></trkpt>
        <trkpt lat="29.57204" lon="103.39675"><ele>782.4966</ele><time>2026-04-03T10:17:30.000Z</time></trkpt>
        <trkpt lat="29.572087" lon="103.396753"><ele>782.4136</ele><time>2026-04-03T10:17:40.000Z</time></trkpt>
        <trkpt lat="29.572141" lon="103.396733"><ele>781.131</ele><time>2026-04-03T10:17:49.000Z</time></trkpt>
        <trkpt lat="29.572189" lon="103.396738"><ele>781.0774</ele><time>2026-04-03T10:17:56.000Z</time></trkpt>
        <trkpt lat="29.572237" lon="103.396726"><ele>779.2429</ele><time>2026-04-03T10:18:03.000Z</time></trkpt>
        <trkpt lat="29.572293" lon="103.396715"><ele>777.7542</ele><time>2026-04-03T10:18:09.000Z</time></trkpt>
        <trkpt lat="29.572317" lon="103.396668"><ele>772.7416</ele><time>2026-04-03T10:18:17.000Z</time></trkpt>
        <trkpt lat="29.57234" lon="103.396612"><ele>769.2953</ele><time>2026-04-03T10:18:22.000Z</time></trkpt>
        <trkpt lat="29.572363" lon="103.396552"><ele>767.1687</ele><time>2026-04-03T10:18:28.000Z</time></trkpt>
        <trkpt lat="29.572358" lon="103.396497"><ele>767.28503</ele><time>2026-04-03T10:18:32.000Z</time></trkpt>
        <trkpt lat="29.572344" lon="103.396434"><ele>766.6823</ele><time>2026-04-03T10:18:36.000Z</time></trkpt>
        <trkpt lat="29.572338" lon="103.396376"><ele>765.8102</ele><time>2026-04-03T10:18:40.000Z</time></trkpt>
        <trkpt lat="29.572334" lon="103.39632"><ele>765.2358</ele><time>2026-04-03T10:18:45.000Z</time></trkpt>
        <trkpt lat="29.572369" lon="103.396286"><ele>764.0869</ele><time>2026-04-03T10:18:50.000Z</time></trkpt>
        <trkpt lat="29.572379" lon="103.396226"><ele>764.5719</ele><time>2026-04-03T10:18:56.000Z</time></trkpt>
        <trkpt lat="29.572389" lon="103.396171"><ele>762.46655</ele><time>2026-04-03T10:19:05.000Z</time></trkpt>
        <trkpt lat="29.572412" lon="103.396115"><ele>762.18744</ele><time>2026-04-03T10:19:14.000Z</time></trkpt>
        <trkpt lat="29.572437" lon="103.396067"><ele>758.76886</ele><time>2026-04-03T10:19:20.000Z</time></trkpt>
        <trkpt lat="29.572483" lon="103.396039"><ele>761.0852</ele><time>2026-04-03T10:19:25.000Z</time></trkpt>
        <trkpt lat="29.572525" lon="103.396017"><ele>761.424</ele><time>2026-04-03T10:19:33.000Z</time></trkpt>
        <trkpt lat="29.572568" lon="103.395977"><ele>760.5408</ele><time>2026-04-03T10:19:38.000Z</time></trkpt>
        <trkpt lat="29.572598" lon="103.395937"><ele>758.58984</ele><time>2026-04-03T10:19:43.000Z</time></trkpt>
        <trkpt lat="29.572649" lon="103.395904"><ele>759.4887</ele><time>2026-04-03T10:19:49.000Z</time></trkpt>
        <trkpt lat="29.5727" lon="103.395877"><ele>757.4959</ele><time>2026-04-03T10:19:56.000Z</time></trkpt>
        <trkpt lat="29.572732" lon="103.395834"><ele>755.92535</ele><time>2026-04-03T10:20:00.000Z</time></trkpt>
        <trkpt lat="29.57276" lon="103.395793"><ele>753.77026</ele><time>2026-04-03T10:20:04.000Z</time></trkpt>
        <trkpt lat="29.572794" lon="103.395738"><ele>753.3732</ele><time>2026-04-03T10:20:09.000Z</time></trkpt>
        <trkpt lat="29.572821" lon="103.395693"><ele>753.5927</ele><time>2026-04-03T10:20:13.000Z</time></trkpt>
        <trkpt lat="29.572842" lon="103.395645"><ele>751.5012</ele><time>2026-04-03T10:20:17.000Z</time></trkpt>
        <trkpt lat="29.572855" lon="103.395584"><ele>748.8981</ele><time>2026-04-03T10:20:31.000Z</time></trkpt>
        <trkpt lat="29.572887" lon="103.395536"><ele>750.928</ele><time>2026-04-03T10:20:36.000Z</time></trkpt>
        <trkpt lat="29.572906" lon="103.395483"><ele>750.33417</ele><time>2026-04-03T10:20:40.000Z</time></trkpt>
        <trkpt lat="29.572922" lon="103.395426"><ele>749.30725</ele><time>2026-04-03T10:20:44.000Z</time></trkpt>
        <trkpt lat="29.572951" lon="103.395369"><ele>746.05676</ele><time>2026-04-03T10:20:49.000Z</time></trkpt>
        <trkpt lat="29.572977" lon="103.395319"><ele>745.33777</ele><time>2026-04-03T10:20:56.000Z</time></trkpt>
        <trkpt lat="29.572972" lon="103.395262"><ele>744.8286</ele><time>2026-04-03T10:21:03.000Z</time></trkpt>
        <trkpt lat="29.572947" lon="103.395209"><ele>743.72034</ele><time>2026-04-03T10:21:10.000Z</time></trkpt>
        <trkpt lat="29.572924" lon="103.395165"><ele>742.2754</ele><time>2026-04-03T10:21:14.000Z</time></trkpt>
        <trkpt lat="29.572909" lon="103.395114"><ele>740.5298</ele><time>2026-04-03T10:21:21.000Z</time></trkpt>
        <trkpt lat="29.572897" lon="103.395051"><ele>740.0265</ele><time>2026-04-03T10:21:26.000Z</time></trkpt>
        <trkpt lat="29.572902" lon="103.394996"><ele>738.91583</ele><time>2026-04-03T10:21:31.000Z</time></trkpt>
        <trkpt lat="29.572907" lon="103.394926"><ele>737.68097</ele><time>2026-04-03T10:21:37.000Z</time></trkpt>
        <trkpt lat="29.57291" lon="103.39487"><ele>736.1834</ele><time>2026-04-03T10:21:43.000Z</time></trkpt>
        <trkpt lat="29.572882" lon="103.394823"><ele>734.18085</ele><time>2026-04-03T10:21:48.000Z</time></trkpt>
        <trkpt lat="29.57285" lon="103.394779"><ele>733.22473</ele><time>2026-04-03T10:21:51.000Z</time></trkpt>
        <trkpt lat="29.572817" lon="103.394732"><ele>732.5672</ele><time>2026-04-03T10:21:58.000Z</time></trkpt>
        <trkpt lat="29.572785" lon="103.394686"><ele>732.87115</ele><time>2026-04-03T10:22:05.000Z</time></trkpt>
        <trkpt lat="29.572758" lon="103.394635"><ele>730.62897</ele><time>2026-04-03T10:22:13.000Z</time></trkpt>
        <trkpt lat="29.572744" lon="103.394585"><ele>729.31775</ele><time>2026-04-03T10:22:21.000Z</time></trkpt>
        <trkpt lat="29.572749" lon="103.394532"><ele>724.8278</ele><time>2026-04-03T10:22:35.000Z</time></trkpt>
        <trkpt lat="29.57276" lon="103.394478"><ele>722.9684</ele><time>2026-04-03T10:22:41.000Z</time></trkpt>
        <trkpt lat="29.572772" lon="103.39442"><ele>720.9831</ele><time>2026-04-03T10:22:47.000Z</time></trkpt>
        <trkpt lat="29.572786" lon="103.394367"><ele>720.219</ele><time>2026-04-03T10:22:52.000Z</time></trkpt>
        <trkpt lat="29.572813" lon="103.394315"><ele>720.691</ele><time>2026-04-03T10:22:57.000Z</time></trkpt>
        <trkpt lat="29.572835" lon="103.394262"><ele>721.33704</ele><time>2026-04-03T10:23:02.000Z</time></trkpt>
        <trkpt lat="29.572856" lon="103.394213"><ele>720.6724</ele><time>2026-04-03T10:23:14.000Z</time></trkpt>
        <trkpt lat="29.572867" lon="103.394156"><ele>719.52045</ele><time>2026-04-03T10:23:19.000Z</time></trkpt>
        <trkpt lat="29.572897" lon="103.394103"><ele>719.8892</ele><time>2026-04-03T10:23:24.000Z</time></trkpt>
        <trkpt lat="29.572914" lon="103.394052"><ele>720.433</ele><time>2026-04-03T10:23:28.000Z</time></trkpt>
        <trkpt lat="29.57295" lon="103.394015"><ele>722.9826</ele><time>2026-04-03T10:23:34.000Z</time></trkpt>
        <trkpt lat="29.572973" lon="103.393969"><ele>724.8824</ele><time>2026-04-03T10:23:40.000Z</time></trkpt>
        <trkpt lat="29.572999" lon="103.393902"><ele>724.5764</ele><time>2026-04-03T10:23:45.000Z</time></trkpt>
        <trkpt lat="29.573028" lon="103.393843"><ele>724.17706</ele><time>2026-04-03T10:23:50.000Z</time></trkpt>
        <trkpt lat="29.573055" lon="103.393801"><ele>724.34015</ele><time>2026-04-03T10:23:54.000Z</time></trkpt>
        <trkpt lat="29.573095" lon="103.393773"><ele>727.01904</ele><time>2026-04-03T10:24:18.000Z</time></trkpt>
        <trkpt lat="29.573141" lon="103.393756"><ele>729.3298</ele><time>2026-04-03T10:24:24.000Z</time></trkpt>
        <trkpt lat="29.57319" lon="103.393757"><ele>727.17126</ele><time>2026-04-03T10:24:30.000Z</time></trkpt>
        <trkpt lat="29.573231" lon="103.393781"><ele>724.4491</ele><time>2026-04-03T10:24:36.000Z</time></trkpt>
        <trkpt lat="29.573278" lon="103.393783"><ele>723.1424</ele><time>2026-04-03T10:24:41.000Z</time></trkpt>
        <trkpt lat="29.573295" lon="103.393731"><ele>721.7705</ele><time>2026-04-03T10:24:46.000Z</time></trkpt>
        <trkpt lat="29.573328" lon="103.393679"><ele>719.56885</ele><time>2026-04-03T10:24:50.000Z</time></trkpt>
        <trkpt lat="29.573363" lon="103.393632"><ele>717.7601</ele><time>2026-04-03T10:24:57.000Z</time></trkpt>
        <trkpt lat="29.573407" lon="103.393599"><ele>717.1079</ele><time>2026-04-03T10:25:01.000Z</time></trkpt>
        <trkpt lat="29.573455" lon="103.393578"><ele>716.1916</ele><time>2026-04-03T10:25:06.000Z</time></trkpt>
        <trkpt lat="29.573505" lon="103.393567"><ele>717.3073</ele><time>2026-04-03T10:25:11.000Z</time></trkpt>
        <trkpt lat="29.57355" lon="103.393551"><ele>716.39746</ele><time>2026-04-03T10:25:16.000Z</time></trkpt>
        <trkpt lat="29.573598" lon="103.393521"><ele>715.97705</ele><time>2026-04-03T10:25:21.000Z</time></trkpt>
        <trkpt lat="29.57362" lon="103.393471"><ele>716.3674</ele><time>2026-04-03T10:25:49.000Z</time></trkpt>
        <trkpt lat="29.573658" lon="103.393432"><ele>716.2102</ele><time>2026-04-03T10:25:57.000Z</time></trkpt>
        <trkpt lat="29.573709" lon="103.393406"><ele>716.326</ele><time>2026-04-03T10:26:02.000Z</time></trkpt>
        <trkpt lat="29.573757" lon="103.393401"><ele>716.0803</ele><time>2026-04-03T10:26:06.000Z</time></trkpt>
        <trkpt lat="29.573803" lon="103.393403"><ele>714.2661</ele><time>2026-04-03T10:26:35.000Z</time></trkpt>
        <trkpt lat="29.573835" lon="103.393368"><ele>713.1339</ele><time>2026-04-03T10:26:39.000Z</time></trkpt>
        <trkpt lat="29.573881" lon="103.393358"><ele>714.7074</ele><time>2026-04-03T10:26:45.000Z</time></trkpt>
        <trkpt lat="29.573906" lon="103.393311"><ele>715.24457</ele><time>2026-04-03T10:26:48.000Z</time></trkpt>
        <trkpt lat="29.57393" lon="103.393263"><ele>714.98724</ele><time>2026-04-03T10:26:52.000Z</time></trkpt>
        <trkpt lat="29.573964" lon="103.393222"><ele>714.40784</ele><time>2026-04-03T10:27:00.000Z</time></trkpt>
        <trkpt lat="29.573994" lon="103.393169"><ele>715.1947</ele><time>2026-04-03T10:27:07.000Z</time></trkpt>
        <trkpt lat="29.574013" lon="103.393119"><ele>714.0331</ele><time>2026-04-03T10:27:13.000Z</time></trkpt>
        <trkpt lat="29.574033" lon="103.393057"><ele>714.79</ele><time>2026-04-03T10:27:19.000Z</time></trkpt>
        <trkpt lat="29.574046" lon="103.393001"><ele>712.4709</ele><time>2026-04-03T10:27:24.000Z</time></trkpt>
        <trkpt lat="29.574066" lon="103.392951"><ele>711.32043</ele><time>2026-04-03T10:27:29.000Z</time></trkpt>
        <trkpt lat="29.574085" lon="103.3929"><ele>709.63354</ele><time>2026-04-03T10:27:40.000Z</time></trkpt>
        <trkpt lat="29.574118" lon="103.392857"><ele>705.40173</ele><time>2026-04-03T10:27:52.000Z</time></trkpt>
        <trkpt lat="29.574116" lon="103.392799"><ele>705.054</ele><time>2026-04-03T10:28:02.000Z</time></trkpt>
        <trkpt lat="29.574118" lon="103.392739"><ele>706.1706</ele><time>2026-04-03T10:28:10.000Z</time></trkpt>
        <trkpt lat="29.574127" lon="103.392682"><ele>704.07227</ele><time>2026-04-03T10:28:20.000Z</time></trkpt>
        <trkpt lat="29.574144" lon="103.392634"><ele>704.6142</ele><time>2026-04-03T10:28:41.000Z</time></trkpt>
        <trkpt lat="29.574144" lon="103.39258"><ele>705.7753</ele><time>2026-04-03T10:28:46.000Z</time></trkpt>
        <trkpt lat="29.574127" lon="103.392523"><ele>704.53503</ele><time>2026-04-03T10:28:51.000Z</time></trkpt>
        <trkpt lat="29.574125" lon="103.392468"><ele>701.5821</ele><time>2026-04-03T10:28:57.000Z</time></trkpt>
        <trkpt lat="29.574081" lon="103.392477"><ele>697.67145</ele><time>2026-04-03T10:29:02.000Z</time></trkpt>
        <trkpt lat="29.574126" lon="103.392492"><ele>696.7847</ele><time>2026-04-03T10:29:11.000Z</time></trkpt>
        <trkpt lat="29.574167" lon="103.392464"><ele>698.3673</ele><time>2026-04-03T10:29:20.000Z</time></trkpt>
        <trkpt lat="29.574201" lon="103.392427"><ele>695.23346</ele><time>2026-04-03T10:29:55.000Z</time></trkpt>
        <trkpt lat="29.574192" lon="103.392368"><ele>693.9305</ele><time>2026-04-03T10:30:41.000Z</time></trkpt>
        <trkpt lat="29.574146" lon="103.392349"><ele>692.62164</ele><time>2026-04-03T10:30:53.000Z</time></trkpt>
        <trkpt lat="29.574157" lon="103.39225"><ele>692.3383</ele><time>2026-04-03T10:31:13.000Z</time></trkpt>
        <trkpt lat="29.574107" lon="103.392272"><ele>693.5431</ele><time>2026-04-03T10:31:17.000Z</time></trkpt>
        <trkpt lat="29.574097" lon="103.392344"><ele>695.65643</ele><time>2026-04-03T10:31:22.000Z</time></trkpt>
        <trkpt lat="29.574089" lon="103.392248"><ele>696.974</ele><time>2026-04-03T10:31:25.000Z</time></trkpt>
        <trkpt lat="29.574044" lon="103.392265"><ele>699.6021</ele><time>2026-04-03T10:31:30.000Z</time></trkpt>
        <trkpt lat="29.574063" lon="103.392324"><ele>700.23047</ele><time>2026-04-03T10:31:32.000Z</time></trkpt>
        <trkpt lat="29.574139" lon="103.392297"><ele>700.73737</ele><time>2026-04-03T10:31:33.000Z</time></trkpt>
        <trkpt lat="29.574116" lon="103.392356"><ele>702.3667</ele><time>2026-04-03T10:31:41.000Z</time></trkpt>
        <trkpt lat="29.574202" lon="103.392321"><ele>704.6651</ele><time>2026-04-03T10:31:50.000Z</time></trkpt>
        <trkpt lat="29.574137" lon="103.392316"><ele>704.74054</ele><time>2026-04-03T10:31:51.000Z</time></trkpt>
        <trkpt lat="29.574077" lon="103.392429"><ele>706.6955</ele><time>2026-04-03T10:31:57.000Z</time></trkpt>
        <trkpt lat="29.574057" lon="103.392479"><ele>707.1664</ele><time>2026-04-03T10:31:58.000Z</time></trkpt>
        <trkpt lat="29.57404" lon="103.392541"><ele>708.1428</ele><time>2026-04-03T10:31:59.000Z</time></trkpt>
        <trkpt lat="29.574018" lon="103.39261"><ele>709.5456</ele><time>2026-04-03T10:32:00.000Z</time></trkpt>
        <trkpt lat="29.574092" lon="103.39256"><ele>711.6724</ele><time>2026-04-03T10:32:05.000Z</time></trkpt>
        <trkpt lat="29.574182" lon="103.39257"><ele>710.7239</ele><time>2026-04-03T10:32:06.000Z</time></trkpt>
        <trkpt lat="29.574142" lon="103.392543"><ele>710.8794</ele><time>2026-04-03T10:32:13.000Z</time></trkpt>
        <trkpt lat="29.574092" lon="103.392505"><ele>710.7785</ele><time>2026-04-03T10:32:17.000Z</time></trkpt>
        <trkpt lat="29.574136" lon="103.392454"><ele>710.96564</ele><time>2026-04-03T10:32:18.000Z</time></trkpt>
        <trkpt lat="29.574194" lon="103.392433"><ele>709.9249</ele><time>2026-04-03T10:32:20.000Z</time></trkpt>
        <trkpt lat="29.574228" lon="103.39239"><ele>708.24414</ele><time>2026-04-03T10:32:21.000Z</time></trkpt>
        <trkpt lat="29.574234" lon="103.392339"><ele>707.50287</ele><time>2026-04-03T10:32:23.000Z</time></trkpt>
        <trkpt lat="29.574238" lon="103.392272"><ele>705.4917</ele><time>2026-04-03T10:32:28.000Z</time></trkpt>
        <trkpt lat="29.574224" lon="103.39222"><ele>704.49384</ele><time>2026-04-03T10:32:32.000Z</time></trkpt>
        <trkpt lat="29.574261" lon="103.392258"><ele>694.05414</ele><time>2026-04-03T10:32:48.000Z</time></trkpt>
        <trkpt lat="29.574235" lon="103.3923"><ele>697.463</ele><time>2026-04-03T10:32:55.000Z</time></trkpt>
        <trkpt lat="29.574185" lon="103.392278"><ele>697.93463</ele><time>2026-04-03T10:32:58.000Z</time></trkpt>
        <trkpt lat="29.574134" lon="103.392221"><ele>697.0438</ele><time>2026-04-03T10:33:01.000Z</time></trkpt>
        <trkpt lat="29.574098" lon="103.392175"><ele>698.63635</ele><time>2026-04-03T10:33:06.000Z</time></trkpt>
        <trkpt lat="29.574054" lon="103.392142"><ele>697.76746</ele><time>2026-04-03T10:33:14.000Z</time></trkpt>
        <trkpt lat="29.574011" lon="103.39211"><ele>695.3871</ele><time>2026-04-03T10:33:22.000Z</time></trkpt>
        <trkpt lat="29.573971" lon="103.392087"><ele>694.2652</ele><time>2026-04-03T10:33:34.000Z</time></trkpt>
        <trkpt lat="29.573926" lon="103.392104"><ele>690.7533</ele><time>2026-04-03T10:33:45.000Z</time></trkpt>
        <trkpt lat="29.573879" lon="103.392103"><ele>691.5488</ele><time>2026-04-03T10:33:52.000Z</time></trkpt>
        <trkpt lat="29.573848" lon="103.392144"><ele>690.70306</ele><time>2026-04-03T10:33:56.000Z</time></trkpt>
        <trkpt lat="29.573817" lon="103.392187"><ele>691.35913</ele><time>2026-04-03T10:34:01.000Z</time></trkpt>
        <trkpt lat="29.573774" lon="103.392169"><ele>693.72174</ele><time>2026-04-03T10:34:06.000Z</time></trkpt>
        <trkpt lat="29.573758" lon="103.392117"><ele>695.88855</ele><time>2026-04-03T10:34:14.000Z</time></trkpt>
        <trkpt lat="29.573708" lon="103.392098"><ele>696.29254</ele><time>2026-04-03T10:34:19.000Z</time></trkpt>
        <trkpt lat="29.573665" lon="103.392074"><ele>695.9709</ele><time>2026-04-03T10:34:23.000Z</time></trkpt>
        <trkpt lat="29.573624" lon="103.392042"><ele>695.55743</ele><time>2026-04-03T10:34:27.000Z</time></trkpt>
        <trkpt lat="29.573585" lon="103.392013"><ele>695.587</ele><time>2026-04-03T10:34:34.000Z</time></trkpt>
        <trkpt lat="29.573564" lon="103.391958"><ele>694.64496</ele><time>2026-04-03T10:34:38.000Z</time></trkpt>
        <trkpt lat="29.573561" lon="103.391906"><ele>693.485</ele><time>2026-04-03T10:34:46.000Z</time></trkpt>
        <trkpt lat="29.573514" lon="103.391895"><ele>693.62415</ele><time>2026-04-03T10:34:50.000Z</time></trkpt>
        <trkpt lat="29.57346" lon="103.391868"><ele>694.5749</ele><time>2026-04-03T10:34:55.000Z</time></trkpt>
        <trkpt lat="29.573414" lon="103.391845"><ele>693.84656</ele><time>2026-04-03T10:34:59.000Z</time></trkpt>
        <trkpt lat="29.573365" lon="103.391819"><ele>695.86005</ele><time>2026-04-03T10:35:13.000Z</time></trkpt>
        <trkpt lat="29.573322" lon="103.391804"><ele>697.64606</ele><time>2026-04-03T10:35:17.000Z</time></trkpt>
        <trkpt lat="29.57327" lon="103.391789"><ele>695.45746</ele><time>2026-04-03T10:35:23.000Z</time></trkpt>
        <trkpt lat="29.573218" lon="103.391741"><ele>694.1378</ele><time>2026-04-03T10:35:32.000Z</time></trkpt>
        <trkpt lat="29.573171" lon="103.391739"><ele>696.938</ele><time>2026-04-03T10:35:38.000Z</time></trkpt>
        <trkpt lat="29.573114" lon="103.391749"><ele>698.00836</ele><time>2026-04-03T10:35:46.000Z</time></trkpt>
        <trkpt lat="29.573059" lon="103.391752"><ele>698.8397</ele><time>2026-04-03T10:35:51.000Z</time></trkpt>
        <trkpt lat="29.57301" lon="103.391792"><ele>704.97107</ele><time>2026-04-03T10:35:56.000Z</time></trkpt>
        <trkpt lat="29.572964" lon="103.391805"><ele>703.3796</ele><time>2026-04-03T10:36:00.000Z</time></trkpt>
        <trkpt lat="29.572913" lon="103.391828"><ele>706.4885</ele><time>2026-04-03T10:36:07.000Z</time></trkpt>
        <trkpt lat="29.572864" lon="103.39183"><ele>707.88324</ele><time>2026-04-03T10:36:12.000Z</time></trkpt>
        <trkpt lat="29.572815" lon="103.39184"><ele>707.1775</ele><time>2026-04-03T10:36:18.000Z</time></trkpt>
        <trkpt lat="29.57277" lon="103.391848"><ele>705.4094</ele><time>2026-04-03T10:36:22.000Z</time></trkpt>
        <trkpt lat="29.572712" lon="103.391847"><ele>706.6102</ele><time>2026-04-03T10:36:28.000Z</time></trkpt>
        <trkpt lat="29.572658" lon="103.39186"><ele>706.9902</ele><time>2026-04-03T10:36:33.000Z</time></trkpt>
        <trkpt lat="29.572618" lon="103.391884"><ele>709.77264</ele><time>2026-04-03T10:36:41.000Z</time></trkpt>
        <trkpt lat="29.572566" lon="103.391883"><ele>710.7676</ele><time>2026-04-03T10:36:50.000Z</time></trkpt>
        <trkpt lat="29.572524" lon="103.391865"><ele>710.7276</ele><time>2026-04-03T10:36:54.000Z</time></trkpt>
        <trkpt lat="29.572473" lon="103.391848"><ele>706.7558</ele><time>2026-04-03T10:37:00.000Z</time></trkpt>
        <trkpt lat="29.572428" lon="103.391839"><ele>709.5427</ele><time>2026-04-03T10:37:05.000Z</time></trkpt>
        <trkpt lat="29.572387" lon="103.391813"><ele>709.217</ele><time>2026-04-03T10:37:13.000Z</time></trkpt>
        <trkpt lat="29.572338" lon="103.391792"><ele>712.511</ele><time>2026-04-03T10:37:17.000Z</time></trkpt>
        <trkpt lat="29.572286" lon="103.391779"><ele>714.03217</ele><time>2026-04-03T10:37:24.000Z</time></trkpt>
        <trkpt lat="29.572238" lon="103.391756"><ele>711.26416</ele><time>2026-04-03T10:37:29.000Z</time></trkpt>
        <trkpt lat="29.572199" lon="103.391723"><ele>711.39545</ele><time>2026-04-03T10:37:33.000Z</time></trkpt>
        <trkpt lat="29.572149" lon="103.391717"><ele>710.84064</ele><time>2026-04-03T10:37:38.000Z</time></trkpt>
        <trkpt lat="29.572084" lon="103.391696"><ele>714.66516</ele><time>2026-04-03T10:37:44.000Z</time></trkpt>
        <trkpt lat="29.572033" lon="103.39171"><ele>716.26086</ele><time>2026-04-03T10:37:47.000Z</time></trkpt>
        <trkpt lat="29.571983" lon="103.391694"><ele>715.8108</ele><time>2026-04-03T10:37:55.000Z</time></trkpt>
        <trkpt lat="29.571931" lon="103.39169"><ele>713.5767</ele><time>2026-04-03T10:37:59.000Z</time></trkpt>
        <trkpt lat="29.571886" lon="103.39166"><ele>711.9179</ele><time>2026-04-03T10:38:08.000Z</time></trkpt>
        <trkpt lat="29.571831" lon="103.391691"><ele>711.50635</ele><time>2026-04-03T10:38:12.000Z</time></trkpt>
        <trkpt lat="29.571782" lon="103.391711"><ele>711.01733</ele><time>2026-04-03T10:38:16.000Z</time></trkpt>
        <trkpt lat="29.571775" lon="103.391655"><ele>707.1655</ele><time>2026-04-03T10:38:20.000Z</time></trkpt>
        <trkpt lat="29.571728" lon="103.391656"><ele>706.0016</ele><time>2026-04-03T10:38:26.000Z</time></trkpt>
        <trkpt lat="29.571679" lon="103.391665"><ele>705.9197</ele><time>2026-04-03T10:38:30.000Z</time></trkpt>
        <trkpt lat="29.571625" lon="103.391681"><ele>705.3334</ele><time>2026-04-03T10:38:34.000Z</time></trkpt>
        <trkpt lat="29.571575" lon="103.391662"><ele>704.5249</ele><time>2026-04-03T10:38:37.000Z</time></trkpt>
        <trkpt lat="29.571525" lon="103.391662"><ele>703.40454</ele><time>2026-04-03T10:38:42.000Z</time></trkpt>
        <trkpt lat="29.571473" lon="103.391663"><ele>702.3097</ele><time>2026-04-03T10:38:49.000Z</time></trkpt>
        <trkpt lat="29.571427" lon="103.391665"><ele>703.53</ele><time>2026-04-03T10:38:55.000Z</time></trkpt>
        <trkpt lat="29.571375" lon="103.39167"><ele>703.4541</ele><time>2026-04-03T10:38:59.000Z</time></trkpt>
        <trkpt lat="29.571323" lon="103.391648"><ele>704.69293</ele><time>2026-04-03T10:39:10.000Z</time></trkpt>
        <trkpt lat="29.571274" lon="103.391647"><ele>704.7872</ele><time>2026-04-03T10:39:14.000Z</time></trkpt>
        <trkpt lat="29.571214" lon="103.391667"><ele>706.4374</ele><time>2026-04-03T10:39:18.000Z</time></trkpt>
        <trkpt lat="29.571168" lon="103.391701"><ele>709.6241</ele><time>2026-04-03T10:39:22.000Z</time></trkpt>
        <trkpt lat="29.571143" lon="103.391746"><ele>711.8579</ele><time>2026-04-03T10:39:25.000Z</time></trkpt>
        <trkpt lat="29.571099" lon="103.391756"><ele>713.9171</ele><time>2026-04-03T10:39:30.000Z</time></trkpt>
        <trkpt lat="29.571048" lon="103.391733"><ele>714.91473</ele><time>2026-04-03T10:39:35.000Z</time></trkpt>
        <trkpt lat="29.571002" lon="103.39173"><ele>712.9306</ele><time>2026-04-03T10:39:41.000Z</time></trkpt>
        <trkpt lat="29.570956" lon="103.391716"><ele>711.0638</ele><time>2026-04-03T10:39:45.000Z</time></trkpt>
        <trkpt lat="29.570913" lon="103.391698"><ele>711.7212</ele><time>2026-04-03T10:39:49.000Z</time></trkpt>
        <trkpt lat="29.570866" lon="103.391692"><ele>711.8827</ele><time>2026-04-03T10:39:54.000Z</time></trkpt>
        <trkpt lat="29.570824" lon="103.391658"><ele>713.60565</ele><time>2026-04-03T10:39:58.000Z</time></trkpt>
        <trkpt lat="29.570784" lon="103.39163"><ele>715.7554</ele><time>2026-04-03T10:40:02.000Z</time></trkpt>
        <trkpt lat="29.570741" lon="103.3916"><ele>715.0782</ele><time>2026-04-03T10:40:08.000Z</time></trkpt>
        <trkpt lat="29.570698" lon="103.39158"><ele>714.9889</ele><time>2026-04-03T10:40:13.000Z</time></trkpt>
        <trkpt lat="29.57066" lon="103.39155"><ele>713.5489</ele><time>2026-04-03T10:40:21.000Z</time></trkpt>
        <trkpt lat="29.570624" lon="103.391509"><ele>711.6056</ele><time>2026-04-03T10:40:28.000Z</time></trkpt>
        <trkpt lat="29.570585" lon="103.391466"><ele>709.8738</ele><time>2026-04-03T10:40:34.000Z</time></trkpt>
        <trkpt lat="29.570563" lon="103.391416"><ele>712.91034</ele><time>2026-04-03T10:40:42.000Z</time></trkpt>
        <trkpt lat="29.570507" lon="103.391405"><ele>717.15216</ele><time>2026-04-03T10:40:49.000Z</time></trkpt>
        <trkpt lat="29.570463" lon="103.391389"><ele>718.60626</ele><time>2026-04-03T10:40:52.000Z</time></trkpt>
        <trkpt lat="29.570404" lon="103.391388"><ele>718.3213</ele><time>2026-04-03T10:40:56.000Z</time></trkpt>
        <trkpt lat="29.570373" lon="103.391348"><ele>717.98773</ele><time>2026-04-03T10:41:01.000Z</time></trkpt>
        <trkpt lat="29.570391" lon="103.391297"><ele>716.89777</ele><time>2026-04-03T10:41:06.000Z</time></trkpt>
        <trkpt lat="29.570366" lon="103.391244"><ele>713.4118</ele><time>2026-04-03T10:41:16.000Z</time></trkpt>
        <trkpt lat="29.570312" lon="103.391248"><ele>715.47266</ele><time>2026-04-03T10:41:25.000Z</time></trkpt>
        <trkpt lat="29.57027" lon="103.391285"><ele>718.39185</ele><time>2026-04-03T10:41:32.000Z</time></trkpt>
        <trkpt lat="29.57025" lon="103.391232"><ele>722.6424</ele><time>2026-04-03T10:41:45.000Z</time></trkpt>
        <trkpt lat="29.570206" lon="103.391215"><ele>723.74</ele><time>2026-04-03T10:41:53.000Z</time></trkpt>
        <trkpt lat="29.57019" lon="103.391159"><ele>725.37146</ele><time>2026-04-03T10:41:58.000Z</time></trkpt>
        <trkpt lat="29.570155" lon="103.391112"><ele>726.09314</ele><time>2026-04-03T10:42:01.000Z</time></trkpt>
        <trkpt lat="29.570118" lon="103.391073"><ele>724.2772</ele><time>2026-04-03T10:42:09.000Z</time></trkpt>
        <trkpt lat="29.570053" lon="103.391075"><ele>729.7864</ele><time>2026-04-03T10:42:19.000Z</time></trkpt>
        <trkpt lat="29.570009" lon="103.391043"><ele>733.50757</ele><time>2026-04-03T10:42:24.000Z</time></trkpt>
        <trkpt lat="29.569958" lon="103.391021"><ele>736.12427</ele><time>2026-04-03T10:42:28.000Z</time></trkpt>
        <trkpt lat="29.56991" lon="103.391011"><ele>738.7705</ele><time>2026-04-03T10:42:33.000Z</time></trkpt>
        <trkpt lat="29.569863" lon="103.39103"><ele>738.6644</ele><time>2026-04-03T10:42:38.000Z</time></trkpt>
        <trkpt lat="29.569817" lon="103.390999"><ele>733.3937</ele><time>2026-04-03T10:42:50.000Z</time></trkpt>
        <trkpt lat="29.569763" lon="103.390972"><ele>732.3491</ele><time>2026-04-03T10:42:56.000Z</time></trkpt>
        <trkpt lat="29.569713" lon="103.390989"><ele>731.1088</ele><time>2026-04-03T10:43:08.000Z</time></trkpt>
        <trkpt lat="29.569666" lon="103.390976"><ele>728.75134</ele><time>2026-04-03T10:43:12.000Z</time></trkpt>
        <trkpt lat="29.569619" lon="103.390954"><ele>728.4163</ele><time>2026-04-03T10:43:18.000Z</time></trkpt>
        <trkpt lat="29.56957" lon="103.390946"><ele>725.2974</ele><time>2026-04-03T10:43:24.000Z</time></trkpt>
        <trkpt lat="29.569524" lon="103.390972"><ele>725.44495</ele><time>2026-04-03T10:43:29.000Z</time></trkpt>
        <trkpt lat="29.569476" lon="103.391001"><ele>724.8243</ele><time>2026-04-03T10:43:33.000Z</time></trkpt>
        <trkpt lat="29.569422" lon="103.391022"><ele>724.8426</ele><time>2026-04-03T10:43:37.000Z</time></trkpt>
        <trkpt lat="29.56938" lon="103.391049"><ele>726.2209</ele><time>2026-04-03T10:43:43.000Z</time></trkpt>
        <trkpt lat="29.569326" lon="103.391028"><ele>727.7138</ele><time>2026-04-03T10:43:49.000Z</time></trkpt>
        <trkpt lat="29.569267" lon="103.391008"><ele>727.53796</ele><time>2026-04-03T10:43:54.000Z</time></trkpt>
        <trkpt lat="29.569253" lon="103.390952"><ele>726.91425</ele><time>2026-04-03T10:43:58.000Z</time></trkpt>
        <trkpt lat="29.569246" lon="103.390894"><ele>727.07715</ele><time>2026-04-03T10:44:02.000Z</time></trkpt>
        <trkpt lat="29.569197" lon="103.390897"><ele>728.3367</ele><time>2026-04-03T10:44:09.000Z</time></trkpt>
        <trkpt lat="29.569146" lon="103.390911"><ele>728.65533</ele><time>2026-04-03T10:44:16.000Z</time></trkpt>
        <trkpt lat="29.569112" lon="103.390947"><ele>715.8314</ele><time>2026-04-03T10:44:32.000Z</time></trkpt>
        <trkpt lat="29.56906" lon="103.390943"><ele>703.83636</ele><time>2026-04-03T10:45:02.000Z</time></trkpt>
        <trkpt lat="29.569041" lon="103.391011"><ele>703.8516</ele><time>2026-04-03T10:45:15.000Z</time></trkpt>
        <trkpt lat="29.568995" lon="103.391054"><ele>716.2402</ele><time>2026-04-03T10:45:24.000Z</time></trkpt>
        <trkpt lat="29.568954" lon="103.391094"><ele>716.5312</ele><time>2026-04-03T10:45:28.000Z</time></trkpt>
        <trkpt lat="29.568907" lon="103.391123"><ele>716.10345</ele><time>2026-04-03T10:45:34.000Z</time></trkpt>
        <trkpt lat="29.568954" lon="103.391118"><ele>731.8835</ele><time>2026-04-03T10:45:41.000Z</time></trkpt>
        <trkpt lat="29.569003" lon="103.391156"><ele>737.13025</ele><time>2026-04-03T10:45:53.000Z</time></trkpt>
        <trkpt lat="29.569104" lon="103.39117"><ele>738.64636</ele><time>2026-04-03T10:45:54.000Z</time></trkpt>
        <trkpt lat="29.569149" lon="103.391157"><ele>742.54346</ele><time>2026-04-03T10:45:58.000Z</time></trkpt>
        <trkpt lat="29.569102" lon="103.391184"><ele>742.0477</ele><time>2026-04-03T10:46:08.000Z</time></trkpt>
        <trkpt lat="29.569048" lon="103.391192"><ele>744.27057</ele><time>2026-04-03T10:46:12.000Z</time></trkpt>
        <trkpt lat="29.568991" lon="103.391188"><ele>748.3682</ele><time>2026-04-03T10:46:16.000Z</time></trkpt>
        <trkpt lat="29.568937" lon="103.391204"><ele>750.2148</ele><time>2026-04-03T10:46:19.000Z</time></trkpt>
        <trkpt lat="29.568891" lon="103.391188"><ele>754.29663</ele><time>2026-04-03T10:46:23.000Z</time></trkpt>
        <trkpt lat="29.568854" lon="103.391154"><ele>756.5868</ele><time>2026-04-03T10:46:26.000Z</time></trkpt>
        <trkpt lat="29.568845" lon="103.391103"><ele>757.7624</ele><time>2026-04-03T10:46:29.000Z</time></trkpt>
        <trkpt lat="29.568803" lon="103.391074"><ele>760.1994</ele><time>2026-04-03T10:46:34.000Z</time></trkpt>
        <trkpt lat="29.568833" lon="103.391022"><ele>761.8411</ele><time>2026-04-03T10:46:39.000Z</time></trkpt>
        <trkpt lat="29.568791" lon="103.390998"><ele>761.74963</ele><time>2026-04-03T10:46:43.000Z</time></trkpt>
        <trkpt lat="29.568788" lon="103.390943"><ele>762.31586</ele><time>2026-04-03T10:46:45.000Z</time></trkpt>
        <trkpt lat="29.56872" lon="103.390949"><ele>760.3962</ele><time>2026-04-03T10:46:48.000Z</time></trkpt>
        <trkpt lat="29.568668" lon="103.390961"><ele>760.1914</ele><time>2026-04-03T10:46:50.000Z</time></trkpt>
        <trkpt lat="29.568613" lon="103.390889"><ele>759.65515</ele><time>2026-04-03T10:46:53.000Z</time></trkpt>
        <trkpt lat="29.568568" lon="103.390859"><ele>760.3752</ele><time>2026-04-03T10:46:55.000Z</time></trkpt>
        <trkpt lat="29.568505" lon="103.390839"><ele>761.31213</ele><time>2026-04-03T10:46:58.000Z</time></trkpt>
        <trkpt lat="29.568441" lon="103.390862"><ele>761.5155</ele><time>2026-04-03T10:47:01.000Z</time></trkpt>
        <trkpt lat="29.568384" lon="103.390875"><ele>761.89075</ele><time>2026-04-03T10:47:02.000Z</time></trkpt>
        <trkpt lat="29.568333" lon="103.390881"><ele>761.3185</ele><time>2026-04-03T10:47:04.000Z</time></trkpt>
        <trkpt lat="29.568289" lon="103.390935"><ele>762.14856</ele><time>2026-04-03T10:47:11.000Z</time></trkpt>
        <trkpt lat="29.568265" lon="103.390988"><ele>761.9247</ele><time>2026-04-03T10:47:13.000Z</time></trkpt>
        <trkpt lat="29.568207" lon="103.390975"><ele>760.14685</ele><time>2026-04-03T10:47:19.000Z</time></trkpt>
        <trkpt lat="29.568214" lon="103.390918"><ele>761.0134</ele><time>2026-04-03T10:47:24.000Z</time></trkpt>
        <trkpt lat="29.568222" lon="103.390856"><ele>756.8866</ele><time>2026-04-03T10:47:30.000Z</time></trkpt>
        <trkpt lat="29.56827" lon="103.390793"><ele>753.62555</ele><time>2026-04-03T10:47:34.000Z</time></trkpt>
        <trkpt lat="29.568314" lon="103.390807"><ele>752.63324</ele><time>2026-04-03T10:47:38.000Z</time></trkpt>
        <trkpt lat="29.568368" lon="103.390782"><ele>753.9183</ele><time>2026-04-03T10:47:41.000Z</time></trkpt>
        <trkpt lat="29.568417" lon="103.390788"><ele>756.0627</ele><time>2026-04-03T10:47:48.000Z</time></trkpt>
        <trkpt lat="29.568406" lon="103.390842"><ele>758.2524</ele><time>2026-04-03T10:47:55.000Z</time></trkpt>
        <trkpt lat="29.568399" lon="103.3909"><ele>763.5054</ele><time>2026-04-03T10:48:09.000Z</time></trkpt>
        <trkpt lat="29.568344" lon="103.390894"><ele>766.42065</ele><time>2026-04-03T10:48:18.000Z</time></trkpt>
        <trkpt lat="29.568338" lon="103.390834"><ele>766.5541</ele><time>2026-04-03T10:48:21.000Z</time></trkpt>
        <trkpt lat="29.568308" lon="103.390794"><ele>767.5156</ele><time>2026-04-03T10:48:28.000Z</time></trkpt>
        <trkpt lat="29.568261" lon="103.390774"><ele>766.6428</ele><time>2026-04-03T10:48:35.000Z</time></trkpt>
        <trkpt lat="29.568217" lon="103.390744"><ele>766.79755</ele><time>2026-04-03T10:48:42.000Z</time></trkpt>
        <trkpt lat="29.568167" lon="103.390727"><ele>766.3508</ele><time>2026-04-03T10:48:52.000Z</time></trkpt>
        <trkpt lat="29.568113" lon="103.390715"><ele>768.5907</ele><time>2026-04-03T10:48:57.000Z</time></trkpt>
        <trkpt lat="29.568062" lon="103.390735"><ele>773.5679</ele><time>2026-04-03T10:49:05.000Z</time></trkpt>
        <trkpt lat="29.568015" lon="103.390719"><ele>771.0313</ele><time>2026-04-03T10:49:14.000Z</time></trkpt>
        <trkpt lat="29.567966" lon="103.390742"><ele>772.98035</ele><time>2026-04-03T10:49:20.000Z</time></trkpt>
        <trkpt lat="29.567922" lon="103.390722"><ele>771.50366</ele><time>2026-04-03T10:49:31.000Z</time></trkpt>
        <trkpt lat="29.567899" lon="103.39067"><ele>772.698</ele><time>2026-04-03T10:49:34.000Z</time></trkpt>
        <trkpt lat="29.567866" lon="103.390629"><ele>772.3148</ele><time>2026-04-03T10:49:37.000Z</time></trkpt>
        <trkpt lat="29.567829" lon="103.390585"><ele>771.0547</ele><time>2026-04-03T10:49:42.000Z</time></trkpt>
        <trkpt lat="29.56781" lon="103.390531"><ele>770.8861</ele><time>2026-04-03T10:49:46.000Z</time></trkpt>
        <trkpt lat="29.567769" lon="103.3905"><ele>768.9103</ele><time>2026-04-03T10:49:50.000Z</time></trkpt>
        <trkpt lat="29.567727" lon="103.390467"><ele>768.9777</ele><time>2026-04-03T10:49:57.000Z</time></trkpt>
        <trkpt lat="29.56768" lon="103.390441"><ele>769.30963</ele><time>2026-04-03T10:50:01.000Z</time></trkpt>
        <trkpt lat="29.567629" lon="103.390419"><ele>766.107</ele><time>2026-04-03T10:50:05.000Z</time></trkpt>
        <trkpt lat="29.567574" lon="103.390392"><ele>765.2609</ele><time>2026-04-03T10:50:09.000Z</time></trkpt>
        <trkpt lat="29.567549" lon="103.390337"><ele>764.06805</ele><time>2026-04-03T10:50:12.000Z</time></trkpt>
        <trkpt lat="29.56752" lon="103.390256"><ele>761.50476</ele><time>2026-04-03T10:50:17.000Z</time></trkpt>
        <trkpt lat="29.567498" lon="103.390195"><ele>760.59467</ele><time>2026-04-03T10:50:20.000Z</time></trkpt>
        <trkpt lat="29.567503" lon="103.390125"><ele>758.82227</ele><time>2026-04-03T10:50:25.000Z</time></trkpt>
        <trkpt lat="29.567478" lon="103.390077"><ele>757.60895</ele><time>2026-04-03T10:50:29.000Z</time></trkpt>
        <trkpt lat="29.567437" lon="103.390036"><ele>758.80383</ele><time>2026-04-03T10:50:34.000Z</time></trkpt>
        <trkpt lat="29.567389" lon="103.390012"><ele>758.0934</ele><time>2026-04-03T10:50:41.000Z</time></trkpt>
        <trkpt lat="29.567335" lon="103.390009"><ele>759.5146</ele><time>2026-04-03T10:50:45.000Z</time></trkpt>
        <trkpt lat="29.567285" lon="103.390007"><ele>760.2315</ele><time>2026-04-03T10:50:49.000Z</time></trkpt>
        <trkpt lat="29.567236" lon="103.390001"><ele>761.5596</ele><time>2026-04-03T10:50:52.000Z</time></trkpt>
        <trkpt lat="29.567197" lon="103.389966"><ele>764.1677</ele><time>2026-04-03T10:50:57.000Z</time></trkpt>
        <trkpt lat="29.567167" lon="103.390007"><ele>763.3657</ele><time>2026-04-03T10:51:01.000Z</time></trkpt>
        <trkpt lat="29.567129" lon="103.390039"><ele>764.5842</ele><time>2026-04-03T10:51:03.000Z</time></trkpt>
        <trkpt lat="29.567079" lon="103.390025"><ele>765.457</ele><time>2026-04-03T10:51:10.000Z</time></trkpt>
        <trkpt lat="29.567032" lon="103.390055"><ele>765.1099</ele><time>2026-04-03T10:51:14.000Z</time></trkpt>
        <trkpt lat="29.566982" lon="103.390068"><ele>766.63446</ele><time>2026-04-03T10:51:20.000Z</time></trkpt>
        <trkpt lat="29.566937" lon="103.390047"><ele>764.9139</ele><time>2026-04-03T10:51:24.000Z</time></trkpt>
        <trkpt lat="29.566906" lon="103.390009"><ele>765.1616</ele><time>2026-04-03T10:51:27.000Z</time></trkpt>
        <trkpt lat="29.566858" lon="103.389978"><ele>764.945</ele><time>2026-04-03T10:51:31.000Z</time></trkpt>
        <trkpt lat="29.566812" lon="103.389971"><ele>764.45856</ele><time>2026-04-03T10:51:35.000Z</time></trkpt>
        <trkpt lat="29.566769" lon="103.389936"><ele>762.4027</ele><time>2026-04-03T10:51:40.000Z</time></trkpt>
        <trkpt lat="29.566716" lon="103.389911"><ele>762.9857</ele><time>2026-04-03T10:51:45.000Z</time></trkpt>
        <trkpt lat="29.566686" lon="103.389869"><ele>760.6183</ele><time>2026-04-03T10:51:48.000Z</time></trkpt>
        <trkpt lat="29.566645" lon="103.389845"><ele>760.1749</ele><time>2026-04-03T10:51:51.000Z</time></trkpt>
        <trkpt lat="29.566592" lon="103.389825"><ele>758.3642</ele><time>2026-04-03T10:51:56.000Z</time></trkpt>
        <trkpt lat="29.566546" lon="103.389808"><ele>757.24554</ele><time>2026-04-03T10:52:01.000Z</time></trkpt>
        <trkpt lat="29.566498" lon="103.389826"><ele>754.8005</ele><time>2026-04-03T10:52:07.000Z</time></trkpt>
        <trkpt lat="29.56645" lon="103.389814"><ele>752.889</ele><time>2026-04-03T10:52:11.000Z</time></trkpt>
        <trkpt lat="29.566406" lon="103.389791"><ele>752.7111</ele><time>2026-04-03T10:52:17.000Z</time></trkpt>
        <trkpt lat="29.566361" lon="103.389805"><ele>751.94495</ele><time>2026-04-03T10:52:19.000Z</time></trkpt>
        <trkpt lat="29.56632" lon="103.389832"><ele>750.7531</ele><time>2026-04-03T10:52:21.000Z</time></trkpt>
        <trkpt lat="29.566278" lon="103.389804"><ele>749.15204</ele><time>2026-04-03T10:52:25.000Z</time></trkpt>
        <trkpt lat="29.566243" lon="103.389771"><ele>748.3777</ele><time>2026-04-03T10:52:29.000Z</time></trkpt>
        <trkpt lat="29.566192" lon="103.389754"><ele>747.8004</ele><time>2026-04-03T10:52:34.000Z</time></trkpt>
        <trkpt lat="29.566143" lon="103.389739"><ele>745.88666</ele><time>2026-04-03T10:52:38.000Z</time></trkpt>
        <trkpt lat="29.566091" lon="103.389717"><ele>746.5161</ele><time>2026-04-03T10:52:41.000Z</time></trkpt>
        <trkpt lat="29.566037" lon="103.389705"><ele>746.973</ele><time>2026-04-03T10:52:46.000Z</time></trkpt>
        <trkpt lat="29.565991" lon="103.389699"><ele>747.37036</ele><time>2026-04-03T10:53:17.000Z</time></trkpt>
        <trkpt lat="29.565959" lon="103.389739"><ele>746.1224</ele><time>2026-04-03T10:53:22.000Z</time></trkpt>
        <trkpt lat="29.565918" lon="103.389762"><ele>743.8798</ele><time>2026-04-03T10:53:29.000Z</time></trkpt>
        <trkpt lat="29.565868" lon="103.389762"><ele>742.2185</ele><time>2026-04-03T10:53:35.000Z</time></trkpt>
        <trkpt lat="29.56582" lon="103.389781"><ele>744.235</ele><time>2026-04-03T10:53:41.000Z</time></trkpt>
        <trkpt lat="29.565782" lon="103.389808"><ele>742.6063</ele><time>2026-04-03T10:53:45.000Z</time></trkpt>
        <trkpt lat="29.565735" lon="103.389801"><ele>742.5716</ele><time>2026-04-03T10:53:48.000Z</time></trkpt>
        <trkpt lat="29.565686" lon="103.389816"><ele>746.2765</ele><time>2026-04-03T10:53:54.000Z</time></trkpt>
        <trkpt lat="29.565647" lon="103.389789"><ele>746.6949</ele><time>2026-04-03T10:53:58.000Z</time></trkpt>
        <trkpt lat="29.565628" lon="103.389725"><ele>745.62683</ele><time>2026-04-03T10:54:07.000Z</time></trkpt>
        <trkpt lat="29.565603" lon="103.389666"><ele>748.91</ele><time>2026-04-03T10:54:21.000Z</time></trkpt>
        <trkpt lat="29.565566" lon="103.389628"><ele>749.9143</ele><time>2026-04-03T10:54:27.000Z</time></trkpt>
        <trkpt lat="29.565523" lon="103.389609"><ele>749.1006</ele><time>2026-04-03T10:54:31.000Z</time></trkpt>
        <trkpt lat="29.565486" lon="103.389574"><ele>751.19995</ele><time>2026-04-03T10:54:38.000Z</time></trkpt>
        <trkpt lat="29.565442" lon="103.389558"><ele>753.9768</ele><time>2026-04-03T10:54:43.000Z</time></trkpt>
        <trkpt lat="29.565391" lon="103.389565"><ele>754.4281</ele><time>2026-04-03T10:54:48.000Z</time></trkpt>
        <trkpt lat="29.565346" lon="103.389536"><ele>755.4327</ele><time>2026-04-03T10:54:52.000Z</time></trkpt>
        <trkpt lat="29.565293" lon="103.38954"><ele>756.0264</ele><time>2026-04-03T10:54:56.000Z</time></trkpt>
        <trkpt lat="29.565243" lon="103.389528"><ele>755.8689</ele><time>2026-04-03T10:55:00.000Z</time></trkpt>
        <trkpt lat="29.565188" lon="103.389529"><ele>754.9156</ele><time>2026-04-03T10:55:05.000Z</time></trkpt>
        <trkpt lat="29.565145" lon="103.389481"><ele>753.78253</ele><time>2026-04-03T10:55:10.000Z</time></trkpt>
        <trkpt lat="29.565105" lon="103.389439"><ele>756.308</ele><time>2026-04-03T10:55:16.000Z</time></trkpt>
        <trkpt lat="29.565068" lon="103.389405"><ele>756.6664</ele><time>2026-04-03T10:55:19.000Z</time></trkpt>
        <trkpt lat="29.565031" lon="103.389373"><ele>756.93085</ele><time>2026-04-03T10:55:23.000Z</time></trkpt>
        <trkpt lat="29.564993" lon="103.389338"><ele>758.2872</ele><time>2026-04-03T10:55:26.000Z</time></trkpt>
        <trkpt lat="29.564953" lon="103.389302"><ele>759.3947</ele><time>2026-04-03T10:55:31.000Z</time></trkpt>
        <trkpt lat="29.564952" lon="103.389246"><ele>759.45325</ele><time>2026-04-03T10:55:37.000Z</time></trkpt>
        <trkpt lat="29.564912" lon="103.389202"><ele>759.6922</ele><time>2026-04-03T10:55:43.000Z</time></trkpt>
        <trkpt lat="29.564899" lon="103.389149"><ele>759.85266</ele><time>2026-04-03T10:55:51.000Z</time></trkpt>
        <trkpt lat="29.56489" lon="103.389088"><ele>760.3981</ele><time>2026-04-03T10:55:55.000Z</time></trkpt>
        <trkpt lat="29.564863" lon="103.389023"><ele>761.1254</ele><time>2026-04-03T10:55:59.000Z</time></trkpt>
        <trkpt lat="29.564832" lon="103.388979"><ele>762.574</ele><time>2026-04-03T10:56:03.000Z</time></trkpt>
        <trkpt lat="29.564788" lon="103.389005"><ele>758.94666</ele><time>2026-04-03T10:56:12.000Z</time></trkpt>
        <trkpt lat="29.564741" lon="103.389029"><ele>757.04724</ele><time>2026-04-03T10:56:16.000Z</time></trkpt>
        <trkpt lat="29.564705" lon="103.389065"><ele>754.0835</ele><time>2026-04-03T10:56:20.000Z</time></trkpt>
        <trkpt lat="29.564666" lon="103.389098"><ele>751.7307</ele><time>2026-04-03T10:56:24.000Z</time></trkpt>
        <trkpt lat="29.564616" lon="103.389101"><ele>749.9708</ele><time>2026-04-03T10:56:30.000Z</time></trkpt>
        <trkpt lat="29.564565" lon="103.389102"><ele>749.92255</ele><time>2026-04-03T10:56:38.000Z</time></trkpt>
        <trkpt lat="29.564511" lon="103.389118"><ele>750.94617</ele><time>2026-04-03T10:56:42.000Z</time></trkpt>
        <trkpt lat="29.564465" lon="103.389127"><ele>749.50006</ele><time>2026-04-03T10:56:47.000Z</time></trkpt>
        <trkpt lat="29.564414" lon="103.389146"><ele>749.75494</ele><time>2026-04-03T10:56:52.000Z</time></trkpt>
        <trkpt lat="29.564367" lon="103.389132"><ele>749.6155</ele><time>2026-04-03T10:56:57.000Z</time></trkpt>
        <trkpt lat="29.564325" lon="103.389108"><ele>751.8134</ele><time>2026-04-03T10:57:07.000Z</time></trkpt>
        <trkpt lat="29.564276" lon="103.389118"><ele>751.4288</ele><time>2026-04-03T10:57:12.000Z</time></trkpt>
        <trkpt lat="29.564227" lon="103.38913"><ele>750.34283</ele><time>2026-04-03T10:57:17.000Z</time></trkpt>
        <trkpt lat="29.564173" lon="103.389124"><ele>749.97705</ele><time>2026-04-03T10:57:21.000Z</time></trkpt>
        <trkpt lat="29.564126" lon="103.38913"><ele>750.04254</ele><time>2026-04-03T10:57:26.000Z</time></trkpt>
        <trkpt lat="29.564088" lon="103.389175"><ele>750.19073</ele><time>2026-04-03T10:57:40.000Z</time></trkpt>
        <trkpt lat="29.564058" lon="103.389229"><ele>751.48114</ele><time>2026-04-03T10:57:52.000Z</time></trkpt>
        <trkpt lat="29.564051" lon="103.389284"><ele>746.4558</ele><time>2026-04-03T10:58:00.000Z</time></trkpt>
        <trkpt lat="29.564006" lon="103.389305"><ele>742.9608</ele><time>2026-04-03T10:58:11.000Z</time></trkpt>
        <trkpt lat="29.563996" lon="103.389243"><ele>744.4594</ele><time>2026-04-03T10:58:27.000Z</time></trkpt>
        <trkpt lat="29.563984" lon="103.389176"><ele>743.57983</ele><time>2026-04-03T10:58:31.000Z</time></trkpt>
        <trkpt lat="29.563973" lon="103.389125"><ele>745.45245</ele><time>2026-04-03T10:58:34.000Z</time></trkpt>
        <trkpt lat="29.563925" lon="103.389119"><ele>753.2476</ele><time>2026-04-03T10:58:44.000Z</time></trkpt>
        <trkpt lat="29.563879" lon="103.389122"><ele>753.2649</ele><time>2026-04-03T10:58:49.000Z</time></trkpt>
        <trkpt lat="29.56383" lon="103.389114"><ele>754.1122</ele><time>2026-04-03T10:58:53.000Z</time></trkpt>
        <trkpt lat="29.563778" lon="103.389113"><ele>756.6951</ele><time>2026-04-03T10:58:59.000Z</time></trkpt>
        <trkpt lat="29.563728" lon="103.389101"><ele>758.7008</ele><time>2026-04-03T10:59:04.000Z</time></trkpt>
        <trkpt lat="29.563682" lon="103.389115"><ele>761.2324</ele><time>2026-04-03T10:59:10.000Z</time></trkpt>
        <trkpt lat="29.563636" lon="103.389109"><ele>763.37714</ele><time>2026-04-03T10:59:16.000Z</time></trkpt>
        <trkpt lat="29.563591" lon="103.389081"><ele>760.7029</ele><time>2026-04-03T10:59:22.000Z</time></trkpt>
        <trkpt lat="29.563545" lon="103.389062"><ele>759.6453</ele><time>2026-04-03T10:59:26.000Z</time></trkpt>
        <trkpt lat="29.563505" lon="103.389032"><ele>759.8784</ele><time>2026-04-03T10:59:31.000Z</time></trkpt>
        <trkpt lat="29.563461" lon="103.389048"><ele>756.3152</ele><time>2026-04-03T10:59:42.000Z</time></trkpt>
        <trkpt lat="29.563411" lon="103.389063"><ele>758.07947</ele><time>2026-04-03T10:59:47.000Z</time></trkpt>
        <trkpt lat="29.563362" lon="103.389068"><ele>761.1185</ele><time>2026-04-03T10:59:53.000Z</time></trkpt>
        <trkpt lat="29.563326" lon="103.389111"><ele>761.9606</ele><time>2026-04-03T10:59:57.000Z</time></trkpt>
        <trkpt lat="29.563274" lon="103.389114"><ele>762.54205</ele><time>2026-04-03T11:00:01.000Z</time></trkpt>
        <trkpt lat="29.563223" lon="103.389113"><ele>763.773</ele><time>2026-04-03T11:00:08.000Z</time></trkpt>
        <trkpt lat="29.563177" lon="103.389101"><ele>757.7609</ele><time>2026-04-03T11:00:16.000Z</time></trkpt>
        <trkpt lat="29.563128" lon="103.389111"><ele>750.5673</ele><time>2026-04-03T11:00:58.000Z</time></trkpt>
        <trkpt lat="29.563084" lon="103.389122"><ele>753.9789</ele><time>2026-04-03T11:01:08.000Z</time></trkpt>
        <trkpt lat="29.56304" lon="103.389138"><ele>754.99255</ele><time>2026-04-03T11:01:15.000Z</time></trkpt>
        <trkpt lat="29.562992" lon="103.389156"><ele>762.37933</ele><time>2026-04-03T11:01:23.000Z</time></trkpt>
        <trkpt lat="29.562951" lon="103.389179"><ele>766.5922</ele><time>2026-04-03T11:01:30.000Z</time></trkpt>
        <trkpt lat="29.562905" lon="103.389185"><ele>764.62006</ele><time>2026-04-03T11:01:39.000Z</time></trkpt>
        <trkpt lat="29.562867" lon="103.389151"><ele>762.9176</ele><time>2026-04-03T11:01:49.000Z</time></trkpt>
        <trkpt lat="29.562819" lon="103.38915"><ele>763.16846</ele><time>2026-04-03T11:01:54.000Z</time></trkpt>
        <trkpt lat="29.562771" lon="103.389172"><ele>770.24176</ele><time>2026-04-03T11:02:00.000Z</time></trkpt>
        <trkpt lat="29.562726" lon="103.38919"><ele>771.95496</ele><time>2026-04-03T11:02:11.000Z</time></trkpt>
        <trkpt lat="29.562705" lon="103.389239"><ele>775.0241</ele><time>2026-04-03T11:02:17.000Z</time></trkpt>
        <trkpt lat="29.562686" lon="103.389288"><ele>774.36536</ele><time>2026-04-03T11:02:20.000Z</time></trkpt>
        <trkpt lat="29.562654" lon="103.389341"><ele>773.1658</ele><time>2026-04-03T11:02:25.000Z</time></trkpt>
        <trkpt lat="29.562616" lon="103.389379"><ele>774.012</ele><time>2026-04-03T11:02:29.000Z</time></trkpt>
        <trkpt lat="29.562591" lon="103.389423"><ele>772.80597</ele><time>2026-04-03T11:02:34.000Z</time></trkpt>
        <trkpt lat="29.56254" lon="103.389428"><ele>773.2913</ele><time>2026-04-03T11:02:41.000Z</time></trkpt>
        <trkpt lat="29.562498" lon="103.389392"><ele>776.0613</ele><time>2026-04-03T11:02:46.000Z</time></trkpt>
        <trkpt lat="29.562452" lon="103.389361"><ele>777.4437</ele><time>2026-04-03T11:02:52.000Z</time></trkpt>
        <trkpt lat="29.562418" lon="103.389321"><ele>781.2967</ele><time>2026-04-03T11:03:02.000Z</time></trkpt>
        <trkpt lat="29.56237" lon="103.389323"><ele>787.11865</ele><time>2026-04-03T11:03:13.000Z</time></trkpt>
        <trkpt lat="29.562334" lon="103.389368"><ele>789.2221</ele><time>2026-04-03T11:03:24.000Z</time></trkpt>
        <trkpt lat="29.562299" lon="103.389413"><ele>787.37427</ele><time>2026-04-03T11:03:31.000Z</time></trkpt>
        <trkpt lat="29.562269" lon="103.38946"><ele>783.8672</ele><time>2026-04-03T11:03:38.000Z</time></trkpt>
        <trkpt lat="29.562224" lon="103.389487"><ele>785.69543</ele><time>2026-04-03T11:03:47.000Z</time></trkpt>
        <trkpt lat="29.562175" lon="103.38947"><ele>790.09576</ele><time>2026-04-03T11:03:57.000Z</time></trkpt>
        <trkpt lat="29.562129" lon="103.389501"><ele>795.03595</ele><time>2026-04-03T11:04:07.000Z</time></trkpt>
        <trkpt lat="29.562074" lon="103.389495"><ele>793.8806</ele><time>2026-04-03T11:04:12.000Z</time></trkpt>
        <trkpt lat="29.562027" lon="103.389507"><ele>794.56757</ele><time>2026-04-03T11:04:24.000Z</time></trkpt>
        <trkpt lat="29.561981" lon="103.389509"><ele>796.769</ele><time>2026-04-03T11:04:29.000Z</time></trkpt>
        <trkpt lat="29.561936" lon="103.389538"><ele>797.2515</ele><time>2026-04-03T11:04:34.000Z</time></trkpt>
        <trkpt lat="29.56189" lon="103.389523"><ele>797.83185</ele><time>2026-04-03T11:04:41.000Z</time></trkpt>
        <trkpt lat="29.561839" lon="103.389522"><ele>798.60114</ele><time>2026-04-03T11:04:45.000Z</time></trkpt>
        <trkpt lat="29.561808" lon="103.38948"><ele>799.39276</ele><time>2026-04-03T11:04:51.000Z</time></trkpt>
        <trkpt lat="29.561779" lon="103.38942"><ele>802.97003</ele><time>2026-04-03T11:05:00.000Z</time></trkpt>
        <trkpt lat="29.561731" lon="103.389398"><ele>802.5425</ele><time>2026-04-03T11:05:05.000Z</time></trkpt>
        <trkpt lat="29.561686" lon="103.389397"><ele>802.26166</ele><time>2026-04-03T11:05:10.000Z</time></trkpt>
        <trkpt lat="29.561644" lon="103.389376"><ele>800.93713</ele><time>2026-04-03T11:05:14.000Z</time></trkpt>
        <trkpt lat="29.561592" lon="103.389371"><ele>798.864</ele><time>2026-04-03T11:05:18.000Z</time></trkpt>
        <trkpt lat="29.561542" lon="103.389377"><ele>798.93445</ele><time>2026-04-03T11:05:21.000Z</time></trkpt>
        <trkpt lat="29.561491" lon="103.389363"><ele>800.80945</ele><time>2026-04-03T11:05:25.000Z</time></trkpt>
        <trkpt lat="29.561442" lon="103.38937"><ele>800.35297</ele><time>2026-04-03T11:05:29.000Z</time></trkpt>
        <trkpt lat="29.561394" lon="103.389376"><ele>800.12</ele><time>2026-04-03T11:05:33.000Z</time></trkpt>
        <trkpt lat="29.561354" lon="103.38934"><ele>797.43304</ele><time>2026-04-03T11:05:39.000Z</time></trkpt>
        <trkpt lat="29.561308" lon="103.389327"><ele>797.8863</ele><time>2026-04-03T11:05:45.000Z</time></trkpt>
        <trkpt lat="29.561254" lon="103.389315"><ele>799.00214</ele><time>2026-04-03T11:05:50.000Z</time></trkpt>
        <trkpt lat="29.561213" lon="103.389343"><ele>799.1436</ele><time>2026-04-03T11:06:03.000Z</time></trkpt>
        <trkpt lat="29.561164" lon="103.389345"><ele>800.0944</ele><time>2026-04-03T11:06:08.000Z</time></trkpt>
        <trkpt lat="29.561118" lon="103.389353"><ele>801.3127</ele><time>2026-04-03T11:06:13.000Z</time></trkpt>
        <trkpt lat="29.561072" lon="103.389363"><ele>802.1848</ele><time>2026-04-03T11:06:17.000Z</time></trkpt>
        <trkpt lat="29.561023" lon="103.389369"><ele>800.4375</ele><time>2026-04-03T11:06:22.000Z</time></trkpt>
        <trkpt lat="29.560989" lon="103.389413"><ele>800.0398</ele><time>2026-04-03T11:06:35.000Z</time></trkpt>
        <trkpt lat="29.560931" lon="103.389399"><ele>797.3256</ele><time>2026-04-03T11:06:43.000Z</time></trkpt>
        <trkpt lat="29.560883" lon="103.389398"><ele>797.33673</ele><time>2026-04-03T11:06:50.000Z</time></trkpt>
        <trkpt lat="29.560836" lon="103.389413"><ele>792.6182</ele><time>2026-04-03T11:06:53.000Z</time></trkpt>
        <trkpt lat="29.560785" lon="103.389417"><ele>789.414</ele><time>2026-04-03T11:06:57.000Z</time></trkpt>
        <trkpt lat="29.560725" lon="103.389407"><ele>795.3173</ele><time>2026-04-03T11:07:01.000Z</time></trkpt>
        <trkpt lat="29.56068" lon="103.389415"><ele>789.6364</ele><time>2026-04-03T11:07:07.000Z</time></trkpt>
        <trkpt lat="29.560637" lon="103.38945"><ele>788.27905</ele><time>2026-04-03T11:07:12.000Z</time></trkpt>
        <trkpt lat="29.560584" lon="103.389454"><ele>788.0524</ele><time>2026-04-03T11:07:16.000Z</time></trkpt>
        <trkpt lat="29.560528" lon="103.389459"><ele>788.3617</ele><time>2026-04-03T11:07:21.000Z</time></trkpt>
        <trkpt lat="29.560481" lon="103.389454"><ele>789.4846</ele><time>2026-04-03T11:07:30.000Z</time></trkpt>
        <trkpt lat="29.560427" lon="103.389442"><ele>790.7586</ele><time>2026-04-03T11:07:33.000Z</time></trkpt>
        <trkpt lat="29.56038" lon="103.389428"><ele>795.0794</ele><time>2026-04-03T11:07:37.000Z</time></trkpt>
        <trkpt lat="29.560345" lon="103.389394"><ele>799.41534</ele><time>2026-04-03T11:07:45.000Z</time></trkpt>
        <trkpt lat="29.560299" lon="103.389381"><ele>792.4764</ele><time>2026-04-03T11:07:55.000Z</time></trkpt>
        <trkpt lat="29.560342" lon="103.389365"><ele>797.8989</ele><time>2026-04-03T11:08:18.000Z</time></trkpt>
        <trkpt lat="29.560315" lon="103.389322"><ele>798.87036</ele><time>2026-04-03T11:08:35.000Z</time></trkpt>
        <trkpt lat="29.560275" lon="103.389295"><ele>794.73047</ele><time>2026-04-03T11:08:52.000Z</time></trkpt>
        <trkpt lat="29.560239" lon="103.389256"><ele>792.98804</ele><time>2026-04-03T11:08:59.000Z</time></trkpt>
        <trkpt lat="29.56022" lon="103.389209"><ele>793.7508</ele><time>2026-04-03T11:09:03.000Z</time></trkpt>
        <trkpt lat="29.560195" lon="103.38916"><ele>797.15967</ele><time>2026-04-03T11:09:09.000Z</time></trkpt>
        <trkpt lat="29.560167" lon="103.389104"><ele>796.2674</ele><time>2026-04-03T11:09:14.000Z</time></trkpt>
        <trkpt lat="29.560133" lon="103.389056"><ele>797.5646</ele><time>2026-04-03T11:09:19.000Z</time></trkpt>
        <trkpt lat="29.560111" lon="103.389006"><ele>795.85016</ele><time>2026-04-03T11:09:26.000Z</time></trkpt>
        <trkpt lat="29.560088" lon="103.388954"><ele>798.0163</ele><time>2026-04-03T11:09:32.000Z</time></trkpt>
        <trkpt lat="29.560077" lon="103.388902"><ele>798.17334</ele><time>2026-04-03T11:09:39.000Z</time></trkpt>
        <trkpt lat="29.560102" lon="103.388858"><ele>796.9607</ele><time>2026-04-03T11:09:45.000Z</time></trkpt>
        <trkpt lat="29.560142" lon="103.388824"><ele>797.24286</ele><time>2026-04-03T11:09:49.000Z</time></trkpt>
        <trkpt lat="29.560125" lon="103.38876"><ele>796.7388</ele><time>2026-04-03T11:09:59.000Z</time></trkpt>
        <trkpt lat="29.560082" lon="103.388737"><ele>798.36505</ele><time>2026-04-03T11:10:03.000Z</time></trkpt>
        <trkpt lat="29.560047" lon="103.388701"><ele>796.3792</ele><time>2026-04-03T11:10:08.000Z</time></trkpt>
        <trkpt lat="29.559996" lon="103.388671"><ele>796.8092</ele><time>2026-04-03T11:10:14.000Z</time></trkpt>
        <trkpt lat="29.559946" lon="103.388648"><ele>795.95337</ele><time>2026-04-03T11:10:19.000Z</time></trkpt>
        <trkpt lat="29.559903" lon="103.388608"><ele>793.77673</ele><time>2026-04-03T11:10:25.000Z</time></trkpt>
        <trkpt lat="29.559856" lon="103.388577"><ele>795.0202</ele><time>2026-04-03T11:10:30.000Z</time></trkpt>
        <trkpt lat="29.559827" lon="103.388534"><ele>794.47754</ele><time>2026-04-03T11:10:35.000Z</time></trkpt>
        <trkpt lat="29.559789" lon="103.388499"><ele>794.52234</ele><time>2026-04-03T11:10:41.000Z</time></trkpt>
        <trkpt lat="29.559749" lon="103.388461"><ele>794.9595</ele><time>2026-04-03T11:10:48.000Z</time></trkpt>
        <trkpt lat="29.559708" lon="103.388419"><ele>795.0149</ele><time>2026-04-03T11:10:54.000Z</time></trkpt>
        <trkpt lat="29.559675" lon="103.388363"><ele>794.03485</ele><time>2026-04-03T11:10:59.000Z</time></trkpt>
        <trkpt lat="29.559669" lon="103.388309"><ele>793.3358</ele><time>2026-04-03T11:11:07.000Z</time></trkpt>
        <trkpt lat="29.559651" lon="103.388261"><ele>794.7356</ele><time>2026-04-03T11:11:11.000Z</time></trkpt>
        <trkpt lat="29.559603" lon="103.388237"><ele>797.56476</ele><time>2026-04-03T11:11:15.000Z</time></trkpt>
        <trkpt lat="29.559562" lon="103.388205"><ele>800.42523</ele><time>2026-04-03T11:11:18.000Z</time></trkpt>
        <trkpt lat="29.559519" lon="103.388168"><ele>802.0073</ele><time>2026-04-03T11:11:22.000Z</time></trkpt>
        <trkpt lat="29.559477" lon="103.38813"><ele>804.1147</ele><time>2026-04-03T11:11:27.000Z</time></trkpt>
        <trkpt lat="29.559431" lon="103.388104"><ele>805.88293</ele><time>2026-04-03T11:11:36.000Z</time></trkpt>
        <trkpt lat="29.559424" lon="103.388051"><ele>803.82025</ele><time>2026-04-03T11:11:43.000Z</time></trkpt>
        <trkpt lat="29.559391" lon="103.388006"><ele>802.2572</ele><time>2026-04-03T11:11:50.000Z</time></trkpt>
        <trkpt lat="29.559353" lon="103.387972"><ele>801.4348</ele><time>2026-04-03T11:11:55.000Z</time></trkpt>
        <trkpt lat="29.559332" lon="103.387925"><ele>800.8395</ele><time>2026-04-03T11:11:58.000Z</time></trkpt>
        <trkpt lat="29.559292" lon="103.387884"><ele>800.2533</ele><time>2026-04-03T11:12:03.000Z</time></trkpt>
        <trkpt lat="29.559245" lon="103.38785"><ele>800.9169</ele><time>2026-04-03T11:12:08.000Z</time></trkpt>
        <trkpt lat="29.559196" lon="103.387857"><ele>802.1324</ele><time>2026-04-03T11:12:13.000Z</time></trkpt>
        <trkpt lat="29.559145" lon="103.387877"><ele>800.67</ele><time>2026-04-03T11:12:19.000Z</time></trkpt>
        <trkpt lat="29.559099" lon="103.38788"><ele>799.8142</ele><time>2026-04-03T11:12:25.000Z</time></trkpt>
        <trkpt lat="29.559052" lon="103.387873"><ele>799.7585</ele><time>2026-04-03T11:12:30.000Z</time></trkpt>
        <trkpt lat="29.559005" lon="103.387859"><ele>800.122</ele><time>2026-04-03T11:12:35.000Z</time></trkpt>
        <trkpt lat="29.558961" lon="103.387879"><ele>800.6719</ele><time>2026-04-03T11:12:40.000Z</time></trkpt>
        <trkpt lat="29.558907" lon="103.387901"><ele>800.64844</ele><time>2026-04-03T11:12:45.000Z</time></trkpt>
        <trkpt lat="29.558855" lon="103.387906"><ele>802.7969</ele><time>2026-04-03T11:12:50.000Z</time></trkpt>
        <trkpt lat="29.5588" lon="103.387922"><ele>804.102</ele><time>2026-04-03T11:12:54.000Z</time></trkpt>
        <trkpt lat="29.558754" lon="103.387902"><ele>804.4539</ele><time>2026-04-03T11:12:58.000Z</time></trkpt>
        <trkpt lat="29.558708" lon="103.387896"><ele>806.08154</ele><time>2026-04-03T11:13:02.000Z</time></trkpt>
        <trkpt lat="29.558668" lon="103.387864"><ele>807.9343</ele><time>2026-04-03T11:13:06.000Z</time></trkpt>
        <trkpt lat="29.558632" lon="103.387831"><ele>808.51404</ele><time>2026-04-03T11:13:11.000Z</time></trkpt>
        <trkpt lat="29.558588" lon="103.387803"><ele>807.73517</ele><time>2026-04-03T11:13:15.000Z</time></trkpt>
        <trkpt lat="29.558541" lon="103.387792"><ele>807.7817</ele><time>2026-04-03T11:13:19.000Z</time></trkpt>
        <trkpt lat="29.558502" lon="103.387748"><ele>803.67694</ele><time>2026-04-03T11:13:27.000Z</time></trkpt>
        <trkpt lat="29.558477" lon="103.387688"><ele>807.40295</ele><time>2026-04-03T11:13:32.000Z</time></trkpt>
        <trkpt lat="29.558438" lon="103.387644"><ele>808.3888</ele><time>2026-04-03T11:13:36.000Z</time></trkpt>
        <trkpt lat="29.558412" lon="103.387597"><ele>810.0726</ele><time>2026-04-03T11:13:40.000Z</time></trkpt>
        <trkpt lat="29.558366" lon="103.387562"><ele>809.6423</ele><time>2026-04-03T11:13:45.000Z</time></trkpt>
        <trkpt lat="29.558338" lon="103.387517"><ele>808.2665</ele><time>2026-04-03T11:13:49.000Z</time></trkpt>
        <trkpt lat="29.558289" lon="103.387526"><ele>812.2785</ele><time>2026-04-03T11:13:55.000Z</time></trkpt>
        <trkpt lat="29.558262" lon="103.387481"><ele>814.9362</ele><time>2026-04-03T11:14:01.000Z</time></trkpt>
        <trkpt lat="29.558217" lon="103.387457"><ele>817.7689</ele><time>2026-04-03T11:14:06.000Z</time></trkpt>
        <trkpt lat="29.558188" lon="103.387404"><ele>816.7465</ele><time>2026-04-03T11:14:11.000Z</time></trkpt>
        <trkpt lat="29.558134" lon="103.387401"><ele>819.7753</ele><time>2026-04-03T11:14:21.000Z</time></trkpt>
        <trkpt lat="29.55813" lon="103.387348"><ele>818.27325</ele><time>2026-04-03T11:14:25.000Z</time></trkpt>
        <trkpt lat="29.558111" lon="103.3873"><ele>819.3123</ele><time>2026-04-03T11:14:33.000Z</time></trkpt>
        <trkpt lat="29.558072" lon="103.387264"><ele>822.1508</ele><time>2026-04-03T11:14:40.000Z</time></trkpt>
        <trkpt lat="29.558027" lon="103.387226"><ele>820.5715</ele><time>2026-04-03T11:14:49.000Z</time></trkpt>
        <trkpt lat="29.558" lon="103.387185"><ele>819.5062</ele><time>2026-04-03T11:14:52.000Z</time></trkpt>
        <trkpt lat="29.557957" lon="103.387159"><ele>818.17114</ele><time>2026-04-03T11:14:55.000Z</time></trkpt>
        <trkpt lat="29.557909" lon="103.387133"><ele>818.7812</ele><time>2026-04-03T11:15:00.000Z</time></trkpt>
        <trkpt lat="29.557855" lon="103.387132"><ele>818.9394</ele><time>2026-04-03T11:15:04.000Z</time></trkpt>
        <trkpt lat="29.557808" lon="103.387116"><ele>816.2787</ele><time>2026-04-03T11:15:07.000Z</time></trkpt>
        <trkpt lat="29.557791" lon="103.387068"><ele>814.87115</ele><time>2026-04-03T11:15:11.000Z</time></trkpt>
        <trkpt lat="29.557754" lon="103.387036"><ele>813.73395</ele><time>2026-04-03T11:15:17.000Z</time></trkpt>
        <trkpt lat="29.557714" lon="103.387071"><ele>818.3684</ele><time>2026-04-03T11:15:25.000Z</time></trkpt>
        <trkpt lat="29.557688" lon="103.387017"><ele>819.70087</ele><time>2026-04-03T11:15:35.000Z</time></trkpt>
        <trkpt lat="29.557686" lon="103.386966"><ele>822.8117</ele><time>2026-04-03T11:15:42.000Z</time></trkpt>
        <trkpt lat="29.557676" lon="103.386913"><ele>824.32574</ele><time>2026-04-03T11:15:47.000Z</time></trkpt>
        <trkpt lat="29.557632" lon="103.386876"><ele>830.0709</ele><time>2026-04-03T11:15:53.000Z</time></trkpt>
        <trkpt lat="29.557606" lon="103.386821"><ele>829.9579</ele><time>2026-04-03T11:15:57.000Z</time></trkpt>
        <trkpt lat="29.557583" lon="103.386765"><ele>829.8574</ele><time>2026-04-03T11:16:01.000Z</time></trkpt>
        <trkpt lat="29.557559" lon="103.386713"><ele>827.42706</ele><time>2026-04-03T11:16:06.000Z</time></trkpt>
        <trkpt lat="29.557525" lon="103.386673"><ele>828.419</ele><time>2026-04-03T11:16:11.000Z</time></trkpt>
        <trkpt lat="29.557503" lon="103.386627"><ele>826.94434</ele><time>2026-04-03T11:16:19.000Z</time></trkpt>
        <trkpt lat="29.557435" lon="103.386645"><ele>825.7956</ele><time>2026-04-03T11:16:23.000Z</time></trkpt>
        <trkpt lat="29.557398" lon="103.386609"><ele>827.3226</ele><time>2026-04-03T11:16:27.000Z</time></trkpt>
        <trkpt lat="29.557368" lon="103.386552"><ele>829.3341</ele><time>2026-04-03T11:16:31.000Z</time></trkpt>
        <trkpt lat="29.557323" lon="103.386542"><ele>831.98126</ele><time>2026-04-03T11:16:35.000Z</time></trkpt>
        <trkpt lat="29.55729" lon="103.386505"><ele>832.8042</ele><time>2026-04-03T11:16:38.000Z</time></trkpt>
        <trkpt lat="29.55725" lon="103.38647"><ele>839.03577</ele><time>2026-04-03T11:16:52.000Z</time></trkpt>
        <trkpt lat="29.557195" lon="103.386473"><ele>835.2672</ele><time>2026-04-03T11:16:59.000Z</time></trkpt>
        <trkpt lat="29.557161" lon="103.386523"><ele>835.0767</ele><time>2026-04-03T11:17:05.000Z</time></trkpt>
        <trkpt lat="29.557106" lon="103.386503"><ele>831.8773</ele><time>2026-04-03T11:17:09.000Z</time></trkpt>
        <trkpt lat="29.557055" lon="103.386484"><ele>830.2138</ele><time>2026-04-03T11:17:16.000Z</time></trkpt>
        <trkpt lat="29.557029" lon="103.386438"><ele>832.4766</ele><time>2026-04-03T11:17:22.000Z</time></trkpt>
        <trkpt lat="29.557013" lon="103.386379"><ele>835.012</ele><time>2026-04-03T11:17:27.000Z</time></trkpt>
        <trkpt lat="29.557007" lon="103.386325"><ele>835.616</ele><time>2026-04-03T11:17:30.000Z</time></trkpt>
        <trkpt lat="29.556984" lon="103.38627"><ele>835.97485</ele><time>2026-04-03T11:17:35.000Z</time></trkpt>
        <trkpt lat="29.556963" lon="103.38622"><ele>837.49585</ele><time>2026-04-03T11:17:39.000Z</time></trkpt>
        <trkpt lat="29.556913" lon="103.386194"><ele>842.3422</ele><time>2026-04-03T11:17:43.000Z</time></trkpt>
        <trkpt lat="29.556878" lon="103.386161"><ele>842.12585</ele><time>2026-04-03T11:17:48.000Z</time></trkpt>
        <trkpt lat="29.556847" lon="103.386116"><ele>842.47516</ele><time>2026-04-03T11:17:54.000Z</time></trkpt>
        <trkpt lat="29.556796" lon="103.386101"><ele>842.857</ele><time>2026-04-03T11:18:02.000Z</time></trkpt>
        <trkpt lat="29.556755" lon="103.386066"><ele>843.791</ele><time>2026-04-03T11:18:16.000Z</time></trkpt>
        <trkpt lat="29.556745" lon="103.386119"><ele>842.2042</ele><time>2026-04-03T11:18:34.000Z</time></trkpt>
        <trkpt lat="29.5567" lon="103.38615"><ele>840.0585</ele><time>2026-04-03T11:18:42.000Z</time></trkpt>
        <trkpt lat="29.556655" lon="103.386184"><ele>836.7534</ele><time>2026-04-03T11:18:47.000Z</time></trkpt>
        <trkpt lat="29.556605" lon="103.386206"><ele>834.8529</ele><time>2026-04-03T11:18:53.000Z</time></trkpt>
        <trkpt lat="29.556558" lon="103.386196"><ele>838.68585</ele><time>2026-04-03T11:19:12.000Z</time></trkpt>
        <trkpt lat="29.556512" lon="103.386176"><ele>839.1375</ele><time>2026-04-03T11:19:29.000Z</time></trkpt>
        <trkpt lat="29.556468" lon="103.386145"><ele>834.06494</ele><time>2026-04-03T11:20:06.000Z</time></trkpt>
        <trkpt lat="29.556445" lon="103.386097"><ele>834.6231</ele><time>2026-04-03T11:20:26.000Z</time></trkpt>
        <trkpt lat="29.556442" lon="103.38604"><ele>848.9999</ele><time>2026-04-03T11:20:55.000Z</time></trkpt>
        <trkpt lat="29.556405" lon="103.386001"><ele>850.61786</ele><time>2026-04-03T11:21:05.000Z</time></trkpt>
        <trkpt lat="29.556363" lon="103.386025"><ele>857.40247</ele><time>2026-04-03T11:21:12.000Z</time></trkpt>
        <trkpt lat="29.556339" lon="103.386071"><ele>858.6608</ele><time>2026-04-03T11:21:22.000Z</time></trkpt>
        <trkpt lat="29.556301" lon="103.386111"><ele>860.26483</ele><time>2026-04-03T11:21:30.000Z</time></trkpt>
        <trkpt lat="29.556284" lon="103.386164"><ele>864.20197</ele><time>2026-04-03T11:21:37.000Z</time></trkpt>
        <trkpt lat="29.556231" lon="103.38615"><ele>859.8261</ele><time>2026-04-03T11:21:48.000Z</time></trkpt>
        <trkpt lat="29.556185" lon="103.386129"><ele>863.1555</ele><time>2026-04-03T11:21:59.000Z</time></trkpt>
        <trkpt lat="29.556136" lon="103.386118"><ele>864.0597</ele><time>2026-04-03T11:22:07.000Z</time></trkpt>
        <trkpt lat="29.556087" lon="103.386111"><ele>868.29395</ele><time>2026-04-03T11:22:20.000Z</time></trkpt>
        <trkpt lat="29.556043" lon="103.386123"><ele>872.6916</ele><time>2026-04-03T11:22:28.000Z</time></trkpt>
        <trkpt lat="29.555998" lon="103.386095"><ele>874.9611</ele><time>2026-04-03T11:22:38.000Z</time></trkpt>
        <trkpt lat="29.555955" lon="103.38607"><ele>877.47473</ele><time>2026-04-03T11:22:51.000Z</time></trkpt>
        <trkpt lat="29.555928" lon="103.386021"><ele>881.08276</ele><time>2026-04-03T11:23:01.000Z</time></trkpt>
        <trkpt lat="29.555971" lon="103.386008"><ele>884.56537</ele><time>2026-04-03T11:23:12.000Z</time></trkpt>
        <trkpt lat="29.556021" lon="103.386009"><ele>881.7341</ele><time>2026-04-03T11:23:39.000Z</time></trkpt>
        <trkpt lat="29.556062" lon="103.385989"><ele>882.87256</ele><time>2026-04-03T11:23:51.000Z</time></trkpt>
        <trkpt lat="29.556095" lon="103.38595"><ele>884.2735</ele><time>2026-04-03T11:23:57.000Z</time></trkpt>
        <trkpt lat="29.55605" lon="103.385938"><ele>886.19586</ele><time>2026-04-03T11:24:06.000Z</time></trkpt>
        <trkpt lat="29.555998" lon="103.385945"><ele>887.40704</ele><time>2026-04-03T11:24:15.000Z</time></trkpt>
        <trkpt lat="29.556007" lon="103.385893"><ele>887.759</ele><time>2026-04-03T11:24:28.000Z</time></trkpt>
        <trkpt lat="29.556033" lon="103.385851"><ele>887.6805</ele><time>2026-04-03T11:24:34.000Z</time></trkpt>
        <trkpt lat="29.556053" lon="103.385802"><ele>890.2096</ele><time>2026-04-03T11:24:41.000Z</time></trkpt>
        <trkpt lat="29.556035" lon="103.38575"><ele>889.5772</ele><time>2026-04-03T11:24:47.000Z</time></trkpt>
        <trkpt lat="29.556052" lon="103.385699"><ele>890.1439</ele><time>2026-04-03T11:24:56.000Z</time></trkpt>
        <trkpt lat="29.556076" lon="103.385653"><ele>891.3482</ele><time>2026-04-03T11:25:03.000Z</time></trkpt>
        <trkpt lat="29.556071" lon="103.3856"><ele>892.18134</ele><time>2026-04-03T11:25:07.000Z</time></trkpt>
        <trkpt lat="29.556079" lon="103.385546"><ele>893.0809</ele><time>2026-04-03T11:25:12.000Z</time></trkpt>
        <trkpt lat="29.556086" lon="103.385493"><ele>895.7586</ele><time>2026-04-03T11:25:18.000Z</time></trkpt>
        <trkpt lat="29.556086" lon="103.385437"><ele>895.0884</ele><time>2026-04-03T11:25:24.000Z</time></trkpt>
        <trkpt lat="29.556046" lon="103.38549"><ele>894.9279</ele><time>2026-04-03T11:25:35.000Z</time></trkpt>
        <trkpt lat="29.556031" lon="103.385545"><ele>896.8536</ele><time>2026-04-03T11:25:40.000Z</time></trkpt>
        <trkpt lat="29.555994" lon="103.385585"><ele>899.37573</ele><time>2026-04-03T11:25:50.000Z</time></trkpt>
        <trkpt lat="29.555954" lon="103.385613"><ele>900.0248</ele><time>2026-04-03T11:25:57.000Z</time></trkpt>
        <trkpt lat="29.555918" lon="103.385649"><ele>900.5738</ele><time>2026-04-03T11:26:04.000Z</time></trkpt>
        <trkpt lat="29.555901" lon="103.385601"><ele>903.9694</ele><time>2026-04-03T11:26:39.000Z</time></trkpt>
        <trkpt lat="29.555919" lon="103.38555"><ele>905.4122</ele><time>2026-04-03T11:26:45.000Z</time></trkpt>
        <trkpt lat="29.555886" lon="103.385511"><ele>909.64746</ele><time>2026-04-03T11:26:55.000Z</time></trkpt>
        <trkpt lat="29.555841" lon="103.38553"><ele>912.8721</ele><time>2026-04-03T11:27:06.000Z</time></trkpt>
        <trkpt lat="29.555804" lon="103.385561"><ele>915.1123</ele><time>2026-04-03T11:27:14.000Z</time></trkpt>
        <trkpt lat="29.555762" lon="103.385535"><ele>922.3255</ele><time>2026-04-03T11:27:28.000Z</time></trkpt>
        <trkpt lat="29.555772" lon="103.385479"><ele>922.82086</ele><time>2026-04-03T11:28:01.000Z</time></trkpt>
        <trkpt lat="29.555754" lon="103.385432"><ele>922.0953</ele><time>2026-04-03T11:28:09.000Z</time></trkpt>
        <trkpt lat="29.555723" lon="103.385383"><ele>921.6644</ele><time>2026-04-03T11:28:16.000Z</time></trkpt>
        <trkpt lat="29.555688" lon="103.385344"><ele>925.8759</ele><time>2026-04-03T11:28:41.000Z</time></trkpt>
        <trkpt lat="29.555672" lon="103.385295"><ele>927.3175</ele><time>2026-04-03T11:28:51.000Z</time></trkpt>
        <trkpt lat="29.555666" lon="103.385243"><ele>929.06824</ele><time>2026-04-03T11:29:04.000Z</time></trkpt>
        <trkpt lat="29.555648" lon="103.385291"><ele>926.9972</ele><time>2026-04-03T11:33:50.000Z</time></trkpt>
        <trkpt lat="29.555665" lon="103.385345"><ele>937.71075</ele><time>2026-04-03T11:40:28.000Z</time></trkpt>
        <trkpt lat="29.555664" lon="103.385293"><ele>940.05</ele><time>2026-04-03T11:44:22.000Z</time></trkpt>
        <trkpt lat="29.555669" lon="103.385235"><ele>934.1932</ele><time>2026-04-03T11:44:38.000Z</time></trkpt>
        <trkpt lat="29.555676" lon="103.385183"><ele>931.59235</ele><time>2026-04-03T11:44:46.000Z</time></trkpt>
        <trkpt lat="29.555704" lon="103.385139"><ele>932.2709</ele><time>2026-04-03T11:44:55.000Z</time></trkpt>
        <trkpt lat="29.555663" lon="103.385107"><ele>933.27637</ele><time>2026-04-03T11:45:10.000Z</time></trkpt>
        <trkpt lat="29.555609" lon="103.385102"><ele>935.91296</ele><time>2026-04-03T11:45:18.000Z</time></trkpt>
        <trkpt lat="29.555578" lon="103.385142"><ele>940.9646</ele><time>2026-04-03T11:45:33.000Z</time></trkpt>
        <trkpt lat="29.555533" lon="103.38513"><ele>939.9077</ele><time>2026-04-03T11:45:38.000Z</time></trkpt>
        <trkpt lat="29.555486" lon="103.385094"><ele>942.81244</ele><time>2026-04-03T11:45:45.000Z</time></trkpt>
        <trkpt lat="29.555461" lon="103.385048"><ele>947.1955</ele><time>2026-04-03T11:45:57.000Z</time></trkpt>
        <trkpt lat="29.555418" lon="103.385031"><ele>949.0735</ele><time>2026-04-03T11:46:03.000Z</time></trkpt>
        <trkpt lat="29.555373" lon="103.385012"><ele>947.3117</ele><time>2026-04-03T11:46:10.000Z</time></trkpt>
        <trkpt lat="29.555326" lon="103.385011"><ele>947.2855</ele><time>2026-04-03T11:46:18.000Z</time></trkpt>
        <trkpt lat="29.555282" lon="103.384998"><ele>950.9502</ele><time>2026-04-03T11:46:28.000Z</time></trkpt>
        <trkpt lat="29.555233" lon="103.384995"><ele>953.24536</ele><time>2026-04-03T11:46:36.000Z</time></trkpt>
        <trkpt lat="29.555181" lon="103.385009"><ele>954.28845</ele><time>2026-04-03T11:46:45.000Z</time></trkpt>
        <trkpt lat="29.555134" lon="103.385001"><ele>956.65674</ele><time>2026-04-03T11:46:54.000Z</time></trkpt>
        <trkpt lat="29.555086" lon="103.385003"><ele>960.9095</ele><time>2026-04-03T11:47:01.000Z</time></trkpt>
        <trkpt lat="29.555031" lon="103.384976"><ele>963.3829</ele><time>2026-04-03T11:47:15.000Z</time></trkpt>
        <trkpt lat="29.554985" lon="103.38496"><ele>964.3861</ele><time>2026-04-03T11:47:23.000Z</time></trkpt>
        <trkpt lat="29.554935" lon="103.384942"><ele>966.8455</ele><time>2026-04-03T11:47:32.000Z</time></trkpt>
        <trkpt lat="29.554897" lon="103.384909"><ele>967.8702</ele><time>2026-04-03T11:47:41.000Z</time></trkpt>
        <trkpt lat="29.554849" lon="103.384887"><ele>969.79034</ele><time>2026-04-03T11:47:52.000Z</time></trkpt>
        <trkpt lat="29.554815" lon="103.38485"><ele>973.1151</ele><time>2026-04-03T11:47:59.000Z</time></trkpt>
        <trkpt lat="29.554768" lon="103.384822"><ele>975.6011</ele><time>2026-04-03T11:48:05.000Z</time></trkpt>
        <trkpt lat="29.554735" lon="103.384777"><ele>980.3399</ele><time>2026-04-03T11:48:12.000Z</time></trkpt>
        <trkpt lat="29.554695" lon="103.384744"><ele>981.5653</ele><time>2026-04-03T11:48:17.000Z</time></trkpt>
        <trkpt lat="29.554662" lon="103.384702"><ele>982.5101</ele><time>2026-04-03T11:48:29.000Z</time></trkpt>
        <trkpt lat="29.55463" lon="103.384656"><ele>984.1946</ele><time>2026-04-03T11:48:39.000Z</time></trkpt>
        <trkpt lat="29.554663" lon="103.384618"><ele>983.23883</ele><time>2026-04-03T11:49:05.000Z</time></trkpt>
        <trkpt lat="29.554707" lon="103.384637"><ele>989.3802</ele><time>2026-04-03T11:49:18.000Z</time></trkpt>
        <trkpt lat="29.554752" lon="103.384614"><ele>991.0702</ele><time>2026-04-03T11:49:30.000Z</time></trkpt>
        <trkpt lat="29.55479" lon="103.384585"><ele>994.76196</ele><time>2026-04-03T11:49:40.000Z</time></trkpt>
        <trkpt lat="29.554826" lon="103.384544"><ele>995.2531</ele><time>2026-04-03T11:49:47.000Z</time></trkpt>
        <trkpt lat="29.554867" lon="103.384515"><ele>994.1225</ele><time>2026-04-03T11:49:59.000Z</time></trkpt>
        <trkpt lat="29.554912" lon="103.384503"><ele>994.22705</ele><time>2026-04-03T11:50:08.000Z</time></trkpt>
        <trkpt lat="29.554946" lon="103.384462"><ele>994.9962</ele><time>2026-04-03T11:50:15.000Z</time></trkpt>
        <trkpt lat="29.554978" lon="103.384426"><ele>993.191</ele><time>2026-04-03T11:50:23.000Z</time></trkpt>
        <trkpt lat="29.555023" lon="103.3844"><ele>999.83466</ele><time>2026-04-03T11:50:39.000Z</time></trkpt>
        <trkpt lat="29.555052" lon="103.384359"><ele>998.20197</ele><time>2026-04-03T11:50:48.000Z</time></trkpt>
        <trkpt lat="29.555063" lon="103.384307"><ele>998.83716</ele><time>2026-04-03T11:50:52.000Z</time></trkpt>
        <trkpt lat="29.555047" lon="103.384254"><ele>1000.5946</ele><time>2026-04-03T11:51:17.000Z</time></trkpt>
        <trkpt lat="29.555028" lon="103.3842"><ele>999.3456</ele><time>2026-04-03T11:51:24.000Z</time></trkpt>
        <trkpt lat="29.555012" lon="103.384146"><ele>1000.7401</ele><time>2026-04-03T11:51:31.000Z</time></trkpt>
        <trkpt lat="29.554997" lon="103.384093"><ele>1001.15607</ele><time>2026-04-03T11:51:36.000Z</time></trkpt>
        <trkpt lat="29.555006" lon="103.384031"><ele>997.99817</ele><time>2026-04-03T11:51:42.000Z</time></trkpt>
        <trkpt lat="29.555001" lon="103.383977"><ele>997.9087</ele><time>2026-04-03T11:51:46.000Z</time></trkpt>
        <trkpt lat="29.554988" lon="103.383924"><ele>998.89886</ele><time>2026-04-03T11:51:51.000Z</time></trkpt>
        <trkpt lat="29.554992" lon="103.383872"><ele>997.4616</ele><time>2026-04-03T11:51:57.000Z</time></trkpt>
        <trkpt lat="29.554996" lon="103.383811"><ele>994.8594</ele><time>2026-04-03T11:53:13.000Z</time></trkpt>
        <trkpt lat="29.555022" lon="103.383761"><ele>994.6441</ele><time>2026-04-03T11:53:18.000Z</time></trkpt>
        <trkpt lat="29.555056" lon="103.383716"><ele>996.96497</ele><time>2026-04-03T11:53:24.000Z</time></trkpt>
        <trkpt lat="29.555049" lon="103.383658"><ele>995.9873</ele><time>2026-04-03T11:53:28.000Z</time></trkpt>
        <trkpt lat="29.555013" lon="103.383618"><ele>998.4138</ele><time>2026-04-03T11:53:35.000Z</time></trkpt>
        <trkpt lat="29.555002" lon="103.383564"><ele>999.9278</ele><time>2026-04-03T11:53:41.000Z</time></trkpt>
        <trkpt lat="29.554992" lon="103.383501"><ele>999.52924</ele><time>2026-04-03T11:53:48.000Z</time></trkpt>
        <trkpt lat="29.554953" lon="103.383455"><ele>1001.9388</ele><time>2026-04-03T11:53:53.000Z</time></trkpt>
        <trkpt lat="29.554901" lon="103.38343"><ele>1002.7948</ele><time>2026-04-03T11:53:58.000Z</time></trkpt>
        <trkpt lat="29.554853" lon="103.383401"><ele>1003.1159</ele><time>2026-04-03T11:54:02.000Z</time></trkpt>
        <trkpt lat="29.554815" lon="103.383365"><ele>1001.15173</ele><time>2026-04-03T11:54:07.000Z</time></trkpt>
        <trkpt lat="29.554775" lon="103.383315"><ele>1001.2516</ele><time>2026-04-03T11:54:13.000Z</time></trkpt>
        <trkpt lat="29.554728" lon="103.383299"><ele>1001.88727</ele><time>2026-04-03T11:54:18.000Z</time></trkpt>
        <trkpt lat="29.55469" lon="103.383261"><ele>1001.0787</ele><time>2026-04-03T11:54:24.000Z</time></trkpt>
        <trkpt lat="29.554652" lon="103.38323"><ele>1004.8461</ele><time>2026-04-03T11:54:28.000Z</time></trkpt>
        <trkpt lat="29.554621" lon="103.383192"><ele>1006.60944</ele><time>2026-04-03T11:54:33.000Z</time></trkpt>
        <trkpt lat="29.554578" lon="103.383166"><ele>1008.48694</ele><time>2026-04-03T11:54:38.000Z</time></trkpt>
        <trkpt lat="29.554535" lon="103.383139"><ele>1006.81494</ele><time>2026-04-03T11:54:46.000Z</time></trkpt>
        <trkpt lat="29.554512" lon="103.383092"><ele>1007.02295</ele><time>2026-04-03T11:54:55.000Z</time></trkpt>
        <trkpt lat="29.554511" lon="103.38304"><ele>1008.5842</ele><time>2026-04-03T11:55:01.000Z</time></trkpt>
        <trkpt lat="29.554502" lon="103.382983"><ele>1016.84094</ele><time>2026-04-03T11:55:12.000Z</time></trkpt>
        <trkpt lat="29.554462" lon="103.382946"><ele>1022.08154</ele><time>2026-04-03T11:55:26.000Z</time></trkpt>
        <trkpt lat="29.554442" lon="103.382899"><ele>1016.0587</ele><time>2026-04-03T11:55:40.000Z</time></trkpt>
        <trkpt lat="29.554428" lon="103.382849"><ele>1017.214</ele><time>2026-04-03T11:56:09.000Z</time></trkpt>
        <trkpt lat="29.554435" lon="103.382798"><ele>1016.67017</ele><time>2026-04-03T11:56:16.000Z</time></trkpt>
        <trkpt lat="29.554411" lon="103.382753"><ele>1017.4526</ele><time>2026-04-03T11:56:29.000Z</time></trkpt>
        <trkpt lat="29.554415" lon="103.382701"><ele>1017.6149</ele><time>2026-04-03T11:56:34.000Z</time></trkpt>
        <trkpt lat="29.55439" lon="103.382654"><ele>1020.0042</ele><time>2026-04-03T11:56:42.000Z</time></trkpt>
        <trkpt lat="29.554384" lon="103.382601"><ele>1024.8558</ele><time>2026-04-03T11:56:50.000Z</time></trkpt>
        <trkpt lat="29.554363" lon="103.382552"><ele>1028.387</ele><time>2026-04-03T11:56:58.000Z</time></trkpt>
        <trkpt lat="29.554343" lon="103.382505"><ele>1027.581</ele><time>2026-04-03T11:57:04.000Z</time></trkpt>
        <trkpt lat="29.554336" lon="103.382454"><ele>1027.881</ele><time>2026-04-03T11:57:09.000Z</time></trkpt>
        <trkpt lat="29.554305" lon="103.382415"><ele>1026.7799</ele><time>2026-04-03T11:57:13.000Z</time></trkpt>
        <trkpt lat="29.554308" lon="103.382362"><ele>1028.5918</ele><time>2026-04-03T11:57:18.000Z</time></trkpt>
        <trkpt lat="29.554315" lon="103.382311"><ele>1030.8188</ele><time>2026-04-03T11:57:23.000Z</time></trkpt>
        <trkpt lat="29.554286" lon="103.382262"><ele>1029.7806</ele><time>2026-04-03T11:57:32.000Z</time></trkpt>
        <trkpt lat="29.554289" lon="103.382207"><ele>1032.9224</ele><time>2026-04-03T11:57:49.000Z</time></trkpt>
        <trkpt lat="29.554296" lon="103.382155"><ele>1032.8092</ele><time>2026-04-03T11:57:55.000Z</time></trkpt>
        <trkpt lat="29.554299" lon="103.382101"><ele>1033.4724</ele><time>2026-04-03T11:58:02.000Z</time></trkpt>
        <trkpt lat="29.554283" lon="103.382048"><ele>1032.0223</ele><time>2026-04-03T11:58:07.000Z</time></trkpt>
        <trkpt lat="29.554239" lon="103.382024"><ele>1032.1085</ele><time>2026-04-03T11:58:13.000Z</time></trkpt>
        <trkpt lat="29.554227" lon="103.381967"><ele>1030.3931</ele><time>2026-04-03T11:58:22.000Z</time></trkpt>
        <trkpt lat="29.554217" lon="103.381913"><ele>1029.5872</ele><time>2026-04-03T11:58:31.000Z</time></trkpt>
        <trkpt lat="29.554205" lon="103.381862"><ele>1028.1367</ele><time>2026-04-03T11:58:36.000Z</time></trkpt>
        <trkpt lat="29.554201" lon="103.381804"><ele>1032.2688</ele><time>2026-04-03T11:58:47.000Z</time></trkpt>
        <trkpt lat="29.554168" lon="103.381762"><ele>1032.8008</ele><time>2026-04-03T11:58:56.000Z</time></trkpt>
        <trkpt lat="29.554153" lon="103.381711"><ele>1032.3707</ele><time>2026-04-03T11:59:01.000Z</time></trkpt>
        <trkpt lat="29.554161" lon="103.381653"><ele>1032.9033</ele><time>2026-04-03T11:59:05.000Z</time></trkpt>
        <trkpt lat="29.554138" lon="103.381598"><ele>1034.9749</ele><time>2026-04-03T11:59:12.000Z</time></trkpt>
        <trkpt lat="29.554117" lon="103.381547"><ele>1037.1105</ele><time>2026-04-03T11:59:17.000Z</time></trkpt>
        <trkpt lat="29.554105" lon="103.381492"><ele>1038.31</ele><time>2026-04-03T11:59:22.000Z</time></trkpt>
        <trkpt lat="29.554094" lon="103.38144"><ele>1039.8439</ele><time>2026-04-03T11:59:40.000Z</time></trkpt>
        <trkpt lat="29.554072" lon="103.381392"><ele>1039.5912</ele><time>2026-04-03T11:59:45.000Z</time></trkpt>
        <trkpt lat="29.554072" lon="103.381331"><ele>1038.1139</ele><time>2026-04-03T11:59:50.000Z</time></trkpt>
        <trkpt lat="29.554065" lon="103.381268"><ele>1037.1954</ele><time>2026-04-03T11:59:55.000Z</time></trkpt>
        <trkpt lat="29.554069" lon="103.381215"><ele>1038.2839</ele><time>2026-04-03T12:00:00.000Z</time></trkpt>
        <trkpt lat="29.554052" lon="103.381165"><ele>1038.8728</ele><time>2026-04-03T12:00:05.000Z</time></trkpt>
        <trkpt lat="29.554019" lon="103.381126"><ele>1041.4644</ele><time>2026-04-03T12:00:09.000Z</time></trkpt>
        <trkpt lat="29.554011" lon="103.38107"><ele>1042.426</ele><time>2026-04-03T12:00:14.000Z</time></trkpt>
        <trkpt lat="29.553999" lon="103.38102"><ele>1045.3304</ele><time>2026-04-03T12:00:21.000Z</time></trkpt>
        <trkpt lat="29.553998" lon="103.380959"><ele>1044.9846</ele><time>2026-04-03T12:00:30.000Z</time></trkpt>
        <trkpt lat="29.553991" lon="103.380903"><ele>1042.4135</ele><time>2026-04-03T12:00:37.000Z</time></trkpt>
        <trkpt lat="29.554012" lon="103.380857"><ele>1045.6526</ele><time>2026-04-03T12:00:51.000Z</time></trkpt>
        <trkpt lat="29.554025" lon="103.380797"><ele>1047.3849</ele><time>2026-04-03T12:01:00.000Z</time></trkpt>
        <trkpt lat="29.554046" lon="103.380747"><ele>1047.2004</ele><time>2026-04-03T12:01:11.000Z</time></trkpt>
        <trkpt lat="29.55405" lon="103.380695"><ele>1047.7396</ele><time>2026-04-03T12:01:16.000Z</time></trkpt>
        <trkpt lat="29.554051" lon="103.380641"><ele>1047.2604</ele><time>2026-04-03T12:01:20.000Z</time></trkpt>
        <trkpt lat="29.554053" lon="103.380584"><ele>1045.5806</ele><time>2026-04-03T12:01:24.000Z</time></trkpt>
        <trkpt lat="29.554072" lon="103.380523"><ele>1045.6912</ele><time>2026-04-03T12:01:28.000Z</time></trkpt>
        <trkpt lat="29.554066" lon="103.38047"><ele>1045.6117</ele><time>2026-04-03T12:01:32.000Z</time></trkpt>
        <trkpt lat="29.554059" lon="103.380403"><ele>1044.3245</ele><time>2026-04-03T12:01:37.000Z</time></trkpt>
        <trkpt lat="29.554058" lon="103.380349"><ele>1044.4534</ele><time>2026-04-03T12:01:41.000Z</time></trkpt>
        <trkpt lat="29.554036" lon="103.380289"><ele>1042.8112</ele><time>2026-04-03T12:01:47.000Z</time></trkpt>
        <trkpt lat="29.554036" lon="103.380236"><ele>1042.513</ele><time>2026-04-03T12:01:52.000Z</time></trkpt>
        <trkpt lat="29.554032" lon="103.380183"><ele>1044.1666</ele><time>2026-04-03T12:01:57.000Z</time></trkpt>
        <trkpt lat="29.554022" lon="103.38013"><ele>1046.0684</ele><time>2026-04-03T12:02:05.000Z</time></trkpt>
        <trkpt lat="29.554005" lon="103.380075"><ele>1045.3208</ele><time>2026-04-03T12:02:11.000Z</time></trkpt>
        <trkpt lat="29.554004" lon="103.38002"><ele>1049.9163</ele><time>2026-04-03T12:02:17.000Z</time></trkpt>
        <trkpt lat="29.554002" lon="103.379967"><ele>1051.2024</ele><time>2026-04-03T12:02:26.000Z</time></trkpt>
        <trkpt lat="29.554023" lon="103.37991"><ele>1057.6969</ele><time>2026-04-03T12:02:34.000Z</time></trkpt>
        <trkpt lat="29.554005" lon="103.379859"><ele>1057.7863</ele><time>2026-04-03T12:02:42.000Z</time></trkpt>
        <trkpt lat="29.553978" lon="103.379815"><ele>1061.5293</ele><time>2026-04-03T12:02:52.000Z</time></trkpt>
        <trkpt lat="29.553971" lon="103.379759"><ele>1063.4376</ele><time>2026-04-03T12:03:04.000Z</time></trkpt>
        <trkpt lat="29.553966" lon="103.379702"><ele>1063.2128</ele><time>2026-04-03T12:03:11.000Z</time></trkpt>
        <trkpt lat="29.55395" lon="103.379652"><ele>1063.6156</ele><time>2026-04-03T12:03:18.000Z</time></trkpt>
        <trkpt lat="29.553937" lon="103.379596"><ele>1063.7731</ele><time>2026-04-03T12:03:28.000Z</time></trkpt>
        <trkpt lat="29.553926" lon="103.379545"><ele>1065.0265</ele><time>2026-04-03T12:03:36.000Z</time></trkpt>
        <trkpt lat="29.553903" lon="103.379499"><ele>1066.6418</ele><time>2026-04-03T12:03:50.000Z</time></trkpt>
        <trkpt lat="29.553893" lon="103.379447"><ele>1068.2607</ele><time>2026-04-03T12:04:01.000Z</time></trkpt>
        <trkpt lat="29.553864" lon="103.379405"><ele>1071.167</ele><time>2026-04-03T12:04:15.000Z</time></trkpt>
        <trkpt lat="29.553861" lon="103.379344"><ele>1070.1288</ele><time>2026-04-03T12:04:23.000Z</time></trkpt>
        <trkpt lat="29.553864" lon="103.379292"><ele>1071.6105</ele><time>2026-04-03T12:04:32.000Z</time></trkpt>
        <trkpt lat="29.553839" lon="103.379243"><ele>1073.3508</ele><time>2026-04-03T12:04:40.000Z</time></trkpt>
        <trkpt lat="29.553838" lon="103.37919"><ele>1073.4387</ele><time>2026-04-03T12:04:49.000Z</time></trkpt>
        <trkpt lat="29.553841" lon="103.379129"><ele>1074.7097</ele><time>2026-04-03T12:04:58.000Z</time></trkpt>
        <trkpt lat="29.553843" lon="103.379075"><ele>1076.9977</ele><time>2026-04-03T12:05:07.000Z</time></trkpt>
        <trkpt lat="29.553817" lon="103.379028"><ele>1076.3691</ele><time>2026-04-03T12:05:21.000Z</time></trkpt>
        <trkpt lat="29.553831" lon="103.378979"><ele>1076.9458</ele><time>2026-04-03T12:05:25.000Z</time></trkpt>
        <trkpt lat="29.55383" lon="103.378918"><ele>1076.6516</ele><time>2026-04-03T12:05:31.000Z</time></trkpt>
        <trkpt lat="29.553841" lon="103.378861"><ele>1076.1699</ele><time>2026-04-03T12:05:36.000Z</time></trkpt>
        <trkpt lat="29.553866" lon="103.378815"><ele>1077.582</ele><time>2026-04-03T12:05:41.000Z</time></trkpt>
        <trkpt lat="29.553883" lon="103.378757"><ele>1077.6984</ele><time>2026-04-03T12:05:46.000Z</time></trkpt>
        <trkpt lat="29.553865" lon="103.378697"><ele>1078.82</ele><time>2026-04-03T12:05:54.000Z</time></trkpt>
        <trkpt lat="29.553849" lon="103.378646"><ele>1081.6017</ele><time>2026-04-03T12:06:00.000Z</time></trkpt>
        <trkpt lat="29.553827" lon="103.378592"><ele>1086.8525</ele><time>2026-04-03T12:06:10.000Z</time></trkpt>
        <trkpt lat="29.553804" lon="103.378547"><ele>1091.4384</ele><time>2026-04-03T12:06:24.000Z</time></trkpt>
        <trkpt lat="29.553782" lon="103.378496"><ele>1094.6034</ele><time>2026-04-03T12:06:39.000Z</time></trkpt>
        <trkpt lat="29.55378" lon="103.378438"><ele>1096.8586</ele><time>2026-04-03T12:06:51.000Z</time></trkpt>
        <trkpt lat="29.553741" lon="103.37841"><ele>1098.1332</ele><time>2026-04-03T12:06:57.000Z</time></trkpt>
        <trkpt lat="29.553707" lon="103.378356"><ele>1097.7926</ele><time>2026-04-03T12:07:06.000Z</time></trkpt>
        <trkpt lat="29.553689" lon="103.378296"><ele>1096.6815</ele><time>2026-04-03T12:07:15.000Z</time></trkpt>
        <trkpt lat="29.553664" lon="103.378249"><ele>1097.7136</ele><time>2026-04-03T12:07:22.000Z</time></trkpt>
        <trkpt lat="29.553657" lon="103.378197"><ele>1097.7988</ele><time>2026-04-03T12:07:27.000Z</time></trkpt>
        <trkpt lat="29.553634" lon="103.378152"><ele>1105.8003</ele><time>2026-04-03T12:09:47.000Z</time></trkpt>
        <trkpt lat="29.553591" lon="103.378126"><ele>1107.1792</ele><time>2026-04-03T12:10:48.000Z</time></trkpt>
        <trkpt lat="29.553571" lon="103.378078"><ele>1109.084</ele><time>2026-04-03T12:11:01.000Z</time></trkpt>
        <trkpt lat="29.553541" lon="103.378032"><ele>1108.2512</ele><time>2026-04-03T12:11:13.000Z</time></trkpt>
        <trkpt lat="29.55353" lon="103.377976"><ele>1112.6147</ele><time>2026-04-03T12:11:26.000Z</time></trkpt>
        <trkpt lat="29.553511" lon="103.377926"><ele>1113.401</ele><time>2026-04-03T12:11:34.000Z</time></trkpt>
        <trkpt lat="29.553471" lon="103.377899"><ele>1117.9149</ele><time>2026-04-03T12:11:46.000Z</time></trkpt>
        <trkpt lat="29.553441" lon="103.377854"><ele>1117.9221</ele><time>2026-04-03T12:11:56.000Z</time></trkpt>
        <trkpt lat="29.553403" lon="103.377823"><ele>1118.5656</ele><time>2026-04-03T12:12:07.000Z</time></trkpt>
        <trkpt lat="29.5534" lon="103.377768"><ele>1123.4685</ele><time>2026-04-03T12:12:22.000Z</time></trkpt>
        <trkpt lat="29.553355" lon="103.37773"><ele>1124.4402</ele><time>2026-04-03T12:12:38.000Z</time></trkpt>
        <trkpt lat="29.553317" lon="103.377696"><ele>1128.004</ele><time>2026-04-03T12:12:56.000Z</time></trkpt>
        <trkpt lat="29.553287" lon="103.377657"><ele>1129.8518</ele><time>2026-04-03T12:13:05.000Z</time></trkpt>
        <trkpt lat="29.553241" lon="103.377621"><ele>1130.2955</ele><time>2026-04-03T12:13:14.000Z</time></trkpt>
        <trkpt lat="29.553234" lon="103.37757"><ele>1130.7102</ele><time>2026-04-03T12:13:24.000Z</time></trkpt>
        <trkpt lat="29.553198" lon="103.37753"><ele>1133.4677</ele><time>2026-04-03T12:13:35.000Z</time></trkpt>
        <trkpt lat="29.553155" lon="103.377495"><ele>1134.6772</ele><time>2026-04-03T12:13:44.000Z</time></trkpt>
        <trkpt lat="29.553108" lon="103.377473"><ele>1132.1145</ele><time>2026-04-03T12:13:54.000Z</time></trkpt>
        <trkpt lat="29.553072" lon="103.377434"><ele>1134.6086</ele><time>2026-04-03T12:14:04.000Z</time></trkpt>
        <trkpt lat="29.553044" lon="103.377392"><ele>1139.3083</ele><time>2026-04-03T12:14:19.000Z</time></trkpt>
        <trkpt lat="29.553022" lon="103.377344"><ele>1140.9685</ele><time>2026-04-03T12:14:30.000Z</time></trkpt>
        <trkpt lat="29.552981" lon="103.377311"><ele>1137.7948</ele><time>2026-04-03T12:14:39.000Z</time></trkpt>
        <trkpt lat="29.552951" lon="103.377268"><ele>1139.6299</ele><time>2026-04-03T12:14:53.000Z</time></trkpt>
        <trkpt lat="29.552911" lon="103.377245"><ele>1139.9424</ele><time>2026-04-03T12:15:01.000Z</time></trkpt>
        <trkpt lat="29.552872" lon="103.37721"><ele>1149.57</ele><time>2026-04-03T12:15:23.000Z</time></trkpt>
        <trkpt lat="29.552826" lon="103.377195"><ele>1149.3368</ele><time>2026-04-03T12:15:36.000Z</time></trkpt>
        <trkpt lat="29.552768" lon="103.377179"><ele>1151.2767</ele><time>2026-04-03T12:15:41.000Z</time></trkpt>
        <trkpt lat="29.552739" lon="103.377135"><ele>1155.7795</ele><time>2026-04-03T12:15:49.000Z</time></trkpt>
        <trkpt lat="29.552703" lon="103.377103"><ele>1157.6389</ele><time>2026-04-03T12:15:57.000Z</time></trkpt>
        <trkpt lat="29.552658" lon="103.377086"><ele>1164.1597</ele><time>2026-04-03T12:16:14.000Z</time></trkpt>
        <trkpt lat="29.552609" lon="103.377082"><ele>1168.0266</ele><time>2026-04-03T12:16:31.000Z</time></trkpt>
        <trkpt lat="29.552557" lon="103.377072"><ele>1163.6324</ele><time>2026-04-03T12:16:44.000Z</time></trkpt>
        <trkpt lat="29.552512" lon="103.377042"><ele>1169.9788</ele><time>2026-04-03T12:16:59.000Z</time></trkpt>
        <trkpt lat="29.552468" lon="103.377024"><ele>1172.1815</ele><time>2026-04-03T12:17:10.000Z</time></trkpt>
        <trkpt lat="29.55242" lon="103.377008"><ele>1172.6316</ele><time>2026-04-03T12:17:24.000Z</time></trkpt>
        <trkpt lat="29.552381" lon="103.376979"><ele>1174.4158</ele><time>2026-04-03T12:17:34.000Z</time></trkpt>
        <trkpt lat="29.552335" lon="103.376968"><ele>1176.3666</ele><time>2026-04-03T12:17:46.000Z</time></trkpt>
        <trkpt lat="29.552288" lon="103.376965"><ele>1177.2457</ele><time>2026-04-03T12:17:56.000Z</time></trkpt>
        <trkpt lat="29.552248" lon="103.376941"><ele>1177.7103</ele><time>2026-04-03T12:18:07.000Z</time></trkpt>
        <trkpt lat="29.552209" lon="103.376914"><ele>1179.5115</ele><time>2026-04-03T12:18:14.000Z</time></trkpt>
        <trkpt lat="29.552182" lon="103.376866"><ele>1183.6921</ele><time>2026-04-03T12:18:27.000Z</time></trkpt>
        <trkpt lat="29.552137" lon="103.376872"><ele>1187.3063</ele><time>2026-04-03T12:18:58.000Z</time></trkpt>
        <trkpt lat="29.552097" lon="103.376842"><ele>1187.6138</ele><time>2026-04-03T12:19:49.000Z</time></trkpt>
        <trkpt lat="29.552047" lon="103.376822"><ele>1192.3768</ele><time>2026-04-03T12:20:02.000Z</time></trkpt>
        <trkpt lat="29.552013" lon="103.376778"><ele>1198.9081</ele><time>2026-04-03T12:20:17.000Z</time></trkpt>
        <trkpt lat="29.551965" lon="103.376765"><ele>1198.421</ele><time>2026-04-03T12:20:24.000Z</time></trkpt>
        <trkpt lat="29.551851" lon="103.376817"><ele>1194.1722</ele><time>2026-04-03T12:21:01.000Z</time></trkpt>
        <trkpt lat="29.55153" lon="103.376986"><ele>1150.1412</ele><time>2026-04-03T12:26:18.000Z</time></trkpt>
        <trkpt lat="29.551629" lon="103.376898"><ele>1151.3987</ele><time>2026-04-03T12:35:00.000Z</time></trkpt>
        <trkpt lat="29.551644" lon="103.376838"><ele>1157.2179</ele><time>2026-04-03T12:35:09.000Z</time></trkpt>
        <trkpt lat="29.551677" lon="103.376798"><ele>1161.551</ele><time>2026-04-03T12:35:17.000Z</time></trkpt>
        <trkpt lat="29.551739" lon="103.376747"><ele>1180.6198</ele><time>2026-04-03T12:35:24.000Z</time></trkpt>
        <trkpt lat="29.551758" lon="103.376699"><ele>1186.4573</ele><time>2026-04-03T12:35:29.000Z</time></trkpt>
        <trkpt lat="29.551742" lon="103.376641"><ele>1189.988</ele><time>2026-04-03T12:35:39.000Z</time></trkpt>
        <trkpt lat="29.551742" lon="103.376585"><ele>1196.6393</ele><time>2026-04-03T12:35:52.000Z</time></trkpt>
        <trkpt lat="29.551758" lon="103.376537"><ele>1201.6096</ele><time>2026-04-03T12:36:04.000Z</time></trkpt>
        <trkpt lat="29.551757" lon="103.376474"><ele>1206.3418</ele><time>2026-04-03T12:36:17.000Z</time></trkpt>
        <trkpt lat="29.551734" lon="103.376429"><ele>1213.3867</ele><time>2026-04-03T12:36:38.000Z</time></trkpt>
        <trkpt lat="29.55169" lon="103.376414"><ele>1218.7166</ele><time>2026-04-03T12:36:57.000Z</time></trkpt>
        <trkpt lat="29.551716" lon="103.376367"><ele>1221.9785</ele><time>2026-04-03T12:37:13.000Z</time></trkpt>
        <trkpt lat="29.551733" lon="103.376313"><ele>1221.1599</ele><time>2026-04-03T12:37:21.000Z</time></trkpt>
        <trkpt lat="29.551736" lon="103.376251"><ele>1220.7699</ele><time>2026-04-03T12:37:29.000Z</time></trkpt>
        <trkpt lat="29.551738" lon="103.376195"><ele>1221.5087</ele><time>2026-04-03T12:37:39.000Z</time></trkpt>
        <trkpt lat="29.551738" lon="103.376143"><ele>1224.0546</ele><time>2026-04-03T12:37:47.000Z</time></trkpt>
        <trkpt lat="29.551725" lon="103.376093"><ele>1225.9739</ele><time>2026-04-03T12:38:00.000Z</time></trkpt>
        <trkpt lat="29.551707" lon="103.37604"><ele>1225.2172</ele><time>2026-04-03T12:38:10.000Z</time></trkpt>
        <trkpt lat="29.551735" lon="103.375989"><ele>1227.7003</ele><time>2026-04-03T12:38:20.000Z</time></trkpt>
        <trkpt lat="29.551711" lon="103.375934"><ele>1227.2184</ele><time>2026-04-03T12:38:28.000Z</time></trkpt>
        <trkpt lat="29.551719" lon="103.375876"><ele>1229.4062</ele><time>2026-04-03T12:38:34.000Z</time></trkpt>
        <trkpt lat="29.551706" lon="103.375815"><ele>1233.258</ele><time>2026-04-03T12:38:44.000Z</time></trkpt>
        <trkpt lat="29.551702" lon="103.375754"><ele>1232.1162</ele><time>2026-04-03T12:38:50.000Z</time></trkpt>
        <trkpt lat="29.551671" lon="103.375708"><ele>1232.8942</ele><time>2026-04-03T12:38:55.000Z</time></trkpt>
        <trkpt lat="29.551652" lon="103.375661"><ele>1233.1721</ele><time>2026-04-03T12:38:59.000Z</time></trkpt>
        <trkpt lat="29.55163" lon="103.375615"><ele>1234.4518</ele><time>2026-04-03T12:39:05.000Z</time></trkpt>
        <trkpt lat="29.551583" lon="103.375591"><ele>1233.1494</ele><time>2026-04-03T12:39:29.000Z</time></trkpt>
        <trkpt lat="29.551532" lon="103.375555"><ele>1230.5063</ele><time>2026-04-03T12:39:35.000Z</time></trkpt>
        <trkpt lat="29.551496" lon="103.375524"><ele>1232.9838</ele><time>2026-04-03T12:39:40.000Z</time></trkpt>
        <trkpt lat="29.551489" lon="103.375473"><ele>1240.6426</ele><time>2026-04-03T12:40:07.000Z</time></trkpt>
        <trkpt lat="29.551447" lon="103.375446"><ele>1239.8474</ele><time>2026-04-03T12:40:15.000Z</time></trkpt>
        <trkpt lat="29.5514" lon="103.375425"><ele>1240.3042</ele><time>2026-04-03T12:40:26.000Z</time></trkpt>
        <trkpt lat="29.551345" lon="103.375402"><ele>1239.2968</ele><time>2026-04-03T12:40:30.000Z</time></trkpt>
        <trkpt lat="29.551347" lon="103.375347"><ele>1244.2183</ele><time>2026-04-03T12:40:34.000Z</time></trkpt>
        <trkpt lat="29.55129" lon="103.375331"><ele>1241.7983</ele><time>2026-04-03T12:40:44.000Z</time></trkpt>
        <trkpt lat="29.551243" lon="103.375337"><ele>1239.1941</ele><time>2026-04-03T12:41:00.000Z</time></trkpt>
        <trkpt lat="29.551192" lon="103.375313"><ele>1240.1536</ele><time>2026-04-03T12:41:06.000Z</time></trkpt>
        <trkpt lat="29.551149" lon="103.375293"><ele>1242.5409</ele><time>2026-04-03T12:41:10.000Z</time></trkpt>
        <trkpt lat="29.551105" lon="103.375272"><ele>1243.0382</ele><time>2026-04-03T12:41:17.000Z</time></trkpt>
        <trkpt lat="29.551058" lon="103.375243"><ele>1247.6906</ele><time>2026-04-03T12:41:29.000Z</time></trkpt>
        <trkpt lat="29.551006" lon="103.375249"><ele>1249.1183</ele><time>2026-04-03T12:41:34.000Z</time></trkpt>
        <trkpt lat="29.550952" lon="103.375249"><ele>1246.6708</ele><time>2026-04-03T12:41:40.000Z</time></trkpt>
        <trkpt lat="29.550903" lon="103.375253"><ele>1244.4882</ele><time>2026-04-03T12:41:43.000Z</time></trkpt>
        <trkpt lat="29.55086" lon="103.375215"><ele>1246.0686</ele><time>2026-04-03T12:41:49.000Z</time></trkpt>
        <trkpt lat="29.550809" lon="103.375201"><ele>1248.4971</ele><time>2026-04-03T12:41:54.000Z</time></trkpt>
        <trkpt lat="29.550763" lon="103.375172"><ele>1251.4982</ele><time>2026-04-03T12:41:59.000Z</time></trkpt>
        <trkpt lat="29.550716" lon="103.375158"><ele>1250.9082</ele><time>2026-04-03T12:42:05.000Z</time></trkpt>
        <trkpt lat="29.550675" lon="103.375124"><ele>1253.8223</ele><time>2026-04-03T12:42:12.000Z</time></trkpt>
        <trkpt lat="29.550624" lon="103.375088"><ele>1255.0825</ele><time>2026-04-03T12:42:18.000Z</time></trkpt>
        <trkpt lat="29.550575" lon="103.37507"><ele>1255.1163</ele><time>2026-04-03T12:42:22.000Z</time></trkpt>
        <trkpt lat="29.550531" lon="103.375049"><ele>1257.8478</ele><time>2026-04-03T12:42:29.000Z</time></trkpt>
        <trkpt lat="29.550486" lon="103.375028"><ele>1260.2524</ele><time>2026-04-03T12:42:34.000Z</time></trkpt>
        <trkpt lat="29.55044" lon="103.374997"><ele>1258.7225</ele><time>2026-04-03T12:42:40.000Z</time></trkpt>
        <trkpt lat="29.5504" lon="103.374964"><ele>1260.517</ele><time>2026-04-03T12:42:45.000Z</time></trkpt>
        <trkpt lat="29.550356" lon="103.374947"><ele>1262.0587</ele><time>2026-04-03T12:42:50.000Z</time></trkpt>
        <trkpt lat="29.550335" lon="103.374895"><ele>1265.2078</ele><time>2026-04-03T12:42:55.000Z</time></trkpt>
        <trkpt lat="29.550288" lon="103.37489"><ele>1271.3469</ele><time>2026-04-03T12:43:11.000Z</time></trkpt>
        <trkpt lat="29.550234" lon="103.3749"><ele>1269.4218</ele><time>2026-04-03T12:43:16.000Z</time></trkpt>
        <trkpt lat="29.550181" lon="103.374877"><ele>1269.2842</ele><time>2026-04-03T12:43:24.000Z</time></trkpt>
        <trkpt lat="29.550161" lon="103.374824"><ele>1272.6926</ele><time>2026-04-03T12:43:31.000Z</time></trkpt>
        <trkpt lat="29.550124" lon="103.374788"><ele>1275.9491</ele><time>2026-04-03T12:43:38.000Z</time></trkpt>
        <trkpt lat="29.55008" lon="103.374743"><ele>1276.4329</ele><time>2026-04-03T12:43:47.000Z</time></trkpt>
        <trkpt lat="29.550095" lon="103.374692"><ele>1272.3407</ele><time>2026-04-03T12:44:00.000Z</time></trkpt>
        <trkpt lat="29.55008" lon="103.374642"><ele>1267.6287</ele><time>2026-04-03T12:44:07.000Z</time></trkpt>
        <trkpt lat="29.550034" lon="103.374618"><ele>1265.498</ele><time>2026-04-03T12:44:26.000Z</time></trkpt>
        <trkpt lat="29.550007" lon="103.374565"><ele>1262.96</ele><time>2026-04-03T12:44:43.000Z</time></trkpt>
        <trkpt lat="29.549934" lon="103.374533"><ele>1254.6023</ele><time>2026-04-03T12:45:34.000Z</time></trkpt>
        <trkpt lat="29.549981" lon="103.37453"><ele>1261.1802</ele><time>2026-04-03T12:46:01.000Z</time></trkpt>
        <trkpt lat="29.550025" lon="103.374553"><ele>1263.8469</ele><time>2026-04-03T12:46:08.000Z</time></trkpt>
        <trkpt lat="29.550069" lon="103.374534"><ele>1266.7745</ele><time>2026-04-03T12:46:11.000Z</time></trkpt>
        <trkpt lat="29.550106" lon="103.374497"><ele>1269.6407</ele><time>2026-04-03T12:46:15.000Z</time></trkpt>
        <trkpt lat="29.550152" lon="103.374462"><ele>1273.082</ele><time>2026-04-03T12:46:20.000Z</time></trkpt>
        <trkpt lat="29.55018" lon="103.374416"><ele>1272.0222</ele><time>2026-04-03T12:46:25.000Z</time></trkpt>
        <trkpt lat="29.55022" lon="103.374382"><ele>1273.5873</ele><time>2026-04-03T12:46:30.000Z</time></trkpt>
        <trkpt lat="29.550244" lon="103.374336"><ele>1271.1641</ele><time>2026-04-03T12:46:34.000Z</time></trkpt>
        <trkpt lat="29.550267" lon="103.374277"><ele>1271.7538</ele><time>2026-04-03T12:46:42.000Z</time></trkpt>
        <trkpt lat="29.550313" lon="103.374259"><ele>1274.1969</ele><time>2026-04-03T12:46:47.000Z</time></trkpt>
        <trkpt lat="29.550357" lon="103.374221"><ele>1273.9678</ele><time>2026-04-03T12:46:52.000Z</time></trkpt>
        <trkpt lat="29.550394" lon="103.374179"><ele>1274.9496</ele><time>2026-04-03T12:46:57.000Z</time></trkpt>
        <trkpt lat="29.550448" lon="103.374167"><ele>1275.9431</ele><time>2026-04-03T12:47:05.000Z</time></trkpt>
        <trkpt lat="29.55049" lon="103.37419"><ele>1280.3824</ele><time>2026-04-03T12:47:45.000Z</time></trkpt>
        <trkpt lat="29.55054" lon="103.374207"><ele>1280.4011</ele><time>2026-04-03T12:47:59.000Z</time></trkpt>
        <trkpt lat="29.550518" lon="103.374259"><ele>1283.2406</ele><time>2026-04-03T12:48:06.000Z</time></trkpt>
        <trkpt lat="29.55056" lon="103.374233"><ele>1283.1016</ele><time>2026-04-03T12:48:12.000Z</time></trkpt>
        <trkpt lat="29.550607" lon="103.374244"><ele>1283.7032</ele><time>2026-04-03T12:48:16.000Z</time></trkpt>
        <trkpt lat="29.550654" lon="103.374169"><ele>1283.2803</ele><time>2026-04-03T12:48:28.000Z</time></trkpt>
        <trkpt lat="29.550589" lon="103.374141"><ele>1281.6259</ele><time>2026-04-03T12:48:32.000Z</time></trkpt>
        <trkpt lat="29.550604" lon="103.374059"><ele>1277.9974</ele><time>2026-04-03T12:48:34.000Z</time></trkpt>
        <trkpt lat="29.550595" lon="103.373997"><ele>1272.6833</ele><time>2026-04-03T12:48:38.000Z</time></trkpt>
        <trkpt lat="29.550628" lon="103.373942"><ele>1270.8523</ele><time>2026-04-03T12:48:40.000Z</time></trkpt>
        <trkpt lat="29.550668" lon="103.373915"><ele>1271.2207</ele><time>2026-04-03T12:48:43.000Z</time></trkpt>
        <trkpt lat="29.550731" lon="103.373901"><ele>1273.8652</ele><time>2026-04-03T12:48:46.000Z</time></trkpt>
        <trkpt lat="29.550779" lon="103.373898"><ele>1274.2354</ele><time>2026-04-03T12:48:50.000Z</time></trkpt>
        <trkpt lat="29.550824" lon="103.373883"><ele>1275.3301</ele><time>2026-04-03T12:48:53.000Z</time></trkpt>
        <trkpt lat="29.550866" lon="103.373844"><ele>1273.9851</ele><time>2026-04-03T12:48:58.000Z</time></trkpt>
        <trkpt lat="29.550911" lon="103.373845"><ele>1273.1218</ele><time>2026-04-03T12:49:04.000Z</time></trkpt>
        <trkpt lat="29.55096" lon="103.373837"><ele>1275.0233</ele><time>2026-04-03T12:49:08.000Z</time></trkpt>
        <trkpt lat="29.551007" lon="103.373824"><ele>1275.0767</ele><time>2026-04-03T12:49:12.000Z</time></trkpt>
        <trkpt lat="29.551055" lon="103.373846"><ele>1274.4518</ele><time>2026-04-03T12:49:19.000Z</time></trkpt>
        <trkpt lat="29.551115" lon="103.373832"><ele>1275.276</ele><time>2026-04-03T12:49:24.000Z</time></trkpt>
        <trkpt lat="29.551152" lon="103.373802"><ele>1274.9489</ele><time>2026-04-03T12:49:29.000Z</time></trkpt>
        <trkpt lat="29.55119" lon="103.373772"><ele>1274.4598</ele><time>2026-04-03T12:49:36.000Z</time></trkpt>
        <trkpt lat="29.551231" lon="103.373731"><ele>1272.2528</ele><time>2026-04-03T12:49:41.000Z</time></trkpt>
        <trkpt lat="29.551272" lon="103.373702"><ele>1273.1748</ele><time>2026-04-03T12:49:46.000Z</time></trkpt>
        <trkpt lat="29.551277" lon="103.37364"><ele>1268.881</ele><time>2026-04-03T12:49:51.000Z</time></trkpt>
        <trkpt lat="29.551296" lon="103.373584"><ele>1266.0925</ele><time>2026-04-03T12:49:56.000Z</time></trkpt>
        <trkpt lat="29.551341" lon="103.373556"><ele>1265.1484</ele><time>2026-04-03T12:50:00.000Z</time></trkpt>
        <trkpt lat="29.551358" lon="103.373499"><ele>1265.4987</ele><time>2026-04-03T12:50:09.000Z</time></trkpt>
        <trkpt lat="29.551392" lon="103.373459"><ele>1270.8422</ele><time>2026-04-03T12:50:27.000Z</time></trkpt>
        <trkpt lat="29.551358" lon="103.373423"><ele>1270.7888</ele><time>2026-04-03T12:50:54.000Z</time></trkpt>
        <trkpt lat="29.55135" lon="103.373362"><ele>1267.1475</ele><time>2026-04-03T12:51:14.000Z</time></trkpt>
        <trkpt lat="29.551344" lon="103.373295"><ele>1266.5126</ele><time>2026-04-03T12:51:25.000Z</time></trkpt>
        <trkpt lat="29.551311" lon="103.373252"><ele>1265.8838</ele><time>2026-04-03T12:51:29.000Z</time></trkpt>
        <trkpt lat="29.551268" lon="103.37321"><ele>1265.3239</ele><time>2026-04-03T12:51:34.000Z</time></trkpt>
        <trkpt lat="29.551236" lon="103.373171"><ele>1264.2112</ele><time>2026-04-03T12:51:38.000Z</time></trkpt>
        <trkpt lat="29.5512" lon="103.373127"><ele>1264.1805</ele><time>2026-04-03T12:51:43.000Z</time></trkpt>
        <trkpt lat="29.551177" lon="103.373078"><ele>1265.596</ele><time>2026-04-03T12:51:49.000Z</time></trkpt>
        <trkpt lat="29.551175" lon="103.373017"><ele>1267.2372</ele><time>2026-04-03T12:51:57.000Z</time></trkpt>
        <trkpt lat="29.551146" lon="103.372974"><ele>1263.7709</ele><time>2026-04-03T12:52:03.000Z</time></trkpt>
        <trkpt lat="29.551119" lon="103.372932"><ele>1261.4053</ele><time>2026-04-03T12:52:09.000Z</time></trkpt>
        <trkpt lat="29.551068" lon="103.372958"><ele>1259.4918</ele><time>2026-04-03T12:52:15.000Z</time></trkpt>
        <trkpt lat="29.55102" lon="103.372963"><ele>1259.6886</ele><time>2026-04-03T12:52:19.000Z</time></trkpt>
        <trkpt lat="29.550975" lon="103.372953"><ele>1257.6255</ele><time>2026-04-03T12:52:22.000Z</time></trkpt>
        <trkpt lat="29.550921" lon="103.372939"><ele>1257.7821</ele><time>2026-04-03T12:52:26.000Z</time></trkpt>
        <trkpt lat="29.550869" lon="103.37293"><ele>1256.8876</ele><time>2026-04-03T12:52:31.000Z</time></trkpt>
        <trkpt lat="29.550819" lon="103.372933"><ele>1256.6122</ele><time>2026-04-03T12:52:42.000Z</time></trkpt>
        <trkpt lat="29.55077" lon="103.372944"><ele>1255.4586</ele><time>2026-04-03T12:52:47.000Z</time></trkpt>
        <trkpt lat="29.550723" lon="103.372924"><ele>1256.4209</ele><time>2026-04-03T12:52:53.000Z</time></trkpt>
        <trkpt lat="29.550678" lon="103.372907"><ele>1258.3344</ele><time>2026-04-03T12:52:59.000Z</time></trkpt>
        <trkpt lat="29.550628" lon="103.372925"><ele>1257.5203</ele><time>2026-04-03T12:53:05.000Z</time></trkpt>
        <trkpt lat="29.550577" lon="103.372926"><ele>1259.1318</ele><time>2026-04-03T12:53:10.000Z</time></trkpt>
        <trkpt lat="29.550531" lon="103.372937"><ele>1277.466</ele><time>2026-04-03T12:53:25.000Z</time></trkpt>
        <trkpt lat="29.550487" lon="103.372923"><ele>1285.7854</ele><time>2026-04-03T12:53:37.000Z</time></trkpt>
        <trkpt lat="29.550441" lon="103.37296"><ele>1283.88</ele><time>2026-04-03T12:53:41.000Z</time></trkpt>
        <trkpt lat="29.550437" lon="103.372899"><ele>1295.4979</ele><time>2026-04-03T12:53:49.000Z</time></trkpt>
        <trkpt lat="29.550479" lon="103.372853"><ele>1306.1005</ele><time>2026-04-03T12:53:55.000Z</time></trkpt>
        <trkpt lat="29.550478" lon="103.372795"><ele>1316.4111</ele><time>2026-04-03T12:54:02.000Z</time></trkpt>
        <trkpt lat="29.55052" lon="103.372764"><ele>1322.262</ele><time>2026-04-03T12:54:05.000Z</time></trkpt>
        <trkpt lat="29.550472" lon="103.372771"><ele>1315.5828</ele><time>2026-04-03T12:54:09.000Z</time></trkpt>
        <trkpt lat="29.550534" lon="103.372732"><ele>1329.4541</ele><time>2026-04-03T12:54:27.000Z</time></trkpt>
        <trkpt lat="29.550578" lon="103.37271"><ele>1330.0215</ele><time>2026-04-03T12:54:29.000Z</time></trkpt>
        <trkpt lat="29.550595" lon="103.372653"><ele>1326.0267</ele><time>2026-04-03T12:54:36.000Z</time></trkpt>
        <trkpt lat="29.55064" lon="103.37263"><ele>1324.695</ele><time>2026-04-03T12:54:39.000Z</time></trkpt>
        <trkpt lat="29.55068" lon="103.372587"><ele>1321.4972</ele><time>2026-04-03T12:54:44.000Z</time></trkpt>
        <trkpt lat="29.550626" lon="103.37259"><ele>1312.5809</ele><time>2026-04-03T12:54:48.000Z</time></trkpt>
        <trkpt lat="29.55057" lon="103.372618"><ele>1301.479</ele><time>2026-04-03T12:54:50.000Z</time></trkpt>
        <trkpt lat="29.550525" lon="103.372626"><ele>1294.4595</ele><time>2026-04-03T12:54:53.000Z</time></trkpt>
        <trkpt lat="29.550529" lon="103.372562"><ele>1270.5903</ele><time>2026-04-03T12:55:06.000Z</time></trkpt>
        <trkpt lat="29.550556" lon="103.372509"><ele>1263.5764</ele><time>2026-04-03T12:55:12.000Z</time></trkpt>
        <trkpt lat="29.550566" lon="103.372458"><ele>1258.3257</ele><time>2026-04-03T12:55:34.000Z</time></trkpt>
        <trkpt lat="29.550602" lon="103.372409"><ele>1260.4873</ele><time>2026-04-03T12:55:39.000Z</time></trkpt>
        <trkpt lat="29.550635" lon="103.372361"><ele>1262.1293</ele><time>2026-04-03T12:55:44.000Z</time></trkpt>
        <trkpt lat="29.550675" lon="103.37232"><ele>1262.7361</ele><time>2026-04-03T12:55:49.000Z</time></trkpt>
        <trkpt lat="29.550705" lon="103.37227"><ele>1263.2903</ele><time>2026-04-03T12:55:55.000Z</time></trkpt>
        <trkpt lat="29.550723" lon="103.372212"><ele>1261.5579</ele><time>2026-04-03T12:56:00.000Z</time></trkpt>
        <trkpt lat="29.550724" lon="103.37216"><ele>1257.8799</ele><time>2026-04-03T12:56:03.000Z</time></trkpt>
        <trkpt lat="29.550697" lon="103.372101"><ele>1254.0331</ele><time>2026-04-03T12:56:08.000Z</time></trkpt>
        <trkpt lat="29.550654" lon="103.372066"><ele>1249.8025</ele><time>2026-04-03T12:56:12.000Z</time></trkpt>
        <trkpt lat="29.550612" lon="103.372028"><ele>1247.651</ele><time>2026-04-03T12:56:16.000Z</time></trkpt>
        <trkpt lat="29.550585" lon="103.371983"><ele>1244.6039</ele><time>2026-04-03T12:56:22.000Z</time></trkpt>
        <trkpt lat="29.550554" lon="103.371941"><ele>1242.7074</ele><time>2026-04-03T12:56:27.000Z</time></trkpt>
        <trkpt lat="29.550512" lon="103.371898"><ele>1242.0977</ele><time>2026-04-03T12:56:31.000Z</time></trkpt>
        <trkpt lat="29.550473" lon="103.371864"><ele>1241.1614</ele><time>2026-04-03T12:56:35.000Z</time></trkpt>
        <trkpt lat="29.550468" lon="103.371812"><ele>1240.9208</ele><time>2026-04-03T12:56:39.000Z</time></trkpt>
        <trkpt lat="29.550452" lon="103.371756"><ele>1244.3175</ele><time>2026-04-03T12:56:45.000Z</time></trkpt>
        <trkpt lat="29.550431" lon="103.371704"><ele>1244.8995</ele><time>2026-04-03T12:56:52.000Z</time></trkpt>
        <trkpt lat="29.550408" lon="103.371657"><ele>1246.8802</ele><time>2026-04-03T12:56:57.000Z</time></trkpt>
        <trkpt lat="29.550374" lon="103.37162"><ele>1244.6925</ele><time>2026-04-03T12:57:06.000Z</time></trkpt>
        <trkpt lat="29.550337" lon="103.371581"><ele>1247.2872</ele><time>2026-04-03T12:57:16.000Z</time></trkpt>
        <trkpt lat="29.550308" lon="103.371535"><ele>1254.4757</ele><time>2026-04-03T12:57:22.000Z</time></trkpt>
        <trkpt lat="29.550285" lon="103.371484"><ele>1257.1493</ele><time>2026-04-03T12:57:35.000Z</time></trkpt>
        <trkpt lat="29.550357" lon="103.371461"><ele>1267.8905</ele><time>2026-04-03T12:57:44.000Z</time></trkpt>
        <trkpt lat="29.550365" lon="103.371401"><ele>1263.4803</ele><time>2026-04-03T12:58:00.000Z</time></trkpt>
        <trkpt lat="29.550372" lon="103.371346"><ele>1261.8755</ele><time>2026-04-03T12:58:04.000Z</time></trkpt>
        <trkpt lat="29.550389" lon="103.371298"><ele>1261.7797</ele><time>2026-04-03T12:58:11.000Z</time></trkpt>
        <trkpt lat="29.550409" lon="103.371251"><ele>1263.9955</ele><time>2026-04-03T12:58:18.000Z</time></trkpt>
        <trkpt lat="29.550434" lon="103.371202"><ele>1264.2377</ele><time>2026-04-03T12:58:22.000Z</time></trkpt>
        <trkpt lat="29.550454" lon="103.371154"><ele>1263.9921</ele><time>2026-04-03T12:58:27.000Z</time></trkpt>
        <trkpt lat="29.550468" lon="103.371096"><ele>1263.0618</ele><time>2026-04-03T12:58:31.000Z</time></trkpt>
        <trkpt lat="29.550464" lon="103.371038"><ele>1263.8878</ele><time>2026-04-03T12:58:35.000Z</time></trkpt>
        <trkpt lat="29.550462" lon="103.370983"><ele>1262.0525</ele><time>2026-04-03T12:58:41.000Z</time></trkpt>
        <trkpt lat="29.550422" lon="103.370952"><ele>1260.4536</ele><time>2026-04-03T12:58:47.000Z</time></trkpt>
        <trkpt lat="29.550422" lon="103.370892"><ele>1258.7477</ele><time>2026-04-03T12:58:54.000Z</time></trkpt>
        <trkpt lat="29.550401" lon="103.370843"><ele>1260.3807</ele><time>2026-04-03T12:59:01.000Z</time></trkpt>
        <trkpt lat="29.550387" lon="103.370785"><ele>1261.211</ele><time>2026-04-03T12:59:08.000Z</time></trkpt>
        <trkpt lat="29.550362" lon="103.370737"><ele>1260.0002</ele><time>2026-04-03T12:59:18.000Z</time></trkpt>
        <trkpt lat="29.550362" lon="103.370684"><ele>1251.8331</ele><time>2026-04-03T12:59:30.000Z</time></trkpt>
        <trkpt lat="29.550342" lon="103.370631"><ele>1242.1665</ele><time>2026-04-03T12:59:40.000Z</time></trkpt>
        <trkpt lat="29.550363" lon="103.370567"><ele>1244.097</ele><time>2026-04-03T12:59:48.000Z</time></trkpt>
        <trkpt lat="29.550361" lon="103.370515"><ele>1245.52</ele><time>2026-04-03T12:59:54.000Z</time></trkpt>
        <trkpt lat="29.55036" lon="103.37046"><ele>1246.4602</ele><time>2026-04-03T13:01:25.000Z</time></trkpt>
        <trkpt lat="29.550334" lon="103.370507"><ele>1249.7775</ele><time>2026-04-03T13:01:52.000Z</time></trkpt>
        <trkpt lat="29.550368" lon="103.370471"><ele>1248.6556</ele><time>2026-04-03T13:02:03.000Z</time></trkpt>
        <trkpt lat="29.550331" lon="103.370504"><ele>1249.2643</ele><time>2026-04-03T13:02:19.000Z</time></trkpt>
        <trkpt lat="29.550344" lon="103.370449"><ele>1256.6903</ele><time>2026-04-03T13:03:33.000Z</time></trkpt>
        <trkpt lat="29.550324" lon="103.370398"><ele>1258.7516</ele><time>2026-04-03T13:03:40.000Z</time></trkpt>
        <trkpt lat="29.550295" lon="103.370353"><ele>1258.2976</ele><time>2026-04-03T13:03:49.000Z</time></trkpt>
        <trkpt lat="29.550305" lon="103.370301"><ele>1257.5632</ele><time>2026-04-03T13:03:52.000Z</time></trkpt>
        <trkpt lat="29.550312" lon="103.37025"><ele>1257.7985</ele><time>2026-04-03T13:03:57.000Z</time></trkpt>
        <trkpt lat="29.550311" lon="103.370192"><ele>1260.192</ele><time>2026-04-03T13:04:03.000Z</time></trkpt>
        <trkpt lat="29.550325" lon="103.370133"><ele>1257.7808</ele><time>2026-04-03T13:04:06.000Z</time></trkpt>
        <trkpt lat="29.550287" lon="103.370105"><ele>1262.6099</ele><time>2026-04-03T13:04:11.000Z</time></trkpt>
        <trkpt lat="29.550256" lon="103.370066"><ele>1264.6874</ele><time>2026-04-03T13:04:18.000Z</time></trkpt>
        <trkpt lat="29.550254" lon="103.370006"><ele>1266.4124</ele><time>2026-04-03T13:04:25.000Z</time></trkpt>
        <trkpt lat="29.550221" lon="103.369952"><ele>1266.7855</ele><time>2026-04-03T13:04:37.000Z</time></trkpt>
        <trkpt lat="29.550216" lon="103.369896"><ele>1269.6965</ele><time>2026-04-03T13:04:53.000Z</time></trkpt>
        <trkpt lat="29.550179" lon="103.36986"><ele>1276.9644</ele><time>2026-04-03T13:05:11.000Z</time></trkpt>
        <trkpt lat="29.550167" lon="103.369808"><ele>1280.7091</ele><time>2026-04-03T13:05:29.000Z</time></trkpt>
        <trkpt lat="29.550135" lon="103.369769"><ele>1284.7914</ele><time>2026-04-03T13:05:48.000Z</time></trkpt>
        <trkpt lat="29.550117" lon="103.369718"><ele>1286.7318</ele><time>2026-04-03T13:06:00.000Z</time></trkpt>
        <trkpt lat="29.5501" lon="103.369662"><ele>1285.5361</ele><time>2026-04-03T13:06:10.000Z</time></trkpt>
        <trkpt lat="29.550062" lon="103.369626"><ele>1285.8611</ele><time>2026-04-03T13:06:19.000Z</time></trkpt>
        <trkpt lat="29.550023" lon="103.369587"><ele>1284.5592</ele><time>2026-04-03T13:06:25.000Z</time></trkpt>
        <trkpt lat="29.550034" lon="103.369537"><ele>1286.2544</ele><time>2026-04-03T13:06:33.000Z</time></trkpt>
        <trkpt lat="29.550004" lon="103.369497"><ele>1289.9215</ele><time>2026-04-03T13:06:41.000Z</time></trkpt>
        <trkpt lat="29.549971" lon="103.36946"><ele>1290.3746</ele><time>2026-04-03T13:06:53.000Z</time></trkpt>
        <trkpt lat="29.549954" lon="103.369406"><ele>1289.7666</ele><time>2026-04-03T13:06:59.000Z</time></trkpt>
        <trkpt lat="29.549921" lon="103.369366"><ele>1288.6643</ele><time>2026-04-03T13:07:05.000Z</time></trkpt>
        <trkpt lat="29.549917" lon="103.369312"><ele>1290.7286</ele><time>2026-04-03T13:07:15.000Z</time></trkpt>
        <trkpt lat="29.549919" lon="103.369253"><ele>1291.6947</ele><time>2026-04-03T13:07:24.000Z</time></trkpt>
        <trkpt lat="29.549915" lon="103.369196"><ele>1290.0103</ele><time>2026-04-03T13:07:29.000Z</time></trkpt>
        <trkpt lat="29.549901" lon="103.369139"><ele>1289.5259</ele><time>2026-04-03T13:07:37.000Z</time></trkpt>
        <trkpt lat="29.549883" lon="103.369086"><ele>1291.8116</ele><time>2026-04-03T13:07:47.000Z</time></trkpt>
        <trkpt lat="29.549893" lon="103.369034"><ele>1292.156</ele><time>2026-04-03T13:08:08.000Z</time></trkpt>
        <trkpt lat="29.549844" lon="103.369044"><ele>1299.2904</ele><time>2026-04-03T13:08:37.000Z</time></trkpt>
        <trkpt lat="29.549876" lon="103.369006"><ele>1301.8282</ele><time>2026-04-03T13:08:48.000Z</time></trkpt>
        <trkpt lat="29.549897" lon="103.36896"><ele>1302.7896</ele><time>2026-04-03T13:09:02.000Z</time></trkpt>
        <trkpt lat="29.549884" lon="103.368905"><ele>1305.0293</ele><time>2026-04-03T13:09:15.000Z</time></trkpt>
        <trkpt lat="29.549837" lon="103.368912"><ele>1304.0564</ele><time>2026-04-03T13:09:22.000Z</time></trkpt>
        <trkpt lat="29.549791" lon="103.368915"><ele>1301.8016</ele><time>2026-04-03T13:09:38.000Z</time></trkpt>
        <trkpt lat="29.54976" lon="103.368874"><ele>1302.775</ele><time>2026-04-03T13:09:57.000Z</time></trkpt>
        <trkpt lat="29.549715" lon="103.36886"><ele>1303.6499</ele><time>2026-04-03T13:10:05.000Z</time></trkpt>
        <trkpt lat="29.549676" lon="103.368832"><ele>1306.0338</ele><time>2026-04-03T13:10:11.000Z</time></trkpt>
        <trkpt lat="29.549631" lon="103.368801"><ele>1306.0575</ele><time>2026-04-03T13:10:17.000Z</time></trkpt>
        <trkpt lat="29.549618" lon="103.368751"><ele>1309.0913</ele><time>2026-04-03T13:10:29.000Z</time></trkpt>
        <trkpt lat="29.549598" lon="103.368702"><ele>1311.3043</ele><time>2026-04-03T13:10:55.000Z</time></trkpt>
        <trkpt lat="29.549622" lon="103.368658"><ele>1329.9506</ele><time>2026-04-03T13:12:24.000Z</time></trkpt>
        <trkpt lat="29.549656" lon="103.368623"><ele>1330.108</ele><time>2026-04-03T13:12:45.000Z</time></trkpt>
        <trkpt lat="29.549691" lon="103.368662"><ele>1339.0461</ele><time>2026-04-03T13:13:04.000Z</time></trkpt>
        <trkpt lat="29.549717" lon="103.368616"><ele>1337.8307</ele><time>2026-04-03T13:13:15.000Z</time></trkpt>
        <trkpt lat="29.549717" lon="103.368563"><ele>1333.3705</ele><time>2026-04-03T13:13:22.000Z</time></trkpt>
        <trkpt lat="29.549762" lon="103.368545"><ele>1334.2394</ele><time>2026-04-03T13:13:36.000Z</time></trkpt>
        <trkpt lat="29.549741" lon="103.36849"><ele>1338.0073</ele><time>2026-04-03T13:13:46.000Z</time></trkpt>
        <trkpt lat="29.549768" lon="103.368447"><ele>1347.894</ele><time>2026-04-03T13:14:11.000Z</time></trkpt>
        <trkpt lat="29.549793" lon="103.368403"><ele>1353.9264</ele><time>2026-04-03T13:14:39.000Z</time></trkpt>
        <trkpt lat="29.549832" lon="103.36837"><ele>1353.7783</ele><time>2026-04-03T13:15:01.000Z</time></trkpt>
        <trkpt lat="29.549871" lon="103.368336"><ele>1354.2683</ele><time>2026-04-03T13:15:13.000Z</time></trkpt>
        <trkpt lat="29.549909" lon="103.368306"><ele>1358.9744</ele><time>2026-04-03T13:15:28.000Z</time></trkpt>
        <trkpt lat="29.549894" lon="103.368256"><ele>1363.0028</ele><time>2026-04-03T13:15:58.000Z</time></trkpt>
        <trkpt lat="29.549902" lon="103.368173"><ele>1362.9049</ele><time>2026-04-03T13:16:50.000Z</time></trkpt>
        <trkpt lat="29.549929" lon="103.368214"><ele>1360.1113</ele><time>2026-04-03T13:19:21.000Z</time></trkpt>
        <trkpt lat="29.549883" lon="103.368221"><ele>1363.0875</ele><time>2026-04-03T13:20:30.000Z</time></trkpt>
        <trkpt lat="29.54991" lon="103.368173"><ele>1364.7274</ele><time>2026-04-03T13:23:23.000Z</time></trkpt>
        <trkpt lat="29.54992" lon="103.368122"><ele>1366.6884</ele><time>2026-04-03T13:23:39.000Z</time></trkpt>
        <trkpt lat="29.549874" lon="103.368081"><ele>1376.9685</ele><time>2026-04-03T13:24:11.000Z</time></trkpt>
        <trkpt lat="29.549912" lon="103.368046"><ele>1371.7433</ele><time>2026-04-03T13:25:21.000Z</time></trkpt>
        <trkpt lat="29.549918" lon="103.367994"><ele>1380.9412</ele><time>2026-04-03T13:25:43.000Z</time></trkpt>
        <trkpt lat="29.549897" lon="103.367947"><ele>1388.9027</ele><time>2026-04-03T13:26:26.000Z</time></trkpt>
        <trkpt lat="29.549822" lon="103.368056"><ele>1402.6493</ele><time>2026-04-03T13:29:34.000Z</time></trkpt>
        <trkpt lat="29.549825" lon="103.368003"><ele>1402.2972</ele><time>2026-04-03T13:31:38.000Z</time></trkpt>
        <trkpt lat="29.549881" lon="103.367994"><ele>1405.4587</ele><time>2026-04-03T13:31:48.000Z</time></trkpt>
        <trkpt lat="29.549921" lon="103.367968"><ele>1403.6166</ele><time>2026-04-03T13:31:58.000Z</time></trkpt>
        <trkpt lat="29.549917" lon="103.367911"><ele>1404.7568</ele><time>2026-04-03T13:32:26.000Z</time></trkpt>
        <trkpt lat="29.54989" lon="103.367865"><ele>1403.2783</ele><time>2026-04-03T13:32:35.000Z</time></trkpt>
        <trkpt lat="29.549914" lon="103.367819"><ele>1399.1006</ele><time>2026-04-03T13:32:48.000Z</time></trkpt>
        <trkpt lat="29.549955" lon="103.367793"><ele>1401.0325</ele><time>2026-04-03T13:33:17.000Z</time></trkpt>
        <trkpt lat="29.549991" lon="103.367752"><ele>1400.3438</ele><time>2026-04-03T13:33:31.000Z</time></trkpt>
        <trkpt lat="29.550027" lon="103.36772"><ele>1404.1627</ele><time>2026-04-03T13:33:42.000Z</time></trkpt>
        <trkpt lat="29.550072" lon="103.367721"><ele>1409.7561</ele><time>2026-04-03T13:33:55.000Z</time></trkpt>
        <trkpt lat="29.550111" lon="103.367692"><ele>1411.3689</ele><time>2026-04-03T13:34:04.000Z</time></trkpt>
        <trkpt lat="29.550131" lon="103.367646"><ele>1412.642</ele><time>2026-04-03T13:34:12.000Z</time></trkpt>
        <trkpt lat="29.550143" lon="103.367592"><ele>1414.1226</ele><time>2026-04-03T13:34:22.000Z</time></trkpt>
        <trkpt lat="29.550159" lon="103.367541"><ele>1414.5842</ele><time>2026-04-03T13:34:35.000Z</time></trkpt>
        <trkpt lat="29.550197" lon="103.367506"><ele>1418.7498</ele><time>2026-04-03T13:34:49.000Z</time></trkpt>
        <trkpt lat="29.550233" lon="103.367452"><ele>1422.3383</ele><time>2026-04-03T13:35:07.000Z</time></trkpt>
        <trkpt lat="29.550203" lon="103.367406"><ele>1423.8223</ele><time>2026-04-03T13:35:31.000Z</time></trkpt>
        <trkpt lat="29.550157" lon="103.367404"><ele>1425.674</ele><time>2026-04-03T13:35:44.000Z</time></trkpt>
        <trkpt lat="29.55011" lon="103.367402"><ele>1426.2161</ele><time>2026-04-03T13:35:53.000Z</time></trkpt>
        <trkpt lat="29.550082" lon="103.367356"><ele>1428.6615</ele><time>2026-04-03T13:36:36.000Z</time></trkpt>
        <trkpt lat="29.550116" lon="103.367321"><ele>1432.7703</ele><time>2026-04-03T13:36:46.000Z</time></trkpt>
        <trkpt lat="29.550145" lon="103.367281"><ele>1438.3455</ele><time>2026-04-03T13:37:02.000Z</time></trkpt>
        <trkpt lat="29.550164" lon="103.36723"><ele>1439.7611</ele><time>2026-04-03T13:37:11.000Z</time></trkpt>
        <trkpt lat="29.550166" lon="103.367174"><ele>1445.1781</ele><time>2026-04-03T13:37:19.000Z</time></trkpt>
        <trkpt lat="29.550183" lon="103.367122"><ele>1452.4497</ele><time>2026-04-03T13:37:29.000Z</time></trkpt>
        <trkpt lat="29.550193" lon="103.367067"><ele>1460.5076</ele><time>2026-04-03T13:37:40.000Z</time></trkpt>
        <trkpt lat="29.550198" lon="103.367009"><ele>1461.0037</ele><time>2026-04-03T13:37:47.000Z</time></trkpt>
        <trkpt lat="29.5502" lon="103.366953"><ele>1463.9119</ele><time>2026-04-03T13:38:04.000Z</time></trkpt>
        <trkpt lat="29.550244" lon="103.366928"><ele>1462.118</ele><time>2026-04-03T13:38:09.000Z</time></trkpt>
        <trkpt lat="29.550278" lon="103.366893"><ele>1456.9546</ele><time>2026-04-03T13:38:18.000Z</time></trkpt>
        <trkpt lat="29.550228" lon="103.366897"><ele>1457.0554</ele><time>2026-04-03T13:38:32.000Z</time></trkpt>
        <trkpt lat="29.550182" lon="103.366906"><ele>1459.2441</ele><time>2026-04-03T13:38:37.000Z</time></trkpt>
      </trkseg>
      <trkseg>
        <trkpt lat="29.55017" lon="103.366842"><ele>1447.5667</ele><time>2026-04-03T13:42:17.000Z</time></trkpt>
        <trkpt lat="29.550153" lon="103.366793"><ele>1446.15</ele><time>2026-04-03T13:42:29.000Z</time></trkpt>
        <trkpt lat="29.550152" lon="103.36674"><ele>1441.0393</ele><time>2026-04-03T13:42:44.000Z</time></trkpt>
        <trkpt lat="29.550106" lon="103.366722"><ele>1449.8483</ele><time>2026-04-03T13:45:48.000Z</time></trkpt>
        <trkpt lat="29.550068" lon="103.366693"><ele>1450.9624</ele><time>2026-04-03T13:46:08.000Z</time></trkpt>
        <trkpt lat="29.55002" lon="103.366699"><ele>1459.861</ele><time>2026-04-03T13:46:30.000Z</time></trkpt>
        <trkpt lat="29.549977" lon="103.366676"><ele>1463.078</ele><time>2026-04-03T13:46:48.000Z</time></trkpt>
        <trkpt lat="29.54993" lon="103.366652"><ele>1464.9615</ele><time>2026-04-03T13:47:20.000Z</time></trkpt>
        <trkpt lat="29.549902" lon="103.366611"><ele>1460.8063</ele><time>2026-04-03T13:48:38.000Z</time></trkpt>
        <trkpt lat="29.549862" lon="103.366648"><ele>1467.0782</ele><time>2026-04-03T13:48:54.000Z</time></trkpt>
        <trkpt lat="29.549816" lon="103.366649"><ele>1465.5223</ele><time>2026-04-03T13:49:02.000Z</time></trkpt>
        <trkpt lat="29.549776" lon="103.366618"><ele>1463.7692</ele><time>2026-04-03T13:49:14.000Z</time></trkpt>
        <trkpt lat="29.54974" lon="103.366662"><ele>1469.8948</ele><time>2026-04-03T13:49:35.000Z</time></trkpt>
        <trkpt lat="29.549704" lon="103.366629"><ele>1470.9425</ele><time>2026-04-03T13:49:45.000Z</time></trkpt>
        <trkpt lat="29.549663" lon="103.366603"><ele>1472.2406</ele><time>2026-04-03T13:50:02.000Z</time></trkpt>
        <trkpt lat="29.549621" lon="103.366583"><ele>1475.5936</ele><time>2026-04-03T13:50:17.000Z</time></trkpt>
        <trkpt lat="29.549599" lon="103.366535"><ele>1475.548</ele><time>2026-04-03T13:50:30.000Z</time></trkpt>
        <trkpt lat="29.549558" lon="103.366511"><ele>1480.2383</ele><time>2026-04-03T13:50:51.000Z</time></trkpt>
        <trkpt lat="29.549513" lon="103.366489"><ele>1479.2948</ele><time>2026-04-03T13:51:01.000Z</time></trkpt>
        <trkpt lat="29.549472" lon="103.366464"><ele>1483.638</ele><time>2026-04-03T13:51:18.000Z</time></trkpt>
        <trkpt lat="29.549442" lon="103.366423"><ele>1486.6736</ele><time>2026-04-03T13:51:35.000Z</time></trkpt>
        <trkpt lat="29.549409" lon="103.366384"><ele>1490.3422</ele><time>2026-04-03T13:52:00.000Z</time></trkpt>
        <trkpt lat="29.549405" lon="103.36633"><ele>1492.0634</ele><time>2026-04-03T13:52:13.000Z</time></trkpt>
        <trkpt lat="29.549438" lon="103.366292"><ele>1492.027</ele><time>2026-04-03T13:52:25.000Z</time></trkpt>
        <trkpt lat="29.549454" lon="103.366228"><ele>1490.5425</ele><time>2026-04-03T13:53:13.000Z</time></trkpt>
        <trkpt lat="29.549417" lon="103.36627"><ele>1491.1024</ele><time>2026-04-03T13:59:07.000Z</time></trkpt>
        <trkpt lat="29.549448" lon="103.36623"><ele>1495.78</ele><time>2026-04-03T14:04:30.000Z</time></trkpt>
        <trkpt lat="29.549491" lon="103.366187"><ele>1499.9869</ele><time>2026-04-03T14:04:39.000Z</time></trkpt>
        <trkpt lat="29.549538" lon="103.366182"><ele>1503.2064</ele><time>2026-04-03T14:04:55.000Z</time></trkpt>
        <trkpt lat="29.549576" lon="103.366146"><ele>1499.4298</ele><time>2026-04-03T14:05:03.000Z</time></trkpt>
        <trkpt lat="29.549595" lon="103.36609"><ele>1501.592</ele><time>2026-04-03T14:05:12.000Z</time></trkpt>
        <trkpt lat="29.54963" lon="103.366048"><ele>1503.5598</ele><time>2026-04-03T14:05:17.000Z</time></trkpt>
        <trkpt lat="29.549628" lon="103.365995"><ele>1504.8635</ele><time>2026-04-03T14:05:22.000Z</time></trkpt>
        <trkpt lat="29.549621" lon="103.365943"><ele>1499.2797</ele><time>2026-04-03T14:05:32.000Z</time></trkpt>
        <trkpt lat="29.549634" lon="103.36589"><ele>1496.517</ele><time>2026-04-03T14:05:42.000Z</time></trkpt>
        <trkpt lat="29.549646" lon="103.365838"><ele>1495.7391</ele><time>2026-04-03T14:05:48.000Z</time></trkpt>
        <trkpt lat="29.549614" lon="103.365791"><ele>1497.1549</ele><time>2026-04-03T14:06:00.000Z</time></trkpt>
        <trkpt lat="29.549598" lon="103.365742"><ele>1497.5759</ele><time>2026-04-03T14:06:06.000Z</time></trkpt>
        <trkpt lat="29.54959" lon="103.365684"><ele>1497.127</ele><time>2026-04-03T14:06:13.000Z</time></trkpt>
        <trkpt lat="29.549564" lon="103.365639"><ele>1501.2234</ele><time>2026-04-03T14:06:23.000Z</time></trkpt>
        <trkpt lat="29.549522" lon="103.365614"><ele>1502.5775</ele><time>2026-04-03T14:06:29.000Z</time></trkpt>
        <trkpt lat="29.549493" lon="103.365562"><ele>1503.1226</ele><time>2026-04-03T14:06:34.000Z</time></trkpt>
        <trkpt lat="29.549518" lon="103.365505"><ele>1502.715</ele><time>2026-04-03T14:06:40.000Z</time></trkpt>
        <trkpt lat="29.549551" lon="103.365458"><ele>1503.9537</ele><time>2026-04-03T14:06:45.000Z</time></trkpt>
        <trkpt lat="29.549593" lon="103.365418"><ele>1504.3293</ele><time>2026-04-03T14:06:49.000Z</time></trkpt>
        <trkpt lat="29.549634" lon="103.365382"><ele>1503.9891</ele><time>2026-04-03T14:06:54.000Z</time></trkpt>
        <trkpt lat="29.54966" lon="103.365333"><ele>1505.5679</ele><time>2026-04-03T14:06:59.000Z</time></trkpt>
        <trkpt lat="29.549678" lon="103.365277"><ele>1506.9023</ele><time>2026-04-03T14:07:04.000Z</time></trkpt>
        <trkpt lat="29.549712" lon="103.365232"><ele>1507.2372</ele><time>2026-04-03T14:07:10.000Z</time></trkpt>
        <trkpt lat="29.549745" lon="103.365182"><ele>1507.3807</ele><time>2026-04-03T14:07:16.000Z</time></trkpt>
        <trkpt lat="29.549786" lon="103.365139"><ele>1507.7367</ele><time>2026-04-03T14:07:21.000Z</time></trkpt>
        <trkpt lat="29.549822" lon="103.365095"><ele>1507.6462</ele><time>2026-04-03T14:07:26.000Z</time></trkpt>
        <trkpt lat="29.54985" lon="103.36505"><ele>1507.4086</ele><time>2026-04-03T14:07:31.000Z</time></trkpt>
        <trkpt lat="29.549868" lon="103.364993"><ele>1508.7415</ele><time>2026-04-03T14:07:37.000Z</time></trkpt>
        <trkpt lat="29.549885" lon="103.364945"><ele>1509.0109</ele><time>2026-04-03T14:07:42.000Z</time></trkpt>
        <trkpt lat="29.549897" lon="103.364887"><ele>1510.0231</ele><time>2026-04-03T14:07:48.000Z</time></trkpt>
        <trkpt lat="29.549935" lon="103.36486"><ele>1509.8306</ele><time>2026-04-03T14:07:54.000Z</time></trkpt>
        <trkpt lat="29.549974" lon="103.364817"><ele>1510.1284</ele><time>2026-04-03T14:08:00.000Z</time></trkpt>
        <trkpt lat="29.549986" lon="103.364763"><ele>1514.0245</ele><time>2026-04-03T14:08:08.000Z</time></trkpt>
        <trkpt lat="29.550011" lon="103.364718"><ele>1513.6261</ele><time>2026-04-03T14:08:14.000Z</time></trkpt>
        <trkpt lat="29.550017" lon="103.364663"><ele>1514.6526</ele><time>2026-04-03T14:08:20.000Z</time></trkpt>
        <trkpt lat="29.550025" lon="103.364611"><ele>1513.4884</ele><time>2026-04-03T14:08:25.000Z</time></trkpt>
        <trkpt lat="29.550054" lon="103.364553"><ele>1509.8344</ele><time>2026-04-03T14:08:33.000Z</time></trkpt>
        <trkpt lat="29.550087" lon="103.364512"><ele>1508.4065</ele><time>2026-04-03T14:08:38.000Z</time></trkpt>
        <trkpt lat="29.550119" lon="103.364471"><ele>1508.6343</ele><time>2026-04-03T14:08:43.000Z</time></trkpt>
        <trkpt lat="29.550139" lon="103.364421"><ele>1510.8473</ele><time>2026-04-03T14:08:48.000Z</time></trkpt>
        <trkpt lat="29.550168" lon="103.364373"><ele>1513.0504</ele><time>2026-04-03T14:08:53.000Z</time></trkpt>
        <trkpt lat="29.550205" lon="103.364329"><ele>1513.5759</ele><time>2026-04-03T14:08:58.000Z</time></trkpt>
        <trkpt lat="29.550235" lon="103.364289"><ele>1512.65</ele><time>2026-04-03T14:09:04.000Z</time></trkpt>
        <trkpt lat="29.550269" lon="103.364251"><ele>1514.0403</ele><time>2026-04-03T14:09:11.000Z</time></trkpt>
        <trkpt lat="29.550269" lon="103.364195"><ele>1516.3813</ele><time>2026-04-03T14:09:16.000Z</time></trkpt>
        <trkpt lat="29.550283" lon="103.364134"><ele>1519.1348</ele><time>2026-04-03T14:09:24.000Z</time></trkpt>
        <trkpt lat="29.550306" lon="103.364082"><ele>1519.8152</ele><time>2026-04-03T14:09:33.000Z</time></trkpt>
        <trkpt lat="29.550336" lon="103.36404"><ele>1518.1393</ele><time>2026-04-03T14:09:42.000Z</time></trkpt>
        <trkpt lat="29.550372" lon="103.363997"><ele>1517.4298</ele><time>2026-04-03T14:09:56.000Z</time></trkpt>
        <trkpt lat="29.550414" lon="103.36402"><ele>1517.7787</ele><time>2026-04-03T14:10:06.000Z</time></trkpt>
        <trkpt lat="29.550437" lon="103.363974"><ele>1520.5627</ele><time>2026-04-03T14:10:29.000Z</time></trkpt>
        <trkpt lat="29.550431" lon="103.363922"><ele>1521.3285</ele><time>2026-04-03T14:10:40.000Z</time></trkpt>
        <trkpt lat="29.55044" lon="103.363869"><ele>1521.8577</ele><time>2026-04-03T14:10:47.000Z</time></trkpt>
        <trkpt lat="29.550473" lon="103.36383"><ele>1524.7866</ele><time>2026-04-03T14:10:57.000Z</time></trkpt>
        <trkpt lat="29.550517" lon="103.363814"><ele>1524.3259</ele><time>2026-04-03T14:11:03.000Z</time></trkpt>
        <trkpt lat="29.550567" lon="103.363791"><ele>1524.5669</ele><time>2026-04-03T14:11:13.000Z</time></trkpt>
        <trkpt lat="29.550596" lon="103.36375"><ele>1530.1112</ele><time>2026-04-03T14:11:21.000Z</time></trkpt>
        <trkpt lat="29.550639" lon="103.363732"><ele>1529.8942</ele><time>2026-04-03T14:11:26.000Z</time></trkpt>
        <trkpt lat="29.550674" lon="103.363694"><ele>1529.9318</ele><time>2026-04-03T14:11:33.000Z</time></trkpt>
        <trkpt lat="29.550716" lon="103.363663"><ele>1529.9084</ele><time>2026-04-03T14:11:39.000Z</time></trkpt>
        <trkpt lat="29.550713" lon="103.363606"><ele>1534.8628</ele><time>2026-04-03T14:11:57.000Z</time></trkpt>
        <trkpt lat="29.550703" lon="103.363554"><ele>1532.4998</ele><time>2026-04-03T14:12:03.000Z</time></trkpt>
        <trkpt lat="29.550687" lon="103.363504"><ele>1530.703</ele><time>2026-04-03T14:12:11.000Z</time></trkpt>
        <trkpt lat="29.550684" lon="103.363451"><ele>1531.354</ele><time>2026-04-03T14:12:19.000Z</time></trkpt>
        <trkpt lat="29.550684" lon="103.363395"><ele>1530.7896</ele><time>2026-04-03T14:12:29.000Z</time></trkpt>
        <trkpt lat="29.55069" lon="103.363341"><ele>1536.298</ele><time>2026-04-03T14:12:45.000Z</time></trkpt>
        <trkpt lat="29.550729" lon="103.363314"><ele>1534.564</ele><time>2026-04-03T14:13:04.000Z</time></trkpt>
        <trkpt lat="29.550776" lon="103.363333"><ele>1535.8267</ele><time>2026-04-03T14:13:13.000Z</time></trkpt>
        <trkpt lat="29.550748" lon="103.363285"><ele>1545.0273</ele><time>2026-04-03T14:13:29.000Z</time></trkpt>
        <trkpt lat="29.550732" lon="103.363234"><ele>1548.4678</ele><time>2026-04-03T14:13:42.000Z</time></trkpt>
        <trkpt lat="29.550734" lon="103.363178"><ele>1552.1133</ele><time>2026-04-03T14:14:06.000Z</time></trkpt>
        <trkpt lat="29.550745" lon="103.363125"><ele>1552.9547</ele><time>2026-04-03T14:14:24.000Z</time></trkpt>
        <trkpt lat="29.550762" lon="103.363074"><ele>1552.7064</ele><time>2026-04-03T14:15:01.000Z</time></trkpt>
        <trkpt lat="29.550812" lon="103.363086"><ele>1553.139</ele><time>2026-04-03T14:15:12.000Z</time></trkpt>
        <trkpt lat="29.550815" lon="103.363033"><ele>1559.6974</ele><time>2026-04-03T14:15:37.000Z</time></trkpt>
        <trkpt lat="29.550781" lon="103.362997"><ele>1563.3853</ele><time>2026-04-03T14:15:55.000Z</time></trkpt>
        <trkpt lat="29.550737" lon="103.362971"><ele>1565.7848</ele><time>2026-04-03T14:16:04.000Z</time></trkpt>
        <trkpt lat="29.550693" lon="103.362954"><ele>1570.5713</ele><time>2026-04-03T14:16:55.000Z</time></trkpt>
        <trkpt lat="29.550646" lon="103.362961"><ele>1573.4503</ele><time>2026-04-03T14:17:07.000Z</time></trkpt>
        <trkpt lat="29.5506" lon="103.362948"><ele>1573.5212</ele><time>2026-04-03T14:17:17.000Z</time></trkpt>
        <trkpt lat="29.550571" lon="103.362898"><ele>1573.9261</ele><time>2026-04-03T14:17:29.000Z</time></trkpt>
        <trkpt lat="29.550566" lon="103.362844"><ele>1573.8472</ele><time>2026-04-03T14:17:51.000Z</time></trkpt>
        <trkpt lat="29.550584" lon="103.36279"><ele>1575.0903</ele><time>2026-04-03T14:18:00.000Z</time></trkpt>
        <trkpt lat="29.550594" lon="103.362737"><ele>1578.6868</ele><time>2026-04-03T14:18:57.000Z</time></trkpt>
        <trkpt lat="29.550602" lon="103.362682"><ele>1581.0726</ele><time>2026-04-03T14:19:12.000Z</time></trkpt>
        <trkpt lat="29.550623" lon="103.362633"><ele>1582.1464</ele><time>2026-04-03T14:19:24.000Z</time></trkpt>
        <trkpt lat="29.550625" lon="103.362578"><ele>1586.1746</ele><time>2026-04-03T14:19:40.000Z</time></trkpt>
        <trkpt lat="29.550637" lon="103.362526"><ele>1586.7124</ele><time>2026-04-03T14:20:08.000Z</time></trkpt>
        <trkpt lat="29.550662" lon="103.362477"><ele>1588.755</ele><time>2026-04-03T14:20:21.000Z</time></trkpt>
        <trkpt lat="29.550671" lon="103.362425"><ele>1591.1271</ele><time>2026-04-03T14:20:39.000Z</time></trkpt>
        <trkpt lat="29.550667" lon="103.362373"><ele>1594.7001</ele><time>2026-04-03T14:22:41.000Z</time></trkpt>
        <trkpt lat="29.550643" lon="103.362324"><ele>1598.1317</ele><time>2026-04-03T14:23:04.000Z</time></trkpt>
        <trkpt lat="29.550616" lon="103.36228"><ele>1598.7261</ele><time>2026-04-03T14:23:31.000Z</time></trkpt>
        <trkpt lat="29.550605" lon="103.36223"><ele>1601.0132</ele><time>2026-04-03T14:24:59.000Z</time></trkpt>
        <trkpt lat="29.550566" lon="103.362205"><ele>1603.8302</ele><time>2026-04-03T14:25:17.000Z</time></trkpt>
        <trkpt lat="29.550554" lon="103.362154"><ele>1605.2173</ele><time>2026-04-03T14:25:57.000Z</time></trkpt>
        <trkpt lat="29.550547" lon="103.362102"><ele>1607.1969</ele><time>2026-04-03T14:26:07.000Z</time></trkpt>
        <trkpt lat="29.550553" lon="103.362046"><ele>1608.6703</ele><time>2026-04-03T14:26:16.000Z</time></trkpt>
        <trkpt lat="29.550578" lon="103.362"><ele>1610.3933</ele><time>2026-04-03T14:27:16.000Z</time></trkpt>
        <trkpt lat="29.550602" lon="103.361952"><ele>1610.5892</ele><time>2026-04-03T14:27:28.000Z</time></trkpt>
        <trkpt lat="29.550578" lon="103.361904"><ele>1616.0558</ele><time>2026-04-03T14:27:49.000Z</time></trkpt>
        <trkpt lat="29.550552" lon="103.361858"><ele>1618.9303</ele><time>2026-04-03T14:28:01.000Z</time></trkpt>
        <trkpt lat="29.550531" lon="103.361812"><ele>1619.2408</ele><time>2026-04-03T14:28:10.000Z</time></trkpt>
        <trkpt lat="29.550499" lon="103.361772"><ele>1622.1608</ele><time>2026-04-03T14:28:22.000Z</time></trkpt>
        <trkpt lat="29.550467" lon="103.361726"><ele>1624.5607</ele><time>2026-04-03T14:28:38.000Z</time></trkpt>
        <trkpt lat="29.550439" lon="103.361678"><ele>1625.8201</ele><time>2026-04-03T14:28:46.000Z</time></trkpt>
        <trkpt lat="29.550398" lon="103.361647"><ele>1625.7603</ele><time>2026-04-03T14:28:57.000Z</time></trkpt>
        <trkpt lat="29.550354" lon="103.361624"><ele>1626.6974</ele><time>2026-04-03T14:29:12.000Z</time></trkpt>
        <trkpt lat="29.550386" lon="103.361585"><ele>1628.8263</ele><time>2026-04-03T14:29:51.000Z</time></trkpt>
        <trkpt lat="29.550421" lon="103.361551"><ele>1629.1309</ele><time>2026-04-03T14:30:26.000Z</time></trkpt>
        <trkpt lat="29.550382" lon="103.361517"><ele>1630.1647</ele><time>2026-04-03T14:30:50.000Z</time></trkpt>
        <trkpt lat="29.550334" lon="103.361528"><ele>1637.8591</ele><time>2026-04-03T14:31:46.000Z</time></trkpt>
        <trkpt lat="29.550307" lon="103.361482"><ele>1640.6077</ele><time>2026-04-03T14:31:53.000Z</time></trkpt>
        <trkpt lat="29.550271" lon="103.361443"><ele>1640.1149</ele><time>2026-04-03T14:32:01.000Z</time></trkpt>
        <trkpt lat="29.550236" lon="103.361409"><ele>1641.7228</ele><time>2026-04-03T14:32:15.000Z</time></trkpt>
        <trkpt lat="29.550204" lon="103.361367"><ele>1644.1866</ele><time>2026-04-03T14:32:32.000Z</time></trkpt>
        <trkpt lat="29.550164" lon="103.361339"><ele>1645.8239</ele><time>2026-04-03T14:33:05.000Z</time></trkpt>
        <trkpt lat="29.550118" lon="103.361338"><ele>1646.212</ele><time>2026-04-03T14:33:14.000Z</time></trkpt>
        <trkpt lat="29.550075" lon="103.3613"><ele>1648.1906</ele><time>2026-04-03T14:33:20.000Z</time></trkpt>
        <trkpt lat="29.550029" lon="103.361269"><ele>1650.1909</ele><time>2026-04-03T14:33:26.000Z</time></trkpt>
        <trkpt lat="29.549981" lon="103.361244"><ele>1649.0284</ele><time>2026-04-03T14:33:33.000Z</time></trkpt>
        <trkpt lat="29.549934" lon="103.361238"><ele>1649.3884</ele><time>2026-04-03T14:33:40.000Z</time></trkpt>
        <trkpt lat="29.549912" lon="103.361172"><ele>1649.1812</ele><time>2026-04-03T14:33:47.000Z</time></trkpt>
        <trkpt lat="29.549901" lon="103.361115"><ele>1650.8887</ele><time>2026-04-03T14:33:51.000Z</time></trkpt>
        <trkpt lat="29.549896" lon="103.361063"><ele>1650.9927</ele><time>2026-04-03T14:33:59.000Z</time></trkpt>
        <trkpt lat="29.549903" lon="103.36101"><ele>1651.2985</ele><time>2026-04-03T14:34:04.000Z</time></trkpt>
        <trkpt lat="29.549889" lon="103.360954"><ele>1653.006</ele><time>2026-04-03T14:34:11.000Z</time></trkpt>
        <trkpt lat="29.549868" lon="103.360897"><ele>1652.6127</ele><time>2026-04-03T14:34:17.000Z</time></trkpt>
        <trkpt lat="29.549844" lon="103.360844"><ele>1651.7295</ele><time>2026-04-03T14:34:22.000Z</time></trkpt>
        <trkpt lat="29.54985" lon="103.360791"><ele>1649.3862</ele><time>2026-04-03T14:34:28.000Z</time></trkpt>
        <trkpt lat="29.549889" lon="103.360748"><ele>1646.5746</ele><time>2026-04-03T14:34:35.000Z</time></trkpt>
        <trkpt lat="29.549909" lon="103.360697"><ele>1643.4711</ele><time>2026-04-03T14:34:42.000Z</time></trkpt>
        <trkpt lat="29.549932" lon="103.360644"><ele>1644.7621</ele><time>2026-04-03T14:34:49.000Z</time></trkpt>
        <trkpt lat="29.549951" lon="103.360583"><ele>1643.723</ele><time>2026-04-03T14:34:56.000Z</time></trkpt>
        <trkpt lat="29.549974" lon="103.360537"><ele>1643.2759</ele><time>2026-04-03T14:35:02.000Z</time></trkpt>
        <trkpt lat="29.549988" lon="103.360481"><ele>1642.4385</ele><time>2026-04-03T14:35:08.000Z</time></trkpt>
        <trkpt lat="29.550007" lon="103.36043"><ele>1645.2634</ele><time>2026-04-03T14:35:15.000Z</time></trkpt>
        <trkpt lat="29.550027" lon="103.360375"><ele>1643.5597</ele><time>2026-04-03T14:35:22.000Z</time></trkpt>
        <trkpt lat="29.55005" lon="103.360326"><ele>1642.7509</ele><time>2026-04-03T14:35:29.000Z</time></trkpt>
        <trkpt lat="29.550083" lon="103.360282"><ele>1643.8934</ele><time>2026-04-03T14:35:37.000Z</time></trkpt>
        <trkpt lat="29.55012" lon="103.360234"><ele>1643.1448</ele><time>2026-04-03T14:35:49.000Z</time></trkpt>
        <trkpt lat="29.550156" lon="103.360196"><ele>1645.1912</ele><time>2026-04-03T14:36:02.000Z</time></trkpt>
        <trkpt lat="29.550132" lon="103.360151"><ele>1647.4053</ele><time>2026-04-03T14:36:31.000Z</time></trkpt>
        <trkpt lat="29.550138" lon="103.360094"><ele>1649.8329</ele><time>2026-04-03T14:39:24.000Z</time></trkpt>
        <trkpt lat="29.550125" lon="103.360039"><ele>1651.2194</ele><time>2026-04-03T14:39:32.000Z</time></trkpt>
        <trkpt lat="29.550107" lon="103.35999"><ele>1655.0725</ele><time>2026-04-03T14:39:56.000Z</time></trkpt>
        <trkpt lat="29.550091" lon="103.35993"><ele>1658.4518</ele><time>2026-04-03T14:40:15.000Z</time></trkpt>
        <trkpt lat="29.55007" lon="103.35988"><ele>1661.6792</ele><time>2026-04-03T14:40:26.000Z</time></trkpt>
        <trkpt lat="29.550048" lon="103.359833"><ele>1664.3579</ele><time>2026-04-03T14:40:42.000Z</time></trkpt>
        <trkpt lat="29.550025" lon="103.359783"><ele>1666.2859</ele><time>2026-04-03T14:40:54.000Z</time></trkpt>
        <trkpt lat="29.549987" lon="103.359742"><ele>1669.9749</ele><time>2026-04-03T14:42:12.000Z</time></trkpt>
        <trkpt lat="29.550019" lon="103.359779"><ele>1667.6129</ele><time>2026-04-03T14:49:05.000Z</time></trkpt>
        <trkpt lat="29.549992" lon="103.359738"><ele>1667.5775</ele><time>2026-04-03T14:49:55.000Z</time></trkpt>
        <trkpt lat="29.550017" lon="103.359781"><ele>1667.9738</ele><time>2026-04-03T14:52:22.000Z</time></trkpt>
        <trkpt lat="29.549975" lon="103.359747"><ele>1668.4164</ele><time>2026-04-03T14:55:49.000Z</time></trkpt>
        <trkpt lat="29.549955" lon="103.359696"><ele>1669.7925</ele><time>2026-04-03T14:55:59.000Z</time></trkpt>
        <trkpt lat="29.549936" lon="103.359649"><ele>1671.6746</ele><time>2026-04-03T14:56:16.000Z</time></trkpt>
        <trkpt lat="29.549905" lon="103.359604"><ele>1672.196</ele><time>2026-04-03T14:56:35.000Z</time></trkpt>
        <trkpt lat="29.549873" lon="103.359551"><ele>1680.1923</ele><time>2026-04-03T14:56:51.000Z</time></trkpt>
        <trkpt lat="29.549879" lon="103.359495"><ele>1681.4052</ele><time>2026-04-03T14:56:59.000Z</time></trkpt>
        <trkpt lat="29.549882" lon="103.359428"><ele>1684.3984</ele><time>2026-04-03T14:57:07.000Z</time></trkpt>
        <trkpt lat="29.549864" lon="103.359379"><ele>1686.9264</ele><time>2026-04-03T14:57:15.000Z</time></trkpt>
        <trkpt lat="29.549886" lon="103.359324"><ele>1685.2528</ele><time>2026-04-03T14:57:24.000Z</time></trkpt>
        <trkpt lat="29.549923" lon="103.359355"><ele>1691.4893</ele><time>2026-04-03T15:04:29.000Z</time></trkpt>
        <trkpt lat="29.54995" lon="103.359296"><ele>1690.5226</ele><time>2026-04-03T15:04:35.000Z</time></trkpt>
        <trkpt lat="29.549984" lon="103.35926"><ele>1690.9092</ele><time>2026-04-03T15:04:39.000Z</time></trkpt>
        <trkpt lat="29.550013" lon="103.359201"><ele>1689.4934</ele><time>2026-04-03T15:04:43.000Z</time></trkpt>
        <trkpt lat="29.550049" lon="103.359168"><ele>1688.4335</ele><time>2026-04-03T15:04:47.000Z</time></trkpt>
        <trkpt lat="29.550093" lon="103.359145"><ele>1691.5247</ele><time>2026-04-03T15:04:53.000Z</time></trkpt>
        <trkpt lat="29.550146" lon="103.35914"><ele>1692.9886</ele><time>2026-04-03T15:04:58.000Z</time></trkpt>
        <trkpt lat="29.550191" lon="103.359129"><ele>1694.3121</ele><time>2026-04-03T15:05:02.000Z</time></trkpt>
        <trkpt lat="29.55024" lon="103.359113"><ele>1693.8251</ele><time>2026-04-03T15:05:07.000Z</time></trkpt>
        <trkpt lat="29.550192" lon="103.359131"><ele>1691.8251</ele><time>2026-04-03T15:05:17.000Z</time></trkpt>
        <trkpt lat="29.550239" lon="103.359118"><ele>1695.3518</ele><time>2026-04-03T15:07:36.000Z</time></trkpt>
        <trkpt lat="29.55024" lon="103.359054"><ele>1693.2189</ele><time>2026-04-03T15:07:41.000Z</time></trkpt>
        <trkpt lat="29.55024" lon="103.359"><ele>1692.7908</ele><time>2026-04-03T15:07:47.000Z</time></trkpt>
        <trkpt lat="29.550227" lon="103.35895"><ele>1691.1603</ele><time>2026-04-03T15:07:51.000Z</time></trkpt>
        <trkpt lat="29.550243" lon="103.3589"><ele>1698.5839</ele><time>2026-04-03T15:07:58.000Z</time></trkpt>
        <trkpt lat="29.550261" lon="103.358846"><ele>1700.8624</ele><time>2026-04-03T15:08:03.000Z</time></trkpt>
        <trkpt lat="29.550279" lon="103.358793"><ele>1699.1323</ele><time>2026-04-03T15:08:10.000Z</time></trkpt>
        <trkpt lat="29.550246" lon="103.35875"><ele>1702.8168</ele><time>2026-04-03T15:08:25.000Z</time></trkpt>
        <trkpt lat="29.550233" lon="103.358696"><ele>1703.1637</ele><time>2026-04-03T15:08:34.000Z</time></trkpt>
        <trkpt lat="29.550241" lon="103.358637"><ele>1703.0148</ele><time>2026-04-03T15:08:42.000Z</time></trkpt>
        <trkpt lat="29.550266" lon="103.358591"><ele>1705.5891</ele><time>2026-04-03T15:08:49.000Z</time></trkpt>
        <trkpt lat="29.550294" lon="103.35855"><ele>1706.9227</ele><time>2026-04-03T15:09:14.000Z</time></trkpt>
        <trkpt lat="29.550327" lon="103.358512"><ele>1710.3928</ele><time>2026-04-03T15:09:24.000Z</time></trkpt>
        <trkpt lat="29.550332" lon="103.358461"><ele>1714.0233</ele><time>2026-04-03T15:09:32.000Z</time></trkpt>
        <trkpt lat="29.550352" lon="103.358408"><ele>1713.9406</ele><time>2026-04-03T15:09:51.000Z</time></trkpt>
        <trkpt lat="29.550324" lon="103.358358"><ele>1713.7959</ele><time>2026-04-03T15:09:56.000Z</time></trkpt>
        <trkpt lat="29.550309" lon="103.358304"><ele>1716.4562</ele><time>2026-04-03T15:10:04.000Z</time></trkpt>
        <trkpt lat="29.55028" lon="103.358259"><ele>1711.5986</ele><time>2026-04-03T15:10:14.000Z</time></trkpt>
        <trkpt lat="29.550279" lon="103.358206"><ele>1714.0345</ele><time>2026-04-03T15:10:19.000Z</time></trkpt>
        <trkpt lat="29.550267" lon="103.358153"><ele>1715.0758</ele><time>2026-04-03T15:10:24.000Z</time></trkpt>
        <trkpt lat="29.550283" lon="103.358105"><ele>1721.1554</ele><time>2026-04-03T15:12:37.000Z</time></trkpt>
        <trkpt lat="29.550306" lon="103.358058"><ele>1721.6825</ele><time>2026-04-03T15:12:43.000Z</time></trkpt>
        <trkpt lat="29.550302" lon="103.358004"><ele>1720.8096</ele><time>2026-04-03T15:12:47.000Z</time></trkpt>
        <trkpt lat="29.550328" lon="103.357951"><ele>1723.0028</ele><time>2026-04-03T15:12:51.000Z</time></trkpt>
        <trkpt lat="29.550318" lon="103.357891"><ele>1723.4221</ele><time>2026-04-03T15:12:58.000Z</time></trkpt>
        <trkpt lat="29.550338" lon="103.357842"><ele>1723.8336</ele><time>2026-04-03T15:13:06.000Z</time></trkpt>
        <trkpt lat="29.550379" lon="103.357815"><ele>1722.9419</ele><time>2026-04-03T15:13:12.000Z</time></trkpt>
        <trkpt lat="29.550401" lon="103.357766"><ele>1724.4928</ele><time>2026-04-03T15:14:12.000Z</time></trkpt>
        <trkpt lat="29.550402" lon="103.357709"><ele>1727.8138</ele><time>2026-04-03T15:14:23.000Z</time></trkpt>
        <trkpt lat="29.55039" lon="103.357657"><ele>1729.333</ele><time>2026-04-03T15:14:28.000Z</time></trkpt>
        <trkpt lat="29.550393" lon="103.357605"><ele>1730.7185</ele><time>2026-04-03T15:14:35.000Z</time></trkpt>
        <trkpt lat="29.550389" lon="103.357553"><ele>1730.0459</ele><time>2026-04-03T15:14:43.000Z</time></trkpt>
        <trkpt lat="29.550386" lon="103.357491"><ele>1729.8531</ele><time>2026-04-03T15:14:49.000Z</time></trkpt>
        <trkpt lat="29.550372" lon="103.357435"><ele>1733.1134</ele><time>2026-04-03T15:14:58.000Z</time></trkpt>
        <trkpt lat="29.550387" lon="103.357382"><ele>1734.4075</ele><time>2026-04-03T15:15:04.000Z</time></trkpt>
        <trkpt lat="29.550398" lon="103.35733"><ele>1735.8849</ele><time>2026-04-03T15:15:11.000Z</time></trkpt>
        <trkpt lat="29.550385" lon="103.35728"><ele>1735.5356</ele><time>2026-04-03T15:15:19.000Z</time></trkpt>
        <trkpt lat="29.550393" lon="103.357227"><ele>1736.2623</ele><time>2026-04-03T15:15:30.000Z</time></trkpt>
        <trkpt lat="29.550417" lon="103.357181"><ele>1740.3658</ele><time>2026-04-03T15:15:48.000Z</time></trkpt>
        <trkpt lat="29.550411" lon="103.357119"><ele>1739.5947</ele><time>2026-04-03T15:15:55.000Z</time></trkpt>
        <trkpt lat="29.550399" lon="103.357056"><ele>1738.8828</ele><time>2026-04-03T15:15:59.000Z</time></trkpt>
        <trkpt lat="29.550384" lon="103.357006"><ele>1738.6217</ele><time>2026-04-03T15:16:02.000Z</time></trkpt>
        <trkpt lat="29.55035" lon="103.35697"><ele>1741.2998</ele><time>2026-04-03T15:16:08.000Z</time></trkpt>
        <trkpt lat="29.550305" lon="103.356938"><ele>1742.969</ele><time>2026-04-03T15:16:25.000Z</time></trkpt>
        <trkpt lat="29.55027" lon="103.356985"><ele>1747.9204</ele><time>2026-04-03T15:18:07.000Z</time></trkpt>
        <trkpt lat="29.550244" lon="103.356934"><ele>1744.8544</ele><time>2026-04-03T15:19:13.000Z</time></trkpt>
        <trkpt lat="29.550198" lon="103.35693"><ele>1747.0409</ele><time>2026-04-03T15:20:40.000Z</time></trkpt>
        <trkpt lat="29.550149" lon="103.356936"><ele>1746.842</ele><time>2026-04-03T15:20:45.000Z</time></trkpt>
        <trkpt lat="29.550104" lon="103.356942"><ele>1746.6649</ele><time>2026-04-03T15:20:50.000Z</time></trkpt>
        <trkpt lat="29.550059" lon="103.35696"><ele>1750.0956</ele><time>2026-04-03T15:21:00.000Z</time></trkpt>
        <trkpt lat="29.550019" lon="103.356928"><ele>1748.9696</ele><time>2026-04-03T15:21:09.000Z</time></trkpt>
        <trkpt lat="29.550023" lon="103.356874"><ele>1746.1729</ele><time>2026-04-03T15:21:37.000Z</time></trkpt>
        <trkpt lat="29.549996" lon="103.356918"><ele>1749.9244</ele><time>2026-04-03T15:23:49.000Z</time></trkpt>
        <trkpt lat="29.549963" lon="103.356863"><ele>1744.7416</ele><time>2026-04-03T15:24:43.000Z</time></trkpt>
        <trkpt lat="29.549949" lon="103.356802"><ele>1744.7955</ele><time>2026-04-03T15:24:50.000Z</time></trkpt>
        <trkpt lat="29.549942" lon="103.356739"><ele>1749.7424</ele><time>2026-04-03T15:24:55.000Z</time></trkpt>
        <trkpt lat="29.549924" lon="103.356688"><ele>1750.9635</ele><time>2026-04-03T15:24:58.000Z</time></trkpt>
        <trkpt lat="29.549934" lon="103.356634"><ele>1749.3701</ele><time>2026-04-03T15:25:03.000Z</time></trkpt>
        <trkpt lat="29.549931" lon="103.356578"><ele>1749.8302</ele><time>2026-04-03T15:25:12.000Z</time></trkpt>
        <trkpt lat="29.549935" lon="103.356522"><ele>1749.4531</ele><time>2026-04-03T15:25:21.000Z</time></trkpt>
        <trkpt lat="29.549943" lon="103.35647"><ele>1748.0417</ele><time>2026-04-03T15:25:28.000Z</time></trkpt>
        <trkpt lat="29.549976" lon="103.356421"><ele>1751.0222</ele><time>2026-04-03T15:25:47.000Z</time></trkpt>
        <trkpt lat="29.550005" lon="103.356377"><ele>1750.3115</ele><time>2026-04-03T15:25:56.000Z</time></trkpt>
        <trkpt lat="29.550046" lon="103.356348"><ele>1746.1951</ele><time>2026-04-03T15:26:03.000Z</time></trkpt>
        <trkpt lat="29.550084" lon="103.356316"><ele>1743.5251</ele><time>2026-04-03T15:26:09.000Z</time></trkpt>
        <trkpt lat="29.550114" lon="103.356269"><ele>1742.4216</ele><time>2026-04-03T15:26:15.000Z</time></trkpt>
        <trkpt lat="29.550149" lon="103.356226"><ele>1742.1671</ele><time>2026-04-03T15:26:21.000Z</time></trkpt>
        <trkpt lat="29.550169" lon="103.356172"><ele>1743.8796</ele><time>2026-04-03T15:26:29.000Z</time></trkpt>
        <trkpt lat="29.55018" lon="103.356121"><ele>1739.3159</ele><time>2026-04-03T15:26:40.000Z</time></trkpt>
        <trkpt lat="29.550187" lon="103.356066"><ele>1744.1328</ele><time>2026-04-03T15:26:47.000Z</time></trkpt>
        <trkpt lat="29.550204" lon="103.356001"><ele>1751.4208</ele><time>2026-04-03T15:26:55.000Z</time></trkpt>
        <trkpt lat="29.550209" lon="103.355949"><ele>1746.1248</ele><time>2026-04-03T15:27:02.000Z</time></trkpt>
        <trkpt lat="29.550233" lon="103.3559"><ele>1745.7572</ele><time>2026-04-03T15:27:09.000Z</time></trkpt>
        <trkpt lat="29.550248" lon="103.355846"><ele>1739.121</ele><time>2026-04-03T15:27:13.000Z</time></trkpt>
        <trkpt lat="29.550294" lon="103.355811"><ele>1735.4558</ele><time>2026-04-03T15:27:16.000Z</time></trkpt>
        <trkpt lat="29.550347" lon="103.355776"><ele>1733.8605</ele><time>2026-04-03T15:27:21.000Z</time></trkpt>
        <trkpt lat="29.550401" lon="103.355764"><ele>1730.3394</ele><time>2026-04-03T15:27:25.000Z</time></trkpt>
        <trkpt lat="29.550446" lon="103.355752"><ele>1728.4553</ele><time>2026-04-03T15:27:27.000Z</time></trkpt>
        <trkpt lat="29.550493" lon="103.355753"><ele>1726.2899</ele><time>2026-04-03T15:27:30.000Z</time></trkpt>
        <trkpt lat="29.550557" lon="103.35576"><ele>1724.4773</ele><time>2026-04-03T15:27:34.000Z</time></trkpt>
        <trkpt lat="29.55061" lon="103.355759"><ele>1721.2498</ele><time>2026-04-03T15:27:38.000Z</time></trkpt>
        <trkpt lat="29.550661" lon="103.355758"><ele>1721.506</ele><time>2026-04-03T15:27:41.000Z</time></trkpt>
        <trkpt lat="29.550714" lon="103.355754"><ele>1719.5265</ele><time>2026-04-03T15:27:45.000Z</time></trkpt>
        <trkpt lat="29.550758" lon="103.355731"><ele>1718.546</ele><time>2026-04-03T15:27:48.000Z</time></trkpt>
        <trkpt lat="29.5508" lon="103.355705"><ele>1717.339</ele><time>2026-04-03T15:27:51.000Z</time></trkpt>
        <trkpt lat="29.550848" lon="103.355682"><ele>1717.6508</ele><time>2026-04-03T15:27:54.000Z</time></trkpt>
        <trkpt lat="29.550898" lon="103.355661"><ele>1717.9382</ele><time>2026-04-03T15:27:57.000Z</time></trkpt>
        <trkpt lat="29.55094" lon="103.35564"><ele>1717.0729</ele><time>2026-04-03T15:28:01.000Z</time></trkpt>
        <trkpt lat="29.550988" lon="103.355617"><ele>1713.6749</ele><time>2026-04-03T15:28:05.000Z</time></trkpt>
        <trkpt lat="29.551045" lon="103.355595"><ele>1711.9532</ele><time>2026-04-03T15:28:09.000Z</time></trkpt>
        <trkpt lat="29.551083" lon="103.355562"><ele>1709.3425</ele><time>2026-04-03T15:28:12.000Z</time></trkpt>
        <trkpt lat="29.551125" lon="103.355537"><ele>1708.7985</ele><time>2026-04-03T15:28:15.000Z</time></trkpt>
        <trkpt lat="29.551176" lon="103.35551"><ele>1708.4401</ele><time>2026-04-03T15:28:19.000Z</time></trkpt>
        <trkpt lat="29.55122" lon="103.355462"><ele>1707.6448</ele><time>2026-04-03T15:28:24.000Z</time></trkpt>
        <trkpt lat="29.551249" lon="103.355414"><ele>1707.5168</ele><time>2026-04-03T15:28:30.000Z</time></trkpt>
        <trkpt lat="29.551282" lon="103.355373"><ele>1705.8208</ele><time>2026-04-03T15:28:34.000Z</time></trkpt>
        <trkpt lat="29.551306" lon="103.355319"><ele>1704.9603</ele><time>2026-04-03T15:28:38.000Z</time></trkpt>
        <trkpt lat="29.551327" lon="103.355268"><ele>1703.3162</ele><time>2026-04-03T15:28:41.000Z</time></trkpt>
        <trkpt lat="29.551358" lon="103.355221"><ele>1700.6611</ele><time>2026-04-03T15:28:46.000Z</time></trkpt>
        <trkpt lat="29.551397" lon="103.355179"><ele>1699.4138</ele><time>2026-04-03T15:28:52.000Z</time></trkpt>
        <trkpt lat="29.551425" lon="103.355135"><ele>1701.4392</ele><time>2026-04-03T15:28:55.000Z</time></trkpt>
        <trkpt lat="29.551458" lon="103.355075"><ele>1704.5656</ele><time>2026-04-03T15:28:58.000Z</time></trkpt>
        <trkpt lat="29.551501" lon="103.355038"><ele>1705.7911</ele><time>2026-04-03T15:29:01.000Z</time></trkpt>
        <trkpt lat="29.551519" lon="103.354977"><ele>1704.4087</ele><time>2026-04-03T15:29:05.000Z</time></trkpt>
        <trkpt lat="29.551535" lon="103.354923"><ele>1701.977</ele><time>2026-04-03T15:29:08.000Z</time></trkpt>
        <trkpt lat="29.551553" lon="103.354867"><ele>1698.6144</ele><time>2026-04-03T15:29:11.000Z</time></trkpt>
        <trkpt lat="29.551566" lon="103.354806"><ele>1694.8307</ele><time>2026-04-03T15:29:15.000Z</time></trkpt>
        <trkpt lat="29.551578" lon="103.354748"><ele>1692.8608</ele><time>2026-04-03T15:29:18.000Z</time></trkpt>
        <trkpt lat="29.551617" lon="103.354691"><ele>1691.1921</ele><time>2026-04-03T15:29:23.000Z</time></trkpt>
        <trkpt lat="29.551628" lon="103.354628"><ele>1687.8818</ele><time>2026-04-03T15:29:28.000Z</time></trkpt>
        <trkpt lat="29.551667" lon="103.354596"><ele>1689.7142</ele><time>2026-04-03T15:29:32.000Z</time></trkpt>
        <trkpt lat="29.551694" lon="103.354554"><ele>1690.8002</ele><time>2026-04-03T15:29:35.000Z</time></trkpt>
        <trkpt lat="29.551728" lon="103.354511"><ele>1688.631</ele><time>2026-04-03T15:29:39.000Z</time></trkpt>
        <trkpt lat="29.551766" lon="103.354475"><ele>1687.0374</ele><time>2026-04-03T15:29:43.000Z</time></trkpt>
        <trkpt lat="29.551799" lon="103.35443"><ele>1686.0922</ele><time>2026-04-03T15:29:47.000Z</time></trkpt>
        <trkpt lat="29.551815" lon="103.354367"><ele>1684.54</ele><time>2026-04-03T15:29:50.000Z</time></trkpt>
        <trkpt lat="29.551794" lon="103.354308"><ele>1680.6917</ele><time>2026-04-03T15:29:54.000Z</time></trkpt>
        <trkpt lat="29.551795" lon="103.354245"><ele>1678.6853</ele><time>2026-04-03T15:29:57.000Z</time></trkpt>
        <trkpt lat="29.551797" lon="103.354191"><ele>1678.5844</ele><time>2026-04-03T15:30:00.000Z</time></trkpt>
        <trkpt lat="29.551833" lon="103.354146"><ele>1680.3076</ele><time>2026-04-03T15:30:05.000Z</time></trkpt>
        <trkpt lat="29.551876" lon="103.354131"><ele>1680.2723</ele><time>2026-04-03T15:30:09.000Z</time></trkpt>
        <trkpt lat="29.551921" lon="103.354096"><ele>1680.3617</ele><time>2026-04-03T15:30:12.000Z</time></trkpt>
        <trkpt lat="29.55192" lon="103.354043"><ele>1679.058</ele><time>2026-04-03T15:30:15.000Z</time></trkpt>
        <trkpt lat="29.551928" lon="103.353991"><ele>1680.0398</ele><time>2026-04-03T15:30:18.000Z</time></trkpt>
        <trkpt lat="29.551923" lon="103.353936"><ele>1684.3319</ele><time>2026-04-03T15:30:23.000Z</time></trkpt>
        <trkpt lat="29.551896" lon="103.353889"><ele>1683.482</ele><time>2026-04-03T15:30:27.000Z</time></trkpt>
        <trkpt lat="29.551855" lon="103.35384"><ele>1680.9856</ele><time>2026-04-03T15:30:30.000Z</time></trkpt>
        <trkpt lat="29.551838" lon="103.353782"><ele>1680.5408</ele><time>2026-04-03T15:30:33.000Z</time></trkpt>
        <trkpt lat="29.55181" lon="103.353729"><ele>1677.3772</ele><time>2026-04-03T15:30:36.000Z</time></trkpt>
        <trkpt lat="29.551765" lon="103.3537"><ele>1675.7728</ele><time>2026-04-03T15:30:40.000Z</time></trkpt>
        <trkpt lat="29.551735" lon="103.353654"><ele>1675.3013</ele><time>2026-04-03T15:30:43.000Z</time></trkpt>
        <trkpt lat="29.551708" lon="103.353605"><ele>1675.7223</ele><time>2026-04-03T15:30:46.000Z</time></trkpt>
        <trkpt lat="29.551715" lon="103.353546"><ele>1674.2303</ele><time>2026-04-03T15:30:50.000Z</time></trkpt>
        <trkpt lat="29.551697" lon="103.353489"><ele>1671.147</ele><time>2026-04-03T15:30:53.000Z</time></trkpt>
        <trkpt lat="29.551704" lon="103.353428"><ele>1671.104</ele><time>2026-04-03T15:30:58.000Z</time></trkpt>
        <trkpt lat="29.551723" lon="103.353366"><ele>1668.6356</ele><time>2026-04-03T15:31:03.000Z</time></trkpt>
        <trkpt lat="29.551728" lon="103.353315"><ele>1667.9266</ele><time>2026-04-03T15:31:06.000Z</time></trkpt>
        <trkpt lat="29.551756" lon="103.353267"><ele>1668.4666</ele><time>2026-04-03T15:31:09.000Z</time></trkpt>
        <trkpt lat="29.551761" lon="103.353213"><ele>1667.2079</ele><time>2026-04-03T15:31:11.000Z</time></trkpt>
        <trkpt lat="29.55178" lon="103.353154"><ele>1667.5547</ele><time>2026-04-03T15:31:15.000Z</time></trkpt>
        <trkpt lat="29.551772" lon="103.35309"><ele>1664.5612</ele><time>2026-04-03T15:31:19.000Z</time></trkpt>
        <trkpt lat="29.551768" lon="103.353032"><ele>1664.8936</ele><time>2026-04-03T15:31:24.000Z</time></trkpt>
        <trkpt lat="29.551788" lon="103.352982"><ele>1665.1462</ele><time>2026-04-03T15:31:28.000Z</time></trkpt>
        <trkpt lat="29.551811" lon="103.352934"><ele>1661.9011</ele><time>2026-04-03T15:31:32.000Z</time></trkpt>
        <trkpt lat="29.551847" lon="103.352896"><ele>1663.4526</ele><time>2026-04-03T15:31:36.000Z</time></trkpt>
        <trkpt lat="29.551865" lon="103.352839"><ele>1657.9614</ele><time>2026-04-03T15:31:41.000Z</time></trkpt>
        <trkpt lat="29.55188" lon="103.35278"><ele>1654.7249</ele><time>2026-04-03T15:31:45.000Z</time></trkpt>
        <trkpt lat="29.551904" lon="103.352731"><ele>1652.5898</ele><time>2026-04-03T15:31:50.000Z</time></trkpt>
        <trkpt lat="29.551946" lon="103.352689"><ele>1652.2969</ele><time>2026-04-03T15:31:58.000Z</time></trkpt>
        <trkpt lat="29.55199" lon="103.352706"><ele>1648.1854</ele><time>2026-04-03T15:32:03.000Z</time></trkpt>
        <trkpt lat="29.552041" lon="103.352714"><ele>1644.6299</ele><time>2026-04-03T15:32:10.000Z</time></trkpt>
        <trkpt lat="29.552094" lon="103.352727"><ele>1641.7947</ele><time>2026-04-03T15:32:15.000Z</time></trkpt>
        <trkpt lat="29.552139" lon="103.352739"><ele>1637.8342</ele><time>2026-04-03T15:32:21.000Z</time></trkpt>
        <trkpt lat="29.552187" lon="103.352748"><ele>1633.4812</ele><time>2026-04-03T15:32:28.000Z</time></trkpt>
        <trkpt lat="29.552196" lon="103.352689"><ele>1633.7837</ele><time>2026-04-03T15:32:32.000Z</time></trkpt>
        <trkpt lat="29.552169" lon="103.352645"><ele>1630.4312</ele><time>2026-04-03T15:32:36.000Z</time></trkpt>
        <trkpt lat="29.552166" lon="103.35259"><ele>1632.2214</ele><time>2026-04-03T15:32:43.000Z</time></trkpt>
        <trkpt lat="29.552169" lon="103.352535"><ele>1631.8896</ele><time>2026-04-03T15:32:49.000Z</time></trkpt>
        <trkpt lat="29.552184" lon="103.35248"><ele>1629.9797</ele><time>2026-04-03T15:32:54.000Z</time></trkpt>
        <trkpt lat="29.5522" lon="103.352426"><ele>1627.6448</ele><time>2026-04-03T15:32:59.000Z</time></trkpt>
        <trkpt lat="29.552178" lon="103.35238"><ele>1624.9854</ele><time>2026-04-03T15:33:04.000Z</time></trkpt>
        <trkpt lat="29.552154" lon="103.352451"><ele>1623.8127</ele><time>2026-04-03T15:33:18.000Z</time></trkpt>
        <trkpt lat="29.552207" lon="103.352385"><ele>1622.4198</ele><time>2026-04-03T15:33:24.000Z</time></trkpt>
        <trkpt lat="29.552223" lon="103.352443"><ele>1627.8597</ele><time>2026-04-03T15:33:28.000Z</time></trkpt>
        <trkpt lat="29.552271" lon="103.352416"><ele>1631.4801</ele><time>2026-04-03T15:33:34.000Z</time></trkpt>
        <trkpt lat="29.552324" lon="103.352378"><ele>1629.158</ele><time>2026-04-03T15:33:37.000Z</time></trkpt>
        <trkpt lat="29.552358" lon="103.352425"><ele>1627.8453</ele><time>2026-04-03T15:33:44.000Z</time></trkpt>
        <trkpt lat="29.552341" lon="103.352499"><ele>1627.4241</ele><time>2026-04-03T15:33:47.000Z</time></trkpt>
        <trkpt lat="29.552353" lon="103.352557"><ele>1628.6385</ele><time>2026-04-03T15:33:49.000Z</time></trkpt>
        <trkpt lat="29.552373" lon="103.352611"><ele>1632.3948</ele><time>2026-04-03T15:33:52.000Z</time></trkpt>
        <trkpt lat="29.55242" lon="103.35264"><ele>1634.9607</ele><time>2026-04-03T15:33:55.000Z</time></trkpt>
        <trkpt lat="29.552451" lon="103.352594"><ele>1633.5481</ele><time>2026-04-03T15:33:57.000Z</time></trkpt>
        <trkpt lat="29.552499" lon="103.35259"><ele>1634.2017</ele><time>2026-04-03T15:34:00.000Z</time></trkpt>
        <trkpt lat="29.552551" lon="103.35258"><ele>1634.2004</ele><time>2026-04-03T15:34:05.000Z</time></trkpt>
        <trkpt lat="29.552587" lon="103.352545"><ele>1633.8202</ele><time>2026-04-03T15:34:10.000Z</time></trkpt>
        <trkpt lat="29.55263" lon="103.352517"><ele>1635.241</ele><time>2026-04-03T15:34:17.000Z</time></trkpt>
        <trkpt lat="29.552677" lon="103.352502"><ele>1634.6013</ele><time>2026-04-03T15:34:21.000Z</time></trkpt>
        <trkpt lat="29.552723" lon="103.352493"><ele>1633.6855</ele><time>2026-04-03T15:34:25.000Z</time></trkpt>
        <trkpt lat="29.552776" lon="103.352492"><ele>1630.6348</ele><time>2026-04-03T15:34:31.000Z</time></trkpt>
        <trkpt lat="29.552817" lon="103.352535"><ele>1634.652</ele><time>2026-04-03T15:34:36.000Z</time></trkpt>
        <trkpt lat="29.552844" lon="103.35259"><ele>1638.9445</ele><time>2026-04-03T15:34:39.000Z</time></trkpt>
        <trkpt lat="29.552902" lon="103.352615"><ele>1631.353</ele><time>2026-04-03T15:34:50.000Z</time></trkpt>
        <trkpt lat="29.552954" lon="103.352614"><ele>1632.8846</ele><time>2026-04-03T15:34:54.000Z</time></trkpt>
        <trkpt lat="29.552988" lon="103.352657"><ele>1634.0829</ele><time>2026-04-03T15:34:58.000Z</time></trkpt>
        <trkpt lat="29.553025" lon="103.352699"><ele>1633.0913</ele><time>2026-04-03T15:35:02.000Z</time></trkpt>
        <trkpt lat="29.553068" lon="103.352715"><ele>1631.6697</ele><time>2026-04-03T15:35:05.000Z</time></trkpt>
        <trkpt lat="29.553122" lon="103.35272"><ele>1632.4318</ele><time>2026-04-03T15:35:08.000Z</time></trkpt>
        <trkpt lat="29.553176" lon="103.352723"><ele>1633.8728</ele><time>2026-04-03T15:35:12.000Z</time></trkpt>
        <trkpt lat="29.553233" lon="103.352715"><ele>1631.8398</ele><time>2026-04-03T15:35:16.000Z</time></trkpt>
        <trkpt lat="29.553288" lon="103.352699"><ele>1631.0563</ele><time>2026-04-03T15:35:20.000Z</time></trkpt>
        <trkpt lat="29.553329" lon="103.352663"><ele>1631.723</ele><time>2026-04-03T15:35:24.000Z</time></trkpt>
        <trkpt lat="29.553371" lon="103.352643"><ele>1632.9207</ele><time>2026-04-03T15:35:28.000Z</time></trkpt>
        <trkpt lat="29.553429" lon="103.352624"><ele>1634.5537</ele><time>2026-04-03T15:35:33.000Z</time></trkpt>
        <trkpt lat="29.553485" lon="103.352602"><ele>1630.0565</ele><time>2026-04-03T15:35:38.000Z</time></trkpt>
        <trkpt lat="29.553538" lon="103.35262"><ele>1630.904</ele><time>2026-04-03T15:35:41.000Z</time></trkpt>
        <trkpt lat="29.553585" lon="103.352628"><ele>1630.3337</ele><time>2026-04-03T15:35:45.000Z</time></trkpt>
        <trkpt lat="29.553631" lon="103.352621"><ele>1631.6523</ele><time>2026-04-03T15:35:49.000Z</time></trkpt>
        <trkpt lat="29.553681" lon="103.352602"><ele>1632.4374</ele><time>2026-04-03T15:35:53.000Z</time></trkpt>
        <trkpt lat="29.553728" lon="103.352588"><ele>1632.7084</ele><time>2026-04-03T15:35:57.000Z</time></trkpt>
        <trkpt lat="29.55378" lon="103.352578"><ele>1633.0321</ele><time>2026-04-03T15:36:03.000Z</time></trkpt>
        <trkpt lat="29.553809" lon="103.352499"><ele>1630.5134</ele><time>2026-04-03T15:36:17.000Z</time></trkpt>
        <trkpt lat="29.55383" lon="103.352548"><ele>1632.3208</ele><time>2026-04-03T15:36:36.000Z</time></trkpt>
        <trkpt lat="29.553847" lon="103.352596"><ele>1632.3008</ele><time>2026-04-03T15:36:39.000Z</time></trkpt>
        <trkpt lat="29.553864" lon="103.352649"><ele>1634.2178</ele><time>2026-04-03T15:36:44.000Z</time></trkpt>
        <trkpt lat="29.553898" lon="103.352686"><ele>1633.667</ele><time>2026-04-03T15:36:48.000Z</time></trkpt>
        <trkpt lat="29.553954" lon="103.352688"><ele>1634.9259</ele><time>2026-04-03T15:36:52.000Z</time></trkpt>
        <trkpt lat="29.554001" lon="103.35268"><ele>1634.6493</ele><time>2026-04-03T15:36:56.000Z</time></trkpt>
        <trkpt lat="29.55405" lon="103.352687"><ele>1634.1217</ele><time>2026-04-03T15:37:00.000Z</time></trkpt>
        <trkpt lat="29.554117" lon="103.352695"><ele>1633.4465</ele><time>2026-04-03T15:37:05.000Z</time></trkpt>
        <trkpt lat="29.554165" lon="103.352693"><ele>1633.0767</ele><time>2026-04-03T15:37:08.000Z</time></trkpt>
        <trkpt lat="29.554219" lon="103.352702"><ele>1632.844</ele><time>2026-04-03T15:37:12.000Z</time></trkpt>
        <trkpt lat="29.554259" lon="103.352726"><ele>1632.8488</ele><time>2026-04-03T15:37:15.000Z</time></trkpt>
        <trkpt lat="29.55431" lon="103.352723"><ele>1632.826</ele><time>2026-04-03T15:37:19.000Z</time></trkpt>
        <trkpt lat="29.554355" lon="103.352751"><ele>1635.3442</ele><time>2026-04-03T15:37:23.000Z</time></trkpt>
        <trkpt lat="29.554399" lon="103.3528"><ele>1638.5903</ele><time>2026-04-03T15:37:27.000Z</time></trkpt>
        <trkpt lat="29.554432" lon="103.352848"><ele>1637.7909</ele><time>2026-04-03T15:37:34.000Z</time></trkpt>
        <trkpt lat="29.55442" lon="103.352904"><ele>1635.0813</ele><time>2026-04-03T15:37:39.000Z</time></trkpt>
        <trkpt lat="29.55444" lon="103.352957"><ele>1635.2156</ele><time>2026-04-03T15:37:42.000Z</time></trkpt>
        <trkpt lat="29.55447" lon="103.353003"><ele>1637.3871</ele><time>2026-04-03T15:37:46.000Z</time></trkpt>
        <trkpt lat="29.554472" lon="103.353059"><ele>1641.1127</ele><time>2026-04-03T15:37:54.000Z</time></trkpt>
        <trkpt lat="29.554449" lon="103.353105"><ele>1643.1542</ele><time>2026-04-03T15:37:57.000Z</time></trkpt>
        <trkpt lat="29.554484" lon="103.35314"><ele>1643.3246</ele><time>2026-04-03T15:38:07.000Z</time></trkpt>
        <trkpt lat="29.554528" lon="103.353184"><ele>1648.0225</ele><time>2026-04-03T15:38:19.000Z</time></trkpt>
        <trkpt lat="29.554549" lon="103.353242"><ele>1646.9185</ele><time>2026-04-03T15:38:24.000Z</time></trkpt>
        <trkpt lat="29.554564" lon="103.353292"><ele>1646.4164</ele><time>2026-04-03T15:38:30.000Z</time></trkpt>
        <trkpt lat="29.554564" lon="103.353345"><ele>1648.8528</ele><time>2026-04-03T15:38:35.000Z</time></trkpt>
        <trkpt lat="29.554583" lon="103.353396"><ele>1651.2703</ele><time>2026-04-03T15:38:44.000Z</time></trkpt>
        <trkpt lat="29.554585" lon="103.353467"><ele>1651.445</ele><time>2026-04-03T15:38:50.000Z</time></trkpt>
        <trkpt lat="29.554591" lon="103.353528"><ele>1652.218</ele><time>2026-04-03T15:38:55.000Z</time></trkpt>
        <trkpt lat="29.554582" lon="103.35358"><ele>1653.3107</ele><time>2026-04-03T15:38:59.000Z</time></trkpt>
        <trkpt lat="29.554594" lon="103.353645"><ele>1655.1044</ele><time>2026-04-03T15:39:03.000Z</time></trkpt>
        <trkpt lat="29.554645" lon="103.353692"><ele>1657.7542</ele><time>2026-04-03T15:39:06.000Z</time></trkpt>
        <trkpt lat="29.554699" lon="103.353704"><ele>1656.4911</ele><time>2026-04-03T15:39:09.000Z</time></trkpt>
        <trkpt lat="29.554735" lon="103.353741"><ele>1656.9656</ele><time>2026-04-03T15:39:11.000Z</time></trkpt>
        <trkpt lat="29.554782" lon="103.353772"><ele>1657.4885</ele><time>2026-04-03T15:39:15.000Z</time></trkpt>
        <trkpt lat="29.554835" lon="103.353775"><ele>1656.3907</ele><time>2026-04-03T15:39:19.000Z</time></trkpt>
        <trkpt lat="29.554889" lon="103.353735"><ele>1655.3596</ele><time>2026-04-03T15:39:23.000Z</time></trkpt>
        <trkpt lat="29.554921" lon="103.353698"><ele>1655.3726</ele><time>2026-04-03T15:39:29.000Z</time></trkpt>
        <trkpt lat="29.554928" lon="103.353636"><ele>1652.1573</ele><time>2026-04-03T15:39:33.000Z</time></trkpt>
        <trkpt lat="29.554973" lon="103.353605"><ele>1652.5565</ele><time>2026-04-03T15:39:37.000Z</time></trkpt>
        <trkpt lat="29.55502" lon="103.353569"><ele>1652.2295</ele><time>2026-04-03T15:39:44.000Z</time></trkpt>
        <trkpt lat="29.555062" lon="103.353533"><ele>1649.8783</ele><time>2026-04-03T15:39:50.000Z</time></trkpt>
        <trkpt lat="29.555109" lon="103.353517"><ele>1649.8708</ele><time>2026-04-03T15:39:55.000Z</time></trkpt>
        <trkpt lat="29.555154" lon="103.353504"><ele>1651.7936</ele><time>2026-04-03T15:40:02.000Z</time></trkpt>
        <trkpt lat="29.555202" lon="103.353492"><ele>1651.5342</ele><time>2026-04-03T15:40:07.000Z</time></trkpt>
        <trkpt lat="29.555257" lon="103.353504"><ele>1650.8483</ele><time>2026-04-03T15:40:11.000Z</time></trkpt>
        <trkpt lat="29.555305" lon="103.353502"><ele>1649.6288</ele><time>2026-04-03T15:40:14.000Z</time></trkpt>
        <trkpt lat="29.555348" lon="103.35347"><ele>1647.5525</ele><time>2026-04-03T15:40:17.000Z</time></trkpt>
        <trkpt lat="29.555393" lon="103.353461"><ele>1647.9182</ele><time>2026-04-03T15:40:20.000Z</time></trkpt>
        <trkpt lat="29.555454" lon="103.353468"><ele>1646.0153</ele><time>2026-04-03T15:40:24.000Z</time></trkpt>
        <trkpt lat="29.555505" lon="103.353452"><ele>1644.5339</ele><time>2026-04-03T15:40:29.000Z</time></trkpt>
        <trkpt lat="29.55555" lon="103.353424"><ele>1642.917</ele><time>2026-04-03T15:40:36.000Z</time></trkpt>
        <trkpt lat="29.555601" lon="103.353425"><ele>1645.6014</ele><time>2026-04-03T15:40:40.000Z</time></trkpt>
        <trkpt lat="29.555654" lon="103.353439"><ele>1645.5842</ele><time>2026-04-03T15:40:43.000Z</time></trkpt>
        <trkpt lat="29.555707" lon="103.353449"><ele>1646.3562</ele><time>2026-04-03T15:40:47.000Z</time></trkpt>
        <trkpt lat="29.555764" lon="103.353459"><ele>1645.4698</ele><time>2026-04-03T15:40:51.000Z</time></trkpt>
        <trkpt lat="29.555818" lon="103.353471"><ele>1637.7241</ele><time>2026-04-03T15:40:56.000Z</time></trkpt>
        <trkpt lat="29.555868" lon="103.35349"><ele>1634.298</ele><time>2026-04-03T15:41:00.000Z</time></trkpt>
        <trkpt lat="29.555921" lon="103.353508"><ele>1629.7793</ele><time>2026-04-03T15:41:04.000Z</time></trkpt>
        <trkpt lat="29.555976" lon="103.353527"><ele>1628.0066</ele><time>2026-04-03T15:41:08.000Z</time></trkpt>
        <trkpt lat="29.556017" lon="103.353548"><ele>1629.6464</ele><time>2026-04-03T15:41:11.000Z</time></trkpt>
        <trkpt lat="29.556069" lon="103.353561"><ele>1629.7751</ele><time>2026-04-03T15:41:14.000Z</time></trkpt>
        <trkpt lat="29.556122" lon="103.353559"><ele>1631.2137</ele><time>2026-04-03T15:41:21.000Z</time></trkpt>
        <trkpt lat="29.556171" lon="103.353549"><ele>1630.9491</ele><time>2026-04-03T15:41:27.000Z</time></trkpt>
        <trkpt lat="29.55622" lon="103.353528"><ele>1632.5156</ele><time>2026-04-03T15:41:33.000Z</time></trkpt>
        <trkpt lat="29.55626" lon="103.35349"><ele>1633.6736</ele><time>2026-04-03T15:41:37.000Z</time></trkpt>
        <trkpt lat="29.556288" lon="103.35345"><ele>1634.5253</ele><time>2026-04-03T15:41:40.000Z</time></trkpt>
        <trkpt lat="29.55632" lon="103.353411"><ele>1634.7673</ele><time>2026-04-03T15:41:43.000Z</time></trkpt>
        <trkpt lat="29.556352" lon="103.353365"><ele>1635.078</ele><time>2026-04-03T15:41:48.000Z</time></trkpt>
        <trkpt lat="29.556386" lon="103.35332"><ele>1634.0093</ele><time>2026-04-03T15:41:52.000Z</time></trkpt>
        <trkpt lat="29.556417" lon="103.353275"><ele>1634.1696</ele><time>2026-04-03T15:41:56.000Z</time></trkpt>
        <trkpt lat="29.556454" lon="103.353235"><ele>1634.9489</ele><time>2026-04-03T15:42:00.000Z</time></trkpt>
        <trkpt lat="29.556482" lon="103.353193"><ele>1633.952</ele><time>2026-04-03T15:42:04.000Z</time></trkpt>
        <trkpt lat="29.556526" lon="103.353159"><ele>1633.9872</ele><time>2026-04-03T15:42:08.000Z</time></trkpt>
        <trkpt lat="29.556564" lon="103.353116"><ele>1632.2119</ele><time>2026-04-03T15:42:12.000Z</time></trkpt>
        <trkpt lat="29.556597" lon="103.353075"><ele>1631.5951</ele><time>2026-04-03T15:42:15.000Z</time></trkpt>
        <trkpt lat="29.556646" lon="103.353045"><ele>1632.9878</ele><time>2026-04-03T15:42:19.000Z</time></trkpt>
        <trkpt lat="29.556684" lon="103.353014"><ele>1632.823</ele><time>2026-04-03T15:42:23.000Z</time></trkpt>
        <trkpt lat="29.556736" lon="103.352991"><ele>1631.969</ele><time>2026-04-03T15:42:28.000Z</time></trkpt>
        <trkpt lat="29.556762" lon="103.352941"><ele>1629.0952</ele><time>2026-04-03T15:42:32.000Z</time></trkpt>
        <trkpt lat="29.556784" lon="103.352895"><ele>1628.0121</ele><time>2026-04-03T15:42:36.000Z</time></trkpt>
        <trkpt lat="29.556815" lon="103.352857"><ele>1628.3307</ele><time>2026-04-03T15:42:40.000Z</time></trkpt>
        <trkpt lat="29.556846" lon="103.352813"><ele>1626.2635</ele><time>2026-04-03T15:42:44.000Z</time></trkpt>
        <trkpt lat="29.556879" lon="103.352765"><ele>1625.5814</ele><time>2026-04-03T15:42:49.000Z</time></trkpt>
        <trkpt lat="29.556903" lon="103.352718"><ele>1625.2932</ele><time>2026-04-03T15:42:54.000Z</time></trkpt>
        <trkpt lat="29.556919" lon="103.352666"><ele>1624.3433</ele><time>2026-04-03T15:42:58.000Z</time></trkpt>
        <trkpt lat="29.556956" lon="103.352626"><ele>1625.0889</ele><time>2026-04-03T15:43:03.000Z</time></trkpt>
        <trkpt lat="29.556994" lon="103.352598"><ele>1623.5648</ele><time>2026-04-03T15:43:08.000Z</time></trkpt>
        <trkpt lat="29.557036" lon="103.352563"><ele>1623.2588</ele><time>2026-04-03T15:43:13.000Z</time></trkpt>
        <trkpt lat="29.557083" lon="103.352533"><ele>1621.404</ele><time>2026-04-03T15:43:16.000Z</time></trkpt>
        <trkpt lat="29.557129" lon="103.352501"><ele>1617.6376</ele><time>2026-04-03T15:43:21.000Z</time></trkpt>
        <trkpt lat="29.55716" lon="103.352453"><ele>1615.5314</ele><time>2026-04-03T15:43:26.000Z</time></trkpt>
        <trkpt lat="29.557186" lon="103.35241"><ele>1616.6797</ele><time>2026-04-03T15:43:31.000Z</time></trkpt>
        <trkpt lat="29.557223" lon="103.352379"><ele>1615.7172</ele><time>2026-04-03T15:43:35.000Z</time></trkpt>
        <trkpt lat="29.557262" lon="103.352338"><ele>1613.0914</ele><time>2026-04-03T15:43:41.000Z</time></trkpt>
        <trkpt lat="29.557289" lon="103.352296"><ele>1609.9469</ele><time>2026-04-03T15:43:46.000Z</time></trkpt>
        <trkpt lat="29.557323" lon="103.352244"><ele>1607.9991</ele><time>2026-04-03T15:43:51.000Z</time></trkpt>
        <trkpt lat="29.557356" lon="103.352204"><ele>1608.3896</ele><time>2026-04-03T15:43:55.000Z</time></trkpt>
        <trkpt lat="29.557391" lon="103.352164"><ele>1607.1466</ele><time>2026-04-03T15:43:59.000Z</time></trkpt>
        <trkpt lat="29.557414" lon="103.352115"><ele>1607.242</ele><time>2026-04-03T15:44:04.000Z</time></trkpt>
        <trkpt lat="29.55745" lon="103.352082"><ele>1607.3044</ele><time>2026-04-03T15:44:08.000Z</time></trkpt>
        <trkpt lat="29.557465" lon="103.352032"><ele>1604.0919</ele><time>2026-04-03T15:44:12.000Z</time></trkpt>
        <trkpt lat="29.557492" lon="103.351986"><ele>1602.4148</ele><time>2026-04-03T15:44:15.000Z</time></trkpt>
        <trkpt lat="29.557502" lon="103.351935"><ele>1603.3353</ele><time>2026-04-03T15:44:19.000Z</time></trkpt>
        <trkpt lat="29.557506" lon="103.351879"><ele>1603.5746</ele><time>2026-04-03T15:44:24.000Z</time></trkpt>
        <trkpt lat="29.557526" lon="103.351823"><ele>1601.6526</ele><time>2026-04-03T15:44:28.000Z</time></trkpt>
        <trkpt lat="29.557551" lon="103.351771"><ele>1600.9447</ele><time>2026-04-03T15:44:34.000Z</time></trkpt>
        <trkpt lat="29.557586" lon="103.351728"><ele>1600.9092</ele><time>2026-04-03T15:44:41.000Z</time></trkpt>
        <trkpt lat="29.557597" lon="103.351673"><ele>1597.8483</ele><time>2026-04-03T15:44:48.000Z</time></trkpt>
        <trkpt lat="29.557596" lon="103.351606"><ele>1596.2875</ele><time>2026-04-03T15:44:54.000Z</time></trkpt>
        <trkpt lat="29.557593" lon="103.351554"><ele>1592.4067</ele><time>2026-04-03T15:44:59.000Z</time></trkpt>
        <trkpt lat="29.557645" lon="103.351534"><ele>1599.3762</ele><time>2026-04-03T15:45:05.000Z</time></trkpt>
        <trkpt lat="29.55768" lon="103.351582"><ele>1594.0045</ele><time>2026-04-03T15:45:13.000Z</time></trkpt>
        <trkpt lat="29.557721" lon="103.351611"><ele>1593.1885</ele><time>2026-04-03T15:45:18.000Z</time></trkpt>
        <trkpt lat="29.557774" lon="103.351612"><ele>1591.3961</ele><time>2026-04-03T15:45:23.000Z</time></trkpt>
        <trkpt lat="29.557825" lon="103.351633"><ele>1592.5377</ele><time>2026-04-03T15:45:28.000Z</time></trkpt>
        <trkpt lat="29.557858" lon="103.351677"><ele>1595.3457</ele><time>2026-04-03T15:45:33.000Z</time></trkpt>
        <trkpt lat="29.557903" lon="103.351675"><ele>1593.6917</ele><time>2026-04-03T15:45:38.000Z</time></trkpt>
        <trkpt lat="29.557951" lon="103.35166"><ele>1593.2587</ele><time>2026-04-03T15:45:42.000Z</time></trkpt>
        <trkpt lat="29.557992" lon="103.351638"><ele>1592.632</ele><time>2026-04-03T15:45:46.000Z</time></trkpt>
        <trkpt lat="29.558046" lon="103.351607"><ele>1587.7344</ele><time>2026-04-03T15:45:50.000Z</time></trkpt>
        <trkpt lat="29.558097" lon="103.351566"><ele>1584.5732</ele><time>2026-04-03T15:45:53.000Z</time></trkpt>
        <trkpt lat="29.558138" lon="103.351531"><ele>1584.4684</ele><time>2026-04-03T15:45:56.000Z</time></trkpt>
        <trkpt lat="29.558175" lon="103.351501"><ele>1586.7007</ele><time>2026-04-03T15:46:01.000Z</time></trkpt>
        <trkpt lat="29.558216" lon="103.351475"><ele>1589.9889</ele><time>2026-04-03T15:46:08.000Z</time></trkpt>
        <trkpt lat="29.558265" lon="103.351457"><ele>1588.278</ele><time>2026-04-03T15:46:13.000Z</time></trkpt>
        <trkpt lat="29.558319" lon="103.351455"><ele>1586.5582</ele><time>2026-04-03T15:46:18.000Z</time></trkpt>
        <trkpt lat="29.558367" lon="103.351432"><ele>1584.8167</ele><time>2026-04-03T15:46:22.000Z</time></trkpt>
        <trkpt lat="29.558418" lon="103.351414"><ele>1584.7134</ele><time>2026-04-03T15:46:27.000Z</time></trkpt>
        <trkpt lat="29.558473" lon="103.351397"><ele>1583.9885</ele><time>2026-04-03T15:46:31.000Z</time></trkpt>
        <trkpt lat="29.55852" lon="103.351376"><ele>1582.9012</ele><time>2026-04-03T15:46:35.000Z</time></trkpt>
        <trkpt lat="29.558558" lon="103.351342"><ele>1582.3965</ele><time>2026-04-03T15:46:39.000Z</time></trkpt>
        <trkpt lat="29.558596" lon="103.351303"><ele>1582.0674</ele><time>2026-04-03T15:46:43.000Z</time></trkpt>
        <trkpt lat="29.558625" lon="103.351259"><ele>1579.8538</ele><time>2026-04-03T15:46:47.000Z</time></trkpt>
        <trkpt lat="29.558671" lon="103.351227"><ele>1580.0732</ele><time>2026-04-03T15:46:53.000Z</time></trkpt>
        <trkpt lat="29.558708" lon="103.351196"><ele>1581.8573</ele><time>2026-04-03T15:46:58.000Z</time></trkpt>
        <trkpt lat="29.558756" lon="103.351194"><ele>1582.6548</ele><time>2026-04-03T15:47:04.000Z</time></trkpt>
        <trkpt lat="29.5588" lon="103.351171"><ele>1582.0099</ele><time>2026-04-03T15:47:09.000Z</time></trkpt>
        <trkpt lat="29.558845" lon="103.351127"><ele>1580.3358</ele><time>2026-04-03T15:47:13.000Z</time></trkpt>
        <trkpt lat="29.558887" lon="103.351101"><ele>1579.9161</ele><time>2026-04-03T15:47:16.000Z</time></trkpt>
        <trkpt lat="29.558926" lon="103.35107"><ele>1580.2489</ele><time>2026-04-03T15:47:20.000Z</time></trkpt>
        <trkpt lat="29.558961" lon="103.351019"><ele>1581.9294</ele><time>2026-04-03T15:47:25.000Z</time></trkpt>
        <trkpt lat="29.558986" lon="103.350956"><ele>1583.0304</ele><time>2026-04-03T15:47:29.000Z</time></trkpt>
        <trkpt lat="29.559022" lon="103.350908"><ele>1585.816</ele><time>2026-04-03T15:47:34.000Z</time></trkpt>
        <trkpt lat="29.559063" lon="103.350869"><ele>1586.3268</ele><time>2026-04-03T15:47:39.000Z</time></trkpt>
        <trkpt lat="29.559113" lon="103.350854"><ele>1588.0978</ele><time>2026-04-03T15:47:44.000Z</time></trkpt>
        <trkpt lat="29.559147" lon="103.35082"><ele>1588.1437</ele><time>2026-04-03T15:47:48.000Z</time></trkpt>
        <trkpt lat="29.559197" lon="103.35079"><ele>1585.1261</ele><time>2026-04-03T15:47:55.000Z</time></trkpt>
        <trkpt lat="29.559243" lon="103.350797"><ele>1585.4391</ele><time>2026-04-03T15:47:59.000Z</time></trkpt>
        <trkpt lat="29.559289" lon="103.350801"><ele>1582.7397</ele><time>2026-04-03T15:48:03.000Z</time></trkpt>
        <trkpt lat="29.559329" lon="103.350765"><ele>1579.0032</ele><time>2026-04-03T15:48:07.000Z</time></trkpt>
        <trkpt lat="29.559368" lon="103.350734"><ele>1578.6337</ele><time>2026-04-03T15:48:11.000Z</time></trkpt>
        <trkpt lat="29.559401" lon="103.350698"><ele>1576.9258</ele><time>2026-04-03T15:48:16.000Z</time></trkpt>
        <trkpt lat="29.559432" lon="103.350648"><ele>1575.2675</ele><time>2026-04-03T15:48:22.000Z</time></trkpt>
        <trkpt lat="29.559489" lon="103.350631"><ele>1573.8578</ele><time>2026-04-03T15:48:26.000Z</time></trkpt>
        <trkpt lat="29.559541" lon="103.350614"><ele>1574.1252</ele><time>2026-04-03T15:48:30.000Z</time></trkpt>
        <trkpt lat="29.559572" lon="103.350563"><ele>1574.163</ele><time>2026-04-03T15:48:33.000Z</time></trkpt>
        <trkpt lat="29.559594" lon="103.350513"><ele>1575.0851</ele><time>2026-04-03T15:48:36.000Z</time></trkpt>
        <trkpt lat="29.559643" lon="103.350482"><ele>1580.3937</ele><time>2026-04-03T15:48:43.000Z</time></trkpt>
        <trkpt lat="29.559686" lon="103.35045"><ele>1581.5297</ele><time>2026-04-03T15:48:50.000Z</time></trkpt>
        <trkpt lat="29.559728" lon="103.350428"><ele>1581.9521</ele><time>2026-04-03T15:48:58.000Z</time></trkpt>
        <trkpt lat="29.55977" lon="103.350391"><ele>1584.86</ele><time>2026-04-03T15:49:07.000Z</time></trkpt>
        <trkpt lat="29.559818" lon="103.35038"><ele>1586.2528</ele><time>2026-04-03T15:49:19.000Z</time></trkpt>
        <trkpt lat="29.559858" lon="103.350347"><ele>1590.3685</ele><time>2026-04-03T15:49:29.000Z</time></trkpt>
        <trkpt lat="29.559904" lon="103.350336"><ele>1593.2404</ele><time>2026-04-03T15:49:42.000Z</time></trkpt>
        <trkpt lat="29.559948" lon="103.350355"><ele>1590.9418</ele><time>2026-04-03T15:49:50.000Z</time></trkpt>
        <trkpt lat="29.559989" lon="103.35039"><ele>1588.8264</ele><time>2026-04-03T15:50:04.000Z</time></trkpt>
        <trkpt lat="29.56003" lon="103.35042"><ele>1590.916</ele><time>2026-04-03T15:50:16.000Z</time></trkpt>
        <trkpt lat="29.560066" lon="103.350458"><ele>1591.7655</ele><time>2026-04-03T15:50:25.000Z</time></trkpt>
        <trkpt lat="29.560096" lon="103.350499"><ele>1603.8125</ele><time>2026-04-03T15:50:42.000Z</time></trkpt>
        <trkpt lat="29.560122" lon="103.350549"><ele>1608.3053</ele><time>2026-04-03T15:50:59.000Z</time></trkpt>
        <trkpt lat="29.560154" lon="103.350587"><ele>1609.2148</ele><time>2026-04-03T15:51:11.000Z</time></trkpt>
        <trkpt lat="29.56018" lon="103.350631"><ele>1617.1182</ele><time>2026-04-03T15:51:24.000Z</time></trkpt>
        <trkpt lat="29.560192" lon="103.350689"><ele>1620.9487</ele><time>2026-04-03T15:51:43.000Z</time></trkpt>
        <trkpt lat="29.560167" lon="103.350732"><ele>1622.2654</ele><time>2026-04-03T15:51:50.000Z</time></trkpt>
        <trkpt lat="29.560177" lon="103.350789"><ele>1618.9102</ele><time>2026-04-03T15:51:56.000Z</time></trkpt>
        <trkpt lat="29.560195" lon="103.350844"><ele>1620.6309</ele><time>2026-04-03T15:52:02.000Z</time></trkpt>
        <trkpt lat="29.560204" lon="103.350899"><ele>1621.9246</ele><time>2026-04-03T15:52:11.000Z</time></trkpt>
        <trkpt lat="29.560224" lon="103.350953"><ele>1626.1825</ele><time>2026-04-03T15:52:20.000Z</time></trkpt>
        <trkpt lat="29.56021" lon="103.351017"><ele>1627.6355</ele><time>2026-04-03T15:52:30.000Z</time></trkpt>
        <trkpt lat="29.560204" lon="103.351071"><ele>1627.6833</ele><time>2026-04-03T15:52:41.000Z</time></trkpt>
        <trkpt lat="29.560245" lon="103.351094"><ele>1630.5275</ele><time>2026-04-03T15:52:55.000Z</time></trkpt>
        <trkpt lat="29.560296" lon="103.351099"><ele>1638.2351</ele><time>2026-04-03T15:53:13.000Z</time></trkpt>
        <trkpt lat="29.560342" lon="103.351081"><ele>1639.9336</ele><time>2026-04-03T15:53:27.000Z</time></trkpt>
        <trkpt lat="29.560386" lon="103.351065"><ele>1640.8352</ele><time>2026-04-03T15:53:38.000Z</time></trkpt>
        <trkpt lat="29.560435" lon="103.351045"><ele>1644.7861</ele><time>2026-04-03T15:53:52.000Z</time></trkpt>
        <trkpt lat="29.560482" lon="103.351034"><ele>1644.7954</ele><time>2026-04-03T15:54:04.000Z</time></trkpt>
        <trkpt lat="29.560527" lon="103.351044"><ele>1643.9193</ele><time>2026-04-03T15:54:35.000Z</time></trkpt>
        <trkpt lat="29.560564" lon="103.351082"><ele>1653.9315</ele><time>2026-04-03T15:55:26.000Z</time></trkpt>
        <trkpt lat="29.560553" lon="103.351143"><ele>1665.1703</ele><time>2026-04-03T15:55:51.000Z</time></trkpt>
        <trkpt lat="29.560545" lon="103.351197"><ele>1662.7367</ele><time>2026-04-03T15:56:00.000Z</time></trkpt>
        <trkpt lat="29.560525" lon="103.351244"><ele>1661.1068</ele><time>2026-04-03T15:56:08.000Z</time></trkpt>
        <trkpt lat="29.560562" lon="103.351275"><ele>1664.5278</ele><time>2026-04-03T15:56:26.000Z</time></trkpt>
        <trkpt lat="29.560609" lon="103.351278"><ele>1666.7605</ele><time>2026-04-03T15:56:38.000Z</time></trkpt>
        <trkpt lat="29.560655" lon="103.35127"><ele>1669.9385</ele><time>2026-04-03T15:56:49.000Z</time></trkpt>
        <trkpt lat="29.560631" lon="103.351324"><ele>1672.5997</ele><time>2026-04-03T15:57:22.000Z</time></trkpt>
        <trkpt lat="29.560599" lon="103.351366"><ele>1674.688</ele><time>2026-04-03T15:57:30.000Z</time></trkpt>
        <trkpt lat="29.560564" lon="103.351401"><ele>1675.856</ele><time>2026-04-03T15:57:38.000Z</time></trkpt>
        <trkpt lat="29.560532" lon="103.351444"><ele>1679.1019</ele><time>2026-04-03T15:57:43.000Z</time></trkpt>
        <trkpt lat="29.560492" lon="103.351476"><ele>1682.5424</ele><time>2026-04-03T15:57:48.000Z</time></trkpt>
        <trkpt lat="29.560486" lon="103.351538"><ele>1681.9312</ele><time>2026-04-03T15:58:02.000Z</time></trkpt>
        <trkpt lat="29.560515" lon="103.351582"><ele>1682.6606</ele><time>2026-04-03T15:58:34.000Z</time></trkpt>
        <trkpt lat="29.560517" lon="103.351636"><ele>1687.2286</ele><time>2026-04-03T15:58:48.000Z</time></trkpt>
        <trkpt lat="29.560555" lon="103.351607"><ele>1683.8873</ele><time>2026-04-03T15:58:52.000Z</time></trkpt>
        <trkpt lat="29.56059" lon="103.351563"><ele>1687.9535</ele><time>2026-04-03T15:58:56.000Z</time></trkpt>
        <trkpt lat="29.560614" lon="103.351518"><ele>1686.8026</ele><time>2026-04-03T15:59:04.000Z</time></trkpt>
        <trkpt lat="29.560642" lon="103.351476"><ele>1694.7988</ele><time>2026-04-03T15:59:20.000Z</time></trkpt>
        <trkpt lat="29.560694" lon="103.351485"><ele>1694.6354</ele><time>2026-04-03T15:59:26.000Z</time></trkpt>
        <trkpt lat="29.560738" lon="103.351499"><ele>1696.0804</ele><time>2026-04-03T15:59:34.000Z</time></trkpt>
        <trkpt lat="29.560783" lon="103.351505"><ele>1696.1813</ele><time>2026-04-03T15:59:41.000Z</time></trkpt>
        <trkpt lat="29.56081" lon="103.351463"><ele>1697.4885</ele><time>2026-04-03T15:59:45.000Z</time></trkpt>
        <trkpt lat="29.560862" lon="103.351478"><ele>1699.82</ele><time>2026-04-03T15:59:48.000Z</time></trkpt>
        <trkpt lat="29.560906" lon="103.351506"><ele>1703.2888</ele><time>2026-04-03T15:59:52.000Z</time></trkpt>
        <trkpt lat="29.560949" lon="103.351528"><ele>1704.6512</ele><time>2026-04-03T16:00:00.000Z</time></trkpt>
        <trkpt lat="29.561005" lon="103.351533"><ele>1703.9596</ele><time>2026-04-03T16:00:05.000Z</time></trkpt>
        <trkpt lat="29.561061" lon="103.351545"><ele>1703.8959</ele><time>2026-04-03T16:00:10.000Z</time></trkpt>
        <trkpt lat="29.561112" lon="103.351559"><ele>1704.2356</ele><time>2026-04-03T16:00:13.000Z</time></trkpt>
        <trkpt lat="29.561167" lon="103.35157"><ele>1704.7119</ele><time>2026-04-03T16:00:17.000Z</time></trkpt>
        <trkpt lat="29.561214" lon="103.351585"><ele>1705.3108</ele><time>2026-04-03T16:00:21.000Z</time></trkpt>
        <trkpt lat="29.561258" lon="103.351607"><ele>1704.3112</ele><time>2026-04-03T16:00:31.000Z</time></trkpt>
        <trkpt lat="29.561302" lon="103.351632"><ele>1704.8716</ele><time>2026-04-03T16:00:39.000Z</time></trkpt>
        <trkpt lat="29.561349" lon="103.351651"><ele>1708.009</ele><time>2026-04-03T16:00:51.000Z</time></trkpt>
        <trkpt lat="29.561391" lon="103.35167"><ele>1718.7256</ele><time>2026-04-03T16:01:21.000Z</time></trkpt>
        <trkpt lat="29.561381" lon="103.351728"><ele>1727.742</ele><time>2026-04-03T16:01:51.000Z</time></trkpt>
        <trkpt lat="29.561418" lon="103.351761"><ele>1731.3849</ele><time>2026-04-03T16:02:04.000Z</time></trkpt>
        <trkpt lat="29.561398" lon="103.351811"><ele>1730.9417</ele><time>2026-04-03T16:02:15.000Z</time></trkpt>
        <trkpt lat="29.561391" lon="103.351862"><ele>1728.5236</ele><time>2026-04-03T16:02:27.000Z</time></trkpt>
        <trkpt lat="29.561439" lon="103.351852"><ele>1732.3302</ele><time>2026-04-03T16:02:43.000Z</time></trkpt>
        <trkpt lat="29.561485" lon="103.351868"><ele>1735.4309</ele><time>2026-04-03T16:03:22.000Z</time></trkpt>
        <trkpt lat="29.561545" lon="103.351842"><ele>1743.1792</ele><time>2026-04-03T16:03:34.000Z</time></trkpt>
        <trkpt lat="29.56159" lon="103.351862"><ele>1749.7438</ele><time>2026-04-03T16:03:51.000Z</time></trkpt>
        <trkpt lat="29.561631" lon="103.351891"><ele>1749.0759</ele><time>2026-04-03T16:03:57.000Z</time></trkpt>
        <trkpt lat="29.561676" lon="103.351902"><ele>1752.1248</ele><time>2026-04-03T16:04:08.000Z</time></trkpt>
        <trkpt lat="29.561717" lon="103.351925"><ele>1752.9314</ele><time>2026-04-03T16:04:18.000Z</time></trkpt>
        <trkpt lat="29.561698" lon="103.351972"><ele>1758.6066</ele><time>2026-04-03T16:04:37.000Z</time></trkpt>
        <trkpt lat="29.561688" lon="103.352027"><ele>1756.4719</ele><time>2026-04-03T16:04:51.000Z</time></trkpt>
        <trkpt lat="29.561735" lon="103.352035"><ele>1758.2166</ele><time>2026-04-03T16:05:09.000Z</time></trkpt>
        <trkpt lat="29.561787" lon="103.352042"><ele>1762.3895</ele><time>2026-04-03T16:05:21.000Z</time></trkpt>
        <trkpt lat="29.561836" lon="103.352058"><ele>1765.5398</ele><time>2026-04-03T16:05:34.000Z</time></trkpt>
        <trkpt lat="29.56188" lon="103.352093"><ele>1769.0144</ele><time>2026-04-03T16:05:40.000Z</time></trkpt>
        <trkpt lat="29.56193" lon="103.352095"><ele>1770.2328</ele><time>2026-04-03T16:05:51.000Z</time></trkpt>
        <trkpt lat="29.561972" lon="103.352071"><ele>1774.6683</ele><time>2026-04-03T16:06:01.000Z</time></trkpt>
        <trkpt lat="29.562016" lon="103.352046"><ele>1774.9197</ele><time>2026-04-03T16:06:22.000Z</time></trkpt>
        <trkpt lat="29.562057" lon="103.352072"><ele>1772.8912</ele><time>2026-04-03T16:06:29.000Z</time></trkpt>
        <trkpt lat="29.562102" lon="103.35206"><ele>1776.6722</ele><time>2026-04-03T16:06:36.000Z</time></trkpt>
        <trkpt lat="29.562145" lon="103.352077"><ele>1779.1836</ele><time>2026-04-03T16:06:43.000Z</time></trkpt>
        <trkpt lat="29.562192" lon="103.35206"><ele>1781.9077</ele><time>2026-04-03T16:06:57.000Z</time></trkpt>
        <trkpt lat="29.56224" lon="103.352064"><ele>1785.9435</ele><time>2026-04-03T16:07:07.000Z</time></trkpt>
        <trkpt lat="29.562289" lon="103.352048"><ele>1786.7526</ele><time>2026-04-03T16:07:18.000Z</time></trkpt>
        <trkpt lat="29.562334" lon="103.352065"><ele>1787.099</ele><time>2026-04-03T16:07:30.000Z</time></trkpt>
        <trkpt lat="29.562379" lon="103.352074"><ele>1787.2751</ele><time>2026-04-03T16:07:49.000Z</time></trkpt>
        <trkpt lat="29.562421" lon="103.352098"><ele>1794.6224</ele><time>2026-04-03T16:08:05.000Z</time></trkpt>
        <trkpt lat="29.562466" lon="103.352103"><ele>1799.0533</ele><time>2026-04-03T16:08:24.000Z</time></trkpt>
        <trkpt lat="29.562521" lon="103.352112"><ele>1810.7108</ele><time>2026-04-03T16:09:03.000Z</time></trkpt>
        <trkpt lat="29.562572" lon="103.352103"><ele>1812.4525</ele><time>2026-04-03T16:09:14.000Z</time></trkpt>
        <trkpt lat="29.562624" lon="103.352103"><ele>1809.5298</ele><time>2026-04-03T16:09:21.000Z</time></trkpt>
        <trkpt lat="29.562654" lon="103.352038"><ele>1808.9176</ele><time>2026-04-03T16:09:28.000Z</time></trkpt>
        <trkpt lat="29.562649" lon="103.35197"><ele>1803.8527</ele><time>2026-04-03T16:09:34.000Z</time></trkpt>
        <trkpt lat="29.562638" lon="103.351916"><ele>1803.851</ele><time>2026-04-03T16:09:39.000Z</time></trkpt>
        <trkpt lat="29.562604" lon="103.351875"><ele>1801.2606</ele><time>2026-04-03T16:09:45.000Z</time></trkpt>
        <trkpt lat="29.56258" lon="103.351821"><ele>1799.4315</ele><time>2026-04-03T16:09:50.000Z</time></trkpt>
        <trkpt lat="29.562545" lon="103.351778"><ele>1797.4081</ele><time>2026-04-03T16:09:56.000Z</time></trkpt>
        <trkpt lat="29.562517" lon="103.351732"><ele>1796.8718</ele><time>2026-04-03T16:10:01.000Z</time></trkpt>
        <trkpt lat="29.562475" lon="103.351704"><ele>1796.8256</ele><time>2026-04-03T16:10:05.000Z</time></trkpt>
        <trkpt lat="29.56248" lon="103.351651"><ele>1796.2235</ele><time>2026-04-03T16:10:25.000Z</time></trkpt>
        <trkpt lat="29.562516" lon="103.351615"><ele>1799.9432</ele><time>2026-04-03T16:10:37.000Z</time></trkpt>
        <trkpt lat="29.562544" lon="103.351572"><ele>1801.1155</ele><time>2026-04-03T16:10:48.000Z</time></trkpt>
        <trkpt lat="29.562575" lon="103.351531"><ele>1803.7123</ele><time>2026-04-03T16:11:04.000Z</time></trkpt>
        <trkpt lat="29.56259" lon="103.351481"><ele>1805.8552</ele><time>2026-04-03T16:11:22.000Z</time></trkpt>
        <trkpt lat="29.562608" lon="103.351417"><ele>1807.0552</ele><time>2026-04-03T16:11:27.000Z</time></trkpt>
        <trkpt lat="29.562634" lon="103.35136"><ele>1810.8588</ele><time>2026-04-03T16:11:33.000Z</time></trkpt>
        <trkpt lat="29.562669" lon="103.351324"><ele>1811.1746</ele><time>2026-04-03T16:11:37.000Z</time></trkpt>
        <trkpt lat="29.562704" lon="103.351275"><ele>1809.8407</ele><time>2026-04-03T16:11:44.000Z</time></trkpt>
        <trkpt lat="29.562715" lon="103.351216"><ele>1811.7998</ele><time>2026-04-03T16:11:50.000Z</time></trkpt>
        <trkpt lat="29.562762" lon="103.351165"><ele>1813.8386</ele><time>2026-04-03T16:11:58.000Z</time></trkpt>
        <trkpt lat="29.562765" lon="103.351108"><ele>1814.9158</ele><time>2026-04-03T16:12:07.000Z</time></trkpt>
        <trkpt lat="29.5628" lon="103.351068"><ele>1818.1862</ele><time>2026-04-03T16:12:20.000Z</time></trkpt>
        <trkpt lat="29.56282" lon="103.35102"><ele>1816.9581</ele><time>2026-04-03T16:12:28.000Z</time></trkpt>
        <trkpt lat="29.562819" lon="103.350963"><ele>1817.7924</ele><time>2026-04-03T16:12:37.000Z</time></trkpt>
        <trkpt lat="29.562794" lon="103.350913"><ele>1821.3003</ele><time>2026-04-03T16:12:45.000Z</time></trkpt>
        <trkpt lat="29.562789" lon="103.350856"><ele>1824.077</ele><time>2026-04-03T16:12:53.000Z</time></trkpt>
        <trkpt lat="29.562781" lon="103.350804"><ele>1825.0463</ele><time>2026-04-03T16:12:59.000Z</time></trkpt>
        <trkpt lat="29.562784" lon="103.350752"><ele>1825.0963</ele><time>2026-04-03T16:13:05.000Z</time></trkpt>
        <trkpt lat="29.562822" lon="103.350721"><ele>1826.9711</ele><time>2026-04-03T16:13:15.000Z</time></trkpt>
        <trkpt lat="29.562808" lon="103.350661"><ele>1827.9052</ele><time>2026-04-03T16:13:33.000Z</time></trkpt>
        <trkpt lat="29.562804" lon="103.3506"><ele>1827.9843</ele><time>2026-04-03T16:13:38.000Z</time></trkpt>
        <trkpt lat="29.562798" lon="103.350543"><ele>1828.8068</ele><time>2026-04-03T16:13:42.000Z</time></trkpt>
        <trkpt lat="29.562804" lon="103.350489"><ele>1828.546</ele><time>2026-04-03T16:13:46.000Z</time></trkpt>
        <trkpt lat="29.5628" lon="103.350433"><ele>1826.4526</ele><time>2026-04-03T16:13:52.000Z</time></trkpt>
        <trkpt lat="29.562802" lon="103.350379"><ele>1823.0916</ele><time>2026-04-03T16:13:57.000Z</time></trkpt>
        <trkpt lat="29.56281" lon="103.350323"><ele>1820.17</ele><time>2026-04-03T16:14:02.000Z</time></trkpt>
        <trkpt lat="29.562828" lon="103.350272"><ele>1820.2532</ele><time>2026-04-03T16:14:09.000Z</time></trkpt>
        <trkpt lat="29.562847" lon="103.35022"><ele>1820.6952</ele><time>2026-04-03T16:14:13.000Z</time></trkpt>
        <trkpt lat="29.562875" lon="103.350168"><ele>1820.3408</ele><time>2026-04-03T16:14:18.000Z</time></trkpt>
        <trkpt lat="29.56289" lon="103.350114"><ele>1817.9612</ele><time>2026-04-03T16:14:33.000Z</time></trkpt>
        <trkpt lat="29.562914" lon="103.350056"><ele>1818.8851</ele><time>2026-04-03T16:14:45.000Z</time></trkpt>
        <trkpt lat="29.56292" lon="103.350002"><ele>1817.5747</ele><time>2026-04-03T16:14:50.000Z</time></trkpt>
        <trkpt lat="29.562923" lon="103.349942"><ele>1815.8306</ele><time>2026-04-03T16:14:54.000Z</time></trkpt>
        <trkpt lat="29.562925" lon="103.349885"><ele>1813.7917</ele><time>2026-04-03T16:14:59.000Z</time></trkpt>
        <trkpt lat="29.562936" lon="103.349826"><ele>1816.3647</ele><time>2026-04-03T16:15:04.000Z</time></trkpt>
        <trkpt lat="29.562955" lon="103.349771"><ele>1818.2192</ele><time>2026-04-03T16:15:08.000Z</time></trkpt>
        <trkpt lat="29.562968" lon="103.349702"><ele>1817.436</ele><time>2026-04-03T16:15:12.000Z</time></trkpt>
        <trkpt lat="29.562984" lon="103.349653"><ele>1817.1003</ele><time>2026-04-03T16:15:15.000Z</time></trkpt>
        <trkpt lat="29.563013" lon="103.349603"><ele>1818.8846</ele><time>2026-04-03T16:15:19.000Z</time></trkpt>
        <trkpt lat="29.563037" lon="103.349548"><ele>1818.1055</ele><time>2026-04-03T16:15:24.000Z</time></trkpt>
        <trkpt lat="29.563061" lon="103.349501"><ele>1817.0697</ele><time>2026-04-03T16:15:28.000Z</time></trkpt>
        <trkpt lat="29.563077" lon="103.34945"><ele>1816.5916</ele><time>2026-04-03T16:15:33.000Z</time></trkpt>
        <trkpt lat="29.563103" lon="103.349401"><ele>1815.1495</ele><time>2026-04-03T16:15:38.000Z</time></trkpt>
        <trkpt lat="29.563106" lon="103.34934"><ele>1814.7769</ele><time>2026-04-03T16:15:42.000Z</time></trkpt>
        <trkpt lat="29.56313" lon="103.349282"><ele>1814.4806</ele><time>2026-04-03T16:15:46.000Z</time></trkpt>
        <trkpt lat="29.563148" lon="103.349225"><ele>1814.6605</ele><time>2026-04-03T16:15:51.000Z</time></trkpt>
        <trkpt lat="29.563185" lon="103.349174"><ele>1814.2374</ele><time>2026-04-03T16:15:55.000Z</time></trkpt>
        <trkpt lat="29.563202" lon="103.349117"><ele>1813.919</ele><time>2026-04-03T16:15:59.000Z</time></trkpt>
        <trkpt lat="29.563211" lon="103.349062"><ele>1815.2596</ele><time>2026-04-03T16:16:04.000Z</time></trkpt>
        <trkpt lat="29.563207" lon="103.348999"><ele>1816.344</ele><time>2026-04-03T16:16:10.000Z</time></trkpt>
        <trkpt lat="29.563204" lon="103.348942"><ele>1816.2925</ele><time>2026-04-03T16:16:15.000Z</time></trkpt>
        <trkpt lat="29.563218" lon="103.34889"><ele>1816.2136</ele><time>2026-04-03T16:16:20.000Z</time></trkpt>
        <trkpt lat="29.563225" lon="103.348829"><ele>1816.2075</ele><time>2026-04-03T16:16:25.000Z</time></trkpt>
        <trkpt lat="29.563223" lon="103.348766"><ele>1817.5227</ele><time>2026-04-03T16:16:30.000Z</time></trkpt>
        <trkpt lat="29.563228" lon="103.348713"><ele>1819.6022</ele><time>2026-04-03T16:16:34.000Z</time></trkpt>
        <trkpt lat="29.563242" lon="103.348664"><ele>1821.817</ele><time>2026-04-03T16:16:37.000Z</time></trkpt>
        <trkpt lat="29.563244" lon="103.348607"><ele>1823.4788</ele><time>2026-04-03T16:16:41.000Z</time></trkpt>
        <trkpt lat="29.563249" lon="103.348546"><ele>1822.765</ele><time>2026-04-03T16:16:45.000Z</time></trkpt>
        <trkpt lat="29.563266" lon="103.348486"><ele>1824.8209</ele><time>2026-04-03T16:16:49.000Z</time></trkpt>
        <trkpt lat="29.563289" lon="103.34843"><ele>1825.6892</ele><time>2026-04-03T16:16:53.000Z</time></trkpt>
        <trkpt lat="29.563292" lon="103.348379"><ele>1824.5989</ele><time>2026-04-03T16:16:57.000Z</time></trkpt>
        <trkpt lat="29.563295" lon="103.348325"><ele>1823.6393</ele><time>2026-04-03T16:17:02.000Z</time></trkpt>
        <trkpt lat="29.563301" lon="103.348265"><ele>1820.609</ele><time>2026-04-03T16:17:06.000Z</time></trkpt>
        <trkpt lat="29.563346" lon="103.348243"><ele>1823.335</ele><time>2026-04-03T16:17:10.000Z</time></trkpt>
        <trkpt lat="29.563379" lon="103.348204"><ele>1822.4979</ele><time>2026-04-03T16:17:16.000Z</time></trkpt>
        <trkpt lat="29.563389" lon="103.348145"><ele>1822.2446</ele><time>2026-04-03T16:17:20.000Z</time></trkpt>
        <trkpt lat="29.563408" lon="103.348084"><ele>1821.2046</ele><time>2026-04-03T16:17:24.000Z</time></trkpt>
        <trkpt lat="29.56343" lon="103.348033"><ele>1819.4889</ele><time>2026-04-03T16:17:27.000Z</time></trkpt>
        <trkpt lat="29.563464" lon="103.347995"><ele>1819.504</ele><time>2026-04-03T16:17:30.000Z</time></trkpt>
        <trkpt lat="29.563504" lon="103.347961"><ele>1818.7145</ele><time>2026-04-03T16:17:33.000Z</time></trkpt>
        <trkpt lat="29.563547" lon="103.347919"><ele>1819.0172</ele><time>2026-04-03T16:17:37.000Z</time></trkpt>
        <trkpt lat="29.563568" lon="103.347862"><ele>1818.3264</ele><time>2026-04-03T16:17:41.000Z</time></trkpt>
        <trkpt lat="29.563581" lon="103.3478"><ele>1818.1855</ele><time>2026-04-03T16:17:46.000Z</time></trkpt>
        <trkpt lat="29.5636" lon="103.347751"><ele>1818.8679</ele><time>2026-04-03T16:17:50.000Z</time></trkpt>
        <trkpt lat="29.563599" lon="103.347694"><ele>1818.8252</ele><time>2026-04-03T16:17:55.000Z</time></trkpt>
        <trkpt lat="29.563587" lon="103.347633"><ele>1818.1539</ele><time>2026-04-03T16:17:59.000Z</time></trkpt>
        <trkpt lat="29.563588" lon="103.347577"><ele>1817.2455</ele><time>2026-04-03T16:18:03.000Z</time></trkpt>
        <trkpt lat="29.563586" lon="103.347522"><ele>1815.2006</ele><time>2026-04-03T16:18:07.000Z</time></trkpt>
        <trkpt lat="29.56359" lon="103.34746"><ele>1813.1498</ele><time>2026-04-03T16:18:12.000Z</time></trkpt>
        <trkpt lat="29.563586" lon="103.347395"><ele>1814.591</ele><time>2026-04-03T16:18:17.000Z</time></trkpt>
        <trkpt lat="29.563561" lon="103.347334"><ele>1815.7855</ele><time>2026-04-03T16:18:21.000Z</time></trkpt>
        <trkpt lat="29.563534" lon="103.347292"><ele>1816.03</ele><time>2026-04-03T16:18:24.000Z</time></trkpt>
        <trkpt lat="29.56351" lon="103.347245"><ele>1814.3519</ele><time>2026-04-03T16:18:28.000Z</time></trkpt>
        <trkpt lat="29.563473" lon="103.347195"><ele>1811.9065</ele><time>2026-04-03T16:18:33.000Z</time></trkpt>
        <trkpt lat="29.563435" lon="103.347153"><ele>1813.458</ele><time>2026-04-03T16:18:36.000Z</time></trkpt>
        <trkpt lat="29.563388" lon="103.347109"><ele>1814.1622</ele><time>2026-04-03T16:18:40.000Z</time></trkpt>
        <trkpt lat="29.563344" lon="103.347079"><ele>1812.4653</ele><time>2026-04-03T16:18:44.000Z</time></trkpt>
        <trkpt lat="29.563297" lon="103.347039"><ele>1812.6344</ele><time>2026-04-03T16:18:48.000Z</time></trkpt>
        <trkpt lat="29.563252" lon="103.347007"><ele>1813.2203</ele><time>2026-04-03T16:18:52.000Z</time></trkpt>
        <trkpt lat="29.563209" lon="103.34698"><ele>1813.5057</ele><time>2026-04-03T16:18:55.000Z</time></trkpt>
        <trkpt lat="29.56317" lon="103.346939"><ele>1814.3048</ele><time>2026-04-03T16:18:59.000Z</time></trkpt>
        <trkpt lat="29.563137" lon="103.346888"><ele>1816.5227</ele><time>2026-04-03T16:19:03.000Z</time></trkpt>
        <trkpt lat="29.563113" lon="103.346841"><ele>1816.4865</ele><time>2026-04-03T16:19:06.000Z</time></trkpt>
        <trkpt lat="29.563082" lon="103.346803"><ele>1816.3569</ele><time>2026-04-03T16:19:11.000Z</time></trkpt>
        <trkpt lat="29.563054" lon="103.34675"><ele>1813.8447</ele><time>2026-04-03T16:19:16.000Z</time></trkpt>
        <trkpt lat="29.563008" lon="103.346696"><ele>1812.4642</ele><time>2026-04-03T16:19:21.000Z</time></trkpt>
        <trkpt lat="29.562973" lon="103.346653"><ele>1810.8867</ele><time>2026-04-03T16:19:25.000Z</time></trkpt>
        <trkpt lat="29.562935" lon="103.346615"><ele>1810.5508</ele><time>2026-04-03T16:19:29.000Z</time></trkpt>
        <trkpt lat="29.562905" lon="103.346568"><ele>1809.6862</ele><time>2026-04-03T16:19:32.000Z</time></trkpt>
        <trkpt lat="29.56289" lon="103.346512"><ele>1811.2649</ele><time>2026-04-03T16:19:35.000Z</time></trkpt>
        <trkpt lat="29.562869" lon="103.346464"><ele>1812.5055</ele><time>2026-04-03T16:19:38.000Z</time></trkpt>
        <trkpt lat="29.56284" lon="103.346424"><ele>1813.8475</ele><time>2026-04-03T16:19:41.000Z</time></trkpt>
        <trkpt lat="29.562782" lon="103.346407"><ele>1809.6567</ele><time>2026-04-03T16:19:45.000Z</time></trkpt>
        <trkpt lat="29.562736" lon="103.346389"><ele>1808.8119</ele><time>2026-04-03T16:19:48.000Z</time></trkpt>
        <trkpt lat="29.562689" lon="103.346372"><ele>1809.2295</ele><time>2026-04-03T16:19:51.000Z</time></trkpt>
        <trkpt lat="29.562651" lon="103.346345"><ele>1810.7963</ele><time>2026-04-03T16:19:54.000Z</time></trkpt>
        <trkpt lat="29.562617" lon="103.346291"><ele>1811.5935</ele><time>2026-04-03T16:19:58.000Z</time></trkpt>
        <trkpt lat="29.562585" lon="103.346253"><ele>1812.5873</ele><time>2026-04-03T16:20:02.000Z</time></trkpt>
        <trkpt lat="29.562542" lon="103.346234"><ele>1812.2822</ele><time>2026-04-03T16:20:05.000Z</time></trkpt>
        <trkpt lat="29.562501" lon="103.346187"><ele>1811.491</ele><time>2026-04-03T16:20:09.000Z</time></trkpt>
        <trkpt lat="29.56247" lon="103.34615"><ele>1810.5508</ele><time>2026-04-03T16:20:12.000Z</time></trkpt>
        <trkpt lat="29.562427" lon="103.346105"><ele>1809.8286</ele><time>2026-04-03T16:20:16.000Z</time></trkpt>
        <trkpt lat="29.562379" lon="103.346059"><ele>1809.3779</ele><time>2026-04-03T16:20:20.000Z</time></trkpt>
        <trkpt lat="29.562334" lon="103.34602"><ele>1810.221</ele><time>2026-04-03T16:20:25.000Z</time></trkpt>
        <trkpt lat="29.562303" lon="103.345971"><ele>1808.8452</ele><time>2026-04-03T16:20:29.000Z</time></trkpt>
        <trkpt lat="29.562277" lon="103.345909"><ele>1808.1936</ele><time>2026-04-03T16:20:33.000Z</time></trkpt>
        <trkpt lat="29.562265" lon="103.345853"><ele>1808.4814</ele><time>2026-04-03T16:20:37.000Z</time></trkpt>
        <trkpt lat="29.562238" lon="103.345798"><ele>1805.4814</ele><time>2026-04-03T16:20:41.000Z</time></trkpt>
        <trkpt lat="29.562209" lon="103.345744"><ele>1806.7632</ele><time>2026-04-03T16:20:45.000Z</time></trkpt>
        <trkpt lat="29.56218" lon="103.345701"><ele>1803.5493</ele><time>2026-04-03T16:20:48.000Z</time></trkpt>
        <trkpt lat="29.562141" lon="103.345663"><ele>1803.3938</ele><time>2026-04-03T16:20:52.000Z</time></trkpt>
        <trkpt lat="29.562099" lon="103.345617"><ele>1802.9846</ele><time>2026-04-03T16:20:56.000Z</time></trkpt>
        <trkpt lat="29.562056" lon="103.345573"><ele>1804.9792</ele><time>2026-04-03T16:21:03.000Z</time></trkpt>
        <trkpt lat="29.56201" lon="103.345537"><ele>1804.7894</ele><time>2026-04-03T16:21:07.000Z</time></trkpt>
        <trkpt lat="29.561962" lon="103.345509"><ele>1804.0002</ele><time>2026-04-03T16:21:10.000Z</time></trkpt>
        <trkpt lat="29.561912" lon="103.3455"><ele>1805.6384</ele><time>2026-04-03T16:21:15.000Z</time></trkpt>
        <trkpt lat="29.561866" lon="103.345508"><ele>1804.0826</ele><time>2026-04-03T16:21:19.000Z</time></trkpt>
        <trkpt lat="29.561815" lon="103.345515"><ele>1805.0822</ele><time>2026-04-03T16:21:23.000Z</time></trkpt>
        <trkpt lat="29.56177" lon="103.345524"><ele>1805.9535</ele><time>2026-04-03T16:21:28.000Z</time></trkpt>
        <trkpt lat="29.561722" lon="103.34553"><ele>1806.2147</ele><time>2026-04-03T16:21:31.000Z</time></trkpt>
        <trkpt lat="29.561664" lon="103.345522"><ele>1805.9323</ele><time>2026-04-03T16:21:36.000Z</time></trkpt>
        <trkpt lat="29.561616" lon="103.345504"><ele>1805.786</ele><time>2026-04-03T16:21:40.000Z</time></trkpt>
        <trkpt lat="29.561576" lon="103.34547"><ele>1805.0464</ele><time>2026-04-03T16:21:44.000Z</time></trkpt>
        <trkpt lat="29.561537" lon="103.345421"><ele>1805.6401</ele><time>2026-04-03T16:21:49.000Z</time></trkpt>
        <trkpt lat="29.5615" lon="103.345389"><ele>1804.5082</ele><time>2026-04-03T16:21:53.000Z</time></trkpt>
        <trkpt lat="29.56148" lon="103.345341"><ele>1803.3445</ele><time>2026-04-03T16:21:58.000Z</time></trkpt>
        <trkpt lat="29.56145" lon="103.345299"><ele>1803.911</ele><time>2026-04-03T16:22:14.000Z</time></trkpt>
        <trkpt lat="29.561407" lon="103.345261"><ele>1804.6375</ele><time>2026-04-03T16:22:24.000Z</time></trkpt>
        <trkpt lat="29.561374" lon="103.345218"><ele>1806.8239</ele><time>2026-04-03T16:22:51.000Z</time></trkpt>
        <trkpt lat="29.561341" lon="103.345182"><ele>1808.0948</ele><time>2026-04-03T16:22:58.000Z</time></trkpt>
        <trkpt lat="29.561306" lon="103.345146"><ele>1808.7037</ele><time>2026-04-03T16:23:07.000Z</time></trkpt>
        <trkpt lat="29.561264" lon="103.345124"><ele>1809.08</ele><time>2026-04-03T16:23:21.000Z</time></trkpt>
        <trkpt lat="29.561228" lon="103.345092"><ele>1811.6746</ele><time>2026-04-03T16:23:37.000Z</time></trkpt>
        <trkpt lat="29.561202" lon="103.345045"><ele>1813.4838</ele><time>2026-04-03T16:23:54.000Z</time></trkpt>
        <trkpt lat="29.56116" lon="103.345011"><ele>1816.8381</ele><time>2026-04-03T16:24:11.000Z</time></trkpt>
        <trkpt lat="29.561114" lon="103.345007"><ele>1822.7289</ele><time>2026-04-03T16:24:42.000Z</time></trkpt>
        <trkpt lat="29.561079" lon="103.344972"><ele>1823.8109</ele><time>2026-04-03T16:24:59.000Z</time></trkpt>
        <trkpt lat="29.561034" lon="103.34498"><ele>1838.9327</ele><time>2026-04-03T16:25:33.000Z</time></trkpt>
        <trkpt lat="29.560997" lon="103.34501"><ele>1839.1198</ele><time>2026-04-03T16:25:43.000Z</time></trkpt>
        <trkpt lat="29.560951" lon="103.345037"><ele>1842.03</ele><time>2026-04-03T16:26:00.000Z</time></trkpt>
        <trkpt lat="29.560906" lon="103.345016"><ele>1841.2661</ele><time>2026-04-03T16:26:16.000Z</time></trkpt>
        <trkpt lat="29.560865" lon="103.344992"><ele>1842.8601</ele><time>2026-04-03T16:26:37.000Z</time></trkpt>
        <trkpt lat="29.560844" lon="103.344942"><ele>1845.1212</ele><time>2026-04-03T16:26:59.000Z</time></trkpt>
        <trkpt lat="29.560829" lon="103.344893"><ele>1845.2914</ele><time>2026-04-03T16:27:14.000Z</time></trkpt>
        <trkpt lat="29.560784" lon="103.344893"><ele>1850.0879</ele><time>2026-04-03T16:27:29.000Z</time></trkpt>
        <trkpt lat="29.560741" lon="103.344871"><ele>1856.125</ele><time>2026-04-03T16:28:03.000Z</time></trkpt>
        <trkpt lat="29.560735" lon="103.344819"><ele>1858.265</ele><time>2026-04-03T16:28:24.000Z</time></trkpt>
        <trkpt lat="29.560735" lon="103.344762"><ele>1859.6025</ele><time>2026-04-03T16:28:37.000Z</time></trkpt>
        <trkpt lat="29.560717" lon="103.344715"><ele>1860.766</ele><time>2026-04-03T16:28:51.000Z</time></trkpt>
        <trkpt lat="29.560683" lon="103.344676"><ele>1864.2095</ele><time>2026-04-03T16:29:07.000Z</time></trkpt>
        <trkpt lat="29.560621" lon="103.344684"><ele>1859.102</ele><time>2026-04-03T16:29:50.000Z</time></trkpt>
        <trkpt lat="29.56058" lon="103.344659"><ele>1879.8004</ele><time>2026-04-03T16:36:33.000Z</time></trkpt>
        <trkpt lat="29.560533" lon="103.344643"><ele>1881.6267</ele><time>2026-04-03T16:36:44.000Z</time></trkpt>
        <trkpt lat="29.560488" lon="103.344619"><ele>1885.9542</ele><time>2026-04-03T16:37:01.000Z</time></trkpt>
        <trkpt lat="29.560443" lon="103.344601"><ele>1885.1456</ele><time>2026-04-03T16:37:12.000Z</time></trkpt>
        <trkpt lat="29.560411" lon="103.344561"><ele>1886.7262</ele><time>2026-04-03T16:37:28.000Z</time></trkpt>
        <trkpt lat="29.560379" lon="103.344521"><ele>1891.8716</ele><time>2026-04-03T16:37:52.000Z</time></trkpt>
        <trkpt lat="29.560343" lon="103.344489"><ele>1892.1196</ele><time>2026-04-03T16:38:06.000Z</time></trkpt>
        <trkpt lat="29.560298" lon="103.344478"><ele>1899.54</ele><time>2026-04-03T16:38:23.000Z</time></trkpt>
        <trkpt lat="29.560254" lon="103.344447"><ele>1904.0262</ele><time>2026-04-03T16:38:39.000Z</time></trkpt>
        <trkpt lat="29.560226" lon="103.344402"><ele>1905.0437</ele><time>2026-04-03T16:38:53.000Z</time></trkpt>
        <trkpt lat="29.560216" lon="103.344349"><ele>1906.2483</ele><time>2026-04-03T16:39:06.000Z</time></trkpt>
        <trkpt lat="29.560224" lon="103.344291"><ele>1908.1743</ele><time>2026-04-03T16:39:23.000Z</time></trkpt>
        <trkpt lat="29.560193" lon="103.344238"><ele>1910.0016</ele><time>2026-04-03T16:39:45.000Z</time></trkpt>
        <trkpt lat="29.560147" lon="103.344237"><ele>1911.3888</ele><time>2026-04-03T16:39:53.000Z</time></trkpt>
        <trkpt lat="29.560104" lon="103.344216"><ele>1918.5979</ele><time>2026-04-03T16:40:22.000Z</time></trkpt>
        <trkpt lat="29.560107" lon="103.344164"><ele>1918.6455</ele><time>2026-04-03T16:40:36.000Z</time></trkpt>
        <trkpt lat="29.560118" lon="103.34411"><ele>1919.0311</ele><time>2026-04-03T16:40:52.000Z</time></trkpt>
        <trkpt lat="29.560085" lon="103.344075"><ele>1921.9363</ele><time>2026-04-03T16:41:05.000Z</time></trkpt>
        <trkpt lat="29.560072" lon="103.34402"><ele>1927.8807</ele><time>2026-04-03T16:41:42.000Z</time></trkpt>
        <trkpt lat="29.560095" lon="103.343967"><ele>1927.5801</ele><time>2026-04-03T16:41:51.000Z</time></trkpt>
        <trkpt lat="29.560081" lon="103.343917"><ele>1932.9816</ele><time>2026-04-03T16:42:19.000Z</time></trkpt>
        <trkpt lat="29.560051" lon="103.343876"><ele>1935.374</ele><time>2026-04-03T16:42:36.000Z</time></trkpt>
        <trkpt lat="29.560009" lon="103.343854"><ele>1939.6201</ele><time>2026-04-03T16:42:50.000Z</time></trkpt>
        <trkpt lat="29.559972" lon="103.343823"><ele>1940.5742</ele><time>2026-04-03T16:43:04.000Z</time></trkpt>
        <trkpt lat="29.55994" lon="103.343782"><ele>1944.2964</ele><time>2026-04-03T16:43:15.000Z</time></trkpt>
        <trkpt lat="29.559911" lon="103.343737"><ele>1946.3173</ele><time>2026-04-03T16:43:34.000Z</time></trkpt>
        <trkpt lat="29.559881" lon="103.343693"><ele>1952.4927</ele><time>2026-04-03T16:44:07.000Z</time></trkpt>
        <trkpt lat="29.559837" lon="103.343678"><ele>1951.5436</ele><time>2026-04-03T16:45:05.000Z</time></trkpt>
        <trkpt lat="29.559815" lon="103.34363"><ele>1956.1829</ele><time>2026-04-03T16:45:14.000Z</time></trkpt>
        <trkpt lat="29.559789" lon="103.343583"><ele>1959.9854</ele><time>2026-04-03T16:45:24.000Z</time></trkpt>
        <trkpt lat="29.559759" lon="103.343544"><ele>1960.5896</ele><time>2026-04-03T16:45:35.000Z</time></trkpt>
        <trkpt lat="29.559738" lon="103.343496"><ele>1961.4808</ele><time>2026-04-03T16:45:41.000Z</time></trkpt>
        <trkpt lat="29.559688" lon="103.34349"><ele>1965.5265</ele><time>2026-04-03T16:45:55.000Z</time></trkpt>
        <trkpt lat="29.559664" lon="103.343539"><ele>1964.8986</ele><time>2026-04-03T16:46:08.000Z</time></trkpt>
        <trkpt lat="29.559633" lon="103.343577"><ele>1969.4637</ele><time>2026-04-03T16:46:40.000Z</time></trkpt>
        <trkpt lat="29.559598" lon="103.343543"><ele>1975.5021</ele><time>2026-04-03T16:47:24.000Z</time></trkpt>
        <trkpt lat="29.559554" lon="103.343525"><ele>1976.9163</ele><time>2026-04-03T16:47:57.000Z</time></trkpt>
        <trkpt lat="29.559511" lon="103.343485"><ele>1979.3917</ele><time>2026-04-03T16:48:06.000Z</time></trkpt>
        <trkpt lat="29.55947" lon="103.343521"><ele>1980.3505</ele><time>2026-04-03T16:48:16.000Z</time></trkpt>
        <trkpt lat="29.559447" lon="103.34357"><ele>1982.73</ele><time>2026-04-03T16:48:26.000Z</time></trkpt>
        <trkpt lat="29.559403" lon="103.343556"><ele>1994.9772</ele><time>2026-04-03T16:49:06.000Z</time></trkpt>
        <trkpt lat="29.559358" lon="103.34356"><ele>1996.4385</ele><time>2026-04-03T16:49:13.000Z</time></trkpt>
        <trkpt lat="29.559316" lon="103.343587"><ele>1995.4985</ele><time>2026-04-03T16:49:25.000Z</time></trkpt>
        <trkpt lat="29.559284" lon="103.343625"><ele>1996.7605</ele><time>2026-04-03T16:49:41.000Z</time></trkpt>
        <trkpt lat="29.559269" lon="103.343675"><ele>2001.1449</ele><time>2026-04-03T16:49:55.000Z</time></trkpt>
        <trkpt lat="29.559249" lon="103.343722"><ele>2005.057</ele><time>2026-04-03T16:50:11.000Z</time></trkpt>
        <trkpt lat="29.559217" lon="103.343759"><ele>2005.4596</ele><time>2026-04-03T16:50:23.000Z</time></trkpt>
        <trkpt lat="29.559175" lon="103.343733"><ele>2005.0981</ele><time>2026-04-03T16:50:40.000Z</time></trkpt>
        <trkpt lat="29.559141" lon="103.343695"><ele>2005.903</ele><time>2026-04-03T16:51:01.000Z</time></trkpt>
        <trkpt lat="29.559111" lon="103.343653"><ele>2014.6022</ele><time>2026-04-03T16:51:33.000Z</time></trkpt>
        <trkpt lat="29.559072" lon="103.343619"><ele>2019.3368</ele><time>2026-04-03T16:52:01.000Z</time></trkpt>
        <trkpt lat="29.559034" lon="103.343648"><ele>2020.835</ele><time>2026-04-03T16:52:16.000Z</time></trkpt>
        <trkpt lat="29.55901" lon="103.343693"><ele>2024.3099</ele><time>2026-04-03T16:52:38.000Z</time></trkpt>
        <trkpt lat="29.558957" lon="103.3437"><ele>2028.727</ele><time>2026-04-03T16:52:54.000Z</time></trkpt>
        <trkpt lat="29.558934" lon="103.343754"><ele>2029.7084</ele><time>2026-04-03T16:53:02.000Z</time></trkpt>
        <trkpt lat="29.558927" lon="103.343806"><ele>2032.5254</ele><time>2026-04-03T16:53:08.000Z</time></trkpt>
        <trkpt lat="29.558937" lon="103.34387"><ele>2033.6068</ele><time>2026-04-03T16:53:13.000Z</time></trkpt>
        <trkpt lat="29.558949" lon="103.343927"><ele>2033.0406</ele><time>2026-04-03T16:53:19.000Z</time></trkpt>
        <trkpt lat="29.55896" lon="103.343982"><ele>2032.1211</ele><time>2026-04-03T16:53:24.000Z</time></trkpt>
        <trkpt lat="29.558976" lon="103.344039"><ele>2032.257</ele><time>2026-04-03T16:53:30.000Z</time></trkpt>
        <trkpt lat="29.558984" lon="103.344091"><ele>2033.1868</ele><time>2026-04-03T16:53:37.000Z</time></trkpt>
        <trkpt lat="29.558937" lon="103.344085"><ele>2035.1904</ele><time>2026-04-03T16:53:52.000Z</time></trkpt>
        <trkpt lat="29.558901" lon="103.344123"><ele>2031.828</ele><time>2026-04-03T16:54:17.000Z</time></trkpt>
        <trkpt lat="29.558881" lon="103.344173"><ele>2035.1516</ele><time>2026-04-03T16:54:31.000Z</time></trkpt>
        <trkpt lat="29.558883" lon="103.344225"><ele>2038.1477</ele><time>2026-04-03T16:54:44.000Z</time></trkpt>
        <trkpt lat="29.55887" lon="103.34428"><ele>2039.2102</ele><time>2026-04-03T16:54:54.000Z</time></trkpt>
        <trkpt lat="29.558829" lon="103.344304"><ele>2043.353</ele><time>2026-04-03T16:55:15.000Z</time></trkpt>
        <trkpt lat="29.558809" lon="103.344246"><ele>2044.313</ele><time>2026-04-03T16:55:21.000Z</time></trkpt>
        <trkpt lat="29.558782" lon="103.344202"><ele>2044.6198</ele><time>2026-04-03T16:55:32.000Z</time></trkpt>
        <trkpt lat="29.558733" lon="103.344197"><ele>2046.1354</ele><time>2026-04-03T16:55:45.000Z</time></trkpt>
        <trkpt lat="29.558688" lon="103.34419"><ele>2046.7452</ele><time>2026-04-03T16:55:53.000Z</time></trkpt>
        <trkpt lat="29.558641" lon="103.344183"><ele>2047.1886</ele><time>2026-04-03T16:56:00.000Z</time></trkpt>
        <trkpt lat="29.558595" lon="103.344172"><ele>2048.9473</ele><time>2026-04-03T16:56:15.000Z</time></trkpt>
        <trkpt lat="29.55855" lon="103.344149"><ele>2050.6648</ele><time>2026-04-03T16:56:24.000Z</time></trkpt>
        <trkpt lat="29.558507" lon="103.344124"><ele>2049.2668</ele><time>2026-04-03T16:56:38.000Z</time></trkpt>
        <trkpt lat="29.558461" lon="103.344115"><ele>2055.542</ele><time>2026-04-03T16:57:02.000Z</time></trkpt>
        <trkpt lat="29.558407" lon="103.344102"><ele>2056.6758</ele><time>2026-04-03T16:57:16.000Z</time></trkpt>
        <trkpt lat="29.558362" lon="103.344069"><ele>2061.9756</ele><time>2026-04-03T16:57:27.000Z</time></trkpt>
        <trkpt lat="29.558394" lon="103.344033"><ele>2060.7776</ele><time>2026-04-03T16:57:51.000Z</time></trkpt>
        <trkpt lat="29.558398" lon="103.344087"><ele>2059.761</ele><time>2026-04-03T16:58:30.000Z</time></trkpt>
        <trkpt lat="29.558352" lon="103.344111"><ele>2059.3735</ele><time>2026-04-03T16:58:40.000Z</time></trkpt>
        <trkpt lat="29.558309" lon="103.344086"><ele>2064.379</ele><time>2026-04-03T16:59:22.000Z</time></trkpt>
        <trkpt lat="29.558212" lon="103.344064"><ele>2065.718</ele><time>2026-04-03T16:59:33.000Z</time></trkpt>
        <trkpt lat="29.558187" lon="103.344009"><ele>2065.2097</ele><time>2026-04-03T16:59:37.000Z</time></trkpt>
        <trkpt lat="29.558141" lon="103.344034"><ele>2066.839</ele><time>2026-04-03T16:59:43.000Z</time></trkpt>
        <trkpt lat="29.558119" lon="103.344105"><ele>2067.3367</ele><time>2026-04-03T16:59:53.000Z</time></trkpt>
        <trkpt lat="29.558076" lon="103.344141"><ele>2066.684</ele><time>2026-04-03T16:59:58.000Z</time></trkpt>
        <trkpt lat="29.558041" lon="103.344179"><ele>2066.1167</ele><time>2026-04-03T17:00:01.000Z</time></trkpt>
        <trkpt lat="29.558077" lon="103.344214"><ele>2062.1929</ele><time>2026-04-03T17:00:04.000Z</time></trkpt>
        <trkpt lat="29.557903" lon="103.344336"><ele>2065.0427</ele><time>2026-04-03T17:00:08.000Z</time></trkpt>
        <trkpt lat="29.557881" lon="103.344386"><ele>2062.9353</ele><time>2026-04-03T17:00:13.000Z</time></trkpt>
        <trkpt lat="29.557818" lon="103.344014"><ele>2061.503</ele><time>2026-04-03T17:00:29.000Z</time></trkpt>
        <trkpt lat="29.557778" lon="103.343957"><ele>2059.7869</ele><time>2026-04-03T17:00:30.000Z</time></trkpt>
        <trkpt lat="29.557723" lon="103.343956"><ele>2058.5786</ele><time>2026-04-03T17:00:31.000Z</time></trkpt>
        <trkpt lat="29.557686" lon="103.343926"><ele>2061.1008</ele><time>2026-04-03T17:00:34.000Z</time></trkpt>
        <trkpt lat="29.557638" lon="103.343935"><ele>2058.8276</ele><time>2026-04-03T17:00:36.000Z</time></trkpt>
        <trkpt lat="29.557597" lon="103.343904"><ele>2060.0432</ele><time>2026-04-03T17:00:39.000Z</time></trkpt>
        <trkpt lat="29.55756" lon="103.343873"><ele>2058.4722</ele><time>2026-04-03T17:00:44.000Z</time></trkpt>
        <trkpt lat="29.557524" lon="103.343837"><ele>2056.6594</ele><time>2026-04-03T17:00:48.000Z</time></trkpt>
        <trkpt lat="29.557499" lon="103.343783"><ele>2056.9614</ele><time>2026-04-03T17:00:52.000Z</time></trkpt>
        <trkpt lat="29.557474" lon="103.343734"><ele>2058.0146</ele><time>2026-04-03T17:00:58.000Z</time></trkpt>
        <trkpt lat="29.557434" lon="103.343704"><ele>2060.71</ele><time>2026-04-03T17:01:02.000Z</time></trkpt>
        <trkpt lat="29.557374" lon="103.343684"><ele>2061.5774</ele><time>2026-04-03T17:01:05.000Z</time></trkpt>
        <trkpt lat="29.557332" lon="103.343662"><ele>2059.0593</ele><time>2026-04-03T17:01:10.000Z</time></trkpt>
        <trkpt lat="29.557292" lon="103.343634"><ele>2063.9858</ele><time>2026-04-03T17:01:32.000Z</time></trkpt>
        <trkpt lat="29.557248" lon="103.343618"><ele>2064.0356</ele><time>2026-04-03T17:01:46.000Z</time></trkpt>
        <trkpt lat="29.557201" lon="103.343604"><ele>2072.5876</ele><time>2026-04-03T17:02:35.000Z</time></trkpt>
        <trkpt lat="29.557184" lon="103.343552"><ele>2073.0767</ele><time>2026-04-03T17:02:44.000Z</time></trkpt>
        <trkpt lat="29.557152" lon="103.343591"><ele>2074.1038</ele><time>2026-04-03T17:03:00.000Z</time></trkpt>
        <trkpt lat="29.557112" lon="103.343616"><ele>2075.9534</ele><time>2026-04-03T17:03:16.000Z</time></trkpt>
        <trkpt lat="29.557065" lon="103.343629"><ele>2078.0684</ele><time>2026-04-03T17:03:28.000Z</time></trkpt>
        <trkpt lat="29.557016" lon="103.343645"><ele>2079.6116</ele><time>2026-04-03T17:03:40.000Z</time></trkpt>
        <trkpt lat="29.556971" lon="103.343656"><ele>2078.276</ele><time>2026-04-03T17:03:45.000Z</time></trkpt>
        <trkpt lat="29.55692" lon="103.343673"><ele>2077.9924</ele><time>2026-04-03T17:03:51.000Z</time></trkpt>
        <trkpt lat="29.55688" lon="103.343708"><ele>2081.8252</ele><time>2026-04-03T17:04:08.000Z</time></trkpt>
        <trkpt lat="29.556835" lon="103.343694"><ele>2082.0806</ele><time>2026-04-03T17:04:16.000Z</time></trkpt>
        <trkpt lat="29.556798" lon="103.343658"><ele>2086.4475</ele><time>2026-04-03T17:04:26.000Z</time></trkpt>
        <trkpt lat="29.556751" lon="103.343659"><ele>2089.93</ele><time>2026-04-03T17:04:39.000Z</time></trkpt>
        <trkpt lat="29.556705" lon="103.343681"><ele>2093.6008</ele><time>2026-04-03T17:04:49.000Z</time></trkpt>
        <trkpt lat="29.556665" lon="103.343704"><ele>2095.5156</ele><time>2026-04-03T17:05:09.000Z</time></trkpt>
        <trkpt lat="29.556625" lon="103.34373"><ele>2099.4697</ele><time>2026-04-03T17:05:29.000Z</time></trkpt>
        <trkpt lat="29.556594" lon="103.343769"><ele>2106.005</ele><time>2026-04-03T17:05:54.000Z</time></trkpt>
        <trkpt lat="29.556576" lon="103.343819"><ele>2106.732</ele><time>2026-04-03T17:06:09.000Z</time></trkpt>
        <trkpt lat="29.556588" lon="103.343872"><ele>2104.5957</ele><time>2026-04-03T17:06:25.000Z</time></trkpt>
        <trkpt lat="29.556553" lon="103.343906"><ele>2107.0732</ele><time>2026-04-03T17:06:48.000Z</time></trkpt>
        <trkpt lat="29.556551" lon="103.343962"><ele>2108.2393</ele><time>2026-04-03T17:07:02.000Z</time></trkpt>
        <trkpt lat="29.556547" lon="103.344014"><ele>2108.8384</ele><time>2026-04-03T17:07:12.000Z</time></trkpt>
        <trkpt lat="29.556521" lon="103.344059"><ele>2111.7659</ele><time>2026-04-03T17:07:24.000Z</time></trkpt>
        <trkpt lat="29.556481" lon="103.344092"><ele>2113.661</ele><time>2026-04-03T17:07:32.000Z</time></trkpt>
        <trkpt lat="29.556446" lon="103.344133"><ele>2117.5398</ele><time>2026-04-03T17:07:50.000Z</time></trkpt>
        <trkpt lat="29.556405" lon="103.344166"><ele>2121.1316</ele><time>2026-04-03T17:08:13.000Z</time></trkpt>
        <trkpt lat="29.556359" lon="103.34417"><ele>2123.7917</ele><time>2026-04-03T17:08:24.000Z</time></trkpt>
        <trkpt lat="29.556316" lon="103.344187"><ele>2124.63</ele><time>2026-04-03T17:08:37.000Z</time></trkpt>
        <trkpt lat="29.556285" lon="103.344226"><ele>2125.7642</ele><time>2026-04-03T17:08:49.000Z</time></trkpt>
        <trkpt lat="29.556247" lon="103.344262"><ele>2127.384</ele><time>2026-04-03T17:09:06.000Z</time></trkpt>
        <trkpt lat="29.55622" lon="103.344308"><ele>2129.8232</ele><time>2026-04-03T17:09:16.000Z</time></trkpt>
        <trkpt lat="29.556193" lon="103.344353"><ele>2130.7642</ele><time>2026-04-03T17:09:32.000Z</time></trkpt>
        <trkpt lat="29.556162" lon="103.344393"><ele>2131.6763</ele><time>2026-04-03T17:09:44.000Z</time></trkpt>
        <trkpt lat="29.556125" lon="103.344433"><ele>2135.1978</ele><time>2026-04-03T17:09:57.000Z</time></trkpt>
        <trkpt lat="29.556094" lon="103.344472"><ele>2137.19</ele><time>2026-04-03T17:10:06.000Z</time></trkpt>
        <trkpt lat="29.556063" lon="103.344511"><ele>2137.6584</ele><time>2026-04-03T17:10:17.000Z</time></trkpt>
        <trkpt lat="29.55602" lon="103.34454"><ele>2141.22</ele><time>2026-04-03T17:10:49.000Z</time></trkpt>
        <trkpt lat="29.556002" lon="103.344589"><ele>2144.5667</ele><time>2026-04-03T17:11:02.000Z</time></trkpt>
        <trkpt lat="29.555976" lon="103.344639"><ele>2143.74</ele><time>2026-04-03T17:11:17.000Z</time></trkpt>
        <trkpt lat="29.555996" lon="103.344685"><ele>2149.176</ele><time>2026-04-03T17:11:50.000Z</time></trkpt>
        <trkpt lat="29.555968" lon="103.344737"><ele>2150.1418</ele><time>2026-04-03T17:12:25.000Z</time></trkpt>
        <trkpt lat="29.555944" lon="103.344781"><ele>2149.2505</ele><time>2026-04-03T17:12:36.000Z</time></trkpt>
        <trkpt lat="29.555924" lon="103.344831"><ele>2148.743</ele><time>2026-04-03T17:12:46.000Z</time></trkpt>
        <trkpt lat="29.555899" lon="103.344887"><ele>2149.4353</ele><time>2026-04-03T17:12:55.000Z</time></trkpt>
        <trkpt lat="29.555889" lon="103.344941"><ele>2150.8447</ele><time>2026-04-03T17:13:02.000Z</time></trkpt>
        <trkpt lat="29.555844" lon="103.344962"><ele>2155.429</ele><time>2026-04-03T17:13:19.000Z</time></trkpt>
        <trkpt lat="29.555798" lon="103.34495"><ele>2155.928</ele><time>2026-04-03T17:13:33.000Z</time></trkpt>
        <trkpt lat="29.555753" lon="103.344933"><ele>2159.2292</ele><time>2026-04-03T17:13:49.000Z</time></trkpt>
        <trkpt lat="29.555712" lon="103.344901"><ele>2163.2825</ele><time>2026-04-03T17:14:01.000Z</time></trkpt>
        <trkpt lat="29.555667" lon="103.344888"><ele>2165.0483</ele><time>2026-04-03T17:14:15.000Z</time></trkpt>
        <trkpt lat="29.555621" lon="103.344889"><ele>2164.436</ele><time>2026-04-03T17:14:30.000Z</time></trkpt>
        <trkpt lat="29.555588" lon="103.34493"><ele>2168.906</ele><time>2026-04-03T17:14:50.000Z</time></trkpt>
        <trkpt lat="29.555543" lon="103.344962"><ele>2169.2092</ele><time>2026-04-03T17:15:07.000Z</time></trkpt>
        <trkpt lat="29.555515" lon="103.345004"><ele>2173.751</ele><time>2026-04-03T17:15:27.000Z</time></trkpt>
        <trkpt lat="29.555497" lon="103.345051"><ele>2173.611</ele><time>2026-04-03T17:15:42.000Z</time></trkpt>
        <trkpt lat="29.555484" lon="103.345101"><ele>2173.6443</ele><time>2026-04-03T17:16:22.000Z</time></trkpt>
        <trkpt lat="29.55544" lon="103.345121"><ele>2175.2288</ele><time>2026-04-03T17:16:42.000Z</time></trkpt>
        <trkpt lat="29.555397" lon="103.345094"><ele>2178.4004</ele><time>2026-04-03T17:16:55.000Z</time></trkpt>
        <trkpt lat="29.55537" lon="103.345047"><ele>2178.9766</ele><time>2026-04-03T17:17:04.000Z</time></trkpt>
        <trkpt lat="29.555346" lon="103.345003"><ele>2179.9702</ele><time>2026-04-03T17:17:10.000Z</time></trkpt>
        <trkpt lat="29.5553" lon="103.344985"><ele>2181.3298</ele><time>2026-04-03T17:17:17.000Z</time></trkpt>
        <trkpt lat="29.555252" lon="103.344988"><ele>2183.882</ele><time>2026-04-03T17:17:25.000Z</time></trkpt>
        <trkpt lat="29.55522" lon="103.345029"><ele>2187.4214</ele><time>2026-04-03T17:17:37.000Z</time></trkpt>
        <trkpt lat="29.555177" lon="103.345052"><ele>2187.0625</ele><time>2026-04-03T17:17:44.000Z</time></trkpt>
        <trkpt lat="29.555132" lon="103.345079"><ele>2186.7874</ele><time>2026-04-03T17:17:50.000Z</time></trkpt>
        <trkpt lat="29.555091" lon="103.345115"><ele>2188.25</ele><time>2026-04-03T17:17:56.000Z</time></trkpt>
        <trkpt lat="29.555045" lon="103.345121"><ele>2188.5925</ele><time>2026-04-03T17:18:04.000Z</time></trkpt>
        <trkpt lat="29.555001" lon="103.345135"><ele>2190.37</ele><time>2026-04-03T17:18:11.000Z</time></trkpt>
        <trkpt lat="29.554953" lon="103.345138"><ele>2190.4553</ele><time>2026-04-03T17:18:19.000Z</time></trkpt>
        <trkpt lat="29.554907" lon="103.345144"><ele>2194.63</ele><time>2026-04-03T17:18:32.000Z</time></trkpt>
        <trkpt lat="29.554865" lon="103.34517"><ele>2194.6877</ele><time>2026-04-03T17:18:48.000Z</time></trkpt>
        <trkpt lat="29.554822" lon="103.3452"><ele>2197.431</ele><time>2026-04-03T17:19:13.000Z</time></trkpt>
        <trkpt lat="29.554798" lon="103.345245"><ele>2201.8062</ele><time>2026-04-03T17:19:30.000Z</time></trkpt>
        <trkpt lat="29.554758" lon="103.34527"><ele>2208.1243</ele><time>2026-04-03T17:19:52.000Z</time></trkpt>
        <trkpt lat="29.554708" lon="103.345286"><ele>2209.69</ele><time>2026-04-03T17:20:02.000Z</time></trkpt>
        <trkpt lat="29.554662" lon="103.345292"><ele>2212.1284</ele><time>2026-04-03T17:20:14.000Z</time></trkpt>
        <trkpt lat="29.554613" lon="103.345298"><ele>2215.5444</ele><time>2026-04-03T17:20:32.000Z</time></trkpt>
        <trkpt lat="29.554568" lon="103.345314"><ele>2217.675</ele><time>2026-04-03T17:20:46.000Z</time></trkpt>
        <trkpt lat="29.554521" lon="103.345323"><ele>2219.0576</ele><time>2026-04-03T17:21:02.000Z</time></trkpt>
        <trkpt lat="29.554472" lon="103.345325"><ele>2221.068</ele><time>2026-04-03T17:21:16.000Z</time></trkpt>
        <trkpt lat="29.554423" lon="103.34533"><ele>2224.5476</ele><time>2026-04-03T17:21:31.000Z</time></trkpt>
        <trkpt lat="29.55438" lon="103.345346"><ele>2225.97</ele><time>2026-04-03T17:21:43.000Z</time></trkpt>
        <trkpt lat="29.554335" lon="103.345356"><ele>2227.2795</ele><time>2026-04-03T17:21:55.000Z</time></trkpt>
        <trkpt lat="29.554291" lon="103.345369"><ele>2230.1204</ele><time>2026-04-03T17:22:10.000Z</time></trkpt>
        <trkpt lat="29.554246" lon="103.345399"><ele>2232.543</ele><time>2026-04-03T17:22:31.000Z</time></trkpt>
        <trkpt lat="29.554197" lon="103.345404"><ele>2237.7021</ele><time>2026-04-03T17:22:52.000Z</time></trkpt>
        <trkpt lat="29.55415" lon="103.345414"><ele>2239.11</ele><time>2026-04-03T17:23:10.000Z</time></trkpt>
        <trkpt lat="29.554098" lon="103.345426"><ele>2241.587</ele><time>2026-04-03T17:23:27.000Z</time></trkpt>
        <trkpt lat="29.554052" lon="103.345413"><ele>2240.723</ele><time>2026-04-03T17:23:38.000Z</time></trkpt>
        <trkpt lat="29.554003" lon="103.345403"><ele>2240.1643</ele><time>2026-04-03T17:23:51.000Z</time></trkpt>
        <trkpt lat="29.55396" lon="103.345377"><ele>2240.4417</ele><time>2026-04-03T17:24:02.000Z</time></trkpt>
        <trkpt lat="29.553923" lon="103.345342"><ele>2243.5828</ele><time>2026-04-03T17:24:12.000Z</time></trkpt>
        <trkpt lat="29.553876" lon="103.345336"><ele>2243.8345</ele><time>2026-04-03T17:24:25.000Z</time></trkpt>
        <trkpt lat="29.553829" lon="103.345325"><ele>2244.4336</ele><time>2026-04-03T17:24:34.000Z</time></trkpt>
        <trkpt lat="29.553781" lon="103.345308"><ele>2247.1292</ele><time>2026-04-03T17:24:46.000Z</time></trkpt>
        <trkpt lat="29.553738" lon="103.34529"><ele>2247.6045</ele><time>2026-04-03T17:24:56.000Z</time></trkpt>
        <trkpt lat="29.553688" lon="103.345277"><ele>2250.8232</ele><time>2026-04-03T17:25:10.000Z</time></trkpt>
        <trkpt lat="29.553633" lon="103.345286"><ele>2250.4873</ele><time>2026-04-03T17:25:18.000Z</time></trkpt>
        <trkpt lat="29.553587" lon="103.345285"><ele>2256.548</ele><time>2026-04-03T17:25:32.000Z</time></trkpt>
        <trkpt lat="29.553541" lon="103.345281"><ele>2256.8096</ele><time>2026-04-03T17:25:40.000Z</time></trkpt>
        <trkpt lat="29.553495" lon="103.345289"><ele>2255.8794</ele><time>2026-04-03T17:25:46.000Z</time></trkpt>
        <trkpt lat="29.553445" lon="103.345293"><ele>2256.6863</ele><time>2026-04-03T17:25:57.000Z</time></trkpt>
        <trkpt lat="29.553401" lon="103.34531"><ele>2257.4924</ele><time>2026-04-03T17:26:11.000Z</time></trkpt>
        <trkpt lat="29.553356" lon="103.345327"><ele>2257.923</ele><time>2026-04-03T17:26:18.000Z</time></trkpt>
        <trkpt lat="29.553307" lon="103.345328"><ele>2258.4849</ele><time>2026-04-03T17:26:23.000Z</time></trkpt>
        <trkpt lat="29.553255" lon="103.345335"><ele>2258.0552</ele><time>2026-04-03T17:26:30.000Z</time></trkpt>
        <trkpt lat="29.553207" lon="103.345344"><ele>2256.4988</ele><time>2026-04-03T17:26:34.000Z</time></trkpt>
        <trkpt lat="29.553147" lon="103.345347"><ele>2257.7834</ele><time>2026-04-03T17:26:40.000Z</time></trkpt>
        <trkpt lat="29.553096" lon="103.345342"><ele>2256.193</ele><time>2026-04-03T17:26:44.000Z</time></trkpt>
        <trkpt lat="29.553045" lon="103.345338"><ele>2258.4553</ele><time>2026-04-03T17:26:48.000Z</time></trkpt>
        <trkpt lat="29.552996" lon="103.345336"><ele>2260.6174</ele><time>2026-04-03T17:26:53.000Z</time></trkpt>
        <trkpt lat="29.552954" lon="103.345356"><ele>2260.4675</ele><time>2026-04-03T17:26:58.000Z</time></trkpt>
        <trkpt lat="29.552907" lon="103.345358"><ele>2260.9897</ele><time>2026-04-03T17:27:03.000Z</time></trkpt>
        <trkpt lat="29.55285" lon="103.345356"><ele>2263.3706</ele><time>2026-04-03T17:27:09.000Z</time></trkpt>
        <trkpt lat="29.552804" lon="103.345356"><ele>2264.0764</ele><time>2026-04-03T17:27:14.000Z</time></trkpt>
        <trkpt lat="29.552757" lon="103.345356"><ele>2268.1726</ele><time>2026-04-03T17:27:23.000Z</time></trkpt>
        <trkpt lat="29.552708" lon="103.345363"><ele>2266.5566</ele><time>2026-04-03T17:27:29.000Z</time></trkpt>
        <trkpt lat="29.552651" lon="103.345373"><ele>2264.659</ele><time>2026-04-03T17:27:36.000Z</time></trkpt>
        <trkpt lat="29.552609" lon="103.345392"><ele>2263.0215</ele><time>2026-04-03T17:27:41.000Z</time></trkpt>
        <trkpt lat="29.552557" lon="103.345407"><ele>2259.5515</ele><time>2026-04-03T17:27:47.000Z</time></trkpt>
        <trkpt lat="29.552511" lon="103.345405"><ele>2259.5303</ele><time>2026-04-03T17:27:51.000Z</time></trkpt>
        <trkpt lat="29.552467" lon="103.34542"><ele>2256.4067</ele><time>2026-04-03T17:27:58.000Z</time></trkpt>
        <trkpt lat="29.552446" lon="103.345372"><ele>2261.1243</ele><time>2026-04-03T17:28:05.000Z</time></trkpt>
        <trkpt lat="29.552478" lon="103.345325"><ele>2261.8687</ele><time>2026-04-03T17:28:11.000Z</time></trkpt>
        <trkpt lat="29.552489" lon="103.345271"><ele>2262.0085</ele><time>2026-04-03T17:28:24.000Z</time></trkpt>
        <trkpt lat="29.552446" lon="103.345242"><ele>2262.274</ele><time>2026-04-03T17:28:30.000Z</time></trkpt>
        <trkpt lat="29.552419" lon="103.345196"><ele>2262.6807</ele><time>2026-04-03T17:28:35.000Z</time></trkpt>
        <trkpt lat="29.552366" lon="103.345186"><ele>2262.158</ele><time>2026-04-03T17:28:39.000Z</time></trkpt>
        <trkpt lat="29.552322" lon="103.34517"><ele>2263.1135</ele><time>2026-04-03T17:28:43.000Z</time></trkpt>
        <trkpt lat="29.552267" lon="103.345142"><ele>2265.2656</ele><time>2026-04-03T17:28:47.000Z</time></trkpt>
        <trkpt lat="29.552221" lon="103.345125"><ele>2261.65</ele><time>2026-04-03T17:28:51.000Z</time></trkpt>
        <trkpt lat="29.552168" lon="103.34511"><ele>2263.1816</ele><time>2026-04-03T17:28:57.000Z</time></trkpt>
        <trkpt lat="29.552119" lon="103.345081"><ele>2265.7078</ele><time>2026-04-03T17:29:01.000Z</time></trkpt>
        <trkpt lat="29.552079" lon="103.345053"><ele>2267.1619</ele><time>2026-04-03T17:29:19.000Z</time></trkpt>
        <trkpt lat="29.552035" lon="103.34503"><ele>2266.446</ele><time>2026-04-03T17:29:24.000Z</time></trkpt>
        <trkpt lat="29.552007" lon="103.344984"><ele>2260.9636</ele><time>2026-04-03T17:29:43.000Z</time></trkpt>
        <trkpt lat="29.552032" lon="103.344927"><ele>2261.1506</ele><time>2026-04-03T17:29:49.000Z</time></trkpt>
        <trkpt lat="29.552008" lon="103.344878"><ele>2259.7053</ele><time>2026-04-03T17:29:53.000Z</time></trkpt>
        <trkpt lat="29.551976" lon="103.344835"><ele>2259.5437</ele><time>2026-04-03T17:29:56.000Z</time></trkpt>
        <trkpt lat="29.551944" lon="103.344788"><ele>2257.4424</ele><time>2026-04-03T17:30:02.000Z</time></trkpt>
        <trkpt lat="29.551901" lon="103.344732"><ele>2255.5596</ele><time>2026-04-03T17:30:07.000Z</time></trkpt>
        <trkpt lat="29.551864" lon="103.344691"><ele>2254.705</ele><time>2026-04-03T17:30:10.000Z</time></trkpt>
        <trkpt lat="29.551828" lon="103.344648"><ele>2256.3425</ele><time>2026-04-03T17:30:15.000Z</time></trkpt>
        <trkpt lat="29.551793" lon="103.34461"><ele>2255.6108</ele><time>2026-04-03T17:30:19.000Z</time></trkpt>
        <trkpt lat="29.551766" lon="103.344558"><ele>2255.2021</ele><time>2026-04-03T17:30:32.000Z</time></trkpt>
        <trkpt lat="29.551739" lon="103.344516"><ele>2254.4539</ele><time>2026-04-03T17:30:36.000Z</time></trkpt>
        <trkpt lat="29.551712" lon="103.344471"><ele>2256.7444</ele><time>2026-04-03T17:30:44.000Z</time></trkpt>
        <trkpt lat="29.551677" lon="103.344432"><ele>2256.8108</ele><time>2026-04-03T17:30:52.000Z</time></trkpt>
        <trkpt lat="29.55164" lon="103.34439"><ele>2259.3062</ele><time>2026-04-03T17:31:09.000Z</time></trkpt>
        <trkpt lat="29.551626" lon="103.344336"><ele>2259.4683</ele><time>2026-04-03T17:31:16.000Z</time></trkpt>
        <trkpt lat="29.551581" lon="103.344313"><ele>2257.6958</ele><time>2026-04-03T17:31:19.000Z</time></trkpt>
        <trkpt lat="29.551552" lon="103.344267"><ele>2256.3105</ele><time>2026-04-03T17:31:24.000Z</time></trkpt>
        <trkpt lat="29.551507" lon="103.344239"><ele>2253.1184</ele><time>2026-04-03T17:31:29.000Z</time></trkpt>
        <trkpt lat="29.551463" lon="103.344209"><ele>2254.6277</ele><time>2026-04-03T17:31:34.000Z</time></trkpt>
        <trkpt lat="29.551416" lon="103.344195"><ele>2252.1553</ele><time>2026-04-03T17:31:38.000Z</time></trkpt>
        <trkpt lat="29.55136" lon="103.344184"><ele>2249.1294</ele><time>2026-04-03T17:31:43.000Z</time></trkpt>
        <trkpt lat="29.551314" lon="103.344173"><ele>2247.266</ele><time>2026-04-03T17:31:49.000Z</time></trkpt>
        <trkpt lat="29.551262" lon="103.344154"><ele>2245.906</ele><time>2026-04-03T17:31:53.000Z</time></trkpt>
        <trkpt lat="29.551212" lon="103.344165"><ele>2244.686</ele><time>2026-04-03T17:31:58.000Z</time></trkpt>
        <trkpt lat="29.551165" lon="103.344158"><ele>2245.2568</ele><time>2026-04-03T17:32:01.000Z</time></trkpt>
        <trkpt lat="29.551118" lon="103.344158"><ele>2245.3545</ele><time>2026-04-03T17:32:05.000Z</time></trkpt>
        <trkpt lat="29.551067" lon="103.344154"><ele>2244.221</ele><time>2026-04-03T17:32:10.000Z</time></trkpt>
        <trkpt lat="29.551023" lon="103.344144"><ele>2247.098</ele><time>2026-04-03T17:32:18.000Z</time></trkpt>
        <trkpt lat="29.55099" lon="103.344109"><ele>2248.4934</ele><time>2026-04-03T17:32:22.000Z</time></trkpt>
        <trkpt lat="29.550934" lon="103.344109"><ele>2248.9866</ele><time>2026-04-03T17:32:26.000Z</time></trkpt>
        <trkpt lat="29.550887" lon="103.344114"><ele>2246.2886</ele><time>2026-04-03T17:32:31.000Z</time></trkpt>
        <trkpt lat="29.550836" lon="103.344106"><ele>2245.1868</ele><time>2026-04-03T17:32:35.000Z</time></trkpt>
        <trkpt lat="29.550783" lon="103.344082"><ele>2244.56</ele><time>2026-04-03T17:32:41.000Z</time></trkpt>
        <trkpt lat="29.550756" lon="103.344037"><ele>2244.941</ele><time>2026-04-03T17:32:46.000Z</time></trkpt>
        <trkpt lat="29.550755" lon="103.34398"><ele>2246.9868</ele><time>2026-04-03T17:32:58.000Z</time></trkpt>
        <trkpt lat="29.550724" lon="103.343941"><ele>2249.1414</ele><time>2026-04-03T17:33:07.000Z</time></trkpt>
        <trkpt lat="29.550676" lon="103.343928"><ele>2250.5513</ele><time>2026-04-03T17:33:13.000Z</time></trkpt>
        <trkpt lat="29.550629" lon="103.343905"><ele>2250.8372</ele><time>2026-04-03T17:33:18.000Z</time></trkpt>
        <trkpt lat="29.550591" lon="103.343869"><ele>2250.914</ele><time>2026-04-03T17:33:23.000Z</time></trkpt>
        <trkpt lat="29.550559" lon="103.343828"><ele>2251.2146</ele><time>2026-04-03T17:33:27.000Z</time></trkpt>
        <trkpt lat="29.550532" lon="103.343775"><ele>2252.6763</ele><time>2026-04-03T17:33:32.000Z</time></trkpt>
        <trkpt lat="29.550503" lon="103.343728"><ele>2251.343</ele><time>2026-04-03T17:33:37.000Z</time></trkpt>
        <trkpt lat="29.550461" lon="103.343696"><ele>2251.9207</ele><time>2026-04-03T17:33:42.000Z</time></trkpt>
        <trkpt lat="29.550422" lon="103.34366"><ele>2250.2668</ele><time>2026-04-03T17:33:48.000Z</time></trkpt>
        <trkpt lat="29.550391" lon="103.34362"><ele>2252.3923</ele><time>2026-04-03T17:33:53.000Z</time></trkpt>
        <trkpt lat="29.550357" lon="103.343585"><ele>2251.9353</ele><time>2026-04-03T17:33:58.000Z</time></trkpt>
        <trkpt lat="29.550329" lon="103.343534"><ele>2251.311</ele><time>2026-04-03T17:34:04.000Z</time></trkpt>
        <trkpt lat="29.550305" lon="103.343474"><ele>2250.7424</ele><time>2026-04-03T17:34:10.000Z</time></trkpt>
        <trkpt lat="29.550283" lon="103.343419"><ele>2249.7734</ele><time>2026-04-03T17:34:15.000Z</time></trkpt>
        <trkpt lat="29.550244" lon="103.343377"><ele>2248.8987</ele><time>2026-04-03T17:34:22.000Z</time></trkpt>
        <trkpt lat="29.55022" lon="103.343328"><ele>2249.8494</ele><time>2026-04-03T17:34:27.000Z</time></trkpt>
        <trkpt lat="29.550186" lon="103.343282"><ele>2250.6597</ele><time>2026-04-03T17:34:31.000Z</time></trkpt>
        <trkpt lat="29.550149" lon="103.343248"><ele>2251.7307</ele><time>2026-04-03T17:34:35.000Z</time></trkpt>
        <trkpt lat="29.550114" lon="103.343214"><ele>2253.1724</ele><time>2026-04-03T17:34:40.000Z</time></trkpt>
        <trkpt lat="29.550088" lon="103.343161"><ele>2256.9197</ele><time>2026-04-03T17:34:48.000Z</time></trkpt>
        <trkpt lat="29.550047" lon="103.343131"><ele>2254.8281</ele><time>2026-04-03T17:34:55.000Z</time></trkpt>
        <trkpt lat="29.550013" lon="103.343093"><ele>2254.0828</ele><time>2026-04-03T17:35:02.000Z</time></trkpt>
        <trkpt lat="29.54999" lon="103.343044"><ele>2254.995</ele><time>2026-04-03T17:35:08.000Z</time></trkpt>
        <trkpt lat="29.549964" lon="103.342992"><ele>2255.2053</ele><time>2026-04-03T17:35:14.000Z</time></trkpt>
        <trkpt lat="29.549939" lon="103.342943"><ele>2256.0542</ele><time>2026-04-03T17:35:19.000Z</time></trkpt>
        <trkpt lat="29.549906" lon="103.342899"><ele>2256.834</ele><time>2026-04-03T17:35:26.000Z</time></trkpt>
        <trkpt lat="29.54989" lon="103.342849"><ele>2257.327</ele><time>2026-04-03T17:35:33.000Z</time></trkpt>
        <trkpt lat="29.549864" lon="103.3428"><ele>2257.4185</ele><time>2026-04-03T17:35:41.000Z</time></trkpt>
        <trkpt lat="29.549839" lon="103.342756"><ele>2256.514</ele><time>2026-04-03T17:35:46.000Z</time></trkpt>
        <trkpt lat="29.549818" lon="103.34271"><ele>2256.6404</ele><time>2026-04-03T17:35:51.000Z</time></trkpt>
        <trkpt lat="29.549792" lon="103.342663"><ele>2257.3853</ele><time>2026-04-03T17:35:57.000Z</time></trkpt>
        <trkpt lat="29.549759" lon="103.342624"><ele>2257.6978</ele><time>2026-04-03T17:36:01.000Z</time></trkpt>
        <trkpt lat="29.549722" lon="103.342585"><ele>2258.321</ele><time>2026-04-03T17:36:05.000Z</time></trkpt>
        <trkpt lat="29.549685" lon="103.342542"><ele>2256.9102</ele><time>2026-04-03T17:36:10.000Z</time></trkpt>
        <trkpt lat="29.549648" lon="103.342503"><ele>2257.13</ele><time>2026-04-03T17:36:15.000Z</time></trkpt>
        <trkpt lat="29.549615" lon="103.342465"><ele>2256.9087</ele><time>2026-04-03T17:36:21.000Z</time></trkpt>
        <trkpt lat="29.549581" lon="103.342424"><ele>2257.478</ele><time>2026-04-03T17:36:27.000Z</time></trkpt>
        <trkpt lat="29.549544" lon="103.34239"><ele>2257.468</ele><time>2026-04-03T17:36:33.000Z</time></trkpt>
        <trkpt lat="29.54951" lon="103.34234"><ele>2258.2122</ele><time>2026-04-03T17:36:40.000Z</time></trkpt>
        <trkpt lat="29.549467" lon="103.342308"><ele>2258.1155</ele><time>2026-04-03T17:36:45.000Z</time></trkpt>
        <trkpt lat="29.549439" lon="103.342265"><ele>2258.3196</ele><time>2026-04-03T17:36:49.000Z</time></trkpt>
        <trkpt lat="29.549408" lon="103.342221"><ele>2258.6035</ele><time>2026-04-03T17:36:54.000Z</time></trkpt>
        <trkpt lat="29.549387" lon="103.34217"><ele>2258.3423</ele><time>2026-04-03T17:37:00.000Z</time></trkpt>
        <trkpt lat="29.549431" lon="103.342147"><ele>2258.1423</ele><time>2026-04-03T17:37:10.000Z</time></trkpt>
        <trkpt lat="29.549476" lon="103.342121"><ele>2256.1628</ele><time>2026-04-03T17:37:20.000Z</time></trkpt>
        <trkpt lat="29.549524" lon="103.342112"><ele>2253.113</ele><time>2026-04-03T17:37:28.000Z</time></trkpt>
        <trkpt lat="29.549558" lon="103.342154"><ele>2250.0144</ele><time>2026-04-03T17:37:34.000Z</time></trkpt>
        <trkpt lat="29.549595" lon="103.342085"><ele>2275.2405</ele><time>2026-04-03T17:38:40.000Z</time></trkpt>
        <trkpt lat="29.549578" lon="103.342143"><ele>2276.289</ele><time>2026-04-03T17:39:13.000Z</time></trkpt>
        <trkpt lat="29.54954" lon="103.342076"><ele>2269.1267</ele><time>2026-04-03T17:39:16.000Z</time></trkpt>
        <trkpt lat="29.549493" lon="103.342071"><ele>2256.6785</ele><time>2026-04-03T17:39:35.000Z</time></trkpt>
        <trkpt lat="29.549454" lon="103.342103"><ele>2257.469</ele><time>2026-04-03T17:39:45.000Z</time></trkpt>
        <trkpt lat="29.549408" lon="103.342114"><ele>2257.3167</ele><time>2026-04-03T17:39:54.000Z</time></trkpt>
        <trkpt lat="29.549374" lon="103.34208"><ele>2259.5906</ele><time>2026-04-03T17:40:09.000Z</time></trkpt>
        <trkpt lat="29.549363" lon="103.342024"><ele>2261.9512</ele><time>2026-04-03T17:40:16.000Z</time></trkpt>
        <trkpt lat="29.549347" lon="103.341966"><ele>2261.6814</ele><time>2026-04-03T17:40:22.000Z</time></trkpt>
        <trkpt lat="29.54933" lon="103.341905"><ele>2264.882</ele><time>2026-04-03T17:40:34.000Z</time></trkpt>
        <trkpt lat="29.54931" lon="103.341853"><ele>2264.0361</ele><time>2026-04-03T17:40:41.000Z</time></trkpt>
        <trkpt lat="29.549281" lon="103.341798"><ele>2266.1965</ele><time>2026-04-03T17:40:46.000Z</time></trkpt>
        <trkpt lat="29.54927" lon="103.341744"><ele>2267.7898</ele><time>2026-04-03T17:40:53.000Z</time></trkpt>
        <trkpt lat="29.549254" lon="103.341693"><ele>2266.0051</ele><time>2026-04-03T17:40:59.000Z</time></trkpt>
        <trkpt lat="29.549257" lon="103.341637"><ele>2265.4817</ele><time>2026-04-03T17:41:04.000Z</time></trkpt>
        <trkpt lat="29.549261" lon="103.341569"><ele>2263.5928</ele><time>2026-04-03T17:41:11.000Z</time></trkpt>
        <trkpt lat="29.549268" lon="103.341517"><ele>2264.432</ele><time>2026-04-03T17:41:19.000Z</time></trkpt>
        <trkpt lat="29.549267" lon="103.341465"><ele>2265.4414</ele><time>2026-04-03T17:41:29.000Z</time></trkpt>
        <trkpt lat="29.549251" lon="103.341413"><ele>2267.5283</ele><time>2026-04-03T17:41:45.000Z</time></trkpt>
        <trkpt lat="29.549212" lon="103.341384"><ele>2268.495</ele><time>2026-04-03T17:41:56.000Z</time></trkpt>
        <trkpt lat="29.549175" lon="103.34135"><ele>2268.5742</ele><time>2026-04-03T17:42:16.000Z</time></trkpt>
        <trkpt lat="29.549139" lon="103.341313"><ele>2268.3167</ele><time>2026-04-03T17:42:33.000Z</time></trkpt>
        <trkpt lat="29.549131" lon="103.341259"><ele>2271.0151</ele><time>2026-04-03T17:42:43.000Z</time></trkpt>
        <trkpt lat="29.54911" lon="103.341209"><ele>2272.2551</ele><time>2026-04-03T17:43:14.000Z</time></trkpt>
        <trkpt lat="29.549067" lon="103.341182"><ele>2270.85</ele><time>2026-04-03T17:43:24.000Z</time></trkpt>
        <trkpt lat="29.549015" lon="103.341152"><ele>2271.6062</ele><time>2026-04-03T17:43:29.000Z</time></trkpt>
        <trkpt lat="29.54897" lon="103.341132"><ele>2270.998</ele><time>2026-04-03T17:43:35.000Z</time></trkpt>
        <trkpt lat="29.548918" lon="103.341136"><ele>2270.2346</ele><time>2026-04-03T17:43:44.000Z</time></trkpt>
        <trkpt lat="29.548874" lon="103.34116"><ele>2278.5754</ele><time>2026-04-03T17:44:04.000Z</time></trkpt>
        <trkpt lat="29.548827" lon="103.341157"><ele>2282.0618</ele><time>2026-04-03T17:44:26.000Z</time></trkpt>
        <trkpt lat="29.548782" lon="103.341169"><ele>2285.2915</ele><time>2026-04-03T17:44:34.000Z</time></trkpt>
        <trkpt lat="29.548737" lon="103.341184"><ele>2290.0823</ele><time>2026-04-03T17:44:55.000Z</time></trkpt>
        <trkpt lat="29.548686" lon="103.341185"><ele>2290.6711</ele><time>2026-04-03T17:45:06.000Z</time></trkpt>
        <trkpt lat="29.548642" lon="103.3412"><ele>2291.1401</ele><time>2026-04-03T17:45:18.000Z</time></trkpt>
        <trkpt lat="29.548594" lon="103.341208"><ele>2292.6875</ele><time>2026-04-03T17:45:30.000Z</time></trkpt>
        <trkpt lat="29.548546" lon="103.341209"><ele>2294.7864</ele><time>2026-04-03T17:45:45.000Z</time></trkpt>
        <trkpt lat="29.548503" lon="103.341228"><ele>2296.8157</ele><time>2026-04-03T17:45:59.000Z</time></trkpt>
        <trkpt lat="29.548459" lon="103.341249"><ele>2298.5603</ele><time>2026-04-03T17:46:12.000Z</time></trkpt>
        <trkpt lat="29.548414" lon="103.341242"><ele>2305.1333</ele><time>2026-04-03T17:46:38.000Z</time></trkpt>
        <trkpt lat="29.548358" lon="103.34123"><ele>2305.419</ele><time>2026-04-03T17:46:55.000Z</time></trkpt>
        <trkpt lat="29.548315" lon="103.341212"><ele>2306.228</ele><time>2026-04-03T17:47:04.000Z</time></trkpt>
        <trkpt lat="29.548267" lon="103.341211"><ele>2308.9998</ele><time>2026-04-03T17:47:16.000Z</time></trkpt>
        <trkpt lat="29.548217" lon="103.341203"><ele>2311.315</ele><time>2026-04-03T17:47:28.000Z</time></trkpt>
        <trkpt lat="29.548161" lon="103.341197"><ele>2312.6167</ele><time>2026-04-03T17:47:35.000Z</time></trkpt>
        <trkpt lat="29.548114" lon="103.341199"><ele>2311.8</ele><time>2026-04-03T17:47:43.000Z</time></trkpt>
        <trkpt lat="29.548075" lon="103.341228"><ele>2313.7163</ele><time>2026-04-03T17:47:55.000Z</time></trkpt>
        <trkpt lat="29.548026" lon="103.341221"><ele>2318.3398</ele><time>2026-04-03T17:48:49.000Z</time></trkpt>
        <trkpt lat="29.54798" lon="103.341222"><ele>2315.8674</ele><time>2026-04-03T17:49:36.000Z</time></trkpt>
        <trkpt lat="29.547932" lon="103.341208"><ele>2315.9543</ele><time>2026-04-03T17:49:42.000Z</time></trkpt>
        <trkpt lat="29.547894" lon="103.341178"><ele>2318.8884</ele><time>2026-04-03T17:49:50.000Z</time></trkpt>
        <trkpt lat="29.547844" lon="103.341158"><ele>2319.1663</ele><time>2026-04-03T17:49:58.000Z</time></trkpt>
        <trkpt lat="29.547798" lon="103.341134"><ele>2320.365</ele><time>2026-04-03T17:50:05.000Z</time></trkpt>
        <trkpt lat="29.547751" lon="103.341115"><ele>2321.2722</ele><time>2026-04-03T17:50:13.000Z</time></trkpt>
        <trkpt lat="29.547707" lon="103.341086"><ele>2323.753</ele><time>2026-04-03T17:50:21.000Z</time></trkpt>
        <trkpt lat="29.547663" lon="103.341069"><ele>2324.3342</ele><time>2026-04-03T17:50:29.000Z</time></trkpt>
        <trkpt lat="29.547613" lon="103.341078"><ele>2326.0312</ele><time>2026-04-03T17:50:40.000Z</time></trkpt>
        <trkpt lat="29.547568" lon="103.341058"><ele>2328.0916</ele><time>2026-04-03T17:50:51.000Z</time></trkpt>
        <trkpt lat="29.547522" lon="103.341045"><ele>2330.3323</ele><time>2026-04-03T17:51:04.000Z</time></trkpt>
        <trkpt lat="29.547482" lon="103.34102"><ele>2332.5803</ele><time>2026-04-03T17:51:15.000Z</time></trkpt>
        <trkpt lat="29.547441" lon="103.340997"><ele>2332.7258</ele><time>2026-04-03T17:51:27.000Z</time></trkpt>
        <trkpt lat="29.547423" lon="103.340948"><ele>2330.661</ele><time>2026-04-03T17:51:40.000Z</time></trkpt>
        <trkpt lat="29.547415" lon="103.340892"><ele>2328.5073</ele><time>2026-04-03T17:51:49.000Z</time></trkpt>
        <trkpt lat="29.547394" lon="103.340845"><ele>2326.471</ele><time>2026-04-03T17:51:54.000Z</time></trkpt>
        <trkpt lat="29.547374" lon="103.340797"><ele>2327.6414</ele><time>2026-04-03T17:52:00.000Z</time></trkpt>
        <trkpt lat="29.547357" lon="103.340743"><ele>2329.1838</ele><time>2026-04-03T17:52:10.000Z</time></trkpt>
        <trkpt lat="29.54733" lon="103.340692"><ele>2330.056</ele><time>2026-04-03T17:52:17.000Z</time></trkpt>
        <trkpt lat="29.54733" lon="103.34064"><ele>2332.3406</ele><time>2026-04-03T17:52:30.000Z</time></trkpt>
        <trkpt lat="29.547327" lon="103.340588"><ele>2331.9</ele><time>2026-04-03T17:52:42.000Z</time></trkpt>
        <trkpt lat="29.547316" lon="103.340534"><ele>2336.2444</ele><time>2026-04-03T17:52:51.000Z</time></trkpt>
        <trkpt lat="29.547288" lon="103.340492"><ele>2336.8337</ele><time>2026-04-03T17:53:04.000Z</time></trkpt>
        <trkpt lat="29.547251" lon="103.340452"><ele>2332.9358</ele><time>2026-04-03T17:53:14.000Z</time></trkpt>
        <trkpt lat="29.547229" lon="103.3404"><ele>2333.5818</ele><time>2026-04-03T17:53:23.000Z</time></trkpt>
        <trkpt lat="29.547263" lon="103.340358"><ele>2339.4678</ele><time>2026-04-03T17:53:36.000Z</time></trkpt>
        <trkpt lat="29.547262" lon="103.340301"><ele>2343.1482</ele><time>2026-04-03T17:54:02.000Z</time></trkpt>
        <trkpt lat="29.547243" lon="103.340252"><ele>2346.4834</ele><time>2026-04-03T17:54:30.000Z</time></trkpt>
        <trkpt lat="29.547227" lon="103.340203"><ele>2349.6794</ele><time>2026-04-03T17:54:47.000Z</time></trkpt>
        <trkpt lat="29.547184" lon="103.340168"><ele>2350.3953</ele><time>2026-04-03T17:54:54.000Z</time></trkpt>
        <trkpt lat="29.547141" lon="103.340139"><ele>2354.5474</ele><time>2026-04-03T17:55:12.000Z</time></trkpt>
        <trkpt lat="29.547131" lon="103.340088"><ele>2359.879</ele><time>2026-04-03T17:55:30.000Z</time></trkpt>
        <trkpt lat="29.547111" lon="103.34004"><ele>2363.5542</ele><time>2026-04-03T17:55:49.000Z</time></trkpt>
        <trkpt lat="29.547089" lon="103.339991"><ele>2366.4675</ele><time>2026-04-03T17:56:05.000Z</time></trkpt>
        <trkpt lat="29.547089" lon="103.33994"><ele>2366.1064</ele><time>2026-04-03T17:56:19.000Z</time></trkpt>
        <trkpt lat="29.547086" lon="103.339884"><ele>2367.1292</ele><time>2026-04-03T17:56:33.000Z</time></trkpt>
        <trkpt lat="29.547084" lon="103.33983"><ele>2367.6086</ele><time>2026-04-03T17:56:47.000Z</time></trkpt>
        <trkpt lat="29.547061" lon="103.33978"><ele>2369.229</ele><time>2026-04-03T17:57:03.000Z</time></trkpt>
        <trkpt lat="29.547047" lon="103.339728"><ele>2372.1887</ele><time>2026-04-03T17:57:17.000Z</time></trkpt>
        <trkpt lat="29.547023" lon="103.339684"><ele>2373.9521</ele><time>2026-04-03T17:57:37.000Z</time></trkpt>
        <trkpt lat="29.546997" lon="103.339641"><ele>2380.411</ele><time>2026-04-03T17:58:01.000Z</time></trkpt>
        <trkpt lat="29.546959" lon="103.339611"><ele>2381.4473</ele><time>2026-04-03T17:58:21.000Z</time></trkpt>
        <trkpt lat="29.546934" lon="103.339565"><ele>2385.5186</ele><time>2026-04-03T17:58:44.000Z</time></trkpt>
        <trkpt lat="29.546921" lon="103.339515"><ele>2390.6094</ele><time>2026-04-03T17:59:00.000Z</time></trkpt>
        <trkpt lat="29.54692" lon="103.339458"><ele>2391.8474</ele><time>2026-04-03T17:59:21.000Z</time></trkpt>
        <trkpt lat="29.546895" lon="103.339413"><ele>2393.2446</ele><time>2026-04-03T17:59:33.000Z</time></trkpt>
        <trkpt lat="29.546858" lon="103.339381"><ele>2397.34</ele><time>2026-04-03T18:00:05.000Z</time></trkpt>
        <trkpt lat="29.546827" lon="103.339343"><ele>2400.052</ele><time>2026-04-03T18:00:24.000Z</time></trkpt>
        <trkpt lat="29.546796" lon="103.339303"><ele>2400.0718</ele><time>2026-04-03T18:01:19.000Z</time></trkpt>
        <trkpt lat="29.546765" lon="103.339262"><ele>2402.2205</ele><time>2026-04-03T18:01:41.000Z</time></trkpt>
        <trkpt lat="29.546732" lon="103.339222"><ele>2403.9587</ele><time>2026-04-03T18:01:57.000Z</time></trkpt>
        <trkpt lat="29.546707" lon="103.339175"><ele>2406.4736</ele><time>2026-04-03T18:02:12.000Z</time></trkpt>
        <trkpt lat="29.546683" lon="103.339126"><ele>2410.174</ele><time>2026-04-03T18:02:28.000Z</time></trkpt>
        <trkpt lat="29.546655" lon="103.339085"><ele>2411.1516</ele><time>2026-04-03T18:02:39.000Z</time></trkpt>
        <trkpt lat="29.546624" lon="103.339045"><ele>2412.3313</ele><time>2026-04-03T18:02:50.000Z</time></trkpt>
        <trkpt lat="29.546596" lon="103.339004"><ele>2413.4502</ele><time>2026-04-03T18:03:03.000Z</time></trkpt>
        <trkpt lat="29.546564" lon="103.338967"><ele>2415.5583</ele><time>2026-04-03T18:03:17.000Z</time></trkpt>
        <trkpt lat="29.546543" lon="103.338912"><ele>2419.674</ele><time>2026-04-03T18:03:31.000Z</time></trkpt>
        <trkpt lat="29.546513" lon="103.33887"><ele>2422.824</ele><time>2026-04-03T18:03:54.000Z</time></trkpt>
        <trkpt lat="29.54647" lon="103.338844"><ele>2424.9355</ele><time>2026-04-03T18:04:08.000Z</time></trkpt>
        <trkpt lat="29.546434" lon="103.338808"><ele>2428.188</ele><time>2026-04-03T18:04:23.000Z</time></trkpt>
        <trkpt lat="29.546394" lon="103.338777"><ele>2429.2942</ele><time>2026-04-03T18:04:40.000Z</time></trkpt>
        <trkpt lat="29.546358" lon="103.338735"><ele>2430.8152</ele><time>2026-04-03T18:04:59.000Z</time></trkpt>
        <trkpt lat="29.546337" lon="103.338688"><ele>2430.7273</ele><time>2026-04-03T18:05:07.000Z</time></trkpt>
        <trkpt lat="29.546316" lon="103.338639"><ele>2432.3708</ele><time>2026-04-03T18:05:19.000Z</time></trkpt>
        <trkpt lat="29.546291" lon="103.33859"><ele>2435.789</ele><time>2026-04-03T18:05:35.000Z</time></trkpt>
        <trkpt lat="29.54627" lon="103.338541"><ele>2436.5322</ele><time>2026-04-03T18:05:45.000Z</time></trkpt>
        <trkpt lat="29.546254" lon="103.338492"><ele>2437.9766</ele><time>2026-04-03T18:05:57.000Z</time></trkpt>
        <trkpt lat="29.546233" lon="103.338437"><ele>2439.2717</ele><time>2026-04-03T18:06:10.000Z</time></trkpt>
        <trkpt lat="29.546217" lon="103.338387"><ele>2440.2664</ele><time>2026-04-03T18:06:20.000Z</time></trkpt>
        <trkpt lat="29.546219" lon="103.338334"><ele>2441.3706</ele><time>2026-04-03T18:06:30.000Z</time></trkpt>
        <trkpt lat="29.546231" lon="103.338279"><ele>2444.337</ele><time>2026-04-03T18:06:48.000Z</time></trkpt>
        <trkpt lat="29.546236" lon="103.338226"><ele>2447.7795</ele><time>2026-04-03T18:07:05.000Z</time></trkpt>
        <trkpt lat="29.546252" lon="103.338178"><ele>2449.338</ele><time>2026-04-03T18:07:19.000Z</time></trkpt>
        <trkpt lat="29.546273" lon="103.338129"><ele>2450.6506</ele><time>2026-04-03T18:07:31.000Z</time></trkpt>
        <trkpt lat="29.546294" lon="103.33807"><ele>2452.6514</ele><time>2026-04-03T18:07:39.000Z</time></trkpt>
        <trkpt lat="29.546317" lon="103.338024"><ele>2453.0554</ele><time>2026-04-03T18:07:47.000Z</time></trkpt>
        <trkpt lat="29.546354" lon="103.337987"><ele>2450.9177</ele><time>2026-04-03T18:07:55.000Z</time></trkpt>
        <trkpt lat="29.546391" lon="103.337953"><ele>2451.6016</ele><time>2026-04-03T18:08:01.000Z</time></trkpt>
        <trkpt lat="29.546419" lon="103.337904"><ele>2451.7268</ele><time>2026-04-03T18:08:08.000Z</time></trkpt>
        <trkpt lat="29.546439" lon="103.337857"><ele>2452.438</ele><time>2026-04-03T18:08:14.000Z</time></trkpt>
        <trkpt lat="29.546449" lon="103.3378"><ele>2452.627</ele><time>2026-04-03T18:08:20.000Z</time></trkpt>
        <trkpt lat="29.546445" lon="103.337749"><ele>2452.777</ele><time>2026-04-03T18:08:27.000Z</time></trkpt>
        <trkpt lat="29.54647" lon="103.337701"><ele>2452.0544</ele><time>2026-04-03T18:08:33.000Z</time></trkpt>
        <trkpt lat="29.546499" lon="103.337659"><ele>2452.837</ele><time>2026-04-03T18:08:40.000Z</time></trkpt>
        <trkpt lat="29.546545" lon="103.33765"><ele>2455.1296</ele><time>2026-04-03T18:08:46.000Z</time></trkpt>
        <trkpt lat="29.546578" lon="103.337595"><ele>2453.3945</ele><time>2026-04-03T18:08:51.000Z</time></trkpt>
        <trkpt lat="29.546589" lon="103.337535"><ele>2452.1858</ele><time>2026-04-03T18:08:55.000Z</time></trkpt>
        <trkpt lat="29.546597" lon="103.337474"><ele>2450.6157</ele><time>2026-04-03T18:09:00.000Z</time></trkpt>
        <trkpt lat="29.546609" lon="103.337422"><ele>2451.5671</ele><time>2026-04-03T18:09:07.000Z</time></trkpt>
        <trkpt lat="29.546619" lon="103.337362"><ele>2451.2534</ele><time>2026-04-03T18:09:11.000Z</time></trkpt>
        <trkpt lat="29.546625" lon="103.337309"><ele>2450.9517</ele><time>2026-04-03T18:09:17.000Z</time></trkpt>
        <trkpt lat="29.546622" lon="103.337255"><ele>2451.1917</ele><time>2026-04-03T18:09:23.000Z</time></trkpt>
        <trkpt lat="29.546623" lon="103.337201"><ele>2453.7283</ele><time>2026-04-03T18:09:32.000Z</time></trkpt>
        <trkpt lat="29.546611" lon="103.33715"><ele>2454.0112</ele><time>2026-04-03T18:09:40.000Z</time></trkpt>
        <trkpt lat="29.546583" lon="103.337107"><ele>2450.2356</ele><time>2026-04-03T18:10:46.000Z</time></trkpt>
        <trkpt lat="29.546595" lon="103.337158"><ele>2451.234</ele><time>2026-04-03T18:14:39.000Z</time></trkpt>
        <trkpt lat="29.546598" lon="103.337105"><ele>2452.9907</ele><time>2026-04-03T18:16:54.000Z</time></trkpt>
        <trkpt lat="29.546591" lon="103.337045"><ele>2445.6853</ele><time>2026-04-03T18:19:03.000Z</time></trkpt>
        <trkpt lat="29.546548" lon="103.337011"><ele>2445.5168</ele><time>2026-04-03T18:19:08.000Z</time></trkpt>
        <trkpt lat="29.546527" lon="103.336953"><ele>2445.8909</ele><time>2026-04-03T18:19:17.000Z</time></trkpt>
        <trkpt lat="29.546513" lon="103.336898"><ele>2446.6711</ele><time>2026-04-03T18:19:22.000Z</time></trkpt>
        <trkpt lat="29.546479" lon="103.336862"><ele>2446.4197</ele><time>2026-04-03T18:19:27.000Z</time></trkpt>
        <trkpt lat="29.546468" lon="103.336812"><ele>2449.7734</ele><time>2026-04-03T18:19:37.000Z</time></trkpt>
        <trkpt lat="29.546463" lon="103.336756"><ele>2450.3423</ele><time>2026-04-03T18:19:59.000Z</time></trkpt>
        <trkpt lat="29.546493" lon="103.336714"><ele>2447.2417</ele><time>2026-04-03T18:20:06.000Z</time></trkpt>
        <trkpt lat="29.546479" lon="103.33666"><ele>2444.518</ele><time>2026-04-03T18:20:14.000Z</time></trkpt>
        <trkpt lat="29.546491" lon="103.336599"><ele>2443.869</ele><time>2026-04-03T18:20:22.000Z</time></trkpt>
        <trkpt lat="29.546492" lon="103.336537"><ele>2441.3098</ele><time>2026-04-03T18:20:29.000Z</time></trkpt>
        <trkpt lat="29.546506" lon="103.336482"><ele>2437.137</ele><time>2026-04-03T18:20:34.000Z</time></trkpt>
        <trkpt lat="29.546515" lon="103.336427"><ele>2436.4675</ele><time>2026-04-03T18:20:37.000Z</time></trkpt>
        <trkpt lat="29.546516" lon="103.33637"><ele>2433.1104</ele><time>2026-04-03T18:20:42.000Z</time></trkpt>
        <trkpt lat="29.546506" lon="103.336317"><ele>2431.2031</ele><time>2026-04-03T18:20:45.000Z</time></trkpt>
        <trkpt lat="29.546527" lon="103.336257"><ele>2429.1558</ele><time>2026-04-03T18:20:49.000Z</time></trkpt>
        <trkpt lat="29.546566" lon="103.33621"><ele>2426.6335</ele><time>2026-04-03T18:20:53.000Z</time></trkpt>
        <trkpt lat="29.546599" lon="103.336172"><ele>2428.3826</ele><time>2026-04-03T18:20:56.000Z</time></trkpt>
        <trkpt lat="29.546624" lon="103.336113"><ele>2426.0527</ele><time>2026-04-03T18:21:00.000Z</time></trkpt>
        <trkpt lat="29.546641" lon="103.336064"><ele>2424.1135</ele><time>2026-04-03T18:21:04.000Z</time></trkpt>
        <trkpt lat="29.546645" lon="103.336009"><ele>2423.108</ele><time>2026-04-03T18:21:10.000Z</time></trkpt>
        <trkpt lat="29.546655" lon="103.335953"><ele>2423.042</ele><time>2026-04-03T18:21:14.000Z</time></trkpt>
        <trkpt lat="29.546671" lon="103.33589"><ele>2421.7437</ele><time>2026-04-03T18:21:19.000Z</time></trkpt>
        <trkpt lat="29.546686" lon="103.335827"><ele>2421.897</ele><time>2026-04-03T18:21:22.000Z</time></trkpt>
        <trkpt lat="29.546674" lon="103.335777"><ele>2421.6035</ele><time>2026-04-03T18:21:25.000Z</time></trkpt>
        <trkpt lat="29.546681" lon="103.335718"><ele>2422.5754</ele><time>2026-04-03T18:21:28.000Z</time></trkpt>
        <trkpt lat="29.546704" lon="103.335663"><ele>2423.1455</ele><time>2026-04-03T18:21:32.000Z</time></trkpt>
        <trkpt lat="29.546735" lon="103.335624"><ele>2423.6892</ele><time>2026-04-03T18:21:35.000Z</time></trkpt>
        <trkpt lat="29.546758" lon="103.335564"><ele>2425.0864</ele><time>2026-04-03T18:21:39.000Z</time></trkpt>
        <trkpt lat="29.54677" lon="103.335509"><ele>2423.7585</ele><time>2026-04-03T18:21:43.000Z</time></trkpt>
        <trkpt lat="29.546786" lon="103.335458"><ele>2422.97</ele><time>2026-04-03T18:21:47.000Z</time></trkpt>
        <trkpt lat="29.546794" lon="103.335405"><ele>2420.2278</ele><time>2026-04-03T18:21:51.000Z</time></trkpt>
        <trkpt lat="29.546811" lon="103.335337"><ele>2417.5452</ele><time>2026-04-03T18:21:55.000Z</time></trkpt>
        <trkpt lat="29.546826" lon="103.335273"><ele>2416.0305</ele><time>2026-04-03T18:21:59.000Z</time></trkpt>
        <trkpt lat="29.546815" lon="103.335218"><ele>2415.855</ele><time>2026-04-03T18:22:02.000Z</time></trkpt>
        <trkpt lat="29.546798" lon="103.335157"><ele>2416.146</ele><time>2026-04-03T18:22:06.000Z</time></trkpt>
        <trkpt lat="29.546774" lon="103.335103"><ele>2415.9697</ele><time>2026-04-03T18:22:09.000Z</time></trkpt>
        <trkpt lat="29.546743" lon="103.335064"><ele>2413.8047</ele><time>2026-04-03T18:22:13.000Z</time></trkpt>
        <trkpt lat="29.546707" lon="103.33503"><ele>2412.2458</ele><time>2026-04-03T18:22:16.000Z</time></trkpt>
        <trkpt lat="29.546671" lon="103.33499"><ele>2413.2268</ele><time>2026-04-03T18:22:19.000Z</time></trkpt>
        <trkpt lat="29.546633" lon="103.334957"><ele>2415.5005</ele><time>2026-04-03T18:22:22.000Z</time></trkpt>
        <trkpt lat="29.546589" lon="103.334927"><ele>2414.6763</ele><time>2026-04-03T18:22:26.000Z</time></trkpt>
        <trkpt lat="29.546546" lon="103.334895"><ele>2413.409</ele><time>2026-04-03T18:22:31.000Z</time></trkpt>
        <trkpt lat="29.546497" lon="103.33487"><ele>2414.5256</ele><time>2026-04-03T18:22:35.000Z</time></trkpt>
        <trkpt lat="29.546452" lon="103.334846"><ele>2418.222</ele><time>2026-04-03T18:22:40.000Z</time></trkpt>
        <trkpt lat="29.546406" lon="103.334832"><ele>2424.2205</ele><time>2026-04-03T18:22:54.000Z</time></trkpt>
        <trkpt lat="29.54636" lon="103.334832"><ele>2423.7783</ele><time>2026-04-03T18:23:02.000Z</time></trkpt>
        <trkpt lat="29.546307" lon="103.334828"><ele>2423.4277</ele><time>2026-04-03T18:23:07.000Z</time></trkpt>
        <trkpt lat="29.546253" lon="103.334816"><ele>2424.5327</ele><time>2026-04-03T18:23:16.000Z</time></trkpt>
        <trkpt lat="29.546195" lon="103.334809"><ele>2424.0347</ele><time>2026-04-03T18:23:20.000Z</time></trkpt>
        <trkpt lat="29.546146" lon="103.334804"><ele>2421.2825</ele><time>2026-04-03T18:23:26.000Z</time></trkpt>
        <trkpt lat="29.546099" lon="103.334794"><ele>2419.9343</ele><time>2026-04-03T18:23:32.000Z</time></trkpt>
        <trkpt lat="29.546041" lon="103.334796"><ele>2421.0972</ele><time>2026-04-03T18:23:37.000Z</time></trkpt>
        <trkpt lat="29.545997" lon="103.334772"><ele>2421.3267</ele><time>2026-04-03T18:23:42.000Z</time></trkpt>
        <trkpt lat="29.545957" lon="103.334728"><ele>2422.9443</ele><time>2026-04-03T18:23:46.000Z</time></trkpt>
        <trkpt lat="29.545923" lon="103.334679"><ele>2423.7783</ele><time>2026-04-03T18:23:51.000Z</time></trkpt>
        <trkpt lat="29.545893" lon="103.334629"><ele>2420.337</ele><time>2026-04-03T18:23:56.000Z</time></trkpt>
        <trkpt lat="29.54585" lon="103.334583"><ele>2417.7896</ele><time>2026-04-03T18:24:02.000Z</time></trkpt>
        <trkpt lat="29.545805" lon="103.334563"><ele>2415.456</ele><time>2026-04-03T18:24:06.000Z</time></trkpt>
        <trkpt lat="29.54575" lon="103.334545"><ele>2412.4785</ele><time>2026-04-03T18:24:10.000Z</time></trkpt>
        <trkpt lat="29.54571" lon="103.334513"><ele>2409.5925</ele><time>2026-04-03T18:24:13.000Z</time></trkpt>
        <trkpt lat="29.545653" lon="103.334483"><ele>2409.5225</ele><time>2026-04-03T18:24:18.000Z</time></trkpt>
        <trkpt lat="29.545604" lon="103.334457"><ele>2409.6814</ele><time>2026-04-03T18:24:22.000Z</time></trkpt>
        <trkpt lat="29.545555" lon="103.334452"><ele>2413.12</ele><time>2026-04-03T18:24:29.000Z</time></trkpt>
        <trkpt lat="29.545501" lon="103.334436"><ele>2412.644</ele><time>2026-04-03T18:24:37.000Z</time></trkpt>
        <trkpt lat="29.545461" lon="103.334406"><ele>2411.3875</ele><time>2026-04-03T18:24:42.000Z</time></trkpt>
        <trkpt lat="29.545427" lon="103.334365"><ele>2410.127</ele><time>2026-04-03T18:24:45.000Z</time></trkpt>
        <trkpt lat="29.545396" lon="103.334328"><ele>2412.0007</ele><time>2026-04-03T18:24:49.000Z</time></trkpt>
        <trkpt lat="29.545356" lon="103.334296"><ele>2415.3296</ele><time>2026-04-03T18:24:52.000Z</time></trkpt>
        <trkpt lat="29.545319" lon="103.334264"><ele>2417.238</ele><time>2026-04-03T18:24:55.000Z</time></trkpt>
        <trkpt lat="29.545279" lon="103.334233"><ele>2416.9268</ele><time>2026-04-03T18:25:01.000Z</time></trkpt>
        <trkpt lat="29.545245" lon="103.33418"><ele>2419.1406</ele><time>2026-04-03T18:25:06.000Z</time></trkpt>
        <trkpt lat="29.545203" lon="103.334156"><ele>2418.2615</ele><time>2026-04-03T18:25:13.000Z</time></trkpt>
        <trkpt lat="29.545153" lon="103.334135"><ele>2417.8508</ele><time>2026-04-03T18:25:18.000Z</time></trkpt>
        <trkpt lat="29.545103" lon="103.334113"><ele>2418.5803</ele><time>2026-04-03T18:25:23.000Z</time></trkpt>
        <trkpt lat="29.545052" lon="103.334108"><ele>2417.5728</ele><time>2026-04-03T18:25:28.000Z</time></trkpt>
        <trkpt lat="29.545006" lon="103.334114"><ele>2421.3274</ele><time>2026-04-03T18:25:35.000Z</time></trkpt>
        <trkpt lat="29.54495" lon="103.334101"><ele>2424.0867</ele><time>2026-04-03T18:25:40.000Z</time></trkpt>
        <trkpt lat="29.54491" lon="103.334125"><ele>2425.3264</ele><time>2026-04-03T18:25:43.000Z</time></trkpt>
        <trkpt lat="29.544876" lon="103.33416"><ele>2425.1943</ele><time>2026-04-03T18:25:48.000Z</time></trkpt>
        <trkpt lat="29.544835" lon="103.334198"><ele>2424.7446</ele><time>2026-04-03T18:25:52.000Z</time></trkpt>
        <trkpt lat="29.544811" lon="103.334243"><ele>2426.587</ele><time>2026-04-03T18:25:55.000Z</time></trkpt>
        <trkpt lat="29.544781" lon="103.33429"><ele>2427.569</ele><time>2026-04-03T18:25:58.000Z</time></trkpt>
        <trkpt lat="29.544734" lon="103.334297"><ele>2425.4146</ele><time>2026-04-03T18:26:03.000Z</time></trkpt>
        <trkpt lat="29.544687" lon="103.334328"><ele>2422.5918</ele><time>2026-04-03T18:26:10.000Z</time></trkpt>
        <trkpt lat="29.544637" lon="103.3343"><ele>2419.4958</ele><time>2026-04-03T18:26:13.000Z</time></trkpt>
        <trkpt lat="29.544592" lon="103.334292"><ele>2417.14</ele><time>2026-04-03T18:26:17.000Z</time></trkpt>
        <trkpt lat="29.54453" lon="103.334275"><ele>2413.343</ele><time>2026-04-03T18:26:22.000Z</time></trkpt>
        <trkpt lat="29.544472" lon="103.334263"><ele>2411.1274</ele><time>2026-04-03T18:26:26.000Z</time></trkpt>
        <trkpt lat="29.544423" lon="103.334256"><ele>2409.5237</ele><time>2026-04-03T18:26:31.000Z</time></trkpt>
        <trkpt lat="29.544377" lon="103.334248"><ele>2409.3965</ele><time>2026-04-03T18:26:35.000Z</time></trkpt>
        <trkpt lat="29.544324" lon="103.334252"><ele>2409.0237</ele><time>2026-04-03T18:26:40.000Z</time></trkpt>
        <trkpt lat="29.54428" lon="103.334243"><ele>2410.667</ele><time>2026-04-03T18:26:45.000Z</time></trkpt>
        <trkpt lat="29.544232" lon="103.334234"><ele>2411.2798</ele><time>2026-04-03T18:26:49.000Z</time></trkpt>
        <trkpt lat="29.544177" lon="103.334225"><ele>2410.522</ele><time>2026-04-03T18:26:54.000Z</time></trkpt>
        <trkpt lat="29.54412" lon="103.334193"><ele>2412.8694</ele><time>2026-04-03T18:26:58.000Z</time></trkpt>
        <trkpt lat="29.544089" lon="103.334146"><ele>2416.2744</ele><time>2026-04-03T18:27:05.000Z</time></trkpt>
        <trkpt lat="29.544043" lon="103.33411"><ele>2419.1516</ele><time>2026-04-03T18:27:10.000Z</time></trkpt>
        <trkpt lat="29.544013" lon="103.334069"><ele>2419.907</ele><time>2026-04-03T18:27:15.000Z</time></trkpt>
        <trkpt lat="29.543974" lon="103.33402"><ele>2417.8</ele><time>2026-04-03T18:27:20.000Z</time></trkpt>
        <trkpt lat="29.543936" lon="103.333964"><ele>2418.9963</ele><time>2026-04-03T18:27:24.000Z</time></trkpt>
        <trkpt lat="29.543892" lon="103.333945"><ele>2418.8455</ele><time>2026-04-03T18:27:30.000Z</time></trkpt>
        <trkpt lat="29.543855" lon="103.333976"><ele>2418.8342</ele><time>2026-04-03T18:27:38.000Z</time></trkpt>
        <trkpt lat="29.543809" lon="103.333983"><ele>2417.624</ele><time>2026-04-03T18:27:44.000Z</time></trkpt>
        <trkpt lat="29.543764" lon="103.333984"><ele>2420.1167</ele><time>2026-04-03T18:28:01.000Z</time></trkpt>
        <trkpt lat="29.543728" lon="103.333948"><ele>2421.7864</ele><time>2026-04-03T18:28:10.000Z</time></trkpt>
        <trkpt lat="29.543692" lon="103.333915"><ele>2419.996</ele><time>2026-04-03T18:28:14.000Z</time></trkpt>
        <trkpt lat="29.54366" lon="103.333877"><ele>2419.2554</ele><time>2026-04-03T18:28:19.000Z</time></trkpt>
        <trkpt lat="29.543623" lon="103.33384"><ele>2414.8408</ele><time>2026-04-03T18:28:27.000Z</time></trkpt>
        <trkpt lat="29.543585" lon="103.333808"><ele>2414.088</ele><time>2026-04-03T18:28:36.000Z</time></trkpt>
        <trkpt lat="29.54354" lon="103.333789"><ele>2412.2532</ele><time>2026-04-03T18:28:50.000Z</time></trkpt>
        <trkpt lat="29.5435" lon="103.333765"><ele>2416.336</ele><time>2026-04-03T18:29:05.000Z</time></trkpt>
        <trkpt lat="29.543468" lon="103.333717"><ele>2416.66</ele><time>2026-04-03T18:29:17.000Z</time></trkpt>
        <trkpt lat="29.543453" lon="103.333665"><ele>2414.3418</ele><time>2026-04-03T18:29:24.000Z</time></trkpt>
        <trkpt lat="29.543456" lon="103.333609"><ele>2411.1023</ele><time>2026-04-03T18:29:29.000Z</time></trkpt>
        <trkpt lat="29.543453" lon="103.333548"><ele>2411.5278</ele><time>2026-04-03T18:29:34.000Z</time></trkpt>
        <trkpt lat="29.54344" lon="103.333492"><ele>2410.8127</ele><time>2026-04-03T18:29:38.000Z</time></trkpt>
        <trkpt lat="29.543422" lon="103.333431"><ele>2411.7651</ele><time>2026-04-03T18:29:43.000Z</time></trkpt>
        <trkpt lat="29.543401" lon="103.333374"><ele>2413.6729</ele><time>2026-04-03T18:29:51.000Z</time></trkpt>
        <trkpt lat="29.543374" lon="103.333328"><ele>2411.6155</ele><time>2026-04-03T18:30:01.000Z</time></trkpt>
        <trkpt lat="29.543354" lon="103.33328"><ele>2410.428</ele><time>2026-04-03T18:30:05.000Z</time></trkpt>
        <trkpt lat="29.543318" lon="103.33324"><ele>2407.7007</ele><time>2026-04-03T18:30:10.000Z</time></trkpt>
        <trkpt lat="29.543287" lon="103.333199"><ele>2417.3909</ele><time>2026-04-03T18:30:41.000Z</time></trkpt>
        <trkpt lat="29.543267" lon="103.333152"><ele>2412.0771</ele><time>2026-04-03T18:30:51.000Z</time></trkpt>
        <trkpt lat="29.543239" lon="103.333103"><ele>2412.2197</ele><time>2026-04-03T18:30:56.000Z</time></trkpt>
        <trkpt lat="29.543206" lon="103.333057"><ele>2411.0906</ele><time>2026-04-03T18:30:59.000Z</time></trkpt>
        <trkpt lat="29.543153" lon="103.333055"><ele>2410.438</ele><time>2026-04-03T18:31:05.000Z</time></trkpt>
        <trkpt lat="29.543103" lon="103.333044"><ele>2412.335</ele><time>2026-04-03T18:31:11.000Z</time></trkpt>
        <trkpt lat="29.543055" lon="103.333056"><ele>2414.7012</ele><time>2026-04-03T18:31:20.000Z</time></trkpt>
        <trkpt lat="29.543006" lon="103.333049"><ele>2415.807</ele><time>2026-04-03T18:31:25.000Z</time></trkpt>
        <trkpt lat="29.54299" lon="103.332999"><ele>2418.954</ele><time>2026-04-03T18:31:33.000Z</time></trkpt>
        <trkpt lat="29.542937" lon="103.332982"><ele>2417.828</ele><time>2026-04-03T18:31:38.000Z</time></trkpt>
        <trkpt lat="29.542897" lon="103.332941"><ele>2414.6223</ele><time>2026-04-03T18:31:44.000Z</time></trkpt>
        <trkpt lat="29.54287" lon="103.332897"><ele>2414.5977</ele><time>2026-04-03T18:31:48.000Z</time></trkpt>
        <trkpt lat="29.542848" lon="103.332848"><ele>2414.3118</ele><time>2026-04-03T18:31:51.000Z</time></trkpt>
        <trkpt lat="29.542824" lon="103.332803"><ele>2418.1653</ele><time>2026-04-03T18:31:56.000Z</time></trkpt>
        <trkpt lat="29.542787" lon="103.332756"><ele>2419.4575</ele><time>2026-04-03T18:32:01.000Z</time></trkpt>
        <trkpt lat="29.54275" lon="103.332721"><ele>2418.8086</ele><time>2026-04-03T18:32:05.000Z</time></trkpt>
        <trkpt lat="29.542698" lon="103.332716"><ele>2419.0286</ele><time>2026-04-03T18:32:09.000Z</time></trkpt>
        <trkpt lat="29.542641" lon="103.332692"><ele>2418.378</ele><time>2026-04-03T18:32:13.000Z</time></trkpt>
        <trkpt lat="29.542593" lon="103.332662"><ele>2415.9888</ele><time>2026-04-03T18:32:17.000Z</time></trkpt>
        <trkpt lat="29.542577" lon="103.332612"><ele>2415.016</ele><time>2026-04-03T18:32:21.000Z</time></trkpt>
        <trkpt lat="29.542577" lon="103.332547"><ele>2414.948</ele><time>2026-04-03T18:32:25.000Z</time></trkpt>
        <trkpt lat="29.542576" lon="103.332494"><ele>2415.4949</ele><time>2026-04-03T18:32:31.000Z</time></trkpt>
        <trkpt lat="29.542543" lon="103.332444"><ele>2410.6711</ele><time>2026-04-03T18:32:38.000Z</time></trkpt>
        <trkpt lat="29.542526" lon="103.332387"><ele>2416.522</ele><time>2026-04-03T18:32:42.000Z</time></trkpt>
        <trkpt lat="29.542517" lon="103.332334"><ele>2416.9727</ele><time>2026-04-03T18:32:46.000Z</time></trkpt>
        <trkpt lat="29.542497" lon="103.332281"><ele>2413.5674</ele><time>2026-04-03T18:32:52.000Z</time></trkpt>
        <trkpt lat="29.542463" lon="103.332242"><ele>2413.624</ele><time>2026-04-03T18:32:57.000Z</time></trkpt>
        <trkpt lat="29.542429" lon="103.332197"><ele>2413.2766</ele><time>2026-04-03T18:33:01.000Z</time></trkpt>
        <trkpt lat="29.542386" lon="103.332173"><ele>2413.7947</ele><time>2026-04-03T18:33:05.000Z</time></trkpt>
        <trkpt lat="29.542345" lon="103.332137"><ele>2414.8994</ele><time>2026-04-03T18:33:09.000Z</time></trkpt>
        <trkpt lat="29.542309" lon="103.332089"><ele>2415.4146</ele><time>2026-04-03T18:33:14.000Z</time></trkpt>
        <trkpt lat="29.542261" lon="103.332043"><ele>2416.8167</ele><time>2026-04-03T18:33:19.000Z</time></trkpt>
        <trkpt lat="29.542216" lon="103.33203"><ele>2417.2034</ele><time>2026-04-03T18:33:23.000Z</time></trkpt>
        <trkpt lat="29.542167" lon="103.332026"><ele>2415.2617</ele><time>2026-04-03T18:33:35.000Z</time></trkpt>
        <trkpt lat="29.542114" lon="103.332023"><ele>2414.6013</ele><time>2026-04-03T18:33:42.000Z</time></trkpt>
        <trkpt lat="29.542065" lon="103.332025"><ele>2414.2075</ele><time>2026-04-03T18:33:46.000Z</time></trkpt>
        <trkpt lat="29.542012" lon="103.332041"><ele>2415.0542</ele><time>2026-04-03T18:33:50.000Z</time></trkpt>
        <trkpt lat="29.541967" lon="103.332065"><ele>2415.4187</ele><time>2026-04-03T18:33:54.000Z</time></trkpt>
        <trkpt lat="29.541917" lon="103.332059"><ele>2415.6978</ele><time>2026-04-03T18:33:58.000Z</time></trkpt>
        <trkpt lat="29.541872" lon="103.332043"><ele>2414.281</ele><time>2026-04-03T18:34:02.000Z</time></trkpt>
        <trkpt lat="29.541828" lon="103.332013"><ele>2412.8257</ele><time>2026-04-03T18:34:07.000Z</time></trkpt>
        <trkpt lat="29.54179" lon="103.33197"><ele>2410.1924</ele><time>2026-04-03T18:34:12.000Z</time></trkpt>
        <trkpt lat="29.541812" lon="103.331912"><ele>2408.9817</ele><time>2026-04-03T18:34:19.000Z</time></trkpt>
        <trkpt lat="29.541854" lon="103.331875"><ele>2410.2065</ele><time>2026-04-03T18:34:25.000Z</time></trkpt>
        <trkpt lat="29.541885" lon="103.331834"><ele>2410.7483</ele><time>2026-04-03T18:34:29.000Z</time></trkpt>
        <trkpt lat="29.541869" lon="103.331776"><ele>2410.212</ele><time>2026-04-03T18:34:33.000Z</time></trkpt>
        <trkpt lat="29.541823" lon="103.331757"><ele>2409.5312</ele><time>2026-04-03T18:34:40.000Z</time></trkpt>
        <trkpt lat="29.541771" lon="103.331769"><ele>2407.0613</ele><time>2026-04-03T18:34:53.000Z</time></trkpt>
        <trkpt lat="29.541715" lon="103.331778"><ele>2407.4973</ele><time>2026-04-03T18:34:58.000Z</time></trkpt>
        <trkpt lat="29.541662" lon="103.331775"><ele>2408.251</ele><time>2026-04-03T18:35:03.000Z</time></trkpt>
        <trkpt lat="29.541616" lon="103.331754"><ele>2410.0647</ele><time>2026-04-03T18:35:07.000Z</time></trkpt>
        <trkpt lat="29.541568" lon="103.331748"><ele>2412.3413</ele><time>2026-04-03T18:35:10.000Z</time></trkpt>
        <trkpt lat="29.541518" lon="103.331752"><ele>2414.461</ele><time>2026-04-03T18:35:14.000Z</time></trkpt>
        <trkpt lat="29.541475" lon="103.331776"><ele>2412.992</ele><time>2026-04-03T18:35:21.000Z</time></trkpt>
        <trkpt lat="29.541432" lon="103.331802"><ele>2412.2883</ele><time>2026-04-03T18:35:26.000Z</time></trkpt>
        <trkpt lat="29.541396" lon="103.33175"><ele>2413.6516</ele><time>2026-04-03T18:35:31.000Z</time></trkpt>
        <trkpt lat="29.541348" lon="103.331722"><ele>2415.8494</ele><time>2026-04-03T18:35:35.000Z</time></trkpt>
        <trkpt lat="29.541302" lon="103.331721"><ele>2417.1763</ele><time>2026-04-03T18:35:39.000Z</time></trkpt>
        <trkpt lat="29.541241" lon="103.331732"><ele>2418.597</ele><time>2026-04-03T18:35:43.000Z</time></trkpt>
        <trkpt lat="29.541193" lon="103.331727"><ele>2422.832</ele><time>2026-04-03T18:35:48.000Z</time></trkpt>
        <trkpt lat="29.541169" lon="103.331771"><ele>2420.231</ele><time>2026-04-03T18:36:10.000Z</time></trkpt>
        <trkpt lat="29.541123" lon="103.331768"><ele>2421.995</ele><time>2026-04-03T18:36:15.000Z</time></trkpt>
        <trkpt lat="29.541087" lon="103.331805"><ele>2421.378</ele><time>2026-04-03T18:36:23.000Z</time></trkpt>
        <trkpt lat="29.541034" lon="103.331832"><ele>2420.9045</ele><time>2026-04-03T18:36:28.000Z</time></trkpt>
        <trkpt lat="29.540989" lon="103.331858"><ele>2420.069</ele><time>2026-04-03T18:36:35.000Z</time></trkpt>
        <trkpt lat="29.540943" lon="103.331869"><ele>2419.1328</ele><time>2026-04-03T18:36:42.000Z</time></trkpt>
        <trkpt lat="29.540899" lon="103.331856"><ele>2417.504</ele><time>2026-04-03T18:36:46.000Z</time></trkpt>
        <trkpt lat="29.540859" lon="103.331828"><ele>2419.4912</ele><time>2026-04-03T18:36:52.000Z</time></trkpt>
        <trkpt lat="29.540804" lon="103.331811"><ele>2420.423</ele><time>2026-04-03T18:36:57.000Z</time></trkpt>
        <trkpt lat="29.540747" lon="103.331809"><ele>2418.8276</ele><time>2026-04-03T18:37:03.000Z</time></trkpt>
        <trkpt lat="29.540699" lon="103.331818"><ele>2419.6157</ele><time>2026-04-03T18:37:07.000Z</time></trkpt>
        <trkpt lat="29.540656" lon="103.331841"><ele>2420.9246</ele><time>2026-04-03T18:37:12.000Z</time></trkpt>
        <trkpt lat="29.540625" lon="103.33189"><ele>2422.7136</ele><time>2026-04-03T18:37:17.000Z</time></trkpt>
        <trkpt lat="29.540591" lon="103.331939"><ele>2421.119</ele><time>2026-04-03T18:37:21.000Z</time></trkpt>
        <trkpt lat="29.540544" lon="103.331972"><ele>2422.6372</ele><time>2026-04-03T18:37:28.000Z</time></trkpt>
        <trkpt lat="29.540496" lon="103.33198"><ele>2421.839</ele><time>2026-04-03T18:37:33.000Z</time></trkpt>
        <trkpt lat="29.540441" lon="103.332002"><ele>2422.737</ele><time>2026-04-03T18:37:38.000Z</time></trkpt>
        <trkpt lat="29.540396" lon="103.332021"><ele>2425.1711</ele><time>2026-04-03T18:37:42.000Z</time></trkpt>
        <trkpt lat="29.54034" lon="103.332046"><ele>2426.2346</ele><time>2026-04-03T18:37:47.000Z</time></trkpt>
        <trkpt lat="29.540291" lon="103.332069"><ele>2424.1394</ele><time>2026-04-03T18:37:53.000Z</time></trkpt>
        <trkpt lat="29.540242" lon="103.332088"><ele>2424.8262</ele><time>2026-04-03T18:38:00.000Z</time></trkpt>
        <trkpt lat="29.540191" lon="103.332091"><ele>2426.883</ele><time>2026-04-03T18:38:21.000Z</time></trkpt>
        <trkpt lat="29.540175" lon="103.332143"><ele>2424.4163</ele><time>2026-04-03T18:38:26.000Z</time></trkpt>
        <trkpt lat="29.540146" lon="103.332189"><ele>2420.607</ele><time>2026-04-03T18:38:35.000Z</time></trkpt>
        <trkpt lat="29.540109" lon="103.332236"><ele>2420.3528</ele><time>2026-04-03T18:38:41.000Z</time></trkpt>
        <trkpt lat="29.540067" lon="103.332268"><ele>2421.9958</ele><time>2026-04-03T18:38:47.000Z</time></trkpt>
        <trkpt lat="29.540026" lon="103.33229"><ele>2420.8984</ele><time>2026-04-03T18:38:51.000Z</time></trkpt>
        <trkpt lat="29.539977" lon="103.332307"><ele>2420.267</ele><time>2026-04-03T18:38:55.000Z</time></trkpt>
        <trkpt lat="29.539928" lon="103.332337"><ele>2420.9646</ele><time>2026-04-03T18:39:00.000Z</time></trkpt>
        <trkpt lat="29.539884" lon="103.332354"><ele>2422.1133</ele><time>2026-04-03T18:39:04.000Z</time></trkpt>
        <trkpt lat="29.539836" lon="103.332361"><ele>2422.8481</ele><time>2026-04-03T18:39:14.000Z</time></trkpt>
        <trkpt lat="29.539814" lon="103.332407"><ele>2422.1626</ele><time>2026-04-03T18:39:19.000Z</time></trkpt>
        <trkpt lat="29.539772" lon="103.332444"><ele>2423.6016</ele><time>2026-04-03T18:39:28.000Z</time></trkpt>
        <trkpt lat="29.53973" lon="103.332476"><ele>2424.8677</ele><time>2026-04-03T18:39:39.000Z</time></trkpt>
        <trkpt lat="29.539684" lon="103.332499"><ele>2427.7998</ele><time>2026-04-03T18:39:50.000Z</time></trkpt>
        <trkpt lat="29.539634" lon="103.332506"><ele>2433.6226</ele><time>2026-04-03T18:40:00.000Z</time></trkpt>
        <trkpt lat="29.539579" lon="103.332512"><ele>2430.3477</ele><time>2026-04-03T18:40:08.000Z</time></trkpt>
        <trkpt lat="29.539534" lon="103.332509"><ele>2433.0613</ele><time>2026-04-03T18:40:14.000Z</time></trkpt>
        <trkpt lat="29.539513" lon="103.332556"><ele>2432.4028</ele><time>2026-04-03T18:40:33.000Z</time></trkpt>
        <trkpt lat="29.539467" lon="103.332563"><ele>2433.771</ele><time>2026-04-03T18:40:44.000Z</time></trkpt>
        <trkpt lat="29.539439" lon="103.332609"><ele>2434.124</ele><time>2026-04-03T18:40:51.000Z</time></trkpt>
        <trkpt lat="29.539409" lon="103.33265"><ele>2435.7847</ele><time>2026-04-03T18:40:56.000Z</time></trkpt>
        <trkpt lat="29.53938" lon="103.332694"><ele>2438.327</ele><time>2026-04-03T18:41:01.000Z</time></trkpt>
        <trkpt lat="29.539354" lon="103.332747"><ele>2438.7947</ele><time>2026-04-03T18:41:07.000Z</time></trkpt>
        <trkpt lat="29.53933" lon="103.332791"><ele>2437.0312</ele><time>2026-04-03T18:41:12.000Z</time></trkpt>
        <trkpt lat="29.539302" lon="103.332851"><ele>2437.6238</ele><time>2026-04-03T18:41:18.000Z</time></trkpt>
        <trkpt lat="29.539274" lon="103.332894"><ele>2436.1216</ele><time>2026-04-03T18:41:23.000Z</time></trkpt>
        <trkpt lat="29.539224" lon="103.332925"><ele>2436.472</ele><time>2026-04-03T18:41:30.000Z</time></trkpt>
        <trkpt lat="29.539164" lon="103.332914"><ele>2441.8994</ele><time>2026-04-03T18:41:37.000Z</time></trkpt>
        <trkpt lat="29.539114" lon="103.332937"><ele>2442.747</ele><time>2026-04-03T18:41:43.000Z</time></trkpt>
        <trkpt lat="29.53908" lon="103.332975"><ele>2444.4475</ele><time>2026-04-03T18:41:47.000Z</time></trkpt>
        <trkpt lat="29.539038" lon="103.333006"><ele>2439.9724</ele><time>2026-04-03T18:41:55.000Z</time></trkpt>
        <trkpt lat="29.539001" lon="103.333039"><ele>2442.1316</ele><time>2026-04-03T18:42:00.000Z</time></trkpt>
        <trkpt lat="29.538969" lon="103.333084"><ele>2441.5088</ele><time>2026-04-03T18:42:06.000Z</time></trkpt>
        <trkpt lat="29.538933" lon="103.333124"><ele>2446.7878</ele><time>2026-04-03T18:42:12.000Z</time></trkpt>
        <trkpt lat="29.538897" lon="103.333155"><ele>2443.7632</ele><time>2026-04-03T18:42:16.000Z</time></trkpt>
        <trkpt lat="29.538848" lon="103.333175"><ele>2442.0308</ele><time>2026-04-03T18:42:22.000Z</time></trkpt>
        <trkpt lat="29.538802" lon="103.333175"><ele>2440.7302</ele><time>2026-04-03T18:42:27.000Z</time></trkpt>
        <trkpt lat="29.538759" lon="103.333192"><ele>2439.6807</ele><time>2026-04-03T18:42:32.000Z</time></trkpt>
        <trkpt lat="29.538721" lon="103.333225"><ele>2443.0884</ele><time>2026-04-03T18:42:39.000Z</time></trkpt>
        <trkpt lat="29.53867" lon="103.333247"><ele>2442.4622</ele><time>2026-04-03T18:42:47.000Z</time></trkpt>
        <trkpt lat="29.538615" lon="103.333256"><ele>2438.3237</ele><time>2026-04-03T18:42:55.000Z</time></trkpt>
        <trkpt lat="29.538567" lon="103.333247"><ele>2436.0425</ele><time>2026-04-03T18:43:02.000Z</time></trkpt>
        <trkpt lat="29.538522" lon="103.333255"><ele>2435.5173</ele><time>2026-04-03T18:43:09.000Z</time></trkpt>
        <trkpt lat="29.538476" lon="103.333266"><ele>2437.7441</ele><time>2026-04-03T18:43:17.000Z</time></trkpt>
        <trkpt lat="29.538422" lon="103.33327"><ele>2438.4333</ele><time>2026-04-03T18:43:26.000Z</time></trkpt>
        <trkpt lat="29.538381" lon="103.333312"><ele>2438.0823</ele><time>2026-04-03T18:43:33.000Z</time></trkpt>
        <trkpt lat="29.538327" lon="103.333329"><ele>2438.2134</ele><time>2026-04-03T18:43:38.000Z</time></trkpt>
        <trkpt lat="29.538277" lon="103.333357"><ele>2440.1494</ele><time>2026-04-03T18:43:43.000Z</time></trkpt>
        <trkpt lat="29.538237" lon="103.333386"><ele>2441.284</ele><time>2026-04-03T18:43:46.000Z</time></trkpt>
        <trkpt lat="29.538191" lon="103.333414"><ele>2446.212</ele><time>2026-04-03T18:43:53.000Z</time></trkpt>
        <trkpt lat="29.53815" lon="103.333439"><ele>2449.2659</ele><time>2026-04-03T18:43:59.000Z</time></trkpt>
        <trkpt lat="29.538107" lon="103.333455"><ele>2448.0515</ele><time>2026-04-03T18:44:04.000Z</time></trkpt>
        <trkpt lat="29.538071" lon="103.333497"><ele>2446.611</ele><time>2026-04-03T18:44:09.000Z</time></trkpt>
        <trkpt lat="29.538024" lon="103.333531"><ele>2447.4436</ele><time>2026-04-03T18:44:14.000Z</time></trkpt>
        <trkpt lat="29.537975" lon="103.333549"><ele>2450.219</ele><time>2026-04-03T18:44:18.000Z</time></trkpt>
        <trkpt lat="29.537931" lon="103.333562"><ele>2451.3352</ele><time>2026-04-03T18:44:27.000Z</time></trkpt>
        <trkpt lat="29.5379" lon="103.333611"><ele>2453.3801</ele><time>2026-04-03T18:44:36.000Z</time></trkpt>
        <trkpt lat="29.537859" lon="103.333635"><ele>2452.6843</ele><time>2026-04-03T18:44:45.000Z</time></trkpt>
        <trkpt lat="29.537821" lon="103.333672"><ele>2451.261</ele><time>2026-04-03T18:44:56.000Z</time></trkpt>
        <trkpt lat="29.537777" lon="103.333702"><ele>2450.714</ele><time>2026-04-03T18:45:03.000Z</time></trkpt>
        <trkpt lat="29.537746" lon="103.333741"><ele>2449.2014</ele><time>2026-04-03T18:45:13.000Z</time></trkpt>
        <trkpt lat="29.537713" lon="103.333783"><ele>2451.4148</ele><time>2026-04-03T18:45:25.000Z</time></trkpt>
        <trkpt lat="29.537663" lon="103.333807"><ele>2453.1152</ele><time>2026-04-03T18:45:35.000Z</time></trkpt>
        <trkpt lat="29.537619" lon="103.333824"><ele>2460.2644</ele><time>2026-04-03T18:45:47.000Z</time></trkpt>
        <trkpt lat="29.537588" lon="103.333872"><ele>2459.6719</ele><time>2026-04-03T18:46:01.000Z</time></trkpt>
        <trkpt lat="29.537545" lon="103.333895"><ele>2457.0889</ele><time>2026-04-03T18:46:15.000Z</time></trkpt>
        <trkpt lat="29.537497" lon="103.333884"><ele>2454.503</ele><time>2026-04-03T18:46:22.000Z</time></trkpt>
        <trkpt lat="29.537448" lon="103.333879"><ele>2456.9268</ele><time>2026-04-03T18:46:37.000Z</time></trkpt>
        <trkpt lat="29.537402" lon="103.333897"><ele>2458.4355</ele><time>2026-04-03T18:46:55.000Z</time></trkpt>
        <trkpt lat="29.537377" lon="103.333946"><ele>2458.2712</ele><time>2026-04-03T18:47:04.000Z</time></trkpt>
        <trkpt lat="29.53736" lon="103.333994"><ele>2458.7808</ele><time>2026-04-03T18:47:16.000Z</time></trkpt>
        <trkpt lat="29.537339" lon="103.334045"><ele>2460.2695</ele><time>2026-04-03T18:47:23.000Z</time></trkpt>
        <trkpt lat="29.537314" lon="103.334101"><ele>2459.7114</ele><time>2026-04-03T18:47:38.000Z</time></trkpt>
        <trkpt lat="29.537278" lon="103.334143"><ele>2459.4387</ele><time>2026-04-03T18:47:44.000Z</time></trkpt>
        <trkpt lat="29.537248" lon="103.334185"><ele>2459.3127</ele><time>2026-04-03T18:47:52.000Z</time></trkpt>
        <trkpt lat="29.537201" lon="103.334198"><ele>2463.569</ele><time>2026-04-03T18:48:16.000Z</time></trkpt>
        <trkpt lat="29.537162" lon="103.334225"><ele>2464.7588</ele><time>2026-04-03T18:48:27.000Z</time></trkpt>
        <trkpt lat="29.537111" lon="103.334218"><ele>2466.7837</ele><time>2026-04-03T18:48:47.000Z</time></trkpt>
        <trkpt lat="29.537076" lon="103.334253"><ele>2468.2566</ele><time>2026-04-03T18:48:52.000Z</time></trkpt>
        <trkpt lat="29.537031" lon="103.334268"><ele>2471.0063</ele><time>2026-04-03T18:49:04.000Z</time></trkpt>
        <trkpt lat="29.536999" lon="103.334307"><ele>2473.4053</ele><time>2026-04-03T18:49:09.000Z</time></trkpt>
        <trkpt lat="29.536954" lon="103.334324"><ele>2471.709</ele><time>2026-04-03T18:49:17.000Z</time></trkpt>
        <trkpt lat="29.536904" lon="103.334331"><ele>2469.2688</ele><time>2026-04-03T18:49:25.000Z</time></trkpt>
        <trkpt lat="29.536847" lon="103.334333"><ele>2471.1262</ele><time>2026-04-03T18:49:45.000Z</time></trkpt>
        <trkpt lat="29.536805" lon="103.334365"><ele>2474.3271</ele><time>2026-04-03T18:49:51.000Z</time></trkpt>
        <trkpt lat="29.536749" lon="103.334395"><ele>2475.279</ele><time>2026-04-03T18:49:56.000Z</time></trkpt>
        <trkpt lat="29.536704" lon="103.334416"><ele>2476.0115</ele><time>2026-04-03T18:49:59.000Z</time></trkpt>
        <trkpt lat="29.536647" lon="103.334432"><ele>2476.7175</ele><time>2026-04-03T18:50:06.000Z</time></trkpt>
        <trkpt lat="29.536596" lon="103.334408"><ele>2474.1826</ele><time>2026-04-03T18:50:11.000Z</time></trkpt>
        <trkpt lat="29.536537" lon="103.334409"><ele>2475.0945</ele><time>2026-04-03T18:50:16.000Z</time></trkpt>
        <trkpt lat="29.53649" lon="103.334407"><ele>2476.1377</ele><time>2026-04-03T18:50:21.000Z</time></trkpt>
        <trkpt lat="29.536444" lon="103.334452"><ele>2477.2012</ele><time>2026-04-03T18:50:27.000Z</time></trkpt>
        <trkpt lat="29.536402" lon="103.334475"><ele>2478.5962</ele><time>2026-04-03T18:50:34.000Z</time></trkpt>
        <trkpt lat="29.536355" lon="103.334484"><ele>2483.481</ele><time>2026-04-03T18:50:53.000Z</time></trkpt>
        <trkpt lat="29.536313" lon="103.334438"><ele>2479.632</ele><time>2026-04-03T18:51:01.000Z</time></trkpt>
        <trkpt lat="29.536259" lon="103.33442"><ele>2475.0024</ele><time>2026-04-03T18:51:08.000Z</time></trkpt>
        <trkpt lat="29.536201" lon="103.334408"><ele>2474.8455</ele><time>2026-04-03T18:51:16.000Z</time></trkpt>
        <trkpt lat="29.536174" lon="103.334357"><ele>2476.0645</ele><time>2026-04-03T18:51:23.000Z</time></trkpt>
        <trkpt lat="29.536129" lon="103.334334"><ele>2476.3726</ele><time>2026-04-03T18:51:30.000Z</time></trkpt>
        <trkpt lat="29.536096" lon="103.334291"><ele>2479.7556</ele><time>2026-04-03T18:51:39.000Z</time></trkpt>
        <trkpt lat="29.536053" lon="103.33427"><ele>2485.6997</ele><time>2026-04-03T18:51:50.000Z</time></trkpt>
        <trkpt lat="29.535998" lon="103.334276"><ele>2487.982</ele><time>2026-04-03T18:52:10.000Z</time></trkpt>
        <trkpt lat="29.535954" lon="103.334258"><ele>2488.225</ele><time>2026-04-03T18:52:16.000Z</time></trkpt>
        <trkpt lat="29.535929" lon="103.334209"><ele>2496.7024</ele><time>2026-04-03T18:52:36.000Z</time></trkpt>
        <trkpt lat="29.535879" lon="103.334203"><ele>2501.153</ele><time>2026-04-03T18:52:44.000Z</time></trkpt>
        <trkpt lat="29.535841" lon="103.334169"><ele>2499.8516</ele><time>2026-04-03T18:52:51.000Z</time></trkpt>
        <trkpt lat="29.535803" lon="103.33414"><ele>2498.3892</ele><time>2026-04-03T18:52:57.000Z</time></trkpt>
        <trkpt lat="29.535758" lon="103.334134"><ele>2500.8057</ele><time>2026-04-03T18:53:03.000Z</time></trkpt>
        <trkpt lat="29.53571" lon="103.334106"><ele>2505.1013</ele><time>2026-04-03T18:53:12.000Z</time></trkpt>
        <trkpt lat="29.535665" lon="103.334078"><ele>2502.2651</ele><time>2026-04-03T18:53:18.000Z</time></trkpt>
        <trkpt lat="29.53567" lon="103.334022"><ele>2504.8508</ele><time>2026-04-03T18:53:33.000Z</time></trkpt>
        <trkpt lat="29.53563" lon="103.333985"><ele>2500.1777</ele><time>2026-04-03T18:53:43.000Z</time></trkpt>
        <trkpt lat="29.535599" lon="103.333938"><ele>2498.3538</ele><time>2026-04-03T18:53:51.000Z</time></trkpt>
        <trkpt lat="29.535581" lon="103.333885"><ele>2502.7874</ele><time>2026-04-03T18:53:58.000Z</time></trkpt>
        <trkpt lat="29.535558" lon="103.333837"><ele>2505.0503</ele><time>2026-04-03T18:54:04.000Z</time></trkpt>
        <trkpt lat="29.535508" lon="103.333805"><ele>2510.539</ele><time>2026-04-03T18:54:09.000Z</time></trkpt>
        <trkpt lat="29.535459" lon="103.333775"><ele>2510.9087</ele><time>2026-04-03T18:54:13.000Z</time></trkpt>
        <trkpt lat="29.535427" lon="103.333726"><ele>2507.6636</ele><time>2026-04-03T18:54:18.000Z</time></trkpt>
        <trkpt lat="29.535401" lon="103.33367"><ele>2507.2515</ele><time>2026-04-03T18:54:24.000Z</time></trkpt>
        <trkpt lat="29.535387" lon="103.333618"><ele>2504.7402</ele><time>2026-04-03T18:54:32.000Z</time></trkpt>
        <trkpt lat="29.53535" lon="103.333585"><ele>2504.178</ele><time>2026-04-03T18:54:43.000Z</time></trkpt>
        <trkpt lat="29.535328" lon="103.333537"><ele>2507.1316</ele><time>2026-04-03T18:55:11.000Z</time></trkpt>
        <trkpt lat="29.535314" lon="103.333481"><ele>2507.6204</ele><time>2026-04-03T18:55:24.000Z</time></trkpt>
        <trkpt lat="29.535287" lon="103.333438"><ele>2507.5176</ele><time>2026-04-03T18:55:30.000Z</time></trkpt>
        <trkpt lat="29.535261" lon="103.333389"><ele>2510.4224</ele><time>2026-04-03T18:55:39.000Z</time></trkpt>
        <trkpt lat="29.535242" lon="103.33334"><ele>2511.2961</ele><time>2026-04-03T18:55:50.000Z</time></trkpt>
        <trkpt lat="29.535215" lon="103.333298"><ele>2514.7021</ele><time>2026-04-03T18:56:04.000Z</time></trkpt>
        <trkpt lat="29.535211" lon="103.333245"><ele>2516.9663</ele><time>2026-04-03T18:56:24.000Z</time></trkpt>
        <trkpt lat="29.535204" lon="103.333192"><ele>2515.5037</ele><time>2026-04-03T18:56:36.000Z</time></trkpt>
        <trkpt lat="29.535197" lon="103.333139"><ele>2515.6477</ele><time>2026-04-03T18:56:46.000Z</time></trkpt>
        <trkpt lat="29.535169" lon="103.333093"><ele>2514.7412</ele><time>2026-04-03T18:57:03.000Z</time></trkpt>
        <trkpt lat="29.535133" lon="103.33305"><ele>2513.559</ele><time>2026-04-03T18:57:10.000Z</time></trkpt>
        <trkpt lat="29.535106" lon="103.333007"><ele>2514.3708</ele><time>2026-04-03T18:57:19.000Z</time></trkpt>
        <trkpt lat="29.535085" lon="103.33296"><ele>2513.1267</ele><time>2026-04-03T18:57:25.000Z</time></trkpt>
        <trkpt lat="29.53504" lon="103.332921"><ele>2514.3142</ele><time>2026-04-03T18:57:32.000Z</time></trkpt>
        <trkpt lat="29.535001" lon="103.332894"><ele>2514.582</ele><time>2026-04-03T18:57:42.000Z</time></trkpt>
        <trkpt lat="29.534953" lon="103.332882"><ele>2518.574</ele><time>2026-04-03T18:57:49.000Z</time></trkpt>
        <trkpt lat="29.534914" lon="103.332915"><ele>2525.1162</ele><time>2026-04-03T18:57:58.000Z</time></trkpt>
        <trkpt lat="29.534876" lon="103.332951"><ele>2526.9548</ele><time>2026-04-03T18:58:06.000Z</time></trkpt>
        <trkpt lat="29.534845" lon="103.332992"><ele>2527.3818</ele><time>2026-04-03T18:58:16.000Z</time></trkpt>
        <trkpt lat="29.534794" lon="103.332991"><ele>2530.7778</ele><time>2026-04-03T18:58:27.000Z</time></trkpt>
        <trkpt lat="29.534768" lon="103.333035"><ele>2528.806</ele><time>2026-04-03T18:58:36.000Z</time></trkpt>
        <trkpt lat="29.534725" lon="103.333059"><ele>2530.2078</ele><time>2026-04-03T18:58:54.000Z</time></trkpt>
        <trkpt lat="29.534683" lon="103.333082"><ele>2533.8445</ele><time>2026-04-03T18:59:08.000Z</time></trkpt>
        <trkpt lat="29.534631" lon="103.333097"><ele>2532.9568</ele><time>2026-04-03T18:59:23.000Z</time></trkpt>
        <trkpt lat="29.534591" lon="103.33313"><ele>2535.5498</ele><time>2026-04-03T18:59:32.000Z</time></trkpt>
        <trkpt lat="29.534548" lon="103.333157"><ele>2539.2153</ele><time>2026-04-03T18:59:38.000Z</time></trkpt>
        <trkpt lat="29.534515" lon="103.333194"><ele>2541.271</ele><time>2026-04-03T18:59:49.000Z</time></trkpt>
        <trkpt lat="29.534485" lon="103.333233"><ele>2542.603</ele><time>2026-04-03T19:00:00.000Z</time></trkpt>
        <trkpt lat="29.534436" lon="103.333245"><ele>2542.3635</ele><time>2026-04-03T19:00:08.000Z</time></trkpt>
        <trkpt lat="29.534386" lon="103.333248"><ele>2540.667</ele><time>2026-04-03T19:00:17.000Z</time></trkpt>
        <trkpt lat="29.534335" lon="103.33323"><ele>2539.923</ele><time>2026-04-03T19:00:26.000Z</time></trkpt>
        <trkpt lat="29.534293" lon="103.333197"><ele>2540.2578</ele><time>2026-04-03T19:00:33.000Z</time></trkpt>
        <trkpt lat="29.534246" lon="103.333211"><ele>2543.4255</ele><time>2026-04-03T19:00:48.000Z</time></trkpt>
        <trkpt lat="29.534216" lon="103.333249"><ele>2547.0647</ele><time>2026-04-03T19:01:01.000Z</time></trkpt>
        <trkpt lat="29.534171" lon="103.33326"><ele>2551.4429</ele><time>2026-04-03T19:01:15.000Z</time></trkpt>
        <trkpt lat="29.534124" lon="103.333276"><ele>2552.8403</ele><time>2026-04-03T19:01:23.000Z</time></trkpt>
        <trkpt lat="29.53407" lon="103.333273"><ele>2550.2913</ele><time>2026-04-03T19:01:30.000Z</time></trkpt>
        <trkpt lat="29.534023" lon="103.333266"><ele>2551.1855</ele><time>2026-04-03T19:01:37.000Z</time></trkpt>
        <trkpt lat="29.533974" lon="103.333257"><ele>2556.6687</ele><time>2026-04-03T19:01:48.000Z</time></trkpt>
        <trkpt lat="29.53392" lon="103.333241"><ele>2561.4521</ele><time>2026-04-03T19:02:06.000Z</time></trkpt>
        <trkpt lat="29.533884" lon="103.333204"><ele>2564.8667</ele><time>2026-04-03T19:02:19.000Z</time></trkpt>
        <trkpt lat="29.533853" lon="103.333166"><ele>2570.4146</ele><time>2026-04-03T19:02:34.000Z</time></trkpt>
        <trkpt lat="29.533807" lon="103.33314"><ele>2571.6707</ele><time>2026-04-03T19:02:50.000Z</time></trkpt>
        <trkpt lat="29.533767" lon="103.333108"><ele>2571.255</ele><time>2026-04-03T19:03:06.000Z</time></trkpt>
        <trkpt lat="29.533729" lon="103.333076"><ele>2569.5837</ele><time>2026-04-03T19:03:20.000Z</time></trkpt>
        <trkpt lat="29.533689" lon="103.333045"><ele>2570.6687</ele><time>2026-04-03T19:03:36.000Z</time></trkpt>
        <trkpt lat="29.53365" lon="103.333014"><ele>2567.8088</ele><time>2026-04-03T19:03:47.000Z</time></trkpt>
        <trkpt lat="29.533618" lon="103.332976"><ele>2572.0771</ele><time>2026-04-03T19:04:00.000Z</time></trkpt>
        <trkpt lat="29.533572" lon="103.332962"><ele>2584.1997</ele><time>2026-04-03T19:07:05.000Z</time></trkpt>
        <trkpt lat="29.533552" lon="103.332915"><ele>2585.078</ele><time>2026-04-03T19:07:55.000Z</time></trkpt>
        <trkpt lat="29.533526" lon="103.332871"><ele>2583.514</ele><time>2026-04-03T19:08:02.000Z</time></trkpt>
        <trkpt lat="29.533492" lon="103.332822"><ele>2587.3843</ele><time>2026-04-03T19:08:08.000Z</time></trkpt>
        <trkpt lat="29.533447" lon="103.332794"><ele>2588.3835</ele><time>2026-04-03T19:08:22.000Z</time></trkpt>
        <trkpt lat="29.533403" lon="103.332778"><ele>2589.905</ele><time>2026-04-03T19:08:31.000Z</time></trkpt>
        <trkpt lat="29.533352" lon="103.332782"><ele>2590.5432</ele><time>2026-04-03T19:08:44.000Z</time></trkpt>
        <trkpt lat="29.533316" lon="103.332748"><ele>2593.3157</ele><time>2026-04-03T19:08:54.000Z</time></trkpt>
        <trkpt lat="29.53328" lon="103.33271"><ele>2594.3044</ele><time>2026-04-03T19:09:08.000Z</time></trkpt>
        <trkpt lat="29.533255" lon="103.332665"><ele>2595.452</ele><time>2026-04-03T19:09:14.000Z</time></trkpt>
        <trkpt lat="29.533218" lon="103.332635"><ele>2595.1824</ele><time>2026-04-03T19:09:23.000Z</time></trkpt>
        <trkpt lat="29.533176" lon="103.332613"><ele>2598.764</ele><time>2026-04-03T19:09:39.000Z</time></trkpt>
        <trkpt lat="29.533157" lon="103.332566"><ele>2601.613</ele><time>2026-04-03T19:09:50.000Z</time></trkpt>
        <trkpt lat="29.533115" lon="103.332538"><ele>2605.4539</ele><time>2026-04-03T19:10:03.000Z</time></trkpt>
        <trkpt lat="29.53307" lon="103.332522"><ele>2604.1926</ele><time>2026-04-03T19:10:19.000Z</time></trkpt>
        <trkpt lat="29.533023" lon="103.332507"><ele>2603.1758</ele><time>2026-04-03T19:10:27.000Z</time></trkpt>
        <trkpt lat="29.532979" lon="103.332474"><ele>2602.4895</ele><time>2026-04-03T19:10:36.000Z</time></trkpt>
        <trkpt lat="29.532949" lon="103.332434"><ele>2603.3782</ele><time>2026-04-03T19:10:49.000Z</time></trkpt>
        <trkpt lat="29.532921" lon="103.332391"><ele>2608.984</ele><time>2026-04-03T19:10:59.000Z</time></trkpt>
        <trkpt lat="29.53289" lon="103.332349"><ele>2611.5303</ele><time>2026-04-03T19:11:09.000Z</time></trkpt>
        <trkpt lat="29.532877" lon="103.332296"><ele>2615.2534</ele><time>2026-04-03T19:11:20.000Z</time></trkpt>
        <trkpt lat="29.532845" lon="103.332254"><ele>2618.2195</ele><time>2026-04-03T19:11:35.000Z</time></trkpt>
        <trkpt lat="29.532819" lon="103.332208"><ele>2619.3147</ele><time>2026-04-03T19:11:50.000Z</time></trkpt>
        <trkpt lat="29.532788" lon="103.332169"><ele>2618.11</ele><time>2026-04-03T19:12:06.000Z</time></trkpt>
        <trkpt lat="29.532754" lon="103.332127"><ele>2616.9976</ele><time>2026-04-03T19:12:27.000Z</time></trkpt>
        <trkpt lat="29.532723" lon="103.332087"><ele>2615.5928</ele><time>2026-04-03T19:12:40.000Z</time></trkpt>
        <trkpt lat="29.532682" lon="103.332058"><ele>2617.3438</ele><time>2026-04-03T19:12:48.000Z</time></trkpt>
        <trkpt lat="29.532634" lon="103.332041"><ele>2617.4333</ele><time>2026-04-03T19:13:04.000Z</time></trkpt>
        <trkpt lat="29.532593" lon="103.332013"><ele>2617.9578</ele><time>2026-04-03T19:13:21.000Z</time></trkpt>
        <trkpt lat="29.532613" lon="103.331965"><ele>2624.131</ele><time>2026-04-03T19:13:40.000Z</time></trkpt>
        <trkpt lat="29.532596" lon="103.331915"><ele>2629.2883</ele><time>2026-04-03T19:13:50.000Z</time></trkpt>
        <trkpt lat="29.532584" lon="103.33186"><ele>2631.9138</ele><time>2026-04-03T19:14:12.000Z</time></trkpt>
        <trkpt lat="29.532582" lon="103.331806"><ele>2636.0588</ele><time>2026-04-03T19:14:24.000Z</time></trkpt>
        <trkpt lat="29.532558" lon="103.331756"><ele>2637.8992</ele><time>2026-04-03T19:14:32.000Z</time></trkpt>
        <trkpt lat="29.532538" lon="103.331707"><ele>2641.474</ele><time>2026-04-03T19:14:48.000Z</time></trkpt>
        <trkpt lat="29.532496" lon="103.331675"><ele>2642.6396</ele><time>2026-04-03T19:14:55.000Z</time></trkpt>
        <trkpt lat="29.532478" lon="103.331619"><ele>2648.3413</ele><time>2026-04-03T19:15:11.000Z</time></trkpt>
        <trkpt lat="29.532471" lon="103.331567"><ele>2647.6633</ele><time>2026-04-03T19:15:33.000Z</time></trkpt>
        <trkpt lat="29.532447" lon="103.331519"><ele>2649.1965</ele><time>2026-04-03T19:15:52.000Z</time></trkpt>
        <trkpt lat="29.532428" lon="103.331469"><ele>2649.9863</ele><time>2026-04-03T19:16:05.000Z</time></trkpt>
        <trkpt lat="29.532425" lon="103.331417"><ele>2651.5203</ele><time>2026-04-03T19:16:16.000Z</time></trkpt>
        <trkpt lat="29.532385" lon="103.331386"><ele>2653.4883</ele><time>2026-04-03T19:16:28.000Z</time></trkpt>
        <trkpt lat="29.532363" lon="103.33134"><ele>2652.7046</ele><time>2026-04-03T19:16:38.000Z</time></trkpt>
        <trkpt lat="29.532358" lon="103.331283"><ele>2657.3105</ele><time>2026-04-03T19:16:52.000Z</time></trkpt>
        <trkpt lat="29.532355" lon="103.331224"><ele>2657.081</ele><time>2026-04-03T19:17:02.000Z</time></trkpt>
        <trkpt lat="29.532301" lon="103.331237"><ele>2660.5552</ele><time>2026-04-03T19:17:19.000Z</time></trkpt>
        <trkpt lat="29.532277" lon="103.331287"><ele>2656.5916</ele><time>2026-04-03T19:17:29.000Z</time></trkpt>
        <trkpt lat="29.532247" lon="103.331328"><ele>2656.2754</ele><time>2026-04-03T19:17:44.000Z</time></trkpt>
        <trkpt lat="29.532234" lon="103.331386"><ele>2657.7705</ele><time>2026-04-03T19:17:58.000Z</time></trkpt>
        <trkpt lat="29.532245" lon="103.331439"><ele>2659.8699</ele><time>2026-04-03T19:18:11.000Z</time></trkpt>
        <trkpt lat="29.532217" lon="103.33138"><ele>2668.354</ele><time>2026-04-03T19:18:35.000Z</time></trkpt>
        <trkpt lat="29.532212" lon="103.331328"><ele>2667.456</ele><time>2026-04-03T19:18:47.000Z</time></trkpt>
        <trkpt lat="29.532226" lon="103.331278"><ele>2665.6687</ele><time>2026-04-03T19:19:04.000Z</time></trkpt>
        <trkpt lat="29.532211" lon="103.331225"><ele>2671.3918</ele><time>2026-04-03T19:19:16.000Z</time></trkpt>
        <trkpt lat="29.532219" lon="103.331169"><ele>2673.6294</ele><time>2026-04-03T19:19:28.000Z</time></trkpt>
        <trkpt lat="29.532208" lon="103.331106"><ele>2671.6143</ele><time>2026-04-03T19:19:36.000Z</time></trkpt>
        <trkpt lat="29.532185" lon="103.331062"><ele>2673.26</ele><time>2026-04-03T19:19:48.000Z</time></trkpt>
        <trkpt lat="29.532204" lon="103.331011"><ele>2673.8557</ele><time>2026-04-03T19:19:59.000Z</time></trkpt>
        <trkpt lat="29.532193" lon="103.330954"><ele>2675.419</ele><time>2026-04-03T19:20:12.000Z</time></trkpt>
        <trkpt lat="29.532196" lon="103.330895"><ele>2675.195</ele><time>2026-04-03T19:20:20.000Z</time></trkpt>
        <trkpt lat="29.532223" lon="103.330843"><ele>2674.7642</ele><time>2026-04-03T19:20:28.000Z</time></trkpt>
        <trkpt lat="29.532216" lon="103.33079"><ele>2675.145</ele><time>2026-04-03T19:20:35.000Z</time></trkpt>
        <trkpt lat="29.532222" lon="103.330734"><ele>2678.197</ele><time>2026-04-03T19:20:46.000Z</time></trkpt>
        <trkpt lat="29.532224" lon="103.330677"><ele>2678.4758</ele><time>2026-04-03T19:21:00.000Z</time></trkpt>
        <trkpt lat="29.532211" lon="103.330627"><ele>2679.6365</ele><time>2026-04-03T19:21:17.000Z</time></trkpt>
        <trkpt lat="29.532211" lon="103.330573"><ele>2680.48</ele><time>2026-04-03T19:21:33.000Z</time></trkpt>
        <trkpt lat="29.532172" lon="103.330538"><ele>2679.7458</ele><time>2026-04-03T19:21:44.000Z</time></trkpt>
        <trkpt lat="29.532134" lon="103.330501"><ele>2679.327</ele><time>2026-04-03T19:21:51.000Z</time></trkpt>
        <trkpt lat="29.532148" lon="103.33045"><ele>2685.4434</ele><time>2026-04-03T19:22:12.000Z</time></trkpt>
        <trkpt lat="29.532157" lon="103.330398"><ele>2693.1816</ele><time>2026-04-03T19:22:30.000Z</time></trkpt>
        <trkpt lat="29.532187" lon="103.330355"><ele>2694.98</ele><time>2026-04-03T19:22:54.000Z</time></trkpt>
        <trkpt lat="29.532217" lon="103.330316"><ele>2691.4192</ele><time>2026-04-03T19:23:18.000Z</time></trkpt>
        <trkpt lat="29.532176" lon="103.330293"><ele>2692.5144</ele><time>2026-04-03T19:25:33.000Z</time></trkpt>
        <trkpt lat="29.53221" lon="103.33033"><ele>2692.299</ele><time>2026-04-03T19:25:57.000Z</time></trkpt>
        <trkpt lat="29.532165" lon="103.330302"><ele>2691.2168</ele><time>2026-04-03T19:27:09.000Z</time></trkpt>
        <trkpt lat="29.532116" lon="103.330308"><ele>2694.0889</ele><time>2026-04-03T19:27:27.000Z</time></trkpt>
        <trkpt lat="29.532068" lon="103.33031"><ele>2698.3425</ele><time>2026-04-03T19:27:47.000Z</time></trkpt>
        <trkpt lat="29.532021" lon="103.33031"><ele>2700.6238</ele><time>2026-04-03T19:27:59.000Z</time></trkpt>
        <trkpt lat="29.531971" lon="103.330306"><ele>2703.083</ele><time>2026-04-03T19:28:20.000Z</time></trkpt>
        <trkpt lat="29.531925" lon="103.330273"><ele>2705.5015</ele><time>2026-04-03T19:28:35.000Z</time></trkpt>
        <trkpt lat="29.53188" lon="103.330284"><ele>2702.9714</ele><time>2026-04-03T19:28:54.000Z</time></trkpt>
        <trkpt lat="29.531842" lon="103.330254"><ele>2702.495</ele><time>2026-04-03T19:29:12.000Z</time></trkpt>
        <trkpt lat="29.531797" lon="103.33023"><ele>2702.469</ele><time>2026-04-03T19:29:22.000Z</time></trkpt>
        <trkpt lat="29.531757" lon="103.330203"><ele>2703.5637</ele><time>2026-04-03T19:29:31.000Z</time></trkpt>
        <trkpt lat="29.531717" lon="103.330168"><ele>2706.0176</ele><time>2026-04-03T19:29:42.000Z</time></trkpt>
        <trkpt lat="29.531674" lon="103.330146"><ele>2709.574</ele><time>2026-04-03T19:29:56.000Z</time></trkpt>
        <trkpt lat="29.531615" lon="103.330125"><ele>2709.323</ele><time>2026-04-03T19:30:05.000Z</time></trkpt>
        <trkpt lat="29.531579" lon="103.33009"><ele>2716.2988</ele><time>2026-04-03T19:30:47.000Z</time></trkpt>
        <trkpt lat="29.531538" lon="103.330068"><ele>2717.4883</ele><time>2026-04-03T19:31:11.000Z</time></trkpt>
        <trkpt lat="29.531487" lon="103.330061"><ele>2720.9187</ele><time>2026-04-03T19:31:33.000Z</time></trkpt>
        <trkpt lat="29.531456" lon="103.330023"><ele>2727.3323</ele><time>2026-04-03T19:32:01.000Z</time></trkpt>
        <trkpt lat="29.531424" lon="103.329982"><ele>2728.9124</ele><time>2026-04-03T19:32:29.000Z</time></trkpt>
        <trkpt lat="29.531382" lon="103.329959"><ele>2732.718</ele><time>2026-04-03T19:32:46.000Z</time></trkpt>
        <trkpt lat="29.531348" lon="103.329924"><ele>2734.8887</ele><time>2026-04-03T19:33:10.000Z</time></trkpt>
        <trkpt lat="29.531322" lon="103.329881"><ele>2737.304</ele><time>2026-04-03T19:34:05.000Z</time></trkpt>
        <trkpt lat="29.531309" lon="103.329831"><ele>2743.0024</ele><time>2026-04-03T19:34:26.000Z</time></trkpt>
        <trkpt lat="29.531283" lon="103.329785"><ele>2747.474</ele><time>2026-04-03T19:34:54.000Z</time></trkpt>
        <trkpt lat="29.531252" lon="103.329747"><ele>2748.8909</ele><time>2026-04-03T19:35:06.000Z</time></trkpt>
        <trkpt lat="29.531235" lon="103.329697"><ele>2755.3188</ele><time>2026-04-03T19:35:23.000Z</time></trkpt>
        <trkpt lat="29.531205" lon="103.329652"><ele>2757.3801</ele><time>2026-04-03T19:35:44.000Z</time></trkpt>
        <trkpt lat="29.531199" lon="103.329599"><ele>2761.5881</ele><time>2026-04-03T19:36:04.000Z</time></trkpt>
        <trkpt lat="29.531179" lon="103.329552"><ele>2760.9023</ele><time>2026-04-03T19:36:14.000Z</time></trkpt>
        <trkpt lat="29.531167" lon="103.3295"><ele>2759.9202</ele><time>2026-04-03T19:36:23.000Z</time></trkpt>
        <trkpt lat="29.531169" lon="103.329448"><ele>2759.1343</ele><time>2026-04-03T19:36:33.000Z</time></trkpt>
        <trkpt lat="29.531161" lon="103.329397"><ele>2760.3213</ele><time>2026-04-03T19:36:42.000Z</time></trkpt>
        <trkpt lat="29.531154" lon="103.329341"><ele>2762.1697</ele><time>2026-04-03T19:36:52.000Z</time></trkpt>
        <trkpt lat="29.531147" lon="103.329281"><ele>2763.2556</ele><time>2026-04-03T19:37:02.000Z</time></trkpt>
        <trkpt lat="29.531142" lon="103.32923"><ele>2766.9146</ele><time>2026-04-03T19:37:11.000Z</time></trkpt>
        <trkpt lat="29.531135" lon="103.329178"><ele>2767.7488</ele><time>2026-04-03T19:37:21.000Z</time></trkpt>
        <trkpt lat="29.531136" lon="103.329121"><ele>2766.684</ele><time>2026-04-03T19:37:33.000Z</time></trkpt>
        <trkpt lat="29.531127" lon="103.329069"><ele>2769.3677</ele><time>2026-04-03T19:37:45.000Z</time></trkpt>
        <trkpt lat="29.531118" lon="103.329012"><ele>2769.9546</ele><time>2026-04-03T19:37:59.000Z</time></trkpt>
        <trkpt lat="29.531136" lon="103.328964"><ele>2770.9033</ele><time>2026-04-03T19:38:08.000Z</time></trkpt>
        <trkpt lat="29.53115" lon="103.328912"><ele>2772.0007</ele><time>2026-04-03T19:38:19.000Z</time></trkpt>
        <trkpt lat="29.53115" lon="103.328859"><ele>2771.2532</ele><time>2026-04-03T19:38:30.000Z</time></trkpt>
        <trkpt lat="29.531167" lon="103.328811"><ele>2772.515</ele><time>2026-04-03T19:38:45.000Z</time></trkpt>
        <trkpt lat="29.53119" lon="103.328766"><ele>2776.8564</ele><time>2026-04-03T19:38:58.000Z</time></trkpt>
        <trkpt lat="29.531195" lon="103.328711"><ele>2777.0603</ele><time>2026-04-03T19:39:09.000Z</time></trkpt>
        <trkpt lat="29.531201" lon="103.328658"><ele>2778.6304</ele><time>2026-04-03T19:39:23.000Z</time></trkpt>
        <trkpt lat="29.531207" lon="103.328603"><ele>2779.405</ele><time>2026-04-03T19:39:38.000Z</time></trkpt>
        <trkpt lat="29.531221" lon="103.328548"><ele>2780.526</ele><time>2026-04-03T19:39:50.000Z</time></trkpt>
        <trkpt lat="29.531254" lon="103.328511"><ele>2785.661</ele><time>2026-04-03T19:39:59.000Z</time></trkpt>
        <trkpt lat="29.531267" lon="103.32846"><ele>2786.979</ele><time>2026-04-03T19:40:09.000Z</time></trkpt>
        <trkpt lat="29.531267" lon="103.328398"><ele>2784.6497</ele><time>2026-04-03T19:40:20.000Z</time></trkpt>
        <trkpt lat="29.531289" lon="103.328345"><ele>2785.8376</ele><time>2026-04-03T19:40:29.000Z</time></trkpt>
        <trkpt lat="29.531288" lon="103.328286"><ele>2784.95</ele><time>2026-04-03T19:40:37.000Z</time></trkpt>
        <trkpt lat="29.531276" lon="103.328223"><ele>2784.9316</ele><time>2026-04-03T19:40:46.000Z</time></trkpt>
        <trkpt lat="29.531279" lon="103.328161"><ele>2784.536</ele><time>2026-04-03T19:40:53.000Z</time></trkpt>
        <trkpt lat="29.53129" lon="103.32811"><ele>2784.519</ele><time>2026-04-03T19:41:01.000Z</time></trkpt>
        <trkpt lat="29.531311" lon="103.32806"><ele>2788.9587</ele><time>2026-04-03T19:41:14.000Z</time></trkpt>
        <trkpt lat="29.531296" lon="103.328008"><ele>2789.3577</ele><time>2026-04-03T19:41:24.000Z</time></trkpt>
        <trkpt lat="29.531267" lon="103.327959"><ele>2786.7896</ele><time>2026-04-03T19:41:32.000Z</time></trkpt>
        <trkpt lat="29.53126" lon="103.327906"><ele>2787.3782</ele><time>2026-04-03T19:41:44.000Z</time></trkpt>
        <trkpt lat="29.531259" lon="103.327854"><ele>2786.7483</ele><time>2026-04-03T19:41:56.000Z</time></trkpt>
        <trkpt lat="29.531278" lon="103.327801"><ele>2791.777</ele><time>2026-04-03T19:42:08.000Z</time></trkpt>
        <trkpt lat="29.531284" lon="103.327745"><ele>2796.3623</ele><time>2026-04-03T19:42:21.000Z</time></trkpt>
        <trkpt lat="29.53129" lon="103.327688"><ele>2797.9854</ele><time>2026-04-03T19:42:41.000Z</time></trkpt>
        <trkpt lat="29.531287" lon="103.327636"><ele>2798.9985</ele><time>2026-04-03T19:42:54.000Z</time></trkpt>
        <trkpt lat="29.531274" lon="103.327583"><ele>2802.4492</ele><time>2026-04-03T19:43:10.000Z</time></trkpt>
        <trkpt lat="29.531259" lon="103.327534"><ele>2801.984</ele><time>2026-04-03T19:43:27.000Z</time></trkpt>
        <trkpt lat="29.531273" lon="103.327484"><ele>2802.451</ele><time>2026-04-03T19:43:50.000Z</time></trkpt>
        <trkpt lat="29.531265" lon="103.327432"><ele>2801.7915</ele><time>2026-04-03T19:44:09.000Z</time></trkpt>
        <trkpt lat="29.531256" lon="103.32738"><ele>2805.3354</ele><time>2026-04-03T19:44:25.000Z</time></trkpt>
        <trkpt lat="29.531246" lon="103.327326"><ele>2804.9631</ele><time>2026-04-03T19:44:37.000Z</time></trkpt>
        <trkpt lat="29.531227" lon="103.327277"><ele>2805.187</ele><time>2026-04-03T19:44:50.000Z</time></trkpt>
        <trkpt lat="29.531208" lon="103.327228"><ele>2804.072</ele><time>2026-04-03T19:45:05.000Z</time></trkpt>
        <trkpt lat="29.531173" lon="103.327194"><ele>2803.4626</ele><time>2026-04-03T19:45:13.000Z</time></trkpt>
        <trkpt lat="29.531125" lon="103.327174"><ele>2804.711</ele><time>2026-04-03T19:45:24.000Z</time></trkpt>
        <trkpt lat="29.531087" lon="103.327146"><ele>2803.007</ele><time>2026-04-03T19:45:37.000Z</time></trkpt>
        <trkpt lat="29.531043" lon="103.327132"><ele>2803.402</ele><time>2026-04-03T19:45:46.000Z</time></trkpt>
        <trkpt lat="29.530994" lon="103.327133"><ele>2805.8955</ele><time>2026-04-03T19:45:54.000Z</time></trkpt>
        <trkpt lat="29.531038" lon="103.327158"><ele>2815.9946</ele><time>2026-04-03T19:46:31.000Z</time></trkpt>
        <trkpt lat="29.531004" lon="103.327124"><ele>2818.1316</ele><time>2026-04-03T19:48:27.000Z</time></trkpt>
        <trkpt lat="29.531134" lon="103.327014"><ele>2823.4507</ele><time>2026-04-03T19:56:56.000Z</time></trkpt>
        <trkpt lat="29.531027" lon="103.32711"><ele>2807.8638</ele><time>2026-04-03T19:57:17.000Z</time></trkpt>
        <trkpt lat="29.530984" lon="103.327128"><ele>2811.8254</ele><time>2026-04-03T19:58:20.000Z</time></trkpt>
        <trkpt lat="29.530973" lon="103.327074"><ele>2817.1675</ele><time>2026-04-03T19:58:41.000Z</time></trkpt>
        <trkpt lat="29.530923" lon="103.327048"><ele>2814.083</ele><time>2026-04-03T19:58:54.000Z</time></trkpt>
        <trkpt lat="29.530876" lon="103.327031"><ele>2815.7937</ele><time>2026-04-03T19:59:06.000Z</time></trkpt>
        <trkpt lat="29.530855" lon="103.326985"><ele>2816.0073</ele><time>2026-04-03T19:59:25.000Z</time></trkpt>
        <trkpt lat="29.530839" lon="103.326935"><ele>2819.6023</ele><time>2026-04-03T19:59:50.000Z</time></trkpt>
        <trkpt lat="29.530801" lon="103.326908"><ele>2819.2131</ele><time>2026-04-03T20:00:08.000Z</time></trkpt>
        <trkpt lat="29.530755" lon="103.326893"><ele>2821.6533</ele><time>2026-04-03T20:00:23.000Z</time></trkpt>
        <trkpt lat="29.530712" lon="103.326907"><ele>2826.1963</ele><time>2026-04-03T20:00:41.000Z</time></trkpt>
        <trkpt lat="29.530667" lon="103.326921"><ele>2829.4343</ele><time>2026-04-03T20:00:54.000Z</time></trkpt>
        <trkpt lat="29.530619" lon="103.326933"><ele>2831.7075</ele><time>2026-04-03T20:01:04.000Z</time></trkpt>
        <trkpt lat="29.530574" lon="103.326941"><ele>2833.4307</ele><time>2026-04-03T20:01:15.000Z</time></trkpt>
        <trkpt lat="29.530535" lon="103.32697"><ele>2833.854</ele><time>2026-04-03T20:01:32.000Z</time></trkpt>
        <trkpt lat="29.530493" lon="103.326991"><ele>2835.176</ele><time>2026-04-03T20:01:45.000Z</time></trkpt>
        <trkpt lat="29.53045" lon="103.327014"><ele>2834.4597</ele><time>2026-04-03T20:01:53.000Z</time></trkpt>
        <trkpt lat="29.530403" lon="103.327031"><ele>2835.399</ele><time>2026-04-03T20:02:05.000Z</time></trkpt>
        <trkpt lat="29.530358" lon="103.327041"><ele>2838.0654</ele><time>2026-04-03T20:02:15.000Z</time></trkpt>
        <trkpt lat="29.530312" lon="103.327061"><ele>2839.9768</ele><time>2026-04-03T20:02:26.000Z</time></trkpt>
        <trkpt lat="29.530273" lon="103.327091"><ele>2843.978</ele><time>2026-04-03T20:02:37.000Z</time></trkpt>
        <trkpt lat="29.530228" lon="103.327114"><ele>2845.742</ele><time>2026-04-03T20:02:44.000Z</time></trkpt>
        <trkpt lat="29.530186" lon="103.327154"><ele>2848.825</ele><time>2026-04-03T20:02:53.000Z</time></trkpt>
        <trkpt lat="29.530136" lon="103.327178"><ele>2850.994</ele><time>2026-04-03T20:03:02.000Z</time></trkpt>
        <trkpt lat="29.530095" lon="103.327212"><ele>2851.155</ele><time>2026-04-03T20:03:11.000Z</time></trkpt>
        <trkpt lat="29.530055" lon="103.327239"><ele>2853.5579</ele><time>2026-04-03T20:03:18.000Z</time></trkpt>
        <trkpt lat="29.530014" lon="103.32727"><ele>2856.6282</ele><time>2026-04-03T20:03:24.000Z</time></trkpt>
        <trkpt lat="29.529976" lon="103.327311"><ele>2857.306</ele><time>2026-04-03T20:03:34.000Z</time></trkpt>
        <trkpt lat="29.529947" lon="103.327358"><ele>2857.4138</ele><time>2026-04-03T20:03:42.000Z</time></trkpt>
        <trkpt lat="29.529942" lon="103.327414"><ele>2856.9612</ele><time>2026-04-03T20:03:47.000Z</time></trkpt>
        <trkpt lat="29.529941" lon="103.327484"><ele>2854.4255</ele><time>2026-04-03T20:03:54.000Z</time></trkpt>
        <trkpt lat="29.529914" lon="103.32753"><ele>2854.3684</ele><time>2026-04-03T20:03:59.000Z</time></trkpt>
        <trkpt lat="29.529888" lon="103.327584"><ele>2856.9895</ele><time>2026-04-03T20:04:06.000Z</time></trkpt>
        <trkpt lat="29.529858" lon="103.327629"><ele>2859.231</ele><time>2026-04-03T20:04:12.000Z</time></trkpt>
        <trkpt lat="29.52984" lon="103.327681"><ele>2862.9463</ele><time>2026-04-03T20:04:22.000Z</time></trkpt>
        <trkpt lat="29.529818" lon="103.32773"><ele>2864.3643</ele><time>2026-04-03T20:04:31.000Z</time></trkpt>
        <trkpt lat="29.529782" lon="103.327782"><ele>2867.4375</ele><time>2026-04-03T20:04:40.000Z</time></trkpt>
        <trkpt lat="29.529776" lon="103.327834"><ele>2864.2778</ele><time>2026-04-03T20:04:54.000Z</time></trkpt>
        <trkpt lat="29.529728" lon="103.327869"><ele>2865.736</ele><time>2026-04-03T20:05:00.000Z</time></trkpt>
        <trkpt lat="29.52969" lon="103.327903"><ele>2865.0708</ele><time>2026-04-03T20:05:05.000Z</time></trkpt>
        <trkpt lat="29.529651" lon="103.327933"><ele>2867.3186</ele><time>2026-04-03T20:05:12.000Z</time></trkpt>
        <trkpt lat="29.529598" lon="103.327943"><ele>2867.132</ele><time>2026-04-03T20:05:17.000Z</time></trkpt>
        <trkpt lat="29.529552" lon="103.327937"><ele>2865.0183</ele><time>2026-04-03T20:05:23.000Z</time></trkpt>
        <trkpt lat="29.529505" lon="103.327936"><ele>2861.277</ele><time>2026-04-03T20:05:28.000Z</time></trkpt>
        <trkpt lat="29.529453" lon="103.327934"><ele>2859.999</ele><time>2026-04-03T20:05:34.000Z</time></trkpt>
        <trkpt lat="29.529404" lon="103.327925"><ele>2860.833</ele><time>2026-04-03T20:05:39.000Z</time></trkpt>
        <trkpt lat="29.529375" lon="103.327882"><ele>2855.3105</ele><time>2026-04-03T20:05:54.000Z</time></trkpt>
        <trkpt lat="29.529331" lon="103.327891"><ele>2854.283</ele><time>2026-04-03T20:06:02.000Z</time></trkpt>
        <trkpt lat="29.529293" lon="103.327932"><ele>2854.6167</ele><time>2026-04-03T20:06:15.000Z</time></trkpt>
        <trkpt lat="29.529296" lon="103.327984"><ele>2853.98</ele><time>2026-04-03T20:06:29.000Z</time></trkpt>
        <trkpt lat="29.529288" lon="103.328035"><ele>2852.0918</ele><time>2026-04-03T20:06:43.000Z</time></trkpt>
        <trkpt lat="29.529283" lon="103.328092"><ele>2853.7886</ele><time>2026-04-03T20:07:00.000Z</time></trkpt>
        <trkpt lat="29.529255" lon="103.328135"><ele>2856.7634</ele><time>2026-04-03T20:07:13.000Z</time></trkpt>
        <trkpt lat="29.529236" lon="103.328189"><ele>2856.2576</ele><time>2026-04-03T20:07:25.000Z</time></trkpt>
        <trkpt lat="29.529227" lon="103.328242"><ele>2857.2773</ele><time>2026-04-03T20:07:39.000Z</time></trkpt>
        <trkpt lat="29.529213" lon="103.328295"><ele>2856.5496</ele><time>2026-04-03T20:07:48.000Z</time></trkpt>
        <trkpt lat="29.529209" lon="103.328354"><ele>2859.339</ele><time>2026-04-03T20:07:59.000Z</time></trkpt>
        <trkpt lat="29.529198" lon="103.328405"><ele>2864.5586</ele><time>2026-04-03T20:08:10.000Z</time></trkpt>
        <trkpt lat="29.529188" lon="103.32846"><ele>2865.9067</ele><time>2026-04-03T20:08:22.000Z</time></trkpt>
        <trkpt lat="29.529164" lon="103.328506"><ele>2867.2297</ele><time>2026-04-03T20:08:31.000Z</time></trkpt>
        <trkpt lat="29.529145" lon="103.328557"><ele>2870.8257</ele><time>2026-04-03T20:08:43.000Z</time></trkpt>
        <trkpt lat="29.529124" lon="103.328606"><ele>2874.5713</ele><time>2026-04-03T20:08:56.000Z</time></trkpt>
        <trkpt lat="29.529108" lon="103.328657"><ele>2877.1638</ele><time>2026-04-03T20:09:10.000Z</time></trkpt>
        <trkpt lat="29.529076" lon="103.328696"><ele>2879.746</ele><time>2026-04-03T20:09:24.000Z</time></trkpt>
        <trkpt lat="29.529061" lon="103.328746"><ele>2878.3323</ele><time>2026-04-03T20:09:29.000Z</time></trkpt>
        <trkpt lat="29.529048" lon="103.328796"><ele>2877.7402</ele><time>2026-04-03T20:09:36.000Z</time></trkpt>
        <trkpt lat="29.529013" lon="103.328836"><ele>2876.9275</ele><time>2026-04-03T20:09:45.000Z</time></trkpt>
        <trkpt lat="29.528999" lon="103.328888"><ele>2879.3958</ele><time>2026-04-03T20:09:54.000Z</time></trkpt>
        <trkpt lat="29.528985" lon="103.328942"><ele>2880.9795</ele><time>2026-04-03T20:10:04.000Z</time></trkpt>
        <trkpt lat="29.528968" lon="103.328999"><ele>2889.2505</ele><time>2026-04-03T20:10:17.000Z</time></trkpt>
        <trkpt lat="29.528948" lon="103.329048"><ele>2887.9602</ele><time>2026-04-03T20:10:27.000Z</time></trkpt>
        <trkpt lat="29.528911" lon="103.329084"><ele>2889.0952</ele><time>2026-04-03T20:10:36.000Z</time></trkpt>
        <trkpt lat="29.528886" lon="103.329129"><ele>2888.6497</ele><time>2026-04-03T20:10:47.000Z</time></trkpt>
        <trkpt lat="29.528858" lon="103.329172"><ele>2890.7844</ele><time>2026-04-03T20:10:55.000Z</time></trkpt>
        <trkpt lat="29.528827" lon="103.329215"><ele>2895.7012</ele><time>2026-04-03T20:11:08.000Z</time></trkpt>
        <trkpt lat="29.528791" lon="103.329246"><ele>2897.0334</ele><time>2026-04-03T20:11:19.000Z</time></trkpt>
        <trkpt lat="29.528766" lon="103.329294"><ele>2899.1233</ele><time>2026-04-03T20:11:26.000Z</time></trkpt>
        <trkpt lat="29.528745" lon="103.329341"><ele>2899.4253</ele><time>2026-04-03T20:11:34.000Z</time></trkpt>
        <trkpt lat="29.52873" lon="103.32939"><ele>2898.2263</ele><time>2026-04-03T20:11:40.000Z</time></trkpt>
        <trkpt lat="29.528726" lon="103.329442"><ele>2898.579</ele><time>2026-04-03T20:11:45.000Z</time></trkpt>
        <trkpt lat="29.528699" lon="103.329514"><ele>2902.4795</ele><time>2026-04-03T20:11:51.000Z</time></trkpt>
        <trkpt lat="29.52867" lon="103.329571"><ele>2902.5398</ele><time>2026-04-03T20:12:04.000Z</time></trkpt>
        <trkpt lat="29.528644" lon="103.329616"><ele>2903.9326</ele><time>2026-04-03T20:12:10.000Z</time></trkpt>
        <trkpt lat="29.528636" lon="103.329668"><ele>2902.99</ele><time>2026-04-03T20:12:17.000Z</time></trkpt>
        <trkpt lat="29.528636" lon="103.329728"><ele>2901.8672</ele><time>2026-04-03T20:12:25.000Z</time></trkpt>
        <trkpt lat="29.528607" lon="103.32978"><ele>2903.8782</ele><time>2026-04-03T20:12:34.000Z</time></trkpt>
        <trkpt lat="29.528603" lon="103.329835"><ele>2900.8967</ele><time>2026-04-03T20:12:40.000Z</time></trkpt>
        <trkpt lat="29.528621" lon="103.329893"><ele>2901.3845</ele><time>2026-04-03T20:12:46.000Z</time></trkpt>
        <trkpt lat="29.528593" lon="103.329938"><ele>2903.886</ele><time>2026-04-03T20:12:54.000Z</time></trkpt>
        <trkpt lat="29.528588" lon="103.329989"><ele>2904.8228</ele><time>2026-04-03T20:13:02.000Z</time></trkpt>
        <trkpt lat="29.528565" lon="103.330042"><ele>2905.769</ele><time>2026-04-03T20:13:09.000Z</time></trkpt>
        <trkpt lat="29.528537" lon="103.330083"><ele>2903.7612</ele><time>2026-04-03T20:13:14.000Z</time></trkpt>
        <trkpt lat="29.528502" lon="103.330124"><ele>2901.8584</ele><time>2026-04-03T20:13:19.000Z</time></trkpt>
        <trkpt lat="29.528475" lon="103.330177"><ele>2901.6296</ele><time>2026-04-03T20:13:27.000Z</time></trkpt>
        <trkpt lat="29.528446" lon="103.330221"><ele>2901.2178</ele><time>2026-04-03T20:13:38.000Z</time></trkpt>
        <trkpt lat="29.528435" lon="103.330276"><ele>2898.227</ele><time>2026-04-03T20:13:45.000Z</time></trkpt>
        <trkpt lat="29.528417" lon="103.330338"><ele>2900.7256</ele><time>2026-04-03T20:13:52.000Z</time></trkpt>
        <trkpt lat="29.52838" lon="103.330388"><ele>2900.2944</ele><time>2026-04-03T20:13:57.000Z</time></trkpt>
        <trkpt lat="29.528355" lon="103.330444"><ele>2899.6523</ele><time>2026-04-03T20:14:03.000Z</time></trkpt>
        <trkpt lat="29.528316" lon="103.330474"><ele>2903.453</ele><time>2026-04-03T20:14:12.000Z</time></trkpt>
        <trkpt lat="29.52833" lon="103.330527"><ele>2907.5933</ele><time>2026-04-03T20:14:20.000Z</time></trkpt>
        <trkpt lat="29.528318" lon="103.33058"><ele>2913.2317</ele><time>2026-04-03T20:14:26.000Z</time></trkpt>
        <trkpt lat="29.528323" lon="103.330638"><ele>2919.862</ele><time>2026-04-03T20:14:38.000Z</time></trkpt>
        <trkpt lat="29.528314" lon="103.33069"><ele>2916.4983</ele><time>2026-04-03T20:14:46.000Z</time></trkpt>
        <trkpt lat="29.528289" lon="103.330736"><ele>2915.8071</ele><time>2026-04-03T20:15:14.000Z</time></trkpt>
        <trkpt lat="29.528264" lon="103.330781"><ele>2914.1575</ele><time>2026-04-03T20:15:28.000Z</time></trkpt>
        <trkpt lat="29.528228" lon="103.330818"><ele>2916.9749</ele><time>2026-04-03T20:15:44.000Z</time></trkpt>
        <trkpt lat="29.528189" lon="103.330853"><ele>2918.5535</ele><time>2026-04-03T20:15:54.000Z</time></trkpt>
        <trkpt lat="29.528154" lon="103.330894"><ele>2922.41</ele><time>2026-04-03T20:16:04.000Z</time></trkpt>
        <trkpt lat="29.528145" lon="103.330946"><ele>2922.655</ele><time>2026-04-03T20:16:11.000Z</time></trkpt>
        <trkpt lat="29.528139" lon="103.331008"><ele>2920.9739</ele><time>2026-04-03T20:16:19.000Z</time></trkpt>
        <trkpt lat="29.52811" lon="103.331056"><ele>2920.6133</ele><time>2026-04-03T20:16:25.000Z</time></trkpt>
        <trkpt lat="29.528082" lon="103.331105"><ele>2922.475</ele><time>2026-04-03T20:16:33.000Z</time></trkpt>
        <trkpt lat="29.528069" lon="103.331161"><ele>2924.2656</ele><time>2026-04-03T20:16:44.000Z</time></trkpt>
        <trkpt lat="29.528044" lon="103.331206"><ele>2925.3984</ele><time>2026-04-03T20:16:51.000Z</time></trkpt>
        <trkpt lat="29.528032" lon="103.331261"><ele>2924.2693</ele><time>2026-04-03T20:16:59.000Z</time></trkpt>
        <trkpt lat="29.528" lon="103.331304"><ele>2929.6719</ele><time>2026-04-03T20:17:15.000Z</time></trkpt>
        <trkpt lat="29.52796" lon="103.331327"><ele>2930.111</ele><time>2026-04-03T20:17:34.000Z</time></trkpt>
        <trkpt lat="29.527931" lon="103.331369"><ele>2932.9685</ele><time>2026-04-03T20:17:45.000Z</time></trkpt>
        <trkpt lat="29.527893" lon="103.3314"><ele>2934.3872</ele><time>2026-04-03T20:17:55.000Z</time></trkpt>
        <trkpt lat="29.527868" lon="103.331443"><ele>2933.6746</ele><time>2026-04-03T20:18:01.000Z</time></trkpt>
        <trkpt lat="29.527848" lon="103.331498"><ele>2930.1782</ele><time>2026-04-03T20:18:06.000Z</time></trkpt>
        <trkpt lat="29.527821" lon="103.331546"><ele>2929.1035</ele><time>2026-04-03T20:18:15.000Z</time></trkpt>
        <trkpt lat="29.527787" lon="103.331588"><ele>2932.969</ele><time>2026-04-03T20:18:24.000Z</time></trkpt>
        <trkpt lat="29.527759" lon="103.331638"><ele>2934.608</ele><time>2026-04-03T20:18:34.000Z</time></trkpt>
        <trkpt lat="29.527733" lon="103.331691"><ele>2940.4587</ele><time>2026-04-03T20:18:43.000Z</time></trkpt>
        <trkpt lat="29.527715" lon="103.331746"><ele>2944.5178</ele><time>2026-04-03T20:18:50.000Z</time></trkpt>
        <trkpt lat="29.527709" lon="103.3318"><ele>2943.2</ele><time>2026-04-03T20:18:56.000Z</time></trkpt>
        <trkpt lat="29.527706" lon="103.331855"><ele>2942.014</ele><time>2026-04-03T20:19:01.000Z</time></trkpt>
        <trkpt lat="29.527684" lon="103.331909"><ele>2943.8499</ele><time>2026-04-03T20:19:07.000Z</time></trkpt>
        <trkpt lat="29.527698" lon="103.33196"><ele>2939.56</ele><time>2026-04-03T20:19:13.000Z</time></trkpt>
        <trkpt lat="29.527698" lon="103.332019"><ele>2938.1572</ele><time>2026-04-03T20:19:19.000Z</time></trkpt>
        <trkpt lat="29.527695" lon="103.332074"><ele>2938.136</ele><time>2026-04-03T20:19:33.000Z</time></trkpt>
        <trkpt lat="29.52765" lon="103.332101"><ele>2942.0293</ele><time>2026-04-03T20:19:46.000Z</time></trkpt>
        <trkpt lat="29.52762" lon="103.332139"><ele>2939.629</ele><time>2026-04-03T20:20:04.000Z</time></trkpt>
        <trkpt lat="29.527594" lon="103.332187"><ele>2937.3494</ele><time>2026-04-03T20:20:20.000Z</time></trkpt>
        <trkpt lat="29.527575" lon="103.332236"><ele>2939.124</ele><time>2026-04-03T20:20:33.000Z</time></trkpt>
        <trkpt lat="29.527574" lon="103.33229"><ele>2937.0952</ele><time>2026-04-03T20:20:40.000Z</time></trkpt>
        <trkpt lat="29.527587" lon="103.332344"><ele>2936.1096</ele><time>2026-04-03T20:20:52.000Z</time></trkpt>
        <trkpt lat="29.527584" lon="103.332397"><ele>2936.8496</ele><time>2026-04-03T20:21:00.000Z</time></trkpt>
        <trkpt lat="29.527619" lon="103.332431"><ele>2940.451</ele><time>2026-04-03T20:21:09.000Z</time></trkpt>
        <trkpt lat="29.527605" lon="103.332483"><ele>2945.9482</ele><time>2026-04-03T20:21:35.000Z</time></trkpt>
        <trkpt lat="29.527562" lon="103.332504"><ele>2942.9246</ele><time>2026-04-03T20:21:56.000Z</time></trkpt>
        <trkpt lat="29.527525" lon="103.332534"><ele>2939.508</ele><time>2026-04-03T20:22:13.000Z</time></trkpt>
        <trkpt lat="29.527482" lon="103.332551"><ele>2939.4585</ele><time>2026-04-03T20:22:22.000Z</time></trkpt>
        <trkpt lat="29.527442" lon="103.332581"><ele>2946.1228</ele><time>2026-04-03T20:22:34.000Z</time></trkpt>
        <trkpt lat="29.527395" lon="103.33257"><ele>2945.5012</ele><time>2026-04-03T20:22:44.000Z</time></trkpt>
        <trkpt lat="29.527343" lon="103.332557"><ele>2945.5212</ele><time>2026-04-03T20:22:58.000Z</time></trkpt>
        <trkpt lat="29.527293" lon="103.332541"><ele>2949.369</ele><time>2026-04-03T20:23:04.000Z</time></trkpt>
        <trkpt lat="29.527257" lon="103.332506"><ele>2953.4316</ele><time>2026-04-03T20:23:11.000Z</time></trkpt>
        <trkpt lat="29.527262" lon="103.332433"><ele>2954.2405</ele><time>2026-04-03T20:23:16.000Z</time></trkpt>
        <trkpt lat="29.52725" lon="103.332378"><ele>2957.8267</ele><time>2026-04-03T20:23:22.000Z</time></trkpt>
        <trkpt lat="29.527196" lon="103.332374"><ele>2956.6912</ele><time>2026-04-03T20:23:31.000Z</time></trkpt>
        <trkpt lat="29.527148" lon="103.332393"><ele>2956.8066</ele><time>2026-04-03T20:23:38.000Z</time></trkpt>
        <trkpt lat="29.527106" lon="103.332422"><ele>2956.0776</ele><time>2026-04-03T20:23:47.000Z</time></trkpt>
        <trkpt lat="29.527076" lon="103.332463"><ele>2958.4866</ele><time>2026-04-03T20:24:05.000Z</time></trkpt>
        <trkpt lat="29.527058" lon="103.332512"><ele>2959.935</ele><time>2026-04-03T20:24:16.000Z</time></trkpt>
        <trkpt lat="29.527051" lon="103.332571"><ele>2966.902</ele><time>2026-04-03T20:24:27.000Z</time></trkpt>
        <trkpt lat="29.52707" lon="103.332618"><ele>2965.7888</ele><time>2026-04-03T20:24:33.000Z</time></trkpt>
        <trkpt lat="29.527085" lon="103.332673"><ele>2970.657</ele><time>2026-04-03T20:24:41.000Z</time></trkpt>
        <trkpt lat="29.527088" lon="103.33273"><ele>2971.08</ele><time>2026-04-03T20:24:47.000Z</time></trkpt>
        <trkpt lat="29.527086" lon="103.332783"><ele>2973.0781</ele><time>2026-04-03T20:24:55.000Z</time></trkpt>
        <trkpt lat="29.527068" lon="103.332843"><ele>2974.3008</ele><time>2026-04-03T20:25:00.000Z</time></trkpt>
        <trkpt lat="29.527032" lon="103.332894"><ele>2976.2295</ele><time>2026-04-03T20:25:08.000Z</time></trkpt>
        <trkpt lat="29.527028" lon="103.332953"><ele>2977.382</ele><time>2026-04-03T20:25:23.000Z</time></trkpt>
        <trkpt lat="29.527037" lon="103.333007"><ele>2976.616</ele><time>2026-04-03T20:25:31.000Z</time></trkpt>
        <trkpt lat="29.527047" lon="103.333059"><ele>2974.4443</ele><time>2026-04-03T20:25:37.000Z</time></trkpt>
        <trkpt lat="29.527035" lon="103.333116"><ele>2974.021</ele><time>2026-04-03T20:25:43.000Z</time></trkpt>
        <trkpt lat="29.527031" lon="103.333177"><ele>2974.1787</ele><time>2026-04-03T20:25:50.000Z</time></trkpt>
        <trkpt lat="29.527053" lon="103.333231"><ele>2973.2224</ele><time>2026-04-03T20:25:57.000Z</time></trkpt>
        <trkpt lat="29.527073" lon="103.333281"><ele>2971.2898</ele><time>2026-04-03T20:26:05.000Z</time></trkpt>
        <trkpt lat="29.527071" lon="103.333335"><ele>2972.43</ele><time>2026-04-03T20:26:14.000Z</time></trkpt>
        <trkpt lat="29.527069" lon="103.33339"><ele>2972.3413</ele><time>2026-04-03T20:26:31.000Z</time></trkpt>
        <trkpt lat="29.527038" lon="103.333437"><ele>2967.494</ele><time>2026-04-03T20:26:44.000Z</time></trkpt>
        <trkpt lat="29.527004" lon="103.333472"><ele>2967.0056</ele><time>2026-04-03T20:26:52.000Z</time></trkpt>
        <trkpt lat="29.526959" lon="103.333502"><ele>2967.522</ele><time>2026-04-03T20:27:07.000Z</time></trkpt>
        <trkpt lat="29.526915" lon="103.333513"><ele>2970.616</ele><time>2026-04-03T20:27:25.000Z</time></trkpt>
        <trkpt lat="29.526884" lon="103.333554"><ele>2969.8274</ele><time>2026-04-03T20:28:01.000Z</time></trkpt>
        <trkpt lat="29.526836" lon="103.333545"><ele>2967.3523</ele><time>2026-04-03T20:28:18.000Z</time></trkpt>
        <trkpt lat="29.52679" lon="103.33354"><ele>2973.1086</ele><time>2026-04-03T20:28:28.000Z</time></trkpt>
        <trkpt lat="29.526744" lon="103.333541"><ele>2981.0994</ele><time>2026-04-03T20:28:42.000Z</time></trkpt>
        <trkpt lat="29.526698" lon="103.333543"><ele>2986.989</ele><time>2026-04-03T20:29:02.000Z</time></trkpt>
        <trkpt lat="29.526672" lon="103.333587"><ele>2991.2053</ele><time>2026-04-03T20:29:16.000Z</time></trkpt>
        <trkpt lat="29.526623" lon="103.3336"><ele>2994.7456</ele><time>2026-04-03T20:29:26.000Z</time></trkpt>
        <trkpt lat="29.526593" lon="103.333643"><ele>2993.9705</ele><time>2026-04-03T20:29:40.000Z</time></trkpt>
        <trkpt lat="29.526564" lon="103.333684"><ele>2999.1826</ele><time>2026-04-03T20:29:50.000Z</time></trkpt>
        <trkpt lat="29.526516" lon="103.333697"><ele>3001.3274</ele><time>2026-04-03T20:29:57.000Z</time></trkpt>
        <trkpt lat="29.52647" lon="103.333711"><ele>3001.9285</ele><time>2026-04-03T20:30:03.000Z</time></trkpt>
        <trkpt lat="29.526434" lon="103.333745"><ele>3003.094</ele><time>2026-04-03T20:30:49.000Z</time></trkpt>
        <trkpt lat="29.526416" lon="103.333794"><ele>3005.0444</ele><time>2026-04-03T20:31:27.000Z</time></trkpt>
        <trkpt lat="29.526372" lon="103.333779"><ele>3003.5483</ele><time>2026-04-03T20:36:39.000Z</time></trkpt>
        <trkpt lat="29.526346" lon="103.333821"><ele>3002.77</ele><time>2026-04-03T20:36:46.000Z</time></trkpt>
        <trkpt lat="29.526296" lon="103.333827"><ele>3002.4258</ele><time>2026-04-03T20:36:52.000Z</time></trkpt>
        <trkpt lat="29.526244" lon="103.333854"><ele>2999.2776</ele><time>2026-04-03T20:37:01.000Z</time></trkpt>
        <trkpt lat="29.526198" lon="103.333875"><ele>3003.3591</ele><time>2026-04-03T20:37:06.000Z</time></trkpt>
        <trkpt lat="29.526152" lon="103.333882"><ele>3004.2327</ele><time>2026-04-03T20:37:18.000Z</time></trkpt>
        <trkpt lat="29.526118" lon="103.333918"><ele>3002.2576</ele><time>2026-04-03T20:37:26.000Z</time></trkpt>
        <trkpt lat="29.526076" lon="103.333936"><ele>2998.7817</ele><time>2026-04-03T20:37:40.000Z</time></trkpt>
        <trkpt lat="29.526032" lon="103.333959"><ele>2999.0105</ele><time>2026-04-03T20:37:49.000Z</time></trkpt>
        <trkpt lat="29.525994" lon="103.333988"><ele>2999.7947</ele><time>2026-04-03T20:37:58.000Z</time></trkpt>
        <trkpt lat="29.525959" lon="103.33403"><ele>3003.2869</ele><time>2026-04-03T20:38:06.000Z</time></trkpt>
        <trkpt lat="29.525912" lon="103.334032"><ele>3004.3958</ele><time>2026-04-03T20:38:19.000Z</time></trkpt>
        <trkpt lat="29.525881" lon="103.334075"><ele>3003.2415</ele><time>2026-04-03T20:38:28.000Z</time></trkpt>
        <trkpt lat="29.525831" lon="103.334099"><ele>3005.6274</ele><time>2026-04-03T20:38:36.000Z</time></trkpt>
        <trkpt lat="29.525789" lon="103.334127"><ele>3011.0193</ele><time>2026-04-03T20:38:44.000Z</time></trkpt>
        <trkpt lat="29.525751" lon="103.334155"><ele>3013.0872</ele><time>2026-04-03T20:38:58.000Z</time></trkpt>
        <trkpt lat="29.525709" lon="103.334188"><ele>3014.3198</ele><time>2026-04-03T20:39:12.000Z</time></trkpt>
        <trkpt lat="29.525676" lon="103.334227"><ele>3011.1167</ele><time>2026-04-03T20:39:27.000Z</time></trkpt>
        <trkpt lat="29.525643" lon="103.334263"><ele>3008.2263</ele><time>2026-04-03T20:39:45.000Z</time></trkpt>
        <trkpt lat="29.525633" lon="103.334316"><ele>3007.0896</ele><time>2026-04-03T20:39:56.000Z</time></trkpt>
        <trkpt lat="29.525605" lon="103.33436"><ele>3007.1611</ele><time>2026-04-03T20:40:04.000Z</time></trkpt>
        <trkpt lat="29.525571" lon="103.334397"><ele>3006.9167</ele><time>2026-04-03T20:40:13.000Z</time></trkpt>
        <trkpt lat="29.525528" lon="103.334441"><ele>3009.1592</ele><time>2026-04-03T20:40:21.000Z</time></trkpt>
        <trkpt lat="29.525481" lon="103.334478"><ele>3012.621</ele><time>2026-04-03T20:40:33.000Z</time></trkpt>
        <trkpt lat="29.525439" lon="103.334498"><ele>3016.0735</ele><time>2026-04-03T20:40:43.000Z</time></trkpt>
        <trkpt lat="29.52541" lon="103.33455"><ele>3019.7046</ele><time>2026-04-03T20:40:53.000Z</time></trkpt>
        <trkpt lat="29.525373" lon="103.334584"><ele>3019.9106</ele><time>2026-04-03T20:41:03.000Z</time></trkpt>
        <trkpt lat="29.525348" lon="103.334629"><ele>3021.5547</ele><time>2026-04-03T20:41:12.000Z</time></trkpt>
        <trkpt lat="29.525318" lon="103.334671"><ele>3024.9114</ele><time>2026-04-03T20:41:24.000Z</time></trkpt>
        <trkpt lat="29.525286" lon="103.334709"><ele>3023.4446</ele><time>2026-04-03T20:41:34.000Z</time></trkpt>
        <trkpt lat="29.525243" lon="103.334733"><ele>3023.1868</ele><time>2026-04-03T20:41:45.000Z</time></trkpt>
        <trkpt lat="29.52521" lon="103.334769"><ele>3026.0098</ele><time>2026-04-03T20:41:56.000Z</time></trkpt>
        <trkpt lat="29.525171" lon="103.334804"><ele>3031.3826</ele><time>2026-04-03T20:42:12.000Z</time></trkpt>
        <trkpt lat="29.525137" lon="103.334846"><ele>3029.795</ele><time>2026-04-03T20:42:37.000Z</time></trkpt>
        <trkpt lat="29.525098" lon="103.334871"><ele>3033.5076</ele><time>2026-04-03T20:42:48.000Z</time></trkpt>
        <trkpt lat="29.525052" lon="103.334887"><ele>3034.5652</ele><time>2026-04-03T20:43:02.000Z</time></trkpt>
        <trkpt lat="29.525004" lon="103.334909"><ele>3039.5076</ele><time>2026-04-03T20:43:16.000Z</time></trkpt>
        <trkpt lat="29.524951" lon="103.334896"><ele>3040.173</ele><time>2026-04-03T20:43:23.000Z</time></trkpt>
        <trkpt lat="29.524907" lon="103.334875"><ele>3039.27</ele><time>2026-04-03T20:43:28.000Z</time></trkpt>
        <trkpt lat="29.524865" lon="103.334848"><ele>3034.8328</ele><time>2026-04-03T20:43:33.000Z</time></trkpt>
        <trkpt lat="29.524838" lon="103.334802"><ele>3035.7263</ele><time>2026-04-03T20:43:40.000Z</time></trkpt>
        <trkpt lat="29.524827" lon="103.33475"><ele>3035.385</ele><time>2026-04-03T20:43:48.000Z</time></trkpt>
        <trkpt lat="29.524777" lon="103.334762"><ele>3031.3481</ele><time>2026-04-03T20:43:53.000Z</time></trkpt>
        <trkpt lat="29.524729" lon="103.334766"><ele>3030.5886</ele><time>2026-04-03T20:44:00.000Z</time></trkpt>
        <trkpt lat="29.524685" lon="103.334783"><ele>3028.342</ele><time>2026-04-03T20:44:10.000Z</time></trkpt>
        <trkpt lat="29.524652" lon="103.334824"><ele>3032.5518</ele><time>2026-04-03T20:44:23.000Z</time></trkpt>
        <trkpt lat="29.524602" lon="103.334832"><ele>3035.9773</ele><time>2026-04-03T20:44:30.000Z</time></trkpt>
        <trkpt lat="29.524556" lon="103.334842"><ele>3039.9783</ele><time>2026-04-03T20:44:41.000Z</time></trkpt>
        <trkpt lat="29.524519" lon="103.334876"><ele>3045.7876</ele><time>2026-04-03T20:44:51.000Z</time></trkpt>
        <trkpt lat="29.524487" lon="103.334919"><ele>3048.8044</ele><time>2026-04-03T20:45:01.000Z</time></trkpt>
        <trkpt lat="29.524445" lon="103.334946"><ele>3049.1638</ele><time>2026-04-03T20:45:07.000Z</time></trkpt>
        <trkpt lat="29.524396" lon="103.334954"><ele>3049.944</ele><time>2026-04-03T20:45:12.000Z</time></trkpt>
        <trkpt lat="29.524349" lon="103.33496"><ele>3047.4883</ele><time>2026-04-03T20:45:18.000Z</time></trkpt>
        <trkpt lat="29.524297" lon="103.334968"><ele>3048.8687</ele><time>2026-04-03T20:45:22.000Z</time></trkpt>
        <trkpt lat="29.524247" lon="103.33497"><ele>3048.2388</ele><time>2026-04-03T20:45:27.000Z</time></trkpt>
        <trkpt lat="29.524202" lon="103.33498"><ele>3045.5962</ele><time>2026-04-03T20:45:33.000Z</time></trkpt>
        <trkpt lat="29.524144" lon="103.334973"><ele>3048.281</ele><time>2026-04-03T20:45:38.000Z</time></trkpt>
        <trkpt lat="29.524102" lon="103.334949"><ele>3049.9001</ele><time>2026-04-03T20:45:42.000Z</time></trkpt>
        <trkpt lat="29.524047" lon="103.33493"><ele>3047.2139</ele><time>2026-04-03T20:45:53.000Z</time></trkpt>
        <trkpt lat="29.523999" lon="103.334944"><ele>3048.4736</ele><time>2026-04-03T20:46:08.000Z</time></trkpt>
        <trkpt lat="29.523957" lon="103.334964"><ele>3046.3364</ele><time>2026-04-03T20:46:15.000Z</time></trkpt>
        <trkpt lat="29.523908" lon="103.33498"><ele>3046.7458</ele><time>2026-04-03T20:46:20.000Z</time></trkpt>
        <trkpt lat="29.523858" lon="103.334965"><ele>3046.9868</ele><time>2026-04-03T20:46:36.000Z</time></trkpt>
        <trkpt lat="29.523809" lon="103.334974"><ele>3047.4348</ele><time>2026-04-03T20:46:45.000Z</time></trkpt>
        <trkpt lat="29.523754" lon="103.334972"><ele>3051.8447</ele><time>2026-04-03T20:46:52.000Z</time></trkpt>
        <trkpt lat="29.523708" lon="103.334964"><ele>3053.3682</ele><time>2026-04-03T20:46:58.000Z</time></trkpt>
        <trkpt lat="29.523662" lon="103.334943"><ele>3050.2166</ele><time>2026-04-03T20:47:11.000Z</time></trkpt>
        <trkpt lat="29.523609" lon="103.334943"><ele>3049.7568</ele><time>2026-04-03T20:47:25.000Z</time></trkpt>
        <trkpt lat="29.52356" lon="103.334932"><ele>3046.0452</ele><time>2026-04-03T20:47:33.000Z</time></trkpt>
        <trkpt lat="29.523509" lon="103.334936"><ele>3043.2532</ele><time>2026-04-03T20:47:38.000Z</time></trkpt>
        <trkpt lat="29.523463" lon="103.33494"><ele>3042.1272</ele><time>2026-04-03T20:47:45.000Z</time></trkpt>
        <trkpt lat="29.523414" lon="103.334946"><ele>3040.6184</ele><time>2026-04-03T20:47:53.000Z</time></trkpt>
        <trkpt lat="29.523379" lon="103.334912"><ele>3039.511</ele><time>2026-04-03T20:48:02.000Z</time></trkpt>
        <trkpt lat="29.523334" lon="103.334903"><ele>3040.0388</ele><time>2026-04-03T20:48:10.000Z</time></trkpt>
        <trkpt lat="29.523282" lon="103.334879"><ele>3040.5151</ele><time>2026-04-03T20:48:16.000Z</time></trkpt>
        <trkpt lat="29.523245" lon="103.33485"><ele>3040.298</ele><time>2026-04-03T20:48:21.000Z</time></trkpt>
        <trkpt lat="29.523198" lon="103.334843"><ele>3044.5977</ele><time>2026-04-03T20:48:56.000Z</time></trkpt>
        <trkpt lat="29.523157" lon="103.334814"><ele>3045.9795</ele><time>2026-04-03T20:49:11.000Z</time></trkpt>
        <trkpt lat="29.523108" lon="103.334806"><ele>3045.2283</ele><time>2026-04-03T20:49:16.000Z</time></trkpt>
        <trkpt lat="29.523049" lon="103.33479"><ele>3043.8464</ele><time>2026-04-03T20:49:26.000Z</time></trkpt>
        <trkpt lat="29.523004" lon="103.334781"><ele>3049.1802</ele><time>2026-04-03T20:49:36.000Z</time></trkpt>
        <trkpt lat="29.522958" lon="103.334784"><ele>3054.32</ele><time>2026-04-03T20:49:50.000Z</time></trkpt>
        <trkpt lat="29.52291" lon="103.33478"><ele>3055.9578</ele><time>2026-04-03T20:50:00.000Z</time></trkpt>
        <trkpt lat="29.522865" lon="103.334803"><ele>3057.1604</ele><time>2026-04-03T20:50:10.000Z</time></trkpt>
        <trkpt lat="29.52282" lon="103.334811"><ele>3055.5122</ele><time>2026-04-03T20:51:18.000Z</time></trkpt>
        <trkpt lat="29.522779" lon="103.334841"><ele>3056.427</ele><time>2026-04-03T20:51:36.000Z</time></trkpt>
        <trkpt lat="29.522734" lon="103.334849"><ele>3055.904</ele><time>2026-04-03T20:51:43.000Z</time></trkpt>
        <trkpt lat="29.522703" lon="103.334903"><ele>3055.3108</ele><time>2026-04-03T20:51:49.000Z</time></trkpt>
        <trkpt lat="29.522678" lon="103.334948"><ele>3053.6418</ele><time>2026-04-03T20:51:55.000Z</time></trkpt>
        <trkpt lat="29.522687" lon="103.335004"><ele>3054.088</ele><time>2026-04-03T20:52:01.000Z</time></trkpt>
        <trkpt lat="29.522694" lon="103.335061"><ele>3059.0625</ele><time>2026-04-03T20:52:08.000Z</time></trkpt>
        <trkpt lat="29.522691" lon="103.335118"><ele>3060.0237</ele><time>2026-04-03T20:52:15.000Z</time></trkpt>
        <trkpt lat="29.522707" lon="103.335171"><ele>3062.2256</ele><time>2026-04-03T20:52:22.000Z</time></trkpt>
        <trkpt lat="29.522735" lon="103.335224"><ele>3064.24</ele><time>2026-04-03T20:52:31.000Z</time></trkpt>
        <trkpt lat="29.522741" lon="103.335283"><ele>3068.5017</ele><time>2026-04-03T20:52:42.000Z</time></trkpt>
        <trkpt lat="29.522744" lon="103.335335"><ele>3068.1477</ele><time>2026-04-03T20:52:54.000Z</time></trkpt>
        <trkpt lat="29.522785" lon="103.335359"><ele>3063.6821</ele><time>2026-04-03T20:53:13.000Z</time></trkpt>
        <trkpt lat="29.52279" lon="103.335411"><ele>3059.0564</ele><time>2026-04-03T20:53:28.000Z</time></trkpt>
        <trkpt lat="29.522746" lon="103.335423"><ele>3056.8179</ele><time>2026-04-03T20:53:57.000Z</time></trkpt>
        <trkpt lat="29.522698" lon="103.335436"><ele>3058.2295</ele><time>2026-04-03T20:55:07.000Z</time></trkpt>
        <trkpt lat="29.522695" lon="103.335491"><ele>3053.92</ele><time>2026-04-03T20:55:17.000Z</time></trkpt>
        <trkpt lat="29.522633" lon="103.335524"><ele>3052.5525</ele><time>2026-04-03T20:55:19.000Z</time></trkpt>
        <trkpt lat="29.522631" lon="103.335589"><ele>3046.911</ele><time>2026-04-03T20:55:24.000Z</time></trkpt>
        <trkpt lat="29.522645" lon="103.335667"><ele>3044.6677</ele><time>2026-04-03T20:55:26.000Z</time></trkpt>
        <trkpt lat="29.522602" lon="103.335759"><ele>3043.4597</ele><time>2026-04-03T20:55:28.000Z</time></trkpt>
        <trkpt lat="29.522605" lon="103.335706"><ele>3044.0215</ele><time>2026-04-03T20:55:29.000Z</time></trkpt>
        <trkpt lat="29.522604" lon="103.335648"><ele>3044.6086</ele><time>2026-04-03T20:55:32.000Z</time></trkpt>
        <trkpt lat="29.522567" lon="103.335615"><ele>3045.1511</ele><time>2026-04-03T20:55:36.000Z</time></trkpt>
        <trkpt lat="29.522592" lon="103.33557"><ele>3050.3765</ele><time>2026-04-03T20:55:39.000Z</time></trkpt>
        <trkpt lat="29.522589" lon="103.335516"><ele>3053.8345</ele><time>2026-04-03T20:55:50.000Z</time></trkpt>
        <trkpt lat="29.522643" lon="103.335499"><ele>3054.4316</ele><time>2026-04-03T20:55:57.000Z</time></trkpt>
        <trkpt lat="29.522683" lon="103.335457"><ele>3056.937</ele><time>2026-04-03T20:56:12.000Z</time></trkpt>
        <trkpt lat="29.522633" lon="103.335449"><ele>3052.6423</ele><time>2026-04-03T20:56:33.000Z</time></trkpt>
        <trkpt lat="29.522662" lon="103.335497"><ele>3057.6694</ele><time>2026-04-03T20:56:43.000Z</time></trkpt>
        <trkpt lat="29.522703" lon="103.335521"><ele>3061.1382</ele><time>2026-04-03T20:56:49.000Z</time></trkpt>
        <trkpt lat="29.522736" lon="103.335565"><ele>3061.7864</ele><time>2026-04-03T20:56:57.000Z</time></trkpt>
        <trkpt lat="29.522774" lon="103.335596"><ele>3064.194</ele><time>2026-04-03T20:57:23.000Z</time></trkpt>
        <trkpt lat="29.522797" lon="103.335641"><ele>3063.8655</ele><time>2026-04-03T20:57:44.000Z</time></trkpt>
        <trkpt lat="29.522822" lon="103.335685"><ele>3067.2725</ele><time>2026-04-03T20:57:55.000Z</time></trkpt>
        <trkpt lat="29.522842" lon="103.335734"><ele>3074.148</ele><time>2026-04-03T20:58:35.000Z</time></trkpt>
        <trkpt lat="29.522888" lon="103.335743"><ele>3079.492</ele><time>2026-04-03T21:03:40.000Z</time></trkpt>
        <trkpt lat="29.522906" lon="103.335792"><ele>3078.5571</ele><time>2026-04-03T21:04:17.000Z</time></trkpt>
        <trkpt lat="29.5229" lon="103.335847"><ele>3079.366</ele><time>2026-04-03T21:04:26.000Z</time></trkpt>
        <trkpt lat="29.522875" lon="103.335891"><ele>3075.6604</ele><time>2026-04-03T21:06:29.000Z</time></trkpt>
        <trkpt lat="29.522921" lon="103.335912"><ele>3074.7832</ele><time>2026-04-03T21:06:49.000Z</time></trkpt>
        <trkpt lat="29.52297" lon="103.335918"><ele>3075.3728</ele><time>2026-04-03T21:06:59.000Z</time></trkpt>
        <trkpt lat="29.523023" lon="103.335924"><ele>3073.535</ele><time>2026-04-03T21:07:03.000Z</time></trkpt>
        <trkpt lat="29.523069" lon="103.335918"><ele>3075.8044</ele><time>2026-04-03T21:07:14.000Z</time></trkpt>
        <trkpt lat="29.523114" lon="103.335942"><ele>3076.5632</ele><time>2026-04-03T21:07:25.000Z</time></trkpt>
        <trkpt lat="29.523145" lon="103.335985"><ele>3074.7676</ele><time>2026-04-03T21:07:38.000Z</time></trkpt>
        <trkpt lat="29.523128" lon="103.336036"><ele>3070.7908</ele><time>2026-04-03T21:08:29.000Z</time></trkpt>
        <trkpt lat="29.523151" lon="103.3361"><ele>3068.9937</ele><time>2026-04-03T21:08:41.000Z</time></trkpt>
        <trkpt lat="29.523177" lon="103.336143"><ele>3065.4226</ele><time>2026-04-03T21:08:46.000Z</time></trkpt>
        <trkpt lat="29.523184" lon="103.336199"><ele>3063.1494</ele><time>2026-04-03T21:08:51.000Z</time></trkpt>
        <trkpt lat="29.523173" lon="103.336252"><ele>3059.012</ele><time>2026-04-03T21:09:01.000Z</time></trkpt>
        <trkpt lat="29.523187" lon="103.336304"><ele>3054.3428</ele><time>2026-04-03T21:09:12.000Z</time></trkpt>
        <trkpt lat="29.5232" lon="103.336355"><ele>3056.2273</ele><time>2026-04-03T21:09:18.000Z</time></trkpt>
        <trkpt lat="29.523226" lon="103.336415"><ele>3057.8948</ele><time>2026-04-03T21:09:24.000Z</time></trkpt>
        <trkpt lat="29.523244" lon="103.33647"><ele>3057.3352</ele><time>2026-04-03T21:09:29.000Z</time></trkpt>
        <trkpt lat="29.523297" lon="103.336485"><ele>3059.5754</ele><time>2026-04-03T21:09:33.000Z</time></trkpt>
        <trkpt lat="29.523345" lon="103.336513"><ele>3062.601</ele><time>2026-04-03T21:09:38.000Z</time></trkpt>
        <trkpt lat="29.52339" lon="103.336525"><ele>3066.13</ele><time>2026-04-03T21:09:45.000Z</time></trkpt>
        <trkpt lat="29.523371" lon="103.336576"><ele>3067.8599</ele><time>2026-04-03T21:09:53.000Z</time></trkpt>
        <trkpt lat="29.523358" lon="103.336639"><ele>3068.275</ele><time>2026-04-03T21:09:58.000Z</time></trkpt>
        <trkpt lat="29.523363" lon="103.336691"><ele>3068.3594</ele><time>2026-04-03T21:10:03.000Z</time></trkpt>
        <trkpt lat="29.523339" lon="103.336738"><ele>3070.2898</ele><time>2026-04-03T21:10:14.000Z</time></trkpt>
        <trkpt lat="29.523337" lon="103.336796"><ele>3072.9553</ele><time>2026-04-03T21:10:21.000Z</time></trkpt>
        <trkpt lat="29.523375" lon="103.336846"><ele>3069.4287</ele><time>2026-04-03T21:10:30.000Z</time></trkpt>
        <trkpt lat="29.523386" lon="103.336902"><ele>3067.7231</ele><time>2026-04-03T21:10:39.000Z</time></trkpt>
        <trkpt lat="29.52342" lon="103.336954"><ele>3068.2078</ele><time>2026-04-03T21:10:44.000Z</time></trkpt>
        <trkpt lat="29.523432" lon="103.337006"><ele>3069.0535</ele><time>2026-04-03T21:10:48.000Z</time></trkpt>
        <trkpt lat="29.523433" lon="103.337059"><ele>3069.0066</ele><time>2026-04-03T21:10:52.000Z</time></trkpt>
        <trkpt lat="29.523424" lon="103.33712"><ele>3070.308</ele><time>2026-04-03T21:10:57.000Z</time></trkpt>
        <trkpt lat="29.523449" lon="103.337171"><ele>3072.3833</ele><time>2026-04-03T21:11:01.000Z</time></trkpt>
        <trkpt lat="29.523446" lon="103.337228"><ele>3074.5088</ele><time>2026-04-03T21:11:07.000Z</time></trkpt>
        <trkpt lat="29.52342" lon="103.337271"><ele>3075.3862</ele><time>2026-04-03T21:11:15.000Z</time></trkpt>
        <trkpt lat="29.523425" lon="103.337218"><ele>3071.3977</ele><time>2026-04-03T21:11:49.000Z</time></trkpt>
        <trkpt lat="29.52342" lon="103.337165"><ele>3076.0696</ele><time>2026-04-03T21:12:36.000Z</time></trkpt>
        <trkpt lat="29.523401" lon="103.33711"><ele>3076.5618</ele><time>2026-04-03T21:12:43.000Z</time></trkpt>
        <trkpt lat="29.523389" lon="103.33705"><ele>3075.9692</ele><time>2026-04-03T21:12:49.000Z</time></trkpt>
        <trkpt lat="29.523366" lon="103.336988"><ele>3077.1418</ele><time>2026-04-03T21:12:54.000Z</time></trkpt>
        <trkpt lat="29.52336" lon="103.336931"><ele>3073.9973</ele><time>2026-04-03T21:13:01.000Z</time></trkpt>
        <trkpt lat="29.523319" lon="103.336899"><ele>3073.236</ele><time>2026-04-03T21:13:09.000Z</time></trkpt>
        <trkpt lat="29.523275" lon="103.336873"><ele>3072.118</ele><time>2026-04-03T21:13:17.000Z</time></trkpt>
        <trkpt lat="29.523232" lon="103.336889"><ele>3072.181</ele><time>2026-04-03T21:13:29.000Z</time></trkpt>
        <trkpt lat="29.523236" lon="103.336942"><ele>3079.7393</ele><time>2026-04-03T21:13:57.000Z</time></trkpt>
        <trkpt lat="29.523245" lon="103.336993"><ele>3079.6538</ele><time>2026-04-03T21:14:04.000Z</time></trkpt>
        <trkpt lat="29.523213" lon="103.337038"><ele>3077.0322</ele><time>2026-04-03T21:14:10.000Z</time></trkpt>
        <trkpt lat="29.523181" lon="103.33709"><ele>3076.569</ele><time>2026-04-03T21:14:20.000Z</time></trkpt>
        <trkpt lat="29.523165" lon="103.337139"><ele>3075.5698</ele><time>2026-04-03T21:14:26.000Z</time></trkpt>
        <trkpt lat="29.523167" lon="103.337193"><ele>3075.414</ele><time>2026-04-03T21:14:47.000Z</time></trkpt>
        <trkpt lat="29.523126" lon="103.337219"><ele>3075.7256</ele><time>2026-04-03T21:15:00.000Z</time></trkpt>
        <trkpt lat="29.523083" lon="103.337238"><ele>3079.735</ele><time>2026-04-03T21:15:16.000Z</time></trkpt>
        <trkpt lat="29.523046" lon="103.337278"><ele>3085.883</ele><time>2026-04-03T21:15:31.000Z</time></trkpt>
        <trkpt lat="29.523" lon="103.337277"><ele>3085.9558</ele><time>2026-04-03T21:15:48.000Z</time></trkpt>
        <trkpt lat="29.522953" lon="103.337284"><ele>3081.8325</ele><time>2026-04-03T21:15:57.000Z</time></trkpt>
        <trkpt lat="29.522904" lon="103.337275"><ele>3080.0222</ele><time>2026-04-03T21:16:10.000Z</time></trkpt>
        <trkpt lat="29.522856" lon="103.337275"><ele>3079.9468</ele><time>2026-04-03T21:16:19.000Z</time></trkpt>
        <trkpt lat="29.522808" lon="103.337285"><ele>3079.9023</ele><time>2026-04-03T21:16:24.000Z</time></trkpt>
        <trkpt lat="29.522764" lon="103.337301"><ele>3084.9827</ele><time>2026-04-03T21:18:06.000Z</time></trkpt>
        <trkpt lat="29.522766" lon="103.337245"><ele>3086.5474</ele><time>2026-04-03T21:18:19.000Z</time></trkpt>
        <trkpt lat="29.522785" lon="103.337197"><ele>3087.8298</ele><time>2026-04-03T21:18:25.000Z</time></trkpt>
        <trkpt lat="29.522781" lon="103.337141"><ele>3086.2607</ele><time>2026-04-03T21:18:33.000Z</time></trkpt>
        <trkpt lat="29.522828" lon="103.33716"><ele>3084.0796</ele><time>2026-04-03T21:20:33.000Z</time></trkpt>
        <trkpt lat="29.522875" lon="103.337138"><ele>3083.9065</ele><time>2026-04-03T21:20:38.000Z</time></trkpt>
        <trkpt lat="29.522926" lon="103.337124"><ele>3084.3838</ele><time>2026-04-03T21:20:44.000Z</time></trkpt>
        <trkpt lat="29.522958" lon="103.337084"><ele>3086.326</ele><time>2026-04-03T21:20:51.000Z</time></trkpt>
        <trkpt lat="29.523" lon="103.337053"><ele>3087.2886</ele><time>2026-04-03T21:21:03.000Z</time></trkpt>
        <trkpt lat="29.523049" lon="103.337036"><ele>3087.0374</ele><time>2026-04-03T21:21:13.000Z</time></trkpt>
        <trkpt lat="29.523022" lon="103.337086"><ele>3087.47</ele><time>2026-04-03T21:21:59.000Z</time></trkpt>
        <trkpt lat="29.523042" lon="103.33714"><ele>3087.3254</ele><time>2026-04-03T21:22:04.000Z</time></trkpt>
        <trkpt lat="29.522997" lon="103.337188"><ele>3089.1924</ele><time>2026-04-03T21:22:14.000Z</time></trkpt>
        <trkpt lat="29.522995" lon="103.337247"><ele>3091.903</ele><time>2026-04-03T21:22:19.000Z</time></trkpt>
        <trkpt lat="29.523042" lon="103.337262"><ele>3089.229</ele><time>2026-04-03T21:22:27.000Z</time></trkpt>
        <trkpt lat="29.523087" lon="103.337261"><ele>3084.9985</ele><time>2026-04-03T21:22:37.000Z</time></trkpt>
        <trkpt lat="29.523139" lon="103.337236"><ele>3082.204</ele><time>2026-04-03T21:22:42.000Z</time></trkpt>
        <trkpt lat="29.523181" lon="103.337197"><ele>3081.1978</ele><time>2026-04-03T21:22:48.000Z</time></trkpt>
        <trkpt lat="29.52321" lon="103.337153"><ele>3080.3374</ele><time>2026-04-03T21:23:01.000Z</time></trkpt>
        <trkpt lat="29.523208" lon="103.337099"><ele>3082.1057</ele><time>2026-04-03T21:23:26.000Z</time></trkpt>
        <trkpt lat="29.52319" lon="103.337048"><ele>3080.5605</ele><time>2026-04-03T21:23:34.000Z</time></trkpt>
        <trkpt lat="29.523194" lon="103.336983"><ele>3076.0916</ele><time>2026-04-03T21:23:50.000Z</time></trkpt>
        <trkpt lat="29.523188" lon="103.336932"><ele>3075.2454</ele><time>2026-04-03T21:23:54.000Z</time></trkpt>
        <trkpt lat="29.523177" lon="103.336876"><ele>3072.3887</ele><time>2026-04-03T21:24:02.000Z</time></trkpt>
        <trkpt lat="29.523204" lon="103.336827"><ele>3072.301</ele><time>2026-04-03T21:24:06.000Z</time></trkpt>
        <trkpt lat="29.523204" lon="103.336765"><ele>3070.7563</ele><time>2026-04-03T21:24:11.000Z</time></trkpt>
        <trkpt lat="29.52321" lon="103.336709"><ele>3071.1375</ele><time>2026-04-03T21:24:15.000Z</time></trkpt>
        <trkpt lat="29.523198" lon="103.336655"><ele>3073.496</ele><time>2026-04-03T21:24:20.000Z</time></trkpt>
        <trkpt lat="29.523188" lon="103.336602"><ele>3074.546</ele><time>2026-04-03T21:24:26.000Z</time></trkpt>
        <trkpt lat="29.52315" lon="103.33657"><ele>3077.1968</ele><time>2026-04-03T21:24:42.000Z</time></trkpt>
        <trkpt lat="29.523174" lon="103.336511"><ele>3074.2148</ele><time>2026-04-03T21:25:05.000Z</time></trkpt>
        <trkpt lat="29.52318" lon="103.336459"><ele>3070.8127</ele><time>2026-04-03T21:25:09.000Z</time></trkpt>
        <trkpt lat="29.52319" lon="103.336399"><ele>3070.605</ele><time>2026-04-03T21:25:13.000Z</time></trkpt>
        <trkpt lat="29.523192" lon="103.336345"><ele>3071.0283</ele><time>2026-04-03T21:25:17.000Z</time></trkpt>
        <trkpt lat="29.523188" lon="103.336292"><ele>3071.87</ele><time>2026-04-03T21:25:21.000Z</time></trkpt>
        <trkpt lat="29.523193" lon="103.336229"><ele>3073.1072</ele><time>2026-04-03T21:25:25.000Z</time></trkpt>
        <trkpt lat="29.523177" lon="103.336166"><ele>3073.639</ele><time>2026-04-03T21:25:30.000Z</time></trkpt>
        <trkpt lat="29.523163" lon="103.336111"><ele>3072.9185</ele><time>2026-04-03T21:25:34.000Z</time></trkpt>
        <trkpt lat="29.523167" lon="103.336048"><ele>3071.0327</ele><time>2026-04-03T21:25:39.000Z</time></trkpt>
        <trkpt lat="29.523157" lon="103.335994"><ele>3070.4624</ele><time>2026-04-03T21:25:46.000Z</time></trkpt>
        <trkpt lat="29.523127" lon="103.335946"><ele>3071.1042</ele><time>2026-04-03T21:25:53.000Z</time></trkpt>
        <trkpt lat="29.52309" lon="103.335915"><ele>3067.5679</ele><time>2026-04-03T21:26:48.000Z</time></trkpt>
        <trkpt lat="29.523043" lon="103.335922"><ele>3068.343</ele><time>2026-04-03T21:26:54.000Z</time></trkpt>
        <trkpt lat="29.522995" lon="103.335944"><ele>3068.445</ele><time>2026-04-03T21:26:59.000Z</time></trkpt>
        <trkpt lat="29.522969" lon="103.335888"><ele>3070.304</ele><time>2026-04-03T21:27:10.000Z</time></trkpt>
        <trkpt lat="29.522953" lon="103.335831"><ele>3068.7502</ele><time>2026-04-03T21:27:16.000Z</time></trkpt>
        <trkpt lat="29.522947" lon="103.335769"><ele>3067.102</ele><time>2026-04-03T21:27:28.000Z</time></trkpt>
        <trkpt lat="29.522929" lon="103.335712"><ele>3065.8528</ele><time>2026-04-03T21:27:34.000Z</time></trkpt>
        <trkpt lat="29.522931" lon="103.335659"><ele>3066.0144</ele><time>2026-04-03T21:27:43.000Z</time></trkpt>
        <trkpt lat="29.52292" lon="103.335603"><ele>3066.997</ele><time>2026-04-03T21:27:54.000Z</time></trkpt>
        <trkpt lat="29.522919" lon="103.33555"><ele>3067.2415</ele><time>2026-04-03T21:28:02.000Z</time></trkpt>
        <trkpt lat="29.522919" lon="103.335496"><ele>3065.2024</ele><time>2026-04-03T21:28:11.000Z</time></trkpt>
        <trkpt lat="29.522923" lon="103.335443"><ele>3062.8376</ele><time>2026-04-03T21:28:19.000Z</time></trkpt>
        <trkpt lat="29.522915" lon="103.335392"><ele>3062.2996</ele><time>2026-04-03T21:28:29.000Z</time></trkpt>
        <trkpt lat="29.522902" lon="103.33534"><ele>3060.95</ele><time>2026-04-03T21:28:36.000Z</time></trkpt>
        <trkpt lat="29.522862" lon="103.335301"><ele>3061.761</ele><time>2026-04-03T21:28:43.000Z</time></trkpt>
        <trkpt lat="29.522856" lon="103.335247"><ele>3061.17</ele><time>2026-04-03T21:28:46.000Z</time></trkpt>
        <trkpt lat="29.522858" lon="103.335186"><ele>3060.525</ele><time>2026-04-03T21:28:53.000Z</time></trkpt>
        <trkpt lat="29.522875" lon="103.335135"><ele>3059.6672</ele><time>2026-04-03T21:28:58.000Z</time></trkpt>
        <trkpt lat="29.522864" lon="103.335081"><ele>3061.4773</ele><time>2026-04-03T21:29:03.000Z</time></trkpt>
        <trkpt lat="29.522862" lon="103.335027"><ele>3062.1616</ele><time>2026-04-03T21:29:09.000Z</time></trkpt>
        <trkpt lat="29.522885" lon="103.334969"><ele>3060.8367</ele><time>2026-04-03T21:29:15.000Z</time></trkpt>
        <trkpt lat="29.522883" lon="103.334916"><ele>3060.0146</ele><time>2026-04-03T21:29:26.000Z</time></trkpt>
        <trkpt lat="29.52292" lon="103.334883"><ele>3060.2805</ele><time>2026-04-03T21:29:35.000Z</time></trkpt>
        <trkpt lat="29.522964" lon="103.334856"><ele>3059.8752</ele><time>2026-04-03T21:29:42.000Z</time></trkpt>
        <trkpt lat="29.523013" lon="103.33484"><ele>3058.6416</ele><time>2026-04-03T21:29:48.000Z</time></trkpt>
        <trkpt lat="29.52306" lon="103.334846"><ele>3056.648</ele><time>2026-04-03T21:30:02.000Z</time></trkpt>
        <trkpt lat="29.523112" lon="103.334847"><ele>3052.706</ele><time>2026-04-03T21:30:08.000Z</time></trkpt>
        <trkpt lat="29.523161" lon="103.334847"><ele>3052.3367</ele><time>2026-04-03T21:30:12.000Z</time></trkpt>
        <trkpt lat="29.523211" lon="103.334847"><ele>3047.8298</ele><time>2026-04-03T21:30:27.000Z</time></trkpt>
        <trkpt lat="29.523249" lon="103.334876"><ele>3046.5845</ele><time>2026-04-03T21:30:30.000Z</time></trkpt>
        <trkpt lat="29.523294" lon="103.334892"><ele>3045.6792</ele><time>2026-04-03T21:30:36.000Z</time></trkpt>
        <trkpt lat="29.523346" lon="103.334924"><ele>3043.727</ele><time>2026-04-03T21:30:41.000Z</time></trkpt>
        <trkpt lat="29.523391" lon="103.334948"><ele>3042.3071</ele><time>2026-04-03T21:30:45.000Z</time></trkpt>
        <trkpt lat="29.523439" lon="103.334958"><ele>3042.4934</ele><time>2026-04-03T21:30:50.000Z</time></trkpt>
        <trkpt lat="29.523504" lon="103.334966"><ele>3042.624</ele><time>2026-04-03T21:30:55.000Z</time></trkpt>
        <trkpt lat="29.523549" lon="103.334977"><ele>3043.2134</ele><time>2026-04-03T21:31:02.000Z</time></trkpt>
        <trkpt lat="29.523596" lon="103.33499"><ele>3041.2795</ele><time>2026-04-03T21:31:16.000Z</time></trkpt>
        <trkpt lat="29.523643" lon="103.33498"><ele>3035.986</ele><time>2026-04-03T21:31:27.000Z</time></trkpt>
        <trkpt lat="29.523688" lon="103.334972"><ele>3037.4658</ele><time>2026-04-03T21:31:35.000Z</time></trkpt>
        <trkpt lat="29.523735" lon="103.334991"><ele>3037.3838</ele><time>2026-04-03T21:31:40.000Z</time></trkpt>
        <trkpt lat="29.523783" lon="103.335002"><ele>3038.3333</ele><time>2026-04-03T21:31:47.000Z</time></trkpt>
        <trkpt lat="29.523835" lon="103.335014"><ele>3040.4307</ele><time>2026-04-03T21:31:51.000Z</time></trkpt>
        <trkpt lat="29.52388" lon="103.335013"><ele>3039.3696</ele><time>2026-04-03T21:32:09.000Z</time></trkpt>
        <trkpt lat="29.523932" lon="103.335001"><ele>3040.5847</ele><time>2026-04-03T21:32:19.000Z</time></trkpt>
        <trkpt lat="29.523948" lon="103.334937"><ele>3042.0166</ele><time>2026-04-03T21:32:26.000Z</time></trkpt>
        <trkpt lat="29.523903" lon="103.33498"><ele>3039.082</ele><time>2026-04-03T21:32:33.000Z</time></trkpt>
        <trkpt lat="29.523759" lon="103.33532"><ele>3032.211</ele><time>2026-04-03T21:32:56.000Z</time></trkpt>
        <trkpt lat="29.523882" lon="103.334927"><ele>3031.9387</ele><time>2026-04-03T21:33:14.000Z</time></trkpt>
        <trkpt lat="29.523821" lon="103.334938"><ele>3033.2527</ele><time>2026-04-03T21:33:21.000Z</time></trkpt>
        <trkpt lat="29.52376" lon="103.334921"><ele>3033.6467</ele><time>2026-04-03T21:33:33.000Z</time></trkpt>
        <trkpt lat="29.523773" lon="103.335185"><ele>3036.0945</ele><time>2026-04-03T21:33:45.000Z</time></trkpt>
        <trkpt lat="29.523821" lon="103.335002"><ele>3034.603</ele><time>2026-04-03T21:33:52.000Z</time></trkpt>
        <trkpt lat="29.523703" lon="103.3349"><ele>3034.0261</ele><time>2026-04-03T21:34:09.000Z</time></trkpt>
        <trkpt lat="29.523769" lon="103.334924"><ele>3033.6243</ele><time>2026-04-03T21:34:21.000Z</time></trkpt>
        <trkpt lat="29.523723" lon="103.334918"><ele>3033.614</ele><time>2026-04-03T21:34:27.000Z</time></trkpt>
        <trkpt lat="29.523786" lon="103.334927"><ele>3033.615</ele><time>2026-04-03T21:34:33.000Z</time></trkpt>
        <trkpt lat="29.523786" lon="103.33494"><ele>3033.8818</ele><time>2026-04-03T21:35:16.000Z</time></trkpt>
        <trkpt lat="29.523839" lon="103.334971"><ele>3033.0366</ele><time>2026-04-03T21:35:22.000Z</time></trkpt>
        <trkpt lat="29.52384" lon="103.334967"><ele>3033.053</ele><time>2026-04-03T21:35:23.000Z</time></trkpt>
        <trkpt lat="29.523865" lon="103.334971"><ele>3033.6238</ele><time>2026-04-03T21:35:59.000Z</time></trkpt>
        <trkpt lat="29.523807" lon="103.334948"><ele>3033.642</ele><time>2026-04-03T21:36:11.000Z</time></trkpt>
        <trkpt lat="29.523804" lon="103.334944"><ele>3033.6948</ele><time>2026-04-03T21:36:38.000Z</time></trkpt>
        <trkpt lat="29.523749" lon="103.334916"><ele>3033.645</ele><time>2026-04-03T21:37:02.000Z</time></trkpt>
        <trkpt lat="29.523703" lon="103.334917"><ele>3033.6355</ele><time>2026-04-03T21:37:14.000Z</time></trkpt>
        <trkpt lat="29.523751" lon="103.334918"><ele>3033.6174</ele><time>2026-04-03T21:37:20.000Z</time></trkpt>
        <trkpt lat="29.523795" lon="103.334943"><ele>3033.6145</ele><time>2026-04-03T21:37:57.000Z</time></trkpt>
        <trkpt lat="29.52379" lon="103.335034"><ele>3031.38</ele><time>2026-04-03T21:38:05.000Z</time></trkpt>
        <trkpt lat="29.523882" lon="103.334934"><ele>3033.0027</ele><time>2026-04-03T21:38:09.000Z</time></trkpt>
        <trkpt lat="29.523922" lon="103.334977"><ele>3036.4724</ele><time>2026-04-03T21:38:17.000Z</time></trkpt>
        <trkpt lat="29.523967" lon="103.334999"><ele>3038.5857</ele><time>2026-04-03T21:38:20.000Z</time></trkpt>
        <trkpt lat="29.524013" lon="103.335005"><ele>3037.6052</ele><time>2026-04-03T21:38:26.000Z</time></trkpt>
        <trkpt lat="29.524055" lon="103.334982"><ele>3037.194</ele><time>2026-04-03T21:38:33.000Z</time></trkpt>
        <trkpt lat="29.524107" lon="103.334995"><ele>3039.103</ele><time>2026-04-03T21:38:38.000Z</time></trkpt>
        <trkpt lat="29.524154" lon="103.335014"><ele>3040.693</ele><time>2026-04-03T21:38:42.000Z</time></trkpt>
        <trkpt lat="29.524201" lon="103.335014"><ele>3042.4868</ele><time>2026-04-03T21:38:48.000Z</time></trkpt>
        <trkpt lat="29.524248" lon="103.335013"><ele>3041.1294</ele><time>2026-04-03T21:39:02.000Z</time></trkpt>
        <trkpt lat="29.524294" lon="103.335042"><ele>3040.509</ele><time>2026-04-03T21:39:23.000Z</time></trkpt>
        <trkpt lat="29.524342" lon="103.335034"><ele>3041.687</ele><time>2026-04-03T21:39:37.000Z</time></trkpt>
        <trkpt lat="29.524396" lon="103.335042"><ele>3042.0103</ele><time>2026-04-03T21:39:50.000Z</time></trkpt>
        <trkpt lat="29.524448" lon="103.33504"><ele>3043.68</ele><time>2026-04-03T21:39:58.000Z</time></trkpt>
        <trkpt lat="29.524446" lon="103.334986"><ele>3044.1306</ele><time>2026-04-03T21:40:17.000Z</time></trkpt>
        <trkpt lat="29.524404" lon="103.334926"><ele>3044.3428</ele><time>2026-04-03T21:40:34.000Z</time></trkpt>
        <trkpt lat="29.524369" lon="103.334893"><ele>3046.6436</ele><time>2026-04-03T21:42:17.000Z</time></trkpt>
        <trkpt lat="29.524324" lon="103.334885"><ele>3041.6208</ele><time>2026-04-03T21:42:38.000Z</time></trkpt>
        <trkpt lat="29.524372" lon="103.33487"><ele>3042.6782</ele><time>2026-04-03T21:43:39.000Z</time></trkpt>
        <trkpt lat="29.524425" lon="103.334911"><ele>3044.6929</ele><time>2026-04-03T22:05:01.000Z</time></trkpt>
        <trkpt lat="29.524432" lon="103.334963"><ele>3041.992</ele><time>2026-04-03T22:07:05.000Z</time></trkpt>
        <trkpt lat="29.524473" lon="103.335001"><ele>3036.3662</ele><time>2026-04-03T22:07:50.000Z</time></trkpt>
        <trkpt lat="29.524529" lon="103.334996"><ele>3037.159</ele><time>2026-04-03T22:07:58.000Z</time></trkpt>
        <trkpt lat="29.524577" lon="103.334985"><ele>3041.8503</ele><time>2026-04-03T22:08:05.000Z</time></trkpt>
        <trkpt lat="29.524621" lon="103.335004"><ele>3039.6943</ele><time>2026-04-03T22:08:15.000Z</time></trkpt>
        <trkpt lat="29.524666" lon="103.334988"><ele>3042.1062</ele><time>2026-04-03T22:08:23.000Z</time></trkpt>
        <trkpt lat="29.524689" lon="103.335039"><ele>3040.7483</ele><time>2026-04-03T22:08:42.000Z</time></trkpt>
        <trkpt lat="29.524734" lon="103.335043"><ele>3037.3662</ele><time>2026-04-03T22:08:47.000Z</time></trkpt>
        <trkpt lat="29.524776" lon="103.335016"><ele>3039.0386</ele><time>2026-04-03T22:08:52.000Z</time></trkpt>
        <trkpt lat="29.524813" lon="103.334973"><ele>3040.9321</ele><time>2026-04-03T22:09:00.000Z</time></trkpt>
        <trkpt lat="29.524855" lon="103.335056"><ele>3037.457</ele><time>2026-04-03T22:10:39.000Z</time></trkpt>
        <trkpt lat="29.52485" lon="103.335001"><ele>3040.8572</ele><time>2026-04-03T22:10:51.000Z</time></trkpt>
        <trkpt lat="29.524797" lon="103.335003"><ele>3040.9058</ele><time>2026-04-03T22:11:47.000Z</time></trkpt>
        <trkpt lat="29.524759" lon="103.334968"><ele>3039.6208</ele><time>2026-04-03T22:12:07.000Z</time></trkpt>
        <trkpt lat="29.524753" lon="103.334905"><ele>3037.4038</ele><time>2026-04-03T22:12:27.000Z</time></trkpt>
        <trkpt lat="29.524778" lon="103.334861"><ele>3038.7607</ele><time>2026-04-03T22:12:34.000Z</time></trkpt>
        <trkpt lat="29.524826" lon="103.334861"><ele>3034.1877</ele><time>2026-04-03T22:12:42.000Z</time></trkpt>
        <trkpt lat="29.524874" lon="103.334855"><ele>3031.601</ele><time>2026-04-03T22:12:51.000Z</time></trkpt>
        <trkpt lat="29.524924" lon="103.334856"><ele>3036.1006</ele><time>2026-04-03T22:13:00.000Z</time></trkpt>
        <trkpt lat="29.524974" lon="103.334865"><ele>3036.762</ele><time>2026-04-03T22:13:11.000Z</time></trkpt>
        <trkpt lat="29.525028" lon="103.33488"><ele>3036.0547</ele><time>2026-04-03T22:13:18.000Z</time></trkpt>
        <trkpt lat="29.525073" lon="103.334892"><ele>3034.8374</ele><time>2026-04-03T22:13:24.000Z</time></trkpt>
        <trkpt lat="29.525112" lon="103.334924"><ele>3032.487</ele><time>2026-04-03T22:13:29.000Z</time></trkpt>
        <trkpt lat="29.525154" lon="103.334948"><ele>3034.0598</ele><time>2026-04-03T22:13:40.000Z</time></trkpt>
        <trkpt lat="29.5252" lon="103.33497"><ele>3033.7769</ele><time>2026-04-03T22:14:00.000Z</time></trkpt>
        <trkpt lat="29.525232" lon="103.335009"><ele>3033.4436</ele><time>2026-04-03T22:14:27.000Z</time></trkpt>
        <trkpt lat="29.52528" lon="103.334985"><ele>3039.5076</ele><time>2026-04-03T22:16:05.000Z</time></trkpt>
        <trkpt lat="29.525264" lon="103.33493"><ele>3034.9863</ele><time>2026-04-03T22:19:33.000Z</time></trkpt>
        <trkpt lat="29.525315" lon="103.334925"><ele>3042.1118</ele><time>2026-04-03T22:21:09.000Z</time></trkpt>
        <trkpt lat="29.525268" lon="103.334924"><ele>3038.5327</ele><time>2026-04-03T22:28:25.000Z</time></trkpt>
        <trkpt lat="29.525306" lon="103.334889"><ele>3034.56</ele><time>2026-04-03T22:40:09.000Z</time></trkpt>
        <trkpt lat="29.525222" lon="103.334998"><ele>3027.3718</ele><time>2026-04-03T22:46:34.000Z</time></trkpt>
        <trkpt lat="29.525275" lon="103.33487"><ele>3028.9834</ele><time>2026-04-03T22:50:13.000Z</time></trkpt>
        <trkpt lat="29.525288" lon="103.334921"><ele>3035.4558</ele><time>2026-04-03T23:04:07.000Z</time></trkpt>
        <trkpt lat="29.525242" lon="103.334917"><ele>3036.809</ele><time>2026-04-03T23:10:31.000Z</time></trkpt>
        <trkpt lat="29.525288" lon="103.3349"><ele>3035.1995</ele><time>2026-04-03T23:15:09.000Z</time></trkpt>
        <trkpt lat="29.525284" lon="103.33497"><ele>3030.4233</ele><time>2026-04-03T23:16:54.000Z</time></trkpt>
        <trkpt lat="29.525241" lon="103.334941"><ele>3032.1401</ele><time>2026-04-03T23:24:46.000Z</time></trkpt>
        <trkpt lat="29.525281" lon="103.334911"><ele>3037.2432</ele><time>2026-04-03T23:25:52.000Z</time></trkpt>
        <trkpt lat="29.525235" lon="103.334894"><ele>3037.0935</ele><time>2026-04-03T23:29:24.000Z</time></trkpt>
        <trkpt lat="29.525185" lon="103.334885"><ele>3034.2722</ele><time>2026-04-03T23:29:44.000Z</time></trkpt>
        <trkpt lat="29.525145" lon="103.334858"><ele>3028.3145</ele><time>2026-04-03T23:30:16.000Z</time></trkpt>
        <trkpt lat="29.525111" lon="103.334813"><ele>3028.5603</ele><time>2026-04-03T23:30:23.000Z</time></trkpt>
        <trkpt lat="29.525066" lon="103.334816"><ele>3027.5137</ele><time>2026-04-03T23:30:31.000Z</time></trkpt>
        <trkpt lat="29.52502" lon="103.3348"><ele>3024.143</ele><time>2026-04-03T23:30:37.000Z</time></trkpt>
        <trkpt lat="29.524975" lon="103.334791"><ele>3023.7593</ele><time>2026-04-03T23:30:47.000Z</time></trkpt>
        <trkpt lat="29.524929" lon="103.334765"><ele>3025.3665</ele><time>2026-04-03T23:31:01.000Z</time></trkpt>
        <trkpt lat="29.524874" lon="103.334753"><ele>3025.0815</ele><time>2026-04-03T23:31:20.000Z</time></trkpt>
        <trkpt lat="29.524842" lon="103.334791"><ele>3029.581</ele><time>2026-04-03T23:31:40.000Z</time></trkpt>
        <trkpt lat="29.524794" lon="103.334785"><ele>3025.3745</ele><time>2026-04-03T23:31:47.000Z</time></trkpt>
        <trkpt lat="29.524747" lon="103.334783"><ele>3024.479</ele><time>2026-04-03T23:31:54.000Z</time></trkpt>
        <trkpt lat="29.524699" lon="103.334788"><ele>3025.9343</ele><time>2026-04-03T23:32:00.000Z</time></trkpt>
        <trkpt lat="29.524646" lon="103.334786"><ele>3028.0261</ele><time>2026-04-03T23:32:10.000Z</time></trkpt>
        <trkpt lat="29.524608" lon="103.33482"><ele>3029.6504</ele><time>2026-04-03T23:32:16.000Z</time></trkpt>
        <trkpt lat="29.524553" lon="103.334836"><ele>3027.2168</ele><time>2026-04-03T23:32:21.000Z</time></trkpt>
        <trkpt lat="29.524512" lon="103.334861"><ele>3026.9814</ele><time>2026-04-03T23:32:26.000Z</time></trkpt>
        <trkpt lat="29.524464" lon="103.334869"><ele>3029.551</ele><time>2026-04-03T23:32:30.000Z</time></trkpt>
        <trkpt lat="29.524412" lon="103.334884"><ele>3030.0925</ele><time>2026-04-03T23:32:35.000Z</time></trkpt>
        <trkpt lat="29.524367" lon="103.3349"><ele>3031.2986</ele><time>2026-04-03T23:32:40.000Z</time></trkpt>
        <trkpt lat="29.524319" lon="103.334906"><ele>3032.8767</ele><time>2026-04-03T23:32:44.000Z</time></trkpt>
        <trkpt lat="29.524265" lon="103.334907"><ele>3034.6719</ele><time>2026-04-03T23:32:50.000Z</time></trkpt>
        <trkpt lat="29.524216" lon="103.334919"><ele>3033.7725</ele><time>2026-04-03T23:32:55.000Z</time></trkpt>
        <trkpt lat="29.524165" lon="103.334929"><ele>3033.2502</ele><time>2026-04-03T23:33:01.000Z</time></trkpt>
        <trkpt lat="29.524114" lon="103.334934"><ele>3034.612</ele><time>2026-04-03T23:33:11.000Z</time></trkpt>
        <trkpt lat="29.52407" lon="103.334947"><ele>3031.8857</ele><time>2026-04-03T23:33:18.000Z</time></trkpt>
        <trkpt lat="29.524024" lon="103.334949"><ele>3028.5613</ele><time>2026-04-03T23:33:22.000Z</time></trkpt>
        <trkpt lat="29.523971" lon="103.334949"><ele>3027.0852</ele><time>2026-04-03T23:33:27.000Z</time></trkpt>
        <trkpt lat="29.523919" lon="103.334928"><ele>3023.117</ele><time>2026-04-03T23:33:35.000Z</time></trkpt>
        <trkpt lat="29.523869" lon="103.334932"><ele>3021.6577</ele><time>2026-04-03T23:33:41.000Z</time></trkpt>
        <trkpt lat="29.52382" lon="103.334933"><ele>3024.316</ele><time>2026-04-03T23:33:47.000Z</time></trkpt>
        <trkpt lat="29.523767" lon="103.334922"><ele>3030.046</ele><time>2026-04-03T23:33:56.000Z</time></trkpt>
        <trkpt lat="29.523721" lon="103.334923"><ele>3034.4224</ele><time>2026-04-03T23:34:02.000Z</time></trkpt>
        <trkpt lat="29.523674" lon="103.334908"><ele>3041.4485</ele><time>2026-04-03T23:34:13.000Z</time></trkpt>
        <trkpt lat="29.523628" lon="103.334892"><ele>3041.997</ele><time>2026-04-03T23:34:20.000Z</time></trkpt>
        <trkpt lat="29.523578" lon="103.334886"><ele>3041.6362</ele><time>2026-04-03T23:34:27.000Z</time></trkpt>
        <trkpt lat="29.523532" lon="103.334873"><ele>3043.2822</ele><time>2026-04-03T23:34:33.000Z</time></trkpt>
        <trkpt lat="29.523473" lon="103.334857"><ele>3044.018</ele><time>2026-04-03T23:34:40.000Z</time></trkpt>
        <trkpt lat="29.523429" lon="103.334836"><ele>3044.5671</ele><time>2026-04-03T23:34:44.000Z</time></trkpt>
        <trkpt lat="29.523381" lon="103.334811"><ele>3044.4922</ele><time>2026-04-03T23:34:52.000Z</time></trkpt>
        <trkpt lat="29.523347" lon="103.334773"><ele>3045.7344</ele><time>2026-04-03T23:35:00.000Z</time></trkpt>
        <trkpt lat="29.523301" lon="103.334763"><ele>3045.135</ele><time>2026-04-03T23:35:07.000Z</time></trkpt>
        <trkpt lat="29.523253" lon="103.334767"><ele>3046.5706</ele><time>2026-04-03T23:35:16.000Z</time></trkpt>
        <trkpt lat="29.5232" lon="103.334781"><ele>3045.2412</ele><time>2026-04-03T23:35:21.000Z</time></trkpt>
        <trkpt lat="29.523151" lon="103.334799"><ele>3047.1597</ele><time>2026-04-03T23:35:28.000Z</time></trkpt>
        <trkpt lat="29.523106" lon="103.33481"><ele>3049.8105</ele><time>2026-04-03T23:35:36.000Z</time></trkpt>
        <trkpt lat="29.523058" lon="103.334827"><ele>3048.2651</ele><time>2026-04-03T23:35:44.000Z</time></trkpt>
        <trkpt lat="29.523015" lon="103.334853"><ele>3046.247</ele><time>2026-04-03T23:35:56.000Z</time></trkpt>
        <trkpt lat="29.522958" lon="103.334842"><ele>3043.589</ele><time>2026-04-03T23:36:07.000Z</time></trkpt>
        <trkpt lat="29.522911" lon="103.334838"><ele>3042.0845</ele><time>2026-04-03T23:36:14.000Z</time></trkpt>
        <trkpt lat="29.522865" lon="103.334844"><ele>3040.647</ele><time>2026-04-03T23:36:21.000Z</time></trkpt>
        <trkpt lat="29.522829" lon="103.33488"><ele>3037.2515</ele><time>2026-04-03T23:36:30.000Z</time></trkpt>
        <trkpt lat="29.522765" lon="103.334885"><ele>3036.3955</ele><time>2026-04-03T23:36:47.000Z</time></trkpt>
        <trkpt lat="29.522719" lon="103.334908"><ele>3035.7524</ele><time>2026-04-03T23:36:55.000Z</time></trkpt>
        <trkpt lat="29.522666" lon="103.334939"><ele>3037.4185</ele><time>2026-04-03T23:37:01.000Z</time></trkpt>
        <trkpt lat="29.52271" lon="103.334931"><ele>3038.299</ele><time>2026-04-03T23:37:04.000Z</time></trkpt>
        <trkpt lat="29.52282" lon="103.33492"><ele>3041.9482</ele><time>2026-04-03T23:37:21.000Z</time></trkpt>
        <trkpt lat="29.52265" lon="103.334911"><ele>3046.718</ele><time>2026-04-03T23:37:41.000Z</time></trkpt>
        <trkpt lat="29.522725" lon="103.334929"><ele>3046.7297</ele><time>2026-04-03T23:37:42.000Z</time></trkpt>
        <trkpt lat="29.522765" lon="103.334978"><ele>3045.6262</ele><time>2026-04-03T23:37:54.000Z</time></trkpt>
        <trkpt lat="29.522815" lon="103.335026"><ele>3044.3748</ele><time>2026-04-03T23:38:03.000Z</time></trkpt>
        <trkpt lat="29.523109" lon="103.335056"><ele>3045.3855</ele><time>2026-04-03T23:38:18.000Z</time></trkpt>
        <trkpt lat="29.523232" lon="103.334924"><ele>3042.7717</ele><time>2026-04-03T23:38:45.000Z</time></trkpt>
        <trkpt lat="29.523608" lon="103.334963"><ele>3041.731</ele><time>2026-04-03T23:38:49.000Z</time></trkpt>
        <trkpt lat="29.523506" lon="103.334932"><ele>3041.1223</ele><time>2026-04-03T23:38:50.000Z</time></trkpt>
        <trkpt lat="29.523359" lon="103.334891"><ele>3040.8057</ele><time>2026-04-03T23:38:51.000Z</time></trkpt>
        <trkpt lat="29.523274" lon="103.334842"><ele>3040.475</ele><time>2026-04-03T23:38:54.000Z</time></trkpt>
        <trkpt lat="29.523227" lon="103.33485"><ele>3040.318</ele><time>2026-04-03T23:38:55.000Z</time></trkpt>
        <trkpt lat="29.523183" lon="103.334832"><ele>3039.9165</ele><time>2026-04-03T23:38:56.000Z</time></trkpt>
        <trkpt lat="29.522775" lon="103.334873"><ele>3043.6262</ele><time>2026-04-03T23:39:03.000Z</time></trkpt>
        <trkpt lat="29.522734" lon="103.334843"><ele>3040.2065</ele><time>2026-04-03T23:40:59.000Z</time></trkpt>
        <trkpt lat="29.52268" lon="103.334844"><ele>3037.811</ele><time>2026-04-03T23:41:53.000Z</time></trkpt>
        <trkpt lat="29.522707" lon="103.334887"><ele>3036.201</ele><time>2026-04-03T23:42:16.000Z</time></trkpt>
        <trkpt lat="29.522738" lon="103.334927"><ele>3040.3152</ele><time>2026-04-03T23:42:44.000Z</time></trkpt>
        <trkpt lat="29.522769" lon="103.33497"><ele>3039.7063</ele><time>2026-04-03T23:42:57.000Z</time></trkpt>
        <trkpt lat="29.522754" lon="103.335021"><ele>3035.9646</ele><time>2026-04-03T23:43:29.000Z</time></trkpt>
        <trkpt lat="29.522799" lon="103.335006"><ele>3038.6052</ele><time>2026-04-03T23:44:14.000Z</time></trkpt>
        <trkpt lat="29.522839" lon="103.335029"><ele>3038.57</ele><time>2026-04-03T23:47:48.000Z</time></trkpt>
        <trkpt lat="29.522789" lon="103.33502"><ele>3038.313</ele><time>2026-04-03T23:49:07.000Z</time></trkpt>
        <trkpt lat="29.52283" lon="103.335043"><ele>3034.69</ele><time>2026-04-03T23:49:51.000Z</time></trkpt>
        <trkpt lat="29.52283" lon="103.335097"><ele>3039.7</ele><time>2026-04-03T23:50:22.000Z</time></trkpt>
        <trkpt lat="29.522868" lon="103.335067"><ele>3040.875</ele><time>2026-04-03T23:50:39.000Z</time></trkpt>
        <trkpt lat="29.522884" lon="103.335013"><ele>3042.8606</ele><time>2026-04-03T23:50:46.000Z</time></trkpt>
        <trkpt lat="29.522889" lon="103.33496"><ele>3042.4595</ele><time>2026-04-03T23:50:56.000Z</time></trkpt>
        <trkpt lat="29.52292" lon="103.33491"><ele>3037.8064</ele><time>2026-04-03T23:51:21.000Z</time></trkpt>
        <trkpt lat="29.522961" lon="103.334884"><ele>3037.9934</ele><time>2026-04-03T23:51:29.000Z</time></trkpt>
        <trkpt lat="29.523005" lon="103.334872"><ele>3038.5554</ele><time>2026-04-03T23:51:39.000Z</time></trkpt>
        <trkpt lat="29.523055" lon="103.334862"><ele>3037.33</ele><time>2026-04-03T23:51:46.000Z</time></trkpt>
        <trkpt lat="29.523097" lon="103.334842"><ele>3041.1223</ele><time>2026-04-03T23:52:02.000Z</time></trkpt>
        <trkpt lat="29.523153" lon="103.334829"><ele>3036.88</ele><time>2026-04-03T23:52:32.000Z</time></trkpt>
        <trkpt lat="29.523202" lon="103.334817"><ele>3042.238</ele><time>2026-04-03T23:53:21.000Z</time></trkpt>
        <trkpt lat="29.523253" lon="103.334811"><ele>3043.9106</ele><time>2026-04-03T23:53:26.000Z</time></trkpt>
        <trkpt lat="29.5233" lon="103.334822"><ele>3041.5488</ele><time>2026-04-03T23:53:30.000Z</time></trkpt>
        <trkpt lat="29.523334" lon="103.334788"><ele>3041.8438</ele><time>2026-04-03T23:53:37.000Z</time></trkpt>
        <trkpt lat="29.523389" lon="103.334789"><ele>3044.0894</ele><time>2026-04-03T23:53:50.000Z</time></trkpt>
        <trkpt lat="29.523433" lon="103.33482"><ele>3044.3179</ele><time>2026-04-03T23:53:55.000Z</time></trkpt>
        <trkpt lat="29.523476" lon="103.334843"><ele>3046.391</ele><time>2026-04-03T23:54:03.000Z</time></trkpt>
        <trkpt lat="29.523527" lon="103.334856"><ele>3044.3171</ele><time>2026-04-03T23:54:10.000Z</time></trkpt>
        <trkpt lat="29.523575" lon="103.334878"><ele>3044.0098</ele><time>2026-04-03T23:54:14.000Z</time></trkpt>
        <trkpt lat="29.523625" lon="103.334891"><ele>3043.2625</ele><time>2026-04-03T23:54:21.000Z</time></trkpt>
        <trkpt lat="29.523672" lon="103.334887"><ele>3043.6738</ele><time>2026-04-03T23:54:27.000Z</time></trkpt>
        <trkpt lat="29.523726" lon="103.33489"><ele>3042.0637</ele><time>2026-04-03T23:54:37.000Z</time></trkpt>
        <trkpt lat="29.52378" lon="103.334888"><ele>3042.775</ele><time>2026-04-03T23:54:41.000Z</time></trkpt>
        <trkpt lat="29.523825" lon="103.334899"><ele>3041.041</ele><time>2026-04-03T23:54:46.000Z</time></trkpt>
        <trkpt lat="29.523884" lon="103.334898"><ele>3041.3467</ele><time>2026-04-03T23:54:50.000Z</time></trkpt>
        <trkpt lat="29.523942" lon="103.334908"><ele>3040.6807</ele><time>2026-04-03T23:54:55.000Z</time></trkpt>
        <trkpt lat="29.523986" lon="103.334925"><ele>3039.6423</ele><time>2026-04-03T23:55:03.000Z</time></trkpt>
        <trkpt lat="29.524009" lon="103.334972"><ele>3038.5588</ele><time>2026-04-03T23:55:12.000Z</time></trkpt>
        <trkpt lat="29.524055" lon="103.334976"><ele>3035.6558</ele><time>2026-04-03T23:55:19.000Z</time></trkpt>
        <trkpt lat="29.524103" lon="103.334991"><ele>3028.7236</ele><time>2026-04-03T23:55:36.000Z</time></trkpt>
        <trkpt lat="29.524133" lon="103.334948"><ele>3028.0342</ele><time>2026-04-03T23:55:49.000Z</time></trkpt>
        <trkpt lat="29.524178" lon="103.334955"><ele>3028.3188</ele><time>2026-04-03T23:55:55.000Z</time></trkpt>
        <trkpt lat="29.524223" lon="103.334952"><ele>3031.4614</ele><time>2026-04-03T23:56:00.000Z</time></trkpt>
        <trkpt lat="29.524281" lon="103.334958"><ele>3031.1023</ele><time>2026-04-03T23:56:06.000Z</time></trkpt>
        <trkpt lat="29.524339" lon="103.334948"><ele>3031.1099</ele><time>2026-04-03T23:56:10.000Z</time></trkpt>
        <trkpt lat="29.524387" lon="103.334941"><ele>3032.156</ele><time>2026-04-03T23:56:15.000Z</time></trkpt>
        <trkpt lat="29.524435" lon="103.33493"><ele>3036.7676</ele><time>2026-04-03T23:56:20.000Z</time></trkpt>
        <trkpt lat="29.52449" lon="103.33492"><ele>3037.599</ele><time>2026-04-03T23:56:24.000Z</time></trkpt>
        <trkpt lat="29.524538" lon="103.334905"><ele>3040.52</ele><time>2026-04-03T23:56:28.000Z</time></trkpt>
        <trkpt lat="29.524579" lon="103.334881"><ele>3039.8108</ele><time>2026-04-03T23:56:31.000Z</time></trkpt>
        <trkpt lat="29.524632" lon="103.334869"><ele>3037.508</ele><time>2026-04-03T23:56:36.000Z</time></trkpt>
        <trkpt lat="29.524674" lon="103.334905"><ele>3035.7307</ele><time>2026-04-03T23:56:45.000Z</time></trkpt>
        <trkpt lat="29.524722" lon="103.334916"><ele>3035.3276</ele><time>2026-04-03T23:56:57.000Z</time></trkpt>
        <trkpt lat="29.524771" lon="103.33492"><ele>3035.9302</ele><time>2026-04-03T23:57:02.000Z</time></trkpt>
        <trkpt lat="29.524821" lon="103.334912"><ele>3036.3823</ele><time>2026-04-03T23:57:07.000Z</time></trkpt>
        <trkpt lat="29.524864" lon="103.334928"><ele>3031.221</ele><time>2026-04-03T23:57:18.000Z</time></trkpt>
        <trkpt lat="29.5249" lon="103.334962"><ele>3032.998</ele><time>2026-04-03T23:57:42.000Z</time></trkpt>
        <trkpt lat="29.524914" lon="103.335052"><ele>3033.7666</ele><time>2026-04-03T23:57:46.000Z</time></trkpt>
        <trkpt lat="29.52492" lon="103.33513"><ele>3033.5857</ele><time>2026-04-03T23:57:49.000Z</time></trkpt>
        <trkpt lat="29.525009" lon="103.335137"><ele>3027.3152</ele><time>2026-04-03T23:58:16.000Z</time></trkpt>
        <trkpt lat="29.525018" lon="103.335072"><ele>3026.9497</ele><time>2026-04-03T23:58:26.000Z</time></trkpt>
        <trkpt lat="29.52506" lon="103.335033"><ele>3029.4758</ele><time>2026-04-03T23:58:29.000Z</time></trkpt>
        <trkpt lat="29.525064" lon="103.335017"><ele>3035.7644</ele><time>2026-04-03T23:58:51.000Z</time></trkpt>
        <trkpt lat="29.524988" lon="103.335052"><ele>3036.5315</ele><time>2026-04-03T23:58:53.000Z</time></trkpt>
        <trkpt lat="29.524971" lon="103.334993"><ele>3038.1543</ele><time>2026-04-03T23:58:55.000Z</time></trkpt>
        <trkpt lat="29.524935" lon="103.334937"><ele>3031.8735</ele><time>2026-04-03T23:59:08.000Z</time></trkpt>
        <trkpt lat="29.524902" lon="103.334893"><ele>3032.6099</ele><time>2026-04-03T23:59:13.000Z</time></trkpt>
        <trkpt lat="29.524859" lon="103.334845"><ele>3035.2195</ele><time>2026-04-03T23:59:18.000Z</time></trkpt>
        <trkpt lat="29.524833" lon="103.334792"><ele>3039.9116</ele><time>2026-04-03T23:59:24.000Z</time></trkpt>
        <trkpt lat="29.524872" lon="103.334758"><ele>3032.6104</ele><time>2026-04-03T23:59:36.000Z</time></trkpt>
        <trkpt lat="29.524924" lon="103.334764"><ele>3031.0803</ele><time>2026-04-03T23:59:41.000Z</time></trkpt>
        <trkpt lat="29.524978" lon="103.334763"><ele>3032.5366</ele><time>2026-04-03T23:59:46.000Z</time></trkpt>
        <trkpt lat="29.525026" lon="103.334751"><ele>3031.3606</ele><time>2026-04-03T23:59:50.000Z</time></trkpt>
        <trkpt lat="29.525072" lon="103.334777"><ele>3027.3044</ele><time>2026-04-03T23:59:55.000Z</time></trkpt>
        <trkpt lat="29.525118" lon="103.334775"><ele>3024.8994</ele><time>2026-04-04T00:00:01.000Z</time></trkpt>
        <trkpt lat="29.525164" lon="103.334766"><ele>3021.9612</ele><time>2026-04-04T00:00:05.000Z</time></trkpt>
        <trkpt lat="29.525201" lon="103.334721"><ele>3020.3782</ele><time>2026-04-04T00:00:12.000Z</time></trkpt>
        <trkpt lat="29.525243" lon="103.334703"><ele>3016.8906</ele><time>2026-04-04T00:00:18.000Z</time></trkpt>
        <trkpt lat="29.525289" lon="103.334675"><ele>3013.4646</ele><time>2026-04-04T00:00:22.000Z</time></trkpt>
        <trkpt lat="29.52534" lon="103.334639"><ele>3014.234</ele><time>2026-04-04T00:00:26.000Z</time></trkpt>
        <trkpt lat="29.525386" lon="103.334631"><ele>3012.1348</ele><time>2026-04-04T00:00:30.000Z</time></trkpt>
        <trkpt lat="29.525439" lon="103.33462"><ele>3012.2407</ele><time>2026-04-04T00:00:34.000Z</time></trkpt>
        <trkpt lat="29.525486" lon="103.334571"><ele>3011.2844</ele><time>2026-04-04T00:00:39.000Z</time></trkpt>
        <trkpt lat="29.525518" lon="103.334528"><ele>3010.9414</ele><time>2026-04-04T00:00:47.000Z</time></trkpt>
        <trkpt lat="29.525558" lon="103.334492"><ele>3010.1504</ele><time>2026-04-04T00:00:51.000Z</time></trkpt>
        <trkpt lat="29.525591" lon="103.334454"><ele>3010.1638</ele><time>2026-04-04T00:00:54.000Z</time></trkpt>
        <trkpt lat="29.525606" lon="103.334397"><ele>3007.9797</ele><time>2026-04-04T00:00:59.000Z</time></trkpt>
        <trkpt lat="29.52563" lon="103.334352"><ele>3008.1926</ele><time>2026-04-04T00:01:03.000Z</time></trkpt>
        <trkpt lat="29.525673" lon="103.334309"><ele>3006.932</ele><time>2026-04-04T00:01:09.000Z</time></trkpt>
        <trkpt lat="29.52572" lon="103.334275"><ele>3007.2927</ele><time>2026-04-04T00:01:12.000Z</time></trkpt>
        <trkpt lat="29.525763" lon="103.334248"><ele>3005.0195</ele><time>2026-04-04T00:01:16.000Z</time></trkpt>
        <trkpt lat="29.525799" lon="103.334203"><ele>3004.0344</ele><time>2026-04-04T00:01:20.000Z</time></trkpt>
        <trkpt lat="29.525817" lon="103.334152"><ele>2999.01</ele><time>2026-04-04T00:01:28.000Z</time></trkpt>
        <trkpt lat="29.52585" lon="103.334112"><ele>2998.0405</ele><time>2026-04-04T00:01:33.000Z</time></trkpt>
        <trkpt lat="29.525868" lon="103.334057"><ele>2995.6804</ele><time>2026-04-04T00:01:40.000Z</time></trkpt>
        <trkpt lat="29.525913" lon="103.334022"><ele>2994.1467</ele><time>2026-04-04T00:01:46.000Z</time></trkpt>
        <trkpt lat="29.525963" lon="103.334031"><ele>2997.4663</ele><time>2026-04-04T00:01:51.000Z</time></trkpt>
        <trkpt lat="29.526017" lon="103.334028"><ele>2997.699</ele><time>2026-04-04T00:01:55.000Z</time></trkpt>
        <trkpt lat="29.52605" lon="103.333983"><ele>2994.703</ele><time>2026-04-04T00:02:01.000Z</time></trkpt>
        <trkpt lat="29.526096" lon="103.333951"><ele>2988.7092</ele><time>2026-04-04T00:02:10.000Z</time></trkpt>
        <trkpt lat="29.526146" lon="103.333924"><ele>2986.553</ele><time>2026-04-04T00:02:15.000Z</time></trkpt>
        <trkpt lat="29.526193" lon="103.33391"><ele>2988.9688</ele><time>2026-04-04T00:02:20.000Z</time></trkpt>
        <trkpt lat="29.526234" lon="103.333878"><ele>2981.304</ele><time>2026-04-04T00:02:26.000Z</time></trkpt>
        <trkpt lat="29.526278" lon="103.333861"><ele>2979.763</ele><time>2026-04-04T00:02:30.000Z</time></trkpt>
        <trkpt lat="29.526318" lon="103.33382"><ele>2982.9465</ele><time>2026-04-04T00:02:35.000Z</time></trkpt>
        <trkpt lat="29.526376" lon="103.333802"><ele>2987.6074</ele><time>2026-04-04T00:02:39.000Z</time></trkpt>
        <trkpt lat="29.526424" lon="103.333818"><ele>2990.7244</ele><time>2026-04-04T00:02:45.000Z</time></trkpt>
        <trkpt lat="29.526453" lon="103.33377"><ele>2989.0535</ele><time>2026-04-04T00:03:04.000Z</time></trkpt>
        <trkpt lat="29.526518" lon="103.333734"><ele>2985.427</ele><time>2026-04-04T00:03:09.000Z</time></trkpt>
        <trkpt lat="29.526556" lon="103.333704"><ele>2984.7747</ele><time>2026-04-04T00:03:12.000Z</time></trkpt>
        <trkpt lat="29.526595" lon="103.333672"><ele>2983.931</ele><time>2026-04-04T00:03:16.000Z</time></trkpt>
        <trkpt lat="29.52664" lon="103.333649"><ele>2985.474</ele><time>2026-04-04T00:03:19.000Z</time></trkpt>
        <trkpt lat="29.52669" lon="103.333622"><ele>2983.942</ele><time>2026-04-04T00:03:23.000Z</time></trkpt>
        <trkpt lat="29.526734" lon="103.333608"><ele>2980.594</ele><time>2026-04-04T00:03:30.000Z</time></trkpt>
        <trkpt lat="29.526778" lon="103.333585"><ele>2975.621</ele><time>2026-04-04T00:03:36.000Z</time></trkpt>
        <trkpt lat="29.526818" lon="103.333562"><ele>2972.1497</ele><time>2026-04-04T00:03:42.000Z</time></trkpt>
        <trkpt lat="29.526869" lon="103.333555"><ele>2976.2083</ele><time>2026-04-04T00:03:56.000Z</time></trkpt>
        <trkpt lat="29.526928" lon="103.33355"><ele>2973.422</ele><time>2026-04-04T00:04:00.000Z</time></trkpt>
        <trkpt lat="29.526973" lon="103.333546"><ele>2968.9993</ele><time>2026-04-04T00:04:04.000Z</time></trkpt>
        <trkpt lat="29.527013" lon="103.33351"><ele>2965.326</ele><time>2026-04-04T00:04:08.000Z</time></trkpt>
        <trkpt lat="29.527059" lon="103.333472"><ele>2966.4863</ele><time>2026-04-04T00:04:11.000Z</time></trkpt>
        <trkpt lat="29.527101" lon="103.333449"><ele>2968.0886</ele><time>2026-04-04T00:04:13.000Z</time></trkpt>
        <trkpt lat="29.52714" lon="103.333415"><ele>2967.1719</ele><time>2026-04-04T00:04:16.000Z</time></trkpt>
        <trkpt lat="29.527189" lon="103.333382"><ele>2965.8635</ele><time>2026-04-04T00:04:21.000Z</time></trkpt>
        <trkpt lat="29.527222" lon="103.33334"><ele>2962.4695</ele><time>2026-04-04T00:04:26.000Z</time></trkpt>
        <trkpt lat="29.527197" lon="103.333276"><ele>2964.0244</ele><time>2026-04-04T00:04:28.000Z</time></trkpt>
        <trkpt lat="29.527178" lon="103.333223"><ele>2967.3684</ele><time>2026-04-04T00:04:31.000Z</time></trkpt>
        <trkpt lat="29.527163" lon="103.33317"><ele>2968.514</ele><time>2026-04-04T00:04:36.000Z</time></trkpt>
        <trkpt lat="29.527151" lon="103.333119"><ele>2968.06</ele><time>2026-04-04T00:04:42.000Z</time></trkpt>
        <trkpt lat="29.527148" lon="103.333058"><ele>2968.5667</ele><time>2026-04-04T00:04:47.000Z</time></trkpt>
        <trkpt lat="29.527157" lon="103.333006"><ele>2965.516</ele><time>2026-04-04T00:04:51.000Z</time></trkpt>
        <trkpt lat="29.527209" lon="103.332964"><ele>2962.461</ele><time>2026-04-04T00:04:57.000Z</time></trkpt>
        <trkpt lat="29.527222" lon="103.332891"><ele>2964.98</ele><time>2026-04-04T00:05:03.000Z</time></trkpt>
        <trkpt lat="29.527254" lon="103.332851"><ele>2963.059</ele><time>2026-04-04T00:05:08.000Z</time></trkpt>
        <trkpt lat="29.527266" lon="103.3328"><ele>2962.2893</ele><time>2026-04-04T00:05:11.000Z</time></trkpt>
        <trkpt lat="29.527264" lon="103.332742"><ele>2962.3022</ele><time>2026-04-04T00:05:13.000Z</time></trkpt>
        <trkpt lat="29.527267" lon="103.332682"><ele>2961.5142</ele><time>2026-04-04T00:05:16.000Z</time></trkpt>
        <trkpt lat="29.527264" lon="103.33262"><ele>2962.3435</ele><time>2026-04-04T00:05:19.000Z</time></trkpt>
        <trkpt lat="29.52725" lon="103.332565"><ele>2962.1433</ele><time>2026-04-04T00:05:23.000Z</time></trkpt>
        <trkpt lat="29.527231" lon="103.332512"><ele>2962.417</ele><time>2026-04-04T00:05:28.000Z</time></trkpt>
        <trkpt lat="29.52724" lon="103.332451"><ele>2961.091</ele><time>2026-04-04T00:05:32.000Z</time></trkpt>
        <trkpt lat="29.527224" lon="103.332385"><ele>2961.9016</ele><time>2026-04-04T00:05:36.000Z</time></trkpt>
        <trkpt lat="29.527215" lon="103.33232"><ele>2962.5073</ele><time>2026-04-04T00:05:40.000Z</time></trkpt>
        <trkpt lat="29.527251" lon="103.332282"><ele>2952.9624</ele><time>2026-04-04T00:05:45.000Z</time></trkpt>
        <trkpt lat="29.527286" lon="103.332318"><ele>2947.5212</ele><time>2026-04-04T00:05:48.000Z</time></trkpt>
        <trkpt lat="29.527306" lon="103.332364"><ele>2946.8455</ele><time>2026-04-04T00:05:51.000Z</time></trkpt>
        <trkpt lat="29.527326" lon="103.332423"><ele>2949.593</ele><time>2026-04-04T00:05:54.000Z</time></trkpt>
        <trkpt lat="29.52735" lon="103.332478"><ele>2949.404</ele><time>2026-04-04T00:05:57.000Z</time></trkpt>
        <trkpt lat="29.527379" lon="103.332521"><ele>2949.9304</ele><time>2026-04-04T00:06:00.000Z</time></trkpt>
        <trkpt lat="29.527439" lon="103.332513"><ele>2950.9004</ele><time>2026-04-04T00:06:06.000Z</time></trkpt>
        <trkpt lat="29.527489" lon="103.332516"><ele>2947.2202</ele><time>2026-04-04T00:06:13.000Z</time></trkpt>
        <trkpt lat="29.527541" lon="103.332494"><ele>2944.6272</ele><time>2026-04-04T00:06:17.000Z</time></trkpt>
        <trkpt lat="29.527579" lon="103.332466"><ele>2942.348</ele><time>2026-04-04T00:06:20.000Z</time></trkpt>
        <trkpt lat="29.527624" lon="103.332435"><ele>2943.8704</ele><time>2026-04-04T00:06:29.000Z</time></trkpt>
        <trkpt lat="29.52766" lon="103.332397"><ele>2942.496</ele><time>2026-04-04T00:06:35.000Z</time></trkpt>
        <trkpt lat="29.527652" lon="103.332341"><ele>2934.253</ele><time>2026-04-04T00:06:51.000Z</time></trkpt>
        <trkpt lat="29.527629" lon="103.332295"><ele>2934.886</ele><time>2026-04-04T00:06:56.000Z</time></trkpt>
        <trkpt lat="29.527651" lon="103.332244"><ele>2936.8174</ele><time>2026-04-04T00:07:02.000Z</time></trkpt>
        <trkpt lat="29.527686" lon="103.332212"><ele>2938.021</ele><time>2026-04-04T00:07:08.000Z</time></trkpt>
        <trkpt lat="29.527733" lon="103.33219"><ele>2934.1729</ele><time>2026-04-04T00:07:19.000Z</time></trkpt>
        <trkpt lat="29.527778" lon="103.332188"><ele>2934.5198</ele><time>2026-04-04T00:07:26.000Z</time></trkpt>
        <trkpt lat="29.527824" lon="103.332153"><ele>2927.671</ele><time>2026-04-04T00:07:31.000Z</time></trkpt>
        <trkpt lat="29.52782" lon="103.332093"><ele>2927.4639</ele><time>2026-04-04T00:07:35.000Z</time></trkpt>
        <trkpt lat="29.527816" lon="103.332041"><ele>2926.5</ele><time>2026-04-04T00:07:38.000Z</time></trkpt>
        <trkpt lat="29.527796" lon="103.331965"><ele>2925.2454</ele><time>2026-04-04T00:07:42.000Z</time></trkpt>
        <trkpt lat="29.527792" lon="103.331897"><ele>2927.1252</ele><time>2026-04-04T00:07:45.000Z</time></trkpt>
        <trkpt lat="29.527811" lon="103.331839"><ele>2927.2183</ele><time>2026-04-04T00:07:48.000Z</time></trkpt>
        <trkpt lat="29.527812" lon="103.331783"><ele>2925.6646</ele><time>2026-04-04T00:07:51.000Z</time></trkpt>
        <trkpt lat="29.527827" lon="103.331729"><ele>2923.7712</ele><time>2026-04-04T00:07:54.000Z</time></trkpt>
        <trkpt lat="29.527839" lon="103.33167"><ele>2923.0217</ele><time>2026-04-04T00:07:58.000Z</time></trkpt>
        <trkpt lat="29.527863" lon="103.331618"><ele>2921.6257</ele><time>2026-04-04T00:08:01.000Z</time></trkpt>
        <trkpt lat="29.527891" lon="103.331574"><ele>2920.722</ele><time>2026-04-04T00:08:04.000Z</time></trkpt>
        <trkpt lat="29.527914" lon="103.331522"><ele>2921.7634</ele><time>2026-04-04T00:08:08.000Z</time></trkpt>
        <trkpt lat="29.527969" lon="103.3315"><ele>2921.151</ele><time>2026-04-04T00:08:13.000Z</time></trkpt>
        <trkpt lat="29.528009" lon="103.331464"><ele>2917.9324</ele><time>2026-04-04T00:08:15.000Z</time></trkpt>
        <trkpt lat="29.528041" lon="103.331417"><ele>2916.5579</ele><time>2026-04-04T00:08:18.000Z</time></trkpt>
        <trkpt lat="29.528094" lon="103.331393"><ele>2915.3596</ele><time>2026-04-04T00:08:21.000Z</time></trkpt>
        <trkpt lat="29.528124" lon="103.331349"><ele>2914.593</ele><time>2026-04-04T00:08:25.000Z</time></trkpt>
        <trkpt lat="29.528118" lon="103.331286"><ele>2914.755</ele><time>2026-04-04T00:08:29.000Z</time></trkpt>
        <trkpt lat="29.528119" lon="103.331215"><ele>2915.982</ele><time>2026-04-04T00:08:32.000Z</time></trkpt>
        <trkpt lat="29.528128" lon="103.331153"><ele>2919.6672</ele><time>2026-04-04T00:08:35.000Z</time></trkpt>
        <trkpt lat="29.528145" lon="103.331091"><ele>2918.1487</ele><time>2026-04-04T00:08:41.000Z</time></trkpt>
        <trkpt lat="29.52816" lon="103.331039"><ele>2916.5872</ele><time>2026-04-04T00:08:45.000Z</time></trkpt>
        <trkpt lat="29.528171" lon="103.330986"><ele>2915.9805</ele><time>2026-04-04T00:08:48.000Z</time></trkpt>
        <trkpt lat="29.528202" lon="103.330927"><ele>2915.3926</ele><time>2026-04-04T00:08:51.000Z</time></trkpt>
        <trkpt lat="29.528222" lon="103.330874"><ele>2909.722</ele><time>2026-04-04T00:08:55.000Z</time></trkpt>
        <trkpt lat="29.528241" lon="103.330826"><ele>2906.6074</ele><time>2026-04-04T00:08:59.000Z</time></trkpt>
        <trkpt lat="29.528285" lon="103.330782"><ele>2901.9856</ele><time>2026-04-04T00:09:05.000Z</time></trkpt>
        <trkpt lat="29.528339" lon="103.330762"><ele>2901.1428</ele><time>2026-04-04T00:09:08.000Z</time></trkpt>
        <trkpt lat="29.528375" lon="103.330716"><ele>2897.9634</ele><time>2026-04-04T00:09:12.000Z</time></trkpt>
        <trkpt lat="29.528394" lon="103.330662"><ele>2899.5286</ele><time>2026-04-04T00:09:18.000Z</time></trkpt>
        <trkpt lat="29.528392" lon="103.330599"><ele>2900.094</ele><time>2026-04-04T00:09:22.000Z</time></trkpt>
        <trkpt lat="29.528406" lon="103.33055"><ele>2897.0054</ele><time>2026-04-04T00:09:25.000Z</time></trkpt>
        <trkpt lat="29.528402" lon="103.330492"><ele>2895.7268</ele><time>2026-04-04T00:09:28.000Z</time></trkpt>
        <trkpt lat="29.528415" lon="103.330439"><ele>2894.8857</ele><time>2026-04-04T00:09:31.000Z</time></trkpt>
        <trkpt lat="29.528383" lon="103.330394"><ele>2894.6587</ele><time>2026-04-04T00:09:34.000Z</time></trkpt>
        <trkpt lat="29.528389" lon="103.33033"><ele>2892.853</ele><time>2026-04-04T00:09:38.000Z</time></trkpt>
        <trkpt lat="29.528417" lon="103.330276"><ele>2897.1777</ele><time>2026-04-04T00:09:41.000Z</time></trkpt>
        <trkpt lat="29.528392" lon="103.330233"><ele>2898.2043</ele><time>2026-04-04T00:09:44.000Z</time></trkpt>
        <trkpt lat="29.528429" lon="103.330191"><ele>2901.4688</ele><time>2026-04-04T00:09:49.000Z</time></trkpt>
        <trkpt lat="29.528472" lon="103.330167"><ele>2903.8948</ele><time>2026-04-04T00:09:52.000Z</time></trkpt>
        <trkpt lat="29.528517" lon="103.330132"><ele>2904.7231</ele><time>2026-04-04T00:09:55.000Z</time></trkpt>
        <trkpt lat="29.528544" lon="103.330089"><ele>2905.0908</ele><time>2026-04-04T00:09:58.000Z</time></trkpt>
        <trkpt lat="29.528584" lon="103.330049"><ele>2898.3093</ele><time>2026-04-04T00:10:05.000Z</time></trkpt>
        <trkpt lat="29.528622" lon="103.330002"><ele>2891.3948</ele><time>2026-04-04T00:10:10.000Z</time></trkpt>
        <trkpt lat="29.528623" lon="103.329931"><ele>2887.4863</ele><time>2026-04-04T00:10:16.000Z</time></trkpt>
        <trkpt lat="29.528643" lon="103.329878"><ele>2883.9707</ele><time>2026-04-04T00:10:20.000Z</time></trkpt>
        <trkpt lat="29.528651" lon="103.329823"><ele>2883.0889</ele><time>2026-04-04T00:10:24.000Z</time></trkpt>
        <trkpt lat="29.528676" lon="103.329763"><ele>2885.4463</ele><time>2026-04-04T00:10:27.000Z</time></trkpt>
        <trkpt lat="29.528697" lon="103.329697"><ele>2885.2803</ele><time>2026-04-04T00:10:31.000Z</time></trkpt>
        <trkpt lat="29.528726" lon="103.329646"><ele>2886.0671</ele><time>2026-04-04T00:10:35.000Z</time></trkpt>
        <trkpt lat="29.528765" lon="103.329601"><ele>2886.4075</ele><time>2026-04-04T00:10:38.000Z</time></trkpt>
        <trkpt lat="29.528812" lon="103.329569"><ele>2886.6262</ele><time>2026-04-04T00:10:42.000Z</time></trkpt>
        <trkpt lat="29.528817" lon="103.329513"><ele>2888.9956</ele><time>2026-04-04T00:10:46.000Z</time></trkpt>
        <trkpt lat="29.528813" lon="103.329453"><ele>2891.8162</ele><time>2026-04-04T00:10:49.000Z</time></trkpt>
        <trkpt lat="29.528824" lon="103.329391"><ele>2894.178</ele><time>2026-04-04T00:10:53.000Z</time></trkpt>
        <trkpt lat="29.528834" lon="103.329325"><ele>2896.0588</ele><time>2026-04-04T00:10:57.000Z</time></trkpt>
        <trkpt lat="29.528864" lon="103.329286"><ele>2897.2573</ele><time>2026-04-04T00:11:01.000Z</time></trkpt>
        <trkpt lat="29.528875" lon="103.329226"><ele>2898.3772</ele><time>2026-04-04T00:11:07.000Z</time></trkpt>
        <trkpt lat="29.528909" lon="103.329181"><ele>2895.6729</ele><time>2026-04-04T00:11:13.000Z</time></trkpt>
        <trkpt lat="29.528938" lon="103.329128"><ele>2892.7925</ele><time>2026-04-04T00:11:24.000Z</time></trkpt>
        <trkpt lat="29.52895" lon="103.32907"><ele>2890.9006</ele><time>2026-04-04T00:11:28.000Z</time></trkpt>
        <trkpt lat="29.528988" lon="103.329015"><ele>2885.0527</ele><time>2026-04-04T00:11:34.000Z</time></trkpt>
        <trkpt lat="29.528971" lon="103.32896"><ele>2879.306</ele><time>2026-04-04T00:11:38.000Z</time></trkpt>
        <trkpt lat="29.529007" lon="103.328899"><ele>2878.319</ele><time>2026-04-04T00:11:41.000Z</time></trkpt>
        <trkpt lat="29.529027" lon="103.328847"><ele>2878.2815</ele><time>2026-04-04T00:11:46.000Z</time></trkpt>
        <trkpt lat="29.529065" lon="103.328815"><ele>2877.5706</ele><time>2026-04-04T00:11:50.000Z</time></trkpt>
        <trkpt lat="29.529093" lon="103.328769"><ele>2876.773</ele><time>2026-04-04T00:11:53.000Z</time></trkpt>
        <trkpt lat="29.529102" lon="103.328715"><ele>2875.3325</ele><time>2026-04-04T00:11:57.000Z</time></trkpt>
        <trkpt lat="29.529144" lon="103.328675"><ele>2878.7925</ele><time>2026-04-04T00:12:03.000Z</time></trkpt>
        <trkpt lat="29.529164" lon="103.328621"><ele>2875.3713</ele><time>2026-04-04T00:12:08.000Z</time></trkpt>
        <trkpt lat="29.529182" lon="103.328568"><ele>2875.0896</ele><time>2026-04-04T00:12:13.000Z</time></trkpt>
        <trkpt lat="29.529198" lon="103.328513"><ele>2868.3147</ele><time>2026-04-04T00:12:20.000Z</time></trkpt>
        <trkpt lat="29.529203" lon="103.328459"><ele>2868.5994</ele><time>2026-04-04T00:12:23.000Z</time></trkpt>
        <trkpt lat="29.529234" lon="103.328416"><ele>2867.2295</ele><time>2026-04-04T00:12:28.000Z</time></trkpt>
        <trkpt lat="29.529258" lon="103.328367"><ele>2865.8694</ele><time>2026-04-04T00:12:34.000Z</time></trkpt>
        <trkpt lat="29.529264" lon="103.328309"><ele>2865.663</ele><time>2026-04-04T00:12:39.000Z</time></trkpt>
        <trkpt lat="29.529285" lon="103.328263"><ele>2865.734</ele><time>2026-04-04T00:12:44.000Z</time></trkpt>
        <trkpt lat="29.52931" lon="103.328218"><ele>2863.3208</ele><time>2026-04-04T00:12:47.000Z</time></trkpt>
        <trkpt lat="29.529311" lon="103.32816"><ele>2861.8003</ele><time>2026-04-04T00:12:50.000Z</time></trkpt>
        <trkpt lat="29.529333" lon="103.328102"><ele>2857.7322</ele><time>2026-04-04T00:12:53.000Z</time></trkpt>
        <trkpt lat="29.529343" lon="103.328042"><ele>2853.3643</ele><time>2026-04-04T00:12:56.000Z</time></trkpt>
        <trkpt lat="29.529346" lon="103.327988"><ele>2847.888</ele><time>2026-04-04T00:13:00.000Z</time></trkpt>
        <trkpt lat="29.529372" lon="103.327934"><ele>2847.5112</ele><time>2026-04-04T00:13:08.000Z</time></trkpt>
        <trkpt lat="29.529387" lon="103.327873"><ele>2840.3037</ele><time>2026-04-04T00:13:16.000Z</time></trkpt>
        <trkpt lat="29.529442" lon="103.327883"><ele>2839.052</ele><time>2026-04-04T00:13:27.000Z</time></trkpt>
        <trkpt lat="29.529486" lon="103.327897"><ele>2839.1628</ele><time>2026-04-04T00:13:30.000Z</time></trkpt>
        <trkpt lat="29.529532" lon="103.327895"><ele>2841.3523</ele><time>2026-04-04T00:13:33.000Z</time></trkpt>
        <trkpt lat="29.529581" lon="103.327882"><ele>2840.49</ele><time>2026-04-04T00:13:36.000Z</time></trkpt>
        <trkpt lat="29.529626" lon="103.327894"><ele>2837.8823</ele><time>2026-04-04T00:13:41.000Z</time></trkpt>
        <trkpt lat="29.529691" lon="103.327889"><ele>2841.7483</ele><time>2026-04-04T00:13:45.000Z</time></trkpt>
        <trkpt lat="29.529742" lon="103.327872"><ele>2840.1914</ele><time>2026-04-04T00:13:49.000Z</time></trkpt>
        <trkpt lat="29.529777" lon="103.327832"><ele>2842.1902</ele><time>2026-04-04T00:13:53.000Z</time></trkpt>
        <trkpt lat="29.52982" lon="103.327783"><ele>2842.2766</ele><time>2026-04-04T00:13:57.000Z</time></trkpt>
        <trkpt lat="29.529839" lon="103.327735"><ele>2840.0547</ele><time>2026-04-04T00:14:01.000Z</time></trkpt>
        <trkpt lat="29.529864" lon="103.327667"><ele>2843.574</ele><time>2026-04-04T00:14:04.000Z</time></trkpt>
        <trkpt lat="29.52988" lon="103.327611"><ele>2845.4658</ele><time>2026-04-04T00:14:05.000Z</time></trkpt>
        <trkpt lat="29.529895" lon="103.327547"><ele>2844.5342</ele><time>2026-04-04T00:14:08.000Z</time></trkpt>
        <trkpt lat="29.529923" lon="103.327501"><ele>2842.0125</ele><time>2026-04-04T00:14:11.000Z</time></trkpt>
        <trkpt lat="29.529946" lon="103.32745"><ele>2840.79</ele><time>2026-04-04T00:14:14.000Z</time></trkpt>
        <trkpt lat="29.529981" lon="103.327406"><ele>2838.917</ele><time>2026-04-04T00:14:17.000Z</time></trkpt>
        <trkpt lat="29.530009" lon="103.32736"><ele>2836.1614</ele><time>2026-04-04T00:14:21.000Z</time></trkpt>
        <trkpt lat="29.530037" lon="103.327314"><ele>2836.2917</ele><time>2026-04-04T00:14:24.000Z</time></trkpt>
        <trkpt lat="29.530085" lon="103.327274"><ele>2837.6992</ele><time>2026-04-04T00:14:27.000Z</time></trkpt>
        <trkpt lat="29.530129" lon="103.327251"><ele>2836.999</ele><time>2026-04-04T00:14:30.000Z</time></trkpt>
        <trkpt lat="29.530174" lon="103.327217"><ele>2835.4253</ele><time>2026-04-04T00:14:33.000Z</time></trkpt>
        <trkpt lat="29.530207" lon="103.327171"><ele>2835.1333</ele><time>2026-04-04T00:14:36.000Z</time></trkpt>
        <trkpt lat="29.530254" lon="103.327146"><ele>2835.4746</ele><time>2026-04-04T00:14:39.000Z</time></trkpt>
        <trkpt lat="29.530299" lon="103.327121"><ele>2835.696</ele><time>2026-04-04T00:14:42.000Z</time></trkpt>
        <trkpt lat="29.530352" lon="103.327107"><ele>2834.9634</ele><time>2026-04-04T00:14:45.000Z</time></trkpt>
        <trkpt lat="29.530392" lon="103.327083"><ele>2835.416</ele><time>2026-04-04T00:14:48.000Z</time></trkpt>
        <trkpt lat="29.530439" lon="103.327057"><ele>2835.016</ele><time>2026-04-04T00:14:52.000Z</time></trkpt>
        <trkpt lat="29.530492" lon="103.327045"><ele>2834.7422</ele><time>2026-04-04T00:14:55.000Z</time></trkpt>
        <trkpt lat="29.530531" lon="103.327005"><ele>2830.2522</ele><time>2026-04-04T00:14:59.000Z</time></trkpt>
        <trkpt lat="29.53058" lon="103.326993"><ele>2833.5698</ele><time>2026-04-04T00:15:02.000Z</time></trkpt>
        <trkpt lat="29.53063" lon="103.326999"><ele>2835.3823</ele><time>2026-04-04T00:15:06.000Z</time></trkpt>
        <trkpt lat="29.530689" lon="103.327"><ele>2833.517</ele><time>2026-04-04T00:15:13.000Z</time></trkpt>
        <trkpt lat="29.530735" lon="103.326971"><ele>2831.926</ele><time>2026-04-04T00:15:18.000Z</time></trkpt>
        <trkpt lat="29.530791" lon="103.326972"><ele>2829.6875</ele><time>2026-04-04T00:15:22.000Z</time></trkpt>
        <trkpt lat="29.530833" lon="103.326946"><ele>2825.4404</ele><time>2026-04-04T00:15:28.000Z</time></trkpt>
        <trkpt lat="29.53088" lon="103.326962"><ele>2820.3994</ele><time>2026-04-04T00:15:40.000Z</time></trkpt>
        <trkpt lat="29.530885" lon="103.327022"><ele>2816.3188</ele><time>2026-04-04T00:15:46.000Z</time></trkpt>
        <trkpt lat="29.530937" lon="103.327039"><ele>2816.025</ele><time>2026-04-04T00:15:52.000Z</time></trkpt>
        <trkpt lat="29.530982" lon="103.32703"><ele>2819.3572</ele><time>2026-04-04T00:15:57.000Z</time></trkpt>
        <trkpt lat="29.531037" lon="103.327036"><ele>2816.8508</ele><time>2026-04-04T00:16:01.000Z</time></trkpt>
        <trkpt lat="29.531087" lon="103.327054"><ele>2813.9756</ele><time>2026-04-04T00:16:05.000Z</time></trkpt>
        <trkpt lat="29.531117" lon="103.327104"><ele>2803.1006</ele><time>2026-04-04T00:16:27.000Z</time></trkpt>
        <trkpt lat="29.53116" lon="103.327138"><ele>2803.5232</ele><time>2026-04-04T00:16:30.000Z</time></trkpt>
        <trkpt lat="29.531191" lon="103.327186"><ele>2801.1416</ele><time>2026-04-04T00:16:37.000Z</time></trkpt>
        <trkpt lat="29.531217" lon="103.327229"><ele>2803.4028</ele><time>2026-04-04T00:16:42.000Z</time></trkpt>
        <trkpt lat="29.531244" lon="103.327281"><ele>2802.3752</ele><time>2026-04-04T00:16:47.000Z</time></trkpt>
        <trkpt lat="29.531254" lon="103.327337"><ele>2801.2314</ele><time>2026-04-04T00:16:52.000Z</time></trkpt>
        <trkpt lat="29.531229" lon="103.327382"><ele>2786.42</ele><time>2026-04-04T00:17:04.000Z</time></trkpt>
        <trkpt lat="29.531197" lon="103.327419"><ele>2780.2332</ele><time>2026-04-04T00:17:09.000Z</time></trkpt>
        <trkpt lat="29.531218" lon="103.327488"><ele>2780.8271</ele><time>2026-04-04T00:17:14.000Z</time></trkpt>
        <trkpt lat="29.531219" lon="103.32754"><ele>2781.346</ele><time>2026-04-04T00:17:18.000Z</time></trkpt>
        <trkpt lat="29.531216" lon="103.327602"><ele>2778.9036</ele><time>2026-04-04T00:17:22.000Z</time></trkpt>
        <trkpt lat="29.531197" lon="103.327653"><ele>2777.0896</ele><time>2026-04-04T00:17:27.000Z</time></trkpt>
        <trkpt lat="29.53118" lon="103.327709"><ele>2775.3997</ele><time>2026-04-04T00:17:31.000Z</time></trkpt>
        <trkpt lat="29.531153" lon="103.32775"><ele>2773.705</ele><time>2026-04-04T00:17:35.000Z</time></trkpt>
        <trkpt lat="29.531155" lon="103.327802"><ele>2769.4312</ele><time>2026-04-04T00:17:41.000Z</time></trkpt>
        <trkpt lat="29.531172" lon="103.327865"><ele>2769.9702</ele><time>2026-04-04T00:17:46.000Z</time></trkpt>
        <trkpt lat="29.531188" lon="103.327935"><ele>2769.047</ele><time>2026-04-04T00:17:49.000Z</time></trkpt>
        <trkpt lat="29.531186" lon="103.32799"><ele>2770.3782</ele><time>2026-04-04T00:17:52.000Z</time></trkpt>
        <trkpt lat="29.531189" lon="103.328049"><ele>2769.797</ele><time>2026-04-04T00:17:55.000Z</time></trkpt>
        <trkpt lat="29.531207" lon="103.328131"><ele>2769.9163</ele><time>2026-04-04T00:17:59.000Z</time></trkpt>
        <trkpt lat="29.531205" lon="103.328188"><ele>2767.8342</ele><time>2026-04-04T00:18:02.000Z</time></trkpt>
        <trkpt lat="29.531189" lon="103.328237"><ele>2766.347</ele><time>2026-04-04T00:18:06.000Z</time></trkpt>
        <trkpt lat="29.531157" lon="103.328292"><ele>2764.3728</ele><time>2026-04-04T00:18:09.000Z</time></trkpt>
        <trkpt lat="29.531165" lon="103.328356"><ele>2764.2793</ele><time>2026-04-04T00:18:13.000Z</time></trkpt>
        <trkpt lat="29.531175" lon="103.328417"><ele>2766.1184</ele><time>2026-04-04T00:18:20.000Z</time></trkpt>
        <trkpt lat="29.531202" lon="103.328479"><ele>2768.0483</ele><time>2026-04-04T00:18:22.000Z</time></trkpt>
        <trkpt lat="29.531209" lon="103.328533"><ele>2770.3694</ele><time>2026-04-04T00:18:25.000Z</time></trkpt>
        <trkpt lat="29.531188" lon="103.328602"><ele>2769.121</ele><time>2026-04-04T00:18:32.000Z</time></trkpt>
        <trkpt lat="29.531194" lon="103.328673"><ele>2771.3992</ele><time>2026-04-04T00:18:37.000Z</time></trkpt>
        <trkpt lat="29.531197" lon="103.328728"><ele>2772.6108</ele><time>2026-04-04T00:18:41.000Z</time></trkpt>
        <trkpt lat="29.531175" lon="103.328784"><ele>2761.659</ele><time>2026-04-04T00:18:53.000Z</time></trkpt>
        <trkpt lat="29.531146" lon="103.328827"><ele>2759.3923</ele><time>2026-04-04T00:18:58.000Z</time></trkpt>
        <trkpt lat="29.531137" lon="103.328894"><ele>2761.043</ele><time>2026-04-04T00:19:02.000Z</time></trkpt>
        <trkpt lat="29.531128" lon="103.328948"><ele>2756.2043</ele><time>2026-04-04T00:19:06.000Z</time></trkpt>
        <trkpt lat="29.53114" lon="103.329015"><ele>2756.3855</ele><time>2026-04-04T00:19:11.000Z</time></trkpt>
        <trkpt lat="29.531128" lon="103.329077"><ele>2754.928</ele><time>2026-04-04T00:19:16.000Z</time></trkpt>
        <trkpt lat="29.531136" lon="103.329132"><ele>2754.9136</ele><time>2026-04-04T00:19:20.000Z</time></trkpt>
        <trkpt lat="29.531137" lon="103.329185"><ele>2754.711</ele><time>2026-04-04T00:19:23.000Z</time></trkpt>
        <trkpt lat="29.531132" lon="103.32924"><ele>2753.3657</ele><time>2026-04-04T00:19:27.000Z</time></trkpt>
        <trkpt lat="29.531131" lon="103.329302"><ele>2751.7756</ele><time>2026-04-04T00:19:33.000Z</time></trkpt>
        <trkpt lat="29.531168" lon="103.329347"><ele>2752.255</ele><time>2026-04-04T00:19:38.000Z</time></trkpt>
        <trkpt lat="29.531202" lon="103.32939"><ele>2754.0386</ele><time>2026-04-04T00:19:43.000Z</time></trkpt>
        <trkpt lat="29.531214" lon="103.329449"><ele>2754.7388</ele><time>2026-04-04T00:19:48.000Z</time></trkpt>
        <trkpt lat="29.531214" lon="103.329509"><ele>2750.765</ele><time>2026-04-04T00:19:53.000Z</time></trkpt>
        <trkpt lat="29.531235" lon="103.329564"><ele>2748.3938</ele><time>2026-04-04T00:19:58.000Z</time></trkpt>
        <trkpt lat="29.531253" lon="103.329616"><ele>2744.8262</ele><time>2026-04-04T00:20:03.000Z</time></trkpt>
        <trkpt lat="29.531256" lon="103.329672"><ele>2738.7866</ele><time>2026-04-04T00:20:10.000Z</time></trkpt>
        <trkpt lat="29.531293" lon="103.329706"><ele>2737.0315</ele><time>2026-04-04T00:20:13.000Z</time></trkpt>
        <trkpt lat="29.531322" lon="103.329749"><ele>2735.2664</ele><time>2026-04-04T00:20:19.000Z</time></trkpt>
        <trkpt lat="29.531348" lon="103.3298"><ele>2734.4756</ele><time>2026-04-04T00:20:27.000Z</time></trkpt>
        <trkpt lat="29.531377" lon="103.329846"><ele>2736.2705</ele><time>2026-04-04T00:20:34.000Z</time></trkpt>
        <trkpt lat="29.531413" lon="103.329878"><ele>2734.7275</ele><time>2026-04-04T00:20:42.000Z</time></trkpt>
        <trkpt lat="29.531467" lon="103.32989"><ele>2730.6719</ele><time>2026-04-04T00:20:50.000Z</time></trkpt>
        <trkpt lat="29.531442" lon="103.32994"><ele>2719.6018</ele><time>2026-04-04T00:21:00.000Z</time></trkpt>
        <trkpt lat="29.531487" lon="103.329969"><ele>2716.193</ele><time>2026-04-04T00:21:09.000Z</time></trkpt>
        <trkpt lat="29.531527" lon="103.330007"><ele>2719.6838</ele><time>2026-04-04T00:21:13.000Z</time></trkpt>
        <trkpt lat="29.531569" lon="103.330028"><ele>2719.6978</ele><time>2026-04-04T00:21:18.000Z</time></trkpt>
        <trkpt lat="29.531633" lon="103.330042"><ele>2718.865</ele><time>2026-04-04T00:21:23.000Z</time></trkpt>
        <trkpt lat="29.53168" lon="103.330056"><ele>2714.8223</ele><time>2026-04-04T00:21:30.000Z</time></trkpt>
        <trkpt lat="29.531723" lon="103.33009"><ele>2709.7861</ele><time>2026-04-04T00:21:37.000Z</time></trkpt>
        <trkpt lat="29.531768" lon="103.330099"><ele>2708.7793</ele><time>2026-04-04T00:21:40.000Z</time></trkpt>
        <trkpt lat="29.531797" lon="103.330148"><ele>2703.8364</ele><time>2026-04-04T00:21:49.000Z</time></trkpt>
        <trkpt lat="29.53181" lon="103.330198"><ele>2701.0725</ele><time>2026-04-04T00:21:54.000Z</time></trkpt>
        <trkpt lat="29.531842" lon="103.330239"><ele>2699.4402</ele><time>2026-04-04T00:21:59.000Z</time></trkpt>
        <trkpt lat="29.531863" lon="103.330286"><ele>2694.0005</ele><time>2026-04-04T00:22:05.000Z</time></trkpt>
        <trkpt lat="29.531903" lon="103.330326"><ele>2688.9915</ele><time>2026-04-04T00:22:15.000Z</time></trkpt>
        <trkpt lat="29.531937" lon="103.330291"><ele>2681.8083</ele><time>2026-04-04T00:22:23.000Z</time></trkpt>
        <trkpt lat="29.531982" lon="103.330306"><ele>2682.1692</ele><time>2026-04-04T00:22:27.000Z</time></trkpt>
        <trkpt lat="29.53203" lon="103.330294"><ele>2680.1328</ele><time>2026-04-04T00:22:35.000Z</time></trkpt>
        <trkpt lat="29.532078" lon="103.330298"><ele>2677.7</ele><time>2026-04-04T00:22:40.000Z</time></trkpt>
        <trkpt lat="29.53213" lon="103.330299"><ele>2679.6873</ele><time>2026-04-04T00:22:44.000Z</time></trkpt>
        <trkpt lat="29.53218" lon="103.330304"><ele>2683.6113</ele><time>2026-04-04T00:22:49.000Z</time></trkpt>
        <trkpt lat="29.532155" lon="103.330347"><ele>2673.94</ele><time>2026-04-04T00:23:11.000Z</time></trkpt>
        <trkpt lat="29.532168" lon="103.330403"><ele>2672.8232</ele><time>2026-04-04T00:23:17.000Z</time></trkpt>
        <trkpt lat="29.532206" lon="103.33045"><ele>2670.2559</ele><time>2026-04-04T00:23:22.000Z</time></trkpt>
        <trkpt lat="29.532257" lon="103.330458"><ele>2668.2253</ele><time>2026-04-04T00:23:26.000Z</time></trkpt>
        <trkpt lat="29.532255" lon="103.330512"><ele>2661.2185</ele><time>2026-04-04T00:23:35.000Z</time></trkpt>
        <trkpt lat="29.532268" lon="103.330571"><ele>2663.035</ele><time>2026-04-04T00:23:40.000Z</time></trkpt>
        <trkpt lat="29.5323" lon="103.330619"><ele>2665.6912</ele><time>2026-04-04T00:23:44.000Z</time></trkpt>
        <trkpt lat="29.532291" lon="103.33068"><ele>2664.2761</ele><time>2026-04-04T00:23:48.000Z</time></trkpt>
        <trkpt lat="29.532284" lon="103.330742"><ele>2666.5981</ele><time>2026-04-04T00:23:53.000Z</time></trkpt>
        <trkpt lat="29.532269" lon="103.330802"><ele>2664.7078</ele><time>2026-04-04T00:23:56.000Z</time></trkpt>
        <trkpt lat="29.532264" lon="103.330854"><ele>2663.7046</ele><time>2026-04-04T00:23:59.000Z</time></trkpt>
        <trkpt lat="29.532271" lon="103.330918"><ele>2665.302</ele><time>2026-04-04T00:24:03.000Z</time></trkpt>
        <trkpt lat="29.53227" lon="103.330969"><ele>2668.3223</ele><time>2026-04-04T00:24:07.000Z</time></trkpt>
        <trkpt lat="29.532248" lon="103.331022"><ele>2660.568</ele><time>2026-04-04T00:24:17.000Z</time></trkpt>
        <trkpt lat="29.532271" lon="103.331066"><ele>2661.3005</ele><time>2026-04-04T00:24:21.000Z</time></trkpt>
        <trkpt lat="29.532257" lon="103.331118"><ele>2661.6453</ele><time>2026-04-04T00:24:25.000Z</time></trkpt>
        <trkpt lat="29.532248" lon="103.33117"><ele>2661.303</ele><time>2026-04-04T00:24:29.000Z</time></trkpt>
        <trkpt lat="29.532229" lon="103.331217"><ele>2658.4175</ele><time>2026-04-04T00:24:33.000Z</time></trkpt>
        <trkpt lat="29.532239" lon="103.331271"><ele>2655.187</ele><time>2026-04-04T00:24:38.000Z</time></trkpt>
        <trkpt lat="29.532243" lon="103.33133"><ele>2652.7332</ele><time>2026-04-04T00:24:43.000Z</time></trkpt>
        <trkpt lat="29.532236" lon="103.331394"><ele>2652.1746</ele><time>2026-04-04T00:24:48.000Z</time></trkpt>
        <trkpt lat="29.53225" lon="103.331456"><ele>2650.6172</ele><time>2026-04-04T00:24:53.000Z</time></trkpt>
        <trkpt lat="29.532288" lon="103.331425"><ele>2646.6482</ele><time>2026-04-04T00:24:59.000Z</time></trkpt>
        <trkpt lat="29.532324" lon="103.331381"><ele>2646.2917</ele><time>2026-04-04T00:25:02.000Z</time></trkpt>
        <trkpt lat="29.532356" lon="103.331337"><ele>2642.737</ele><time>2026-04-04T00:25:08.000Z</time></trkpt>
        <trkpt lat="29.532364" lon="103.331285"><ele>2638.4724</ele><time>2026-04-04T00:25:13.000Z</time></trkpt>
        <trkpt lat="29.532389" lon="103.331341"><ele>2632.7156</ele><time>2026-04-04T00:25:26.000Z</time></trkpt>
        <trkpt lat="29.532422" lon="103.331392"><ele>2632.451</ele><time>2026-04-04T00:25:32.000Z</time></trkpt>
        <trkpt lat="29.532447" lon="103.331446"><ele>2631.1206</ele><time>2026-04-04T00:25:37.000Z</time></trkpt>
        <trkpt lat="29.532461" lon="103.331498"><ele>2630.2324</ele><time>2026-04-04T00:25:42.000Z</time></trkpt>
        <trkpt lat="29.532477" lon="103.331548"><ele>2629.2715</ele><time>2026-04-04T00:25:49.000Z</time></trkpt>
        <trkpt lat="29.532487" lon="103.331604"><ele>2627.1816</ele><time>2026-04-04T00:25:55.000Z</time></trkpt>
        <trkpt lat="29.532496" lon="103.331659"><ele>2623.4314</ele><time>2026-04-04T00:26:02.000Z</time></trkpt>
        <trkpt lat="29.53253" lon="103.331695"><ele>2620.6606</ele><time>2026-04-04T00:26:08.000Z</time></trkpt>
        <trkpt lat="29.532525" lon="103.331751"><ele>2611.274</ele><time>2026-04-04T00:26:18.000Z</time></trkpt>
        <trkpt lat="29.532554" lon="103.331803"><ele>2614.0576</ele><time>2026-04-04T00:26:24.000Z</time></trkpt>
        <trkpt lat="29.532588" lon="103.331838"><ele>2615.02</ele><time>2026-04-04T00:26:28.000Z</time></trkpt>
        <trkpt lat="29.532622" lon="103.331878"><ele>2615.191</ele><time>2026-04-04T00:26:32.000Z</time></trkpt>
        <trkpt lat="29.532645" lon="103.331931"><ele>2613.1243</ele><time>2026-04-04T00:26:39.000Z</time></trkpt>
        <trkpt lat="29.532659" lon="103.331986"><ele>2610.1475</ele><time>2026-04-04T00:26:45.000Z</time></trkpt>
        <trkpt lat="29.532684" lon="103.33203"><ele>2609.191</ele><time>2026-04-04T00:26:51.000Z</time></trkpt>
        <trkpt lat="29.532708" lon="103.332076"><ele>2604.3857</ele><time>2026-04-04T00:26:59.000Z</time></trkpt>
        <trkpt lat="29.532738" lon="103.332123"><ele>2600.047</ele><time>2026-04-04T00:27:05.000Z</time></trkpt>
        <trkpt lat="29.532779" lon="103.332163"><ele>2598.5405</ele><time>2026-04-04T00:27:11.000Z</time></trkpt>
        <trkpt lat="29.532813" lon="103.332204"><ele>2598.4297</ele><time>2026-04-04T00:27:15.000Z</time></trkpt>
        <trkpt lat="29.532831" lon="103.332257"><ele>2595.8037</ele><time>2026-04-04T00:27:21.000Z</time></trkpt>
        <trkpt lat="29.532864" lon="103.332294"><ele>2596.4524</ele><time>2026-04-04T00:27:26.000Z</time></trkpt>
        <trkpt lat="29.53289" lon="103.332338"><ele>2593.4043</ele><time>2026-04-04T00:27:32.000Z</time></trkpt>
        <trkpt lat="29.53291" lon="103.332385"><ele>2590.5862</ele><time>2026-04-04T00:27:38.000Z</time></trkpt>
        <trkpt lat="29.532944" lon="103.332426"><ele>2590.187</ele><time>2026-04-04T00:27:42.000Z</time></trkpt>
        <trkpt lat="29.53298" lon="103.332461"><ele>2588.8533</ele><time>2026-04-04T00:27:46.000Z</time></trkpt>
        <trkpt lat="29.533021" lon="103.332488"><ele>2588.3093</ele><time>2026-04-04T00:27:50.000Z</time></trkpt>
        <trkpt lat="29.533054" lon="103.332526"><ele>2583.5015</ele><time>2026-04-04T00:27:58.000Z</time></trkpt>
        <trkpt lat="29.533104" lon="103.332563"><ele>2584.3296</ele><time>2026-04-04T00:28:03.000Z</time></trkpt>
        <trkpt lat="29.533159" lon="103.332593"><ele>2589.0405</ele><time>2026-04-04T00:28:09.000Z</time></trkpt>
        <trkpt lat="29.533195" lon="103.33263"><ele>2590.7695</ele><time>2026-04-04T00:28:14.000Z</time></trkpt>
        <trkpt lat="29.533237" lon="103.33265"><ele>2586.9175</ele><time>2026-04-04T00:28:19.000Z</time></trkpt>
        <trkpt lat="29.533282" lon="103.332674"><ele>2584.393</ele><time>2026-04-04T00:28:27.000Z</time></trkpt>
        <trkpt lat="29.533295" lon="103.332725"><ele>2577.6973</ele><time>2026-04-04T00:28:35.000Z</time></trkpt>
        <trkpt lat="29.533334" lon="103.332756"><ele>2577.7842</ele><time>2026-04-04T00:28:40.000Z</time></trkpt>
        <trkpt lat="29.533384" lon="103.332793"><ele>2578.2026</ele><time>2026-04-04T00:28:44.000Z</time></trkpt>
        <trkpt lat="29.533423" lon="103.332831"><ele>2573.4604</ele><time>2026-04-04T00:28:50.000Z</time></trkpt>
        <trkpt lat="29.53346" lon="103.332867"><ele>2569.2334</ele><time>2026-04-04T00:28:56.000Z</time></trkpt>
        <trkpt lat="29.533499" lon="103.332903"><ele>2568.5818</ele><time>2026-04-04T00:29:01.000Z</time></trkpt>
        <trkpt lat="29.533532" lon="103.332939"><ele>2565.6133</ele><time>2026-04-04T00:29:05.000Z</time></trkpt>
        <trkpt lat="29.533579" lon="103.332979"><ele>2562.439</ele><time>2026-04-04T00:29:10.000Z</time></trkpt>
        <trkpt lat="29.533629" lon="103.333004"><ele>2561.8691</ele><time>2026-04-04T00:29:15.000Z</time></trkpt>
        <trkpt lat="29.533675" lon="103.33304"><ele>2559.7617</ele><time>2026-04-04T00:29:20.000Z</time></trkpt>
        <trkpt lat="29.533718" lon="103.333058"><ele>2559.3962</ele><time>2026-04-04T00:29:24.000Z</time></trkpt>
        <trkpt lat="29.533739" lon="103.333112"><ele>2553.4026</ele><time>2026-04-04T00:29:32.000Z</time></trkpt>
        <trkpt lat="29.533778" lon="103.333144"><ele>2549.8953</ele><time>2026-04-04T00:29:38.000Z</time></trkpt>
        <trkpt lat="29.533814" lon="103.33318"><ele>2549.1484</ele><time>2026-04-04T00:29:43.000Z</time></trkpt>
        <trkpt lat="29.533849" lon="103.333219"><ele>2547.3184</ele><time>2026-04-04T00:29:49.000Z</time></trkpt>
        <trkpt lat="29.533894" lon="103.333263"><ele>2547.5928</ele><time>2026-04-04T00:29:55.000Z</time></trkpt>
        <trkpt lat="29.533938" lon="103.333286"><ele>2553.317</ele><time>2026-04-04T00:29:58.000Z</time></trkpt>
        <trkpt lat="29.533987" lon="103.333293"><ele>2553.151</ele><time>2026-04-04T00:30:05.000Z</time></trkpt>
        <trkpt lat="29.534035" lon="103.333282"><ele>2556.725</ele><time>2026-04-04T00:30:08.000Z</time></trkpt>
        <trkpt lat="29.534084" lon="103.333268"><ele>2557.5193</ele><time>2026-04-04T00:30:13.000Z</time></trkpt>
        <trkpt lat="29.534139" lon="103.333263"><ele>2552.83</ele><time>2026-04-04T00:30:17.000Z</time></trkpt>
        <trkpt lat="29.534178" lon="103.333231"><ele>2547.0005</ele><time>2026-04-04T00:30:21.000Z</time></trkpt>
        <trkpt lat="29.534222" lon="103.333212"><ele>2544.065</ele><time>2026-04-04T00:30:26.000Z</time></trkpt>
        <trkpt lat="29.534268" lon="103.333186"><ele>2540.5532</ele><time>2026-04-04T00:30:31.000Z</time></trkpt>
        <trkpt lat="29.534312" lon="103.333153"><ele>2538.8882</ele><time>2026-04-04T00:30:37.000Z</time></trkpt>
        <trkpt lat="29.534348" lon="103.333191"><ele>2534.7668</ele><time>2026-04-04T00:30:52.000Z</time></trkpt>
        <trkpt lat="29.534392" lon="103.333166"><ele>2530.977</ele><time>2026-04-04T00:31:02.000Z</time></trkpt>
        <trkpt lat="29.534441" lon="103.333147"><ele>2533.2703</ele><time>2026-04-04T00:31:06.000Z</time></trkpt>
        <trkpt lat="29.534488" lon="103.333131"><ele>2531.772</ele><time>2026-04-04T00:31:10.000Z</time></trkpt>
        <trkpt lat="29.534532" lon="103.333116"><ele>2526.1492</ele><time>2026-04-04T00:31:20.000Z</time></trkpt>
        <trkpt lat="29.534578" lon="103.333096"><ele>2528.353</ele><time>2026-04-04T00:31:30.000Z</time></trkpt>
        <trkpt lat="29.534629" lon="103.33307"><ele>2526.4636</ele><time>2026-04-04T00:31:34.000Z</time></trkpt>
        <trkpt lat="29.534678" lon="103.333048"><ele>2523.2969</ele><time>2026-04-04T00:31:40.000Z</time></trkpt>
        <trkpt lat="29.534727" lon="103.333033"><ele>2522.396</ele><time>2026-04-04T00:31:44.000Z</time></trkpt>
        <trkpt lat="29.534776" lon="103.333017"><ele>2515.9773</ele><time>2026-04-04T00:31:51.000Z</time></trkpt>
        <trkpt lat="29.534824" lon="103.333017"><ele>2513.7676</ele><time>2026-04-04T00:31:56.000Z</time></trkpt>
        <trkpt lat="29.534884" lon="103.332994"><ele>2511.6177</ele><time>2026-04-04T00:32:00.000Z</time></trkpt>
        <trkpt lat="29.534896" lon="103.332936"><ele>2509.6316</ele><time>2026-04-04T00:32:03.000Z</time></trkpt>
        <trkpt lat="29.534902" lon="103.332878"><ele>2508.7505</ele><time>2026-04-04T00:32:12.000Z</time></trkpt>
        <trkpt lat="29.534944" lon="103.332848"><ele>2509.9465</ele><time>2026-04-04T00:32:18.000Z</time></trkpt>
        <trkpt lat="29.534997" lon="103.332844"><ele>2511.9895</ele><time>2026-04-04T00:32:23.000Z</time></trkpt>
        <trkpt lat="29.535042" lon="103.332873"><ele>2510.8577</ele><time>2026-04-04T00:32:31.000Z</time></trkpt>
        <trkpt lat="29.535077" lon="103.332908"><ele>2509.322</ele><time>2026-04-04T00:32:39.000Z</time></trkpt>
        <trkpt lat="29.535099" lon="103.332957"><ele>2508.2148</ele><time>2026-04-04T00:32:50.000Z</time></trkpt>
        <trkpt lat="29.535124" lon="103.333002"><ele>2507.8218</ele><time>2026-04-04T00:32:58.000Z</time></trkpt>
        <trkpt lat="29.535139" lon="103.333058"><ele>2508.3137</ele><time>2026-04-04T00:33:07.000Z</time></trkpt>
        <trkpt lat="29.535161" lon="103.333104"><ele>2505.7788</ele><time>2026-04-04T00:33:14.000Z</time></trkpt>
        <trkpt lat="29.535188" lon="103.333172"><ele>2504.8435</ele><time>2026-04-04T00:33:24.000Z</time></trkpt>
        <trkpt lat="29.53524" lon="103.333207"><ele>2511.1267</ele><time>2026-04-04T00:33:30.000Z</time></trkpt>
        <trkpt lat="29.535247" lon="103.333258"><ele>2505.8484</ele><time>2026-04-04T00:33:35.000Z</time></trkpt>
        <trkpt lat="29.535258" lon="103.33332"><ele>2501.9065</ele><time>2026-04-04T00:33:41.000Z</time></trkpt>
        <trkpt lat="29.53529" lon="103.333369"><ele>2504.3071</ele><time>2026-04-04T00:33:44.000Z</time></trkpt>
        <trkpt lat="29.535325" lon="103.333409"><ele>2505.0547</ele><time>2026-04-04T00:33:47.000Z</time></trkpt>
        <trkpt lat="29.535343" lon="103.333465"><ele>2503.5793</ele><time>2026-04-04T00:33:51.000Z</time></trkpt>
        <trkpt lat="29.535369" lon="103.333515"><ele>2500.0295</ele><time>2026-04-04T00:33:58.000Z</time></trkpt>
        <trkpt lat="29.535389" lon="103.333564"><ele>2498.8071</ele><time>2026-04-04T00:34:02.000Z</time></trkpt>
        <trkpt lat="29.535399" lon="103.333635"><ele>2498.4639</ele><time>2026-04-04T00:34:06.000Z</time></trkpt>
        <trkpt lat="29.535429" lon="103.333682"><ele>2500.1082</ele><time>2026-04-04T00:34:09.000Z</time></trkpt>
        <trkpt lat="29.535459" lon="103.333727"><ele>2500.0034</ele><time>2026-04-04T00:34:12.000Z</time></trkpt>
        <trkpt lat="29.535497" lon="103.333761"><ele>2497.5945</ele><time>2026-04-04T00:34:15.000Z</time></trkpt>
        <trkpt lat="29.535537" lon="103.333786"><ele>2496.0188</ele><time>2026-04-04T00:34:18.000Z</time></trkpt>
        <trkpt lat="29.535585" lon="103.3338"><ele>2496.496</ele><time>2026-04-04T00:34:22.000Z</time></trkpt>
        <trkpt lat="29.53561" lon="103.333846"><ele>2494.819</ele><time>2026-04-04T00:34:27.000Z</time></trkpt>
        <trkpt lat="29.535632" lon="103.333891"><ele>2495.406</ele><time>2026-04-04T00:34:31.000Z</time></trkpt>
        <trkpt lat="29.535649" lon="103.333944"><ele>2495.3147</ele><time>2026-04-04T00:34:39.000Z</time></trkpt>
        <trkpt lat="29.535683" lon="103.333993"><ele>2492.2327</ele><time>2026-04-04T00:34:45.000Z</time></trkpt>
        <trkpt lat="29.535725" lon="103.334013"><ele>2491.9841</ele><time>2026-04-04T00:34:49.000Z</time></trkpt>
        <trkpt lat="29.535766" lon="103.334037"><ele>2491.0984</ele><time>2026-04-04T00:34:53.000Z</time></trkpt>
        <trkpt lat="29.535806" lon="103.334062"><ele>2491.7146</ele><time>2026-04-04T00:34:59.000Z</time></trkpt>
        <trkpt lat="29.535845" lon="103.334097"><ele>2489.6694</ele><time>2026-04-04T00:35:03.000Z</time></trkpt>
        <trkpt lat="29.535892" lon="103.334115"><ele>2488.7454</ele><time>2026-04-04T00:35:09.000Z</time></trkpt>
        <trkpt lat="29.535936" lon="103.334144"><ele>2490.0945</ele><time>2026-04-04T00:35:16.000Z</time></trkpt>
        <trkpt lat="29.535979" lon="103.334161"><ele>2489.2698</ele><time>2026-04-04T00:35:21.000Z</time></trkpt>
        <trkpt lat="29.536032" lon="103.334178"><ele>2487.1875</ele><time>2026-04-04T00:35:26.000Z</time></trkpt>
        <trkpt lat="29.536065" lon="103.334215"><ele>2483.5435</ele><time>2026-04-04T00:35:34.000Z</time></trkpt>
        <trkpt lat="29.536088" lon="103.33427"><ele>2477.952</ele><time>2026-04-04T00:35:41.000Z</time></trkpt>
        <trkpt lat="29.536136" lon="103.334266"><ele>2470.6482</ele><time>2026-04-04T00:35:51.000Z</time></trkpt>
        <trkpt lat="29.536192" lon="103.33428"><ele>2471.056</ele><time>2026-04-04T00:35:54.000Z</time></trkpt>
        <trkpt lat="29.536237" lon="103.334293"><ele>2473.7358</ele><time>2026-04-04T00:35:56.000Z</time></trkpt>
        <trkpt lat="29.536285" lon="103.334334"><ele>2474.9106</ele><time>2026-04-04T00:35:59.000Z</time></trkpt>
        <trkpt lat="29.536341" lon="103.334355"><ele>2478.3784</ele><time>2026-04-04T00:36:03.000Z</time></trkpt>
        <trkpt lat="29.536386" lon="103.334361"><ele>2486.2888</ele><time>2026-04-04T00:36:10.000Z</time></trkpt>
        <trkpt lat="29.536432" lon="103.334358"><ele>2482.8347</ele><time>2026-04-04T00:36:16.000Z</time></trkpt>
        <trkpt lat="29.536478" lon="103.334341"><ele>2481.06</ele><time>2026-04-04T00:36:21.000Z</time></trkpt>
        <trkpt lat="29.536533" lon="103.334335"><ele>2478.3525</ele><time>2026-04-04T00:36:27.000Z</time></trkpt>
        <trkpt lat="29.536579" lon="103.33434"><ele>2474.1753</ele><time>2026-04-04T00:36:32.000Z</time></trkpt>
        <trkpt lat="29.536627" lon="103.334349"><ele>2472.1606</ele><time>2026-04-04T00:36:36.000Z</time></trkpt>
        <trkpt lat="29.536678" lon="103.334357"><ele>2469.232</ele><time>2026-04-04T00:36:40.000Z</time></trkpt>
        <trkpt lat="29.536726" lon="103.33435"><ele>2468.554</ele><time>2026-04-04T00:36:44.000Z</time></trkpt>
        <trkpt lat="29.536778" lon="103.334358"><ele>2467.578</ele><time>2026-04-04T00:36:48.000Z</time></trkpt>
        <trkpt lat="29.536826" lon="103.334351"><ele>2466.8967</ele><time>2026-04-04T00:36:53.000Z</time></trkpt>
        <trkpt lat="29.536853" lon="103.334308"><ele>2460.991</ele><time>2026-04-04T00:37:15.000Z</time></trkpt>
        <trkpt lat="29.536898" lon="103.334294"><ele>2457.3083</ele><time>2026-04-04T00:37:24.000Z</time></trkpt>
        <trkpt lat="29.536944" lon="103.33426"><ele>2455.8586</ele><time>2026-04-04T00:37:30.000Z</time></trkpt>
        <trkpt lat="29.53699" lon="103.334233"><ele>2456.2576</ele><time>2026-04-04T00:37:36.000Z</time></trkpt>
        <trkpt lat="29.537038" lon="103.334216"><ele>2452.7075</ele><time>2026-04-04T00:37:41.000Z</time></trkpt>
        <trkpt lat="29.537094" lon="103.334218"><ele>2451.3271</ele><time>2026-04-04T00:37:47.000Z</time></trkpt>
        <trkpt lat="29.537149" lon="103.334201"><ele>2451.106</ele><time>2026-04-04T00:37:51.000Z</time></trkpt>
        <trkpt lat="29.537194" lon="103.334194"><ele>2451.7817</ele><time>2026-04-04T00:37:54.000Z</time></trkpt>
        <trkpt lat="29.537223" lon="103.334139"><ele>2449.0872</ele><time>2026-04-04T00:37:58.000Z</time></trkpt>
        <trkpt lat="29.537239" lon="103.334087"><ele>2448.8157</ele><time>2026-04-04T00:38:02.000Z</time></trkpt>
        <trkpt lat="29.537274" lon="103.334034"><ele>2446.2349</ele><time>2026-04-04T00:38:09.000Z</time></trkpt>
        <trkpt lat="29.53728" lon="103.333979"><ele>2445.5498</ele><time>2026-04-04T00:38:16.000Z</time></trkpt>
        <trkpt lat="29.537303" lon="103.333933"><ele>2443.4248</ele><time>2026-04-04T00:38:24.000Z</time></trkpt>
        <trkpt lat="29.537321" lon="103.333875"><ele>2441.9497</ele><time>2026-04-04T00:38:29.000Z</time></trkpt>
        <trkpt lat="29.537369" lon="103.333846"><ele>2443.201</ele><time>2026-04-04T00:38:33.000Z</time></trkpt>
        <trkpt lat="29.537414" lon="103.333832"><ele>2443.3286</ele><time>2026-04-04T00:38:38.000Z</time></trkpt>
        <trkpt lat="29.537473" lon="103.333838"><ele>2444.361</ele><time>2026-04-04T00:38:43.000Z</time></trkpt>
        <trkpt lat="29.537529" lon="103.333862"><ele>2442.0361</ele><time>2026-04-04T00:38:47.000Z</time></trkpt>
        <trkpt lat="29.537583" lon="103.333849"><ele>2440.7021</ele><time>2026-04-04T00:38:51.000Z</time></trkpt>
        <trkpt lat="29.537629" lon="103.333853"><ele>2442.3645</ele><time>2026-04-04T00:38:56.000Z</time></trkpt>
        <trkpt lat="29.537676" lon="103.333818"><ele>2442.268</ele><time>2026-04-04T00:38:59.000Z</time></trkpt>
        <trkpt lat="29.537729" lon="103.333786"><ele>2441.4817</ele><time>2026-04-04T00:39:03.000Z</time></trkpt>
        <trkpt lat="29.537741" lon="103.33373"><ele>2441.6458</ele><time>2026-04-04T00:39:06.000Z</time></trkpt>
        <trkpt lat="29.537795" lon="103.333701"><ele>2440.1362</ele><time>2026-04-04T00:39:11.000Z</time></trkpt>
        <trkpt lat="29.537844" lon="103.333662"><ele>2439.3306</ele><time>2026-04-04T00:39:15.000Z</time></trkpt>
        <trkpt lat="29.537887" lon="103.333641"><ele>2437.99</ele><time>2026-04-04T00:39:18.000Z</time></trkpt>
        <trkpt lat="29.537912" lon="103.333594"><ele>2438.3154</ele><time>2026-04-04T00:39:21.000Z</time></trkpt>
        <trkpt lat="29.537956" lon="103.333569"><ele>2437.2466</ele><time>2026-04-04T00:39:24.000Z</time></trkpt>
        <trkpt lat="29.537992" lon="103.333533"><ele>2436.1272</ele><time>2026-04-04T00:39:26.000Z</time></trkpt>
        <trkpt lat="29.538033" lon="103.333508"><ele>2436.635</ele><time>2026-04-04T00:39:29.000Z</time></trkpt>
        <trkpt lat="29.538076" lon="103.333489"><ele>2436.6418</ele><time>2026-04-04T00:39:32.000Z</time></trkpt>
        <trkpt lat="29.538116" lon="103.33346"><ele>2435.269</ele><time>2026-04-04T00:39:36.000Z</time></trkpt>
        <trkpt lat="29.538148" lon="103.333423"><ele>2435.0745</ele><time>2026-04-04T00:39:40.000Z</time></trkpt>
        <trkpt lat="29.538187" lon="103.333396"><ele>2435.7544</ele><time>2026-04-04T00:39:44.000Z</time></trkpt>
        <trkpt lat="29.538226" lon="103.333358"><ele>2435.7388</ele><time>2026-04-04T00:39:48.000Z</time></trkpt>
        <trkpt lat="29.538269" lon="103.333342"><ele>2436.6946</ele><time>2026-04-04T00:39:51.000Z</time></trkpt>
        <trkpt lat="29.538316" lon="103.333321"><ele>2440.569</ele><time>2026-04-04T00:39:55.000Z</time></trkpt>
        <trkpt lat="29.538363" lon="103.333308"><ele>2445.2966</ele><time>2026-04-04T00:39:59.000Z</time></trkpt>
        <trkpt lat="29.538408" lon="103.333288"><ele>2447.1926</ele><time>2026-04-04T00:40:11.000Z</time></trkpt>
        <trkpt lat="29.538445" lon="103.333248"><ele>2442.3027</ele><time>2026-04-04T00:40:16.000Z</time></trkpt>
        <trkpt lat="29.538492" lon="103.333259"><ele>2439.2666</ele><time>2026-04-04T00:40:19.000Z</time></trkpt>
        <trkpt lat="29.538546" lon="103.333243"><ele>2437.2346</ele><time>2026-04-04T00:40:24.000Z</time></trkpt>
        <trkpt lat="29.538595" lon="103.333233"><ele>2432.596</ele><time>2026-04-04T00:40:28.000Z</time></trkpt>
        <trkpt lat="29.538639" lon="103.333206"><ele>2430.3372</ele><time>2026-04-04T00:40:31.000Z</time></trkpt>
        <trkpt lat="29.538695" lon="103.333195"><ele>2427.9436</ele><time>2026-04-04T00:40:35.000Z</time></trkpt>
        <trkpt lat="29.538758" lon="103.333173"><ele>2428.2126</ele><time>2026-04-04T00:40:39.000Z</time></trkpt>
        <trkpt lat="29.538806" lon="103.333149"><ele>2427.1807</ele><time>2026-04-04T00:40:44.000Z</time></trkpt>
        <trkpt lat="29.538859" lon="103.333134"><ele>2427.4368</ele><time>2026-04-04T00:40:48.000Z</time></trkpt>
        <trkpt lat="29.538913" lon="103.333123"><ele>2427.8264</ele><time>2026-04-04T00:40:52.000Z</time></trkpt>
        <trkpt lat="29.53896" lon="103.333118"><ele>2427.7397</ele><time>2026-04-04T00:40:55.000Z</time></trkpt>
        <trkpt lat="29.538997" lon="103.333085"><ele>2425.713</ele><time>2026-04-04T00:40:58.000Z</time></trkpt>
        <trkpt lat="29.539048" lon="103.333035"><ele>2425.741</ele><time>2026-04-04T00:41:03.000Z</time></trkpt>
        <trkpt lat="29.539102" lon="103.332997"><ele>2423.4595</ele><time>2026-04-04T00:41:06.000Z</time></trkpt>
        <trkpt lat="29.539128" lon="103.332937"><ele>2422.466</ele><time>2026-04-04T00:41:10.000Z</time></trkpt>
        <trkpt lat="29.539184" lon="103.332928"><ele>2420.7642</ele><time>2026-04-04T00:41:14.000Z</time></trkpt>
        <trkpt lat="29.53922" lon="103.332877"><ele>2422.5486</ele><time>2026-04-04T00:41:20.000Z</time></trkpt>
        <trkpt lat="29.539249" lon="103.332837"><ele>2423.5105</ele><time>2026-04-04T00:41:24.000Z</time></trkpt>
        <trkpt lat="29.539297" lon="103.332798"><ele>2423.2378</ele><time>2026-04-04T00:41:31.000Z</time></trkpt>
        <trkpt lat="29.539335" lon="103.332757"><ele>2420.7598</ele><time>2026-04-04T00:41:34.000Z</time></trkpt>
        <trkpt lat="29.539366" lon="103.332697"><ele>2419.3599</ele><time>2026-04-04T00:41:39.000Z</time></trkpt>
        <trkpt lat="29.539414" lon="103.332672"><ele>2421.6204</ele><time>2026-04-04T00:41:42.000Z</time></trkpt>
        <trkpt lat="29.539449" lon="103.332622"><ele>2421.4817</ele><time>2026-04-04T00:41:49.000Z</time></trkpt>
        <trkpt lat="29.539496" lon="103.332617"><ele>2420.7368</ele><time>2026-04-04T00:41:57.000Z</time></trkpt>
        <trkpt lat="29.539534" lon="103.332571"><ele>2418.5823</ele><time>2026-04-04T00:42:02.000Z</time></trkpt>
        <trkpt lat="29.539574" lon="103.332532"><ele>2414.3972</ele><time>2026-04-04T00:42:08.000Z</time></trkpt>
        <trkpt lat="29.539609" lon="103.332484"><ele>2410.9282</ele><time>2026-04-04T00:42:14.000Z</time></trkpt>
        <trkpt lat="29.539666" lon="103.332474"><ele>2411.5251</ele><time>2026-04-04T00:42:18.000Z</time></trkpt>
        <trkpt lat="29.539721" lon="103.332435"><ele>2411.062</ele><time>2026-04-04T00:42:22.000Z</time></trkpt>
        <trkpt lat="29.539751" lon="103.33239"><ele>2409.878</ele><time>2026-04-04T00:42:25.000Z</time></trkpt>
        <trkpt lat="29.539776" lon="103.332346"><ele>2408.2852</ele><time>2026-04-04T00:42:28.000Z</time></trkpt>
        <trkpt lat="29.539811" lon="103.332307"><ele>2408.9265</ele><time>2026-04-04T00:42:31.000Z</time></trkpt>
        <trkpt lat="29.539851" lon="103.332278"><ele>2410.5027</ele><time>2026-04-04T00:42:35.000Z</time></trkpt>
        <trkpt lat="29.539901" lon="103.332256"><ele>2407.9094</ele><time>2026-04-04T00:42:39.000Z</time></trkpt>
        <trkpt lat="29.53996" lon="103.332229"><ele>2408.1155</ele><time>2026-04-04T00:42:43.000Z</time></trkpt>
        <trkpt lat="29.54001" lon="103.332222"><ele>2406.5066</ele><time>2026-04-04T00:42:47.000Z</time></trkpt>
        <trkpt lat="29.540046" lon="103.332175"><ele>2407.499</ele><time>2026-04-04T00:42:50.000Z</time></trkpt>
        <trkpt lat="29.540086" lon="103.332151"><ele>2409.5205</ele><time>2026-04-04T00:43:00.000Z</time></trkpt>
        <trkpt lat="29.540137" lon="103.332127"><ele>2412.6511</ele><time>2026-04-04T00:43:06.000Z</time></trkpt>
        <trkpt lat="29.540173" lon="103.332088"><ele>2416.2634</ele><time>2026-04-04T00:43:56.000Z</time></trkpt>
        <trkpt lat="29.540219" lon="103.332074"><ele>2421.312</ele><time>2026-04-04T00:44:01.000Z</time></trkpt>
        <trkpt lat="29.540239" lon="103.332014"><ele>2416.1965</ele><time>2026-04-04T00:44:12.000Z</time></trkpt>
        <trkpt lat="29.540288" lon="103.331985"><ele>2413.9377</ele><time>2026-04-04T00:44:15.000Z</time></trkpt>
        <trkpt lat="29.540343" lon="103.331967"><ele>2410.6096</ele><time>2026-04-04T00:44:20.000Z</time></trkpt>
        <trkpt lat="29.540391" lon="103.331954"><ele>2410.029</ele><time>2026-04-04T00:44:23.000Z</time></trkpt>
        <trkpt lat="29.540438" lon="103.331933"><ele>2408.34</ele><time>2026-04-04T00:44:27.000Z</time></trkpt>
        <trkpt lat="29.540479" lon="103.331905"><ele>2407.4717</ele><time>2026-04-04T00:44:31.000Z</time></trkpt>
        <trkpt lat="29.540531" lon="103.331882"><ele>2404.353</ele><time>2026-04-04T00:44:35.000Z</time></trkpt>
        <trkpt lat="29.540568" lon="103.331842"><ele>2401.9314</ele><time>2026-04-04T00:44:39.000Z</time></trkpt>
        <trkpt lat="29.540611" lon="103.331798"><ele>2403.1345</ele><time>2026-04-04T00:44:44.000Z</time></trkpt>
        <trkpt lat="29.540655" lon="103.331784"><ele>2402.9475</ele><time>2026-04-04T00:44:47.000Z</time></trkpt>
        <trkpt lat="29.540708" lon="103.331785"><ele>2402.1978</ele><time>2026-04-04T00:44:53.000Z</time></trkpt>
        <trkpt lat="29.540755" lon="103.331783"><ele>2401.5735</ele><time>2026-04-04T00:44:57.000Z</time></trkpt>
        <trkpt lat="29.540804" lon="103.331796"><ele>2401.717</ele><time>2026-04-04T00:45:01.000Z</time></trkpt>
        <trkpt lat="29.540854" lon="103.331817"><ele>2400.233</ele><time>2026-04-04T00:45:05.000Z</time></trkpt>
        <trkpt lat="29.540906" lon="103.331842"><ele>2400.5818</ele><time>2026-04-04T00:45:10.000Z</time></trkpt>
        <trkpt lat="29.540956" lon="103.331865"><ele>2401.2861</ele><time>2026-04-04T00:45:15.000Z</time></trkpt>
        <trkpt lat="29.541015" lon="103.331862"><ele>2399.1482</ele><time>2026-04-04T00:45:20.000Z</time></trkpt>
        <trkpt lat="29.541068" lon="103.331855"><ele>2399.658</ele><time>2026-04-04T00:45:27.000Z</time></trkpt>
        <trkpt lat="29.541114" lon="103.331836"><ele>2399.3545</ele><time>2026-04-04T00:45:30.000Z</time></trkpt>
        <trkpt lat="29.541159" lon="103.33182"><ele>2402.3975</ele><time>2026-04-04T00:45:35.000Z</time></trkpt>
        <trkpt lat="29.541208" lon="103.331809"><ele>2403.8726</ele><time>2026-04-04T00:45:37.000Z</time></trkpt>
        <trkpt lat="29.541264" lon="103.331798"><ele>2405.2227</ele><time>2026-04-04T00:45:41.000Z</time></trkpt>
        <trkpt lat="29.541324" lon="103.331776"><ele>2406.0608</ele><time>2026-04-04T00:45:45.000Z</time></trkpt>
        <trkpt lat="29.541379" lon="103.331771"><ele>2407.3157</ele><time>2026-04-04T00:45:48.000Z</time></trkpt>
        <trkpt lat="29.541442" lon="103.331757"><ele>2408.306</ele><time>2026-04-04T00:45:52.000Z</time></trkpt>
        <trkpt lat="29.541497" lon="103.331737"><ele>2406.711</ele><time>2026-04-04T00:45:55.000Z</time></trkpt>
        <trkpt lat="29.541549" lon="103.331715"><ele>2408.38</ele><time>2026-04-04T00:45:58.000Z</time></trkpt>
        <trkpt lat="29.541601" lon="103.331695"><ele>2409.0996</ele><time>2026-04-04T00:46:01.000Z</time></trkpt>
        <trkpt lat="29.54165" lon="103.331675"><ele>2409.4854</ele><time>2026-04-04T00:46:04.000Z</time></trkpt>
        <trkpt lat="29.541709" lon="103.331669"><ele>2407.5356</ele><time>2026-04-04T00:46:08.000Z</time></trkpt>
        <trkpt lat="29.541759" lon="103.331675"><ele>2409.02</ele><time>2026-04-04T00:46:11.000Z</time></trkpt>
        <trkpt lat="29.541808" lon="103.331671"><ele>2404.8052</ele><time>2026-04-04T00:46:17.000Z</time></trkpt>
        <trkpt lat="29.541852" lon="103.331713"><ele>2402.5095</ele><time>2026-04-04T00:46:25.000Z</time></trkpt>
        <trkpt lat="29.541843" lon="103.331769"><ele>2401.8862</ele><time>2026-04-04T00:46:28.000Z</time></trkpt>
        <trkpt lat="29.541832" lon="103.331836"><ele>2401.1692</ele><time>2026-04-04T00:46:32.000Z</time></trkpt>
        <trkpt lat="29.541795" lon="103.331879"><ele>2399.3403</ele><time>2026-04-04T00:46:36.000Z</time></trkpt>
        <trkpt lat="29.541754" lon="103.331928"><ele>2399.2012</ele><time>2026-04-04T00:46:40.000Z</time></trkpt>
        <trkpt lat="29.541756" lon="103.33199"><ele>2398.733</ele><time>2026-04-04T00:46:44.000Z</time></trkpt>
        <trkpt lat="29.541807" lon="103.332026"><ele>2398.0413</ele><time>2026-04-04T00:46:48.000Z</time></trkpt>
        <trkpt lat="29.541854" lon="103.332045"><ele>2396.9482</ele><time>2026-04-04T00:46:52.000Z</time></trkpt>
        <trkpt lat="29.541904" lon="103.332034"><ele>2396.9082</ele><time>2026-04-04T00:46:56.000Z</time></trkpt>
        <trkpt lat="29.54196" lon="103.332025"><ele>2396.1663</ele><time>2026-04-04T00:47:01.000Z</time></trkpt>
        <trkpt lat="29.542016" lon="103.332011"><ele>2396.063</ele><time>2026-04-04T00:47:05.000Z</time></trkpt>
        <trkpt lat="29.542065" lon="103.332024"><ele>2398.0552</ele><time>2026-04-04T00:47:08.000Z</time></trkpt>
        <trkpt lat="29.542111" lon="103.332037"><ele>2400.244</ele><time>2026-04-04T00:47:12.000Z</time></trkpt>
        <trkpt lat="29.542157" lon="103.332035"><ele>2402.1174</ele><time>2026-04-04T00:47:21.000Z</time></trkpt>
        <trkpt lat="29.542204" lon="103.332044"><ele>2402.7886</ele><time>2026-04-04T00:47:29.000Z</time></trkpt>
        <trkpt lat="29.542251" lon="103.332055"><ele>2402.3613</ele><time>2026-04-04T00:47:34.000Z</time></trkpt>
        <trkpt lat="29.542294" lon="103.332086"><ele>2401.9878</ele><time>2026-04-04T00:47:38.000Z</time></trkpt>
        <trkpt lat="29.542306" lon="103.332147"><ele>2402.9841</ele><time>2026-04-04T00:47:42.000Z</time></trkpt>
        <trkpt lat="29.542329" lon="103.332197"><ele>2402.996</ele><time>2026-04-04T00:47:59.000Z</time></trkpt>
        <trkpt lat="29.542377" lon="103.332202"><ele>2403.1443</ele><time>2026-04-04T00:48:03.000Z</time></trkpt>
        <trkpt lat="29.54243" lon="103.332198"><ele>2403.5242</ele><time>2026-04-04T00:48:10.000Z</time></trkpt>
        <trkpt lat="29.542473" lon="103.332237"><ele>2402.4717</ele><time>2026-04-04T00:48:14.000Z</time></trkpt>
        <trkpt lat="29.542515" lon="103.332291"><ele>2403.6086</ele><time>2026-04-04T00:48:18.000Z</time></trkpt>
        <trkpt lat="29.542546" lon="103.33233"><ele>2403.4214</ele><time>2026-04-04T00:48:21.000Z</time></trkpt>
        <trkpt lat="29.542578" lon="103.332371"><ele>2403.26</ele><time>2026-04-04T00:48:24.000Z</time></trkpt>
        <trkpt lat="29.542593" lon="103.332421"><ele>2401.9893</ele><time>2026-04-04T00:48:28.000Z</time></trkpt>
        <trkpt lat="29.542613" lon="103.332475"><ele>2403.6384</ele><time>2026-04-04T00:48:36.000Z</time></trkpt>
        <trkpt lat="29.542619" lon="103.332528"><ele>2406.4385</ele><time>2026-04-04T00:48:42.000Z</time></trkpt>
        <trkpt lat="29.542633" lon="103.33259"><ele>2407.4075</ele><time>2026-04-04T00:48:46.000Z</time></trkpt>
        <trkpt lat="29.542659" lon="103.332633"><ele>2407.2832</ele><time>2026-04-04T00:48:51.000Z</time></trkpt>
        <trkpt lat="29.542705" lon="103.332671"><ele>2406.8079</ele><time>2026-04-04T00:48:55.000Z</time></trkpt>
        <trkpt lat="29.542751" lon="103.332682"><ele>2403.556</ele><time>2026-04-04T00:49:00.000Z</time></trkpt>
        <trkpt lat="29.542799" lon="103.332702"><ele>2403.8123</ele><time>2026-04-04T00:49:06.000Z</time></trkpt>
        <trkpt lat="29.542825" lon="103.332747"><ele>2403.0447</ele><time>2026-04-04T00:49:10.000Z</time></trkpt>
        <trkpt lat="29.542858" lon="103.332791"><ele>2402.4177</ele><time>2026-04-04T00:49:15.000Z</time></trkpt>
        <trkpt lat="29.542897" lon="103.332835"><ele>2399.3406</ele><time>2026-04-04T00:49:20.000Z</time></trkpt>
        <trkpt lat="29.542923" lon="103.332882"><ele>2400.246</ele><time>2026-04-04T00:49:23.000Z</time></trkpt>
        <trkpt lat="29.542969" lon="103.332923"><ele>2402.0276</ele><time>2026-04-04T00:49:27.000Z</time></trkpt>
        <trkpt lat="29.542991" lon="103.33297"><ele>2406.3245</ele><time>2026-04-04T00:49:40.000Z</time></trkpt>
        <trkpt lat="29.543039" lon="103.332999"><ele>2404.952</ele><time>2026-04-04T00:49:44.000Z</time></trkpt>
        <trkpt lat="29.543091" lon="103.333"><ele>2405.413</ele><time>2026-04-04T00:49:47.000Z</time></trkpt>
        <trkpt lat="29.543146" lon="103.333003"><ele>2406.2966</ele><time>2026-04-04T00:49:51.000Z</time></trkpt>
        <trkpt lat="29.543187" lon="103.333059"><ele>2403.9507</ele><time>2026-04-04T00:49:56.000Z</time></trkpt>
        <trkpt lat="29.543198" lon="103.333125"><ele>2399.417</ele><time>2026-04-04T00:50:02.000Z</time></trkpt>
        <trkpt lat="29.543232" lon="103.333183"><ele>2395.8525</ele><time>2026-04-04T00:50:07.000Z</time></trkpt>
        <trkpt lat="29.543259" lon="103.333233"><ele>2395.692</ele><time>2026-04-04T00:50:11.000Z</time></trkpt>
        <trkpt lat="29.543304" lon="103.333272"><ele>2397.8948</ele><time>2026-04-04T00:50:14.000Z</time></trkpt>
        <trkpt lat="29.543309" lon="103.333326"><ele>2397.7988</ele><time>2026-04-04T00:50:18.000Z</time></trkpt>
        <trkpt lat="29.543304" lon="103.333379"><ele>2398.5125</ele><time>2026-04-04T00:50:21.000Z</time></trkpt>
        <trkpt lat="29.543328" lon="103.333422"><ele>2396.3953</ele><time>2026-04-04T00:50:24.000Z</time></trkpt>
        <trkpt lat="29.543344" lon="103.333491"><ele>2396.1755</ele><time>2026-04-04T00:50:28.000Z</time></trkpt>
        <trkpt lat="29.543349" lon="103.333551"><ele>2397.5288</ele><time>2026-04-04T00:50:32.000Z</time></trkpt>
        <trkpt lat="29.543364" lon="103.333605"><ele>2397.7542</ele><time>2026-04-04T00:50:36.000Z</time></trkpt>
        <trkpt lat="29.543372" lon="103.333665"><ele>2398.5425</ele><time>2026-04-04T00:50:41.000Z</time></trkpt>
        <trkpt lat="29.543407" lon="103.333712"><ele>2400.9707</ele><time>2026-04-04T00:50:47.000Z</time></trkpt>
        <trkpt lat="29.543451" lon="103.333738"><ele>2400.6445</ele><time>2026-04-04T00:50:52.000Z</time></trkpt>
        <trkpt lat="29.543493" lon="103.333775"><ele>2402.568</ele><time>2026-04-04T00:50:58.000Z</time></trkpt>
        <trkpt lat="29.543529" lon="103.333827"><ele>2402.88</ele><time>2026-04-04T00:51:04.000Z</time></trkpt>
        <trkpt lat="29.543564" lon="103.333859"><ele>2402.3254</ele><time>2026-04-04T00:51:09.000Z</time></trkpt>
        <trkpt lat="29.54359" lon="103.333902"><ele>2400.9016</ele><time>2026-04-04T00:51:12.000Z</time></trkpt>
        <trkpt lat="29.543625" lon="103.333941"><ele>2399.8862</ele><time>2026-04-04T00:51:15.000Z</time></trkpt>
        <trkpt lat="29.543691" lon="103.333972"><ele>2401.783</ele><time>2026-04-04T00:51:18.000Z</time></trkpt>
        <trkpt lat="29.543743" lon="103.333995"><ele>2404.6025</ele><time>2026-04-04T00:51:21.000Z</time></trkpt>
        <trkpt lat="29.543797" lon="103.333994"><ele>2407.7297</ele><time>2026-04-04T00:51:24.000Z</time></trkpt>
        <trkpt lat="29.543846" lon="103.33397"><ele>2408.212</ele><time>2026-04-04T00:51:30.000Z</time></trkpt>
        <trkpt lat="29.543892" lon="103.333975"><ele>2406.3245</ele><time>2026-04-04T00:51:36.000Z</time></trkpt>
        <trkpt lat="29.543931" lon="103.334004"><ele>2404.319</ele><time>2026-04-04T00:51:40.000Z</time></trkpt>
        <trkpt lat="29.543943" lon="103.334054"><ele>2402.9536</ele><time>2026-04-04T00:51:43.000Z</time></trkpt>
        <trkpt lat="29.543981" lon="103.33411"><ele>2402.9946</ele><time>2026-04-04T00:51:48.000Z</time></trkpt>
        <trkpt lat="29.544024" lon="103.334146"><ele>2401.6611</ele><time>2026-04-04T00:51:52.000Z</time></trkpt>
        <trkpt lat="29.544058" lon="103.334187"><ele>2402.1782</ele><time>2026-04-04T00:51:56.000Z</time></trkpt>
        <trkpt lat="29.544109" lon="103.334191"><ele>2402.9395</ele><time>2026-04-04T00:52:01.000Z</time></trkpt>
        <trkpt lat="29.544156" lon="103.334198"><ele>2404.2793</ele><time>2026-04-04T00:52:05.000Z</time></trkpt>
        <trkpt lat="29.5442" lon="103.334211"><ele>2401.206</ele><time>2026-04-04T00:52:10.000Z</time></trkpt>
        <trkpt lat="29.544254" lon="103.334215"><ele>2403.2417</ele><time>2026-04-04T00:52:14.000Z</time></trkpt>
        <trkpt lat="29.544314" lon="103.334224"><ele>2404.9846</ele><time>2026-04-04T00:52:19.000Z</time></trkpt>
        <trkpt lat="29.544359" lon="103.334237"><ele>2406.4683</ele><time>2026-04-04T00:52:23.000Z</time></trkpt>
        <trkpt lat="29.544415" lon="103.334227"><ele>2408.9736</ele><time>2026-04-04T00:52:26.000Z</time></trkpt>
        <trkpt lat="29.544474" lon="103.33424"><ele>2410.7595</ele><time>2026-04-04T00:52:30.000Z</time></trkpt>
        <trkpt lat="29.544522" lon="103.334263"><ele>2411.3752</ele><time>2026-04-04T00:52:34.000Z</time></trkpt>
        <trkpt lat="29.544577" lon="103.334279"><ele>2412.2876</ele><time>2026-04-04T00:52:38.000Z</time></trkpt>
        <trkpt lat="29.544627" lon="103.33427"><ele>2414.3955</ele><time>2026-04-04T00:52:42.000Z</time></trkpt>
        <trkpt lat="29.544677" lon="103.334267"><ele>2417.0957</ele><time>2026-04-04T00:52:45.000Z</time></trkpt>
        <trkpt lat="29.544727" lon="103.334245"><ele>2417.7432</ele><time>2026-04-04T00:52:48.000Z</time></trkpt>
        <trkpt lat="29.544783" lon="103.334206"><ele>2416.0771</ele><time>2026-04-04T00:52:51.000Z</time></trkpt>
        <trkpt lat="29.544819" lon="103.334149"><ele>2415.102</ele><time>2026-04-04T00:52:54.000Z</time></trkpt>
        <trkpt lat="29.544853" lon="103.334102"><ele>2417.0962</ele><time>2026-04-04T00:52:58.000Z</time></trkpt>
        <trkpt lat="29.544899" lon="103.334095"><ele>2417.0781</ele><time>2026-04-04T00:53:01.000Z</time></trkpt>
        <trkpt lat="29.544944" lon="103.334098"><ele>2417.3667</ele><time>2026-04-04T00:53:05.000Z</time></trkpt>
        <trkpt lat="29.544993" lon="103.334105"><ele>2420.3367</ele><time>2026-04-04T00:53:08.000Z</time></trkpt>
        <trkpt lat="29.54504" lon="103.334135"><ele>2424.5283</ele><time>2026-04-04T00:53:12.000Z</time></trkpt>
        <trkpt lat="29.545085" lon="103.334111"><ele>2424.2876</ele><time>2026-04-04T00:53:18.000Z</time></trkpt>
        <trkpt lat="29.545137" lon="103.334102"><ele>2425.0813</ele><time>2026-04-04T00:53:24.000Z</time></trkpt>
        <trkpt lat="29.545181" lon="103.334119"><ele>2421.4353</ele><time>2026-04-04T00:53:27.000Z</time></trkpt>
        <trkpt lat="29.54523" lon="103.33415"><ele>2420.551</ele><time>2026-04-04T00:53:30.000Z</time></trkpt>
        <trkpt lat="29.545271" lon="103.334174"><ele>2421.4995</ele><time>2026-04-04T00:53:33.000Z</time></trkpt>
        <trkpt lat="29.545302" lon="103.334228"><ele>2420.2769</ele><time>2026-04-04T00:53:36.000Z</time></trkpt>
        <trkpt lat="29.545338" lon="103.334269"><ele>2415.7217</ele><time>2026-04-04T00:53:41.000Z</time></trkpt>
        <trkpt lat="29.545388" lon="103.334302"><ele>2415.574</ele><time>2026-04-04T00:53:47.000Z</time></trkpt>
        <trkpt lat="29.545433" lon="103.334333"><ele>2415.2053</ele><time>2026-04-04T00:53:51.000Z</time></trkpt>
        <trkpt lat="29.545471" lon="103.334377"><ele>2415.4087</ele><time>2026-04-04T00:53:55.000Z</time></trkpt>
        <trkpt lat="29.545508" lon="103.334413"><ele>2412.8892</ele><time>2026-04-04T00:54:00.000Z</time></trkpt>
        <trkpt lat="29.545561" lon="103.334442"><ele>2413.9104</ele><time>2026-04-04T00:54:03.000Z</time></trkpt>
        <trkpt lat="29.545614" lon="103.334471"><ele>2416.9546</ele><time>2026-04-04T00:54:07.000Z</time></trkpt>
        <trkpt lat="29.545662" lon="103.33447"><ele>2416.3286</ele><time>2026-04-04T00:54:12.000Z</time></trkpt>
        <trkpt lat="29.54569" lon="103.334514"><ele>2413.0962</ele><time>2026-04-04T00:54:23.000Z</time></trkpt>
        <trkpt lat="29.545728" lon="103.334556"><ele>2411.2112</ele><time>2026-04-04T00:54:29.000Z</time></trkpt>
        <trkpt lat="29.545777" lon="103.334595"><ele>2410.9578</ele><time>2026-04-04T00:54:35.000Z</time></trkpt>
        <trkpt lat="29.545812" lon="103.334635"><ele>2410.9253</ele><time>2026-04-04T00:54:38.000Z</time></trkpt>
        <trkpt lat="29.545826" lon="103.334686"><ele>2411.6252</ele><time>2026-04-04T00:54:43.000Z</time></trkpt>
        <trkpt lat="29.54585" lon="103.334741"><ele>2415.755</ele><time>2026-04-04T00:54:52.000Z</time></trkpt>
        <trkpt lat="29.545893" lon="103.334761"><ele>2418.3596</ele><time>2026-04-04T00:54:57.000Z</time></trkpt>
        <trkpt lat="29.54594" lon="103.334773"><ele>2421.5098</ele><time>2026-04-04T00:55:03.000Z</time></trkpt>
        <trkpt lat="29.545989" lon="103.334775"><ele>2424.096</ele><time>2026-04-04T00:55:08.000Z</time></trkpt>
        <trkpt lat="29.546036" lon="103.334788"><ele>2422.3809</ele><time>2026-04-04T00:55:12.000Z</time></trkpt>
        <trkpt lat="29.546093" lon="103.334812"><ele>2420.7363</ele><time>2026-04-04T00:55:17.000Z</time></trkpt>
        <trkpt lat="29.546146" lon="103.334827"><ele>2420.7686</ele><time>2026-04-04T00:55:21.000Z</time></trkpt>
        <trkpt lat="29.5462" lon="103.33483"><ele>2420.3997</ele><time>2026-04-04T00:55:25.000Z</time></trkpt>
        <trkpt lat="29.546244" lon="103.334804"><ele>2418.8157</ele><time>2026-04-04T00:55:30.000Z</time></trkpt>
        <trkpt lat="29.546301" lon="103.334818"><ele>2416.8584</ele><time>2026-04-04T00:55:35.000Z</time></trkpt>
        <trkpt lat="29.546349" lon="103.334827"><ele>2420.0757</ele><time>2026-04-04T00:55:40.000Z</time></trkpt>
        <trkpt lat="29.546388" lon="103.334865"><ele>2419.8508</ele><time>2026-04-04T00:55:44.000Z</time></trkpt>
        <trkpt lat="29.546437" lon="103.334872"><ele>2419.1384</ele><time>2026-04-04T00:55:49.000Z</time></trkpt>
        <trkpt lat="29.546483" lon="103.334876"><ele>2420.7212</ele><time>2026-04-04T00:55:53.000Z</time></trkpt>
        <trkpt lat="29.546534" lon="103.3349"><ele>2422.1055</ele><time>2026-04-04T00:55:59.000Z</time></trkpt>
        <trkpt lat="29.546573" lon="103.334945"><ele>2417.2227</ele><time>2026-04-04T00:56:03.000Z</time></trkpt>
        <trkpt lat="29.546609" lon="103.334977"><ele>2415.3582</ele><time>2026-04-04T00:56:08.000Z</time></trkpt>
        <trkpt lat="29.546657" lon="103.334994"><ele>2419.2087</ele><time>2026-04-04T00:56:14.000Z</time></trkpt>
        <trkpt lat="29.546694" lon="103.335023"><ele>2421.7615</ele><time>2026-04-04T00:56:19.000Z</time></trkpt>
        <trkpt lat="29.54671" lon="103.335077"><ele>2420.33</ele><time>2026-04-04T00:56:24.000Z</time></trkpt>
        <trkpt lat="29.546742" lon="103.335114"><ele>2416.9783</ele><time>2026-04-04T00:56:27.000Z</time></trkpt>
        <trkpt lat="29.546771" lon="103.335158"><ele>2415.0918</ele><time>2026-04-04T00:56:31.000Z</time></trkpt>
        <trkpt lat="29.546776" lon="103.33522"><ele>2418.442</ele><time>2026-04-04T00:56:37.000Z</time></trkpt>
        <trkpt lat="29.546767" lon="103.335275"><ele>2418.7947</ele><time>2026-04-04T00:56:47.000Z</time></trkpt>
        <trkpt lat="29.546771" lon="103.335327"><ele>2421.704</ele><time>2026-04-04T00:56:56.000Z</time></trkpt>
        <trkpt lat="29.546772" lon="103.33539"><ele>2420.891</ele><time>2026-04-04T00:57:03.000Z</time></trkpt>
        <trkpt lat="29.546782" lon="103.33545"><ele>2421.9785</ele><time>2026-04-04T00:57:07.000Z</time></trkpt>
        <trkpt lat="29.546771" lon="103.335514"><ele>2423.0808</ele><time>2026-04-04T00:57:11.000Z</time></trkpt>
        <trkpt lat="29.546751" lon="103.335579"><ele>2423.2166</ele><time>2026-04-04T00:57:16.000Z</time></trkpt>
        <trkpt lat="29.546731" lon="103.33564"><ele>2422.7222</ele><time>2026-04-04T00:57:20.000Z</time></trkpt>
        <trkpt lat="29.546705" lon="103.335687"><ele>2423.7683</ele><time>2026-04-04T00:57:25.000Z</time></trkpt>
        <trkpt lat="29.546677" lon="103.335741"><ele>2424.491</ele><time>2026-04-04T00:57:31.000Z</time></trkpt>
        <trkpt lat="29.546667" lon="103.335799"><ele>2424.3113</ele><time>2026-04-04T00:57:35.000Z</time></trkpt>
        <trkpt lat="29.546665" lon="103.335857"><ele>2422.5088</ele><time>2026-04-04T00:57:39.000Z</time></trkpt>
        <trkpt lat="29.546655" lon="103.335912"><ele>2422.425</ele><time>2026-04-04T00:57:43.000Z</time></trkpt>
        <trkpt lat="29.54664" lon="103.335968"><ele>2423.567</ele><time>2026-04-04T00:57:48.000Z</time></trkpt>
        <trkpt lat="29.546625" lon="103.336018"><ele>2425.8506</ele><time>2026-04-04T00:57:54.000Z</time></trkpt>
        <trkpt lat="29.546599" lon="103.336067"><ele>2427.7473</ele><time>2026-04-04T00:58:00.000Z</time></trkpt>
        <trkpt lat="29.546577" lon="103.336117"><ele>2429.1138</ele><time>2026-04-04T00:58:06.000Z</time></trkpt>
        <trkpt lat="29.546537" lon="103.336155"><ele>2429.4668</ele><time>2026-04-04T00:58:12.000Z</time></trkpt>
        <trkpt lat="29.546515" lon="103.33621"><ele>2428.5454</ele><time>2026-04-04T00:58:17.000Z</time></trkpt>
        <trkpt lat="29.546506" lon="103.336268"><ele>2428.493</ele><time>2026-04-04T00:58:23.000Z</time></trkpt>
        <trkpt lat="29.546507" lon="103.336326"><ele>2429.547</ele><time>2026-04-04T00:58:30.000Z</time></trkpt>
        <trkpt lat="29.546497" lon="103.336377"><ele>2432.7734</ele><time>2026-04-04T00:58:40.000Z</time></trkpt>
        <trkpt lat="29.546491" lon="103.336433"><ele>2433.828</ele><time>2026-04-04T00:58:50.000Z</time></trkpt>
        <trkpt lat="29.546467" lon="103.336479"><ele>2435.6528</ele><time>2026-04-04T00:59:02.000Z</time></trkpt>
        <trkpt lat="29.546475" lon="103.336532"><ele>2435.3132</ele><time>2026-04-04T00:59:09.000Z</time></trkpt>
        <trkpt lat="29.546475" lon="103.336589"><ele>2434.3071</ele><time>2026-04-04T00:59:15.000Z</time></trkpt>
        <trkpt lat="29.546466" lon="103.336644"><ele>2434.5508</ele><time>2026-04-04T00:59:23.000Z</time></trkpt>
        <trkpt lat="29.546461" lon="103.336703"><ele>2432.1865</ele><time>2026-04-04T00:59:32.000Z</time></trkpt>
        <trkpt lat="29.546475" lon="103.336756"><ele>2435.792</ele><time>2026-04-04T00:59:43.000Z</time></trkpt>
        <trkpt lat="29.546476" lon="103.336816"><ele>2438.6445</ele><time>2026-04-04T00:59:50.000Z</time></trkpt>
        <trkpt lat="29.546484" lon="103.336869"><ele>2437.8381</ele><time>2026-04-04T00:59:57.000Z</time></trkpt>
        <trkpt lat="29.546473" lon="103.33692"><ele>2441.4368</ele><time>2026-04-04T01:00:03.000Z</time></trkpt>
        <trkpt lat="29.546494" lon="103.336972"><ele>2442.7734</ele><time>2026-04-04T01:00:09.000Z</time></trkpt>
        <trkpt lat="29.546529" lon="103.337007"><ele>2442.642</ele><time>2026-04-04T01:00:13.000Z</time></trkpt>
        <trkpt lat="29.546569" lon="103.337039"><ele>2442.9404</ele><time>2026-04-04T01:00:16.000Z</time></trkpt>
        <trkpt lat="29.546608" lon="103.337065"><ele>2445.228</ele><time>2026-04-04T01:00:24.000Z</time></trkpt>
        <trkpt lat="29.546643" lon="103.337105"><ele>2445.7065</ele><time>2026-04-04T01:00:52.000Z</time></trkpt>
        <trkpt lat="29.546674" lon="103.33715"><ele>2444.8318</ele><time>2026-04-04T01:03:16.000Z</time></trkpt>
        <trkpt lat="29.54668" lon="103.337208"><ele>2443.6638</ele><time>2026-04-04T01:06:24.000Z</time></trkpt>
        <trkpt lat="29.546659" lon="103.337275"><ele>2441.5037</ele><time>2026-04-04T01:06:28.000Z</time></trkpt>
        <trkpt lat="29.546683" lon="103.337325"><ele>2445.155</ele><time>2026-04-04T01:06:34.000Z</time></trkpt>
        <trkpt lat="29.546664" lon="103.337389"><ele>2442.5059</ele><time>2026-04-04T01:06:38.000Z</time></trkpt>
        <trkpt lat="29.546651" lon="103.337443"><ele>2439.7432</ele><time>2026-04-04T01:06:43.000Z</time></trkpt>
        <trkpt lat="29.546643" lon="103.337496"><ele>2438.6401</ele><time>2026-04-04T01:06:49.000Z</time></trkpt>
        <trkpt lat="29.54661" lon="103.337541"><ele>2438.1794</ele><time>2026-04-04T01:06:54.000Z</time></trkpt>
        <trkpt lat="29.546573" lon="103.337585"><ele>2439.5735</ele><time>2026-04-04T01:07:02.000Z</time></trkpt>
        <trkpt lat="29.546548" lon="103.337636"><ele>2438.8179</ele><time>2026-04-04T01:07:06.000Z</time></trkpt>
        <trkpt lat="29.546529" lon="103.337697"><ele>2438.3513</ele><time>2026-04-04T01:07:12.000Z</time></trkpt>
        <trkpt lat="29.546529" lon="103.337754"><ele>2439.526</ele><time>2026-04-04T01:07:18.000Z</time></trkpt>
        <trkpt lat="29.54652" lon="103.337811"><ele>2438.29</ele><time>2026-04-04T01:07:22.000Z</time></trkpt>
        <trkpt lat="29.546515" lon="103.337864"><ele>2441.151</ele><time>2026-04-04T01:07:25.000Z</time></trkpt>
        <trkpt lat="29.546495" lon="103.337917"><ele>2441.769</ele><time>2026-04-04T01:07:28.000Z</time></trkpt>
        <trkpt lat="29.546456" lon="103.337968"><ele>2441.3672</ele><time>2026-04-04T01:07:32.000Z</time></trkpt>
        <trkpt lat="29.546423" lon="103.338016"><ele>2442.2957</ele><time>2026-04-04T01:07:36.000Z</time></trkpt>
        <trkpt lat="29.546394" lon="103.338056"><ele>2440.52</ele><time>2026-04-04T01:07:39.000Z</time></trkpt>
        <trkpt lat="29.54637" lon="103.338104"><ele>2440.5007</ele><time>2026-04-04T01:07:42.000Z</time></trkpt>
        <trkpt lat="29.54636" lon="103.338165"><ele>2438.2273</ele><time>2026-04-04T01:07:48.000Z</time></trkpt>
        <trkpt lat="29.54634" lon="103.338219"><ele>2436.7</ele><time>2026-04-04T01:07:52.000Z</time></trkpt>
        <trkpt lat="29.54632" lon="103.338265"><ele>2434.469</ele><time>2026-04-04T01:07:58.000Z</time></trkpt>
        <trkpt lat="29.546305" lon="103.338322"><ele>2432.3616</ele><time>2026-04-04T01:08:03.000Z</time></trkpt>
        <trkpt lat="29.546301" lon="103.338378"><ele>2432.205</ele><time>2026-04-04T01:08:07.000Z</time></trkpt>
        <trkpt lat="29.546299" lon="103.338436"><ele>2430.173</ele><time>2026-04-04T01:08:11.000Z</time></trkpt>
        <trkpt lat="29.546308" lon="103.338495"><ele>2427.0576</ele><time>2026-04-04T01:08:15.000Z</time></trkpt>
        <trkpt lat="29.546328" lon="103.338552"><ele>2425.35</ele><time>2026-04-04T01:08:19.000Z</time></trkpt>
        <trkpt lat="29.54634" lon="103.338605"><ele>2423.318</ele><time>2026-04-04T01:08:22.000Z</time></trkpt>
        <trkpt lat="29.546352" lon="103.338662"><ele>2419.22</ele><time>2026-04-04T01:08:26.000Z</time></trkpt>
        <trkpt lat="29.54635" lon="103.338714"><ele>2413.5137</ele><time>2026-04-04T01:08:32.000Z</time></trkpt>
        <trkpt lat="29.546377" lon="103.338769"><ele>2413.0752</ele><time>2026-04-04T01:08:37.000Z</time></trkpt>
        <trkpt lat="29.546408" lon="103.33881"><ele>2410.6125</ele><time>2026-04-04T01:08:43.000Z</time></trkpt>
        <trkpt lat="29.546444" lon="103.33885"><ele>2407.5898</ele><time>2026-04-04T01:08:48.000Z</time></trkpt>
        <trkpt lat="29.546481" lon="103.338886"><ele>2403.5825</ele><time>2026-04-04T01:08:54.000Z</time></trkpt>
        <trkpt lat="29.546506" lon="103.338939"><ele>2398.5222</ele><time>2026-04-04T01:09:00.000Z</time></trkpt>
        <trkpt lat="29.54654" lon="103.338985"><ele>2395.5273</ele><time>2026-04-04T01:09:06.000Z</time></trkpt>
        <trkpt lat="29.546575" lon="103.339027"><ele>2393.4612</ele><time>2026-04-04T01:09:12.000Z</time></trkpt>
        <trkpt lat="29.546606" lon="103.339066"><ele>2393.3418</ele><time>2026-04-04T01:09:15.000Z</time></trkpt>
        <trkpt lat="29.546631" lon="103.33911"><ele>2391.7063</ele><time>2026-04-04T01:09:19.000Z</time></trkpt>
        <trkpt lat="29.546657" lon="103.339154"><ele>2390.9666</ele><time>2026-04-04T01:09:24.000Z</time></trkpt>
        <trkpt lat="29.546667" lon="103.339208"><ele>2389.4036</ele><time>2026-04-04T01:09:29.000Z</time></trkpt>
        <trkpt lat="29.546689" lon="103.339259"><ele>2386.707</ele><time>2026-04-04T01:09:35.000Z</time></trkpt>
        <trkpt lat="29.54672" lon="103.339297"><ele>2383.1653</ele><time>2026-04-04T01:09:40.000Z</time></trkpt>
        <trkpt lat="29.54674" lon="103.339345"><ele>2380.3066</ele><time>2026-04-04T01:09:46.000Z</time></trkpt>
        <trkpt lat="29.546766" lon="103.339391"><ele>2378.2383</ele><time>2026-04-04T01:09:51.000Z</time></trkpt>
        <trkpt lat="29.546813" lon="103.339419"><ele>2378.553</ele><time>2026-04-04T01:09:56.000Z</time></trkpt>
        <trkpt lat="29.546856" lon="103.339445"><ele>2376.1858</ele><time>2026-04-04T01:10:02.000Z</time></trkpt>
        <trkpt lat="29.546891" lon="103.339482"><ele>2374.1946</ele><time>2026-04-04T01:10:10.000Z</time></trkpt>
        <trkpt lat="29.546908" lon="103.339532"><ele>2374.506</ele><time>2026-04-04T01:10:16.000Z</time></trkpt>
        <trkpt lat="29.54692" lon="103.339586"><ele>2369.0403</ele><time>2026-04-04T01:10:22.000Z</time></trkpt>
        <trkpt lat="29.546925" lon="103.339642"><ele>2365.5073</ele><time>2026-04-04T01:10:26.000Z</time></trkpt>
        <trkpt lat="29.546949" lon="103.339692"><ele>2359.124</ele><time>2026-04-04T01:10:33.000Z</time></trkpt>
        <trkpt lat="29.546983" lon="103.339736"><ele>2356.051</ele><time>2026-04-04T01:10:39.000Z</time></trkpt>
        <trkpt lat="29.547033" lon="103.33975"><ele>2355.2793</ele><time>2026-04-04T01:10:44.000Z</time></trkpt>
        <trkpt lat="29.547065" lon="103.339796"><ele>2350.1365</ele><time>2026-04-04T01:10:50.000Z</time></trkpt>
        <trkpt lat="29.547081" lon="103.339858"><ele>2349.471</ele><time>2026-04-04T01:10:57.000Z</time></trkpt>
        <trkpt lat="29.547087" lon="103.339918"><ele>2350.4424</ele><time>2026-04-04T01:11:02.000Z</time></trkpt>
        <trkpt lat="29.547124" lon="103.339968"><ele>2350.0913</ele><time>2026-04-04T01:11:31.000Z</time></trkpt>
        <trkpt lat="29.547124" lon="103.34002"><ele>2349.624</ele><time>2026-04-04T01:11:37.000Z</time></trkpt>
        <trkpt lat="29.547158" lon="103.340067"><ele>2349.6643</ele><time>2026-04-04T01:11:43.000Z</time></trkpt>
        <trkpt lat="29.547158" lon="103.340127"><ele>2344.0164</ele><time>2026-04-04T01:11:49.000Z</time></trkpt>
        <trkpt lat="29.54712" lon="103.340164"><ele>2339.5352</ele><time>2026-04-04T01:11:55.000Z</time></trkpt>
        <trkpt lat="29.547071" lon="103.340204"><ele>2333.287</ele><time>2026-04-04T01:12:00.000Z</time></trkpt>
        <trkpt lat="29.547029" lon="103.340228"><ele>2329.3347</ele><time>2026-04-04T01:12:06.000Z</time></trkpt>
        <trkpt lat="29.547083" lon="103.340263"><ele>2332.4058</ele><time>2026-04-04T01:12:10.000Z</time></trkpt>
        <trkpt lat="29.547124" lon="103.340293"><ele>2337.559</ele><time>2026-04-04T01:12:17.000Z</time></trkpt>
        <trkpt lat="29.547168" lon="103.340323"><ele>2341.9214</ele><time>2026-04-04T01:12:21.000Z</time></trkpt>
        <trkpt lat="29.547208" lon="103.34035"><ele>2342.3577</ele><time>2026-04-04T01:12:24.000Z</time></trkpt>
        <trkpt lat="29.547183" lon="103.340395"><ele>2335.0125</ele><time>2026-04-04T01:12:31.000Z</time></trkpt>
        <trkpt lat="29.547224" lon="103.340432"><ele>2334.5813</ele><time>2026-04-04T01:12:37.000Z</time></trkpt>
        <trkpt lat="29.547255" lon="103.340475"><ele>2336.3645</ele><time>2026-04-04T01:12:41.000Z</time></trkpt>
        <trkpt lat="29.547236" lon="103.340529"><ele>2334.0889</ele><time>2026-04-04T01:12:45.000Z</time></trkpt>
        <trkpt lat="29.547246" lon="103.340584"><ele>2336.1714</ele><time>2026-04-04T01:12:50.000Z</time></trkpt>
        <trkpt lat="29.54728" lon="103.34063"><ele>2334.7837</ele><time>2026-04-04T01:12:54.000Z</time></trkpt>
        <trkpt lat="29.547302" lon="103.340676"><ele>2334.1223</ele><time>2026-04-04T01:12:59.000Z</time></trkpt>
        <trkpt lat="29.547312" lon="103.340729"><ele>2331.404</ele><time>2026-04-04T01:13:04.000Z</time></trkpt>
        <trkpt lat="29.547336" lon="103.340774"><ele>2332.7659</ele><time>2026-04-04T01:13:08.000Z</time></trkpt>
        <trkpt lat="29.547378" lon="103.340811"><ele>2333.4006</ele><time>2026-04-04T01:13:11.000Z</time></trkpt>
        <trkpt lat="29.547384" lon="103.340863"><ele>2334.447</ele><time>2026-04-04T01:13:15.000Z</time></trkpt>
        <trkpt lat="29.547448" lon="103.3409"><ele>2338.5745</ele><time>2026-04-04T01:13:18.000Z</time></trkpt>
        <trkpt lat="29.547493" lon="103.340946"><ele>2336.902</ele><time>2026-04-04T01:13:21.000Z</time></trkpt>
        <trkpt lat="29.547515" lon="103.340997"><ele>2333.4324</ele><time>2026-04-04T01:13:24.000Z</time></trkpt>
        <trkpt lat="29.547493" lon="103.341048"><ele>2321.8547</ele><time>2026-04-04T01:13:31.000Z</time></trkpt>
        <trkpt lat="29.547532" lon="103.341078"><ele>2317.75</ele><time>2026-04-04T01:13:37.000Z</time></trkpt>
        <trkpt lat="29.547575" lon="103.341108"><ele>2312.2363</ele><time>2026-04-04T01:13:43.000Z</time></trkpt>
        <trkpt lat="29.547635" lon="103.341103"><ele>2310.375</ele><time>2026-04-04T01:13:48.000Z</time></trkpt>
        <trkpt lat="29.547682" lon="103.341109"><ele>2306.4102</ele><time>2026-04-04T01:13:53.000Z</time></trkpt>
        <trkpt lat="29.547725" lon="103.341128"><ele>2303.4011</ele><time>2026-04-04T01:13:57.000Z</time></trkpt>
        <trkpt lat="29.547777" lon="103.341143"><ele>2305.3943</ele><time>2026-04-04T01:14:01.000Z</time></trkpt>
        <trkpt lat="29.54782" lon="103.341169"><ele>2308.1152</ele><time>2026-04-04T01:14:05.000Z</time></trkpt>
        <trkpt lat="29.547864" lon="103.341182"><ele>2310.1409</ele><time>2026-04-04T01:14:08.000Z</time></trkpt>
        <trkpt lat="29.547904" lon="103.341208"><ele>2312.1482</ele><time>2026-04-04T01:14:12.000Z</time></trkpt>
        <trkpt lat="29.547956" lon="103.341235"><ele>2314.0989</ele><time>2026-04-04T01:14:17.000Z</time></trkpt>
        <trkpt lat="29.548012" lon="103.34123"><ele>2314.4695</ele><time>2026-04-04T01:14:21.000Z</time></trkpt>
        <trkpt lat="29.548059" lon="103.341233"><ele>2317.1892</ele><time>2026-04-04T01:14:27.000Z</time></trkpt>
        <trkpt lat="29.54811" lon="103.341245"><ele>2318.034</ele><time>2026-04-04T01:14:31.000Z</time></trkpt>
        <trkpt lat="29.548158" lon="103.341259"><ele>2315.5457</ele><time>2026-04-04T01:14:35.000Z</time></trkpt>
        <trkpt lat="29.548202" lon="103.34127"><ele>2313.8718</ele><time>2026-04-04T01:14:38.000Z</time></trkpt>
        <trkpt lat="29.548252" lon="103.341308"><ele>2310.6138</ele><time>2026-04-04T01:14:42.000Z</time></trkpt>
        <trkpt lat="29.548299" lon="103.341324"><ele>2305.856</ele><time>2026-04-04T01:14:46.000Z</time></trkpt>
        <trkpt lat="29.548345" lon="103.34133"><ele>2300.7446</ele><time>2026-04-04T01:14:51.000Z</time></trkpt>
        <trkpt lat="29.548392" lon="103.341359"><ele>2293.346</ele><time>2026-04-04T01:15:00.000Z</time></trkpt>
        <trkpt lat="29.548446" lon="103.341359"><ele>2285.8225</ele><time>2026-04-04T01:15:07.000Z</time></trkpt>
        <trkpt lat="29.548493" lon="103.341344"><ele>2282.013</ele><time>2026-04-04T01:15:12.000Z</time></trkpt>
        <trkpt lat="29.548543" lon="103.341322"><ele>2280.9536</ele><time>2026-04-04T01:15:17.000Z</time></trkpt>
        <trkpt lat="29.548589" lon="103.341309"><ele>2277.508</ele><time>2026-04-04T01:15:22.000Z</time></trkpt>
        <trkpt lat="29.548635" lon="103.341292"><ele>2278.4143</ele><time>2026-04-04T01:15:28.000Z</time></trkpt>
        <trkpt lat="29.548681" lon="103.341291"><ele>2277.8833</ele><time>2026-04-04T01:15:33.000Z</time></trkpt>
        <trkpt lat="29.548738" lon="103.341289"><ele>2278.8992</ele><time>2026-04-04T01:15:38.000Z</time></trkpt>
        <trkpt lat="29.548785" lon="103.341278"><ele>2276.2085</ele><time>2026-04-04T01:15:42.000Z</time></trkpt>
        <trkpt lat="29.548833" lon="103.341262"><ele>2272.6697</ele><time>2026-04-04T01:15:47.000Z</time></trkpt>
        <trkpt lat="29.548883" lon="103.341246"><ele>2268.592</ele><time>2026-04-04T01:15:53.000Z</time></trkpt>
        <trkpt lat="29.548929" lon="103.341232"><ele>2268.798</ele><time>2026-04-04T01:15:58.000Z</time></trkpt>
        <trkpt lat="29.548988" lon="103.341237"><ele>2271.1074</ele><time>2026-04-04T01:16:03.000Z</time></trkpt>
        <trkpt lat="29.549043" lon="103.341235"><ele>2270.7761</ele><time>2026-04-04T01:16:08.000Z</time></trkpt>
        <trkpt lat="29.549096" lon="103.341239"><ele>2270.0203</ele><time>2026-04-04T01:16:14.000Z</time></trkpt>
        <trkpt lat="29.549131" lon="103.341299"><ele>2273.8425</ele><time>2026-04-04T01:16:19.000Z</time></trkpt>
        <trkpt lat="29.549155" lon="103.34135"><ele>2271.37</ele><time>2026-04-04T01:16:23.000Z</time></trkpt>
        <trkpt lat="29.549173" lon="103.341412"><ele>2265.5059</ele><time>2026-04-04T01:16:28.000Z</time></trkpt>
        <trkpt lat="29.549214" lon="103.341446"><ele>2259.0376</ele><time>2026-04-04T01:16:35.000Z</time></trkpt>
        <trkpt lat="29.549249" lon="103.341497"><ele>2255.1934</ele><time>2026-04-04T01:16:40.000Z</time></trkpt>
        <trkpt lat="29.54924" lon="103.341552"><ele>2253.3726</ele><time>2026-04-04T01:16:43.000Z</time></trkpt>
        <trkpt lat="29.549247" lon="103.341606"><ele>2249.411</ele><time>2026-04-04T01:16:48.000Z</time></trkpt>
        <trkpt lat="29.549262" lon="103.341663"><ele>2250.2734</ele><time>2026-04-04T01:16:51.000Z</time></trkpt>
        <trkpt lat="29.549284" lon="103.341723"><ele>2252.0403</ele><time>2026-04-04T01:16:56.000Z</time></trkpt>
        <trkpt lat="29.549308" lon="103.341777"><ele>2252.3286</ele><time>2026-04-04T01:16:59.000Z</time></trkpt>
        <trkpt lat="29.549311" lon="103.34183"><ele>2253.1287</ele><time>2026-04-04T01:17:02.000Z</time></trkpt>
        <trkpt lat="29.549327" lon="103.341882"><ele>2253.6748</ele><time>2026-04-04T01:17:06.000Z</time></trkpt>
        <trkpt lat="29.549342" lon="103.34194"><ele>2253.009</ele><time>2026-04-04T01:17:10.000Z</time></trkpt>
        <trkpt lat="29.549356" lon="103.341993"><ele>2253.368</ele><time>2026-04-04T01:17:13.000Z</time></trkpt>
        <trkpt lat="29.549354" lon="103.342052"><ele>2254.3008</ele><time>2026-04-04T01:17:18.000Z</time></trkpt>
        <trkpt lat="29.549384" lon="103.342099"><ele>2254.4553</ele><time>2026-04-04T01:17:22.000Z</time></trkpt>
        <trkpt lat="29.549402" lon="103.342157"><ele>2255.7114</ele><time>2026-04-04T01:17:26.000Z</time></trkpt>
        <trkpt lat="29.549426" lon="103.342203"><ele>2256.4075</ele><time>2026-04-04T01:17:33.000Z</time></trkpt>
        <trkpt lat="29.549443" lon="103.342257"><ele>2255.9016</ele><time>2026-04-04T01:17:36.000Z</time></trkpt>
        <trkpt lat="29.549478" lon="103.342294"><ele>2255.9255</ele><time>2026-04-04T01:17:40.000Z</time></trkpt>
        <trkpt lat="29.549509" lon="103.342334"><ele>2258.5005</ele><time>2026-04-04T01:17:43.000Z</time></trkpt>
        <trkpt lat="29.549543" lon="103.34237"><ele>2258.9097</ele><time>2026-04-04T01:17:46.000Z</time></trkpt>
        <trkpt lat="29.549575" lon="103.342417"><ele>2258.4978</ele><time>2026-04-04T01:17:50.000Z</time></trkpt>
        <trkpt lat="29.549604" lon="103.342471"><ele>2256.913</ele><time>2026-04-04T01:17:54.000Z</time></trkpt>
        <trkpt lat="29.549631" lon="103.342517"><ele>2257.6567</ele><time>2026-04-04T01:17:57.000Z</time></trkpt>
        <trkpt lat="29.549679" lon="103.342557"><ele>2257.1296</ele><time>2026-04-04T01:18:01.000Z</time></trkpt>
        <trkpt lat="29.549725" lon="103.342591"><ele>2257.8916</ele><time>2026-04-04T01:18:05.000Z</time></trkpt>
        <trkpt lat="29.549766" lon="103.342637"><ele>2255.5183</ele><time>2026-04-04T01:18:09.000Z</time></trkpt>
        <trkpt lat="29.549799" lon="103.342689"><ele>2255.0457</ele><time>2026-04-04T01:18:13.000Z</time></trkpt>
        <trkpt lat="29.549831" lon="103.342744"><ele>2255.282</ele><time>2026-04-04T01:18:17.000Z</time></trkpt>
        <trkpt lat="29.549861" lon="103.342798"><ele>2257.6282</ele><time>2026-04-04T01:18:21.000Z</time></trkpt>
        <trkpt lat="29.549903" lon="103.342854"><ele>2254.5022</ele><time>2026-04-04T01:18:26.000Z</time></trkpt>
        <trkpt lat="29.549925" lon="103.342901"><ele>2257.4797</ele><time>2026-04-04T01:18:30.000Z</time></trkpt>
        <trkpt lat="29.549946" lon="103.34295"><ele>2256.1992</ele><time>2026-04-04T01:18:33.000Z</time></trkpt>
        <trkpt lat="29.549964" lon="103.343006"><ele>2256.1482</ele><time>2026-04-04T01:18:37.000Z</time></trkpt>
        <trkpt lat="29.549978" lon="103.343059"><ele>2257.3782</ele><time>2026-04-04T01:18:40.000Z</time></trkpt>
        <trkpt lat="29.550002" lon="103.343117"><ele>2257.935</ele><time>2026-04-04T01:18:44.000Z</time></trkpt>
        <trkpt lat="29.550023" lon="103.343165"><ele>2256.8872</ele><time>2026-04-04T01:18:47.000Z</time></trkpt>
        <trkpt lat="29.550047" lon="103.343216"><ele>2255.6821</ele><time>2026-04-04T01:18:49.000Z</time></trkpt>
        <trkpt lat="29.550085" lon="103.343249"><ele>2253.6929</ele><time>2026-04-04T01:18:53.000Z</time></trkpt>
        <trkpt lat="29.550119" lon="103.343299"><ele>2251.6694</ele><time>2026-04-04T01:18:56.000Z</time></trkpt>
        <trkpt lat="29.550157" lon="103.343331"><ele>2250.5408</ele><time>2026-04-04T01:18:59.000Z</time></trkpt>
        <trkpt lat="29.550194" lon="103.343362"><ele>2251.7986</ele><time>2026-04-04T01:19:02.000Z</time></trkpt>
        <trkpt lat="29.550226" lon="103.343411"><ele>2251.3633</ele><time>2026-04-04T01:19:06.000Z</time></trkpt>
        <trkpt lat="29.550252" lon="103.343476"><ele>2249.791</ele><time>2026-04-04T01:19:10.000Z</time></trkpt>
        <trkpt lat="29.550293" lon="103.343508"><ele>2245.6628</ele><time>2026-04-04T01:19:13.000Z</time></trkpt>
        <trkpt lat="29.550304" lon="103.343564"><ele>2245.8806</ele><time>2026-04-04T01:19:16.000Z</time></trkpt>
        <trkpt lat="29.550338" lon="103.343611"><ele>2246.2493</ele><time>2026-04-04T01:19:20.000Z</time></trkpt>
        <trkpt lat="29.550373" lon="103.343648"><ele>2247.139</ele><time>2026-04-04T01:19:24.000Z</time></trkpt>
        <trkpt lat="29.550412" lon="103.343693"><ele>2249.8599</ele><time>2026-04-04T01:19:28.000Z</time></trkpt>
        <trkpt lat="29.55045" lon="103.343736"><ele>2252.8843</ele><time>2026-04-04T01:19:32.000Z</time></trkpt>
        <trkpt lat="29.550487" lon="103.343781"><ele>2254.1912</ele><time>2026-04-04T01:19:35.000Z</time></trkpt>
        <trkpt lat="29.550517" lon="103.343832"><ele>2252.2678</ele><time>2026-04-04T01:19:39.000Z</time></trkpt>
        <trkpt lat="29.550551" lon="103.343879"><ele>2253.7932</ele><time>2026-04-04T01:19:42.000Z</time></trkpt>
        <trkpt lat="29.550571" lon="103.343926"><ele>2254.9841</ele><time>2026-04-04T01:19:45.000Z</time></trkpt>
        <trkpt lat="29.550616" lon="103.343969"><ele>2256.2158</ele><time>2026-04-04T01:19:49.000Z</time></trkpt>
        <trkpt lat="29.55067" lon="103.343981"><ele>2256.5378</ele><time>2026-04-04T01:19:53.000Z</time></trkpt>
        <trkpt lat="29.550717" lon="103.344002"><ele>2257.4758</ele><time>2026-04-04T01:19:59.000Z</time></trkpt>
        <trkpt lat="29.550743" lon="103.344062"><ele>2259.7478</ele><time>2026-04-04T01:20:08.000Z</time></trkpt>
        <trkpt lat="29.550782" lon="103.344102"><ele>2260.9075</ele><time>2026-04-04T01:20:14.000Z</time></trkpt>
        <trkpt lat="29.550827" lon="103.344124"><ele>2261.6726</ele><time>2026-04-04T01:20:17.000Z</time></trkpt>
        <trkpt lat="29.550876" lon="103.344143"><ele>2260.4468</ele><time>2026-04-04T01:20:20.000Z</time></trkpt>
        <trkpt lat="29.55094" lon="103.34416"><ele>2260.736</ele><time>2026-04-04T01:20:25.000Z</time></trkpt>
        <trkpt lat="29.55099" lon="103.344175"><ele>2260.0208</ele><time>2026-04-04T01:20:28.000Z</time></trkpt>
        <trkpt lat="29.551043" lon="103.344196"><ele>2259.8733</ele><time>2026-04-04T01:20:33.000Z</time></trkpt>
        <trkpt lat="29.55108" lon="103.344229"><ele>2260.7056</ele><time>2026-04-04T01:20:36.000Z</time></trkpt>
        <trkpt lat="29.551145" lon="103.344226"><ele>2258.618</ele><time>2026-04-04T01:20:41.000Z</time></trkpt>
        <trkpt lat="29.551198" lon="103.344212"><ele>2258.8655</ele><time>2026-04-04T01:20:45.000Z</time></trkpt>
        <trkpt lat="29.551247" lon="103.344216"><ele>2258.5557</ele><time>2026-04-04T01:20:50.000Z</time></trkpt>
        <trkpt lat="29.551294" lon="103.344228"><ele>2260.766</ele><time>2026-04-04T01:20:54.000Z</time></trkpt>
        <trkpt lat="29.551339" lon="103.344233"><ele>2260.5679</ele><time>2026-04-04T01:20:59.000Z</time></trkpt>
        <trkpt lat="29.551388" lon="103.34423"><ele>2264.6714</ele><time>2026-04-04T01:21:05.000Z</time></trkpt>
        <trkpt lat="29.551439" lon="103.34425"><ele>2267.5342</ele><time>2026-04-04T01:21:11.000Z</time></trkpt>
        <trkpt lat="29.55148" lon="103.344274"><ele>2263.7717</ele><time>2026-04-04T01:21:15.000Z</time></trkpt>
        <trkpt lat="29.55153" lon="103.344293"><ele>2263.5513</ele><time>2026-04-04T01:21:19.000Z</time></trkpt>
        <trkpt lat="29.551575" lon="103.344328"><ele>2262.7603</ele><time>2026-04-04T01:21:25.000Z</time></trkpt>
        <trkpt lat="29.551614" lon="103.344366"><ele>2261.7551</ele><time>2026-04-04T01:21:29.000Z</time></trkpt>
        <trkpt lat="29.551652" lon="103.344408"><ele>2258.5605</ele><time>2026-04-04T01:21:33.000Z</time></trkpt>
        <trkpt lat="29.551693" lon="103.344438"><ele>2256.9575</ele><time>2026-04-04T01:21:36.000Z</time></trkpt>
        <trkpt lat="29.551723" lon="103.344478"><ele>2254.2449</ele><time>2026-04-04T01:21:39.000Z</time></trkpt>
        <trkpt lat="29.55176" lon="103.344524"><ele>2251.9724</ele><time>2026-04-04T01:21:43.000Z</time></trkpt>
        <trkpt lat="29.551796" lon="103.344572"><ele>2252.8335</ele><time>2026-04-04T01:21:48.000Z</time></trkpt>
        <trkpt lat="29.551827" lon="103.344614"><ele>2254.671</ele><time>2026-04-04T01:21:52.000Z</time></trkpt>
        <trkpt lat="29.55186" lon="103.344658"><ele>2255.017</ele><time>2026-04-04T01:21:55.000Z</time></trkpt>
        <trkpt lat="29.551889" lon="103.344707"><ele>2255.9478</ele><time>2026-04-04T01:21:59.000Z</time></trkpt>
        <trkpt lat="29.551923" lon="103.344757"><ele>2258.8066</ele><time>2026-04-04T01:22:05.000Z</time></trkpt>
        <trkpt lat="29.551953" lon="103.344803"><ele>2262.03</ele><time>2026-04-04T01:22:10.000Z</time></trkpt>
        <trkpt lat="29.551973" lon="103.344854"><ele>2262.653</ele><time>2026-04-04T01:22:15.000Z</time></trkpt>
        <trkpt lat="29.552002" lon="103.344907"><ele>2263.4348</ele><time>2026-04-04T01:22:19.000Z</time></trkpt>
        <trkpt lat="29.552017" lon="103.344964"><ele>2264.9617</ele><time>2026-04-04T01:22:25.000Z</time></trkpt>
        <trkpt lat="29.552024" lon="103.345023"><ele>2264.0056</ele><time>2026-04-04T01:22:29.000Z</time></trkpt>
        <trkpt lat="29.552032" lon="103.345077"><ele>2266.1902</ele><time>2026-04-04T01:22:34.000Z</time></trkpt>
        <trkpt lat="29.552075" lon="103.345102"><ele>2265.2932</ele><time>2026-04-04T01:22:39.000Z</time></trkpt>
        <trkpt lat="29.552114" lon="103.345141"><ele>2265.842</ele><time>2026-04-04T01:22:44.000Z</time></trkpt>
        <trkpt lat="29.552169" lon="103.345169"><ele>2267.8667</ele><time>2026-04-04T01:22:48.000Z</time></trkpt>
        <trkpt lat="29.552213" lon="103.345182"><ele>2269.5068</ele><time>2026-04-04T01:22:52.000Z</time></trkpt>
        <trkpt lat="29.552254" lon="103.345203"><ele>2266.4243</ele><time>2026-04-04T01:22:55.000Z</time></trkpt>
        <trkpt lat="29.552304" lon="103.345211"><ele>2269.2163</ele><time>2026-04-04T01:22:59.000Z</time></trkpt>
        <trkpt lat="29.552349" lon="103.345225"><ele>2270.3013</ele><time>2026-04-04T01:23:02.000Z</time></trkpt>
        <trkpt lat="29.552391" lon="103.34526"><ele>2268.2969</ele><time>2026-04-04T01:23:06.000Z</time></trkpt>
        <trkpt lat="29.552433" lon="103.345281"><ele>2266.7942</ele><time>2026-04-04T01:23:09.000Z</time></trkpt>
        <trkpt lat="29.552469" lon="103.34533"><ele>2264.5137</ele><time>2026-04-04T01:23:14.000Z</time></trkpt>
        <trkpt lat="29.552461" lon="103.345398"><ele>2262.5386</ele><time>2026-04-04T01:23:19.000Z</time></trkpt>
        <trkpt lat="29.552446" lon="103.345448"><ele>2261.575</ele><time>2026-04-04T01:23:24.000Z</time></trkpt>
        <trkpt lat="29.552492" lon="103.345473"><ele>2265.8767</ele><time>2026-04-04T01:23:30.000Z</time></trkpt>
        <trkpt lat="29.552537" lon="103.345466"><ele>2270.4143</ele><time>2026-04-04T01:23:36.000Z</time></trkpt>
        <trkpt lat="29.55259" lon="103.345465"><ele>2273.5874</ele><time>2026-04-04T01:23:43.000Z</time></trkpt>
        <trkpt lat="29.552631" lon="103.345442"><ele>2273.425</ele><time>2026-04-04T01:23:46.000Z</time></trkpt>
        <trkpt lat="29.552678" lon="103.345448"><ele>2273.1726</ele><time>2026-04-04T01:23:49.000Z</time></trkpt>
        <trkpt lat="29.552723" lon="103.345456"><ele>2272.8933</ele><time>2026-04-04T01:23:52.000Z</time></trkpt>
        <trkpt lat="29.552769" lon="103.34546"><ele>2269.5112</ele><time>2026-04-04T01:23:55.000Z</time></trkpt>
        <trkpt lat="29.552822" lon="103.345469"><ele>2265.5889</ele><time>2026-04-04T01:23:58.000Z</time></trkpt>
        <trkpt lat="29.552878" lon="103.345473"><ele>2264.6638</ele><time>2026-04-04T01:24:02.000Z</time></trkpt>
        <trkpt lat="29.55293" lon="103.34546"><ele>2264.1804</ele><time>2026-04-04T01:24:06.000Z</time></trkpt>
        <trkpt lat="29.55298" lon="103.34545"><ele>2260.8628</ele><time>2026-04-04T01:24:09.000Z</time></trkpt>
        <trkpt lat="29.553029" lon="103.345441"><ele>2259.0261</ele><time>2026-04-04T01:24:13.000Z</time></trkpt>
        <trkpt lat="29.553075" lon="103.345433"><ele>2257.683</ele><time>2026-04-04T01:24:16.000Z</time></trkpt>
        <trkpt lat="29.553128" lon="103.345432"><ele>2256.7854</ele><time>2026-04-04T01:24:19.000Z</time></trkpt>
        <trkpt lat="29.553176" lon="103.345439"><ele>2258.0732</ele><time>2026-04-04T01:24:22.000Z</time></trkpt>
        <trkpt lat="29.553223" lon="103.345446"><ele>2256.987</ele><time>2026-04-04T01:24:25.000Z</time></trkpt>
        <trkpt lat="29.553286" lon="103.345447"><ele>2255.343</ele><time>2026-04-04T01:24:30.000Z</time></trkpt>
        <trkpt lat="29.553339" lon="103.345458"><ele>2254.4363</ele><time>2026-04-04T01:24:34.000Z</time></trkpt>
        <trkpt lat="29.553396" lon="103.345451"><ele>2254.0115</ele><time>2026-04-04T01:24:38.000Z</time></trkpt>
        <trkpt lat="29.553443" lon="103.345439"><ele>2252.4053</ele><time>2026-04-04T01:24:44.000Z</time></trkpt>
        <trkpt lat="29.553493" lon="103.345426"><ele>2252.7935</ele><time>2026-04-04T01:24:49.000Z</time></trkpt>
        <trkpt lat="29.553546" lon="103.345415"><ele>2251.098</ele><time>2026-04-04T01:24:54.000Z</time></trkpt>
        <trkpt lat="29.553593" lon="103.345412"><ele>2253.7268</ele><time>2026-04-04T01:24:59.000Z</time></trkpt>
        <trkpt lat="29.553642" lon="103.345409"><ele>2249.419</ele><time>2026-04-04T01:25:02.000Z</time></trkpt>
        <trkpt lat="29.553679" lon="103.345373"><ele>2249.2273</ele><time>2026-04-04T01:25:05.000Z</time></trkpt>
        <trkpt lat="29.553724" lon="103.345366"><ele>2248.3088</ele><time>2026-04-04T01:25:09.000Z</time></trkpt>
        <trkpt lat="29.553772" lon="103.345383"><ele>2242.6755</ele><time>2026-04-04T01:25:13.000Z</time></trkpt>
        <trkpt lat="29.553819" lon="103.345392"><ele>2238.677</ele><time>2026-04-04T01:25:17.000Z</time></trkpt>
        <trkpt lat="29.553859" lon="103.345418"><ele>2235.5037</ele><time>2026-04-04T01:25:22.000Z</time></trkpt>
        <trkpt lat="29.553908" lon="103.345429"><ele>2233.895</ele><time>2026-04-04T01:25:26.000Z</time></trkpt>
        <trkpt lat="29.553949" lon="103.345474"><ele>2229.2627</ele><time>2026-04-04T01:25:31.000Z</time></trkpt>
        <trkpt lat="29.553987" lon="103.345507"><ele>2228.538</ele><time>2026-04-04T01:25:34.000Z</time></trkpt>
        <trkpt lat="29.554029" lon="103.345531"><ele>2228.1626</ele><time>2026-04-04T01:25:38.000Z</time></trkpt>
        <trkpt lat="29.554078" lon="103.34555"><ele>2228.5352</ele><time>2026-04-04T01:25:41.000Z</time></trkpt>
        <trkpt lat="29.554125" lon="103.345557"><ele>2227.0205</ele><time>2026-04-04T01:25:45.000Z</time></trkpt>
        <trkpt lat="29.554178" lon="103.345542"><ele>2227.3</ele><time>2026-04-04T01:25:49.000Z</time></trkpt>
        <trkpt lat="29.554223" lon="103.345505"><ele>2228.948</ele><time>2026-04-04T01:25:53.000Z</time></trkpt>
        <trkpt lat="29.554273" lon="103.345492"><ele>2226.003</ele><time>2026-04-04T01:25:59.000Z</time></trkpt>
        <trkpt lat="29.554319" lon="103.345488"><ele>2220.0598</ele><time>2026-04-04T01:26:05.000Z</time></trkpt>
        <trkpt lat="29.554365" lon="103.345475"><ele>2217.5122</ele><time>2026-04-04T01:26:11.000Z</time></trkpt>
        <trkpt lat="29.55441" lon="103.345452"><ele>2215.3484</ele><time>2026-04-04T01:26:17.000Z</time></trkpt>
        <trkpt lat="29.554455" lon="103.34544"><ele>2210.7104</ele><time>2026-04-04T01:26:22.000Z</time></trkpt>
        <trkpt lat="29.554508" lon="103.345456"><ele>2205.9448</ele><time>2026-04-04T01:26:27.000Z</time></trkpt>
        <trkpt lat="29.554555" lon="103.345477"><ele>2202.0051</ele><time>2026-04-04T01:26:32.000Z</time></trkpt>
        <trkpt lat="29.554604" lon="103.345474"><ele>2201.965</ele><time>2026-04-04T01:26:35.000Z</time></trkpt>
        <trkpt lat="29.554652" lon="103.345457"><ele>2197.728</ele><time>2026-04-04T01:26:41.000Z</time></trkpt>
        <trkpt lat="29.554703" lon="103.345449"><ele>2191.7922</ele><time>2026-04-04T01:26:48.000Z</time></trkpt>
        <trkpt lat="29.554754" lon="103.345428"><ele>2189.8882</ele><time>2026-04-04T01:26:55.000Z</time></trkpt>
        <trkpt lat="29.554803" lon="103.345424"><ele>2183.5305</ele><time>2026-04-04T01:27:01.000Z</time></trkpt>
        <trkpt lat="29.55484" lon="103.345391"><ele>2178.501</ele><time>2026-04-04T01:27:07.000Z</time></trkpt>
        <trkpt lat="29.554878" lon="103.345359"><ele>2180.8147</ele><time>2026-04-04T01:27:14.000Z</time></trkpt>
        <trkpt lat="29.55492" lon="103.345319"><ele>2180.4636</ele><time>2026-04-04T01:27:19.000Z</time></trkpt>
        <trkpt lat="29.554956" lon="103.345284"><ele>2178.8892</ele><time>2026-04-04T01:27:23.000Z</time></trkpt>
        <trkpt lat="29.555003" lon="103.345268"><ele>2177.226</ele><time>2026-04-04T01:27:27.000Z</time></trkpt>
        <trkpt lat="29.55505" lon="103.345254"><ele>2176.7878</ele><time>2026-04-04T01:27:32.000Z</time></trkpt>
        <trkpt lat="29.5551" lon="103.34525"><ele>2175.992</ele><time>2026-04-04T01:27:37.000Z</time></trkpt>
        <trkpt lat="29.555159" lon="103.345251"><ele>2176.5698</ele><time>2026-04-04T01:27:42.000Z</time></trkpt>
        <trkpt lat="29.555217" lon="103.34523"><ele>2178.775</ele><time>2026-04-04T01:27:46.000Z</time></trkpt>
        <trkpt lat="29.555266" lon="103.345194"><ele>2178.1</ele><time>2026-04-04T01:27:50.000Z</time></trkpt>
        <trkpt lat="29.555308" lon="103.345154"><ele>2177.6165</ele><time>2026-04-04T01:27:54.000Z</time></trkpt>
        <trkpt lat="29.555322" lon="103.345095"><ele>2175.4658</ele><time>2026-04-04T01:27:58.000Z</time></trkpt>
        <trkpt lat="29.555365" lon="103.345074"><ele>2174.647</ele><time>2026-04-04T01:28:01.000Z</time></trkpt>
        <trkpt lat="29.555417" lon="103.34509"><ele>2171.9485</ele><time>2026-04-04T01:28:06.000Z</time></trkpt>
        <trkpt lat="29.555454" lon="103.345134"><ele>2167.578</ele><time>2026-04-04T01:28:13.000Z</time></trkpt>
        <trkpt lat="29.555481" lon="103.345178"><ele>2166.9485</ele><time>2026-04-04T01:28:16.000Z</time></trkpt>
        <trkpt lat="29.555521" lon="103.345209"><ele>2164.1953</ele><time>2026-04-04T01:28:22.000Z</time></trkpt>
        <trkpt lat="29.55557" lon="103.345178"><ele>2161.9275</ele><time>2026-04-04T01:28:29.000Z</time></trkpt>
        <trkpt lat="29.555614" lon="103.345146"><ele>2157.0183</ele><time>2026-04-04T01:28:35.000Z</time></trkpt>
        <trkpt lat="29.555654" lon="103.345115"><ele>2152.4102</ele><time>2026-04-04T01:28:41.000Z</time></trkpt>
        <trkpt lat="29.555679" lon="103.345059"><ele>2147.5503</ele><time>2026-04-04T01:28:49.000Z</time></trkpt>
        <trkpt lat="29.555717" lon="103.345028"><ele>2145.1165</ele><time>2026-04-04T01:29:01.000Z</time></trkpt>
        <trkpt lat="29.555754" lon="103.345066"><ele>2139.6604</ele><time>2026-04-04T01:29:08.000Z</time></trkpt>
        <trkpt lat="29.555807" lon="103.34508"><ele>2137.9294</ele><time>2026-04-04T01:29:14.000Z</time></trkpt>
        <trkpt lat="29.555855" lon="103.345066"><ele>2138.3171</ele><time>2026-04-04T01:29:21.000Z</time></trkpt>
        <trkpt lat="29.5559" lon="103.345061"><ele>2138.1594</ele><time>2026-04-04T01:29:24.000Z</time></trkpt>
        <trkpt lat="29.555938" lon="103.345021"><ele>2138.1335</ele><time>2026-04-04T01:29:30.000Z</time></trkpt>
        <trkpt lat="29.555965" lon="103.344966"><ele>2137.096</ele><time>2026-04-04T01:29:34.000Z</time></trkpt>
        <trkpt lat="29.555988" lon="103.344916"><ele>2135.228</ele><time>2026-04-04T01:29:39.000Z</time></trkpt>
        <trkpt lat="29.556025" lon="103.344871"><ele>2131.6726</ele><time>2026-04-04T01:29:44.000Z</time></trkpt>
        <trkpt lat="29.556065" lon="103.344831"><ele>2129.9648</ele><time>2026-04-04T01:29:50.000Z</time></trkpt>
        <trkpt lat="29.556091" lon="103.344775"><ele>2129.8645</ele><time>2026-04-04T01:29:56.000Z</time></trkpt>
        <trkpt lat="29.556114" lon="103.344723"><ele>2128.6406</ele><time>2026-04-04T01:30:02.000Z</time></trkpt>
        <trkpt lat="29.55615" lon="103.344676"><ele>2128.495</ele><time>2026-04-04T01:30:07.000Z</time></trkpt>
        <trkpt lat="29.556183" lon="103.344638"><ele>2127.1772</ele><time>2026-04-04T01:30:13.000Z</time></trkpt>
        <trkpt lat="29.556206" lon="103.344593"><ele>2125.9448</ele><time>2026-04-04T01:30:19.000Z</time></trkpt>
        <trkpt lat="29.556244" lon="103.344558"><ele>2125.8564</ele><time>2026-04-04T01:30:25.000Z</time></trkpt>
        <trkpt lat="29.556284" lon="103.344521"><ele>2122.616</ele><time>2026-04-04T01:30:29.000Z</time></trkpt>
        <trkpt lat="29.556315" lon="103.344471"><ele>2121.5977</ele><time>2026-04-04T01:30:34.000Z</time></trkpt>
        <trkpt lat="29.556335" lon="103.344416"><ele>2118.1355</ele><time>2026-04-04T01:30:42.000Z</time></trkpt>
        <trkpt lat="29.556362" lon="103.344369"><ele>2116.0422</ele><time>2026-04-04T01:30:49.000Z</time></trkpt>
        <trkpt lat="29.556407" lon="103.344332"><ele>2112.2332</ele><time>2026-04-04T01:30:55.000Z</time></trkpt>
        <trkpt lat="29.556454" lon="103.344316"><ele>2111.244</ele><time>2026-04-04T01:31:02.000Z</time></trkpt>
        <trkpt lat="29.556494" lon="103.344286"><ele>2109.9314</ele><time>2026-04-04T01:31:06.000Z</time></trkpt>
        <trkpt lat="29.556541" lon="103.344254"><ele>2108.473</ele><time>2026-04-04T01:31:11.000Z</time></trkpt>
        <trkpt lat="29.556577" lon="103.344212"><ele>2105.0596</ele><time>2026-04-04T01:31:18.000Z</time></trkpt>
        <trkpt lat="29.556613" lon="103.34417"><ele>2103.4956</ele><time>2026-04-04T01:31:24.000Z</time></trkpt>
        <trkpt lat="29.556637" lon="103.344123"><ele>2101.9653</ele><time>2026-04-04T01:31:30.000Z</time></trkpt>
        <trkpt lat="29.556655" lon="103.344071"><ele>2099.0833</ele><time>2026-04-04T01:31:37.000Z</time></trkpt>
        <trkpt lat="29.556678" lon="103.34402"><ele>2092.7043</ele><time>2026-04-04T01:31:44.000Z</time></trkpt>
        <trkpt lat="29.556668" lon="103.343965"><ele>2091.1433</ele><time>2026-04-04T01:31:48.000Z</time></trkpt>
        <trkpt lat="29.556691" lon="103.343915"><ele>2087.1912</ele><time>2026-04-04T01:31:54.000Z</time></trkpt>
        <trkpt lat="29.556724" lon="103.343879"><ele>2081.9172</ele><time>2026-04-04T01:32:00.000Z</time></trkpt>
        <trkpt lat="29.556764" lon="103.343854"><ele>2075.4028</ele><time>2026-04-04T01:32:06.000Z</time></trkpt>
        <trkpt lat="29.556807" lon="103.343833"><ele>2070.5654</ele><time>2026-04-04T01:32:13.000Z</time></trkpt>
        <trkpt lat="29.556852" lon="103.343804"><ele>2069.1147</ele><time>2026-04-04T01:32:19.000Z</time></trkpt>
        <trkpt lat="29.556899" lon="103.3438"><ele>2071.9612</ele><time>2026-04-04T01:32:32.000Z</time></trkpt>
        <trkpt lat="29.556939" lon="103.343834"><ele>2072.0752</ele><time>2026-04-04T01:32:38.000Z</time></trkpt>
        <trkpt lat="29.556986" lon="103.343807"><ele>2071.6003</ele><time>2026-04-04T01:32:44.000Z</time></trkpt>
        <trkpt lat="29.557041" lon="103.343789"><ele>2071.1094</ele><time>2026-04-04T01:32:48.000Z</time></trkpt>
        <trkpt lat="29.557088" lon="103.343772"><ele>2070.0227</ele><time>2026-04-04T01:32:52.000Z</time></trkpt>
        <trkpt lat="29.557132" lon="103.343757"><ele>2069.1975</ele><time>2026-04-04T01:32:58.000Z</time></trkpt>
        <trkpt lat="29.557175" lon="103.343734"><ele>2066.0955</ele><time>2026-04-04T01:33:05.000Z</time></trkpt>
        <trkpt lat="29.557218" lon="103.343711"><ele>2062.5464</ele><time>2026-04-04T01:33:13.000Z</time></trkpt>
        <trkpt lat="29.557262" lon="103.343685"><ele>2061.7175</ele><time>2026-04-04T01:33:22.000Z</time></trkpt>
        <trkpt lat="29.55731" lon="103.343701"><ele>2057.8457</ele><time>2026-04-04T01:33:37.000Z</time></trkpt>
        <trkpt lat="29.557357" lon="103.343715"><ele>2056.428</ele><time>2026-04-04T01:33:45.000Z</time></trkpt>
        <trkpt lat="29.557403" lon="103.343733"><ele>2054.7432</ele><time>2026-04-04T01:33:52.000Z</time></trkpt>
        <trkpt lat="29.557449" lon="103.343743"><ele>2051.6797</ele><time>2026-04-04T01:34:02.000Z</time></trkpt>
        <trkpt lat="29.557494" lon="103.343751"><ele>2051.4836</ele><time>2026-04-04T01:34:06.000Z</time></trkpt>
        <trkpt lat="29.557539" lon="103.343767"><ele>2051.9863</ele><time>2026-04-04T01:34:11.000Z</time></trkpt>
        <trkpt lat="29.557599" lon="103.343792"><ele>2057.34</ele><time>2026-04-04T01:34:18.000Z</time></trkpt>
        <trkpt lat="29.557631" lon="103.34383"><ele>2056.334</ele><time>2026-04-04T01:34:24.000Z</time></trkpt>
        <trkpt lat="29.557635" lon="103.343886"><ele>2056.2483</ele><time>2026-04-04T01:34:33.000Z</time></trkpt>
        <trkpt lat="29.557627" lon="103.343949"><ele>2055.1702</ele><time>2026-04-04T01:34:37.000Z</time></trkpt>
        <trkpt lat="29.557644" lon="103.344"><ele>2056.7642</ele><time>2026-04-04T01:34:45.000Z</time></trkpt>
        <trkpt lat="29.557662" lon="103.344055"><ele>2057.5889</ele><time>2026-04-04T01:34:50.000Z</time></trkpt>
        <trkpt lat="29.557702" lon="103.344092"><ele>2058.2708</ele><time>2026-04-04T01:34:54.000Z</time></trkpt>
        <trkpt lat="29.55774" lon="103.34412"><ele>2059.6345</ele><time>2026-04-04T01:34:59.000Z</time></trkpt>
        <trkpt lat="29.557779" lon="103.34415"><ele>2060.1968</ele><time>2026-04-04T01:35:03.000Z</time></trkpt>
        <trkpt lat="29.557837" lon="103.344168"><ele>2061.2144</ele><time>2026-04-04T01:35:08.000Z</time></trkpt>
        <trkpt lat="29.557884" lon="103.344183"><ele>2062.6592</ele><time>2026-04-04T01:35:13.000Z</time></trkpt>
        <trkpt lat="29.557938" lon="103.344173"><ele>2062.1838</ele><time>2026-04-04T01:35:22.000Z</time></trkpt>
        <trkpt lat="29.558208" lon="103.34412"><ele>2067.6475</ele><time>2026-04-04T01:35:46.000Z</time></trkpt>
        <trkpt lat="29.558253" lon="103.344079"><ele>2067.8484</ele><time>2026-04-04T01:35:52.000Z</time></trkpt>
        <trkpt lat="29.558307" lon="103.344099"><ele>2068.3662</ele><time>2026-04-04T01:36:04.000Z</time></trkpt>
        <trkpt lat="29.558386" lon="103.34407"><ele>2061.017</ele><time>2026-04-04T01:36:10.000Z</time></trkpt>
        <trkpt lat="29.558415" lon="103.344127"><ele>2059.952</ele><time>2026-04-04T01:36:13.000Z</time></trkpt>
        <trkpt lat="29.558468" lon="103.344145"><ele>2061.432</ele><time>2026-04-04T01:36:16.000Z</time></trkpt>
        <trkpt lat="29.558509" lon="103.344171"><ele>2059.3054</ele><time>2026-04-04T01:36:21.000Z</time></trkpt>
        <trkpt lat="29.558553" lon="103.344198"><ele>2055.2883</ele><time>2026-04-04T01:36:27.000Z</time></trkpt>
        <trkpt lat="29.558592" lon="103.344227"><ele>2053.1338</ele><time>2026-04-04T01:36:35.000Z</time></trkpt>
        <trkpt lat="29.558639" lon="103.344253"><ele>2052.7405</ele><time>2026-04-04T01:36:41.000Z</time></trkpt>
        <trkpt lat="29.558685" lon="103.34425"><ele>2038.4894</ele><time>2026-04-04T01:36:51.000Z</time></trkpt>
        <trkpt lat="29.558744" lon="103.34427"><ele>2037.2545</ele><time>2026-04-04T01:36:56.000Z</time></trkpt>
        <trkpt lat="29.558795" lon="103.344273"><ele>2038.92</ele><time>2026-04-04T01:36:59.000Z</time></trkpt>
        <trkpt lat="29.558843" lon="103.344282"><ele>2041.4309</ele><time>2026-04-04T01:37:02.000Z</time></trkpt>
        <trkpt lat="29.558892" lon="103.34429"><ele>2038.4467</ele><time>2026-04-04T01:37:11.000Z</time></trkpt>
        <trkpt lat="29.558943" lon="103.344271"><ele>2033.0667</ele><time>2026-04-04T01:37:19.000Z</time></trkpt>
        <trkpt lat="29.558925" lon="103.344329"><ele>2028.4252</ele><time>2026-04-04T01:40:10.000Z</time></trkpt>
        <trkpt lat="29.558914" lon="103.344382"><ele>2027.5175</ele><time>2026-04-04T01:40:13.000Z</time></trkpt>
        <trkpt lat="29.558961" lon="103.344396"><ele>2027.1523</ele><time>2026-04-04T01:40:36.000Z</time></trkpt>
        <trkpt lat="29.558961" lon="103.34434"><ele>2024.5925</ele><time>2026-04-04T01:40:40.000Z</time></trkpt>
        <trkpt lat="29.558989" lon="103.344297"><ele>2022.0621</ele><time>2026-04-04T01:40:45.000Z</time></trkpt>
        <trkpt lat="29.559007" lon="103.344248"><ele>2021.655</ele><time>2026-04-04T01:40:50.000Z</time></trkpt>
        <trkpt lat="29.558996" lon="103.344188"><ele>2017.2057</ele><time>2026-04-04T01:40:56.000Z</time></trkpt>
        <trkpt lat="29.559049" lon="103.344221"><ele>2016.9138</ele><time>2026-04-04T01:41:11.000Z</time></trkpt>
        <trkpt lat="29.559082" lon="103.344168"><ele>2015.5226</ele><time>2026-04-04T01:41:16.000Z</time></trkpt>
        <trkpt lat="29.559077" lon="103.344111"><ele>2014.608</ele><time>2026-04-04T01:41:20.000Z</time></trkpt>
        <trkpt lat="29.559057" lon="103.344062"><ele>2013.1946</ele><time>2026-04-04T01:41:23.000Z</time></trkpt>
        <trkpt lat="29.559066" lon="103.344005"><ele>2013.5608</ele><time>2026-04-04T01:41:26.000Z</time></trkpt>
        <trkpt lat="29.559048" lon="103.343943"><ele>2015.6084</ele><time>2026-04-04T01:41:31.000Z</time></trkpt>
        <trkpt lat="29.559035" lon="103.343886"><ele>2015.2778</ele><time>2026-04-04T01:41:35.000Z</time></trkpt>
        <trkpt lat="29.559046" lon="103.343834"><ele>2015.46</ele><time>2026-04-04T01:41:39.000Z</time></trkpt>
        <trkpt lat="29.559096" lon="103.343831"><ele>2010.6898</ele><time>2026-04-04T01:41:49.000Z</time></trkpt>
        <trkpt lat="29.559107" lon="103.34378"><ele>2009.5326</ele><time>2026-04-04T01:41:53.000Z</time></trkpt>
        <trkpt lat="29.559157" lon="103.34376"><ele>2003.7588</ele><time>2026-04-04T01:42:04.000Z</time></trkpt>
        <trkpt lat="29.5592" lon="103.343783"><ele>1995.788</ele><time>2026-04-04T01:42:12.000Z</time></trkpt>
        <trkpt lat="29.559231" lon="103.343825"><ele>1992.9043</ele><time>2026-04-04T01:42:21.000Z</time></trkpt>
        <trkpt lat="29.559257" lon="103.343873"><ele>1988.0223</ele><time>2026-04-04T01:42:29.000Z</time></trkpt>
        <trkpt lat="29.559296" lon="103.343827"><ele>1986.669</ele><time>2026-04-04T01:42:38.000Z</time></trkpt>
        <trkpt lat="29.55932" lon="103.343771"><ele>1985.4637</ele><time>2026-04-04T01:42:43.000Z</time></trkpt>
        <trkpt lat="29.559354" lon="103.343735"><ele>1985.7708</ele><time>2026-04-04T01:42:52.000Z</time></trkpt>
        <trkpt lat="29.559353" lon="103.34368"><ele>1979.3771</ele><time>2026-04-04T01:43:02.000Z</time></trkpt>
        <trkpt lat="29.559404" lon="103.343666"><ele>1978.4865</ele><time>2026-04-04T01:43:11.000Z</time></trkpt>
        <trkpt lat="29.559456" lon="103.343667"><ele>1969.758</ele><time>2026-04-04T01:43:37.000Z</time></trkpt>
        <trkpt lat="29.559476" lon="103.343614"><ele>1970.5514</ele><time>2026-04-04T01:43:42.000Z</time></trkpt>
        <trkpt lat="29.559525" lon="103.343618"><ele>1969.6841</ele><time>2026-04-04T01:43:45.000Z</time></trkpt>
        <trkpt lat="29.559571" lon="103.343603"><ele>1966.9218</ele><time>2026-04-04T01:43:52.000Z</time></trkpt>
        <trkpt lat="29.55961" lon="103.343633"><ele>1965.7401</ele><time>2026-04-04T01:43:55.000Z</time></trkpt>
        <trkpt lat="29.559656" lon="103.34364"><ele>1965.0192</ele><time>2026-04-04T01:44:00.000Z</time></trkpt>
        <trkpt lat="29.559703" lon="103.343655"><ele>1953.5405</ele><time>2026-04-04T01:44:14.000Z</time></trkpt>
        <trkpt lat="29.559727" lon="103.343607"><ele>1953.2992</ele><time>2026-04-04T01:44:18.000Z</time></trkpt>
        <trkpt lat="29.559765" lon="103.343576"><ele>1945.4786</ele><time>2026-04-04T01:44:24.000Z</time></trkpt>
        <trkpt lat="29.559807" lon="103.3436"><ele>1947.1808</ele><time>2026-04-04T01:44:30.000Z</time></trkpt>
        <trkpt lat="29.559802" lon="103.343655"><ele>1941.4666</ele><time>2026-04-04T01:44:38.000Z</time></trkpt>
        <trkpt lat="29.559813" lon="103.343705"><ele>1934.6185</ele><time>2026-04-04T01:44:49.000Z</time></trkpt>
        <trkpt lat="29.559841" lon="103.343746"><ele>1935.8184</ele><time>2026-04-04T01:44:53.000Z</time></trkpt>
        <trkpt lat="29.55988" lon="103.343775"><ele>1932.3373</ele><time>2026-04-04T01:44:59.000Z</time></trkpt>
        <trkpt lat="29.559924" lon="103.343797"><ele>1928.6835</ele><time>2026-04-04T01:45:08.000Z</time></trkpt>
        <trkpt lat="29.559968" lon="103.343832"><ele>1926.5265</ele><time>2026-04-04T01:45:13.000Z</time></trkpt>
        <trkpt lat="29.560008" lon="103.343874"><ele>1925.5576</ele><time>2026-04-04T01:45:18.000Z</time></trkpt>
        <trkpt lat="29.56005" lon="103.343903"><ele>1924.7592</ele><time>2026-04-04T01:45:25.000Z</time></trkpt>
        <trkpt lat="29.560101" lon="103.343915"><ele>1925.901</ele><time>2026-04-04T01:45:30.000Z</time></trkpt>
        <trkpt lat="29.560147" lon="103.34393"><ele>1920.1909</ele><time>2026-04-04T01:45:39.000Z</time></trkpt>
        <trkpt lat="29.560174" lon="103.343971"><ele>1917.0342</ele><time>2026-04-04T01:45:45.000Z</time></trkpt>
        <trkpt lat="29.560145" lon="103.344019"><ele>1916.846</ele><time>2026-04-04T01:45:52.000Z</time></trkpt>
        <trkpt lat="29.560139" lon="103.344074"><ele>1917.241</ele><time>2026-04-04T01:46:00.000Z</time></trkpt>
        <trkpt lat="29.560147" lon="103.344126"><ele>1913.1979</ele><time>2026-04-04T01:46:10.000Z</time></trkpt>
        <trkpt lat="29.560117" lon="103.344174"><ele>1908.2794</ele><time>2026-04-04T01:46:20.000Z</time></trkpt>
        <trkpt lat="29.560097" lon="103.344232"><ele>1907.515</ele><time>2026-04-04T01:46:28.000Z</time></trkpt>
        <trkpt lat="29.560127" lon="103.344279"><ele>1906.7278</ele><time>2026-04-04T01:46:32.000Z</time></trkpt>
        <trkpt lat="29.560162" lon="103.344312"><ele>1906.1692</ele><time>2026-04-04T01:46:36.000Z</time></trkpt>
        <trkpt lat="29.560196" lon="103.344354"><ele>1905.9384</ele><time>2026-04-04T01:46:40.000Z</time></trkpt>
        <trkpt lat="29.560245" lon="103.344362"><ele>1903.5692</ele><time>2026-04-04T01:46:47.000Z</time></trkpt>
        <trkpt lat="29.560214" lon="103.344407"><ele>1898.6488</ele><time>2026-04-04T01:46:58.000Z</time></trkpt>
        <trkpt lat="29.560242" lon="103.344449"><ele>1892.116</ele><time>2026-04-04T01:47:07.000Z</time></trkpt>
        <trkpt lat="29.560264" lon="103.344496"><ele>1891.2274</ele><time>2026-04-04T01:47:13.000Z</time></trkpt>
        <trkpt lat="29.560294" lon="103.344541"><ele>1884.3433</ele><time>2026-04-04T01:47:24.000Z</time></trkpt>
        <trkpt lat="29.560341" lon="103.344571"><ele>1882.2562</ele><time>2026-04-04T01:47:31.000Z</time></trkpt>
        <trkpt lat="29.560387" lon="103.344594"><ele>1879.5465</ele><time>2026-04-04T01:47:40.000Z</time></trkpt>
        <trkpt lat="29.560428" lon="103.344619"><ele>1874.9868</ele><time>2026-04-04T01:47:48.000Z</time></trkpt>
        <trkpt lat="29.560464" lon="103.344652"><ele>1871.6191</ele><time>2026-04-04T01:47:54.000Z</time></trkpt>
        <trkpt lat="29.560508" lon="103.344683"><ele>1868.6193</ele><time>2026-04-04T01:48:01.000Z</time></trkpt>
        <trkpt lat="29.560554" lon="103.344706"><ele>1867.6344</ele><time>2026-04-04T01:48:08.000Z</time></trkpt>
        <trkpt lat="29.560587" lon="103.344752"><ele>1866.4814</ele><time>2026-04-04T01:48:14.000Z</time></trkpt>
        <trkpt lat="29.560646" lon="103.344774"><ele>1865.3258</ele><time>2026-04-04T01:48:26.000Z</time></trkpt>
        <trkpt lat="29.560693" lon="103.344792"><ele>1865.4756</ele><time>2026-04-04T01:48:35.000Z</time></trkpt>
        <trkpt lat="29.560742" lon="103.344802"><ele>1857.6343</ele><time>2026-04-04T01:48:45.000Z</time></trkpt>
        <trkpt lat="29.56077" lon="103.344842"><ele>1856.2579</ele><time>2026-04-04T01:48:56.000Z</time></trkpt>
        <trkpt lat="29.56078" lon="103.344899"><ele>1847.8579</ele><time>2026-04-04T01:49:09.000Z</time></trkpt>
        <trkpt lat="29.560798" lon="103.34495"><ele>1841.2474</ele><time>2026-04-04T01:49:23.000Z</time></trkpt>
        <trkpt lat="29.560829" lon="103.344987"><ele>1838.3014</ele><time>2026-04-04T01:49:32.000Z</time></trkpt>
        <trkpt lat="29.560869" lon="103.344962"><ele>1838.8855</ele><time>2026-04-04T01:49:40.000Z</time></trkpt>
        <trkpt lat="29.560871" lon="103.345015"><ele>1834.1349</ele><time>2026-04-04T01:49:52.000Z</time></trkpt>
        <trkpt lat="29.560896" lon="103.345071"><ele>1830.8401</ele><time>2026-04-04T01:50:02.000Z</time></trkpt>
        <trkpt lat="29.560925" lon="103.345111"><ele>1827.0088</ele><time>2026-04-04T01:50:22.000Z</time></trkpt>
        <trkpt lat="29.560973" lon="103.345122"><ele>1827.6144</ele><time>2026-04-04T01:50:28.000Z</time></trkpt>
        <trkpt lat="29.561017" lon="103.345107"><ele>1823.4142</ele><time>2026-04-04T01:50:36.000Z</time></trkpt>
        <trkpt lat="29.56106" lon="103.345076"><ele>1820.5956</ele><time>2026-04-04T01:50:45.000Z</time></trkpt>
        <trkpt lat="29.561105" lon="103.345063"><ele>1817.5491</ele><time>2026-04-04T01:50:54.000Z</time></trkpt>
        <trkpt lat="29.561129" lon="103.34511"><ele>1814.249</ele><time>2026-04-04T01:51:06.000Z</time></trkpt>
        <trkpt lat="29.561178" lon="103.345107"><ele>1810.934</ele><time>2026-04-04T01:51:15.000Z</time></trkpt>
        <trkpt lat="29.561228" lon="103.345118"><ele>1801.7325</ele><time>2026-04-04T01:51:28.000Z</time></trkpt>
        <trkpt lat="29.561252" lon="103.345165"><ele>1798.9558</ele><time>2026-04-04T01:51:40.000Z</time></trkpt>
        <trkpt lat="29.561295" lon="103.345202"><ele>1795.4453</ele><time>2026-04-04T01:51:49.000Z</time></trkpt>
        <trkpt lat="29.561317" lon="103.345256"><ele>1794.1633</ele><time>2026-04-04T01:51:57.000Z</time></trkpt>
        <trkpt lat="29.561362" lon="103.345277"><ele>1794.5369</ele><time>2026-04-04T01:52:03.000Z</time></trkpt>
        <trkpt lat="29.561391" lon="103.345323"><ele>1790.0555</ele><time>2026-04-04T01:52:14.000Z</time></trkpt>
        <trkpt lat="29.561409" lon="103.34537"><ele>1788.9098</ele><time>2026-04-04T01:52:23.000Z</time></trkpt>
        <trkpt lat="29.56145" lon="103.345412"><ele>1788.0673</ele><time>2026-04-04T01:52:26.000Z</time></trkpt>
        <trkpt lat="29.561477" lon="103.345459"><ele>1789.2631</ele><time>2026-04-04T01:52:29.000Z</time></trkpt>
        <trkpt lat="29.561504" lon="103.345502"><ele>1788.5529</ele><time>2026-04-04T01:52:32.000Z</time></trkpt>
        <trkpt lat="29.561534" lon="103.345552"><ele>1787.6038</ele><time>2026-04-04T01:52:36.000Z</time></trkpt>
        <trkpt lat="29.561581" lon="103.345566"><ele>1789.8711</ele><time>2026-04-04T01:52:41.000Z</time></trkpt>
        <trkpt lat="29.561625" lon="103.345596"><ele>1793.4607</ele><time>2026-04-04T01:52:47.000Z</time></trkpt>
        <trkpt lat="29.561667" lon="103.345629"><ele>1794.9766</ele><time>2026-04-04T01:52:52.000Z</time></trkpt>
        <trkpt lat="29.561721" lon="103.345632"><ele>1794.6228</ele><time>2026-04-04T01:52:56.000Z</time></trkpt>
        <trkpt lat="29.561781" lon="103.345627"><ele>1794.8326</ele><time>2026-04-04T01:53:01.000Z</time></trkpt>
        <trkpt lat="29.561828" lon="103.345643"><ele>1796.3752</ele><time>2026-04-04T01:53:05.000Z</time></trkpt>
        <trkpt lat="29.561876" lon="103.34562"><ele>1799.1348</ele><time>2026-04-04T01:53:09.000Z</time></trkpt>
        <trkpt lat="29.561919" lon="103.345636"><ele>1798.8296</ele><time>2026-04-04T01:53:15.000Z</time></trkpt>
        <trkpt lat="29.561969" lon="103.345628"><ele>1800.5986</ele><time>2026-04-04T01:53:18.000Z</time></trkpt>
        <trkpt lat="29.562018" lon="103.345657"><ele>1799.6259</ele><time>2026-04-04T01:53:22.000Z</time></trkpt>
        <trkpt lat="29.562043" lon="103.345719"><ele>1795.6353</ele><time>2026-04-04T01:53:26.000Z</time></trkpt>
        <trkpt lat="29.562084" lon="103.345757"><ele>1792.4008</ele><time>2026-04-04T01:53:31.000Z</time></trkpt>
        <trkpt lat="29.562124" lon="103.345796"><ele>1790.211</ele><time>2026-04-04T01:53:34.000Z</time></trkpt>
        <trkpt lat="29.562167" lon="103.345824"><ele>1793.0125</ele><time>2026-04-04T01:53:37.000Z</time></trkpt>
        <trkpt lat="29.562195" lon="103.345867"><ele>1792.5992</ele><time>2026-04-04T01:53:42.000Z</time></trkpt>
        <trkpt lat="29.56221" lon="103.345919"><ele>1793.9072</ele><time>2026-04-04T01:53:46.000Z</time></trkpt>
        <trkpt lat="29.56222" lon="103.345973"><ele>1793.5996</ele><time>2026-04-04T01:53:49.000Z</time></trkpt>
        <trkpt lat="29.562237" lon="103.346031"><ele>1791.6455</ele><time>2026-04-04T01:53:53.000Z</time></trkpt>
        <trkpt lat="29.562245" lon="103.346085"><ele>1788.8344</ele><time>2026-04-04T01:53:57.000Z</time></trkpt>
        <trkpt lat="29.562274" lon="103.346136"><ele>1791.8528</ele><time>2026-04-04T01:54:02.000Z</time></trkpt>
        <trkpt lat="29.562314" lon="103.346193"><ele>1797.049</ele><time>2026-04-04T01:54:09.000Z</time></trkpt>
        <trkpt lat="29.562354" lon="103.346233"><ele>1798.6342</ele><time>2026-04-04T01:54:13.000Z</time></trkpt>
        <trkpt lat="29.562394" lon="103.346268"><ele>1797.8906</ele><time>2026-04-04T01:54:16.000Z</time></trkpt>
        <trkpt lat="29.562435" lon="103.346298"><ele>1799.2899</ele><time>2026-04-04T01:54:19.000Z</time></trkpt>
        <trkpt lat="29.562477" lon="103.346345"><ele>1799.5896</ele><time>2026-04-04T01:54:23.000Z</time></trkpt>
        <trkpt lat="29.562517" lon="103.346371"><ele>1799.879</ele><time>2026-04-04T01:54:26.000Z</time></trkpt>
        <trkpt lat="29.562556" lon="103.346402"><ele>1800.422</ele><time>2026-04-04T01:54:29.000Z</time></trkpt>
        <trkpt lat="29.562605" lon="103.346433"><ele>1803.6478</ele><time>2026-04-04T01:54:33.000Z</time></trkpt>
        <trkpt lat="29.562648" lon="103.346476"><ele>1804.4376</ele><time>2026-04-04T01:54:36.000Z</time></trkpt>
        <trkpt lat="29.562689" lon="103.346504"><ele>1805.2748</ele><time>2026-04-04T01:54:39.000Z</time></trkpt>
        <trkpt lat="29.56272" lon="103.346557"><ele>1803.8143</ele><time>2026-04-04T01:54:43.000Z</time></trkpt>
        <trkpt lat="29.562768" lon="103.346591"><ele>1802.4822</ele><time>2026-04-04T01:54:47.000Z</time></trkpt>
        <trkpt lat="29.562811" lon="103.34661"><ele>1802.2147</ele><time>2026-04-04T01:54:50.000Z</time></trkpt>
        <trkpt lat="29.562858" lon="103.346642"><ele>1802.7493</ele><time>2026-04-04T01:54:54.000Z</time></trkpt>
        <trkpt lat="29.562897" lon="103.346687"><ele>1805.6105</ele><time>2026-04-04T01:54:58.000Z</time></trkpt>
        <trkpt lat="29.562922" lon="103.346731"><ele>1805.4515</ele><time>2026-04-04T01:55:01.000Z</time></trkpt>
        <trkpt lat="29.562957" lon="103.346768"><ele>1805.3975</ele><time>2026-04-04T01:55:04.000Z</time></trkpt>
        <trkpt lat="29.562968" lon="103.346822"><ele>1804.6023</ele><time>2026-04-04T01:55:09.000Z</time></trkpt>
        <trkpt lat="29.563001" lon="103.346862"><ele>1805.4855</ele><time>2026-04-04T01:55:14.000Z</time></trkpt>
        <trkpt lat="29.563027" lon="103.346905"><ele>1805.3049</ele><time>2026-04-04T01:55:17.000Z</time></trkpt>
        <trkpt lat="29.56307" lon="103.346938"><ele>1806.6033</ele><time>2026-04-04T01:55:21.000Z</time></trkpt>
        <trkpt lat="29.563101" lon="103.346979"><ele>1806.2511</ele><time>2026-04-04T01:55:29.000Z</time></trkpt>
        <trkpt lat="29.563132" lon="103.347022"><ele>1808.2622</ele><time>2026-04-04T01:55:34.000Z</time></trkpt>
        <trkpt lat="29.563146" lon="103.347073"><ele>1808.0002</ele><time>2026-04-04T01:55:41.000Z</time></trkpt>
        <trkpt lat="29.563161" lon="103.347131"><ele>1806.2487</ele><time>2026-04-04T01:55:47.000Z</time></trkpt>
        <trkpt lat="29.563195" lon="103.347167"><ele>1806.2395</ele><time>2026-04-04T01:55:50.000Z</time></trkpt>
        <trkpt lat="29.563223" lon="103.347209"><ele>1806.3065</ele><time>2026-04-04T01:55:53.000Z</time></trkpt>
        <trkpt lat="29.563251" lon="103.34725"><ele>1806.7257</ele><time>2026-04-04T01:55:57.000Z</time></trkpt>
        <trkpt lat="29.563297" lon="103.347277"><ele>1805.9296</ele><time>2026-04-04T01:56:10.000Z</time></trkpt>
        <trkpt lat="29.563322" lon="103.347326"><ele>1811.6552</ele><time>2026-04-04T01:57:25.000Z</time></trkpt>
        <trkpt lat="29.563367" lon="103.347338"><ele>1811.3358</ele><time>2026-04-04T01:57:30.000Z</time></trkpt>
        <trkpt lat="29.56345" lon="103.347193"><ele>1820.632</ele><time>2026-04-04T01:59:00.000Z</time></trkpt>
        <trkpt lat="29.563488" lon="103.347163"><ele>1822.2648</ele><time>2026-04-04T01:59:27.000Z</time></trkpt>
        <trkpt lat="29.563529" lon="103.347136"><ele>1819.7288</ele><time>2026-04-04T02:02:51.000Z</time></trkpt>
        <trkpt lat="29.563548" lon="103.347088"><ele>1820.112</ele><time>2026-04-04T02:05:33.000Z</time></trkpt>
        <trkpt lat="29.563516" lon="103.347049"><ele>1822.3335</ele><time>2026-04-04T02:07:25.000Z</time></trkpt>
        <trkpt lat="29.563542" lon="103.347107"><ele>1820.8796</ele><time>2026-04-04T02:07:35.000Z</time></trkpt>
        <trkpt lat="29.563546" lon="103.34717"><ele>1817.6577</ele><time>2026-04-04T02:07:40.000Z</time></trkpt>
        <trkpt lat="29.563563" lon="103.347231"><ele>1814.7037</ele><time>2026-04-04T02:07:44.000Z</time></trkpt>
        <trkpt lat="29.563589" lon="103.347287"><ele>1812.1938</ele><time>2026-04-04T02:07:48.000Z</time></trkpt>
        <trkpt lat="29.563625" lon="103.347333"><ele>1811.5548</ele><time>2026-04-04T02:07:52.000Z</time></trkpt>
        <trkpt lat="29.563631" lon="103.347388"><ele>1809.5891</ele><time>2026-04-04T02:07:56.000Z</time></trkpt>
        <trkpt lat="29.563629" lon="103.347448"><ele>1808.0682</ele><time>2026-04-04T02:08:01.000Z</time></trkpt>
        <trkpt lat="29.563645" lon="103.34751"><ele>1806.7946</ele><time>2026-04-04T02:08:05.000Z</time></trkpt>
        <trkpt lat="29.563646" lon="103.347567"><ele>1805.2046</ele><time>2026-04-04T02:08:08.000Z</time></trkpt>
        <trkpt lat="29.563639" lon="103.34762"><ele>1805.5211</ele><time>2026-04-04T02:08:14.000Z</time></trkpt>
        <trkpt lat="29.563617" lon="103.347671"><ele>1805.9725</ele><time>2026-04-04T02:08:20.000Z</time></trkpt>
        <trkpt lat="29.563616" lon="103.347728"><ele>1809.7751</ele><time>2026-04-04T02:08:27.000Z</time></trkpt>
        <trkpt lat="29.563619" lon="103.347788"><ele>1810.9747</ele><time>2026-04-04T02:08:35.000Z</time></trkpt>
        <trkpt lat="29.563622" lon="103.34784"><ele>1811.9907</ele><time>2026-04-04T02:08:40.000Z</time></trkpt>
        <trkpt lat="29.563618" lon="103.347906"><ele>1812.896</ele><time>2026-04-04T02:08:46.000Z</time></trkpt>
        <trkpt lat="29.56359" lon="103.347954"><ele>1815.5321</ele><time>2026-04-04T02:08:52.000Z</time></trkpt>
        <trkpt lat="29.563571" lon="103.348005"><ele>1816.5482</ele><time>2026-04-04T02:08:58.000Z</time></trkpt>
        <trkpt lat="29.563558" lon="103.348062"><ele>1815.7303</ele><time>2026-04-04T02:09:04.000Z</time></trkpt>
        <trkpt lat="29.563524" lon="103.348098"><ele>1814.5106</ele><time>2026-04-04T02:09:08.000Z</time></trkpt>
        <trkpt lat="29.563499" lon="103.348154"><ele>1812.831</ele><time>2026-04-04T02:09:12.000Z</time></trkpt>
        <trkpt lat="29.563495" lon="103.348217"><ele>1812.4341</ele><time>2026-04-04T02:09:16.000Z</time></trkpt>
        <trkpt lat="29.563492" lon="103.348277"><ele>1812.5273</ele><time>2026-04-04T02:09:20.000Z</time></trkpt>
        <trkpt lat="29.563459" lon="103.348319"><ele>1811.4436</ele><time>2026-04-04T02:09:25.000Z</time></trkpt>
        <trkpt lat="29.563426" lon="103.348368"><ele>1810.0693</ele><time>2026-04-04T02:09:29.000Z</time></trkpt>
        <trkpt lat="29.563387" lon="103.348409"><ele>1811.1393</ele><time>2026-04-04T02:09:33.000Z</time></trkpt>
        <trkpt lat="29.563356" lon="103.348458"><ele>1810.4197</ele><time>2026-04-04T02:09:37.000Z</time></trkpt>
        <trkpt lat="29.563335" lon="103.348506"><ele>1810.1997</ele><time>2026-04-04T02:09:40.000Z</time></trkpt>
        <trkpt lat="29.56332" lon="103.348566"><ele>1811.1512</ele><time>2026-04-04T02:09:44.000Z</time></trkpt>
        <trkpt lat="29.563313" lon="103.34862"><ele>1810.5414</ele><time>2026-04-04T02:09:47.000Z</time></trkpt>
        <trkpt lat="29.563309" lon="103.348673"><ele>1809.6643</ele><time>2026-04-04T02:09:50.000Z</time></trkpt>
        <trkpt lat="29.563309" lon="103.348732"><ele>1810.8698</ele><time>2026-04-04T02:09:53.000Z</time></trkpt>
        <trkpt lat="29.563314" lon="103.348791"><ele>1811.0144</ele><time>2026-04-04T02:09:56.000Z</time></trkpt>
        <trkpt lat="29.56333" lon="103.348848"><ele>1810.5886</ele><time>2026-04-04T02:09:59.000Z</time></trkpt>
        <trkpt lat="29.563325" lon="103.348899"><ele>1810.079</ele><time>2026-04-04T02:10:02.000Z</time></trkpt>
        <trkpt lat="29.563321" lon="103.34896"><ele>1809.3605</ele><time>2026-04-04T02:10:06.000Z</time></trkpt>
        <trkpt lat="29.563297" lon="103.349018"><ele>1807.8665</ele><time>2026-04-04T02:10:10.000Z</time></trkpt>
        <trkpt lat="29.563274" lon="103.349072"><ele>1805.9412</ele><time>2026-04-04T02:10:15.000Z</time></trkpt>
        <trkpt lat="29.563282" lon="103.349125"><ele>1805.5883</ele><time>2026-04-04T02:10:18.000Z</time></trkpt>
        <trkpt lat="29.563294" lon="103.349181"><ele>1802.6107</ele><time>2026-04-04T02:10:22.000Z</time></trkpt>
        <trkpt lat="29.563277" lon="103.349237"><ele>1802.6416</ele><time>2026-04-04T02:10:26.000Z</time></trkpt>
        <trkpt lat="29.563241" lon="103.349275"><ele>1803.2921</ele><time>2026-04-04T02:10:29.000Z</time></trkpt>
        <trkpt lat="29.563216" lon="103.349323"><ele>1805.2843</ele><time>2026-04-04T02:10:32.000Z</time></trkpt>
        <trkpt lat="29.563202" lon="103.349375"><ele>1804.0824</ele><time>2026-04-04T02:10:35.000Z</time></trkpt>
        <trkpt lat="29.563193" lon="103.349433"><ele>1804.5101</ele><time>2026-04-04T02:10:38.000Z</time></trkpt>
        <trkpt lat="29.563174" lon="103.349487"><ele>1804.9299</ele><time>2026-04-04T02:10:42.000Z</time></trkpt>
        <trkpt lat="29.563137" lon="103.349541"><ele>1804.2155</ele><time>2026-04-04T02:10:48.000Z</time></trkpt>
        <trkpt lat="29.563098" lon="103.349587"><ele>1804.6154</ele><time>2026-04-04T02:10:51.000Z</time></trkpt>
        <trkpt lat="29.563067" lon="103.349629"><ele>1804.4127</ele><time>2026-04-04T02:10:54.000Z</time></trkpt>
        <trkpt lat="29.563047" lon="103.349686"><ele>1805.3455</ele><time>2026-04-04T02:10:57.000Z</time></trkpt>
        <trkpt lat="29.563019" lon="103.349729"><ele>1805.9966</ele><time>2026-04-04T02:11:00.000Z</time></trkpt>
        <trkpt lat="29.562984" lon="103.349778"><ele>1805.1091</ele><time>2026-04-04T02:11:04.000Z</time></trkpt>
        <trkpt lat="29.562972" lon="103.349827"><ele>1803.17</ele><time>2026-04-04T02:11:07.000Z</time></trkpt>
        <trkpt lat="29.562954" lon="103.349892"><ele>1801.0557</ele><time>2026-04-04T02:11:11.000Z</time></trkpt>
        <trkpt lat="29.562972" lon="103.349952"><ele>1801.1799</ele><time>2026-04-04T02:11:14.000Z</time></trkpt>
        <trkpt lat="29.562976" lon="103.350011"><ele>1802.7694</ele><time>2026-04-04T02:11:17.000Z</time></trkpt>
        <trkpt lat="29.562988" lon="103.35007"><ele>1803.548</ele><time>2026-04-04T02:11:21.000Z</time></trkpt>
        <trkpt lat="29.562977" lon="103.350132"><ele>1803.991</ele><time>2026-04-04T02:11:27.000Z</time></trkpt>
        <trkpt lat="29.562965" lon="103.350188"><ele>1803.8516</ele><time>2026-04-04T02:11:31.000Z</time></trkpt>
        <trkpt lat="29.562939" lon="103.350236"><ele>1804.728</ele><time>2026-04-04T02:11:35.000Z</time></trkpt>
        <trkpt lat="29.562926" lon="103.350293"><ele>1804.998</ele><time>2026-04-04T02:11:40.000Z</time></trkpt>
        <trkpt lat="29.562913" lon="103.350364"><ele>1807.3822</ele><time>2026-04-04T02:11:45.000Z</time></trkpt>
        <trkpt lat="29.562908" lon="103.350417"><ele>1808.0319</ele><time>2026-04-04T02:11:51.000Z</time></trkpt>
        <trkpt lat="29.562895" lon="103.35047"><ele>1807.8627</ele><time>2026-04-04T02:11:55.000Z</time></trkpt>
        <trkpt lat="29.562883" lon="103.35053"><ele>1807.9557</ele><time>2026-04-04T02:12:01.000Z</time></trkpt>
        <trkpt lat="29.562875" lon="103.350584"><ele>1810.6292</ele><time>2026-04-04T02:12:10.000Z</time></trkpt>
        <trkpt lat="29.562869" lon="103.350645"><ele>1812.5118</ele><time>2026-04-04T02:12:16.000Z</time></trkpt>
        <trkpt lat="29.562867" lon="103.350707"><ele>1812.9268</ele><time>2026-04-04T02:12:20.000Z</time></trkpt>
        <trkpt lat="29.562874" lon="103.350759"><ele>1814.1427</ele><time>2026-04-04T02:12:23.000Z</time></trkpt>
        <trkpt lat="29.562874" lon="103.350814"><ele>1816.2224</ele><time>2026-04-04T02:12:27.000Z</time></trkpt>
        <trkpt lat="29.562856" lon="103.350862"><ele>1815.394</ele><time>2026-04-04T02:12:35.000Z</time></trkpt>
        <trkpt lat="29.562831" lon="103.350908"><ele>1813.2023</ele><time>2026-04-04T02:12:44.000Z</time></trkpt>
        <trkpt lat="29.562838" lon="103.350973"><ele>1812.3583</ele><time>2026-04-04T02:12:51.000Z</time></trkpt>
        <trkpt lat="29.562842" lon="103.351033"><ele>1809.8134</ele><time>2026-04-04T02:12:57.000Z</time></trkpt>
        <trkpt lat="29.562848" lon="103.35109"><ele>1809.0958</ele><time>2026-04-04T02:13:01.000Z</time></trkpt>
        <trkpt lat="29.562856" lon="103.351142"><ele>1806.0402</ele><time>2026-04-04T02:13:07.000Z</time></trkpt>
        <trkpt lat="29.562856" lon="103.351205"><ele>1806.8761</ele><time>2026-04-04T02:13:12.000Z</time></trkpt>
        <trkpt lat="29.562826" lon="103.351255"><ele>1807.4054</ele><time>2026-04-04T02:13:18.000Z</time></trkpt>
        <trkpt lat="29.562788" lon="103.351291"><ele>1808.1298</ele><time>2026-04-04T02:13:22.000Z</time></trkpt>
        <trkpt lat="29.562754" lon="103.351326"><ele>1809.1366</ele><time>2026-04-04T02:13:26.000Z</time></trkpt>
        <trkpt lat="29.562733" lon="103.351375"><ele>1809.7483</ele><time>2026-04-04T02:13:29.000Z</time></trkpt>
        <trkpt lat="29.562714" lon="103.35143"><ele>1811.7542</ele><time>2026-04-04T02:13:33.000Z</time></trkpt>
        <trkpt lat="29.562706" lon="103.351495"><ele>1812.7917</ele><time>2026-04-04T02:13:36.000Z</time></trkpt>
        <trkpt lat="29.562685" lon="103.351553"><ele>1812.6001</ele><time>2026-04-04T02:13:40.000Z</time></trkpt>
        <trkpt lat="29.562665" lon="103.351607"><ele>1813.4928</ele><time>2026-04-04T02:13:43.000Z</time></trkpt>
        <trkpt lat="29.562647" lon="103.351654"><ele>1813.2025</ele><time>2026-04-04T02:13:46.000Z</time></trkpt>
        <trkpt lat="29.562624" lon="103.351715"><ele>1810.7876</ele><time>2026-04-04T02:13:50.000Z</time></trkpt>
        <trkpt lat="29.562631" lon="103.35177"><ele>1807.6455</ele><time>2026-04-04T02:13:57.000Z</time></trkpt>
        <trkpt lat="29.56264" lon="103.351829"><ele>1802.208</ele><time>2026-04-04T02:14:08.000Z</time></trkpt>
        <trkpt lat="29.562606" lon="103.351867"><ele>1805.6934</ele><time>2026-04-04T02:14:14.000Z</time></trkpt>
        <trkpt lat="29.562569" lon="103.351903"><ele>1805.0316</ele><time>2026-04-04T02:14:22.000Z</time></trkpt>
        <trkpt lat="29.562538" lon="103.351961"><ele>1807.4769</ele><time>2026-04-04T02:14:25.000Z</time></trkpt>
        <trkpt lat="29.562563" lon="103.352004"><ele>1805.7798</ele><time>2026-04-04T02:14:31.000Z</time></trkpt>
        <trkpt lat="29.562589" lon="103.352048"><ele>1807.0774</ele><time>2026-04-04T02:14:34.000Z</time></trkpt>
        <trkpt lat="29.562623" lon="103.352104"><ele>1810.9315</ele><time>2026-04-04T02:14:41.000Z</time></trkpt>
        <trkpt lat="29.562644" lon="103.352156"><ele>1810.235</ele><time>2026-04-04T02:14:45.000Z</time></trkpt>
        <trkpt lat="29.56266" lon="103.352204"><ele>1810.7664</ele><time>2026-04-04T02:14:49.000Z</time></trkpt>
        <trkpt lat="29.562685" lon="103.352257"><ele>1812.3994</ele><time>2026-04-04T02:14:55.000Z</time></trkpt>
        <trkpt lat="29.562698" lon="103.352311"><ele>1815.4746</ele><time>2026-04-04T02:15:01.000Z</time></trkpt>
        <trkpt lat="29.562701" lon="103.352366"><ele>1816.8805</ele><time>2026-04-04T02:15:05.000Z</time></trkpt>
        <trkpt lat="29.562679" lon="103.352416"><ele>1823.6765</ele><time>2026-04-04T02:15:13.000Z</time></trkpt>
        <trkpt lat="29.562638" lon="103.352455"><ele>1822.0631</ele><time>2026-04-04T02:15:20.000Z</time></trkpt>
        <trkpt lat="29.562592" lon="103.352484"><ele>1820.4839</ele><time>2026-04-04T02:15:27.000Z</time></trkpt>
        <trkpt lat="29.562547" lon="103.352464"><ele>1822.3236</ele><time>2026-04-04T02:15:33.000Z</time></trkpt>
        <trkpt lat="29.562535" lon="103.352413"><ele>1816.2339</ele><time>2026-04-04T02:15:51.000Z</time></trkpt>
        <trkpt lat="29.562495" lon="103.352357"><ele>1822.2859</ele><time>2026-04-04T02:16:00.000Z</time></trkpt>
        <trkpt lat="29.562469" lon="103.352315"><ele>1817.0878</ele><time>2026-04-04T02:16:07.000Z</time></trkpt>
        <trkpt lat="29.562422" lon="103.352289"><ele>1816.3298</ele><time>2026-04-04T02:16:12.000Z</time></trkpt>
        <trkpt lat="29.562381" lon="103.352255"><ele>1815.6837</ele><time>2026-04-04T02:16:18.000Z</time></trkpt>
        <trkpt lat="29.562328" lon="103.352236"><ele>1823.848</ele><time>2026-04-04T02:16:21.000Z</time></trkpt>
        <trkpt lat="29.562288" lon="103.352274"><ele>1822.2047</ele><time>2026-04-04T02:16:26.000Z</time></trkpt>
        <trkpt lat="29.562241" lon="103.352252"><ele>1826.6375</ele><time>2026-04-04T02:16:32.000Z</time></trkpt>
        <trkpt lat="29.562196" lon="103.352223"><ele>1829.1445</ele><time>2026-04-04T02:16:36.000Z</time></trkpt>
        <trkpt lat="29.562141" lon="103.352216"><ele>1833.9413</ele><time>2026-04-04T02:16:42.000Z</time></trkpt>
        <trkpt lat="29.562083" lon="103.352188"><ele>1835.6095</ele><time>2026-04-04T02:16:47.000Z</time></trkpt>
        <trkpt lat="29.562045" lon="103.352217"><ele>1823.1438</ele><time>2026-04-04T02:16:53.000Z</time></trkpt>
        <trkpt lat="29.562" lon="103.352211"><ele>1821.3927</ele><time>2026-04-04T02:16:58.000Z</time></trkpt>
        <trkpt lat="29.561956" lon="103.352227"><ele>1820.0654</ele><time>2026-04-04T02:17:03.000Z</time></trkpt>
        <trkpt lat="29.561953" lon="103.352279"><ele>1807.5823</ele><time>2026-04-04T02:17:08.000Z</time></trkpt>
        <trkpt lat="29.561909" lon="103.352247"><ele>1801.1819</ele><time>2026-04-04T02:17:11.000Z</time></trkpt>
        <trkpt lat="29.561884" lon="103.352296"><ele>1791.304</ele><time>2026-04-04T02:17:22.000Z</time></trkpt>
        <trkpt lat="29.561853" lon="103.352244"><ele>1779.4756</ele><time>2026-04-04T02:17:36.000Z</time></trkpt>
        <trkpt lat="29.561811" lon="103.352203"><ele>1784.1835</ele><time>2026-04-04T02:17:41.000Z</time></trkpt>
        <trkpt lat="29.561822" lon="103.352148"><ele>1768.0293</ele><time>2026-04-04T02:17:58.000Z</time></trkpt>
        <trkpt lat="29.561776" lon="103.35214"><ele>1757.271</ele><time>2026-04-04T02:18:19.000Z</time></trkpt>
        <trkpt lat="29.561726" lon="103.352141"><ele>1750.6002</ele><time>2026-04-04T02:18:26.000Z</time></trkpt>
        <trkpt lat="29.561685" lon="103.352117"><ele>1745.8475</ele><time>2026-04-04T02:18:32.000Z</time></trkpt>
        <trkpt lat="29.561651" lon="103.352072"><ele>1745.8715</ele><time>2026-04-04T02:18:38.000Z</time></trkpt>
        <trkpt lat="29.561606" lon="103.352089"><ele>1738.1656</ele><time>2026-04-04T02:18:46.000Z</time></trkpt>
        <trkpt lat="29.561559" lon="103.352083"><ele>1737.5481</ele><time>2026-04-04T02:18:51.000Z</time></trkpt>
        <trkpt lat="29.561514" lon="103.352048"><ele>1727.835</ele><time>2026-04-04T02:19:11.000Z</time></trkpt>
        <trkpt lat="29.561513" lon="103.351992"><ele>1729.5948</ele><time>2026-04-04T02:19:22.000Z</time></trkpt>
        <trkpt lat="29.561459" lon="103.351985"><ele>1727.3574</ele><time>2026-04-04T02:19:32.000Z</time></trkpt>
        <trkpt lat="29.561502" lon="103.351945"><ele>1725.396</ele><time>2026-04-04T02:19:44.000Z</time></trkpt>
        <trkpt lat="29.561476" lon="103.351898"><ele>1727.8162</ele><time>2026-04-04T02:19:48.000Z</time></trkpt>
        <trkpt lat="29.561475" lon="103.351841"><ele>1721.2397</ele><time>2026-04-04T02:19:58.000Z</time></trkpt>
        <trkpt lat="29.56144" lon="103.351804"><ele>1720.4462</ele><time>2026-04-04T02:20:07.000Z</time></trkpt>
        <trkpt lat="29.561401" lon="103.351773"><ele>1717.4163</ele><time>2026-04-04T02:20:14.000Z</time></trkpt>
        <trkpt lat="29.561354" lon="103.351785"><ele>1715.1133</ele><time>2026-04-04T02:20:20.000Z</time></trkpt>
        <trkpt lat="29.561309" lon="103.351792"><ele>1710.8884</ele><time>2026-04-04T02:20:24.000Z</time></trkpt>
        <trkpt lat="29.561259" lon="103.351767"><ele>1705.507</ele><time>2026-04-04T02:20:30.000Z</time></trkpt>
        <trkpt lat="29.561209" lon="103.351741"><ele>1700.6465</ele><time>2026-04-04T02:20:35.000Z</time></trkpt>
        <trkpt lat="29.561173" lon="103.351701"><ele>1699.6707</ele><time>2026-04-04T02:20:40.000Z</time></trkpt>
        <trkpt lat="29.561133" lon="103.351676"><ele>1698.758</ele><time>2026-04-04T02:20:43.000Z</time></trkpt>
        <trkpt lat="29.561088" lon="103.35167"><ele>1691.5444</ele><time>2026-04-04T02:20:50.000Z</time></trkpt>
        <trkpt lat="29.561052" lon="103.351616"><ele>1688.3416</ele><time>2026-04-04T02:20:57.000Z</time></trkpt>
        <trkpt lat="29.561015" lon="103.351586"><ele>1687.5732</ele><time>2026-04-04T02:21:00.000Z</time></trkpt>
        <trkpt lat="29.560971" lon="103.351546"><ele>1686.7915</ele><time>2026-04-04T02:21:04.000Z</time></trkpt>
        <trkpt lat="29.56094" lon="103.351593"><ele>1688.0442</ele><time>2026-04-04T02:21:08.000Z</time></trkpt>
        <trkpt lat="29.560892" lon="103.351593"><ele>1693.4067</ele><time>2026-04-04T02:21:19.000Z</time></trkpt>
        <trkpt lat="29.560845" lon="103.351563"><ele>1688.9822</ele><time>2026-04-04T02:21:41.000Z</time></trkpt>
        <trkpt lat="29.560808" lon="103.35161"><ele>1693.411</ele><time>2026-04-04T02:21:51.000Z</time></trkpt>
        <trkpt lat="29.560784" lon="103.351662"><ele>1686.0101</ele><time>2026-04-04T02:22:08.000Z</time></trkpt>
        <trkpt lat="29.560758" lon="103.351707"><ele>1683.8107</ele><time>2026-04-04T02:22:12.000Z</time></trkpt>
        <trkpt lat="29.560733" lon="103.351751"><ele>1683.9832</ele><time>2026-04-04T02:22:15.000Z</time></trkpt>
        <trkpt lat="29.560689" lon="103.351766"><ele>1682.7634</ele><time>2026-04-04T02:22:19.000Z</time></trkpt>
        <trkpt lat="29.560676" lon="103.351708"><ele>1680.8801</ele><time>2026-04-04T02:22:28.000Z</time></trkpt>
        <trkpt lat="29.56064" lon="103.351673"><ele>1679.8206</ele><time>2026-04-04T02:22:39.000Z</time></trkpt>
        <trkpt lat="29.560597" lon="103.351656"><ele>1681.1488</ele><time>2026-04-04T02:22:46.000Z</time></trkpt>
        <trkpt lat="29.560632" lon="103.351622"><ele>1672.1709</ele><time>2026-04-04T02:22:56.000Z</time></trkpt>
        <trkpt lat="29.560672" lon="103.351593"><ele>1670.3646</ele><time>2026-04-04T02:23:00.000Z</time></trkpt>
        <trkpt lat="29.560712" lon="103.351566"><ele>1664.3715</ele><time>2026-04-04T02:23:05.000Z</time></trkpt>
        <trkpt lat="29.56074" lon="103.351514"><ele>1661.0756</ele><time>2026-04-04T02:23:13.000Z</time></trkpt>
        <trkpt lat="29.560757" lon="103.351465"><ele>1657.78</ele><time>2026-04-04T02:23:21.000Z</time></trkpt>
        <trkpt lat="29.560769" lon="103.351414"><ele>1656.7529</ele><time>2026-04-04T02:23:27.000Z</time></trkpt>
        <trkpt lat="29.560737" lon="103.351363"><ele>1662.7988</ele><time>2026-04-04T02:23:30.000Z</time></trkpt>
        <trkpt lat="29.560738" lon="103.351416"><ele>1647.6201</ele><time>2026-04-04T02:23:42.000Z</time></trkpt>
        <trkpt lat="29.560696" lon="103.351447"><ele>1640.8447</ele><time>2026-04-04T02:23:48.000Z</time></trkpt>
        <trkpt lat="29.560665" lon="103.351407"><ele>1640.3804</ele><time>2026-04-04T02:24:07.000Z</time></trkpt>
        <trkpt lat="29.560648" lon="103.351344"><ele>1648.5444</ele><time>2026-04-04T02:24:11.000Z</time></trkpt>
        <trkpt lat="29.560656" lon="103.351286"><ele>1653.6135</ele><time>2026-04-04T02:24:18.000Z</time></trkpt>
        <trkpt lat="29.560678" lon="103.351236"><ele>1658.7651</ele><time>2026-04-04T02:24:28.000Z</time></trkpt>
        <trkpt lat="29.560626" lon="103.351215"><ele>1661.0272</ele><time>2026-04-04T02:24:33.000Z</time></trkpt>
        <trkpt lat="29.560581" lon="103.35122"><ele>1662.0964</ele><time>2026-04-04T02:24:37.000Z</time></trkpt>
        <trkpt lat="29.560541" lon="103.351187"><ele>1657.0886</ele><time>2026-04-04T02:24:54.000Z</time></trkpt>
        <trkpt lat="29.560503" lon="103.351222"><ele>1646.9838</ele><time>2026-04-04T02:25:01.000Z</time></trkpt>
        <trkpt lat="29.560462" lon="103.351192"><ele>1642.336</ele><time>2026-04-04T02:25:13.000Z</time></trkpt>
        <trkpt lat="29.560416" lon="103.351207"><ele>1629.6014</ele><time>2026-04-04T02:25:28.000Z</time></trkpt>
        <trkpt lat="29.560361" lon="103.351194"><ele>1645.0127</ele><time>2026-04-04T02:25:34.000Z</time></trkpt>
        <trkpt lat="29.560315" lon="103.351185"><ele>1646.1586</ele><time>2026-04-04T02:25:39.000Z</time></trkpt>
        <trkpt lat="29.560297" lon="103.351136"><ele>1645.3561</ele><time>2026-04-04T02:25:51.000Z</time></trkpt>
        <trkpt lat="29.560289" lon="103.351084"><ele>1644.6241</ele><time>2026-04-04T02:26:01.000Z</time></trkpt>
        <trkpt lat="29.560261" lon="103.35104"><ele>1643.6094</ele><time>2026-04-04T02:26:05.000Z</time></trkpt>
        <trkpt lat="29.560252" lon="103.350981"><ele>1639.3396</ele><time>2026-04-04T02:26:12.000Z</time></trkpt>
        <trkpt lat="29.56024" lon="103.350931"><ele>1636.8169</ele><time>2026-04-04T02:26:19.000Z</time></trkpt>
        <trkpt lat="29.560228" lon="103.350877"><ele>1626.9026</ele><time>2026-04-04T02:26:47.000Z</time></trkpt>
        <trkpt lat="29.560209" lon="103.350828"><ele>1620.6927</ele><time>2026-04-04T02:27:00.000Z</time></trkpt>
        <trkpt lat="29.560188" lon="103.350783"><ele>1622.6886</ele><time>2026-04-04T02:27:11.000Z</time></trkpt>
        <trkpt lat="29.560159" lon="103.350723"><ele>1618.8915</ele><time>2026-04-04T02:27:26.000Z</time></trkpt>
        <trkpt lat="29.560107" lon="103.350733"><ele>1621.1575</ele><time>2026-04-04T02:27:43.000Z</time></trkpt>
        <trkpt lat="29.560069" lon="103.350697"><ele>1619.8728</ele><time>2026-04-04T02:27:55.000Z</time></trkpt>
        <trkpt lat="29.560023" lon="103.350683"><ele>1623.1034</ele><time>2026-04-04T02:28:02.000Z</time></trkpt>
        <trkpt lat="29.559979" lon="103.350708"><ele>1624.2874</ele><time>2026-04-04T02:28:08.000Z</time></trkpt>
        <trkpt lat="29.559928" lon="103.350723"><ele>1625.6783</ele><time>2026-04-04T02:28:16.000Z</time></trkpt>
        <trkpt lat="29.55988" lon="103.350713"><ele>1625.3336</ele><time>2026-04-04T02:28:20.000Z</time></trkpt>
        <trkpt lat="29.559838" lon="103.350746"><ele>1626.599</ele><time>2026-04-04T02:28:26.000Z</time></trkpt>
        <trkpt lat="29.559798" lon="103.350772"><ele>1625.1604</ele><time>2026-04-04T02:28:33.000Z</time></trkpt>
        <trkpt lat="29.55976" lon="103.350807"><ele>1623.9417</ele><time>2026-04-04T02:28:40.000Z</time></trkpt>
        <trkpt lat="29.559721" lon="103.35084"><ele>1623.5051</ele><time>2026-04-04T02:28:46.000Z</time></trkpt>
        <trkpt lat="29.559684" lon="103.350883"><ele>1621.7842</ele><time>2026-04-04T02:28:53.000Z</time></trkpt>
        <trkpt lat="29.559634" lon="103.350913"><ele>1619.0984</ele><time>2026-04-04T02:29:00.000Z</time></trkpt>
        <trkpt lat="29.559588" lon="103.350952"><ele>1619.0731</ele><time>2026-04-04T02:29:04.000Z</time></trkpt>
        <trkpt lat="29.559546" lon="103.350985"><ele>1620.3312</ele><time>2026-04-04T02:29:09.000Z</time></trkpt>
        <trkpt lat="29.559506" lon="103.351015"><ele>1621.2129</ele><time>2026-04-04T02:29:15.000Z</time></trkpt>
        <trkpt lat="29.559444" lon="103.35099"><ele>1616.6881</ele><time>2026-04-04T02:37:11.000Z</time></trkpt>
        <trkpt lat="29.559401" lon="103.351009"><ele>1609.2407</ele><time>2026-04-04T02:39:14.000Z</time></trkpt>
        <trkpt lat="29.559393" lon="103.351068"><ele>1609.7177</ele><time>2026-04-04T02:44:58.000Z</time></trkpt>
        <trkpt lat="29.559367" lon="103.351112"><ele>1602.5314</ele><time>2026-04-04T02:45:10.000Z</time></trkpt>
        <trkpt lat="29.559329" lon="103.351142"><ele>1602.9702</ele><time>2026-04-04T02:45:23.000Z</time></trkpt>
        <trkpt lat="29.559279" lon="103.351143"><ele>1602.1299</ele><time>2026-04-04T02:45:39.000Z</time></trkpt>
        <trkpt lat="29.559231" lon="103.351151"><ele>1600.994</ele><time>2026-04-04T02:45:49.000Z</time></trkpt>
        <trkpt lat="29.559187" lon="103.351178"><ele>1598.7483</ele><time>2026-04-04T02:45:55.000Z</time></trkpt>
        <trkpt lat="29.559141" lon="103.351193"><ele>1599.1768</ele><time>2026-04-04T02:46:00.000Z</time></trkpt>
        <trkpt lat="29.559107" lon="103.351243"><ele>1600.6733</ele><time>2026-04-04T02:46:05.000Z</time></trkpt>
        <trkpt lat="29.559095" lon="103.351297"><ele>1600.6149</ele><time>2026-04-04T02:46:09.000Z</time></trkpt>
        <trkpt lat="29.55907" lon="103.351343"><ele>1600.7664</ele><time>2026-04-04T02:46:12.000Z</time></trkpt>
        <trkpt lat="29.559031" lon="103.351375"><ele>1599.3165</ele><time>2026-04-04T02:46:16.000Z</time></trkpt>
        <trkpt lat="29.558992" lon="103.351409"><ele>1598.146</ele><time>2026-04-04T02:46:21.000Z</time></trkpt>
        <trkpt lat="29.558955" lon="103.351441"><ele>1597.9924</ele><time>2026-04-04T02:46:24.000Z</time></trkpt>
        <trkpt lat="29.55892" lon="103.351482"><ele>1598.2559</ele><time>2026-04-04T02:46:32.000Z</time></trkpt>
        <trkpt lat="29.558867" lon="103.351479"><ele>1596.0945</ele><time>2026-04-04T02:46:39.000Z</time></trkpt>
        <trkpt lat="29.558823" lon="103.3515"><ele>1599.118</ele><time>2026-04-04T02:46:46.000Z</time></trkpt>
        <trkpt lat="29.558782" lon="103.351525"><ele>1600.1786</ele><time>2026-04-04T02:46:52.000Z</time></trkpt>
        <trkpt lat="29.558744" lon="103.351557"><ele>1599.5776</ele><time>2026-04-04T02:46:56.000Z</time></trkpt>
        <trkpt lat="29.558695" lon="103.351575"><ele>1598.1892</ele><time>2026-04-04T02:47:01.000Z</time></trkpt>
        <trkpt lat="29.558656" lon="103.351599"><ele>1597.6724</ele><time>2026-04-04T02:47:04.000Z</time></trkpt>
        <trkpt lat="29.55862" lon="103.351639"><ele>1598.1908</ele><time>2026-04-04T02:47:07.000Z</time></trkpt>
        <trkpt lat="29.558573" lon="103.351668"><ele>1597.4741</ele><time>2026-04-04T02:47:12.000Z</time></trkpt>
        <trkpt lat="29.558527" lon="103.351674"><ele>1598.824</ele><time>2026-04-04T02:47:16.000Z</time></trkpt>
        <trkpt lat="29.558475" lon="103.351686"><ele>1598.5116</ele><time>2026-04-04T02:47:25.000Z</time></trkpt>
        <trkpt lat="29.558437" lon="103.351714"><ele>1598.5347</ele><time>2026-04-04T02:47:29.000Z</time></trkpt>
        <trkpt lat="29.558389" lon="103.351729"><ele>1598.8793</ele><time>2026-04-04T02:47:35.000Z</time></trkpt>
        <trkpt lat="29.55834" lon="103.351728"><ele>1599.3356</ele><time>2026-04-04T02:47:40.000Z</time></trkpt>
        <trkpt lat="29.55829" lon="103.351742"><ele>1599.1837</ele><time>2026-04-04T02:47:47.000Z</time></trkpt>
        <trkpt lat="29.558251" lon="103.351782"><ele>1600.1432</ele><time>2026-04-04T02:47:52.000Z</time></trkpt>
        <trkpt lat="29.558212" lon="103.351812"><ele>1600.9333</ele><time>2026-04-04T02:47:55.000Z</time></trkpt>
        <trkpt lat="29.558152" lon="103.351793"><ele>1599.4296</ele><time>2026-04-04T02:48:00.000Z</time></trkpt>
        <trkpt lat="29.558101" lon="103.351762"><ele>1595.6926</ele><time>2026-04-04T02:48:07.000Z</time></trkpt>
        <trkpt lat="29.558062" lon="103.351733"><ele>1592.991</ele><time>2026-04-04T02:48:11.000Z</time></trkpt>
        <trkpt lat="29.558017" lon="103.351717"><ele>1590.8777</ele><time>2026-04-04T02:48:19.000Z</time></trkpt>
        <trkpt lat="29.557971" lon="103.351699"><ele>1588.2449</ele><time>2026-04-04T02:48:27.000Z</time></trkpt>
        <trkpt lat="29.557927" lon="103.351683"><ele>1588.1517</ele><time>2026-04-04T02:48:32.000Z</time></trkpt>
        <trkpt lat="29.557899" lon="103.351743"><ele>1598.4749</ele><time>2026-04-04T02:48:38.000Z</time></trkpt>
        <trkpt lat="29.557875" lon="103.351789"><ele>1602.6044</ele><time>2026-04-04T02:48:41.000Z</time></trkpt>
        <trkpt lat="29.557818" lon="103.351785"><ele>1602.5657</ele><time>2026-04-04T02:48:46.000Z</time></trkpt>
        <trkpt lat="29.557761" lon="103.351788"><ele>1599.4576</ele><time>2026-04-04T02:48:50.000Z</time></trkpt>
        <trkpt lat="29.557745" lon="103.351838"><ele>1603.967</ele><time>2026-04-04T02:48:52.000Z</time></trkpt>
        <trkpt lat="29.557728" lon="103.351901"><ele>1610.0237</ele><time>2026-04-04T02:48:54.000Z</time></trkpt>
        <trkpt lat="29.557713" lon="103.351963"><ele>1612.1721</ele><time>2026-04-04T02:48:57.000Z</time></trkpt>
        <trkpt lat="29.557686" lon="103.352007"><ele>1625.5988</ele><time>2026-04-04T02:49:11.000Z</time></trkpt>
        <trkpt lat="29.557688" lon="103.352064"><ele>1631.1342</ele><time>2026-04-04T02:49:17.000Z</time></trkpt>
        <trkpt lat="29.557673" lon="103.35212"><ele>1631.4999</ele><time>2026-04-04T02:49:25.000Z</time></trkpt>
        <trkpt lat="29.557633" lon="103.352145"><ele>1627.1691</ele><time>2026-04-04T02:49:38.000Z</time></trkpt>
        <trkpt lat="29.557611" lon="103.352195"><ele>1626.4589</ele><time>2026-04-04T02:49:44.000Z</time></trkpt>
        <trkpt lat="29.557597" lon="103.352247"><ele>1624.9951</ele><time>2026-04-04T02:49:49.000Z</time></trkpt>
        <trkpt lat="29.557569" lon="103.352297"><ele>1621.8469</ele><time>2026-04-04T02:49:56.000Z</time></trkpt>
        <trkpt lat="29.557528" lon="103.352323"><ele>1616.8004</ele><time>2026-04-04T02:50:03.000Z</time></trkpt>
        <trkpt lat="29.557518" lon="103.352374"><ele>1621.2072</ele><time>2026-04-04T02:50:11.000Z</time></trkpt>
        <trkpt lat="29.55747" lon="103.352394"><ele>1616.0806</ele><time>2026-04-04T02:50:19.000Z</time></trkpt>
        <trkpt lat="29.557424" lon="103.352413"><ele>1612.3401</ele><time>2026-04-04T02:50:28.000Z</time></trkpt>
        <trkpt lat="29.557376" lon="103.352431"><ele>1612.6602</ele><time>2026-04-04T02:50:32.000Z</time></trkpt>
        <trkpt lat="29.55735" lon="103.352481"><ele>1613.782</ele><time>2026-04-04T02:50:41.000Z</time></trkpt>
        <trkpt lat="29.557344" lon="103.352539"><ele>1618.1066</ele><time>2026-04-04T02:50:50.000Z</time></trkpt>
        <trkpt lat="29.557305" lon="103.352564"><ele>1616.8855</ele><time>2026-04-04T02:50:57.000Z</time></trkpt>
        <trkpt lat="29.557293" lon="103.352625"><ele>1621.9747</ele><time>2026-04-04T02:51:05.000Z</time></trkpt>
        <trkpt lat="29.557257" lon="103.352663"><ele>1622.7941</ele><time>2026-04-04T02:51:19.000Z</time></trkpt>
        <trkpt lat="29.55721" lon="103.352682"><ele>1620.7953</ele><time>2026-04-04T02:51:28.000Z</time></trkpt>
        <trkpt lat="29.557182" lon="103.352723"><ele>1622.3431</ele><time>2026-04-04T02:51:35.000Z</time></trkpt>
        <trkpt lat="29.557174" lon="103.352778"><ele>1629.8743</ele><time>2026-04-04T02:51:42.000Z</time></trkpt>
        <trkpt lat="29.557132" lon="103.352814"><ele>1632.722</ele><time>2026-04-04T02:51:48.000Z</time></trkpt>
        <trkpt lat="29.557093" lon="103.35285"><ele>1635.1304</ele><time>2026-04-04T02:51:53.000Z</time></trkpt>
        <trkpt lat="29.55705" lon="103.352868"><ele>1632.7217</ele><time>2026-04-04T02:52:00.000Z</time></trkpt>
        <trkpt lat="29.556998" lon="103.352877"><ele>1632.2925</ele><time>2026-04-04T02:52:06.000Z</time></trkpt>
        <trkpt lat="29.556962" lon="103.35291"><ele>1631.3638</ele><time>2026-04-04T02:52:14.000Z</time></trkpt>
        <trkpt lat="29.556925" lon="103.352953"><ele>1631.1415</ele><time>2026-04-04T02:52:19.000Z</time></trkpt>
        <trkpt lat="29.556899" lon="103.353006"><ele>1631.5907</ele><time>2026-04-04T02:52:26.000Z</time></trkpt>
        <trkpt lat="29.556878" lon="103.35306"><ele>1631.7487</ele><time>2026-04-04T02:52:32.000Z</time></trkpt>
        <trkpt lat="29.556836" lon="103.353093"><ele>1630.5759</ele><time>2026-04-04T02:52:38.000Z</time></trkpt>
        <trkpt lat="29.556801" lon="103.353131"><ele>1631.6448</ele><time>2026-04-04T02:52:52.000Z</time></trkpt>
        <trkpt lat="29.55675" lon="103.353146"><ele>1630.4957</ele><time>2026-04-04T02:53:02.000Z</time></trkpt>
        <trkpt lat="29.556706" lon="103.353172"><ele>1630.1692</ele><time>2026-04-04T02:53:06.000Z</time></trkpt>
        <trkpt lat="29.556665" lon="103.353202"><ele>1628.7557</ele><time>2026-04-04T02:53:11.000Z</time></trkpt>
        <trkpt lat="29.556624" lon="103.353238"><ele>1628.3892</ele><time>2026-04-04T02:53:16.000Z</time></trkpt>
        <trkpt lat="29.55659" lon="103.353273"><ele>1629.0902</ele><time>2026-04-04T02:53:21.000Z</time></trkpt>
        <trkpt lat="29.556543" lon="103.353295"><ele>1628.0453</ele><time>2026-04-04T02:53:26.000Z</time></trkpt>
        <trkpt lat="29.556498" lon="103.353321"><ele>1627.6433</ele><time>2026-04-04T02:53:31.000Z</time></trkpt>
        <trkpt lat="29.556451" lon="103.353354"><ele>1628.9735</ele><time>2026-04-04T02:53:35.000Z</time></trkpt>
        <trkpt lat="29.556415" lon="103.353388"><ele>1629.7839</ele><time>2026-04-04T02:53:38.000Z</time></trkpt>
        <trkpt lat="29.556393" lon="103.353449"><ele>1631.2511</ele><time>2026-04-04T02:53:43.000Z</time></trkpt>
        <trkpt lat="29.556359" lon="103.353497"><ele>1632.9766</ele><time>2026-04-04T02:53:48.000Z</time></trkpt>
        <trkpt lat="29.556327" lon="103.353535"><ele>1632.2266</ele><time>2026-04-04T02:53:53.000Z</time></trkpt>
        <trkpt lat="29.556298" lon="103.353574"><ele>1633.9479</ele><time>2026-04-04T02:53:57.000Z</time></trkpt>
        <trkpt lat="29.556271" lon="103.353628"><ele>1634.3424</ele><time>2026-04-04T02:54:06.000Z</time></trkpt>
        <trkpt lat="29.556234" lon="103.353681"><ele>1634.934</ele><time>2026-04-04T02:54:10.000Z</time></trkpt>
        <trkpt lat="29.556186" lon="103.353686"><ele>1638.2266</ele><time>2026-04-04T02:54:18.000Z</time></trkpt>
        <trkpt lat="29.556131" lon="103.353688"><ele>1636.6327</ele><time>2026-04-04T02:54:22.000Z</time></trkpt>
        <trkpt lat="29.556078" lon="103.353677"><ele>1636.062</ele><time>2026-04-04T02:54:26.000Z</time></trkpt>
        <trkpt lat="29.556026" lon="103.353661"><ele>1634.0162</ele><time>2026-04-04T02:54:30.000Z</time></trkpt>
        <trkpt lat="29.555976" lon="103.353659"><ele>1636.5109</ele><time>2026-04-04T02:54:33.000Z</time></trkpt>
        <trkpt lat="29.555927" lon="103.353635"><ele>1637.6641</ele><time>2026-04-04T02:54:37.000Z</time></trkpt>
        <trkpt lat="29.555879" lon="103.35362"><ele>1639.0742</ele><time>2026-04-04T02:54:41.000Z</time></trkpt>
        <trkpt lat="29.555836" lon="103.353601"><ele>1639.2659</ele><time>2026-04-04T02:54:46.000Z</time></trkpt>
        <trkpt lat="29.555786" lon="103.35359"><ele>1640.4727</ele><time>2026-04-04T02:54:49.000Z</time></trkpt>
        <trkpt lat="29.555738" lon="103.353613"><ele>1644.4945</ele><time>2026-04-04T02:54:54.000Z</time></trkpt>
        <trkpt lat="29.555688" lon="103.353613"><ele>1646.0328</ele><time>2026-04-04T02:55:00.000Z</time></trkpt>
        <trkpt lat="29.555643" lon="103.353624"><ele>1648.101</ele><time>2026-04-04T02:55:10.000Z</time></trkpt>
        <trkpt lat="29.555614" lon="103.353664"><ele>1651.2205</ele><time>2026-04-04T02:55:15.000Z</time></trkpt>
        <trkpt lat="29.555564" lon="103.353673"><ele>1651.6123</ele><time>2026-04-04T02:55:20.000Z</time></trkpt>
        <trkpt lat="29.555503" lon="103.353693"><ele>1655.6522</ele><time>2026-04-04T02:55:25.000Z</time></trkpt>
        <trkpt lat="29.555454" lon="103.353681"><ele>1655.6173</ele><time>2026-04-04T02:55:29.000Z</time></trkpt>
        <trkpt lat="29.555408" lon="103.353675"><ele>1654.9735</ele><time>2026-04-04T02:55:33.000Z</time></trkpt>
        <trkpt lat="29.555355" lon="103.353703"><ele>1657.2712</ele><time>2026-04-04T02:55:37.000Z</time></trkpt>
        <trkpt lat="29.555316" lon="103.353739"><ele>1658.7599</ele><time>2026-04-04T02:55:42.000Z</time></trkpt>
        <trkpt lat="29.555291" lon="103.353783"><ele>1664.1483</ele><time>2026-04-04T02:55:48.000Z</time></trkpt>
        <trkpt lat="29.555255" lon="103.353819"><ele>1668.2124</ele><time>2026-04-04T02:55:55.000Z</time></trkpt>
        <trkpt lat="29.555208" lon="103.353845"><ele>1671.9077</ele><time>2026-04-04T02:56:03.000Z</time></trkpt>
        <trkpt lat="29.555174" lon="103.353896"><ele>1677.082</ele><time>2026-04-04T02:56:13.000Z</time></trkpt>
        <trkpt lat="29.555133" lon="103.353927"><ele>1679.2585</ele><time>2026-04-04T02:56:23.000Z</time></trkpt>
        <trkpt lat="29.555088" lon="103.353945"><ele>1675.4132</ele><time>2026-04-04T02:56:36.000Z</time></trkpt>
        <trkpt lat="29.555066" lon="103.35399"><ele>1676.1097</ele><time>2026-04-04T02:56:45.000Z</time></trkpt>
        <trkpt lat="29.555018" lon="103.35401"><ele>1673.5646</ele><time>2026-04-04T02:56:52.000Z</time></trkpt>
        <trkpt lat="29.554978" lon="103.35398"><ele>1669.13</ele><time>2026-04-04T02:56:55.000Z</time></trkpt>
        <trkpt lat="29.554941" lon="103.35401"><ele>1670.2579</ele><time>2026-04-04T02:57:00.000Z</time></trkpt>
        <trkpt lat="29.554891" lon="103.353983"><ele>1669.9813</ele><time>2026-04-04T02:57:06.000Z</time></trkpt>
        <trkpt lat="29.554836" lon="103.353973"><ele>1670.5461</ele><time>2026-04-04T02:57:10.000Z</time></trkpt>
        <trkpt lat="29.554786" lon="103.353986"><ele>1671.5955</ele><time>2026-04-04T02:57:15.000Z</time></trkpt>
        <trkpt lat="29.554743" lon="103.353957"><ele>1672.4578</ele><time>2026-04-04T02:57:20.000Z</time></trkpt>
        <trkpt lat="29.554733" lon="103.353898"><ele>1671.1593</ele><time>2026-04-04T02:57:24.000Z</time></trkpt>
        <trkpt lat="29.554711" lon="103.353841"><ele>1677.4291</ele><time>2026-04-04T02:57:30.000Z</time></trkpt>
        <trkpt lat="29.554706" lon="103.353775"><ele>1676.4929</ele><time>2026-04-04T02:57:34.000Z</time></trkpt>
        <trkpt lat="29.554706" lon="103.35372"><ele>1677.4833</ele><time>2026-04-04T02:57:38.000Z</time></trkpt>
        <trkpt lat="29.554701" lon="103.353667"><ele>1681.0616</ele><time>2026-04-04T02:57:42.000Z</time></trkpt>
        <trkpt lat="29.554679" lon="103.353617"><ele>1683.594</ele><time>2026-04-04T02:57:46.000Z</time></trkpt>
        <trkpt lat="29.55464" lon="103.353581"><ele>1690.584</ele><time>2026-04-04T02:57:56.000Z</time></trkpt>
        <trkpt lat="29.554591" lon="103.353582"><ele>1690.1473</ele><time>2026-04-04T02:58:03.000Z</time></trkpt>
        <trkpt lat="29.554546" lon="103.353574"><ele>1687.5447</ele><time>2026-04-04T02:58:10.000Z</time></trkpt>
        <trkpt lat="29.554501" lon="103.353571"><ele>1688.5532</ele><time>2026-04-04T02:58:15.000Z</time></trkpt>
        <trkpt lat="29.554505" lon="103.353506"><ele>1685.4996</ele><time>2026-04-04T02:58:18.000Z</time></trkpt>
        <trkpt lat="29.554504" lon="103.353447"><ele>1681.4012</ele><time>2026-04-04T02:58:21.000Z</time></trkpt>
        <trkpt lat="29.55451" lon="103.353385"><ele>1676.9507</ele><time>2026-04-04T02:58:25.000Z</time></trkpt>
        <trkpt lat="29.554508" lon="103.353315"><ele>1672.6652</ele><time>2026-04-04T02:58:28.000Z</time></trkpt>
        <trkpt lat="29.554502" lon="103.353263"><ele>1669.8434</ele><time>2026-04-04T02:58:31.000Z</time></trkpt>
        <trkpt lat="29.554502" lon="103.353202"><ele>1668.1897</ele><time>2026-04-04T02:58:35.000Z</time></trkpt>
        <trkpt lat="29.554499" lon="103.353146"><ele>1664.5713</ele><time>2026-04-04T02:58:40.000Z</time></trkpt>
        <trkpt lat="29.554484" lon="103.353096"><ele>1661.4814</ele><time>2026-04-04T02:58:46.000Z</time></trkpt>
        <trkpt lat="29.554439" lon="103.353067"><ele>1659.5815</ele><time>2026-04-04T02:58:50.000Z</time></trkpt>
        <trkpt lat="29.554398" lon="103.35304"><ele>1657.1864</ele><time>2026-04-04T02:58:54.000Z</time></trkpt>
        <trkpt lat="29.554344" lon="103.353011"><ele>1655.9316</ele><time>2026-04-04T02:59:00.000Z</time></trkpt>
        <trkpt lat="29.554299" lon="103.353005"><ele>1656.6918</ele><time>2026-04-04T02:59:03.000Z</time></trkpt>
        <trkpt lat="29.55425" lon="103.352974"><ele>1651.728</ele><time>2026-04-04T02:59:11.000Z</time></trkpt>
        <trkpt lat="29.55421" lon="103.352945"><ele>1651.0209</ele><time>2026-04-04T02:59:15.000Z</time></trkpt>
        <trkpt lat="29.554162" lon="103.352939"><ele>1649.0271</ele><time>2026-04-04T02:59:22.000Z</time></trkpt>
        <trkpt lat="29.554114" lon="103.352935"><ele>1648.9296</ele><time>2026-04-04T02:59:29.000Z</time></trkpt>
        <trkpt lat="29.554069" lon="103.352933"><ele>1646.6313</ele><time>2026-04-04T02:59:33.000Z</time></trkpt>
        <trkpt lat="29.55402" lon="103.352917"><ele>1644.3754</ele><time>2026-04-04T02:59:38.000Z</time></trkpt>
        <trkpt lat="29.553992" lon="103.352851"><ele>1642.238</ele><time>2026-04-04T02:59:44.000Z</time></trkpt>
        <trkpt lat="29.553948" lon="103.352837"><ele>1643.8693</ele><time>2026-04-04T02:59:50.000Z</time></trkpt>
        <trkpt lat="29.553906" lon="103.352807"><ele>1644.9369</ele><time>2026-04-04T02:59:56.000Z</time></trkpt>
        <trkpt lat="29.55387" lon="103.352769"><ele>1641.0126</ele><time>2026-04-04T02:59:59.000Z</time></trkpt>
        <trkpt lat="29.55382" lon="103.352789"><ele>1640.4209</ele><time>2026-04-04T03:00:04.000Z</time></trkpt>
        <trkpt lat="29.553775" lon="103.352797"><ele>1637.8083</ele><time>2026-04-04T03:00:07.000Z</time></trkpt>
        <trkpt lat="29.553728" lon="103.352807"><ele>1638.1459</ele><time>2026-04-04T03:00:10.000Z</time></trkpt>
        <trkpt lat="29.55368" lon="103.352811"><ele>1637.118</ele><time>2026-04-04T03:00:13.000Z</time></trkpt>
        <trkpt lat="29.553626" lon="103.352808"><ele>1636.4185</ele><time>2026-04-04T03:00:16.000Z</time></trkpt>
        <trkpt lat="29.553579" lon="103.352828"><ele>1636.8549</ele><time>2026-04-04T03:00:20.000Z</time></trkpt>
        <trkpt lat="29.553531" lon="103.352823"><ele>1637.5627</ele><time>2026-04-04T03:00:27.000Z</time></trkpt>
        <trkpt lat="29.553489" lon="103.352848"><ele>1640.1194</ele><time>2026-04-04T03:00:34.000Z</time></trkpt>
        <trkpt lat="29.553449" lon="103.352879"><ele>1642.7672</ele><time>2026-04-04T03:00:40.000Z</time></trkpt>
        <trkpt lat="29.553406" lon="103.352901"><ele>1641.9984</ele><time>2026-04-04T03:00:44.000Z</time></trkpt>
        <trkpt lat="29.553356" lon="103.35291"><ele>1642.0596</ele><time>2026-04-04T03:00:48.000Z</time></trkpt>
        <trkpt lat="29.553298" lon="103.35292"><ele>1642.8312</ele><time>2026-04-04T03:00:53.000Z</time></trkpt>
        <trkpt lat="29.553242" lon="103.352912"><ele>1641.7034</ele><time>2026-04-04T03:00:58.000Z</time></trkpt>
        <trkpt lat="29.55319" lon="103.352915"><ele>1642.3181</ele><time>2026-04-04T03:01:04.000Z</time></trkpt>
        <trkpt lat="29.553143" lon="103.352902"><ele>1640.9197</ele><time>2026-04-04T03:01:08.000Z</time></trkpt>
        <trkpt lat="29.553105" lon="103.352856"><ele>1642.2512</ele><time>2026-04-04T03:01:18.000Z</time></trkpt>
        <trkpt lat="29.553103" lon="103.352795"><ele>1642.3839</ele><time>2026-04-04T03:01:28.000Z</time></trkpt>
        <trkpt lat="29.55305" lon="103.352757"><ele>1642.749</ele><time>2026-04-04T03:01:32.000Z</time></trkpt>
        <trkpt lat="29.552999" lon="103.352765"><ele>1643.4464</ele><time>2026-04-04T03:01:35.000Z</time></trkpt>
        <trkpt lat="29.552967" lon="103.352729"><ele>1639.7987</ele><time>2026-04-04T03:01:39.000Z</time></trkpt>
        <trkpt lat="29.552933" lon="103.352689"><ele>1639.3435</ele><time>2026-04-04T03:01:43.000Z</time></trkpt>
        <trkpt lat="29.552885" lon="103.352655"><ele>1637.2635</ele><time>2026-04-04T03:01:47.000Z</time></trkpt>
        <trkpt lat="29.552827" lon="103.352663"><ele>1638.0911</ele><time>2026-04-04T03:01:53.000Z</time></trkpt>
        <trkpt lat="29.552783" lon="103.352636"><ele>1636.2467</ele><time>2026-04-04T03:01:58.000Z</time></trkpt>
        <trkpt lat="29.55275" lon="103.352598"><ele>1637.7253</ele><time>2026-04-04T03:02:03.000Z</time></trkpt>
        <trkpt lat="29.552704" lon="103.352583"><ele>1632.3375</ele><time>2026-04-04T03:02:07.000Z</time></trkpt>
        <trkpt lat="29.552671" lon="103.352626"><ele>1630.3882</ele><time>2026-04-04T03:02:13.000Z</time></trkpt>
        <trkpt lat="29.552631" lon="103.352671"><ele>1628.6526</ele><time>2026-04-04T03:02:18.000Z</time></trkpt>
        <trkpt lat="29.552583" lon="103.352637"><ele>1625.1464</ele><time>2026-04-04T03:02:24.000Z</time></trkpt>
        <trkpt lat="29.55256" lon="103.352586"><ele>1623.4098</ele><time>2026-04-04T03:02:29.000Z</time></trkpt>
        <trkpt lat="29.55252" lon="103.352547"><ele>1625.7096</ele><time>2026-04-04T03:02:40.000Z</time></trkpt>
        <trkpt lat="29.552474" lon="103.35255"><ele>1625.0684</ele><time>2026-04-04T03:02:43.000Z</time></trkpt>
        <trkpt lat="29.552427" lon="103.352534"><ele>1626.3772</ele><time>2026-04-04T03:02:48.000Z</time></trkpt>
        <trkpt lat="29.55238" lon="103.352548"><ele>1624.834</ele><time>2026-04-04T03:02:52.000Z</time></trkpt>
        <trkpt lat="29.552325" lon="103.352531"><ele>1622.2704</ele><time>2026-04-04T03:02:56.000Z</time></trkpt>
        <trkpt lat="29.552302" lon="103.352479"><ele>1617.9886</ele><time>2026-04-04T03:03:01.000Z</time></trkpt>
        <trkpt lat="29.552255" lon="103.352448"><ele>1606.19</ele><time>2026-04-04T03:03:13.000Z</time></trkpt>
        <trkpt lat="29.552216" lon="103.35248"><ele>1608.9229</ele><time>2026-04-04T03:03:18.000Z</time></trkpt>
        <trkpt lat="29.552174" lon="103.352522"><ele>1610.6768</ele><time>2026-04-04T03:03:22.000Z</time></trkpt>
        <trkpt lat="29.552139" lon="103.352569"><ele>1613.373</ele><time>2026-04-04T03:03:28.000Z</time></trkpt>
        <trkpt lat="29.552126" lon="103.352621"><ele>1614.4166</ele><time>2026-04-04T03:03:44.000Z</time></trkpt>
        <trkpt lat="29.552101" lon="103.352676"><ele>1615.9414</ele><time>2026-04-04T03:03:56.000Z</time></trkpt>
        <trkpt lat="29.552112" lon="103.35273"><ele>1624.3516</ele><time>2026-04-04T03:04:07.000Z</time></trkpt>
        <trkpt lat="29.552156" lon="103.352758"><ele>1625.8904</ele><time>2026-04-04T03:04:12.000Z</time></trkpt>
        <trkpt lat="29.552203" lon="103.352773"><ele>1624.0803</ele><time>2026-04-04T03:04:26.000Z</time></trkpt>
        <trkpt lat="29.552191" lon="103.352826"><ele>1624.7819</ele><time>2026-04-04T03:04:34.000Z</time></trkpt>
        <trkpt lat="29.552218" lon="103.352871"><ele>1627.2089</ele><time>2026-04-04T03:04:41.000Z</time></trkpt>
        <trkpt lat="29.552176" lon="103.352893"><ele>1631.1696</ele><time>2026-04-04T03:05:26.000Z</time></trkpt>
        <trkpt lat="29.552129" lon="103.352894"><ele>1636.2073</ele><time>2026-04-04T03:05:40.000Z</time></trkpt>
        <trkpt lat="29.552091" lon="103.352859"><ele>1637.5153</ele><time>2026-04-04T03:05:50.000Z</time></trkpt>
        <trkpt lat="29.552045" lon="103.352854"><ele>1640.0758</ele><time>2026-04-04T03:05:59.000Z</time></trkpt>
        <trkpt lat="29.551994" lon="103.352854"><ele>1645.506</ele><time>2026-04-04T03:06:09.000Z</time></trkpt>
        <trkpt lat="29.551954" lon="103.35289"><ele>1650.3302</ele><time>2026-04-04T03:06:34.000Z</time></trkpt>
        <trkpt lat="29.551913" lon="103.352911"><ele>1651.84</ele><time>2026-04-04T03:06:41.000Z</time></trkpt>
        <trkpt lat="29.551888" lon="103.352977"><ele>1657.9668</ele><time>2026-04-04T03:06:53.000Z</time></trkpt>
        <trkpt lat="29.551882" lon="103.353033"><ele>1662.3987</ele><time>2026-04-04T03:07:01.000Z</time></trkpt>
        <trkpt lat="29.551853" lon="103.353085"><ele>1662.2654</ele><time>2026-04-04T03:07:10.000Z</time></trkpt>
        <trkpt lat="29.551819" lon="103.353124"><ele>1658.0016</ele><time>2026-04-04T03:07:25.000Z</time></trkpt>
        <trkpt lat="29.551802" lon="103.353176"><ele>1661.2849</ele><time>2026-04-04T03:07:30.000Z</time></trkpt>
        <trkpt lat="29.551789" lon="103.353238"><ele>1660.9557</ele><time>2026-04-04T03:07:38.000Z</time></trkpt>
        <trkpt lat="29.551774" lon="103.353291"><ele>1660.7982</ele><time>2026-04-04T03:07:44.000Z</time></trkpt>
        <trkpt lat="29.551753" lon="103.353344"><ele>1659.4386</ele><time>2026-04-04T03:07:51.000Z</time></trkpt>
        <trkpt lat="29.551753" lon="103.353401"><ele>1660.8774</ele><time>2026-04-04T03:07:58.000Z</time></trkpt>
        <trkpt lat="29.551738" lon="103.353455"><ele>1666.4047</ele><time>2026-04-04T03:08:04.000Z</time></trkpt>
        <trkpt lat="29.551722" lon="103.353507"><ele>1664.7588</ele><time>2026-04-04T03:08:09.000Z</time></trkpt>
        <trkpt lat="29.551716" lon="103.353558"><ele>1668.3387</ele><time>2026-04-04T03:08:12.000Z</time></trkpt>
        <trkpt lat="29.55169" lon="103.353608"><ele>1668.5826</ele><time>2026-04-04T03:08:18.000Z</time></trkpt>
        <trkpt lat="29.551682" lon="103.353662"><ele>1669.6558</ele><time>2026-04-04T03:08:22.000Z</time></trkpt>
        <trkpt lat="29.551698" lon="103.353716"><ele>1668.8213</ele><time>2026-04-04T03:08:30.000Z</time></trkpt>
        <trkpt lat="29.551695" lon="103.353785"><ele>1668.1635</ele><time>2026-04-04T03:08:35.000Z</time></trkpt>
        <trkpt lat="29.551699" lon="103.35384"><ele>1664.5679</ele><time>2026-04-04T03:08:39.000Z</time></trkpt>
        <trkpt lat="29.551741" lon="103.353881"><ele>1665.9592</ele><time>2026-04-04T03:08:44.000Z</time></trkpt>
        <trkpt lat="29.55179" lon="103.353891"><ele>1665.7219</ele><time>2026-04-04T03:08:50.000Z</time></trkpt>
        <trkpt lat="29.551793" lon="103.353945"><ele>1665.7029</ele><time>2026-04-04T03:08:55.000Z</time></trkpt>
        <trkpt lat="29.551813" lon="103.354004"><ele>1667.2086</ele><time>2026-04-04T03:09:00.000Z</time></trkpt>
        <trkpt lat="29.551859" lon="103.354026"><ele>1668.3326</ele><time>2026-04-04T03:09:04.000Z</time></trkpt>
        <trkpt lat="29.551902" lon="103.354042"><ele>1664.83</ele><time>2026-04-04T03:09:09.000Z</time></trkpt>
        <trkpt lat="29.551951" lon="103.354081"><ele>1669.4883</ele><time>2026-04-04T03:09:12.000Z</time></trkpt>
        <trkpt lat="29.551963" lon="103.354135"><ele>1682.8828</ele><time>2026-04-04T03:09:35.000Z</time></trkpt>
        <trkpt lat="29.551987" lon="103.354183"><ele>1689.5316</ele><time>2026-04-04T03:09:40.000Z</time></trkpt>
        <trkpt lat="29.551987" lon="103.354251"><ele>1691.0432</ele><time>2026-04-04T03:09:46.000Z</time></trkpt>
        <trkpt lat="29.551956" lon="103.354293"><ele>1689.6827</ele><time>2026-04-04T03:09:53.000Z</time></trkpt>
        <trkpt lat="29.551923" lon="103.354336"><ele>1691.6567</ele><time>2026-04-04T03:10:00.000Z</time></trkpt>
        <trkpt lat="29.551895" lon="103.354386"><ele>1692.4021</ele><time>2026-04-04T03:10:04.000Z</time></trkpt>
        <trkpt lat="29.55189" lon="103.354438"><ele>1691.6516</ele><time>2026-04-04T03:10:09.000Z</time></trkpt>
        <trkpt lat="29.551907" lon="103.354489"><ele>1690.0088</ele><time>2026-04-04T03:10:17.000Z</time></trkpt>
        <trkpt lat="29.551876" lon="103.354528"><ele>1677.4916</ele><time>2026-04-04T03:10:26.000Z</time></trkpt>
        <trkpt lat="29.551853" lon="103.354574"><ele>1680.4777</ele><time>2026-04-04T03:10:32.000Z</time></trkpt>
        <trkpt lat="29.551814" lon="103.354612"><ele>1685.3274</ele><time>2026-04-04T03:10:37.000Z</time></trkpt>
        <trkpt lat="29.551784" lon="103.354658"><ele>1686.2938</ele><time>2026-04-04T03:10:44.000Z</time></trkpt>
        <trkpt lat="29.551749" lon="103.354691"><ele>1686.9109</ele><time>2026-04-04T03:10:49.000Z</time></trkpt>
        <trkpt lat="29.551722" lon="103.354732"><ele>1688.7532</ele><time>2026-04-04T03:10:54.000Z</time></trkpt>
        <trkpt lat="29.551692" lon="103.354775"><ele>1689.774</ele><time>2026-04-04T03:10:58.000Z</time></trkpt>
        <trkpt lat="29.551663" lon="103.354822"><ele>1686.5718</ele><time>2026-04-04T03:11:04.000Z</time></trkpt>
        <trkpt lat="29.551636" lon="103.354875"><ele>1688.4689</ele><time>2026-04-04T03:11:12.000Z</time></trkpt>
        <trkpt lat="29.551613" lon="103.35492"><ele>1688.2189</ele><time>2026-04-04T03:11:17.000Z</time></trkpt>
        <trkpt lat="29.551599" lon="103.354976"><ele>1689.2079</ele><time>2026-04-04T03:11:23.000Z</time></trkpt>
        <trkpt lat="29.551564" lon="103.355015"><ele>1687.2568</ele><time>2026-04-04T03:11:27.000Z</time></trkpt>
        <trkpt lat="29.551542" lon="103.355071"><ele>1686.6646</ele><time>2026-04-04T03:11:33.000Z</time></trkpt>
        <trkpt lat="29.551515" lon="103.355114"><ele>1688.8484</ele><time>2026-04-04T03:11:38.000Z</time></trkpt>
        <trkpt lat="29.551497" lon="103.355168"><ele>1692.9684</ele><time>2026-04-04T03:11:45.000Z</time></trkpt>
        <trkpt lat="29.551472" lon="103.355213"><ele>1691.5112</ele><time>2026-04-04T03:11:50.000Z</time></trkpt>
        <trkpt lat="29.551445" lon="103.355255"><ele>1692.121</ele><time>2026-04-04T03:11:58.000Z</time></trkpt>
        <trkpt lat="29.551432" lon="103.355308"><ele>1691.6115</ele><time>2026-04-04T03:12:10.000Z</time></trkpt>
        <trkpt lat="29.551414" lon="103.355357"><ele>1697.767</ele><time>2026-04-04T03:12:16.000Z</time></trkpt>
        <trkpt lat="29.551392" lon="103.355406"><ele>1696.3118</ele><time>2026-04-04T03:12:24.000Z</time></trkpt>
        <trkpt lat="29.551348" lon="103.355425"><ele>1695.6987</ele><time>2026-04-04T03:12:30.000Z</time></trkpt>
        <trkpt lat="29.551313" lon="103.355464"><ele>1696.56</ele><time>2026-04-04T03:12:42.000Z</time></trkpt>
        <trkpt lat="29.55129" lon="103.355513"><ele>1697.6958</ele><time>2026-04-04T03:12:51.000Z</time></trkpt>
        <trkpt lat="29.551267" lon="103.35556"><ele>1703.8632</ele><time>2026-04-04T03:13:01.000Z</time></trkpt>
        <trkpt lat="29.551225" lon="103.355582"><ele>1707.4171</ele><time>2026-04-04T03:13:16.000Z</time></trkpt>
        <trkpt lat="29.551179" lon="103.355605"><ele>1709.82</ele><time>2026-04-04T03:13:23.000Z</time></trkpt>
        <trkpt lat="29.551137" lon="103.355627"><ele>1709.8304</ele><time>2026-04-04T03:13:30.000Z</time></trkpt>
        <trkpt lat="29.551092" lon="103.355649"><ele>1710.0231</ele><time>2026-04-04T03:13:38.000Z</time></trkpt>
        <trkpt lat="29.55105" lon="103.355678"><ele>1712.3518</ele><time>2026-04-04T03:13:44.000Z</time></trkpt>
        <trkpt lat="29.550999" lon="103.3557"><ele>1712.4575</ele><time>2026-04-04T03:13:51.000Z</time></trkpt>
        <trkpt lat="29.550954" lon="103.355724"><ele>1712.0265</ele><time>2026-04-04T03:13:56.000Z</time></trkpt>
        <trkpt lat="29.550911" lon="103.355764"><ele>1716.2874</ele><time>2026-04-04T03:14:02.000Z</time></trkpt>
        <trkpt lat="29.550854" lon="103.355782"><ele>1714.9701</ele><time>2026-04-04T03:14:08.000Z</time></trkpt>
        <trkpt lat="29.55081" lon="103.355798"><ele>1714.4967</ele><time>2026-04-04T03:14:14.000Z</time></trkpt>
        <trkpt lat="29.550758" lon="103.355817"><ele>1715.3423</ele><time>2026-04-04T03:14:20.000Z</time></trkpt>
        <trkpt lat="29.550708" lon="103.355816"><ele>1717.0249</ele><time>2026-04-04T03:14:27.000Z</time></trkpt>
        <trkpt lat="29.550653" lon="103.355819"><ele>1719.1271</ele><time>2026-04-04T03:14:34.000Z</time></trkpt>
        <trkpt lat="29.550597" lon="103.355814"><ele>1714.9545</ele><time>2026-04-04T03:14:41.000Z</time></trkpt>
        <trkpt lat="29.550544" lon="103.355795"><ele>1716.3262</ele><time>2026-04-04T03:14:47.000Z</time></trkpt>
        <trkpt lat="29.550493" lon="103.355804"><ele>1717.6937</ele><time>2026-04-04T03:14:54.000Z</time></trkpt>
        <trkpt lat="29.550443" lon="103.355821"><ele>1715.3481</ele><time>2026-04-04T03:14:59.000Z</time></trkpt>
        <trkpt lat="29.55039" lon="103.355818"><ele>1714.4744</ele><time>2026-04-04T03:15:04.000Z</time></trkpt>
        <trkpt lat="29.550356" lon="103.355852"><ele>1713.7246</ele><time>2026-04-04T03:15:11.000Z</time></trkpt>
        <trkpt lat="29.55033" lon="103.355896"><ele>1712.5627</ele><time>2026-04-04T03:15:17.000Z</time></trkpt>
        <trkpt lat="29.550308" lon="103.35595"><ele>1720.5896</ele><time>2026-04-04T03:15:26.000Z</time></trkpt>
        <trkpt lat="29.550298" lon="103.356007"><ele>1723.2727</ele><time>2026-04-04T03:15:32.000Z</time></trkpt>
        <trkpt lat="29.550287" lon="103.356064"><ele>1725.412</ele><time>2026-04-04T03:15:37.000Z</time></trkpt>
        <trkpt lat="29.550278" lon="103.356122"><ele>1727.0485</ele><time>2026-04-04T03:15:43.000Z</time></trkpt>
        <trkpt lat="29.550265" lon="103.356175"><ele>1727.2805</ele><time>2026-04-04T03:15:49.000Z</time></trkpt>
        <trkpt lat="29.550247" lon="103.356237"><ele>1730.6259</ele><time>2026-04-04T03:15:56.000Z</time></trkpt>
        <trkpt lat="29.550246" lon="103.356294"><ele>1734.3652</ele><time>2026-04-04T03:16:03.000Z</time></trkpt>
        <trkpt lat="29.550217" lon="103.356336"><ele>1734.3954</ele><time>2026-04-04T03:16:07.000Z</time></trkpt>
        <trkpt lat="29.550183" lon="103.35638"><ele>1736.2468</ele><time>2026-04-04T03:16:12.000Z</time></trkpt>
        <trkpt lat="29.550145" lon="103.356424"><ele>1735.6614</ele><time>2026-04-04T03:16:21.000Z</time></trkpt>
        <trkpt lat="29.550104" lon="103.356448"><ele>1737.2738</ele><time>2026-04-04T03:16:25.000Z</time></trkpt>
        <trkpt lat="29.550088" lon="103.356512"><ele>1739.1003</ele><time>2026-04-04T03:16:30.000Z</time></trkpt>
        <trkpt lat="29.550066" lon="103.356561"><ele>1739.234</ele><time>2026-04-04T03:16:35.000Z</time></trkpt>
        <trkpt lat="29.550051" lon="103.356614"><ele>1742.3533</ele><time>2026-04-04T03:16:41.000Z</time></trkpt>
        <trkpt lat="29.550054" lon="103.356667"><ele>1744.2249</ele><time>2026-04-04T03:16:47.000Z</time></trkpt>
        <trkpt lat="29.55007" lon="103.35673"><ele>1744.2914</ele><time>2026-04-04T03:16:52.000Z</time></trkpt>
        <trkpt lat="29.55007" lon="103.356789"><ele>1744.0695</ele><time>2026-04-04T03:16:57.000Z</time></trkpt>
        <trkpt lat="29.550072" lon="103.356847"><ele>1743.914</ele><time>2026-04-04T03:17:01.000Z</time></trkpt>
        <trkpt lat="29.550072" lon="103.356912"><ele>1741.3955</ele><time>2026-04-04T03:17:12.000Z</time></trkpt>
        <trkpt lat="29.550072" lon="103.356965"><ele>1743.0709</ele><time>2026-04-04T03:17:15.000Z</time></trkpt>
        <trkpt lat="29.550059" lon="103.357015"><ele>1743.2214</ele><time>2026-04-04T03:17:20.000Z</time></trkpt>
        <trkpt lat="29.550095" lon="103.357059"><ele>1743.6803</ele><time>2026-04-04T03:17:25.000Z</time></trkpt>
        <trkpt lat="29.550137" lon="103.35708"><ele>1743.0747</ele><time>2026-04-04T03:17:34.000Z</time></trkpt>
        <trkpt lat="29.550181" lon="103.357101"><ele>1749.5076</ele><time>2026-04-04T03:18:20.000Z</time></trkpt>
        <trkpt lat="29.550227" lon="103.357106"><ele>1749.2338</ele><time>2026-04-04T03:18:27.000Z</time></trkpt>
        <trkpt lat="29.550277" lon="103.357102"><ele>1747.5979</ele><time>2026-04-04T03:18:34.000Z</time></trkpt>
        <trkpt lat="29.550323" lon="103.35711"><ele>1748.0806</ele><time>2026-04-04T03:18:37.000Z</time></trkpt>
        <trkpt lat="29.550373" lon="103.357103"><ele>1745.5752</ele><time>2026-04-04T03:18:42.000Z</time></trkpt>
        <trkpt lat="29.550417" lon="103.357139"><ele>1743.1144</ele><time>2026-04-04T03:18:48.000Z</time></trkpt>
        <trkpt lat="29.550449" lon="103.357176"><ele>1740.7742</ele><time>2026-04-04T03:19:02.000Z</time></trkpt>
        <trkpt lat="29.550456" lon="103.357233"><ele>1739.1777</ele><time>2026-04-04T03:19:10.000Z</time></trkpt>
        <trkpt lat="29.550495" lon="103.357206"><ele>1743.4507</ele><time>2026-04-04T03:21:31.000Z</time></trkpt>
        <trkpt lat="29.550514" lon="103.357253"><ele>1742.6543</ele><time>2026-04-04T03:24:53.000Z</time></trkpt>
        <trkpt lat="29.550489" lon="103.357304"><ele>1738.7397</ele><time>2026-04-04T03:25:23.000Z</time></trkpt>
        <trkpt lat="29.550491" lon="103.357361"><ele>1735.5604</ele><time>2026-04-04T03:25:30.000Z</time></trkpt>
        <trkpt lat="29.55047" lon="103.357411"><ele>1733.4435</ele><time>2026-04-04T03:25:34.000Z</time></trkpt>
        <trkpt lat="29.550451" lon="103.357463"><ele>1727.471</ele><time>2026-04-04T03:25:42.000Z</time></trkpt>
        <trkpt lat="29.550437" lon="103.35752"><ele>1725.2487</ele><time>2026-04-04T03:25:47.000Z</time></trkpt>
        <trkpt lat="29.550446" lon="103.357581"><ele>1724.9021</ele><time>2026-04-04T03:25:51.000Z</time></trkpt>
        <trkpt lat="29.550439" lon="103.357632"><ele>1722.2383</ele><time>2026-04-04T03:25:55.000Z</time></trkpt>
        <trkpt lat="29.550439" lon="103.357697"><ele>1719.9586</ele><time>2026-04-04T03:25:59.000Z</time></trkpt>
        <trkpt lat="29.550439" lon="103.357756"><ele>1718.2845</ele><time>2026-04-04T03:26:03.000Z</time></trkpt>
        <trkpt lat="29.55046" lon="103.357824"><ele>1719.8195</ele><time>2026-04-04T03:26:07.000Z</time></trkpt>
        <trkpt lat="29.550458" lon="103.357877"><ele>1718.9541</ele><time>2026-04-04T03:26:12.000Z</time></trkpt>
        <trkpt lat="29.550438" lon="103.357935"><ele>1718.9136</ele><time>2026-04-04T03:26:17.000Z</time></trkpt>
        <trkpt lat="29.550413" lon="103.357989"><ele>1719.591</ele><time>2026-04-04T03:26:22.000Z</time></trkpt>
        <trkpt lat="29.550412" lon="103.358047"><ele>1721.5845</ele><time>2026-04-04T03:26:27.000Z</time></trkpt>
        <trkpt lat="29.550396" lon="103.358113"><ele>1718.8284</ele><time>2026-04-04T03:26:32.000Z</time></trkpt>
        <trkpt lat="29.550369" lon="103.358168"><ele>1716.4988</ele><time>2026-04-04T03:26:36.000Z</time></trkpt>
        <trkpt lat="29.550338" lon="103.358215"><ele>1714.1643</ele><time>2026-04-04T03:26:39.000Z</time></trkpt>
        <trkpt lat="29.550313" lon="103.358263"><ele>1711.877</ele><time>2026-04-04T03:26:44.000Z</time></trkpt>
        <trkpt lat="29.550331" lon="103.358328"><ele>1710.5002</ele><time>2026-04-04T03:26:48.000Z</time></trkpt>
        <trkpt lat="29.550349" lon="103.358381"><ele>1708.0897</ele><time>2026-04-04T03:26:52.000Z</time></trkpt>
        <trkpt lat="29.550353" lon="103.358437"><ele>1704.8645</ele><time>2026-04-04T03:26:56.000Z</time></trkpt>
        <trkpt lat="29.55038" lon="103.358489"><ele>1703.0978</ele><time>2026-04-04T03:27:00.000Z</time></trkpt>
        <trkpt lat="29.550362" lon="103.358538"><ele>1701.7231</ele><time>2026-04-04T03:27:07.000Z</time></trkpt>
        <trkpt lat="29.550345" lon="103.358587"><ele>1703.4707</ele><time>2026-04-04T03:27:14.000Z</time></trkpt>
        <trkpt lat="29.550331" lon="103.358637"><ele>1704.265</ele><time>2026-04-04T03:27:22.000Z</time></trkpt>
        <trkpt lat="29.550315" lon="103.358693"><ele>1702.9374</ele><time>2026-04-04T03:27:27.000Z</time></trkpt>
        <trkpt lat="29.550298" lon="103.358742"><ele>1700.6401</ele><time>2026-04-04T03:27:32.000Z</time></trkpt>
        <trkpt lat="29.550307" lon="103.3588"><ele>1701.303</ele><time>2026-04-04T03:27:37.000Z</time></trkpt>
        <trkpt lat="29.55031" lon="103.358867"><ele>1696.9321</ele><time>2026-04-04T03:27:42.000Z</time></trkpt>
        <trkpt lat="29.550315" lon="103.358919"><ele>1695.2571</ele><time>2026-04-04T03:27:49.000Z</time></trkpt>
        <trkpt lat="29.550302" lon="103.358971"><ele>1694.1171</ele><time>2026-04-04T03:27:54.000Z</time></trkpt>
        <trkpt lat="29.550316" lon="103.359024"><ele>1692.2034</ele><time>2026-04-04T03:28:00.000Z</time></trkpt>
        <trkpt lat="29.550331" lon="103.359085"><ele>1689.8309</ele><time>2026-04-04T03:28:07.000Z</time></trkpt>
        <trkpt lat="29.550311" lon="103.359132"><ele>1685.9246</ele><time>2026-04-04T03:28:13.000Z</time></trkpt>
        <trkpt lat="29.550277" lon="103.359171"><ele>1684.4719</ele><time>2026-04-04T03:28:18.000Z</time></trkpt>
        <trkpt lat="29.550228" lon="103.359179"><ele>1687.1605</ele><time>2026-04-04T03:28:23.000Z</time></trkpt>
        <trkpt lat="29.550182" lon="103.359218"><ele>1690.0846</ele><time>2026-04-04T03:28:28.000Z</time></trkpt>
        <trkpt lat="29.550156" lon="103.359261"><ele>1692.6295</ele><time>2026-04-04T03:28:31.000Z</time></trkpt>
        <trkpt lat="29.55013" lon="103.359312"><ele>1693.0593</ele><time>2026-04-04T03:28:34.000Z</time></trkpt>
        <trkpt lat="29.550096" lon="103.359373"><ele>1694.5106</ele><time>2026-04-04T03:28:38.000Z</time></trkpt>
        <trkpt lat="29.550063" lon="103.359417"><ele>1694.6989</ele><time>2026-04-04T03:28:44.000Z</time></trkpt>
        <trkpt lat="29.550039" lon="103.359468"><ele>1696.664</ele><time>2026-04-04T03:28:48.000Z</time></trkpt>
        <trkpt lat="29.550001" lon="103.359507"><ele>1695.9834</ele><time>2026-04-04T03:28:51.000Z</time></trkpt>
        <trkpt lat="29.549963" lon="103.359551"><ele>1696.6033</ele><time>2026-04-04T03:28:56.000Z</time></trkpt>
        <trkpt lat="29.549934" lon="103.359596"><ele>1685.8055</ele><time>2026-04-04T03:29:09.000Z</time></trkpt>
        <trkpt lat="29.54992" lon="103.359647"><ele>1684.4115</ele><time>2026-04-04T03:29:15.000Z</time></trkpt>
        <trkpt lat="29.549943" lon="103.359695"><ele>1678.762</ele><time>2026-04-04T03:29:25.000Z</time></trkpt>
        <trkpt lat="29.549974" lon="103.359735"><ele>1674.7953</ele><time>2026-04-04T03:29:33.000Z</time></trkpt>
        <trkpt lat="29.550009" lon="103.359771"><ele>1675.8364</ele><time>2026-04-04T03:29:52.000Z</time></trkpt>
        <trkpt lat="29.55005" lon="103.359801"><ele>1672.4965</ele><time>2026-04-04T03:29:58.000Z</time></trkpt>
        <trkpt lat="29.550077" lon="103.35985"><ele>1664.349</ele><time>2026-04-04T03:30:21.000Z</time></trkpt>
        <trkpt lat="29.5501" lon="103.359897"><ele>1662.3329</ele><time>2026-04-04T03:30:28.000Z</time></trkpt>
        <trkpt lat="29.550128" lon="103.359939"><ele>1661.6857</ele><time>2026-04-04T03:30:33.000Z</time></trkpt>
        <trkpt lat="29.550163" lon="103.359986"><ele>1659.9606</ele><time>2026-04-04T03:30:40.000Z</time></trkpt>
        <trkpt lat="29.550174" lon="103.360036"><ele>1658.1393</ele><time>2026-04-04T03:30:48.000Z</time></trkpt>
        <trkpt lat="29.550191" lon="103.360096"><ele>1655.3036</ele><time>2026-04-04T03:30:56.000Z</time></trkpt>
        <trkpt lat="29.550215" lon="103.360145"><ele>1652.6062</ele><time>2026-04-04T03:31:02.000Z</time></trkpt>
        <trkpt lat="29.550231" lon="103.360197"><ele>1653.701</ele><time>2026-04-04T03:31:07.000Z</time></trkpt>
        <trkpt lat="29.550236" lon="103.360261"><ele>1651.5057</ele><time>2026-04-04T03:31:14.000Z</time></trkpt>
        <trkpt lat="29.55022" lon="103.360313"><ele>1649.1228</ele><time>2026-04-04T03:31:20.000Z</time></trkpt>
        <trkpt lat="29.550191" lon="103.360362"><ele>1647.0411</ele><time>2026-04-04T03:31:28.000Z</time></trkpt>
        <trkpt lat="29.55017" lon="103.360421"><ele>1649.2562</ele><time>2026-04-04T03:31:32.000Z</time></trkpt>
        <trkpt lat="29.550148" lon="103.360473"><ele>1650.3279</ele><time>2026-04-04T03:31:37.000Z</time></trkpt>
        <trkpt lat="29.550126" lon="103.360526"><ele>1648.4448</ele><time>2026-04-04T03:31:42.000Z</time></trkpt>
        <trkpt lat="29.550096" lon="103.360575"><ele>1649.0602</ele><time>2026-04-04T03:31:47.000Z</time></trkpt>
        <trkpt lat="29.550063" lon="103.360614"><ele>1644.979</ele><time>2026-04-04T03:31:53.000Z</time></trkpt>
        <trkpt lat="29.550039" lon="103.360659"><ele>1644.2285</ele><time>2026-04-04T03:31:57.000Z</time></trkpt>
        <trkpt lat="29.550019" lon="103.360708"><ele>1648.1992</ele><time>2026-04-04T03:32:01.000Z</time></trkpt>
        <trkpt lat="29.550004" lon="103.36076"><ele>1648.8328</ele><time>2026-04-04T03:32:04.000Z</time></trkpt>
        <trkpt lat="29.549997" lon="103.360817"><ele>1648.5828</ele><time>2026-04-04T03:32:09.000Z</time></trkpt>
        <trkpt lat="29.549968" lon="103.360858"><ele>1650.1012</ele><time>2026-04-04T03:32:15.000Z</time></trkpt>
        <trkpt lat="29.549934" lon="103.360904"><ele>1651.7996</ele><time>2026-04-04T03:32:20.000Z</time></trkpt>
        <trkpt lat="29.54995" lon="103.360969"><ele>1656.5361</ele><time>2026-04-04T03:32:24.000Z</time></trkpt>
        <trkpt lat="29.549954" lon="103.36102"><ele>1656.71</ele><time>2026-04-04T03:32:27.000Z</time></trkpt>
        <trkpt lat="29.549989" lon="103.361066"><ele>1656.7463</ele><time>2026-04-04T03:32:32.000Z</time></trkpt>
        <trkpt lat="29.550009" lon="103.361117"><ele>1655.1313</ele><time>2026-04-04T03:32:36.000Z</time></trkpt>
        <trkpt lat="29.550013" lon="103.361168"><ele>1652.4183</ele><time>2026-04-04T03:32:40.000Z</time></trkpt>
        <trkpt lat="29.550012" lon="103.361225"><ele>1652.2361</ele><time>2026-04-04T03:32:43.000Z</time></trkpt>
        <trkpt lat="29.549997" lon="103.361284"><ele>1651.3978</ele><time>2026-04-04T03:32:48.000Z</time></trkpt>
        <trkpt lat="29.550038" lon="103.361321"><ele>1651.22</ele><time>2026-04-04T03:32:51.000Z</time></trkpt>
        <trkpt lat="29.550088" lon="103.361335"><ele>1649.2181</ele><time>2026-04-04T03:32:55.000Z</time></trkpt>
        <trkpt lat="29.550125" lon="103.361376"><ele>1650.678</ele><time>2026-04-04T03:32:59.000Z</time></trkpt>
        <trkpt lat="29.550152" lon="103.361418"><ele>1647.7859</ele><time>2026-04-04T03:33:03.000Z</time></trkpt>
        <trkpt lat="29.550204" lon="103.361444"><ele>1644.709</ele><time>2026-04-04T03:33:10.000Z</time></trkpt>
        <trkpt lat="29.550261" lon="103.361434"><ele>1642.7451</ele><time>2026-04-04T03:33:15.000Z</time></trkpt>
        <trkpt lat="29.550306" lon="103.361451"><ele>1638.2605</ele><time>2026-04-04T03:33:21.000Z</time></trkpt>
        <trkpt lat="29.550328" lon="103.361496"><ele>1636.0043</ele><time>2026-04-04T03:33:27.000Z</time></trkpt>
        <trkpt lat="29.550348" lon="103.361559"><ele>1636.1038</ele><time>2026-04-04T03:33:33.000Z</time></trkpt>
        <trkpt lat="29.550377" lon="103.36161"><ele>1633.5192</ele><time>2026-04-04T03:33:38.000Z</time></trkpt>
        <trkpt lat="29.550434" lon="103.361631"><ele>1631.7092</ele><time>2026-04-04T03:33:43.000Z</time></trkpt>
        <trkpt lat="29.550424" lon="103.361685"><ele>1629.0942</ele><time>2026-04-04T03:33:58.000Z</time></trkpt>
        <trkpt lat="29.550461" lon="103.361717"><ele>1623.6843</ele><time>2026-04-04T03:34:10.000Z</time></trkpt>
        <trkpt lat="29.550507" lon="103.361749"><ele>1623.4298</ele><time>2026-04-04T03:34:15.000Z</time></trkpt>
        <trkpt lat="29.550517" lon="103.361802"><ele>1623.0675</ele><time>2026-04-04T03:34:18.000Z</time></trkpt>
        <trkpt lat="29.550537" lon="103.361852"><ele>1621.4652</ele><time>2026-04-04T03:34:22.000Z</time></trkpt>
        <trkpt lat="29.550575" lon="103.361887"><ele>1617.2357</ele><time>2026-04-04T03:34:30.000Z</time></trkpt>
        <trkpt lat="29.550588" lon="103.361938"><ele>1616.0364</ele><time>2026-04-04T03:34:35.000Z</time></trkpt>
        <trkpt lat="29.55063" lon="103.361973"><ele>1615.2456</ele><time>2026-04-04T03:34:40.000Z</time></trkpt>
        <trkpt lat="29.550659" lon="103.362013"><ele>1613.5334</ele><time>2026-04-04T03:34:47.000Z</time></trkpt>
        <trkpt lat="29.550656" lon="103.362068"><ele>1611.3658</ele><time>2026-04-04T03:34:57.000Z</time></trkpt>
        <trkpt lat="29.550654" lon="103.362123"><ele>1609.1666</ele><time>2026-04-04T03:35:04.000Z</time></trkpt>
        <trkpt lat="29.550646" lon="103.362181"><ele>1603.7065</ele><time>2026-04-04T03:35:19.000Z</time></trkpt>
        <trkpt lat="29.550656" lon="103.362237"><ele>1604.5115</ele><time>2026-04-04T03:35:23.000Z</time></trkpt>
        <trkpt lat="29.55067" lon="103.362294"><ele>1602.7186</ele><time>2026-04-04T03:35:30.000Z</time></trkpt>
        <trkpt lat="29.550676" lon="103.362346"><ele>1602.2072</ele><time>2026-04-04T03:35:36.000Z</time></trkpt>
        <trkpt lat="29.550688" lon="103.362405"><ele>1603.1531</ele><time>2026-04-04T03:35:43.000Z</time></trkpt>
        <trkpt lat="29.550689" lon="103.362462"><ele>1604.3193</ele><time>2026-04-04T03:35:49.000Z</time></trkpt>
        <trkpt lat="29.550712" lon="103.362509"><ele>1598.8427</ele><time>2026-04-04T03:35:59.000Z</time></trkpt>
        <trkpt lat="29.550743" lon="103.362548"><ele>1594.7338</ele><time>2026-04-04T03:36:05.000Z</time></trkpt>
        <trkpt lat="29.550728" lon="103.362601"><ele>1591.4175</ele><time>2026-04-04T03:36:16.000Z</time></trkpt>
        <trkpt lat="29.550714" lon="103.362661"><ele>1590.1971</ele><time>2026-04-04T03:36:24.000Z</time></trkpt>
        <trkpt lat="29.55074" lon="103.362705"><ele>1585.9542</ele><time>2026-04-04T03:36:36.000Z</time></trkpt>
        <trkpt lat="29.550725" lon="103.362754"><ele>1579.1882</ele><time>2026-04-04T03:36:54.000Z</time></trkpt>
        <trkpt lat="29.550697" lon="103.362803"><ele>1579.2849</ele><time>2026-04-04T03:37:00.000Z</time></trkpt>
        <trkpt lat="29.550666" lon="103.362846"><ele>1581.682</ele><time>2026-04-04T03:37:04.000Z</time></trkpt>
        <trkpt lat="29.550649" lon="103.362903"><ele>1580.7009</ele><time>2026-04-04T03:37:13.000Z</time></trkpt>
        <trkpt lat="29.550624" lon="103.362948"><ele>1581.6333</ele><time>2026-04-04T03:37:17.000Z</time></trkpt>
        <trkpt lat="29.550621" lon="103.363002"><ele>1581.1163</ele><time>2026-04-04T03:37:24.000Z</time></trkpt>
        <trkpt lat="29.550665" lon="103.363032"><ele>1580.1254</ele><time>2026-04-04T03:37:30.000Z</time></trkpt>
        <trkpt lat="29.550707" lon="103.363068"><ele>1578.2172</ele><time>2026-04-04T03:37:35.000Z</time></trkpt>
        <trkpt lat="29.550754" lon="103.363079"><ele>1576.1549</ele><time>2026-04-04T03:37:39.000Z</time></trkpt>
        <trkpt lat="29.550806" lon="103.363102"><ele>1577.1553</ele><time>2026-04-04T03:37:48.000Z</time></trkpt>
        <trkpt lat="29.550851" lon="103.363138"><ele>1575.1848</ele><time>2026-04-04T03:37:56.000Z</time></trkpt>
        <trkpt lat="29.550851" lon="103.363193"><ele>1573.732</ele><time>2026-04-04T03:38:04.000Z</time></trkpt>
        <trkpt lat="29.550809" lon="103.363219"><ele>1574.6108</ele><time>2026-04-04T03:38:28.000Z</time></trkpt>
        <trkpt lat="29.550784" lon="103.363173"><ele>1571.4061</ele><time>2026-04-04T03:38:38.000Z</time></trkpt>
        <trkpt lat="29.550812" lon="103.363215"><ele>1566.4736</ele><time>2026-04-04T03:38:47.000Z</time></trkpt>
        <trkpt lat="29.550821" lon="103.363268"><ele>1567.0969</ele><time>2026-04-04T03:38:55.000Z</time></trkpt>
        <trkpt lat="29.550809" lon="103.363321"><ele>1567.3031</ele><time>2026-04-04T03:39:03.000Z</time></trkpt>
        <trkpt lat="29.550803" lon="103.363381"><ele>1561.884</ele><time>2026-04-04T03:39:18.000Z</time></trkpt>
        <trkpt lat="29.5508" lon="103.363434"><ele>1560.1821</ele><time>2026-04-04T03:39:24.000Z</time></trkpt>
        <trkpt lat="29.550784" lon="103.363484"><ele>1551.9727</ele><time>2026-04-04T03:39:52.000Z</time></trkpt>
        <trkpt lat="29.550766" lon="103.363548"><ele>1554.96</ele><time>2026-04-04T03:40:01.000Z</time></trkpt>
        <trkpt lat="29.550775" lon="103.363602"><ele>1552.3619</ele><time>2026-04-04T03:40:08.000Z</time></trkpt>
        <trkpt lat="29.55079" lon="103.363652"><ele>1551.2273</ele><time>2026-04-04T03:40:14.000Z</time></trkpt>
        <trkpt lat="29.550817" lon="103.363718"><ele>1553.9098</ele><time>2026-04-04T03:40:19.000Z</time></trkpt>
        <trkpt lat="29.550813" lon="103.363776"><ele>1553.8003</ele><time>2026-04-04T03:40:24.000Z</time></trkpt>
        <trkpt lat="29.550778" lon="103.363809"><ele>1556.9995</ele><time>2026-04-04T03:40:38.000Z</time></trkpt>
        <trkpt lat="29.550737" lon="103.363845"><ele>1553.2552</ele><time>2026-04-04T03:40:44.000Z</time></trkpt>
        <trkpt lat="29.550692" lon="103.363866"><ele>1552.4181</ele><time>2026-04-04T03:40:49.000Z</time></trkpt>
        <trkpt lat="29.550644" lon="103.363868"><ele>1548.646</ele><time>2026-04-04T03:40:56.000Z</time></trkpt>
        <trkpt lat="29.55059" lon="103.363864"><ele>1544.3405</ele><time>2026-04-04T03:41:05.000Z</time></trkpt>
        <trkpt lat="29.550556" lon="103.363907"><ele>1546.6688</ele><time>2026-04-04T03:41:10.000Z</time></trkpt>
        <trkpt lat="29.550564" lon="103.363965"><ele>1547.6256</ele><time>2026-04-04T03:41:14.000Z</time></trkpt>
        <trkpt lat="29.550589" lon="103.364016"><ele>1549.5084</ele><time>2026-04-04T03:41:17.000Z</time></trkpt>
        <trkpt lat="29.550586" lon="103.364075"><ele>1550.6654</ele><time>2026-04-04T03:41:22.000Z</time></trkpt>
        <trkpt lat="29.550568" lon="103.364123"><ele>1549.6107</ele><time>2026-04-04T03:41:27.000Z</time></trkpt>
        <trkpt lat="29.55053" lon="103.36417"><ele>1536.3981</ele><time>2026-04-04T03:41:44.000Z</time></trkpt>
        <trkpt lat="29.550502" lon="103.364213"><ele>1536.6066</ele><time>2026-04-04T03:41:49.000Z</time></trkpt>
        <trkpt lat="29.55048" lon="103.364264"><ele>1537.0347</ele><time>2026-04-04T03:41:55.000Z</time></trkpt>
        <trkpt lat="29.550467" lon="103.364329"><ele>1536.5411</ele><time>2026-04-04T03:42:00.000Z</time></trkpt>
        <trkpt lat="29.550446" lon="103.364379"><ele>1534.5891</ele><time>2026-04-04T03:42:04.000Z</time></trkpt>
        <trkpt lat="29.550419" lon="103.364428"><ele>1535.5746</ele><time>2026-04-04T03:42:07.000Z</time></trkpt>
        <trkpt lat="29.550398" lon="103.364483"><ele>1530.9661</ele><time>2026-04-04T03:42:13.000Z</time></trkpt>
        <trkpt lat="29.550359" lon="103.364513"><ele>1519.7875</ele><time>2026-04-04T03:42:23.000Z</time></trkpt>
        <trkpt lat="29.550312" lon="103.364528"><ele>1522.2485</ele><time>2026-04-04T03:42:29.000Z</time></trkpt>
        <trkpt lat="29.55026" lon="103.364523"><ele>1520.8097</ele><time>2026-04-04T03:42:34.000Z</time></trkpt>
        <trkpt lat="29.550253" lon="103.36458"><ele>1517.7928</ele><time>2026-04-04T03:42:40.000Z</time></trkpt>
        <trkpt lat="29.550242" lon="103.364632"><ele>1515.9121</ele><time>2026-04-04T03:42:43.000Z</time></trkpt>
        <trkpt lat="29.550246" lon="103.364703"><ele>1515.3723</ele><time>2026-04-04T03:42:47.000Z</time></trkpt>
        <trkpt lat="29.550244" lon="103.364759"><ele>1515.0537</ele><time>2026-04-04T03:42:50.000Z</time></trkpt>
        <trkpt lat="29.550238" lon="103.364811"><ele>1515.5347</ele><time>2026-04-04T03:42:54.000Z</time></trkpt>
        <trkpt lat="29.550234" lon="103.364874"><ele>1516.2002</ele><time>2026-04-04T03:42:58.000Z</time></trkpt>
        <trkpt lat="29.550213" lon="103.364928"><ele>1516.199</ele><time>2026-04-04T03:43:02.000Z</time></trkpt>
        <trkpt lat="29.550175" lon="103.364977"><ele>1518.9303</ele><time>2026-04-04T03:43:09.000Z</time></trkpt>
        <trkpt lat="29.550115" lon="103.364965"><ele>1519.7947</ele><time>2026-04-04T03:43:15.000Z</time></trkpt>
        <trkpt lat="29.55007" lon="103.364984"><ele>1513.5192</ele><time>2026-04-04T03:43:20.000Z</time></trkpt>
        <trkpt lat="29.550052" lon="103.365033"><ele>1511.7039</ele><time>2026-04-04T03:43:24.000Z</time></trkpt>
        <trkpt lat="29.550035" lon="103.365089"><ele>1508.3364</ele><time>2026-04-04T03:43:28.000Z</time></trkpt>
        <trkpt lat="29.549992" lon="103.365104"><ele>1508.562</ele><time>2026-04-04T03:43:31.000Z</time></trkpt>
        <trkpt lat="29.549955" lon="103.365162"><ele>1507.2601</ele><time>2026-04-04T03:43:35.000Z</time></trkpt>
        <trkpt lat="29.549903" lon="103.365186"><ele>1505.0979</ele><time>2026-04-04T03:43:40.000Z</time></trkpt>
        <trkpt lat="29.549856" lon="103.365231"><ele>1505.657</ele><time>2026-04-04T03:43:44.000Z</time></trkpt>
        <trkpt lat="29.549814" lon="103.365275"><ele>1504.3992</ele><time>2026-04-04T03:43:49.000Z</time></trkpt>
        <trkpt lat="29.549786" lon="103.365322"><ele>1504.7998</ele><time>2026-04-04T03:43:52.000Z</time></trkpt>
        <trkpt lat="29.549747" lon="103.365368"><ele>1505.1279</ele><time>2026-04-04T03:43:56.000Z</time></trkpt>
        <trkpt lat="29.5497" lon="103.365382"><ele>1506.6282</ele><time>2026-04-04T03:44:00.000Z</time></trkpt>
        <trkpt lat="29.549654" lon="103.365418"><ele>1506.5695</ele><time>2026-04-04T03:44:04.000Z</time></trkpt>
        <trkpt lat="29.549626" lon="103.365472"><ele>1506.3936</ele><time>2026-04-04T03:44:08.000Z</time></trkpt>
        <trkpt lat="29.549602" lon="103.365517"><ele>1504.5753</ele><time>2026-04-04T03:44:12.000Z</time></trkpt>
        <trkpt lat="29.549595" lon="103.365579"><ele>1502.9191</ele><time>2026-04-04T03:44:17.000Z</time></trkpt>
        <trkpt lat="29.549621" lon="103.365634"><ele>1502.5145</ele><time>2026-04-04T03:44:22.000Z</time></trkpt>
        <trkpt lat="29.549651" lon="103.365682"><ele>1504.311</ele><time>2026-04-04T03:44:26.000Z</time></trkpt>
        <trkpt lat="29.549663" lon="103.365739"><ele>1505.7098</ele><time>2026-04-04T03:44:30.000Z</time></trkpt>
        <trkpt lat="29.54967" lon="103.36579"><ele>1503.2418</ele><time>2026-04-04T03:44:34.000Z</time></trkpt>
        <trkpt lat="29.549688" lon="103.365841"><ele>1499.9353</ele><time>2026-04-04T03:44:38.000Z</time></trkpt>
        <trkpt lat="29.549726" lon="103.365875"><ele>1498.4401</ele><time>2026-04-04T03:44:45.000Z</time></trkpt>
        <trkpt lat="29.549739" lon="103.365926"><ele>1497.687</ele><time>2026-04-04T03:44:52.000Z</time></trkpt>
        <trkpt lat="29.549741" lon="103.365979"><ele>1494.9927</ele><time>2026-04-04T03:44:58.000Z</time></trkpt>
        <trkpt lat="29.54975" lon="103.366036"><ele>1494.5536</ele><time>2026-04-04T03:45:08.000Z</time></trkpt>
        <trkpt lat="29.549767" lon="103.366093"><ele>1492.0424</ele><time>2026-04-04T03:45:13.000Z</time></trkpt>
        <trkpt lat="29.549736" lon="103.366135"><ele>1487.6134</ele><time>2026-04-04T03:45:25.000Z</time></trkpt>
        <trkpt lat="29.549679" lon="103.366127"><ele>1488.119</ele><time>2026-04-04T03:45:29.000Z</time></trkpt>
        <trkpt lat="29.549675" lon="103.366179"><ele>1487.1857</ele><time>2026-04-04T03:45:34.000Z</time></trkpt>
        <trkpt lat="29.549643" lon="103.36622"><ele>1485.0524</ele><time>2026-04-04T03:45:41.000Z</time></trkpt>
        <trkpt lat="29.549592" lon="103.36624"><ele>1485.5719</ele><time>2026-04-04T03:46:01.000Z</time></trkpt>
        <trkpt lat="29.549553" lon="103.366275"><ele>1485.9307</ele><time>2026-04-04T03:46:07.000Z</time></trkpt>
        <trkpt lat="29.549524" lon="103.366326"><ele>1484.8335</ele><time>2026-04-04T03:46:14.000Z</time></trkpt>
        <trkpt lat="29.549486" lon="103.366365"><ele>1485.6984</ele><time>2026-04-04T03:46:21.000Z</time></trkpt>
        <trkpt lat="29.549442" lon="103.366385"><ele>1487.3387</ele><time>2026-04-04T03:46:30.000Z</time></trkpt>
        <trkpt lat="29.549451" lon="103.366441"><ele>1488.8336</ele><time>2026-04-04T03:46:44.000Z</time></trkpt>
        <trkpt lat="29.549443" lon="103.366496"><ele>1492.189</ele><time>2026-04-04T03:46:57.000Z</time></trkpt>
        <trkpt lat="29.54948" lon="103.366534"><ele>1488.1593</ele><time>2026-04-04T03:47:06.000Z</time></trkpt>
        <trkpt lat="29.549519" lon="103.366559"><ele>1483.9414</ele><time>2026-04-04T03:47:16.000Z</time></trkpt>
        <trkpt lat="29.549566" lon="103.366579"><ele>1480.0061</ele><time>2026-04-04T03:47:29.000Z</time></trkpt>
        <trkpt lat="29.549604" lon="103.366615"><ele>1476.8799</ele><time>2026-04-04T03:47:38.000Z</time></trkpt>
        <trkpt lat="29.549647" lon="103.366646"><ele>1473.4069</ele><time>2026-04-04T03:47:47.000Z</time></trkpt>
        <trkpt lat="29.549681" lon="103.366681"><ele>1472.0333</ele><time>2026-04-04T03:47:53.000Z</time></trkpt>
        <trkpt lat="29.549727" lon="103.366719"><ele>1468.98</ele><time>2026-04-04T03:48:01.000Z</time></trkpt>
        <trkpt lat="29.549765" lon="103.366763"><ele>1466.8904</ele><time>2026-04-04T03:48:09.000Z</time></trkpt>
        <trkpt lat="29.549798" lon="103.366723"><ele>1464.5917</ele><time>2026-04-04T03:48:14.000Z</time></trkpt>
        <trkpt lat="29.549849" lon="103.366719"><ele>1462.8993</ele><time>2026-04-04T03:48:23.000Z</time></trkpt>
        <trkpt lat="29.549899" lon="103.366728"><ele>1461.9624</ele><time>2026-04-04T03:48:30.000Z</time></trkpt>
        <trkpt lat="29.549942" lon="103.366711"><ele>1460.7179</ele><time>2026-04-04T03:48:38.000Z</time></trkpt>
        <trkpt lat="29.54998" lon="103.366744"><ele>1461.2385</ele><time>2026-04-04T03:48:46.000Z</time></trkpt>
        <trkpt lat="29.550015" lon="103.366789"><ele>1462.1521</ele><time>2026-04-04T03:48:56.000Z</time></trkpt>
        <trkpt lat="29.550065" lon="103.366804"><ele>1455.7504</ele><time>2026-04-04T03:49:19.000Z</time></trkpt>
        <trkpt lat="29.550113" lon="103.366805"><ele>1450.7445</ele><time>2026-04-04T03:49:57.000Z</time></trkpt>
        <trkpt lat="29.550157" lon="103.366772"><ele>1446.7599</ele><time>2026-04-04T03:50:17.000Z</time></trkpt>
        <trkpt lat="29.550175" lon="103.366827"><ele>1446.4631</ele><time>2026-04-04T03:50:21.000Z</time></trkpt>
        <trkpt lat="29.55018" lon="103.36688"><ele>1447.1212</ele><time>2026-04-04T03:50:27.000Z</time></trkpt>
        <trkpt lat="29.55019" lon="103.36693"><ele>1446.0175</ele><time>2026-04-04T03:50:34.000Z</time></trkpt>
        <trkpt lat="29.55023" lon="103.36696"><ele>1445.0443</ele><time>2026-04-04T03:50:42.000Z</time></trkpt>
        <trkpt lat="29.550266" lon="103.366922"><ele>1445.656</ele><time>2026-04-04T03:50:47.000Z</time></trkpt>
        <trkpt lat="29.550298" lon="103.366969"><ele>1447.975</ele><time>2026-04-04T03:50:54.000Z</time></trkpt>
        <trkpt lat="29.550293" lon="103.367029"><ele>1453.4208</ele><time>2026-04-04T03:51:17.000Z</time></trkpt>
        <trkpt lat="29.55026" lon="103.367073"><ele>1447.0092</ele><time>2026-04-04T03:51:33.000Z</time></trkpt>
        <trkpt lat="29.550216" lon="103.367084"><ele>1443.3976</ele><time>2026-04-04T03:51:44.000Z</time></trkpt>
        <trkpt lat="29.5502" lon="103.367146"><ele>1434.7695</ele><time>2026-04-04T03:51:51.000Z</time></trkpt>
        <trkpt lat="29.550203" lon="103.367199"><ele>1429.1522</ele><time>2026-04-04T03:51:55.000Z</time></trkpt>
        <trkpt lat="29.550197" lon="103.367252"><ele>1427.9911</ele><time>2026-04-04T03:52:03.000Z</time></trkpt>
        <trkpt lat="29.550162" lon="103.367295"><ele>1426.7798</ele><time>2026-04-04T03:52:16.000Z</time></trkpt>
        <trkpt lat="29.550135" lon="103.367355"><ele>1425.3129</ele><time>2026-04-04T03:52:24.000Z</time></trkpt>
        <trkpt lat="29.550108" lon="103.367405"><ele>1421.1763</ele><time>2026-04-04T03:52:32.000Z</time></trkpt>
        <trkpt lat="29.550103" lon="103.367464"><ele>1419.0217</ele><time>2026-04-04T03:52:42.000Z</time></trkpt>
        <trkpt lat="29.550154" lon="103.367455"><ele>1414.9574</ele><time>2026-04-04T03:52:54.000Z</time></trkpt>
        <trkpt lat="29.550198" lon="103.36744"><ele>1420.084</ele><time>2026-04-04T03:53:16.000Z</time></trkpt>
        <trkpt lat="29.550242" lon="103.367426"><ele>1416.1697</ele><time>2026-04-04T03:53:34.000Z</time></trkpt>
        <trkpt lat="29.550253" lon="103.367476"><ele>1414.2733</ele><time>2026-04-04T03:53:43.000Z</time></trkpt>
        <trkpt lat="29.550234" lon="103.367527"><ele>1413.5677</ele><time>2026-04-04T03:53:52.000Z</time></trkpt>
        <trkpt lat="29.550238" lon="103.367589"><ele>1413.9127</ele><time>2026-04-04T03:54:06.000Z</time></trkpt>
        <trkpt lat="29.550238" lon="103.367641"><ele>1408.8168</ele><time>2026-04-04T03:54:15.000Z</time></trkpt>
        <trkpt lat="29.550222" lon="103.367703"><ele>1404.3206</ele><time>2026-04-04T03:54:24.000Z</time></trkpt>
        <trkpt lat="29.550178" lon="103.367733"><ele>1404.335</ele><time>2026-04-04T03:54:29.000Z</time></trkpt>
        <trkpt lat="29.550135" lon="103.367768"><ele>1403.3353</ele><time>2026-04-04T03:54:37.000Z</time></trkpt>
        <trkpt lat="29.55009" lon="103.367771"><ele>1401.2684</ele><time>2026-04-04T03:54:47.000Z</time></trkpt>
        <trkpt lat="29.55006" lon="103.367812"><ele>1396.1031</ele><time>2026-04-04T03:54:56.000Z</time></trkpt>
        <trkpt lat="29.550025" lon="103.367849"><ele>1392.5288</ele><time>2026-04-04T03:55:06.000Z</time></trkpt>
        <trkpt lat="29.550004" lon="103.367907"><ele>1392.6665</ele><time>2026-04-04T03:55:17.000Z</time></trkpt>
        <trkpt lat="29.550049" lon="103.367949"><ele>1388.8903</ele><time>2026-04-04T03:55:33.000Z</time></trkpt>
        <trkpt lat="29.550003" lon="103.367943"><ele>1383.2312</ele><time>2026-04-04T03:55:45.000Z</time></trkpt>
        <trkpt lat="29.549959" lon="103.367967"><ele>1383.006</ele><time>2026-04-04T03:55:50.000Z</time></trkpt>
        <trkpt lat="29.549908" lon="103.367974"><ele>1382.6322</ele><time>2026-04-04T03:55:57.000Z</time></trkpt>
        <trkpt lat="29.549913" lon="103.368033"><ele>1377.0812</ele><time>2026-04-04T03:56:21.000Z</time></trkpt>
        <trkpt lat="29.549911" lon="103.368085"><ele>1369.4408</ele><time>2026-04-04T03:56:42.000Z</time></trkpt>
        <trkpt lat="29.549865" lon="103.368127"><ele>1368.375</ele><time>2026-04-04T03:56:54.000Z</time></trkpt>
        <trkpt lat="29.549926" lon="103.368109"><ele>1361.2518</ele><time>2026-04-04T03:57:16.000Z</time></trkpt>
        <trkpt lat="29.549968" lon="103.36813"><ele>1365.3887</ele><time>2026-04-04T03:57:24.000Z</time></trkpt>
        <trkpt lat="29.549933" lon="103.368173"><ele>1360.4481</ele><time>2026-04-04T03:57:36.000Z</time></trkpt>
        <trkpt lat="29.549902" lon="103.368213"><ele>1355.2455</ele><time>2026-04-04T03:57:48.000Z</time></trkpt>
        <trkpt lat="29.549892" lon="103.368264"><ele>1350.8868</ele><time>2026-04-04T03:58:36.000Z</time></trkpt>
        <trkpt lat="29.549936" lon="103.368279"><ele>1344.8953</ele><time>2026-04-04T03:58:57.000Z</time></trkpt>
        <trkpt lat="29.549967" lon="103.368328"><ele>1347.73</ele><time>2026-04-04T03:59:49.000Z</time></trkpt>
        <trkpt lat="29.549929" lon="103.368371"><ele>1344.491</ele><time>2026-04-04T04:00:03.000Z</time></trkpt>
        <trkpt lat="29.549902" lon="103.368414"><ele>1345.133</ele><time>2026-04-04T04:00:16.000Z</time></trkpt>
        <trkpt lat="29.549875" lon="103.368462"><ele>1348.6149</ele><time>2026-04-04T04:00:25.000Z</time></trkpt>
        <trkpt lat="29.549849" lon="103.368515"><ele>1350.835</ele><time>2026-04-04T04:00:33.000Z</time></trkpt>
        <trkpt lat="29.549896" lon="103.368535"><ele>1344.2677</ele><time>2026-04-04T04:01:00.000Z</time></trkpt>
        <trkpt lat="29.549876" lon="103.368584"><ele>1348.4468</ele><time>2026-04-04T04:01:15.000Z</time></trkpt>
        <trkpt lat="29.549842" lon="103.368619"><ele>1361.7639</ele><time>2026-04-04T04:01:40.000Z</time></trkpt>
        <trkpt lat="29.549857" lon="103.368568"><ele>1349.3187</ele><time>2026-04-04T04:02:21.000Z</time></trkpt>
        <trkpt lat="29.549804" lon="103.368581"><ele>1349.0157</ele><time>2026-04-04T04:02:50.000Z</time></trkpt>
        <trkpt lat="29.549833" lon="103.368535"><ele>1339.9641</ele><time>2026-04-04T04:02:58.000Z</time></trkpt>
        <trkpt lat="29.549881" lon="103.368538"><ele>1336.4349</ele><time>2026-04-04T04:03:01.000Z</time></trkpt>
        <trkpt lat="29.549941" lon="103.368531"><ele>1335.5631</ele><time>2026-04-04T04:03:05.000Z</time></trkpt>
        <trkpt lat="29.549897" lon="103.36852"><ele>1335.1888</ele><time>2026-04-04T04:03:07.000Z</time></trkpt>
        <trkpt lat="29.549845" lon="103.368536"><ele>1330.5481</ele><time>2026-04-04T04:03:17.000Z</time></trkpt>
        <trkpt lat="29.549801" lon="103.36851"><ele>1327.2871</ele><time>2026-04-04T04:03:24.000Z</time></trkpt>
        <trkpt lat="29.549791" lon="103.368563"><ele>1321.5875</ele><time>2026-04-04T04:03:33.000Z</time></trkpt>
        <trkpt lat="29.549747" lon="103.368579"><ele>1317.8</ele><time>2026-04-04T04:03:45.000Z</time></trkpt>
        <trkpt lat="29.549699" lon="103.368588"><ele>1313.9797</ele><time>2026-04-04T04:03:53.000Z</time></trkpt>
        <trkpt lat="29.549739" lon="103.368634"><ele>1306.1401</ele><time>2026-04-04T04:04:19.000Z</time></trkpt>
        <trkpt lat="29.549783" lon="103.368599"><ele>1305.8306</ele><time>2026-04-04T04:04:33.000Z</time></trkpt>
        <trkpt lat="29.549724" lon="103.368618"><ele>1305.1208</ele><time>2026-04-04T04:04:37.000Z</time></trkpt>
        <trkpt lat="29.549699" lon="103.368663"><ele>1303.3169</ele><time>2026-04-04T04:04:47.000Z</time></trkpt>
        <trkpt lat="29.549689" lon="103.368719"><ele>1298.962</ele><time>2026-04-04T04:04:54.000Z</time></trkpt>
        <trkpt lat="29.549673" lon="103.368667"><ele>1296.6105</ele><time>2026-04-04T04:05:08.000Z</time></trkpt>
        <trkpt lat="29.549671" lon="103.36873"><ele>1299.3533</ele><time>2026-04-04T04:05:12.000Z</time></trkpt>
        <trkpt lat="29.549666" lon="103.368788"><ele>1297.3212</ele><time>2026-04-04T04:05:20.000Z</time></trkpt>
        <trkpt lat="29.549686" lon="103.368849"><ele>1302.1838</ele><time>2026-04-04T04:05:25.000Z</time></trkpt>
        <trkpt lat="29.549722" lon="103.368888"><ele>1297.9158</ele><time>2026-04-04T04:05:30.000Z</time></trkpt>
        <trkpt lat="29.54977" lon="103.368918"><ele>1297.6431</ele><time>2026-04-04T04:05:36.000Z</time></trkpt>
        <trkpt lat="29.549793" lon="103.368963"><ele>1289.4968</ele><time>2026-04-04T04:05:50.000Z</time></trkpt>
        <trkpt lat="29.54984" lon="103.368947"><ele>1287.6329</ele><time>2026-04-04T04:05:56.000Z</time></trkpt>
        <trkpt lat="29.549883" lon="103.368934"><ele>1285.3308</ele><time>2026-04-04T04:06:06.000Z</time></trkpt>
        <trkpt lat="29.549926" lon="103.368915"><ele>1284.7968</ele><time>2026-04-04T04:06:12.000Z</time></trkpt>
        <trkpt lat="29.549977" lon="103.368923"><ele>1287.2043</ele><time>2026-04-04T04:06:21.000Z</time></trkpt>
        <trkpt lat="29.549948" lon="103.368965"><ele>1294.0208</ele><time>2026-04-04T04:06:43.000Z</time></trkpt>
        <trkpt lat="29.549901" lon="103.368976"><ele>1294.3938</ele><time>2026-04-04T04:07:00.000Z</time></trkpt>
        <trkpt lat="29.549894" lon="103.369027"><ele>1291.0248</ele><time>2026-04-04T04:07:09.000Z</time></trkpt>
        <trkpt lat="29.549935" lon="103.369052"><ele>1292.1864</ele><time>2026-04-04T04:07:15.000Z</time></trkpt>
        <trkpt lat="29.549909" lon="103.3691"><ele>1291.9121</ele><time>2026-04-04T04:07:35.000Z</time></trkpt>
        <trkpt lat="29.549905" lon="103.369156"><ele>1283.5653</ele><time>2026-04-04T04:07:51.000Z</time></trkpt>
        <trkpt lat="29.549877" lon="103.369198"><ele>1284.714</ele><time>2026-04-04T04:07:57.000Z</time></trkpt>
        <trkpt lat="29.549888" lon="103.369255"><ele>1282.612</ele><time>2026-04-04T04:08:03.000Z</time></trkpt>
        <trkpt lat="29.549898" lon="103.369312"><ele>1279.0554</ele><time>2026-04-04T04:08:10.000Z</time></trkpt>
        <trkpt lat="29.549925" lon="103.369367"><ele>1276.5828</ele><time>2026-04-04T04:08:15.000Z</time></trkpt>
        <trkpt lat="29.549951" lon="103.369416"><ele>1276.615</ele><time>2026-04-04T04:08:18.000Z</time></trkpt>
        <trkpt lat="29.549966" lon="103.369468"><ele>1275.4932</ele><time>2026-04-04T04:08:22.000Z</time></trkpt>
        <trkpt lat="29.550017" lon="103.369465"><ele>1269.3822</ele><time>2026-04-04T04:08:31.000Z</time></trkpt>
        <trkpt lat="29.550041" lon="103.369422"><ele>1277.5936</ele><time>2026-04-04T04:08:47.000Z</time></trkpt>
        <trkpt lat="29.550017" lon="103.369485"><ele>1280.2948</ele><time>2026-04-04T04:09:24.000Z</time></trkpt>
        <trkpt lat="29.550023" lon="103.369536"><ele>1277.7092</ele><time>2026-04-04T04:10:05.000Z</time></trkpt>
        <trkpt lat="29.550049" lon="103.369581"><ele>1276.3397</ele><time>2026-04-04T04:13:13.000Z</time></trkpt>
        <trkpt lat="29.550098" lon="103.369578"><ele>1278.1194</ele><time>2026-04-04T04:13:28.000Z</time></trkpt>
        <trkpt lat="29.550133" lon="103.369617"><ele>1272.4181</ele><time>2026-04-04T04:13:45.000Z</time></trkpt>
        <trkpt lat="29.550159" lon="103.369661"><ele>1267.3119</ele><time>2026-04-04T04:14:04.000Z</time></trkpt>
        <trkpt lat="29.550182" lon="103.369706"><ele>1275.6025</ele><time>2026-04-04T04:14:30.000Z</time></trkpt>
        <trkpt lat="29.550195" lon="103.369759"><ele>1277.1843</ele><time>2026-04-04T04:14:35.000Z</time></trkpt>
        <trkpt lat="29.550181" lon="103.369705"><ele>1281.8652</ele><time>2026-04-04T04:15:09.000Z</time></trkpt>
        <trkpt lat="29.550236" lon="103.36971"><ele>1279.4442</ele><time>2026-04-04T04:15:27.000Z</time></trkpt>
        <trkpt lat="29.550235" lon="103.369765"><ele>1276.8405</ele><time>2026-04-04T04:15:39.000Z</time></trkpt>
        <trkpt lat="29.55025" lon="103.369815"><ele>1271.4203</ele><time>2026-04-04T04:15:52.000Z</time></trkpt>
        <trkpt lat="29.550266" lon="103.369877"><ele>1271.634</ele><time>2026-04-04T04:16:03.000Z</time></trkpt>
        <trkpt lat="29.550298" lon="103.369948"><ele>1269.8792</ele><time>2026-04-04T04:16:14.000Z</time></trkpt>
        <trkpt lat="29.550342" lon="103.369983"><ele>1269.0337</ele><time>2026-04-04T04:16:19.000Z</time></trkpt>
        <trkpt lat="29.55031" lon="103.370042"><ele>1271.7642</ele><time>2026-04-04T04:16:40.000Z</time></trkpt>
        <trkpt lat="29.550317" lon="103.370119"><ele>1271.0886</ele><time>2026-04-04T04:16:43.000Z</time></trkpt>
        <trkpt lat="29.550333" lon="103.370186"><ele>1268.8894</ele><time>2026-04-04T04:16:46.000Z</time></trkpt>
        <trkpt lat="29.550346" lon="103.370257"><ele>1267.8013</ele><time>2026-04-04T04:16:49.000Z</time></trkpt>
        <trkpt lat="29.550363" lon="103.370321"><ele>1263.778</ele><time>2026-04-04T04:16:54.000Z</time></trkpt>
        <trkpt lat="29.55036" lon="103.370372"><ele>1260.0145</ele><time>2026-04-04T04:17:01.000Z</time></trkpt>
        <trkpt lat="29.550327" lon="103.370409"><ele>1258.6578</ele><time>2026-04-04T04:17:12.000Z</time></trkpt>
        <trkpt lat="29.550341" lon="103.370462"><ele>1257.5957</ele><time>2026-04-04T04:17:20.000Z</time></trkpt>
        <trkpt lat="29.550383" lon="103.370492"><ele>1256.3636</ele><time>2026-04-04T04:17:26.000Z</time></trkpt>
        <trkpt lat="29.55043" lon="103.37053"><ele>1254.9746</ele><time>2026-04-04T04:17:33.000Z</time></trkpt>
        <trkpt lat="29.550452" lon="103.370592"><ele>1254.6566</ele><time>2026-04-04T04:17:48.000Z</time></trkpt>
        <trkpt lat="29.550463" lon="103.370642"><ele>1258.8574</ele><time>2026-04-04T04:18:05.000Z</time></trkpt>
        <trkpt lat="29.550472" lon="103.370697"><ele>1261.9534</ele><time>2026-04-04T04:18:16.000Z</time></trkpt>
        <trkpt lat="29.550433" lon="103.370728"><ele>1261.156</ele><time>2026-04-04T04:18:21.000Z</time></trkpt>
        <trkpt lat="29.55041" lon="103.370774"><ele>1261.4148</ele><time>2026-04-04T04:18:26.000Z</time></trkpt>
        <trkpt lat="29.550444" lon="103.370831"><ele>1260.8175</ele><time>2026-04-04T04:18:30.000Z</time></trkpt>
        <trkpt lat="29.550486" lon="103.37087"><ele>1263.9028</ele><time>2026-04-04T04:18:46.000Z</time></trkpt>
        <trkpt lat="29.550449" lon="103.370907"><ele>1260.3762</ele><time>2026-04-04T04:18:57.000Z</time></trkpt>
        <trkpt lat="29.550414" lon="103.37094"><ele>1263.6477</ele><time>2026-04-04T04:19:18.000Z</time></trkpt>
        <trkpt lat="29.550455" lon="103.370966"><ele>1252.8092</ele><time>2026-04-04T04:19:36.000Z</time></trkpt>
        <trkpt lat="29.550467" lon="103.371019"><ele>1249.2288</ele><time>2026-04-04T04:19:39.000Z</time></trkpt>
        <trkpt lat="29.550472" lon="103.371077"><ele>1250.4979</ele><time>2026-04-04T04:19:47.000Z</time></trkpt>
        <trkpt lat="29.550462" lon="103.371133"><ele>1253.815</ele><time>2026-04-04T04:19:52.000Z</time></trkpt>
        <trkpt lat="29.550459" lon="103.371197"><ele>1257.3992</ele><time>2026-04-04T04:19:57.000Z</time></trkpt>
        <trkpt lat="29.55045" lon="103.371253"><ele>1258.2202</ele><time>2026-04-04T04:20:03.000Z</time></trkpt>
        <trkpt lat="29.550471" lon="103.3713"><ele>1258.7891</ele><time>2026-04-04T04:20:07.000Z</time></trkpt>
        <trkpt lat="29.550457" lon="103.371357"><ele>1260.2097</ele><time>2026-04-04T04:20:11.000Z</time></trkpt>
        <trkpt lat="29.550443" lon="103.371421"><ele>1262.5964</ele><time>2026-04-04T04:20:15.000Z</time></trkpt>
        <trkpt lat="29.550419" lon="103.371469"><ele>1265.1628</ele><time>2026-04-04T04:20:20.000Z</time></trkpt>
        <trkpt lat="29.550412" lon="103.37152"><ele>1265.797</ele><time>2026-04-04T04:20:25.000Z</time></trkpt>
        <trkpt lat="29.550431" lon="103.371569"><ele>1270.7736</ele><time>2026-04-04T04:20:48.000Z</time></trkpt>
        <trkpt lat="29.550462" lon="103.371612"><ele>1272.4835</ele><time>2026-04-04T04:20:55.000Z</time></trkpt>
        <trkpt lat="29.550482" lon="103.371668"><ele>1268.7965</ele><time>2026-04-04T04:21:00.000Z</time></trkpt>
        <trkpt lat="29.550504" lon="103.37173"><ele>1263.7542</ele><time>2026-04-04T04:21:05.000Z</time></trkpt>
        <trkpt lat="29.550524" lon="103.371781"><ele>1259.6334</ele><time>2026-04-04T04:21:10.000Z</time></trkpt>
        <trkpt lat="29.550549" lon="103.371832"><ele>1258.0823</ele><time>2026-04-04T04:21:13.000Z</time></trkpt>
        <trkpt lat="29.550572" lon="103.371889"><ele>1255.8088</ele><time>2026-04-04T04:21:17.000Z</time></trkpt>
        <trkpt lat="29.550583" lon="103.37194"><ele>1254.5327</ele><time>2026-04-04T04:21:20.000Z</time></trkpt>
        <trkpt lat="29.550623" lon="103.371975"><ele>1254.7216</ele><time>2026-04-04T04:21:25.000Z</time></trkpt>
        <trkpt lat="29.550657" lon="103.372026"><ele>1252.4542</ele><time>2026-04-04T04:21:31.000Z</time></trkpt>
        <trkpt lat="29.550687" lon="103.37207"><ele>1252.7933</ele><time>2026-04-04T04:21:39.000Z</time></trkpt>
        <trkpt lat="29.550713" lon="103.372115"><ele>1252.7196</ele><time>2026-04-04T04:21:42.000Z</time></trkpt>
        <trkpt lat="29.550732" lon="103.372177"><ele>1252.2197</ele><time>2026-04-04T04:21:46.000Z</time></trkpt>
        <trkpt lat="29.550721" lon="103.372237"><ele>1251.9943</ele><time>2026-04-04T04:21:50.000Z</time></trkpt>
        <trkpt lat="29.550698" lon="103.37229"><ele>1252.8882</ele><time>2026-04-04T04:21:55.000Z</time></trkpt>
        <trkpt lat="29.550666" lon="103.37233"><ele>1253.1755</ele><time>2026-04-04T04:21:59.000Z</time></trkpt>
        <trkpt lat="29.550648" lon="103.37238"><ele>1250.5844</ele><time>2026-04-04T04:22:10.000Z</time></trkpt>
        <trkpt lat="29.550602" lon="103.372418"><ele>1250.7083</ele><time>2026-04-04T04:22:15.000Z</time></trkpt>
        <trkpt lat="29.550595" lon="103.372469"><ele>1250.4667</ele><time>2026-04-04T04:22:19.000Z</time></trkpt>
        <trkpt lat="29.550578" lon="103.372525"><ele>1251.36</ele><time>2026-04-04T04:22:27.000Z</time></trkpt>
        <trkpt lat="29.550545" lon="103.372574"><ele>1254.1357</ele><time>2026-04-04T04:22:35.000Z</time></trkpt>
        <trkpt lat="29.550512" lon="103.372615"><ele>1254.405</ele><time>2026-04-04T04:22:39.000Z</time></trkpt>
        <trkpt lat="29.550474" lon="103.372657"><ele>1257.1794</ele><time>2026-04-04T04:22:47.000Z</time></trkpt>
        <trkpt lat="29.550445" lon="103.372707"><ele>1258.7593</ele><time>2026-04-04T04:22:55.000Z</time></trkpt>
        <trkpt lat="29.550406" lon="103.372733"><ele>1259.056</ele><time>2026-04-04T04:22:58.000Z</time></trkpt>
        <trkpt lat="29.55037" lon="103.372768"><ele>1259.2747</ele><time>2026-04-04T04:23:02.000Z</time></trkpt>
        <trkpt lat="29.550332" lon="103.3728"><ele>1259.5303</ele><time>2026-04-04T04:23:05.000Z</time></trkpt>
        <trkpt lat="29.550282" lon="103.372822"><ele>1260.7008</ele><time>2026-04-04T04:23:09.000Z</time></trkpt>
        <trkpt lat="29.550243" lon="103.372876"><ele>1267.018</ele><time>2026-04-04T04:23:18.000Z</time></trkpt>
        <trkpt lat="29.550294" lon="103.372859"><ele>1268.4803</ele><time>2026-04-04T04:23:24.000Z</time></trkpt>
        <trkpt lat="29.550329" lon="103.372817"><ele>1269.4667</ele><time>2026-04-04T04:23:28.000Z</time></trkpt>
        <trkpt lat="29.550375" lon="103.372801"><ele>1270.8038</ele><time>2026-04-04T04:23:30.000Z</time></trkpt>
        <trkpt lat="29.550414" lon="103.372773"><ele>1273.3005</ele><time>2026-04-04T04:23:32.000Z</time></trkpt>
        <trkpt lat="29.550459" lon="103.372802"><ele>1280.9167</ele><time>2026-04-04T04:23:37.000Z</time></trkpt>
        <trkpt lat="29.550509" lon="103.372776"><ele>1284.4271</ele><time>2026-04-04T04:23:42.000Z</time></trkpt>
        <trkpt lat="29.550536" lon="103.37273"><ele>1284.434</ele><time>2026-04-04T04:23:44.000Z</time></trkpt>
        <trkpt lat="29.550574" lon="103.372669"><ele>1286.2695</ele><time>2026-04-04T04:23:46.000Z</time></trkpt>
        <trkpt lat="29.550596" lon="103.372604"><ele>1285.1068</ele><time>2026-04-04T04:23:48.000Z</time></trkpt>
        <trkpt lat="29.550622" lon="103.372555"><ele>1284.4188</ele><time>2026-04-04T04:23:50.000Z</time></trkpt>
        <trkpt lat="29.550677" lon="103.372525"><ele>1285.2432</ele><time>2026-04-04T04:23:53.000Z</time></trkpt>
        <trkpt lat="29.550725" lon="103.372526"><ele>1287.372</ele><time>2026-04-04T04:23:56.000Z</time></trkpt>
        <trkpt lat="29.550774" lon="103.372537"><ele>1290.9559</ele><time>2026-04-04T04:23:59.000Z</time></trkpt>
        <trkpt lat="29.550822" lon="103.372533"><ele>1293.5498</ele><time>2026-04-04T04:24:04.000Z</time></trkpt>
        <trkpt lat="29.550832" lon="103.372584"><ele>1292.5745</ele><time>2026-04-04T04:24:07.000Z</time></trkpt>
        <trkpt lat="29.550852" lon="103.372663"><ele>1290.6262</ele><time>2026-04-04T04:24:09.000Z</time></trkpt>
        <trkpt lat="29.550872" lon="103.37272"><ele>1290.9706</ele><time>2026-04-04T04:24:12.000Z</time></trkpt>
        <trkpt lat="29.550822" lon="103.372729"><ele>1283.7565</ele><time>2026-04-04T04:24:14.000Z</time></trkpt>
        <trkpt lat="29.550773" lon="103.372753"><ele>1277.6222</ele><time>2026-04-04T04:24:16.000Z</time></trkpt>
        <trkpt lat="29.550791" lon="103.372804"><ele>1270.4374</ele><time>2026-04-04T04:24:22.000Z</time></trkpt>
        <trkpt lat="29.550832" lon="103.37285"><ele>1271.2092</ele><time>2026-04-04T04:24:26.000Z</time></trkpt>
        <trkpt lat="29.550862" lon="103.372893"><ele>1269.142</ele><time>2026-04-04T04:24:30.000Z</time></trkpt>
        <trkpt lat="29.550893" lon="103.372931"><ele>1269.564</ele><time>2026-04-04T04:24:34.000Z</time></trkpt>
        <trkpt lat="29.550945" lon="103.372956"><ele>1268.8285</ele><time>2026-04-04T04:24:38.000Z</time></trkpt>
        <trkpt lat="29.550988" lon="103.372981"><ele>1266.0995</ele><time>2026-04-04T04:24:42.000Z</time></trkpt>
        <trkpt lat="29.551045" lon="103.372987"><ele>1266.5923</ele><time>2026-04-04T04:24:46.000Z</time></trkpt>
        <trkpt lat="29.551089" lon="103.372964"><ele>1268.8306</ele><time>2026-04-04T04:24:50.000Z</time></trkpt>
        <trkpt lat="29.551145" lon="103.372963"><ele>1269.3203</ele><time>2026-04-04T04:24:57.000Z</time></trkpt>
        <trkpt lat="29.551178" lon="103.373006"><ele>1265.7402</ele><time>2026-04-04T04:25:02.000Z</time></trkpt>
        <trkpt lat="29.55119" lon="103.373061"><ele>1260.1005</ele><time>2026-04-04T04:25:07.000Z</time></trkpt>
        <trkpt lat="29.551215" lon="103.37311"><ele>1256.7717</ele><time>2026-04-04T04:25:12.000Z</time></trkpt>
        <trkpt lat="29.551254" lon="103.373159"><ele>1253.9845</ele><time>2026-04-04T04:25:16.000Z</time></trkpt>
        <trkpt lat="29.551305" lon="103.373185"><ele>1254.9866</ele><time>2026-04-04T04:25:19.000Z</time></trkpt>
        <trkpt lat="29.551333" lon="103.373239"><ele>1251.8993</ele><time>2026-04-04T04:25:23.000Z</time></trkpt>
        <trkpt lat="29.551365" lon="103.37328"><ele>1251.109</ele><time>2026-04-04T04:25:27.000Z</time></trkpt>
        <trkpt lat="29.551375" lon="103.373331"><ele>1248.366</ele><time>2026-04-04T04:25:32.000Z</time></trkpt>
        <trkpt lat="29.551364" lon="103.373382"><ele>1248.5397</ele><time>2026-04-04T04:25:35.000Z</time></trkpt>
        <trkpt lat="29.551347" lon="103.373438"><ele>1249.3461</ele><time>2026-04-04T04:25:39.000Z</time></trkpt>
        <trkpt lat="29.551329" lon="103.373492"><ele>1252.9303</ele><time>2026-04-04T04:25:46.000Z</time></trkpt>
        <trkpt lat="29.551339" lon="103.373548"><ele>1250.6761</ele><time>2026-04-04T04:25:53.000Z</time></trkpt>
        <trkpt lat="29.551298" lon="103.373595"><ele>1248.7988</ele><time>2026-04-04T04:25:57.000Z</time></trkpt>
        <trkpt lat="29.551328" lon="103.373653"><ele>1250.0887</ele><time>2026-04-04T04:26:04.000Z</time></trkpt>
        <trkpt lat="29.551329" lon="103.373707"><ele>1252.7504</ele><time>2026-04-04T04:26:09.000Z</time></trkpt>
        <trkpt lat="29.551279" lon="103.373762"><ele>1252.7079</ele><time>2026-04-04T04:26:13.000Z</time></trkpt>
        <trkpt lat="29.551228" lon="103.373756"><ele>1253.9391</ele><time>2026-04-04T04:26:16.000Z</time></trkpt>
        <trkpt lat="29.55118" lon="103.373758"><ele>1254.2424</ele><time>2026-04-04T04:26:19.000Z</time></trkpt>
        <trkpt lat="29.551115" lon="103.373732"><ele>1252.3699</ele><time>2026-04-04T04:26:24.000Z</time></trkpt>
        <trkpt lat="29.551068" lon="103.373736"><ele>1254.7072</ele><time>2026-04-04T04:26:32.000Z</time></trkpt>
        <trkpt lat="29.551033" lon="103.373777"><ele>1255.5055</ele><time>2026-04-04T04:26:36.000Z</time></trkpt>
        <trkpt lat="29.551015" lon="103.373826"><ele>1256.8411</ele><time>2026-04-04T04:26:41.000Z</time></trkpt>
        <trkpt lat="29.551015" lon="103.373884"><ele>1260.8925</ele><time>2026-04-04T04:26:46.000Z</time></trkpt>
        <trkpt lat="29.550978" lon="103.373944"><ele>1263.074</ele><time>2026-04-04T04:26:52.000Z</time></trkpt>
        <trkpt lat="29.550957" lon="103.373991"><ele>1264.1127</ele><time>2026-04-04T04:26:58.000Z</time></trkpt>
        <trkpt lat="29.550982" lon="103.374063"><ele>1265.5151</ele><time>2026-04-04T04:27:06.000Z</time></trkpt>
        <trkpt lat="29.550932" lon="103.374083"><ele>1264.4412</ele><time>2026-04-04T04:27:16.000Z</time></trkpt>
        <trkpt lat="29.550893" lon="103.374158"><ele>1267.584</ele><time>2026-04-04T04:27:22.000Z</time></trkpt>
        <trkpt lat="29.550834" lon="103.374209"><ele>1269.82</ele><time>2026-04-04T04:27:28.000Z</time></trkpt>
        <trkpt lat="29.550895" lon="103.374228"><ele>1270.9714</ele><time>2026-04-04T04:27:37.000Z</time></trkpt>
        <trkpt lat="29.550843" lon="103.374209"><ele>1270.7308</ele><time>2026-04-04T04:27:38.000Z</time></trkpt>
        <trkpt lat="29.550806" lon="103.374177"><ele>1270.6106</ele><time>2026-04-04T04:27:40.000Z</time></trkpt>
        <trkpt lat="29.55071" lon="103.374211"><ele>1269.9712</ele><time>2026-04-04T04:27:41.000Z</time></trkpt>
        <trkpt lat="29.550653" lon="103.374304"><ele>1269.3076</ele><time>2026-04-04T04:27:42.000Z</time></trkpt>
        <trkpt lat="29.550627" lon="103.374242"><ele>1269.094</ele><time>2026-04-04T04:27:44.000Z</time></trkpt>
        <trkpt lat="29.55057" lon="103.374222"><ele>1266.741</ele><time>2026-04-04T04:27:48.000Z</time></trkpt>
        <trkpt lat="29.55052" lon="103.374205"><ele>1266.8558</ele><time>2026-04-04T04:27:51.000Z</time></trkpt>
        <trkpt lat="29.550473" lon="103.374202"><ele>1265.5505</ele><time>2026-04-04T04:27:55.000Z</time></trkpt>
        <trkpt lat="29.550418" lon="103.374229"><ele>1265.1324</ele><time>2026-04-04T04:27:59.000Z</time></trkpt>
        <trkpt lat="29.550372" lon="103.374252"><ele>1267.3242</ele><time>2026-04-04T04:28:03.000Z</time></trkpt>
        <trkpt lat="29.550325" lon="103.374279"><ele>1263.7434</ele><time>2026-04-04T04:28:08.000Z</time></trkpt>
        <trkpt lat="29.550282" lon="103.374323"><ele>1265.3188</ele><time>2026-04-04T04:28:14.000Z</time></trkpt>
        <trkpt lat="29.550253" lon="103.374364"><ele>1266.2726</ele><time>2026-04-04T04:28:19.000Z</time></trkpt>
        <trkpt lat="29.550213" lon="103.374389"><ele>1264.421</ele><time>2026-04-04T04:28:23.000Z</time></trkpt>
        <trkpt lat="29.550192" lon="103.374447"><ele>1265.0105</ele><time>2026-04-04T04:28:27.000Z</time></trkpt>
        <trkpt lat="29.550153" lon="103.374479"><ele>1265.0563</ele><time>2026-04-04T04:28:32.000Z</time></trkpt>
        <trkpt lat="29.550111" lon="103.374516"><ele>1259.8578</ele><time>2026-04-04T04:28:41.000Z</time></trkpt>
        <trkpt lat="29.550065" lon="103.374523"><ele>1259.6184</ele><time>2026-04-04T04:28:47.000Z</time></trkpt>
        <trkpt lat="29.550023" lon="103.374544"><ele>1263.1152</ele><time>2026-04-04T04:29:18.000Z</time></trkpt>
        <trkpt lat="29.550072" lon="103.374546"><ele>1264.0896</ele><time>2026-04-04T04:29:21.000Z</time></trkpt>
        <trkpt lat="29.550015" lon="103.374571"><ele>1260.2352</ele><time>2026-04-04T04:29:43.000Z</time></trkpt>
        <trkpt lat="29.550047" lon="103.374618"><ele>1260.1652</ele><time>2026-04-04T04:29:57.000Z</time></trkpt>
        <trkpt lat="29.549999" lon="103.374602"><ele>1263.1427</ele><time>2026-04-04T04:30:10.000Z</time></trkpt>
        <trkpt lat="29.549983" lon="103.374657"><ele>1261.2495</ele><time>2026-04-04T04:30:15.000Z</time></trkpt>
        <trkpt lat="29.550006" lon="103.374714"><ele>1266.1841</ele><time>2026-04-04T04:30:26.000Z</time></trkpt>
        <trkpt lat="29.550014" lon="103.37477"><ele>1268.6095</ele><time>2026-04-04T04:30:33.000Z</time></trkpt>
        <trkpt lat="29.550037" lon="103.374815"><ele>1271.9457</ele><time>2026-04-04T04:30:40.000Z</time></trkpt>
        <trkpt lat="29.550088" lon="103.374806"><ele>1264.7786</ele><time>2026-04-04T04:30:49.000Z</time></trkpt>
        <trkpt lat="29.550136" lon="103.374813"><ele>1259.5369</ele><time>2026-04-04T04:30:54.000Z</time></trkpt>
        <trkpt lat="29.550169" lon="103.37485"><ele>1260.577</ele><time>2026-04-04T04:30:57.000Z</time></trkpt>
        <trkpt lat="29.550175" lon="103.374902"><ele>1263.3142</ele><time>2026-04-04T04:31:07.000Z</time></trkpt>
        <trkpt lat="29.550223" lon="103.374905"><ele>1262.4432</ele><time>2026-04-04T04:31:16.000Z</time></trkpt>
        <trkpt lat="29.550264" lon="103.374943"><ele>1251.8491</ele><time>2026-04-04T04:31:23.000Z</time></trkpt>
        <trkpt lat="29.550321" lon="103.374938"><ele>1254.2279</ele><time>2026-04-04T04:31:26.000Z</time></trkpt>
        <trkpt lat="29.550369" lon="103.374941"><ele>1256.2886</ele><time>2026-04-04T04:31:33.000Z</time></trkpt>
        <trkpt lat="29.550417" lon="103.374945"><ele>1257.0417</ele><time>2026-04-04T04:31:45.000Z</time></trkpt>
        <trkpt lat="29.550456" lon="103.374979"><ele>1255.6469</ele><time>2026-04-04T04:31:52.000Z</time></trkpt>
        <trkpt lat="29.550494" lon="103.37501"><ele>1255.2927</ele><time>2026-04-04T04:32:00.000Z</time></trkpt>
        <trkpt lat="29.550543" lon="103.375029"><ele>1254.3291</ele><time>2026-04-04T04:32:04.000Z</time></trkpt>
        <trkpt lat="29.550589" lon="103.375054"><ele>1254.7141</ele><time>2026-04-04T04:32:08.000Z</time></trkpt>
        <trkpt lat="29.550627" lon="103.375092"><ele>1252.7437</ele><time>2026-04-04T04:32:13.000Z</time></trkpt>
        <trkpt lat="29.550667" lon="103.375124"><ele>1253.0067</ele><time>2026-04-04T04:32:17.000Z</time></trkpt>
        <trkpt lat="29.550706" lon="103.375157"><ele>1251.2966</ele><time>2026-04-04T04:32:21.000Z</time></trkpt>
        <trkpt lat="29.550752" lon="103.375171"><ele>1252.3689</ele><time>2026-04-04T04:32:25.000Z</time></trkpt>
        <trkpt lat="29.550794" lon="103.375198"><ele>1253.5427</ele><time>2026-04-04T04:32:30.000Z</time></trkpt>
        <trkpt lat="29.550841" lon="103.375205"><ele>1254.1211</ele><time>2026-04-04T04:32:35.000Z</time></trkpt>
        <trkpt lat="29.550887" lon="103.375218"><ele>1252.6411</ele><time>2026-04-04T04:32:39.000Z</time></trkpt>
        <trkpt lat="29.550937" lon="103.375239"><ele>1255.846</ele><time>2026-04-04T04:32:46.000Z</time></trkpt>
        <trkpt lat="29.550979" lon="103.375259"><ele>1254.4612</ele><time>2026-04-04T04:32:50.000Z</time></trkpt>
        <trkpt lat="29.551028" lon="103.375258"><ele>1248.8002</ele><time>2026-04-04T04:32:58.000Z</time></trkpt>
        <trkpt lat="29.551079" lon="103.375266"><ele>1243.2479</ele><time>2026-04-04T04:33:04.000Z</time></trkpt>
        <trkpt lat="29.55113" lon="103.375266"><ele>1242.6478</ele><time>2026-04-04T04:33:10.000Z</time></trkpt>
        <trkpt lat="29.55118" lon="103.375289"><ele>1242.7854</ele><time>2026-04-04T04:33:16.000Z</time></trkpt>
        <trkpt lat="29.551208" lon="103.375332"><ele>1239.843</ele><time>2026-04-04T04:33:25.000Z</time></trkpt>
        <trkpt lat="29.551247" lon="103.375358"><ele>1238.4347</ele><time>2026-04-04T04:33:33.000Z</time></trkpt>
        <trkpt lat="29.551298" lon="103.375372"><ele>1235.3619</ele><time>2026-04-04T04:33:40.000Z</time></trkpt>
        <trkpt lat="29.551353" lon="103.375374"><ele>1235.4803</ele><time>2026-04-04T04:33:46.000Z</time></trkpt>
        <trkpt lat="29.551397" lon="103.375406"><ele>1234.0579</ele><time>2026-04-04T04:33:50.000Z</time></trkpt>
        <trkpt lat="29.551447" lon="103.37543"><ele>1234.8926</ele><time>2026-04-04T04:33:57.000Z</time></trkpt>
        <trkpt lat="29.551486" lon="103.375456"><ele>1233.3536</ele><time>2026-04-04T04:34:03.000Z</time></trkpt>
        <trkpt lat="29.551538" lon="103.375493"><ele>1233.8368</ele><time>2026-04-04T04:34:10.000Z</time></trkpt>
        <trkpt lat="29.551583" lon="103.375527"><ele>1232.1868</ele><time>2026-04-04T04:34:15.000Z</time></trkpt>
        <trkpt lat="29.551621" lon="103.375574"><ele>1230.4015</ele><time>2026-04-04T04:34:20.000Z</time></trkpt>
        <trkpt lat="29.551655" lon="103.375632"><ele>1228.5707</ele><time>2026-04-04T04:34:24.000Z</time></trkpt>
        <trkpt lat="29.551686" lon="103.375696"><ele>1224.5903</ele><time>2026-04-04T04:34:28.000Z</time></trkpt>
        <trkpt lat="29.551704" lon="103.375745"><ele>1223.4</ele><time>2026-04-04T04:34:31.000Z</time></trkpt>
        <trkpt lat="29.551707" lon="103.375797"><ele>1221.7843</ele><time>2026-04-04T04:34:34.000Z</time></trkpt>
        <trkpt lat="29.551712" lon="103.375855"><ele>1221.6161</ele><time>2026-04-04T04:34:40.000Z</time></trkpt>
        <trkpt lat="29.551737" lon="103.375904"><ele>1223.4348</ele><time>2026-04-04T04:34:46.000Z</time></trkpt>
        <trkpt lat="29.551753" lon="103.375953"><ele>1221.3364</ele><time>2026-04-04T04:34:51.000Z</time></trkpt>
        <trkpt lat="29.55174" lon="103.376009"><ele>1221.143</ele><time>2026-04-04T04:34:58.000Z</time></trkpt>
        <trkpt lat="29.551734" lon="103.376069"><ele>1219.4984</ele><time>2026-04-04T04:35:07.000Z</time></trkpt>
        <trkpt lat="29.551762" lon="103.376113"><ele>1219.2932</ele><time>2026-04-04T04:35:13.000Z</time></trkpt>
        <trkpt lat="29.55177" lon="103.37617"><ele>1216.5393</ele><time>2026-04-04T04:35:22.000Z</time></trkpt>
        <trkpt lat="29.551767" lon="103.376223"><ele>1213.2017</ele><time>2026-04-04T04:35:30.000Z</time></trkpt>
        <trkpt lat="29.551738" lon="103.376273"><ele>1212.4609</ele><time>2026-04-04T04:35:38.000Z</time></trkpt>
        <trkpt lat="29.551719" lon="103.376326"><ele>1209.4739</ele><time>2026-04-04T04:35:45.000Z</time></trkpt>
        <trkpt lat="29.551722" lon="103.376379"><ele>1211.5536</ele><time>2026-04-04T04:35:52.000Z</time></trkpt>
        <trkpt lat="29.551767" lon="103.37642"><ele>1210.8544</ele><time>2026-04-04T04:35:58.000Z</time></trkpt>
        <trkpt lat="29.551814" lon="103.376427"><ele>1200.7103</ele><time>2026-04-04T04:36:21.000Z</time></trkpt>
        <trkpt lat="29.551812" lon="103.37648"><ele>1202.6501</ele><time>2026-04-04T04:36:38.000Z</time></trkpt>
        <trkpt lat="29.551803" lon="103.376535"><ele>1200.4011</ele><time>2026-04-04T04:36:53.000Z</time></trkpt>
        <trkpt lat="29.551847" lon="103.376561"><ele>1197.8152</ele><time>2026-04-04T04:37:00.000Z</time></trkpt>
        <trkpt lat="29.551823" lon="103.376611"><ele>1200.5684</ele><time>2026-04-04T04:37:09.000Z</time></trkpt>
        <trkpt lat="29.551828" lon="103.376663"><ele>1197.5055</ele><time>2026-04-04T04:37:30.000Z</time></trkpt>
        <trkpt lat="29.551869" lon="103.376686"><ele>1198.0583</ele><time>2026-04-04T04:37:48.000Z</time></trkpt>
        <trkpt lat="29.551881" lon="103.376749"><ele>1199.3188</ele><time>2026-04-04T04:37:58.000Z</time></trkpt>
        <trkpt lat="29.551894" lon="103.376802"><ele>1201.509</ele><time>2026-04-04T04:38:07.000Z</time></trkpt>
        <trkpt lat="29.551883" lon="103.376878"><ele>1201.7875</ele><time>2026-04-04T04:38:10.000Z</time></trkpt>
        <trkpt lat="29.551845" lon="103.376911"><ele>1203.0076</ele><time>2026-04-04T04:38:12.000Z</time></trkpt>
        <trkpt lat="29.551905" lon="103.3769"><ele>1204.5944</ele><time>2026-04-04T04:38:15.000Z</time></trkpt>
        <trkpt lat="29.55191" lon="103.376957"><ele>1205.4576</ele><time>2026-04-04T04:38:18.000Z</time></trkpt>
        <trkpt lat="29.551966" lon="103.377013"><ele>1204.9612</ele><time>2026-04-04T04:38:26.000Z</time></trkpt>
        <trkpt lat="29.551958" lon="103.376949"><ele>1203.3114</ele><time>2026-04-04T04:38:32.000Z</time></trkpt>
        <trkpt lat="29.551987" lon="103.3769"><ele>1201.7859</ele><time>2026-04-04T04:38:40.000Z</time></trkpt>
        <trkpt lat="29.551927" lon="103.37692"><ele>1201.0881</ele><time>2026-04-04T04:38:50.000Z</time></trkpt>
        <trkpt lat="29.55197" lon="103.376901"><ele>1198.7124</ele><time>2026-04-04T04:38:58.000Z</time></trkpt>
        <trkpt lat="29.552006" lon="103.376865"><ele>1194.6598</ele><time>2026-04-04T04:39:03.000Z</time></trkpt>
        <trkpt lat="29.552052" lon="103.376847"><ele>1196.0486</ele><time>2026-04-04T04:39:25.000Z</time></trkpt>
        <trkpt lat="29.552098" lon="103.376864"><ele>1191.7881</ele><time>2026-04-04T04:39:38.000Z</time></trkpt>
        <trkpt lat="29.552154" lon="103.376853"><ele>1193.4106</ele><time>2026-04-04T04:39:51.000Z</time></trkpt>
        <trkpt lat="29.552175" lon="103.3769"><ele>1191.4081</ele><time>2026-04-04T04:40:02.000Z</time></trkpt>
        <trkpt lat="29.552221" lon="103.376927"><ele>1188.6781</ele><time>2026-04-04T04:40:13.000Z</time></trkpt>
        <trkpt lat="29.552263" lon="103.376957"><ele>1186.8317</ele><time>2026-04-04T04:40:20.000Z</time></trkpt>
        <trkpt lat="29.55231" lon="103.376985"><ele>1186.1296</ele><time>2026-04-04T04:40:33.000Z</time></trkpt>
        <trkpt lat="29.552345" lon="103.377018"><ele>1184.2058</ele><time>2026-04-04T04:40:40.000Z</time></trkpt>
        <trkpt lat="29.5524" lon="103.377014"><ele>1180.7439</ele><time>2026-04-04T04:40:52.000Z</time></trkpt>
        <trkpt lat="29.552443" lon="103.377036"><ele>1177.0048</ele><time>2026-04-04T04:41:04.000Z</time></trkpt>
        <trkpt lat="29.552496" lon="103.377029"><ele>1178.9156</ele><time>2026-04-04T04:41:07.000Z</time></trkpt>
        <trkpt lat="29.552522" lon="103.377073"><ele>1176.3142</ele><time>2026-04-04T04:41:15.000Z</time></trkpt>
        <trkpt lat="29.552567" lon="103.37709"><ele>1176.0632</ele><time>2026-04-04T04:41:22.000Z</time></trkpt>
        <trkpt lat="29.552626" lon="103.377084"><ele>1164.3418</ele><time>2026-04-04T04:41:46.000Z</time></trkpt>
        <trkpt lat="29.552672" lon="103.377101"><ele>1163.0409</ele><time>2026-04-04T04:41:57.000Z</time></trkpt>
        <trkpt lat="29.552715" lon="103.377119"><ele>1159.1487</ele><time>2026-04-04T04:42:07.000Z</time></trkpt>
        <trkpt lat="29.552726" lon="103.37717"><ele>1155.2585</ele><time>2026-04-04T04:42:23.000Z</time></trkpt>
        <trkpt lat="29.552756" lon="103.377211"><ele>1150.8414</ele><time>2026-04-04T04:42:33.000Z</time></trkpt>
        <trkpt lat="29.552799" lon="103.377247"><ele>1150.0446</ele><time>2026-04-04T04:42:45.000Z</time></trkpt>
        <trkpt lat="29.552853" lon="103.377244"><ele>1148.446</ele><time>2026-04-04T04:42:56.000Z</time></trkpt>
        <trkpt lat="29.552916" lon="103.377278"><ele>1146.2489</ele><time>2026-04-04T04:43:06.000Z</time></trkpt>
        <trkpt lat="29.552962" lon="103.377307"><ele>1142.2291</ele><time>2026-04-04T04:43:20.000Z</time></trkpt>
        <trkpt lat="29.553011" lon="103.377345"><ele>1142.8651</ele><time>2026-04-04T04:43:26.000Z</time></trkpt>
        <trkpt lat="29.553024" lon="103.377397"><ele>1140.1433</ele><time>2026-04-04T04:43:38.000Z</time></trkpt>
        <trkpt lat="29.553067" lon="103.377427"><ele>1136.7583</ele><time>2026-04-04T04:43:52.000Z</time></trkpt>
        <trkpt lat="29.553121" lon="103.377439"><ele>1137.4816</ele><time>2026-04-04T04:44:14.000Z</time></trkpt>
        <trkpt lat="29.553117" lon="103.377494"><ele>1133.7089</ele><time>2026-04-04T04:44:39.000Z</time></trkpt>
        <trkpt lat="29.553144" lon="103.377539"><ele>1129.3423</ele><time>2026-04-04T04:44:55.000Z</time></trkpt>
        <trkpt lat="29.553186" lon="103.377559"><ele>1127.5652</ele><time>2026-04-04T04:45:01.000Z</time></trkpt>
        <trkpt lat="29.553228" lon="103.37759"><ele>1127.8788</ele><time>2026-04-04T04:45:11.000Z</time></trkpt>
        <trkpt lat="29.55326" lon="103.377628"><ele>1128.776</ele><time>2026-04-04T04:45:20.000Z</time></trkpt>
        <trkpt lat="29.553283" lon="103.377677"><ele>1126.8263</ele><time>2026-04-04T04:45:31.000Z</time></trkpt>
        <trkpt lat="29.553318" lon="103.377728"><ele>1127.5133</ele><time>2026-04-04T04:45:38.000Z</time></trkpt>
        <trkpt lat="29.553355" lon="103.377761"><ele>1119.6731</ele><time>2026-04-04T04:45:58.000Z</time></trkpt>
        <trkpt lat="29.553392" lon="103.377794"><ele>1112.1665</ele><time>2026-04-04T04:46:22.000Z</time></trkpt>
        <trkpt lat="29.553435" lon="103.377827"><ele>1109.4767</ele><time>2026-04-04T04:46:37.000Z</time></trkpt>
        <trkpt lat="29.553448" lon="103.377878"><ele>1109.4067</ele><time>2026-04-04T04:46:43.000Z</time></trkpt>
        <trkpt lat="29.553494" lon="103.3779"><ele>1107.8115</ele><time>2026-04-04T04:47:00.000Z</time></trkpt>
        <trkpt lat="29.553538" lon="103.377942"><ele>1106.6553</ele><time>2026-04-04T04:47:20.000Z</time></trkpt>
        <trkpt lat="29.553585" lon="103.377956"><ele>1109.6772</ele><time>2026-04-04T04:47:24.000Z</time></trkpt>
        <trkpt lat="29.553579" lon="103.378011"><ele>1104.7131</ele><time>2026-04-04T04:47:35.000Z</time></trkpt>
        <trkpt lat="29.553596" lon="103.37806"><ele>1100.3479</ele><time>2026-04-04T04:47:42.000Z</time></trkpt>
        <trkpt lat="29.553622" lon="103.37811"><ele>1098.1831</ele><time>2026-04-04T04:47:53.000Z</time></trkpt>
        <trkpt lat="29.553658" lon="103.378144"><ele>1097.4296</ele><time>2026-04-04T04:48:02.000Z</time></trkpt>
        <trkpt lat="29.553679" lon="103.378192"><ele>1098.5145</ele><time>2026-04-04T04:48:08.000Z</time></trkpt>
        <trkpt lat="29.553689" lon="103.378249"><ele>1095.7985</ele><time>2026-04-04T04:48:13.000Z</time></trkpt>
        <trkpt lat="29.553713" lon="103.378301"><ele>1094.5162</ele><time>2026-04-04T04:48:20.000Z</time></trkpt>
        <trkpt lat="29.55375" lon="103.378348"><ele>1091.9507</ele><time>2026-04-04T04:48:25.000Z</time></trkpt>
        <trkpt lat="29.553782" lon="103.378389"><ele>1088.2484</ele><time>2026-04-04T04:48:30.000Z</time></trkpt>
        <trkpt lat="29.553816" lon="103.378444"><ele>1087.9606</ele><time>2026-04-04T04:48:35.000Z</time></trkpt>
        <trkpt lat="29.553831" lon="103.378497"><ele>1084.22</ele><time>2026-04-04T04:48:43.000Z</time></trkpt>
        <trkpt lat="29.553835" lon="103.378552"><ele>1083.6754</ele><time>2026-04-04T04:48:56.000Z</time></trkpt>
        <trkpt lat="29.553863" lon="103.378599"><ele>1082.2905</ele><time>2026-04-04T04:49:04.000Z</time></trkpt>
        <trkpt lat="29.553886" lon="103.378648"><ele>1079.5925</ele><time>2026-04-04T04:49:11.000Z</time></trkpt>
        <trkpt lat="29.553906" lon="103.378703"><ele>1078.664</ele><time>2026-04-04T04:49:16.000Z</time></trkpt>
        <trkpt lat="29.553885" lon="103.378749"><ele>1076.6599</ele><time>2026-04-04T04:49:21.000Z</time></trkpt>
        <trkpt lat="29.553881" lon="103.378808"><ele>1078.4915</ele><time>2026-04-04T04:49:26.000Z</time></trkpt>
        <trkpt lat="29.553868" lon="103.378859"><ele>1077.8037</ele><time>2026-04-04T04:49:31.000Z</time></trkpt>
        <trkpt lat="29.553866" lon="103.378924"><ele>1078.2001</ele><time>2026-04-04T04:49:36.000Z</time></trkpt>
        <trkpt lat="29.55385" lon="103.378978"><ele>1078.9319</ele><time>2026-04-04T04:49:39.000Z</time></trkpt>
        <trkpt lat="29.55383" lon="103.379034"><ele>1076.4578</ele><time>2026-04-04T04:49:43.000Z</time></trkpt>
        <trkpt lat="29.553837" lon="103.379093"><ele>1076.1777</ele><time>2026-04-04T04:49:48.000Z</time></trkpt>
        <trkpt lat="29.553846" lon="103.379145"><ele>1075.0344</ele><time>2026-04-04T04:49:53.000Z</time></trkpt>
        <trkpt lat="29.55384" lon="103.379203"><ele>1074.6982</ele><time>2026-04-04T04:49:59.000Z</time></trkpt>
        <trkpt lat="29.553859" lon="103.379256"><ele>1073.9377</ele><time>2026-04-04T04:50:04.000Z</time></trkpt>
        <trkpt lat="29.553879" lon="103.379302"><ele>1074.5339</ele><time>2026-04-04T04:50:08.000Z</time></trkpt>
        <trkpt lat="29.553894" lon="103.379358"><ele>1074.1035</ele><time>2026-04-04T04:50:13.000Z</time></trkpt>
        <trkpt lat="29.553924" lon="103.379402"><ele>1074.1388</ele><time>2026-04-04T04:50:18.000Z</time></trkpt>
        <trkpt lat="29.553929" lon="103.379463"><ele>1074.1385</ele><time>2026-04-04T04:50:22.000Z</time></trkpt>
        <trkpt lat="29.553923" lon="103.379519"><ele>1070.9082</ele><time>2026-04-04T04:50:26.000Z</time></trkpt>
        <trkpt lat="29.553939" lon="103.379575"><ele>1067.5852</ele><time>2026-04-04T04:50:31.000Z</time></trkpt>
        <trkpt lat="29.553958" lon="103.379629"><ele>1068.4009</ele><time>2026-04-04T04:50:36.000Z</time></trkpt>
        <trkpt lat="29.553955" lon="103.379682"><ele>1065.7108</ele><time>2026-04-04T04:50:43.000Z</time></trkpt>
        <trkpt lat="29.553975" lon="103.379728"><ele>1063.2661</ele><time>2026-04-04T04:50:51.000Z</time></trkpt>
        <trkpt lat="29.553989" lon="103.379786"><ele>1062.0859</ele><time>2026-04-04T04:51:01.000Z</time></trkpt>
        <trkpt lat="29.553966" lon="103.379834"><ele>1060.8347</ele><time>2026-04-04T04:51:09.000Z</time></trkpt>
        <trkpt lat="29.553982" lon="103.379886"><ele>1059.2513</ele><time>2026-04-04T04:51:15.000Z</time></trkpt>
        <trkpt lat="29.554016" lon="103.379932"><ele>1056.8745</ele><time>2026-04-04T04:51:22.000Z</time></trkpt>
        <trkpt lat="29.554048" lon="103.379971"><ele>1058.1906</ele><time>2026-04-04T04:51:28.000Z</time></trkpt>
        <trkpt lat="29.554071" lon="103.380024"><ele>1057.452</ele><time>2026-04-04T04:51:35.000Z</time></trkpt>
        <trkpt lat="29.55408" lon="103.380085"><ele>1055.8505</ele><time>2026-04-04T04:51:43.000Z</time></trkpt>
        <trkpt lat="29.554084" lon="103.380139"><ele>1054.082</ele><time>2026-04-04T04:51:47.000Z</time></trkpt>
        <trkpt lat="29.554074" lon="103.380199"><ele>1053.1577</ele><time>2026-04-04T04:51:53.000Z</time></trkpt>
        <trkpt lat="29.554064" lon="103.38026"><ele>1050.8583</ele><time>2026-04-04T04:51:57.000Z</time></trkpt>
        <trkpt lat="29.554062" lon="103.380312"><ele>1049.4625</ele><time>2026-04-04T04:52:01.000Z</time></trkpt>
        <trkpt lat="29.554064" lon="103.380364"><ele>1049.1953</ele><time>2026-04-04T04:52:05.000Z</time></trkpt>
        <trkpt lat="29.554075" lon="103.380424"><ele>1051.8031</ele><time>2026-04-04T04:52:09.000Z</time></trkpt>
        <trkpt lat="29.554097" lon="103.380481"><ele>1050.5391</ele><time>2026-04-04T04:52:15.000Z</time></trkpt>
        <trkpt lat="29.554099" lon="103.380534"><ele>1049.4386</ele><time>2026-04-04T04:52:20.000Z</time></trkpt>
        <trkpt lat="29.554112" lon="103.380591"><ele>1047.9076</ele><time>2026-04-04T04:52:25.000Z</time></trkpt>
        <trkpt lat="29.554103" lon="103.380649"><ele>1046.4928</ele><time>2026-04-04T04:52:30.000Z</time></trkpt>
        <trkpt lat="29.554099" lon="103.380702"><ele>1044.6974</ele><time>2026-04-04T04:52:35.000Z</time></trkpt>
        <trkpt lat="29.554055" lon="103.380737"><ele>1044.006</ele><time>2026-04-04T04:52:40.000Z</time></trkpt>
        <trkpt lat="29.554034" lon="103.380787"><ele>1044.1195</ele><time>2026-04-04T04:52:44.000Z</time></trkpt>
        <trkpt lat="29.554023" lon="103.380848"><ele>1043.966</ele><time>2026-04-04T04:52:50.000Z</time></trkpt>
        <trkpt lat="29.554012" lon="103.380905"><ele>1043.6588</ele><time>2026-04-04T04:52:54.000Z</time></trkpt>
        <trkpt lat="29.553991" lon="103.380954"><ele>1044.9388</ele><time>2026-04-04T04:52:59.000Z</time></trkpt>
        <trkpt lat="29.554021" lon="103.381001"><ele>1049.3916</ele><time>2026-04-04T04:53:05.000Z</time></trkpt>
        <trkpt lat="29.554049" lon="103.381048"><ele>1052.9536</ele><time>2026-04-04T04:53:10.000Z</time></trkpt>
        <trkpt lat="29.554087" lon="103.38108"><ele>1054.2053</ele><time>2026-04-04T04:53:14.000Z</time></trkpt>
        <trkpt lat="29.554116" lon="103.381121"><ele>1056.0725</ele><time>2026-04-04T04:53:17.000Z</time></trkpt>
        <trkpt lat="29.55413" lon="103.381173"><ele>1052.0314</ele><time>2026-04-04T04:53:23.000Z</time></trkpt>
        <trkpt lat="29.55413" lon="103.381231"><ele>1049.105</ele><time>2026-04-04T04:53:27.000Z</time></trkpt>
        <trkpt lat="29.554115" lon="103.38128"><ele>1049.1106</ele><time>2026-04-04T04:53:30.000Z</time></trkpt>
        <trkpt lat="29.554107" lon="103.381333"><ele>1046.451</ele><time>2026-04-04T04:53:33.000Z</time></trkpt>
        <trkpt lat="29.554131" lon="103.38138"><ele>1046.8241</ele><time>2026-04-04T04:53:37.000Z</time></trkpt>
        <trkpt lat="29.554145" lon="103.381431"><ele>1045.545</ele><time>2026-04-04T04:53:43.000Z</time></trkpt>
        <trkpt lat="29.554151" lon="103.381496"><ele>1046.6538</ele><time>2026-04-04T04:53:47.000Z</time></trkpt>
        <trkpt lat="29.55414" lon="103.381547"><ele>1045.1244</ele><time>2026-04-04T04:53:50.000Z</time></trkpt>
        <trkpt lat="29.554156" lon="103.381599"><ele>1042.6073</ele><time>2026-04-04T04:53:53.000Z</time></trkpt>
        <trkpt lat="29.554155" lon="103.381653"><ele>1040.6647</ele><time>2026-04-04T04:53:57.000Z</time></trkpt>
        <trkpt lat="29.55415" lon="103.381705"><ele>1037.9408</ele><time>2026-04-04T04:54:01.000Z</time></trkpt>
        <trkpt lat="29.55417" lon="103.381757"><ele>1036.688</ele><time>2026-04-04T04:54:07.000Z</time></trkpt>
        <trkpt lat="29.554188" lon="103.381805"><ele>1037.8671</ele><time>2026-04-04T04:54:15.000Z</time></trkpt>
        <trkpt lat="29.554202" lon="103.381859"><ele>1034.8859</ele><time>2026-04-04T04:54:27.000Z</time></trkpt>
        <trkpt lat="29.554221" lon="103.381906"><ele>1034.0587</ele><time>2026-04-04T04:54:32.000Z</time></trkpt>
        <trkpt lat="29.554237" lon="103.381967"><ele>1033.845</ele><time>2026-04-04T04:54:38.000Z</time></trkpt>
        <trkpt lat="29.554269" lon="103.382004"><ele>1034.8707</ele><time>2026-04-04T04:54:42.000Z</time></trkpt>
        <trkpt lat="29.554286" lon="103.382063"><ele>1036.4099</ele><time>2026-04-04T04:54:47.000Z</time></trkpt>
        <trkpt lat="29.554276" lon="103.382124"><ele>1033.5527</ele><time>2026-04-04T04:54:52.000Z</time></trkpt>
        <trkpt lat="29.55427" lon="103.382179"><ele>1034.6177</ele><time>2026-04-04T04:55:00.000Z</time></trkpt>
        <trkpt lat="29.554292" lon="103.382235"><ele>1035.7573</ele><time>2026-04-04T04:55:05.000Z</time></trkpt>
        <trkpt lat="29.554288" lon="103.382291"><ele>1035.4756</ele><time>2026-04-04T04:55:10.000Z</time></trkpt>
        <trkpt lat="29.554286" lon="103.382349"><ele>1034.6722</ele><time>2026-04-04T04:55:15.000Z</time></trkpt>
        <trkpt lat="29.554303" lon="103.382407"><ele>1034.6786</ele><time>2026-04-04T04:55:19.000Z</time></trkpt>
        <trkpt lat="29.554311" lon="103.382459"><ele>1032.5688</ele><time>2026-04-04T04:55:23.000Z</time></trkpt>
        <trkpt lat="29.554347" lon="103.382502"><ele>1030.666</ele><time>2026-04-04T04:55:30.000Z</time></trkpt>
        <trkpt lat="29.554382" lon="103.382546"><ele>1030.1598</ele><time>2026-04-04T04:55:39.000Z</time></trkpt>
        <trkpt lat="29.554391" lon="103.382602"><ele>1025.7457</ele><time>2026-04-04T04:55:45.000Z</time></trkpt>
        <trkpt lat="29.554413" lon="103.382649"><ele>1021.2864</ele><time>2026-04-04T04:55:52.000Z</time></trkpt>
        <trkpt lat="29.554437" lon="103.382695"><ele>1019.6414</ele><time>2026-04-04T04:55:58.000Z</time></trkpt>
        <trkpt lat="29.554428" lon="103.382748"><ele>1018.9512</ele><time>2026-04-04T04:56:08.000Z</time></trkpt>
        <trkpt lat="29.554407" lon="103.3828"><ele>1015.97125</ele><time>2026-04-04T04:56:18.000Z</time></trkpt>
        <trkpt lat="29.554398" lon="103.382852"><ele>1014.10547</ele><time>2026-04-04T04:56:29.000Z</time></trkpt>
        <trkpt lat="29.554415" lon="103.382907"><ele>1016.3033</ele><time>2026-04-04T04:56:38.000Z</time></trkpt>
        <trkpt lat="29.55441" lon="103.382959"><ele>1014.0887</ele><time>2026-04-04T04:56:45.000Z</time></trkpt>
        <trkpt lat="29.554442" lon="103.382999"><ele>1016.1918</ele><time>2026-04-04T04:56:53.000Z</time></trkpt>
        <trkpt lat="29.554494" lon="103.383019"><ele>1013.56744</ele><time>2026-04-04T04:57:00.000Z</time></trkpt>
        <trkpt lat="29.554522" lon="103.383064"><ele>1010.9787</ele><time>2026-04-04T04:57:05.000Z</time></trkpt>
        <trkpt lat="29.554568" lon="103.383095"><ele>1012.569</ele><time>2026-04-04T04:57:09.000Z</time></trkpt>
        <trkpt lat="29.554588" lon="103.383142"><ele>1012.7735</ele><time>2026-04-04T04:57:14.000Z</time></trkpt>
        <trkpt lat="29.554616" lon="103.383183"><ele>1012.32513</ele><time>2026-04-04T04:57:22.000Z</time></trkpt>
        <trkpt lat="29.554656" lon="103.383229"><ele>1012.49817</ele><time>2026-04-04T04:57:26.000Z</time></trkpt>
        <trkpt lat="29.554708" lon="103.383233"><ele>1014.0281</ele><time>2026-04-04T04:57:30.000Z</time></trkpt>
        <trkpt lat="29.554762" lon="103.383255"><ele>1012.3298</ele><time>2026-04-04T04:57:34.000Z</time></trkpt>
        <trkpt lat="29.554812" lon="103.383281"><ele>1011.8813</ele><time>2026-04-04T04:57:38.000Z</time></trkpt>
        <trkpt lat="29.554856" lon="103.383321"><ele>1011.0851</ele><time>2026-04-04T04:57:42.000Z</time></trkpt>
        <trkpt lat="29.554901" lon="103.383363"><ele>1010.1161</ele><time>2026-04-04T04:57:47.000Z</time></trkpt>
        <trkpt lat="29.554924" lon="103.383416"><ele>1007.4765</ele><time>2026-04-04T04:57:51.000Z</time></trkpt>
        <trkpt lat="29.55496" lon="103.383447"><ele>1005.5403</ele><time>2026-04-04T04:57:54.000Z</time></trkpt>
        <trkpt lat="29.555004" lon="103.383476"><ele>1002.50525</ele><time>2026-04-04T04:57:59.000Z</time></trkpt>
        <trkpt lat="29.555041" lon="103.383513"><ele>1000.8269</ele><time>2026-04-04T04:58:05.000Z</time></trkpt>
        <trkpt lat="29.555048" lon="103.383579"><ele>997.6163</ele><time>2026-04-04T04:58:12.000Z</time></trkpt>
        <trkpt lat="29.555077" lon="103.383634"><ele>997.25824</ele><time>2026-04-04T04:58:17.000Z</time></trkpt>
        <trkpt lat="29.555087" lon="103.383693"><ele>998.6135</ele><time>2026-04-04T04:58:23.000Z</time></trkpt>
        <trkpt lat="29.555071" lon="103.383748"><ele>998.1158</ele><time>2026-04-04T04:58:29.000Z</time></trkpt>
        <trkpt lat="29.555037" lon="103.383783"><ele>998.2458</ele><time>2026-04-04T04:58:34.000Z</time></trkpt>
        <trkpt lat="29.555012" lon="103.383832"><ele>997.8842</ele><time>2026-04-04T04:58:39.000Z</time></trkpt>
        <trkpt lat="29.554964" lon="103.383865"><ele>997.663</ele><time>2026-04-04T04:58:46.000Z</time></trkpt>
        <trkpt lat="29.554954" lon="103.383918"><ele>998.923</ele><time>2026-04-04T04:58:51.000Z</time></trkpt>
        <trkpt lat="29.554969" lon="103.383972"><ele>1001.98517</ele><time>2026-04-04T04:58:56.000Z</time></trkpt>
        <trkpt lat="29.555012" lon="103.384012"><ele>1005.1042</ele><time>2026-04-04T04:59:01.000Z</time></trkpt>
        <trkpt lat="29.555018" lon="103.384065"><ele>1004.5954</ele><time>2026-04-04T04:59:07.000Z</time></trkpt>
        <trkpt lat="29.555022" lon="103.38412"><ele>1002.15314</ele><time>2026-04-04T04:59:11.000Z</time></trkpt>
        <trkpt lat="29.55504" lon="103.384168"><ele>1002.2052</ele><time>2026-04-04T04:59:17.000Z</time></trkpt>
        <trkpt lat="29.555071" lon="103.384214"><ele>1000.4199</ele><time>2026-04-04T04:59:24.000Z</time></trkpt>
        <trkpt lat="29.555072" lon="103.384267"><ele>999.82623</ele><time>2026-04-04T04:59:30.000Z</time></trkpt>
        <trkpt lat="29.555027" lon="103.384302"><ele>999.07715</ele><time>2026-04-04T04:59:40.000Z</time></trkpt>
        <trkpt lat="29.55499" lon="103.384342"><ele>997.76154</ele><time>2026-04-04T04:59:48.000Z</time></trkpt>
        <trkpt lat="29.554952" lon="103.384381"><ele>996.7446</ele><time>2026-04-04T04:59:56.000Z</time></trkpt>
        <trkpt lat="29.554913" lon="103.384418"><ele>993.68805</ele><time>2026-04-04T05:00:03.000Z</time></trkpt>
        <trkpt lat="29.554874" lon="103.384455"><ele>994.82996</ele><time>2026-04-04T05:00:12.000Z</time></trkpt>
        <trkpt lat="29.554831" lon="103.384487"><ele>993.732</ele><time>2026-04-04T05:00:26.000Z</time></trkpt>
        <trkpt lat="29.554795" lon="103.38452"><ele>990.8854</ele><time>2026-04-04T05:00:35.000Z</time></trkpt>
        <trkpt lat="29.554756" lon="103.384557"><ele>986.59534</ele><time>2026-04-04T05:00:47.000Z</time></trkpt>
        <trkpt lat="29.554711" lon="103.384572"><ele>983.28973</ele><time>2026-04-04T05:01:05.000Z</time></trkpt>
        <trkpt lat="29.554663" lon="103.384588"><ele>978.123</ele><time>2026-04-04T05:01:20.000Z</time></trkpt>
        <trkpt lat="29.554672" lon="103.384642"><ele>978.9448</ele><time>2026-04-04T05:01:33.000Z</time></trkpt>
        <trkpt lat="29.554696" lon="103.384694"><ele>977.0775</ele><time>2026-04-04T05:01:42.000Z</time></trkpt>
        <trkpt lat="29.554729" lon="103.38473"><ele>973.75275</ele><time>2026-04-04T05:01:51.000Z</time></trkpt>
        <trkpt lat="29.554759" lon="103.38478"><ele>973.8929</ele><time>2026-04-04T05:01:57.000Z</time></trkpt>
        <trkpt lat="29.554789" lon="103.384828"><ele>975.2271</ele><time>2026-04-04T05:02:07.000Z</time></trkpt>
        <trkpt lat="29.554836" lon="103.384874"><ele>974.7495</ele><time>2026-04-04T05:02:13.000Z</time></trkpt>
        <trkpt lat="29.554867" lon="103.384924"><ele>973.57275</ele><time>2026-04-04T05:02:21.000Z</time></trkpt>
        <trkpt lat="29.554909" lon="103.384946"><ele>972.1642</ele><time>2026-04-04T05:02:27.000Z</time></trkpt>
        <trkpt lat="29.554941" lon="103.384997"><ele>970.1974</ele><time>2026-04-04T05:02:32.000Z</time></trkpt>
        <trkpt lat="29.554978" lon="103.384963"><ele>967.5074</ele><time>2026-04-04T05:02:38.000Z</time></trkpt>
        <trkpt lat="29.555025" lon="103.384976"><ele>963.5012</ele><time>2026-04-04T05:02:47.000Z</time></trkpt>
        <trkpt lat="29.555055" lon="103.385019"><ele>961.77997</ele><time>2026-04-04T05:02:53.000Z</time></trkpt>
        <trkpt lat="29.555099" lon="103.385046"><ele>960.795</ele><time>2026-04-04T05:02:59.000Z</time></trkpt>
        <trkpt lat="29.555138" lon="103.385076"><ele>963.5206</ele><time>2026-04-04T05:03:05.000Z</time></trkpt>
        <trkpt lat="29.555188" lon="103.385075"><ele>958.0883</ele><time>2026-04-04T05:03:11.000Z</time></trkpt>
        <trkpt lat="29.555235" lon="103.385082"><ele>957.4375</ele><time>2026-04-04T05:03:16.000Z</time></trkpt>
        <trkpt lat="29.555282" lon="103.385061"><ele>954.2295</ele><time>2026-04-04T05:03:27.000Z</time></trkpt>
        <trkpt lat="29.555322" lon="103.385094"><ele>951.4416</ele><time>2026-04-04T05:03:39.000Z</time></trkpt>
        <trkpt lat="29.555345" lon="103.385144"><ele>951.8429</ele><time>2026-04-04T05:03:44.000Z</time></trkpt>
        <trkpt lat="29.555391" lon="103.385139"><ele>950.751</ele><time>2026-04-04T05:03:54.000Z</time></trkpt>
        <trkpt lat="29.555437" lon="103.385133"><ele>949.4362</ele><time>2026-04-04T05:04:01.000Z</time></trkpt>
        <trkpt lat="29.555474" lon="103.385103"><ele>946.7164</ele><time>2026-04-04T05:04:10.000Z</time></trkpt>
        <trkpt lat="29.555518" lon="103.385135"><ele>947.9798</ele><time>2026-04-04T05:04:29.000Z</time></trkpt>
        <trkpt lat="29.555569" lon="103.385154"><ele>946.13446</ele><time>2026-04-04T05:04:34.000Z</time></trkpt>
        <trkpt lat="29.55562" lon="103.385157"><ele>944.81995</ele><time>2026-04-04T05:04:41.000Z</time></trkpt>
        <trkpt lat="29.555657" lon="103.385189"><ele>942.65594</ele><time>2026-04-04T05:04:53.000Z</time></trkpt>
        <trkpt lat="29.555701" lon="103.385164"><ele>940.77856</ele><time>2026-04-04T05:05:01.000Z</time></trkpt>
        <trkpt lat="29.555694" lon="103.385215"><ele>937.2237</ele><time>2026-04-04T05:05:34.000Z</time></trkpt>
        <trkpt lat="29.555685" lon="103.385267"><ele>936.22314</ele><time>2026-04-04T05:05:42.000Z</time></trkpt>
        <trkpt lat="29.555682" lon="103.385323"><ele>931.90784</ele><time>2026-04-04T05:05:55.000Z</time></trkpt>
        <trkpt lat="29.555663" lon="103.38537"><ele>932.1924</ele><time>2026-04-04T05:14:52.000Z</time></trkpt>
        <trkpt lat="29.555721" lon="103.385368"><ele>931.68567</ele><time>2026-04-04T05:16:30.000Z</time></trkpt>
        <trkpt lat="29.555677" lon="103.385391"><ele>932.56476</ele><time>2026-04-04T05:17:07.000Z</time></trkpt>
        <trkpt lat="29.555716" lon="103.385425"><ele>925.7521</ele><time>2026-04-04T05:19:26.000Z</time></trkpt>
        <trkpt lat="29.555746" lon="103.385465"><ele>919.91187</ele><time>2026-04-04T05:19:39.000Z</time></trkpt>
        <trkpt lat="29.55577" lon="103.385509"><ele>917.5437</ele><time>2026-04-04T05:19:45.000Z</time></trkpt>
        <trkpt lat="29.555782" lon="103.385566"><ele>916.31494</ele><time>2026-04-04T05:19:54.000Z</time></trkpt>
        <trkpt lat="29.555819" lon="103.385605"><ele>913.5061</ele><time>2026-04-04T05:20:00.000Z</time></trkpt>
        <trkpt lat="29.555865" lon="103.385609"><ele>911.52527</ele><time>2026-04-04T05:20:06.000Z</time></trkpt>
        <trkpt lat="29.555902" lon="103.385576"><ele>909.76666</ele><time>2026-04-04T05:20:10.000Z</time></trkpt>
        <trkpt lat="29.55595" lon="103.385586"><ele>908.58026</ele><time>2026-04-04T05:20:18.000Z</time></trkpt>
        <trkpt lat="29.555921" lon="103.38563"><ele>907.4854</ele><time>2026-04-04T05:20:25.000Z</time></trkpt>
        <trkpt lat="29.555973" lon="103.385639"><ele>904.4536</ele><time>2026-04-04T05:20:33.000Z</time></trkpt>
        <trkpt lat="29.556009" lon="103.385587"><ele>901.1849</ele><time>2026-04-04T05:20:39.000Z</time></trkpt>
        <trkpt lat="29.556064" lon="103.385558"><ele>900.2058</ele><time>2026-04-04T05:20:46.000Z</time></trkpt>
        <trkpt lat="29.556112" lon="103.385542"><ele>901.3767</ele><time>2026-04-04T05:20:50.000Z</time></trkpt>
        <trkpt lat="29.556095" lon="103.385593"><ele>893.65283</ele><time>2026-04-04T05:21:05.000Z</time></trkpt>
        <trkpt lat="29.556092" lon="103.38567"><ele>893.62946</ele><time>2026-04-04T05:21:10.000Z</time></trkpt>
        <trkpt lat="29.556095" lon="103.385725"><ele>888.90894</ele><time>2026-04-04T05:21:15.000Z</time></trkpt>
        <trkpt lat="29.556085" lon="103.385784"><ele>887.6817</ele><time>2026-04-04T05:21:20.000Z</time></trkpt>
        <trkpt lat="29.556063" lon="103.385837"><ele>887.43695</ele><time>2026-04-04T05:21:24.000Z</time></trkpt>
        <trkpt lat="29.556032" lon="103.385879"><ele>885.42834</ele><time>2026-04-04T05:21:28.000Z</time></trkpt>
        <trkpt lat="29.556052" lon="103.385936"><ele>883.4269</ele><time>2026-04-04T05:21:37.000Z</time></trkpt>
        <trkpt lat="29.556095" lon="103.385958"><ele>882.603</ele><time>2026-04-04T05:21:39.000Z</time></trkpt>
        <trkpt lat="29.556138" lon="103.385976"><ele>880.18024</ele><time>2026-04-04T05:21:43.000Z</time></trkpt>
        <trkpt lat="29.556085" lon="103.385988"><ele>879.414</ele><time>2026-04-04T05:21:50.000Z</time></trkpt>
        <trkpt lat="29.556033" lon="103.385988"><ele>878.7686</ele><time>2026-04-04T05:21:55.000Z</time></trkpt>
        <trkpt lat="29.555987" lon="103.385984"><ele>877.91437</ele><time>2026-04-04T05:21:59.000Z</time></trkpt>
        <trkpt lat="29.556003" lon="103.386036"><ele>876.3872</ele><time>2026-04-04T05:22:10.000Z</time></trkpt>
        <trkpt lat="29.556039" lon="103.386079"><ele>876.409</ele><time>2026-04-04T05:22:18.000Z</time></trkpt>
        <trkpt lat="29.556082" lon="103.386117"><ele>873.4068</ele><time>2026-04-04T05:22:24.000Z</time></trkpt>
        <trkpt lat="29.556123" lon="103.386143"><ele>871.33575</ele><time>2026-04-04T05:22:29.000Z</time></trkpt>
        <trkpt lat="29.556175" lon="103.386145"><ele>865.3495</ele><time>2026-04-04T05:22:34.000Z</time></trkpt>
        <trkpt lat="29.556218" lon="103.386166"><ele>862.4323</ele><time>2026-04-04T05:22:39.000Z</time></trkpt>
        <trkpt lat="29.556268" lon="103.386164"><ele>861.8828</ele><time>2026-04-04T05:22:46.000Z</time></trkpt>
        <trkpt lat="29.556313" lon="103.386134"><ele>859.677</ele><time>2026-04-04T05:22:53.000Z</time></trkpt>
        <trkpt lat="29.556346" lon="103.386098"><ele>859.7571</ele><time>2026-04-04T05:23:00.000Z</time></trkpt>
        <trkpt lat="29.556386" lon="103.386072"><ele>858.82294</ele><time>2026-04-04T05:23:06.000Z</time></trkpt>
        <trkpt lat="29.556422" lon="103.386032"><ele>856.9308</ele><time>2026-04-04T05:23:13.000Z</time></trkpt>
        <trkpt lat="29.556451" lon="103.385981"><ele>855.2714</ele><time>2026-04-04T05:23:18.000Z</time></trkpt>
        <trkpt lat="29.556477" lon="103.386034"><ele>852.914</ele><time>2026-04-04T05:23:31.000Z</time></trkpt>
        <trkpt lat="29.556495" lon="103.386093"><ele>850.11584</ele><time>2026-04-04T05:23:37.000Z</time></trkpt>
        <trkpt lat="29.556522" lon="103.386147"><ele>849.1748</ele><time>2026-04-04T05:23:44.000Z</time></trkpt>
        <trkpt lat="29.556556" lon="103.386189"><ele>846.8766</ele><time>2026-04-04T05:23:50.000Z</time></trkpt>
        <trkpt lat="29.556608" lon="103.386211"><ele>840.9561</ele><time>2026-04-04T05:24:03.000Z</time></trkpt>
        <trkpt lat="29.556657" lon="103.386195"><ele>837.9639</ele><time>2026-04-04T05:24:09.000Z</time></trkpt>
        <trkpt lat="29.556696" lon="103.386171"><ele>838.366</ele><time>2026-04-04T05:24:18.000Z</time></trkpt>
        <trkpt lat="29.556741" lon="103.386155"><ele>838.7786</ele><time>2026-04-04T05:24:24.000Z</time></trkpt>
        <trkpt lat="29.556799" lon="103.386139"><ele>840.6759</ele><time>2026-04-04T05:24:27.000Z</time></trkpt>
        <trkpt lat="29.55683" lon="103.386101"><ele>839.8115</ele><time>2026-04-04T05:24:29.000Z</time></trkpt>
        <trkpt lat="29.556881" lon="103.386115"><ele>837.0742</ele><time>2026-04-04T05:24:38.000Z</time></trkpt>
        <trkpt lat="29.556921" lon="103.386148"><ele>837.3024</ele><time>2026-04-04T05:24:42.000Z</time></trkpt>
        <trkpt lat="29.556959" lon="103.386181"><ele>836.4283</ele><time>2026-04-04T05:24:46.000Z</time></trkpt>
        <trkpt lat="29.556993" lon="103.386227"><ele>836.84814</ele><time>2026-04-04T05:24:50.000Z</time></trkpt>
        <trkpt lat="29.557006" lon="103.386283"><ele>840.52625</ele><time>2026-04-04T05:24:55.000Z</time></trkpt>
        <trkpt lat="29.556982" lon="103.386339"><ele>839.98285</ele><time>2026-04-04T05:25:01.000Z</time></trkpt>
        <trkpt lat="29.557008" lon="103.386386"><ele>838.8253</ele><time>2026-04-04T05:25:04.000Z</time></trkpt>
        <trkpt lat="29.557045" lon="103.386426"><ele>835.90625</ele><time>2026-04-04T05:25:08.000Z</time></trkpt>
        <trkpt lat="29.557078" lon="103.386466"><ele>831.828</ele><time>2026-04-04T05:25:11.000Z</time></trkpt>
        <trkpt lat="29.557117" lon="103.386498"><ele>831.9227</ele><time>2026-04-04T05:25:14.000Z</time></trkpt>
        <trkpt lat="29.557166" lon="103.386495"><ele>830.5436</ele><time>2026-04-04T05:25:18.000Z</time></trkpt>
        <trkpt lat="29.557217" lon="103.386465"><ele>830.64575</ele><time>2026-04-04T05:25:24.000Z</time></trkpt>
        <trkpt lat="29.557271" lon="103.386494"><ele>830.13495</ele><time>2026-04-04T05:25:29.000Z</time></trkpt>
        <trkpt lat="29.557318" lon="103.386519"><ele>829.6198</ele><time>2026-04-04T05:25:33.000Z</time></trkpt>
        <trkpt lat="29.557356" lon="103.386569"><ele>828.42883</ele><time>2026-04-04T05:25:42.000Z</time></trkpt>
        <trkpt lat="29.55737" lon="103.386626"><ele>829.6497</ele><time>2026-04-04T05:25:45.000Z</time></trkpt>
        <trkpt lat="29.557358" lon="103.386685"><ele>831.7381</ele><time>2026-04-04T05:25:49.000Z</time></trkpt>
        <trkpt lat="29.557385" lon="103.386738"><ele>833.64984</ele><time>2026-04-04T05:25:53.000Z</time></trkpt>
        <trkpt lat="29.557409" lon="103.386801"><ele>834.5848</ele><time>2026-04-04T05:25:57.000Z</time></trkpt>
        <trkpt lat="29.557426" lon="103.386864"><ele>839.7107</ele><time>2026-04-04T05:26:07.000Z</time></trkpt>
        <trkpt lat="29.557469" lon="103.386901"><ele>839.13324</ele><time>2026-04-04T05:26:10.000Z</time></trkpt>
        <trkpt lat="29.557526" lon="103.386888"><ele>837.34595</ele><time>2026-04-04T05:26:12.000Z</time></trkpt>
        <trkpt lat="29.557574" lon="103.386857"><ele>837.43304</ele><time>2026-04-04T05:26:14.000Z</time></trkpt>
        <trkpt lat="29.557625" lon="103.386881"><ele>836.2485</ele><time>2026-04-04T05:26:17.000Z</time></trkpt>
        <trkpt lat="29.557671" lon="103.386907"><ele>835.15564</ele><time>2026-04-04T05:26:21.000Z</time></trkpt>
        <trkpt lat="29.557703" lon="103.386949"><ele>833.8412</ele><time>2026-04-04T05:26:27.000Z</time></trkpt>
        <trkpt lat="29.557725" lon="103.386997"><ele>830.4347</ele><time>2026-04-04T05:26:34.000Z</time></trkpt>
        <trkpt lat="29.557722" lon="103.38705"><ele>828.1302</ele><time>2026-04-04T05:26:39.000Z</time></trkpt>
        <trkpt lat="29.55776" lon="103.387085"><ele>824.0563</ele><time>2026-04-04T05:26:46.000Z</time></trkpt>
        <trkpt lat="29.557806" lon="103.387122"><ele>823.1381</ele><time>2026-04-04T05:26:51.000Z</time></trkpt>
        <trkpt lat="29.557857" lon="103.387146"><ele>824.65845</ele><time>2026-04-04T05:26:54.000Z</time></trkpt>
        <trkpt lat="29.557906" lon="103.387152"><ele>824.84045</ele><time>2026-04-04T05:26:57.000Z</time></trkpt>
        <trkpt lat="29.557944" lon="103.387202"><ele>825.9618</ele><time>2026-04-04T05:27:00.000Z</time></trkpt>
        <trkpt lat="29.557995" lon="103.387225"><ele>826.28937</ele><time>2026-04-04T05:27:04.000Z</time></trkpt>
        <trkpt lat="29.55804" lon="103.387235"><ele>826.8646</ele><time>2026-04-04T05:27:07.000Z</time></trkpt>
        <trkpt lat="29.558083" lon="103.387259"><ele>827.7598</ele><time>2026-04-04T05:27:11.000Z</time></trkpt>
        <trkpt lat="29.558128" lon="103.387277"><ele>827.9032</ele><time>2026-04-04T05:27:15.000Z</time></trkpt>
        <trkpt lat="29.55817" lon="103.387327"><ele>826.3616</ele><time>2026-04-04T05:27:22.000Z</time></trkpt>
        <trkpt lat="29.558201" lon="103.387364"><ele>827.69257</ele><time>2026-04-04T05:27:27.000Z</time></trkpt>
        <trkpt lat="29.558237" lon="103.387401"><ele>828.2259</ele><time>2026-04-04T05:27:31.000Z</time></trkpt>
        <trkpt lat="29.558264" lon="103.387452"><ele>828.3338</ele><time>2026-04-04T05:27:36.000Z</time></trkpt>
        <trkpt lat="29.558301" lon="103.387493"><ele>827.9381</ele><time>2026-04-04T05:27:42.000Z</time></trkpt>
        <trkpt lat="29.55834" lon="103.387519"><ele>825.5906</ele><time>2026-04-04T05:27:47.000Z</time></trkpt>
        <trkpt lat="29.558376" lon="103.38756"><ele>822.73816</ele><time>2026-04-04T05:27:53.000Z</time></trkpt>
        <trkpt lat="29.558419" lon="103.387592"><ele>822.1455</ele><time>2026-04-04T05:27:57.000Z</time></trkpt>
        <trkpt lat="29.558471" lon="103.387631"><ele>823.9574</ele><time>2026-04-04T05:28:02.000Z</time></trkpt>
        <trkpt lat="29.558511" lon="103.387684"><ele>822.73865</ele><time>2026-04-04T05:28:06.000Z</time></trkpt>
        <trkpt lat="29.558532" lon="103.387733"><ele>822.85925</ele><time>2026-04-04T05:28:09.000Z</time></trkpt>
        <trkpt lat="29.558564" lon="103.387775"><ele>824.081</ele><time>2026-04-04T05:28:12.000Z</time></trkpt>
        <trkpt lat="29.558619" lon="103.387783"><ele>825.2407</ele><time>2026-04-04T05:28:16.000Z</time></trkpt>
        <trkpt lat="29.558668" lon="103.387804"><ele>826.521</ele><time>2026-04-04T05:28:20.000Z</time></trkpt>
        <trkpt lat="29.558714" lon="103.387833"><ele>829.2134</ele><time>2026-04-04T05:28:23.000Z</time></trkpt>
        <trkpt lat="29.558738" lon="103.387891"><ele>829.3706</ele><time>2026-04-04T05:28:26.000Z</time></trkpt>
        <trkpt lat="29.558777" lon="103.387944"><ele>830.61487</ele><time>2026-04-04T05:28:29.000Z</time></trkpt>
        <trkpt lat="29.558817" lon="103.387973"><ele>830.0085</ele><time>2026-04-04T05:28:32.000Z</time></trkpt>
        <trkpt lat="29.55887" lon="103.387968"><ele>831.5102</ele><time>2026-04-04T05:28:36.000Z</time></trkpt>
        <trkpt lat="29.558919" lon="103.387978"><ele>831.7382</ele><time>2026-04-04T05:28:38.000Z</time></trkpt>
        <trkpt lat="29.558972" lon="103.387974"><ele>830.4133</ele><time>2026-04-04T05:28:42.000Z</time></trkpt>
        <trkpt lat="29.559022" lon="103.387973"><ele>828.57184</ele><time>2026-04-04T05:28:47.000Z</time></trkpt>
        <trkpt lat="29.559077" lon="103.387979"><ele>828.4483</ele><time>2026-04-04T05:28:51.000Z</time></trkpt>
        <trkpt lat="29.559134" lon="103.387976"><ele>827.2269</ele><time>2026-04-04T05:28:55.000Z</time></trkpt>
        <trkpt lat="29.559185" lon="103.387956"><ele>825.3195</ele><time>2026-04-04T05:28:59.000Z</time></trkpt>
        <trkpt lat="29.559235" lon="103.387935"><ele>822.216</ele><time>2026-04-04T05:29:04.000Z</time></trkpt>
        <trkpt lat="29.559285" lon="103.387946"><ele>821.0728</ele><time>2026-04-04T05:29:09.000Z</time></trkpt>
        <trkpt lat="29.559323" lon="103.387979"><ele>817.60046</ele><time>2026-04-04T05:29:15.000Z</time></trkpt>
        <trkpt lat="29.55937" lon="103.387994"><ele>815.02966</ele><time>2026-04-04T05:29:21.000Z</time></trkpt>
        <trkpt lat="29.559403" lon="103.388031"><ele>814.2218</ele><time>2026-04-04T05:29:24.000Z</time></trkpt>
        <trkpt lat="29.559449" lon="103.388071"><ele>814.05927</ele><time>2026-04-04T05:29:28.000Z</time></trkpt>
        <trkpt lat="29.559493" lon="103.388098"><ele>813.4491</ele><time>2026-04-04T05:29:32.000Z</time></trkpt>
        <trkpt lat="29.559542" lon="103.388108"><ele>812.7499</ele><time>2026-04-04T05:29:38.000Z</time></trkpt>
        <trkpt lat="29.559591" lon="103.388145"><ele>811.4999</ele><time>2026-04-04T05:29:42.000Z</time></trkpt>
        <trkpt lat="29.559631" lon="103.388184"><ele>809.66565</ele><time>2026-04-04T05:29:46.000Z</time></trkpt>
        <trkpt lat="29.559668" lon="103.388219"><ele>809.1386</ele><time>2026-04-04T05:29:52.000Z</time></trkpt>
        <trkpt lat="29.559658" lon="103.388271"><ele>808.8766</ele><time>2026-04-04T05:30:01.000Z</time></trkpt>
        <trkpt lat="29.559651" lon="103.388325"><ele>808.4492</ele><time>2026-04-04T05:30:05.000Z</time></trkpt>
        <trkpt lat="29.559674" lon="103.388371"><ele>807.2335</ele><time>2026-04-04T05:30:08.000Z</time></trkpt>
        <trkpt lat="29.5597" lon="103.388414"><ele>805.6184</ele><time>2026-04-04T05:30:11.000Z</time></trkpt>
        <trkpt lat="29.559743" lon="103.388438"><ele>803.02673</ele><time>2026-04-04T05:30:17.000Z</time></trkpt>
        <trkpt lat="29.559781" lon="103.388472"><ele>802.685</ele><time>2026-04-04T05:30:21.000Z</time></trkpt>
        <trkpt lat="29.559821" lon="103.388504"><ele>801.1701</ele><time>2026-04-04T05:30:26.000Z</time></trkpt>
        <trkpt lat="29.559867" lon="103.388546"><ele>799.20447</ele><time>2026-04-04T05:30:31.000Z</time></trkpt>
        <trkpt lat="29.559913" lon="103.388594"><ele>798.7675</ele><time>2026-04-04T05:30:36.000Z</time></trkpt>
        <trkpt lat="29.559951" lon="103.388627"><ele>798.2429</ele><time>2026-04-04T05:30:39.000Z</time></trkpt>
        <trkpt lat="29.559992" lon="103.388657"><ele>797.1944</ele><time>2026-04-04T05:30:43.000Z</time></trkpt>
        <trkpt lat="29.560029" lon="103.388693"><ele>796.56195</ele><time>2026-04-04T05:30:47.000Z</time></trkpt>
        <trkpt lat="29.560075" lon="103.388728"><ele>797.2702</ele><time>2026-04-04T05:30:51.000Z</time></trkpt>
        <trkpt lat="29.560119" lon="103.388759"><ele>798.37823</ele><time>2026-04-04T05:30:56.000Z</time></trkpt>
        <trkpt lat="29.560159" lon="103.388795"><ele>801.57086</ele><time>2026-04-04T05:31:01.000Z</time></trkpt>
        <trkpt lat="29.560137" lon="103.388845"><ele>803.37836</ele><time>2026-04-04T05:31:09.000Z</time></trkpt>
        <trkpt lat="29.560121" lon="103.388894"><ele>801.6117</ele><time>2026-04-04T05:31:14.000Z</time></trkpt>
        <trkpt lat="29.560121" lon="103.38895"><ele>799.17804</ele><time>2026-04-04T05:31:19.000Z</time></trkpt>
        <trkpt lat="29.560128" lon="103.389004"><ele>797.34357</ele><time>2026-04-04T05:31:23.000Z</time></trkpt>
        <trkpt lat="29.56015" lon="103.389058"><ele>797.2715</ele><time>2026-04-04T05:31:27.000Z</time></trkpt>
        <trkpt lat="29.560166" lon="103.38911"><ele>797.69476</ele><time>2026-04-04T05:31:30.000Z</time></trkpt>
        <trkpt lat="29.560185" lon="103.389164"><ele>796.0379</ele><time>2026-04-04T05:31:34.000Z</time></trkpt>
        <trkpt lat="29.560218" lon="103.389209"><ele>794.67456</ele><time>2026-04-04T05:31:38.000Z</time></trkpt>
        <trkpt lat="29.560263" lon="103.389232"><ele>793.7327</ele><time>2026-04-04T05:31:45.000Z</time></trkpt>
        <trkpt lat="29.560299" lon="103.389267"><ele>791.49677</ele><time>2026-04-04T05:31:54.000Z</time></trkpt>
        <trkpt lat="29.560324" lon="103.389324"><ele>793.6844</ele><time>2026-04-04T05:32:05.000Z</time></trkpt>
        <trkpt lat="29.560309" lon="103.389379"><ele>789.66956</ele><time>2026-04-04T05:32:12.000Z</time></trkpt>
        <trkpt lat="29.560324" lon="103.389433"><ele>792.56366</ele><time>2026-04-04T05:32:19.000Z</time></trkpt>
        <trkpt lat="29.560368" lon="103.389461"><ele>796.9377</ele><time>2026-04-04T05:32:23.000Z</time></trkpt>
        <trkpt lat="29.560422" lon="103.389459"><ele>799.6207</ele><time>2026-04-04T05:32:31.000Z</time></trkpt>
        <trkpt lat="29.560485" lon="103.389435"><ele>800.45245</ele><time>2026-04-04T05:32:37.000Z</time></trkpt>
        <trkpt lat="29.560527" lon="103.389406"><ele>801.63446</ele><time>2026-04-04T05:32:39.000Z</time></trkpt>
        <trkpt lat="29.560576" lon="103.389421"><ele>802.718</ele><time>2026-04-04T05:32:42.000Z</time></trkpt>
        <trkpt lat="29.560587" lon="103.389482"><ele>801.14764</ele><time>2026-04-04T05:32:45.000Z</time></trkpt>
        <trkpt lat="29.560636" lon="103.389491"><ele>801.49194</ele><time>2026-04-04T05:32:49.000Z</time></trkpt>
        <trkpt lat="29.560682" lon="103.389486"><ele>801.1656</ele><time>2026-04-04T05:32:53.000Z</time></trkpt>
        <trkpt lat="29.560732" lon="103.389472"><ele>797.92755</ele><time>2026-04-04T05:32:59.000Z</time></trkpt>
        <trkpt lat="29.560783" lon="103.389469"><ele>795.42065</ele><time>2026-04-04T05:33:04.000Z</time></trkpt>
        <trkpt lat="29.560832" lon="103.389452"><ele>794.7465</ele><time>2026-04-04T05:33:08.000Z</time></trkpt>
        <trkpt lat="29.560888" lon="103.389453"><ele>792.991</ele><time>2026-04-04T05:33:13.000Z</time></trkpt>
        <trkpt lat="29.560939" lon="103.389426"><ele>791.1405</ele><time>2026-04-04T05:33:17.000Z</time></trkpt>
        <trkpt lat="29.560991" lon="103.389411"><ele>791.55963</ele><time>2026-04-04T05:33:21.000Z</time></trkpt>
        <trkpt lat="29.56104" lon="103.389404"><ele>792.112</ele><time>2026-04-04T05:33:24.000Z</time></trkpt>
        <trkpt lat="29.561088" lon="103.389388"><ele>793.7005</ele><time>2026-04-04T05:33:28.000Z</time></trkpt>
        <trkpt lat="29.561141" lon="103.389377"><ele>793.59265</ele><time>2026-04-04T05:33:32.000Z</time></trkpt>
        <trkpt lat="29.561195" lon="103.389375"><ele>793.83386</ele><time>2026-04-04T05:33:36.000Z</time></trkpt>
        <trkpt lat="29.561246" lon="103.389375"><ele>794.0026</ele><time>2026-04-04T05:33:39.000Z</time></trkpt>
        <trkpt lat="29.561298" lon="103.389386"><ele>793.47986</ele><time>2026-04-04T05:33:44.000Z</time></trkpt>
        <trkpt lat="29.561346" lon="103.389391"><ele>794.9097</ele><time>2026-04-04T05:33:47.000Z</time></trkpt>
        <trkpt lat="29.5614" lon="103.389376"><ele>795.69946</ele><time>2026-04-04T05:33:51.000Z</time></trkpt>
        <trkpt lat="29.561456" lon="103.389362"><ele>797.88983</ele><time>2026-04-04T05:33:56.000Z</time></trkpt>
        <trkpt lat="29.561513" lon="103.38936"><ele>799.5717</ele><time>2026-04-04T05:34:02.000Z</time></trkpt>
        <trkpt lat="29.561564" lon="103.389354"><ele>800.89545</ele><time>2026-04-04T05:34:05.000Z</time></trkpt>
        <trkpt lat="29.561626" lon="103.389361"><ele>800.8568</ele><time>2026-04-04T05:34:11.000Z</time></trkpt>
        <trkpt lat="29.561678" lon="103.38936"><ele>801.47375</ele><time>2026-04-04T05:34:15.000Z</time></trkpt>
        <trkpt lat="29.561732" lon="103.389383"><ele>802.5128</ele><time>2026-04-04T05:34:19.000Z</time></trkpt>
        <trkpt lat="29.561775" lon="103.389407"><ele>803.6237</ele><time>2026-04-04T05:34:23.000Z</time></trkpt>
        <trkpt lat="29.561828" lon="103.389423"><ele>804.668</ele><time>2026-04-04T05:34:26.000Z</time></trkpt>
        <trkpt lat="29.561878" lon="103.389461"><ele>805.59717</ele><time>2026-04-04T05:34:30.000Z</time></trkpt>
        <trkpt lat="29.561926" lon="103.389489"><ele>807.93243</ele><time>2026-04-04T05:34:33.000Z</time></trkpt>
        <trkpt lat="29.56197" lon="103.389514"><ele>807.7111</ele><time>2026-04-04T05:34:37.000Z</time></trkpt>
        <trkpt lat="29.562024" lon="103.389545"><ele>808.58826</ele><time>2026-04-04T05:34:40.000Z</time></trkpt>
        <trkpt lat="29.562072" lon="103.389561"><ele>809.1589</ele><time>2026-04-04T05:34:44.000Z</time></trkpt>
        <trkpt lat="29.562125" lon="103.389565"><ele>808.33075</ele><time>2026-04-04T05:34:48.000Z</time></trkpt>
        <trkpt lat="29.562167" lon="103.389549"><ele>807.7235</ele><time>2026-04-04T05:34:51.000Z</time></trkpt>
        <trkpt lat="29.56219" lon="103.389504"><ele>807.9452</ele><time>2026-04-04T05:34:55.000Z</time></trkpt>
        <trkpt lat="29.562197" lon="103.389451"><ele>807.30383</ele><time>2026-04-04T05:35:01.000Z</time></trkpt>
        <trkpt lat="29.562171" lon="103.389408"><ele>804.0014</ele><time>2026-04-04T05:35:04.000Z</time></trkpt>
        <trkpt lat="29.562132" lon="103.389365"><ele>800.3481</ele><time>2026-04-04T05:35:07.000Z</time></trkpt>
        <trkpt lat="29.562096" lon="103.38933"><ele>802.32117</ele><time>2026-04-04T05:35:10.000Z</time></trkpt>
        <trkpt lat="29.562111" lon="103.389273"><ele>804.55615</ele><time>2026-04-04T05:35:26.000Z</time></trkpt>
        <trkpt lat="29.562079" lon="103.389224"><ele>803.01</ele><time>2026-04-04T05:35:34.000Z</time></trkpt>
        <trkpt lat="29.562129" lon="103.389204"><ele>800.6951</ele><time>2026-04-04T05:36:20.000Z</time></trkpt>
        <trkpt lat="29.56215" lon="103.389158"><ele>795.77057</ele><time>2026-04-04T05:36:24.000Z</time></trkpt>
        <trkpt lat="29.562153" lon="103.389104"><ele>787.42883</ele><time>2026-04-04T05:36:31.000Z</time></trkpt>
        <trkpt lat="29.562191" lon="103.38907"><ele>784.23645</ele><time>2026-04-04T05:36:41.000Z</time></trkpt>
        <trkpt lat="29.562242" lon="103.38909"><ele>790.4874</ele><time>2026-04-04T05:36:45.000Z</time></trkpt>
        <trkpt lat="29.562294" lon="103.389097"><ele>794.0791</ele><time>2026-04-04T05:36:50.000Z</time></trkpt>
        <trkpt lat="29.562347" lon="103.389096"><ele>796.12067</ele><time>2026-04-04T05:36:54.000Z</time></trkpt>
        <trkpt lat="29.562397" lon="103.3891"><ele>799.0437</ele><time>2026-04-04T05:36:58.000Z</time></trkpt>
        <trkpt lat="29.562446" lon="103.389104"><ele>799.5115</ele><time>2026-04-04T05:37:02.000Z</time></trkpt>
        <trkpt lat="29.562475" lon="103.389143"><ele>799.54425</ele><time>2026-04-04T05:37:05.000Z</time></trkpt>
        <trkpt lat="29.562521" lon="103.389144"><ele>796.05615</ele><time>2026-04-04T05:37:10.000Z</time></trkpt>
        <trkpt lat="29.562571" lon="103.389141"><ele>791.4143</ele><time>2026-04-04T05:37:15.000Z</time></trkpt>
        <trkpt lat="29.56262" lon="103.389152"><ele>790.6106</ele><time>2026-04-04T05:37:21.000Z</time></trkpt>
        <trkpt lat="29.562673" lon="103.389149"><ele>787.1494</ele><time>2026-04-04T05:37:27.000Z</time></trkpt>
        <trkpt lat="29.56272" lon="103.389146"><ele>785.853</ele><time>2026-04-04T05:37:32.000Z</time></trkpt>
        <trkpt lat="29.562767" lon="103.389137"><ele>786.3235</ele><time>2026-04-04T05:37:38.000Z</time></trkpt>
        <trkpt lat="29.562813" lon="103.389171"><ele>784.7386</ele><time>2026-04-04T05:37:44.000Z</time></trkpt>
        <trkpt lat="29.562861" lon="103.389171"><ele>782.2491</ele><time>2026-04-04T05:37:48.000Z</time></trkpt>
        <trkpt lat="29.562908" lon="103.389172"><ele>781.2437</ele><time>2026-04-04T05:37:53.000Z</time></trkpt>
        <trkpt lat="29.562964" lon="103.389159"><ele>780.4644</ele><time>2026-04-04T05:37:58.000Z</time></trkpt>
        <trkpt lat="29.563013" lon="103.389143"><ele>779.33154</ele><time>2026-04-04T05:38:02.000Z</time></trkpt>
        <trkpt lat="29.563054" lon="103.389114"><ele>778.5087</ele><time>2026-04-04T05:38:06.000Z</time></trkpt>
        <trkpt lat="29.563098" lon="103.389092"><ele>779.3005</ele><time>2026-04-04T05:38:11.000Z</time></trkpt>
        <trkpt lat="29.563132" lon="103.389057"><ele>780.0413</ele><time>2026-04-04T05:38:14.000Z</time></trkpt>
        <trkpt lat="29.563174" lon="103.389036"><ele>780.8446</ele><time>2026-04-04T05:38:18.000Z</time></trkpt>
        <trkpt lat="29.563228" lon="103.389015"><ele>779.868</ele><time>2026-04-04T05:38:23.000Z</time></trkpt>
        <trkpt lat="29.563275" lon="103.388998"><ele>779.62476</ele><time>2026-04-04T05:38:27.000Z</time></trkpt>
        <trkpt lat="29.563327" lon="103.388981"><ele>778.5111</ele><time>2026-04-04T05:38:32.000Z</time></trkpt>
        <trkpt lat="29.56337" lon="103.388967"><ele>779.00183</ele><time>2026-04-04T05:38:36.000Z</time></trkpt>
        <trkpt lat="29.563424" lon="103.388958"><ele>774.29034</ele><time>2026-04-04T05:38:40.000Z</time></trkpt>
        <trkpt lat="29.563474" lon="103.38893"><ele>772.5024</ele><time>2026-04-04T05:38:43.000Z</time></trkpt>
        <trkpt lat="29.563527" lon="103.388927"><ele>772.783</ele><time>2026-04-04T05:38:48.000Z</time></trkpt>
        <trkpt lat="29.563578" lon="103.388906"><ele>765.0102</ele><time>2026-04-04T05:38:54.000Z</time></trkpt>
        <trkpt lat="29.563623" lon="103.388924"><ele>768.95233</ele><time>2026-04-04T05:38:58.000Z</time></trkpt>
        <trkpt lat="29.56368" lon="103.388946"><ele>768.02997</ele><time>2026-04-04T05:39:03.000Z</time></trkpt>
        <trkpt lat="29.563727" lon="103.388968"><ele>767.1823</ele><time>2026-04-04T05:39:08.000Z</time></trkpt>
        <trkpt lat="29.563768" lon="103.388993"><ele>764.50604</ele><time>2026-04-04T05:39:12.000Z</time></trkpt>
        <trkpt lat="29.563818" lon="103.389004"><ele>765.3453</ele><time>2026-04-04T05:39:15.000Z</time></trkpt>
        <trkpt lat="29.563869" lon="103.389019"><ele>766.56165</ele><time>2026-04-04T05:39:19.000Z</time></trkpt>
        <trkpt lat="29.563916" lon="103.389002"><ele>763.4228</ele><time>2026-04-04T05:39:23.000Z</time></trkpt>
        <trkpt lat="29.563965" lon="103.389023"><ele>767.1325</ele><time>2026-04-04T05:39:28.000Z</time></trkpt>
        <trkpt lat="29.564009" lon="103.389007"><ele>763.98395</ele><time>2026-04-04T05:39:32.000Z</time></trkpt>
        <trkpt lat="29.564057" lon="103.389009"><ele>765.8928</ele><time>2026-04-04T05:39:37.000Z</time></trkpt>
        <trkpt lat="29.564101" lon="103.388984"><ele>764.8157</ele><time>2026-04-04T05:39:41.000Z</time></trkpt>
        <trkpt lat="29.564156" lon="103.388969"><ele>766.1772</ele><time>2026-04-04T05:39:45.000Z</time></trkpt>
        <trkpt lat="29.564188" lon="103.388925"><ele>763.74274</ele><time>2026-04-04T05:39:48.000Z</time></trkpt>
        <trkpt lat="29.564237" lon="103.388922"><ele>762.6243</ele><time>2026-04-04T05:39:54.000Z</time></trkpt>
        <trkpt lat="29.564293" lon="103.38893"><ele>761.5318</ele><time>2026-04-04T05:40:00.000Z</time></trkpt>
        <trkpt lat="29.56434" lon="103.388917"><ele>760.0816</ele><time>2026-04-04T05:40:07.000Z</time></trkpt>
        <trkpt lat="29.564389" lon="103.388942"><ele>758.00867</ele><time>2026-04-04T05:40:11.000Z</time></trkpt>
        <trkpt lat="29.564438" lon="103.388944"><ele>759.8707</ele><time>2026-04-04T05:40:16.000Z</time></trkpt>
        <trkpt lat="29.564494" lon="103.388975"><ele>756.0046</ele><time>2026-04-04T05:40:21.000Z</time></trkpt>
        <trkpt lat="29.564543" lon="103.388999"><ele>757.12836</ele><time>2026-04-04T05:40:26.000Z</time></trkpt>
        <trkpt lat="29.564588" lon="103.389023"><ele>758.1648</ele><time>2026-04-04T05:40:29.000Z</time></trkpt>
        <trkpt lat="29.564637" lon="103.389033"><ele>755.5683</ele><time>2026-04-04T05:40:33.000Z</time></trkpt>
        <trkpt lat="29.564679" lon="103.389055"><ele>756.65045</ele><time>2026-04-04T05:40:37.000Z</time></trkpt>
        <trkpt lat="29.564726" lon="103.389073"><ele>756.20337</ele><time>2026-04-04T05:40:42.000Z</time></trkpt>
        <trkpt lat="29.564777" lon="103.389064"><ele>754.25354</ele><time>2026-04-04T05:40:47.000Z</time></trkpt>
        <trkpt lat="29.564825" lon="103.389065"><ele>755.1091</ele><time>2026-04-04T05:40:52.000Z</time></trkpt>
        <trkpt lat="29.564866" lon="103.389038"><ele>755.9133</ele><time>2026-04-04T05:41:01.000Z</time></trkpt>
        <trkpt lat="29.564929" lon="103.38904"><ele>756.98975</ele><time>2026-04-04T05:41:08.000Z</time></trkpt>
        <trkpt lat="29.564986" lon="103.389051"><ele>756.6454</ele><time>2026-04-04T05:41:10.000Z</time></trkpt>
        <trkpt lat="29.564982" lon="103.389103"><ele>754.0487</ele><time>2026-04-04T05:41:17.000Z</time></trkpt>
        <trkpt lat="29.565003" lon="103.389157"><ele>752.4662</ele><time>2026-04-04T05:41:21.000Z</time></trkpt>
        <trkpt lat="29.565033" lon="103.389204"><ele>753.3393</ele><time>2026-04-04T05:41:26.000Z</time></trkpt>
        <trkpt lat="29.565054" lon="103.389258"><ele>758.32544</ele><time>2026-04-04T05:41:31.000Z</time></trkpt>
        <trkpt lat="29.565071" lon="103.389313"><ele>762.67975</ele><time>2026-04-04T05:41:36.000Z</time></trkpt>
        <trkpt lat="29.565101" lon="103.389356"><ele>762.3506</ele><time>2026-04-04T05:41:40.000Z</time></trkpt>
        <trkpt lat="29.565125" lon="103.3894"><ele>763.1345</ele><time>2026-04-04T05:41:43.000Z</time></trkpt>
        <trkpt lat="29.565173" lon="103.389438"><ele>761.7386</ele><time>2026-04-04T05:41:46.000Z</time></trkpt>
        <trkpt lat="29.565222" lon="103.389483"><ele>757.4279</ele><time>2026-04-04T05:41:49.000Z</time></trkpt>
        <trkpt lat="29.565274" lon="103.389504"><ele>756.2505</ele><time>2026-04-04T05:41:53.000Z</time></trkpt>
        <trkpt lat="29.565318" lon="103.389547"><ele>755.1756</ele><time>2026-04-04T05:41:57.000Z</time></trkpt>
        <trkpt lat="29.56537" lon="103.38954"><ele>753.5881</ele><time>2026-04-04T05:42:03.000Z</time></trkpt>
        <trkpt lat="29.565432" lon="103.389561"><ele>754.9088</ele><time>2026-04-04T05:42:09.000Z</time></trkpt>
        <trkpt lat="29.565489" lon="103.389561"><ele>752.7872</ele><time>2026-04-04T05:42:15.000Z</time></trkpt>
        <trkpt lat="29.565525" lon="103.389594"><ele>754.396</ele><time>2026-04-04T05:42:19.000Z</time></trkpt>
        <trkpt lat="29.565575" lon="103.389578"><ele>755.1711</ele><time>2026-04-04T05:42:23.000Z</time></trkpt>
        <trkpt lat="29.565619" lon="103.389602"><ele>758.3371</ele><time>2026-04-04T05:42:30.000Z</time></trkpt>
        <trkpt lat="29.565663" lon="103.389641"><ele>760.1859</ele><time>2026-04-04T05:42:36.000Z</time></trkpt>
        <trkpt lat="29.565671" lon="103.389704"><ele>757.46094</ele><time>2026-04-04T05:42:42.000Z</time></trkpt>
        <trkpt lat="29.56572" lon="103.389713"><ele>755.30176</ele><time>2026-04-04T05:42:50.000Z</time></trkpt>
        <trkpt lat="29.565761" lon="103.38968"><ele>752.4978</ele><time>2026-04-04T05:42:54.000Z</time></trkpt>
        <trkpt lat="29.565815" lon="103.389666"><ele>750.8778</ele><time>2026-04-04T05:43:00.000Z</time></trkpt>
        <trkpt lat="29.565863" lon="103.389661"><ele>747.3076</ele><time>2026-04-04T05:43:06.000Z</time></trkpt>
        <trkpt lat="29.565909" lon="103.389665"><ele>744.41</ele><time>2026-04-04T05:43:13.000Z</time></trkpt>
        <trkpt lat="29.565865" lon="103.389679"><ele>744.9915</ele><time>2026-04-04T05:43:25.000Z</time></trkpt>
        <trkpt lat="29.565849" lon="103.389737"><ele>745.2573</ele><time>2026-04-04T05:43:31.000Z</time></trkpt>
        <trkpt lat="29.565886" lon="103.389772"><ele>743.6497</ele><time>2026-04-04T05:43:42.000Z</time></trkpt>
        <trkpt lat="29.565931" lon="103.389791"><ele>742.848</ele><time>2026-04-04T05:43:45.000Z</time></trkpt>
        <trkpt lat="29.565983" lon="103.38979"><ele>742.7376</ele><time>2026-04-04T05:43:48.000Z</time></trkpt>
        <trkpt lat="29.56604" lon="103.38979"><ele>743.0524</ele><time>2026-04-04T05:43:52.000Z</time></trkpt>
        <trkpt lat="29.566095" lon="103.389797"><ele>744.77765</ele><time>2026-04-04T05:43:56.000Z</time></trkpt>
        <trkpt lat="29.566156" lon="103.389789"><ele>743.1862</ele><time>2026-04-04T05:44:01.000Z</time></trkpt>
        <trkpt lat="29.566201" lon="103.389803"><ele>743.40265</ele><time>2026-04-04T05:44:08.000Z</time></trkpt>
        <trkpt lat="29.566248" lon="103.389817"><ele>741.1696</ele><time>2026-04-04T05:44:12.000Z</time></trkpt>
        <trkpt lat="29.566296" lon="103.38983"><ele>740.1624</ele><time>2026-04-04T05:44:17.000Z</time></trkpt>
        <trkpt lat="29.566345" lon="103.389845"><ele>739.1102</ele><time>2026-04-04T05:44:21.000Z</time></trkpt>
        <trkpt lat="29.566401" lon="103.389838"><ele>739.45013</ele><time>2026-04-04T05:44:28.000Z</time></trkpt>
        <trkpt lat="29.566448" lon="103.389849"><ele>740.43896</ele><time>2026-04-04T05:44:31.000Z</time></trkpt>
        <trkpt lat="29.566492" lon="103.389866"><ele>740.59357</ele><time>2026-04-04T05:44:34.000Z</time></trkpt>
        <trkpt lat="29.566546" lon="103.389882"><ele>740.91833</ele><time>2026-04-04T05:44:39.000Z</time></trkpt>
        <trkpt lat="29.566596" lon="103.389902"><ele>743.0282</ele><time>2026-04-04T05:44:44.000Z</time></trkpt>
        <trkpt lat="29.566639" lon="103.389934"><ele>743.7363</ele><time>2026-04-04T05:44:47.000Z</time></trkpt>
        <trkpt lat="29.566687" lon="103.389949"><ele>744.6637</ele><time>2026-04-04T05:44:50.000Z</time></trkpt>
        <trkpt lat="29.566743" lon="103.389974"><ele>745.7986</ele><time>2026-04-04T05:44:53.000Z</time></trkpt>
        <trkpt lat="29.566779" lon="103.390017"><ele>747.7165</ele><time>2026-04-04T05:44:57.000Z</time></trkpt>
        <trkpt lat="29.566823" lon="103.390052"><ele>750.88104</ele><time>2026-04-04T05:45:01.000Z</time></trkpt>
        <trkpt lat="29.566851" lon="103.390102"><ele>754.552</ele><time>2026-04-04T05:45:05.000Z</time></trkpt>
        <trkpt lat="29.566871" lon="103.390162"><ele>756.49164</ele><time>2026-04-04T05:45:09.000Z</time></trkpt>
        <trkpt lat="29.566913" lon="103.390197"><ele>758.173</ele><time>2026-04-04T05:45:14.000Z</time></trkpt>
        <trkpt lat="29.56697" lon="103.390205"><ele>758.6231</ele><time>2026-04-04T05:45:21.000Z</time></trkpt>
        <trkpt lat="29.567022" lon="103.3902"><ele>758.98566</ele><time>2026-04-04T05:45:25.000Z</time></trkpt>
        <trkpt lat="29.567066" lon="103.39016"><ele>761.635</ele><time>2026-04-04T05:45:28.000Z</time></trkpt>
        <trkpt lat="29.567118" lon="103.390131"><ele>762.2449</ele><time>2026-04-04T05:45:32.000Z</time></trkpt>
        <trkpt lat="29.567169" lon="103.390139"><ele>764.06836</ele><time>2026-04-04T05:45:37.000Z</time></trkpt>
        <trkpt lat="29.567219" lon="103.390128"><ele>765.01105</ele><time>2026-04-04T05:45:40.000Z</time></trkpt>
        <trkpt lat="29.567273" lon="103.390102"><ele>765.64966</ele><time>2026-04-04T05:45:43.000Z</time></trkpt>
        <trkpt lat="29.567325" lon="103.390083"><ele>767.0145</ele><time>2026-04-04T05:45:47.000Z</time></trkpt>
        <trkpt lat="29.567368" lon="103.390102"><ele>768.4156</ele><time>2026-04-04T05:45:51.000Z</time></trkpt>
        <trkpt lat="29.567414" lon="103.390084"><ele>768.924</ele><time>2026-04-04T05:45:57.000Z</time></trkpt>
        <trkpt lat="29.567443" lon="103.390131"><ele>770.401</ele><time>2026-04-04T05:46:02.000Z</time></trkpt>
        <trkpt lat="29.56748" lon="103.39016"><ele>770.5245</ele><time>2026-04-04T05:46:05.000Z</time></trkpt>
        <trkpt lat="29.567499" lon="103.390244"><ele>769.2455</ele><time>2026-04-04T05:46:08.000Z</time></trkpt>
        <trkpt lat="29.567508" lon="103.390315"><ele>768.50494</ele><time>2026-04-04T05:46:10.000Z</time></trkpt>
        <trkpt lat="29.567526" lon="103.390368"><ele>766.8665</ele><time>2026-04-04T05:46:12.000Z</time></trkpt>
        <trkpt lat="29.567533" lon="103.390434"><ele>763.40533</ele><time>2026-04-04T05:46:18.000Z</time></trkpt>
        <trkpt lat="29.567569" lon="103.390492"><ele>761.9998</ele><time>2026-04-04T05:46:22.000Z</time></trkpt>
        <trkpt lat="29.567609" lon="103.390539"><ele>761.4281</ele><time>2026-04-04T05:46:26.000Z</time></trkpt>
        <trkpt lat="29.567654" lon="103.390552"><ele>760.0282</ele><time>2026-04-04T05:46:30.000Z</time></trkpt>
        <trkpt lat="29.567696" lon="103.390575"><ele>754.2504</ele><time>2026-04-04T05:46:36.000Z</time></trkpt>
        <trkpt lat="29.567701" lon="103.390639"><ele>753.0093</ele><time>2026-04-04T05:46:40.000Z</time></trkpt>
        <trkpt lat="29.567719" lon="103.390694"><ele>753.6004</ele><time>2026-04-04T05:46:44.000Z</time></trkpt>
        <trkpt lat="29.56776" lon="103.390719"><ele>752.963</ele><time>2026-04-04T05:46:47.000Z</time></trkpt>
        <trkpt lat="29.567793" lon="103.390759"><ele>752.2763</ele><time>2026-04-04T05:46:53.000Z</time></trkpt>
        <trkpt lat="29.567816" lon="103.390819"><ele>749.93604</ele><time>2026-04-04T05:47:00.000Z</time></trkpt>
        <trkpt lat="29.567881" lon="103.390847"><ele>750.19305</ele><time>2026-04-04T05:47:03.000Z</time></trkpt>
        <trkpt lat="29.56793" lon="103.390834"><ele>753.53174</ele><time>2026-04-04T05:47:06.000Z</time></trkpt>
        <trkpt lat="29.567989" lon="103.390851"><ele>755.01154</ele><time>2026-04-04T05:47:10.000Z</time></trkpt>
        <trkpt lat="29.568018" lon="103.390899"><ele>758.77026</ele><time>2026-04-04T05:47:13.000Z</time></trkpt>
        <trkpt lat="29.568049" lon="103.390942"><ele>760.7417</ele><time>2026-04-04T05:47:16.000Z</time></trkpt>
        <trkpt lat="29.568094" lon="103.390962"><ele>764.55493</ele><time>2026-04-04T05:47:20.000Z</time></trkpt>
        <trkpt lat="29.568143" lon="103.390958"><ele>766.4523</ele><time>2026-04-04T05:47:30.000Z</time></trkpt>
        <trkpt lat="29.568198" lon="103.390952"><ele>768.778</ele><time>2026-04-04T05:47:35.000Z</time></trkpt>
        <trkpt lat="29.568241" lon="103.390919"><ele>764.98035</ele><time>2026-04-04T05:47:40.000Z</time></trkpt>
        <trkpt lat="29.568286" lon="103.390933"><ele>759.53253</ele><time>2026-04-04T05:47:47.000Z</time></trkpt>
        <trkpt lat="29.568324" lon="103.390899"><ele>758.4527</ele><time>2026-04-04T05:47:53.000Z</time></trkpt>
        <trkpt lat="29.568349" lon="103.390949"><ele>751.9439</ele><time>2026-04-04T05:48:02.000Z</time></trkpt>
        <trkpt lat="29.5684" lon="103.390966"><ele>751.1715</ele><time>2026-04-04T05:48:08.000Z</time></trkpt>
        <trkpt lat="29.568446" lon="103.390986"><ele>751.4124</ele><time>2026-04-04T05:48:15.000Z</time></trkpt>
        <trkpt lat="29.568499" lon="103.390975"><ele>750.57855</ele><time>2026-04-04T05:48:20.000Z</time></trkpt>
        <trkpt lat="29.568551" lon="103.390981"><ele>750.66644</ele><time>2026-04-04T05:48:25.000Z</time></trkpt>
        <trkpt lat="29.568602" lon="103.391005"><ele>748.5702</ele><time>2026-04-04T05:48:30.000Z</time></trkpt>
        <trkpt lat="29.56865" lon="103.391025"><ele>748.6704</ele><time>2026-04-04T05:48:34.000Z</time></trkpt>
        <trkpt lat="29.568696" lon="103.391045"><ele>748.0714</ele><time>2026-04-04T05:48:37.000Z</time></trkpt>
        <trkpt lat="29.568749" lon="103.391037"><ele>749.7097</ele><time>2026-04-04T05:48:40.000Z</time></trkpt>
        <trkpt lat="29.568805" lon="103.391055"><ele>750.9908</ele><time>2026-04-04T05:48:44.000Z</time></trkpt>
        <trkpt lat="29.568847" lon="103.391081"><ele>753.7414</ele><time>2026-04-04T05:48:50.000Z</time></trkpt>
        <trkpt lat="29.568849" lon="103.391134"><ele>750.5054</ele><time>2026-04-04T05:48:53.000Z</time></trkpt>
        <trkpt lat="29.568895" lon="103.391158"><ele>751.5693</ele><time>2026-04-04T05:48:57.000Z</time></trkpt>
        <trkpt lat="29.568934" lon="103.391215"><ele>751.18445</ele><time>2026-04-04T05:49:00.000Z</time></trkpt>
        <trkpt lat="29.568958" lon="103.391263"><ele>752.29913</ele><time>2026-04-04T05:49:02.000Z</time></trkpt>
        <trkpt lat="29.569003" lon="103.391275"><ele>752.43866</ele><time>2026-04-04T05:49:05.000Z</time></trkpt>
        <trkpt lat="29.569052" lon="103.391254"><ele>754.6665</ele><time>2026-04-04T05:49:07.000Z</time></trkpt>
        <trkpt lat="29.569109" lon="103.391265"><ele>755.46906</ele><time>2026-04-04T05:49:11.000Z</time></trkpt>
        <trkpt lat="29.569137" lon="103.391223"><ele>752.91077</ele><time>2026-04-04T05:49:15.000Z</time></trkpt>
        <trkpt lat="29.569166" lon="103.391173"><ele>749.1214</ele><time>2026-04-04T05:49:21.000Z</time></trkpt>
        <trkpt lat="29.569188" lon="103.391112"><ele>743.09955</ele><time>2026-04-04T05:49:27.000Z</time></trkpt>
        <trkpt lat="29.569243" lon="103.391125"><ele>735.9807</ele><time>2026-04-04T05:49:35.000Z</time></trkpt>
        <trkpt lat="29.569257" lon="103.391072"><ele>733.0587</ele><time>2026-04-04T05:49:46.000Z</time></trkpt>
        <trkpt lat="29.569304" lon="103.391071"><ele>730.2369</ele><time>2026-04-04T05:49:57.000Z</time></trkpt>
        <trkpt lat="29.569322" lon="103.39112"><ele>729.7143</ele><time>2026-04-04T05:50:00.000Z</time></trkpt>
        <trkpt lat="29.56937" lon="103.391122"><ele>729.0368</ele><time>2026-04-04T05:50:04.000Z</time></trkpt>
        <trkpt lat="29.569417" lon="103.391095"><ele>729.2163</ele><time>2026-04-04T05:50:08.000Z</time></trkpt>
        <trkpt lat="29.56943" lon="103.391046"><ele>728.41754</ele><time>2026-04-04T05:50:17.000Z</time></trkpt>
        <trkpt lat="29.56946" lon="103.390997"><ele>727.1621</ele><time>2026-04-04T05:50:23.000Z</time></trkpt>
        <trkpt lat="29.569505" lon="103.390971"><ele>726.53076</ele><time>2026-04-04T05:50:27.000Z</time></trkpt>
        <trkpt lat="29.569558" lon="103.39097"><ele>728.8332</ele><time>2026-04-04T05:51:03.000Z</time></trkpt>
        <trkpt lat="29.569607" lon="103.390977"><ele>730.52026</ele><time>2026-04-04T05:51:08.000Z</time></trkpt>
        <trkpt lat="29.569658" lon="103.391"><ele>731.2242</ele><time>2026-04-04T05:51:14.000Z</time></trkpt>
        <trkpt lat="29.569712" lon="103.391006"><ele>733.8325</ele><time>2026-04-04T05:51:23.000Z</time></trkpt>
        <trkpt lat="29.569766" lon="103.391008"><ele>733.3059</ele><time>2026-04-04T05:51:27.000Z</time></trkpt>
        <trkpt lat="29.569822" lon="103.391019"><ele>732.5442</ele><time>2026-04-04T05:51:32.000Z</time></trkpt>
        <trkpt lat="29.569869" lon="103.391006"><ele>732.59784</ele><time>2026-04-04T05:51:39.000Z</time></trkpt>
        <trkpt lat="29.569921" lon="103.391003"><ele>735.2759</ele><time>2026-04-04T05:51:47.000Z</time></trkpt>
        <trkpt lat="29.569971" lon="103.390996"><ele>735.1627</ele><time>2026-04-04T05:51:50.000Z</time></trkpt>
        <trkpt lat="29.570021" lon="103.390966"><ele>735.707</ele><time>2026-04-04T05:51:55.000Z</time></trkpt>
        <trkpt lat="29.57007" lon="103.390985"><ele>737.5909</ele><time>2026-04-04T05:52:00.000Z</time></trkpt>
        <trkpt lat="29.570089" lon="103.391043"><ele>741.88794</ele><time>2026-04-04T05:52:16.000Z</time></trkpt>
        <trkpt lat="29.570104" lon="103.391101"><ele>740.586</ele><time>2026-04-04T05:52:20.000Z</time></trkpt>
        <trkpt lat="29.570148" lon="103.391121"><ele>739.2247</ele><time>2026-04-04T05:52:22.000Z</time></trkpt>
        <trkpt lat="29.570191" lon="103.391143"><ele>735.3522</ele><time>2026-04-04T05:52:31.000Z</time></trkpt>
        <trkpt lat="29.570235" lon="103.391162"><ele>733.79346</ele><time>2026-04-04T05:52:35.000Z</time></trkpt>
        <trkpt lat="29.570285" lon="103.39117"><ele>731.2403</ele><time>2026-04-04T05:52:40.000Z</time></trkpt>
        <trkpt lat="29.570313" lon="103.391217"><ele>730.1216</ele><time>2026-04-04T05:52:45.000Z</time></trkpt>
        <trkpt lat="29.570363" lon="103.391237"><ele>728.9274</ele><time>2026-04-04T05:52:51.000Z</time></trkpt>
        <trkpt lat="29.570393" lon="103.391277"><ele>728.4628</ele><time>2026-04-04T05:52:56.000Z</time></trkpt>
        <trkpt lat="29.570428" lon="103.391315"><ele>727.31006</ele><time>2026-04-04T05:53:02.000Z</time></trkpt>
        <trkpt lat="29.570477" lon="103.391336"><ele>726.4524</ele><time>2026-04-04T05:53:07.000Z</time></trkpt>
        <trkpt lat="29.570514" lon="103.391366"><ele>726.9438</ele><time>2026-04-04T05:53:11.000Z</time></trkpt>
        <trkpt lat="29.570532" lon="103.391422"><ele>729.2498</ele><time>2026-04-04T05:53:15.000Z</time></trkpt>
        <trkpt lat="29.570543" lon="103.391479"><ele>730.97186</ele><time>2026-04-04T05:53:19.000Z</time></trkpt>
        <trkpt lat="29.570589" lon="103.391489"><ele>731.5953</ele><time>2026-04-04T05:53:23.000Z</time></trkpt>
        <trkpt lat="29.570638" lon="103.391504"><ele>729.39746</ele><time>2026-04-04T05:53:27.000Z</time></trkpt>
        <trkpt lat="29.570687" lon="103.391506"><ele>728.17334</ele><time>2026-04-04T05:53:30.000Z</time></trkpt>
        <trkpt lat="29.570731" lon="103.391537"><ele>726.789</ele><time>2026-04-04T05:53:37.000Z</time></trkpt>
        <trkpt lat="29.570784" lon="103.391578"><ele>725.7287</ele><time>2026-04-04T05:53:43.000Z</time></trkpt>
        <trkpt lat="29.570833" lon="103.391599"><ele>726.5588</ele><time>2026-04-04T05:53:46.000Z</time></trkpt>
        <trkpt lat="29.570866" lon="103.391634"><ele>726.4356</ele><time>2026-04-04T05:53:49.000Z</time></trkpt>
        <trkpt lat="29.570888" lon="103.391687"><ele>727.2497</ele><time>2026-04-04T05:53:52.000Z</time></trkpt>
        <trkpt lat="29.570928" lon="103.391715"><ele>725.72687</ele><time>2026-04-04T05:53:56.000Z</time></trkpt>
        <trkpt lat="29.570972" lon="103.391742"><ele>724.0322</ele><time>2026-04-04T05:54:01.000Z</time></trkpt>
        <trkpt lat="29.571026" lon="103.391743"><ele>723.9806</ele><time>2026-04-04T05:54:05.000Z</time></trkpt>
        <trkpt lat="29.571073" lon="103.391765"><ele>723.4904</ele><time>2026-04-04T05:54:09.000Z</time></trkpt>
        <trkpt lat="29.571118" lon="103.391782"><ele>721.7954</ele><time>2026-04-04T05:54:13.000Z</time></trkpt>
        <trkpt lat="29.571171" lon="103.391783"><ele>719.4706</ele><time>2026-04-04T05:54:18.000Z</time></trkpt>
        <trkpt lat="29.571223" lon="103.391772"><ele>717.2513</ele><time>2026-04-04T05:54:22.000Z</time></trkpt>
        <trkpt lat="29.571272" lon="103.391748"><ele>715.607</ele><time>2026-04-04T05:54:26.000Z</time></trkpt>
        <trkpt lat="29.571323" lon="103.391739"><ele>714.6098</ele><time>2026-04-04T05:54:30.000Z</time></trkpt>
        <trkpt lat="29.571373" lon="103.391723"><ele>714.4129</ele><time>2026-04-04T05:54:34.000Z</time></trkpt>
        <trkpt lat="29.571422" lon="103.391718"><ele>712.3988</ele><time>2026-04-04T05:54:38.000Z</time></trkpt>
        <trkpt lat="29.571468" lon="103.391722"><ele>712.5262</ele><time>2026-04-04T05:54:42.000Z</time></trkpt>
        <trkpt lat="29.571522" lon="103.391726"><ele>712.65936</ele><time>2026-04-04T05:54:46.000Z</time></trkpt>
        <trkpt lat="29.571575" lon="103.391724"><ele>713.32513</ele><time>2026-04-04T05:54:50.000Z</time></trkpt>
        <trkpt lat="29.571632" lon="103.391705"><ele>712.1139</ele><time>2026-04-04T05:54:54.000Z</time></trkpt>
        <trkpt lat="29.571687" lon="103.3917"><ele>711.5089</ele><time>2026-04-04T05:54:58.000Z</time></trkpt>
        <trkpt lat="29.571741" lon="103.391705"><ele>711.55963</ele><time>2026-04-04T05:55:02.000Z</time></trkpt>
        <trkpt lat="29.571788" lon="103.391702"><ele>714.6246</ele><time>2026-04-04T05:55:16.000Z</time></trkpt>
        <trkpt lat="29.571835" lon="103.391738"><ele>715.9511</ele><time>2026-04-04T05:55:21.000Z</time></trkpt>
        <trkpt lat="29.571883" lon="103.391705"><ele>716.1208</ele><time>2026-04-04T05:55:25.000Z</time></trkpt>
        <trkpt lat="29.571927" lon="103.391693"><ele>715.7847</ele><time>2026-04-04T05:55:28.000Z</time></trkpt>
        <trkpt lat="29.57197" lon="103.391677"><ele>715.7291</ele><time>2026-04-04T05:55:31.000Z</time></trkpt>
        <trkpt lat="29.572014" lon="103.391701"><ele>715.5298</ele><time>2026-04-04T05:55:34.000Z</time></trkpt>
        <trkpt lat="29.572051" lon="103.391744"><ele>716.1143</ele><time>2026-04-04T05:55:37.000Z</time></trkpt>
        <trkpt lat="29.572096" lon="103.391735"><ele>718.11127</ele><time>2026-04-04T05:55:41.000Z</time></trkpt>
        <trkpt lat="29.572145" lon="103.391728"><ele>716.8519</ele><time>2026-04-04T05:55:45.000Z</time></trkpt>
        <trkpt lat="29.572193" lon="103.39176"><ele>718.28735</ele><time>2026-04-04T05:55:49.000Z</time></trkpt>
        <trkpt lat="29.572242" lon="103.391779"><ele>718.2941</ele><time>2026-04-04T05:55:52.000Z</time></trkpt>
        <trkpt lat="29.572294" lon="103.391786"><ele>718.36316</ele><time>2026-04-04T05:55:56.000Z</time></trkpt>
        <trkpt lat="29.572347" lon="103.391791"><ele>718.17145</ele><time>2026-04-04T05:56:00.000Z</time></trkpt>
        <trkpt lat="29.572401" lon="103.39182"><ele>719.11615</ele><time>2026-04-04T05:56:05.000Z</time></trkpt>
        <trkpt lat="29.572411" lon="103.391886"><ele>719.2047</ele><time>2026-04-04T05:56:09.000Z</time></trkpt>
        <trkpt lat="29.572467" lon="103.3919"><ele>718.3257</ele><time>2026-04-04T05:56:13.000Z</time></trkpt>
        <trkpt lat="29.572519" lon="103.391905"><ele>717.9853</ele><time>2026-04-04T05:56:17.000Z</time></trkpt>
        <trkpt lat="29.572575" lon="103.39189"><ele>718.2292</ele><time>2026-04-04T05:56:21.000Z</time></trkpt>
        <trkpt lat="29.572619" lon="103.391862"><ele>716.8889</ele><time>2026-04-04T05:56:25.000Z</time></trkpt>
        <trkpt lat="29.572665" lon="103.391864"><ele>715.44324</ele><time>2026-04-04T05:56:29.000Z</time></trkpt>
        <trkpt lat="29.572711" lon="103.391896"><ele>712.29034</ele><time>2026-04-04T05:56:35.000Z</time></trkpt>
        <trkpt lat="29.572739" lon="103.39195"><ele>713.16614</ele><time>2026-04-04T05:56:39.000Z</time></trkpt>
        <trkpt lat="29.572781" lon="103.391978"><ele>716.78925</ele><time>2026-04-04T05:56:43.000Z</time></trkpt>
        <trkpt lat="29.572831" lon="103.391963"><ele>717.3808</ele><time>2026-04-04T05:56:47.000Z</time></trkpt>
        <trkpt lat="29.572886" lon="103.391944"><ele>716.6235</ele><time>2026-04-04T05:56:54.000Z</time></trkpt>
        <trkpt lat="29.572925" lon="103.391915"><ele>716.7633</ele><time>2026-04-04T05:56:57.000Z</time></trkpt>
        <trkpt lat="29.572955" lon="103.391875"><ele>716.7026</ele><time>2026-04-04T05:57:00.000Z</time></trkpt>
        <trkpt lat="29.572998" lon="103.391827"><ele>716.11676</ele><time>2026-04-04T05:57:04.000Z</time></trkpt>
        <trkpt lat="29.573038" lon="103.391782"><ele>716.1273</ele><time>2026-04-04T05:57:08.000Z</time></trkpt>
        <trkpt lat="29.573089" lon="103.391753"><ele>715.1949</ele><time>2026-04-04T05:57:13.000Z</time></trkpt>
        <trkpt lat="29.573133" lon="103.39178"><ele>714.99927</ele><time>2026-04-04T05:57:16.000Z</time></trkpt>
        <trkpt lat="29.573173" lon="103.39181"><ele>715.6238</ele><time>2026-04-04T05:57:19.000Z</time></trkpt>
        <trkpt lat="29.573216" lon="103.391825"><ele>714.3928</ele><time>2026-04-04T05:57:23.000Z</time></trkpt>
        <trkpt lat="29.573272" lon="103.391824"><ele>713.60925</ele><time>2026-04-04T05:57:28.000Z</time></trkpt>
        <trkpt lat="29.573322" lon="103.391825"><ele>712.7637</ele><time>2026-04-04T05:57:35.000Z</time></trkpt>
        <trkpt lat="29.57337" lon="103.391814"><ele>712.2797</ele><time>2026-04-04T05:57:40.000Z</time></trkpt>
        <trkpt lat="29.573416" lon="103.391826"><ele>713.2933</ele><time>2026-04-04T05:57:43.000Z</time></trkpt>
        <trkpt lat="29.573467" lon="103.391859"><ele>713.8368</ele><time>2026-04-04T05:57:47.000Z</time></trkpt>
        <trkpt lat="29.573501" lon="103.391916"><ele>712.51025</ele><time>2026-04-04T05:57:51.000Z</time></trkpt>
        <trkpt lat="29.573526" lon="103.391964"><ele>711.1563</ele><time>2026-04-04T05:57:56.000Z</time></trkpt>
        <trkpt lat="29.573566" lon="103.391998"><ele>711.2089</ele><time>2026-04-04T05:58:00.000Z</time></trkpt>
        <trkpt lat="29.573615" lon="103.392018"><ele>712.8171</ele><time>2026-04-04T05:58:04.000Z</time></trkpt>
        <trkpt lat="29.573662" lon="103.392016"><ele>708.7813</ele><time>2026-04-04T05:58:12.000Z</time></trkpt>
        <trkpt lat="29.573672" lon="103.392069"><ele>707.321</ele><time>2026-04-04T05:58:15.000Z</time></trkpt>
        <trkpt lat="29.573711" lon="103.392098"><ele>705.6389</ele><time>2026-04-04T05:58:19.000Z</time></trkpt>
        <trkpt lat="29.573754" lon="103.392119"><ele>704.2547</ele><time>2026-04-04T05:58:23.000Z</time></trkpt>
        <trkpt lat="29.573799" lon="103.39215"><ele>705.21436</ele><time>2026-04-04T05:58:27.000Z</time></trkpt>
        <trkpt lat="29.57385" lon="103.392147"><ele>704.28033</ele><time>2026-04-04T05:58:31.000Z</time></trkpt>
        <trkpt lat="29.573896" lon="103.392158"><ele>705.46246</ele><time>2026-04-04T05:58:39.000Z</time></trkpt>
        <trkpt lat="29.573954" lon="103.392167"><ele>706.54205</ele><time>2026-04-04T05:58:46.000Z</time></trkpt>
        <trkpt lat="29.574002" lon="103.392153"><ele>704.89197</ele><time>2026-04-04T05:58:51.000Z</time></trkpt>
        <trkpt lat="29.574046" lon="103.392114"><ele>703.1386</ele><time>2026-04-04T05:58:54.000Z</time></trkpt>
        <trkpt lat="29.574093" lon="103.392099"><ele>700.9171</ele><time>2026-04-04T05:58:57.000Z</time></trkpt>
        <trkpt lat="29.574135" lon="103.392121"><ele>697.09314</ele><time>2026-04-04T05:59:05.000Z</time></trkpt>
        <trkpt lat="29.574172" lon="103.392166"><ele>697.1453</ele><time>2026-04-04T05:59:10.000Z</time></trkpt>
        <trkpt lat="29.574178" lon="103.392223"><ele>698.7377</ele><time>2026-04-04T05:59:19.000Z</time></trkpt>
        <trkpt lat="29.574226" lon="103.392253"><ele>696.28284</ele><time>2026-04-04T05:59:29.000Z</time></trkpt>
        <trkpt lat="29.574252" lon="103.392298"><ele>692.25195</ele><time>2026-04-04T05:59:35.000Z</time></trkpt>
        <trkpt lat="29.57425" lon="103.392353"><ele>692.2757</ele><time>2026-04-04T05:59:39.000Z</time></trkpt>
        <trkpt lat="29.574211" lon="103.392388"><ele>694.7795</ele><time>2026-04-04T05:59:45.000Z</time></trkpt>
        <trkpt lat="29.57418" lon="103.392431"><ele>698.268</ele><time>2026-04-04T05:59:51.000Z</time></trkpt>
        <trkpt lat="29.574131" lon="103.392445"><ele>701.0397</ele><time>2026-04-04T06:00:03.000Z</time></trkpt>
        <trkpt lat="29.574089" lon="103.392424"><ele>701.563</ele><time>2026-04-04T06:00:13.000Z</time></trkpt>
        <trkpt lat="29.574074" lon="103.392481"><ele>702.32153</ele><time>2026-04-04T06:00:19.000Z</time></trkpt>
        <trkpt lat="29.574077" lon="103.392535"><ele>701.5658</ele><time>2026-04-04T06:00:24.000Z</time></trkpt>
        <trkpt lat="29.57411" lon="103.392573"><ele>702.5876</ele><time>2026-04-04T06:00:29.000Z</time></trkpt>
        <trkpt lat="29.57413" lon="103.392623"><ele>702.1701</ele><time>2026-04-04T06:00:33.000Z</time></trkpt>
        <trkpt lat="29.574125" lon="103.392678"><ele>704.4277</ele><time>2026-04-04T06:00:39.000Z</time></trkpt>
        <trkpt lat="29.574135" lon="103.392735"><ele>707.864</ele><time>2026-04-04T06:00:48.000Z</time></trkpt>
        <trkpt lat="29.574123" lon="103.392791"><ele>710.3292</ele><time>2026-04-04T06:00:57.000Z</time></trkpt>
        <trkpt lat="29.574117" lon="103.392844"><ele>710.71344</ele><time>2026-04-04T06:01:05.000Z</time></trkpt>
        <trkpt lat="29.574099" lon="103.3929"><ele>709.80066</ele><time>2026-04-04T06:01:12.000Z</time></trkpt>
        <trkpt lat="29.574062" lon="103.392937"><ele>713.1417</ele><time>2026-04-04T06:01:22.000Z</time></trkpt>
        <trkpt lat="29.574043" lon="103.392986"><ele>714.7721</ele><time>2026-04-04T06:01:31.000Z</time></trkpt>
        <trkpt lat="29.574032" lon="103.393037"><ele>715.71466</ele><time>2026-04-04T06:01:35.000Z</time></trkpt>
        <trkpt lat="29.57403" lon="103.393094"><ele>717.88385</ele><time>2026-04-04T06:01:45.000Z</time></trkpt>
        <trkpt lat="29.57402" lon="103.393148"><ele>719.9657</ele><time>2026-04-04T06:01:55.000Z</time></trkpt>
        <trkpt lat="29.574017" lon="103.393204"><ele>719.60046</ele><time>2026-04-04T06:02:02.000Z</time></trkpt>
        <trkpt lat="29.573993" lon="103.393253"><ele>719.0862</ele><time>2026-04-04T06:02:07.000Z</time></trkpt>
        <trkpt lat="29.573951" lon="103.393284"><ele>720.74506</ele><time>2026-04-04T06:02:13.000Z</time></trkpt>
        <trkpt lat="29.57391" lon="103.39332"><ele>722.4943</ele><time>2026-04-04T06:02:19.000Z</time></trkpt>
        <trkpt lat="29.573872" lon="103.393361"><ele>722.2679</ele><time>2026-04-04T06:02:23.000Z</time></trkpt>
        <trkpt lat="29.573833" lon="103.393401"><ele>721.3719</ele><time>2026-04-04T06:02:27.000Z</time></trkpt>
        <trkpt lat="29.573794" lon="103.393431"><ele>721.41205</ele><time>2026-04-04T06:02:31.000Z</time></trkpt>
        <trkpt lat="29.573748" lon="103.393465"><ele>720.6537</ele><time>2026-04-04T06:02:35.000Z</time></trkpt>
        <trkpt lat="29.573696" lon="103.393487"><ele>720.24603</ele><time>2026-04-04T06:02:40.000Z</time></trkpt>
        <trkpt lat="29.573648" lon="103.393517"><ele>720.5143</ele><time>2026-04-04T06:02:45.000Z</time></trkpt>
        <trkpt lat="29.573596" lon="103.393546"><ele>719.5288</ele><time>2026-04-04T06:02:53.000Z</time></trkpt>
        <trkpt lat="29.573549" lon="103.393573"><ele>717.88055</ele><time>2026-04-04T06:02:58.000Z</time></trkpt>
        <trkpt lat="29.573497" lon="103.393604"><ele>718.2843</ele><time>2026-04-04T06:03:04.000Z</time></trkpt>
        <trkpt lat="29.573451" lon="103.393623"><ele>719.04553</ele><time>2026-04-04T06:03:08.000Z</time></trkpt>
        <trkpt lat="29.573397" lon="103.393639"><ele>720.5599</ele><time>2026-04-04T06:03:12.000Z</time></trkpt>
        <trkpt lat="29.57335" lon="103.393668"><ele>722.1457</ele><time>2026-04-04T06:03:16.000Z</time></trkpt>
        <trkpt lat="29.573317" lon="103.393716"><ele>723.63165</ele><time>2026-04-04T06:03:20.000Z</time></trkpt>
        <trkpt lat="29.57328" lon="103.393766"><ele>724.1057</ele><time>2026-04-04T06:03:26.000Z</time></trkpt>
        <trkpt lat="29.573284" lon="103.39382"><ele>726.1374</ele><time>2026-04-04T06:03:35.000Z</time></trkpt>
        <trkpt lat="29.57326" lon="103.393767"><ele>718.7644</ele><time>2026-04-04T06:05:14.000Z</time></trkpt>
        <trkpt lat="29.573214" lon="103.393761"><ele>722.10016</ele><time>2026-04-04T06:05:23.000Z</time></trkpt>
        <trkpt lat="29.573155" lon="103.393759"><ele>721.58765</ele><time>2026-04-04T06:05:28.000Z</time></trkpt>
        <trkpt lat="29.573101" lon="103.393765"><ele>721.86053</ele><time>2026-04-04T06:05:31.000Z</time></trkpt>
        <trkpt lat="29.573061" lon="103.39379"><ele>724.3484</ele><time>2026-04-04T06:05:35.000Z</time></trkpt>
        <trkpt lat="29.573036" lon="103.393837"><ele>723.5861</ele><time>2026-04-04T06:05:38.000Z</time></trkpt>
        <trkpt lat="29.573018" lon="103.393887"><ele>724.72186</ele><time>2026-04-04T06:05:41.000Z</time></trkpt>
        <trkpt lat="29.572999" lon="103.393942"><ele>723.9951</ele><time>2026-04-04T06:05:46.000Z</time></trkpt>
        <trkpt lat="29.572987" lon="103.393992"><ele>721.36163</ele><time>2026-04-04T06:05:52.000Z</time></trkpt>
        <trkpt lat="29.572956" lon="103.394044"><ele>722.4892</ele><time>2026-04-04T06:05:55.000Z</time></trkpt>
        <trkpt lat="29.572923" lon="103.394101"><ele>722.3323</ele><time>2026-04-04T06:06:00.000Z</time></trkpt>
        <trkpt lat="29.572904" lon="103.394157"><ele>719.8218</ele><time>2026-04-04T06:06:06.000Z</time></trkpt>
        <trkpt lat="29.572891" lon="103.394211"><ele>721.61804</ele><time>2026-04-04T06:06:10.000Z</time></trkpt>
        <trkpt lat="29.572877" lon="103.394263"><ele>723.63824</ele><time>2026-04-04T06:06:17.000Z</time></trkpt>
        <trkpt lat="29.572864" lon="103.394316"><ele>725.15955</ele><time>2026-04-04T06:06:21.000Z</time></trkpt>
        <trkpt lat="29.572846" lon="103.394367"><ele>724.265</ele><time>2026-04-04T06:06:26.000Z</time></trkpt>
        <trkpt lat="29.572818" lon="103.394417"><ele>724.4211</ele><time>2026-04-04T06:06:32.000Z</time></trkpt>
        <trkpt lat="29.572793" lon="103.394463"><ele>724.75287</ele><time>2026-04-04T06:06:35.000Z</time></trkpt>
        <trkpt lat="29.572785" lon="103.394525"><ele>725.8815</ele><time>2026-04-04T06:06:40.000Z</time></trkpt>
        <trkpt lat="29.572782" lon="103.39458"><ele>728.4288</ele><time>2026-04-04T06:06:50.000Z</time></trkpt>
        <trkpt lat="29.572769" lon="103.394633"><ele>733.71106</ele><time>2026-04-04T06:07:08.000Z</time></trkpt>
        <trkpt lat="29.572784" lon="103.39469"><ele>734.9664</ele><time>2026-04-04T06:07:16.000Z</time></trkpt>
        <trkpt lat="29.572826" lon="103.394727"><ele>739.26105</ele><time>2026-04-04T06:07:24.000Z</time></trkpt>
        <trkpt lat="29.572862" lon="103.39477"><ele>739.62244</ele><time>2026-04-04T06:07:31.000Z</time></trkpt>
        <trkpt lat="29.572896" lon="103.39481"><ele>744.91364</ele><time>2026-04-04T06:07:40.000Z</time></trkpt>
        <trkpt lat="29.572933" lon="103.394862"><ele>747.7887</ele><time>2026-04-04T06:07:47.000Z</time></trkpt>
        <trkpt lat="29.572955" lon="103.394913"><ele>749.06775</ele><time>2026-04-04T06:07:52.000Z</time></trkpt>
        <trkpt lat="29.572966" lon="103.394966"><ele>749.581</ele><time>2026-04-04T06:07:57.000Z</time></trkpt>
        <trkpt lat="29.572959" lon="103.395027"><ele>751.4248</ele><time>2026-04-04T06:08:02.000Z</time></trkpt>
        <trkpt lat="29.572963" lon="103.395085"><ele>750.7748</ele><time>2026-04-04T06:08:09.000Z</time></trkpt>
        <trkpt lat="29.572964" lon="103.39515"><ele>752.0581</ele><time>2026-04-04T06:08:14.000Z</time></trkpt>
        <trkpt lat="29.57298" lon="103.395202"><ele>754.2794</ele><time>2026-04-04T06:08:22.000Z</time></trkpt>
        <trkpt lat="29.572993" lon="103.395253"><ele>755.78864</ele><time>2026-04-04T06:08:27.000Z</time></trkpt>
        <trkpt lat="29.573015" lon="103.395307"><ele>756.43744</ele><time>2026-04-04T06:08:33.000Z</time></trkpt>
        <trkpt lat="29.573015" lon="103.395368"><ele>757.4169</ele><time>2026-04-04T06:08:41.000Z</time></trkpt>
        <trkpt lat="29.572986" lon="103.395425"><ele>758.43665</ele><time>2026-04-04T06:08:47.000Z</time></trkpt>
        <trkpt lat="29.572954" lon="103.395473"><ele>760.08765</ele><time>2026-04-04T06:08:52.000Z</time></trkpt>
        <trkpt lat="29.572935" lon="103.395524"><ele>761.9919</ele><time>2026-04-04T06:08:57.000Z</time></trkpt>
        <trkpt lat="29.572909" lon="103.395586"><ele>763.5909</ele><time>2026-04-04T06:09:01.000Z</time></trkpt>
        <trkpt lat="29.572878" lon="103.395633"><ele>764.561</ele><time>2026-04-04T06:09:05.000Z</time></trkpt>
        <trkpt lat="29.572848" lon="103.395684"><ele>764.1208</ele><time>2026-04-04T06:09:09.000Z</time></trkpt>
        <trkpt lat="29.572823" lon="103.395741"><ele>763.83307</ele><time>2026-04-04T06:09:14.000Z</time></trkpt>
        <trkpt lat="29.572796" lon="103.395787"><ele>763.96716</ele><time>2026-04-04T06:09:17.000Z</time></trkpt>
        <trkpt lat="29.572757" lon="103.395836"><ele>761.30176</ele><time>2026-04-04T06:09:23.000Z</time></trkpt>
        <trkpt lat="29.572726" lon="103.395878"><ele>759.2658</ele><time>2026-04-04T06:09:28.000Z</time></trkpt>
        <trkpt lat="29.572676" lon="103.395884"><ele>760.6234</ele><time>2026-04-04T06:09:37.000Z</time></trkpt>
        <trkpt lat="29.572645" lon="103.395923"><ele>761.6426</ele><time>2026-04-04T06:09:41.000Z</time></trkpt>
        <trkpt lat="29.572599" lon="103.395925"><ele>763.2115</ele><time>2026-04-04T06:09:48.000Z</time></trkpt>
        <trkpt lat="29.572567" lon="103.395983"><ele>766.4995</ele><time>2026-04-04T06:09:55.000Z</time></trkpt>
        <trkpt lat="29.572535" lon="103.396022"><ele>767.3223</ele><time>2026-04-04T06:09:59.000Z</time></trkpt>
        <trkpt lat="29.572488" lon="103.396043"><ele>769.83954</ele><time>2026-04-04T06:10:06.000Z</time></trkpt>
        <trkpt lat="29.572444" lon="103.39607"><ele>771.2377</ele><time>2026-04-04T06:10:11.000Z</time></trkpt>
        <trkpt lat="29.57242" lon="103.396123"><ele>772.5995</ele><time>2026-04-04T06:10:18.000Z</time></trkpt>
        <trkpt lat="29.572409" lon="103.396175"><ele>772.7239</ele><time>2026-04-04T06:10:24.000Z</time></trkpt>
        <trkpt lat="29.572411" lon="103.396229"><ele>772.87683</ele><time>2026-04-04T06:10:29.000Z</time></trkpt>
        <trkpt lat="29.57242" lon="103.396285"><ele>773.3914</ele><time>2026-04-04T06:10:34.000Z</time></trkpt>
        <trkpt lat="29.572399" lon="103.396337"><ele>773.69727</ele><time>2026-04-04T06:10:39.000Z</time></trkpt>
        <trkpt lat="29.572362" lon="103.396368"><ele>776.1649</ele><time>2026-04-04T06:10:45.000Z</time></trkpt>
        <trkpt lat="29.572362" lon="103.396423"><ele>777.2806</ele><time>2026-04-04T06:10:48.000Z</time></trkpt>
        <trkpt lat="29.572376" lon="103.396481"><ele>775.1098</ele><time>2026-04-04T06:11:03.000Z</time></trkpt>
        <trkpt lat="29.572366" lon="103.396532"><ele>775.13666</ele><time>2026-04-04T06:11:08.000Z</time></trkpt>
        <trkpt lat="29.572382" lon="103.396582"><ele>772.001</ele><time>2026-04-04T06:11:16.000Z</time></trkpt>
        <trkpt lat="29.572362" lon="103.396635"><ele>774.9393</ele><time>2026-04-04T06:11:22.000Z</time></trkpt>
        <trkpt lat="29.572342" lon="103.396692"><ele>775.8614</ele><time>2026-04-04T06:11:27.000Z</time></trkpt>
        <trkpt lat="29.572301" lon="103.39672"><ele>775.6656</ele><time>2026-04-04T06:11:35.000Z</time></trkpt>
        <trkpt lat="29.572257" lon="103.396744"><ele>777.4497</ele><time>2026-04-04T06:11:47.000Z</time></trkpt>
        <trkpt lat="29.572212" lon="103.396729"><ele>780.6153</ele><time>2026-04-04T06:11:58.000Z</time></trkpt>
        <trkpt lat="29.572165" lon="103.39674"><ele>779.44806</ele><time>2026-04-04T06:12:04.000Z</time></trkpt>
        <trkpt lat="29.572121" lon="103.396755"><ele>781.7807</ele><time>2026-04-04T06:12:13.000Z</time></trkpt>
        <trkpt lat="29.572072" lon="103.396772"><ele>784.7386</ele><time>2026-04-04T06:12:25.000Z</time></trkpt>
        <trkpt lat="29.572026" lon="103.396787"><ele>786.1547</ele><time>2026-04-04T06:12:35.000Z</time></trkpt>
        <trkpt lat="29.571979" lon="103.396809"><ele>789.27435</ele><time>2026-04-04T06:12:39.000Z</time></trkpt>
        <trkpt lat="29.571931" lon="103.396821"><ele>789.6882</ele><time>2026-04-04T06:12:46.000Z</time></trkpt>
        <trkpt lat="29.571877" lon="103.396842"><ele>790.73737</ele><time>2026-04-04T06:12:54.000Z</time></trkpt>
        <trkpt lat="29.571832" lon="103.396859"><ele>795.25256</ele><time>2026-04-04T06:12:59.000Z</time></trkpt>
        <trkpt lat="29.571781" lon="103.396878"><ele>797.6468</ele><time>2026-04-04T06:13:05.000Z</time></trkpt>
        <trkpt lat="29.571749" lon="103.396916"><ele>798.16077</ele><time>2026-04-04T06:13:15.000Z</time></trkpt>
        <trkpt lat="29.571734" lon="103.396971"><ele>803.5726</ele><time>2026-04-04T06:13:26.000Z</time></trkpt>
        <trkpt lat="29.571705" lon="103.397021"><ele>803.41095</ele><time>2026-04-04T06:13:34.000Z</time></trkpt>
        <trkpt lat="29.571665" lon="103.397066"><ele>804.97986</ele><time>2026-04-04T06:13:42.000Z</time></trkpt>
        <trkpt lat="29.571643" lon="103.397113"><ele>805.22327</ele><time>2026-04-04T06:13:56.000Z</time></trkpt>
        <trkpt lat="29.571601" lon="103.397152"><ele>804.7426</ele><time>2026-04-04T06:14:09.000Z</time></trkpt>
        <trkpt lat="29.571599" lon="103.397204"><ele>809.24146</ele><time>2026-04-04T06:14:19.000Z</time></trkpt>
        <trkpt lat="29.571572" lon="103.397259"><ele>807.95526</ele><time>2026-04-04T06:14:26.000Z</time></trkpt>
        <trkpt lat="29.571533" lon="103.397294"><ele>813.7211</ele><time>2026-04-04T06:14:36.000Z</time></trkpt>
        <trkpt lat="29.571493" lon="103.397324"><ele>812.9048</ele><time>2026-04-04T06:14:41.000Z</time></trkpt>
        <trkpt lat="29.571491" lon="103.397381"><ele>813.7409</ele><time>2026-04-04T06:14:49.000Z</time></trkpt>
        <trkpt lat="29.571476" lon="103.397441"><ele>817.5916</ele><time>2026-04-04T06:14:57.000Z</time></trkpt>
        <trkpt lat="29.571477" lon="103.397509"><ele>818.9244</ele><time>2026-04-04T06:15:04.000Z</time></trkpt>
        <trkpt lat="29.571471" lon="103.39756"><ele>818.16174</ele><time>2026-04-04T06:15:09.000Z</time></trkpt>
        <trkpt lat="29.571469" lon="103.39762"><ele>815.8246</ele><time>2026-04-04T06:15:14.000Z</time></trkpt>
        <trkpt lat="29.571474" lon="103.397672"><ele>816.09204</ele><time>2026-04-04T06:15:23.000Z</time></trkpt>
        <trkpt lat="29.571492" lon="103.397728"><ele>817.29486</ele><time>2026-04-04T06:15:30.000Z</time></trkpt>
        <trkpt lat="29.571517" lon="103.397772"><ele>817.78375</ele><time>2026-04-04T06:15:35.000Z</time></trkpt>
        <trkpt lat="29.57153" lon="103.397824"><ele>818.05255</ele><time>2026-04-04T06:15:42.000Z</time></trkpt>
        <trkpt lat="29.571537" lon="103.397877"><ele>820.37695</ele><time>2026-04-04T06:15:51.000Z</time></trkpt>
        <trkpt lat="29.571551" lon="103.397929"><ele>822.7263</ele><time>2026-04-04T06:15:58.000Z</time></trkpt>
        <trkpt lat="29.571567" lon="103.397978"><ele>829.05176</ele><time>2026-04-04T06:16:12.000Z</time></trkpt>
        <trkpt lat="29.571584" lon="103.39803"><ele>830.98254</ele><time>2026-04-04T06:16:21.000Z</time></trkpt>
        <trkpt lat="29.571596" lon="103.398084"><ele>829.27966</ele><time>2026-04-04T06:16:31.000Z</time></trkpt>
        <trkpt lat="29.571614" lon="103.398142"><ele>831.89453</ele><time>2026-04-04T06:16:40.000Z</time></trkpt>
        <trkpt lat="29.571623" lon="103.398196"><ele>833.9112</ele><time>2026-04-04T06:16:47.000Z</time></trkpt>
        <trkpt lat="29.571629" lon="103.398257"><ele>835.896</ele><time>2026-04-04T06:16:54.000Z</time></trkpt>
        <trkpt lat="29.571602" lon="103.398299"><ele>835.67645</ele><time>2026-04-04T06:17:03.000Z</time></trkpt>
        <trkpt lat="29.571595" lon="103.39835"><ele>835.8049</ele><time>2026-04-04T06:17:11.000Z</time></trkpt>
        <trkpt lat="29.571605" lon="103.398405"><ele>841.32367</ele><time>2026-04-04T06:17:20.000Z</time></trkpt>
        <trkpt lat="29.571612" lon="103.398459"><ele>842.634</ele><time>2026-04-04T06:17:30.000Z</time></trkpt>
        <trkpt lat="29.571624" lon="103.398512"><ele>843.745</ele><time>2026-04-04T06:17:36.000Z</time></trkpt>
        <trkpt lat="29.571629" lon="103.39857"><ele>844.989</ele><time>2026-04-04T06:17:41.000Z</time></trkpt>
        <trkpt lat="29.57163" lon="103.398627"><ele>845.4897</ele><time>2026-04-04T06:17:47.000Z</time></trkpt>
        <trkpt lat="29.57163" lon="103.398686"><ele>845.5325</ele><time>2026-04-04T06:17:52.000Z</time></trkpt>
        <trkpt lat="29.571628" lon="103.398748"><ele>845.11084</ele><time>2026-04-04T06:17:56.000Z</time></trkpt>
        <trkpt lat="29.571638" lon="103.3988"><ele>845.1084</ele><time>2026-04-04T06:18:00.000Z</time></trkpt>
        <trkpt lat="29.571634" lon="103.398861"><ele>844.0604</ele><time>2026-04-04T06:18:06.000Z</time></trkpt>
        <trkpt lat="29.571643" lon="103.398913"><ele>844.6713</ele><time>2026-04-04T06:18:09.000Z</time></trkpt>
        <trkpt lat="29.571654" lon="103.398963"><ele>845.0545</ele><time>2026-04-04T06:18:15.000Z</time></trkpt>
        <trkpt lat="29.571683" lon="103.399016"><ele>846.92096</ele><time>2026-04-04T06:18:32.000Z</time></trkpt>
        <trkpt lat="29.571662" lon="103.398969"><ele>844.8561</ele><time>2026-04-04T06:18:45.000Z</time></trkpt>
        <trkpt lat="29.571688" lon="103.399016"><ele>845.76935</ele><time>2026-04-04T06:21:00.000Z</time></trkpt>
        <trkpt lat="29.5717" lon="103.399068"><ele>843.0602</ele><time>2026-04-04T06:21:07.000Z</time></trkpt>
        <trkpt lat="29.571679" lon="103.399115"><ele>842.1319</ele><time>2026-04-04T06:21:12.000Z</time></trkpt>
        <trkpt lat="29.571669" lon="103.39918"><ele>842.1478</ele><time>2026-04-04T06:21:17.000Z</time></trkpt>
        <trkpt lat="29.571652" lon="103.399233"><ele>843.3036</ele><time>2026-04-04T06:21:21.000Z</time></trkpt>
        <trkpt lat="29.571604" lon="103.399233"><ele>843.1087</ele><time>2026-04-04T06:21:45.000Z</time></trkpt>
        <trkpt lat="29.571648" lon="103.399245"><ele>842.14166</ele><time>2026-04-04T06:21:57.000Z</time></trkpt>
        <trkpt lat="29.571683" lon="103.399202"><ele>846.00055</ele><time>2026-04-04T06:22:05.000Z</time></trkpt>
        <trkpt lat="29.571698" lon="103.399141"><ele>844.9102</ele><time>2026-04-04T06:22:10.000Z</time></trkpt>
        <trkpt lat="29.571714" lon="103.399092"><ele>843.5166</ele><time>2026-04-04T06:22:14.000Z</time></trkpt>
        <trkpt lat="29.571707" lon="103.399038"><ele>843.74835</ele><time>2026-04-04T06:22:20.000Z</time></trkpt>
        <trkpt lat="29.571689" lon="103.398976"><ele>844.18585</ele><time>2026-04-04T06:22:27.000Z</time></trkpt>
        <trkpt lat="29.571675" lon="103.398926"><ele>844.00757</ele><time>2026-04-04T06:22:44.000Z</time></trkpt>
        <trkpt lat="29.571628" lon="103.398947"><ele>842.7417</ele><time>2026-04-04T06:22:50.000Z</time></trkpt>
        <trkpt lat="29.571675" lon="103.398965"><ele>842.3814</ele><time>2026-04-04T06:22:58.000Z</time></trkpt>
        <trkpt lat="29.571643" lon="103.399002"><ele>844.1362</ele><time>2026-04-04T06:23:08.000Z</time></trkpt>
        <trkpt lat="29.571685" lon="103.39896"><ele>848.1373</ele><time>2026-04-04T06:23:39.000Z</time></trkpt>
        <trkpt lat="29.571637" lon="103.398954"><ele>855.0711</ele><time>2026-04-04T06:26:40.000Z</time></trkpt>
        <trkpt lat="29.571681" lon="103.39897"><ele>850.5092</ele><time>2026-04-04T06:28:38.000Z</time></trkpt>
        <trkpt lat="29.571663" lon="103.398921"><ele>843.0567</ele><time>2026-04-04T06:32:10.000Z</time></trkpt>
        <trkpt lat="29.57165" lon="103.398976"><ele>846.88245</ele><time>2026-04-04T06:34:47.000Z</time></trkpt>
        <trkpt lat="29.571608" lon="103.398958"><ele>843.5084</ele><time>2026-04-04T06:35:03.000Z</time></trkpt>
        <trkpt lat="29.571611" lon="103.398903"><ele>842.19403</ele><time>2026-04-04T06:35:36.000Z</time></trkpt>
        <trkpt lat="29.571627" lon="103.398954"><ele>842.9536</ele><time>2026-04-04T06:35:43.000Z</time></trkpt>
        <trkpt lat="29.571656" lon="103.398997"><ele>845.6052</ele><time>2026-04-04T06:35:52.000Z</time></trkpt>
        <trkpt lat="29.571677" lon="103.39894"><ele>843.7918</ele><time>2026-04-04T06:36:29.000Z</time></trkpt>
        <trkpt lat="29.571649" lon="103.398983"><ele>846.9264</ele><time>2026-04-04T06:37:00.000Z</time></trkpt>
        <trkpt lat="29.571667" lon="103.398935"><ele>850.4237</ele><time>2026-04-04T06:37:36.000Z</time></trkpt>
        <trkpt lat="29.571673" lon="103.398989"><ele>846.338</ele><time>2026-04-04T06:38:24.000Z</time></trkpt>
        <trkpt lat="29.571708" lon="103.399036"><ele>841.1848</ele><time>2026-04-04T06:38:38.000Z</time></trkpt>
        <trkpt lat="29.571706" lon="103.399101"><ele>838.9429</ele><time>2026-04-04T06:38:45.000Z</time></trkpt>
        <trkpt lat="29.571724" lon="103.39916"><ele>839.36395</ele><time>2026-04-04T06:38:49.000Z</time></trkpt>
        <trkpt lat="29.57175" lon="103.399202"><ele>839.80383</ele><time>2026-04-04T06:38:53.000Z</time></trkpt>
        <trkpt lat="29.571776" lon="103.399252"><ele>838.51416</ele><time>2026-04-04T06:38:58.000Z</time></trkpt>
        <trkpt lat="29.571809" lon="103.399291"><ele>836.26263</ele><time>2026-04-04T06:39:04.000Z</time></trkpt>
        <trkpt lat="29.571828" lon="103.399344"><ele>834.007</ele><time>2026-04-04T06:39:09.000Z</time></trkpt>
        <trkpt lat="29.571851" lon="103.399398"><ele>831.74066</ele><time>2026-04-04T06:39:15.000Z</time></trkpt>
        <trkpt lat="29.571854" lon="103.399457"><ele>831.1796</ele><time>2026-04-04T06:39:21.000Z</time></trkpt>
        <trkpt lat="29.571875" lon="103.399514"><ele>832.99896</ele><time>2026-04-04T06:39:25.000Z</time></trkpt>
        <trkpt lat="29.571861" lon="103.399573"><ele>830.1027</ele><time>2026-04-04T06:39:30.000Z</time></trkpt>
        <trkpt lat="29.571865" lon="103.399631"><ele>827.9475</ele><time>2026-04-04T06:39:35.000Z</time></trkpt>
        <trkpt lat="29.57188" lon="103.399688"><ele>824.63947</ele><time>2026-04-04T06:39:41.000Z</time></trkpt>
        <trkpt lat="29.571875" lon="103.399739"><ele>823.28937</ele><time>2026-04-04T06:39:47.000Z</time></trkpt>
        <trkpt lat="29.571847" lon="103.399798"><ele>821.8659</ele><time>2026-04-04T06:39:53.000Z</time></trkpt>
        <trkpt lat="29.571852" lon="103.39985"><ele>820.5295</ele><time>2026-04-04T06:39:58.000Z</time></trkpt>
        <trkpt lat="29.571832" lon="103.399898"><ele>819.5672</ele><time>2026-04-04T06:40:03.000Z</time></trkpt>
        <trkpt lat="29.571837" lon="103.399955"><ele>817.7331</ele><time>2026-04-04T06:40:10.000Z</time></trkpt>
        <trkpt lat="29.57185" lon="103.400008"><ele>814.7664</ele><time>2026-04-04T06:40:16.000Z</time></trkpt>
        <trkpt lat="29.571851" lon="103.400065"><ele>814.2284</ele><time>2026-04-04T06:40:21.000Z</time></trkpt>
        <trkpt lat="29.571845" lon="103.400117"><ele>811.5629</ele><time>2026-04-04T06:40:27.000Z</time></trkpt>
        <trkpt lat="29.571857" lon="103.400175"><ele>808.7856</ele><time>2026-04-04T06:40:32.000Z</time></trkpt>
        <trkpt lat="29.571864" lon="103.400228"><ele>807.8687</ele><time>2026-04-04T06:40:37.000Z</time></trkpt>
        <trkpt lat="29.57188" lon="103.400288"><ele>807.2666</ele><time>2026-04-04T06:40:43.000Z</time></trkpt>
        <trkpt lat="29.571879" lon="103.400343"><ele>801.10547</ele><time>2026-04-04T06:40:50.000Z</time></trkpt>
        <trkpt lat="29.571894" lon="103.400399"><ele>798.2866</ele><time>2026-04-04T06:40:57.000Z</time></trkpt>
        <trkpt lat="29.571908" lon="103.400461"><ele>794.82874</ele><time>2026-04-04T06:41:04.000Z</time></trkpt>
        <trkpt lat="29.571914" lon="103.400515"><ele>793.2292</ele><time>2026-04-04T06:41:12.000Z</time></trkpt>
        <trkpt lat="29.571918" lon="103.40057"><ele>790.4829</ele><time>2026-04-04T06:41:20.000Z</time></trkpt>
        <trkpt lat="29.571923" lon="103.400624"><ele>789.7334</ele><time>2026-04-04T06:41:24.000Z</time></trkpt>
        <trkpt lat="29.571936" lon="103.400675"><ele>789.37805</ele><time>2026-04-04T06:41:29.000Z</time></trkpt>
        <trkpt lat="29.571953" lon="103.400728"><ele>787.20465</ele><time>2026-04-04T06:41:35.000Z</time></trkpt>
        <trkpt lat="29.571958" lon="103.400779"><ele>782.20966</ele><time>2026-04-04T06:41:44.000Z</time></trkpt>
        <trkpt lat="29.571965" lon="103.400832"><ele>781.7124</ele><time>2026-04-04T06:41:50.000Z</time></trkpt>
        <trkpt lat="29.571966" lon="103.400889"><ele>780.03577</ele><time>2026-04-04T06:41:57.000Z</time></trkpt>
        <trkpt lat="29.57198" lon="103.400944"><ele>777.25665</ele><time>2026-04-04T06:42:02.000Z</time></trkpt>
        <trkpt lat="29.571989" lon="103.401"><ele>773.8401</ele><time>2026-04-04T06:42:07.000Z</time></trkpt>
        <trkpt lat="29.571987" lon="103.401067"><ele>778.33307</ele><time>2026-04-04T06:42:21.000Z</time></trkpt>
        <trkpt lat="29.572013" lon="103.401128"><ele>777.7304</ele><time>2026-04-04T06:42:24.000Z</time></trkpt>
        <trkpt lat="29.572011" lon="103.401201"><ele>772.1611</ele><time>2026-04-04T06:42:30.000Z</time></trkpt>
        <trkpt lat="29.572027" lon="103.401251"><ele>770.58405</ele><time>2026-04-04T06:42:34.000Z</time></trkpt>
        <trkpt lat="29.572029" lon="103.401312"><ele>768.2947</ele><time>2026-04-04T06:42:42.000Z</time></trkpt>
        <trkpt lat="29.572051" lon="103.401358"><ele>768.08905</ele><time>2026-04-04T06:42:46.000Z</time></trkpt>
        <trkpt lat="29.572051" lon="103.401412"><ele>768.36115</ele><time>2026-04-04T06:42:52.000Z</time></trkpt>
        <trkpt lat="29.572033" lon="103.401464"><ele>769.1203</ele><time>2026-04-04T06:42:59.000Z</time></trkpt>
        <trkpt lat="29.572019" lon="103.401519"><ele>766.1967</ele><time>2026-04-04T06:43:06.000Z</time></trkpt>
        <trkpt lat="29.571981" lon="103.401552"><ele>766.5783</ele><time>2026-04-04T06:43:11.000Z</time></trkpt>
        <trkpt lat="29.571937" lon="103.401589"><ele>765.74713</ele><time>2026-04-04T06:43:18.000Z</time></trkpt>
        <trkpt lat="29.571897" lon="103.401629"><ele>767.4162</ele><time>2026-04-04T06:43:23.000Z</time></trkpt>
        <trkpt lat="29.571859" lon="103.401657"><ele>768.3454</ele><time>2026-04-04T06:43:27.000Z</time></trkpt>
        <trkpt lat="29.57184" lon="103.401711"><ele>765.14874</ele><time>2026-04-04T06:43:36.000Z</time></trkpt>
        <trkpt lat="29.571816" lon="103.401759"><ele>763.68024</ele><time>2026-04-04T06:43:43.000Z</time></trkpt>
        <trkpt lat="29.571771" lon="103.40179"><ele>764.6728</ele><time>2026-04-04T06:43:51.000Z</time></trkpt>
        <trkpt lat="29.571739" lon="103.40183"><ele>765.6729</ele><time>2026-04-04T06:43:58.000Z</time></trkpt>
        <trkpt lat="29.571692" lon="103.401864"><ele>766.1362</ele><time>2026-04-04T06:44:04.000Z</time></trkpt>
        <trkpt lat="29.571638" lon="103.401872"><ele>766.5367</ele><time>2026-04-04T06:44:09.000Z</time></trkpt>
        <trkpt lat="29.571578" lon="103.401871"><ele>766.19543</ele><time>2026-04-04T06:44:13.000Z</time></trkpt>
        <trkpt lat="29.571534" lon="103.401901"><ele>766.76685</ele><time>2026-04-04T06:44:17.000Z</time></trkpt>
        <trkpt lat="29.5715" lon="103.401946"><ele>768.4278</ele><time>2026-04-04T06:44:22.000Z</time></trkpt>
        <trkpt lat="29.571475" lon="103.401992"><ele>765.9756</ele><time>2026-04-04T06:44:26.000Z</time></trkpt>
        <trkpt lat="29.571436" lon="103.402031"><ele>766.12976</ele><time>2026-04-04T06:44:31.000Z</time></trkpt>
        <trkpt lat="29.571401" lon="103.402072"><ele>765.1945</ele><time>2026-04-04T06:44:35.000Z</time></trkpt>
        <trkpt lat="29.571377" lon="103.402121"><ele>763.4625</ele><time>2026-04-04T06:44:39.000Z</time></trkpt>
        <trkpt lat="29.571339" lon="103.402154"><ele>760.51373</ele><time>2026-04-04T06:44:44.000Z</time></trkpt>
        <trkpt lat="29.571313" lon="103.402199"><ele>760.6627</ele><time>2026-04-04T06:44:48.000Z</time></trkpt>
        <trkpt lat="29.571281" lon="103.402249"><ele>760.504</ele><time>2026-04-04T06:44:52.000Z</time></trkpt>
        <trkpt lat="29.571248" lon="103.402297"><ele>763.1718</ele><time>2026-04-04T06:44:57.000Z</time></trkpt>
        <trkpt lat="29.571218" lon="103.402351"><ele>765.65027</ele><time>2026-04-04T06:45:02.000Z</time></trkpt>
        <trkpt lat="29.571186" lon="103.4024"><ele>764.8377</ele><time>2026-04-04T06:45:07.000Z</time></trkpt>
        <trkpt lat="29.571149" lon="103.40245"><ele>764.76733</ele><time>2026-04-04T06:45:12.000Z</time></trkpt>
        <trkpt lat="29.571132" lon="103.402504"><ele>766.4393</ele><time>2026-04-04T06:45:16.000Z</time></trkpt>
        <trkpt lat="29.571099" lon="103.402544"><ele>768.1548</ele><time>2026-04-04T06:45:20.000Z</time></trkpt>
        <trkpt lat="29.571067" lon="103.402602"><ele>769.04517</ele><time>2026-04-04T06:45:25.000Z</time></trkpt>
        <trkpt lat="29.571022" lon="103.40264"><ele>769.68896</ele><time>2026-04-04T06:45:30.000Z</time></trkpt>
        <trkpt lat="29.570971" lon="103.402643"><ele>769.7942</ele><time>2026-04-04T06:45:36.000Z</time></trkpt>
        <trkpt lat="29.570917" lon="103.402652"><ele>773.74774</ele><time>2026-04-04T06:45:41.000Z</time></trkpt>
        <trkpt lat="29.570871" lon="103.402663"><ele>775.2094</ele><time>2026-04-04T06:45:45.000Z</time></trkpt>
        <trkpt lat="29.570816" lon="103.402677"><ele>776.01483</ele><time>2026-04-04T06:45:50.000Z</time></trkpt>
        <trkpt lat="29.570775" lon="103.402702"><ele>775.1379</ele><time>2026-04-04T06:45:54.000Z</time></trkpt>
        <trkpt lat="29.570727" lon="103.402726"><ele>775.7332</ele><time>2026-04-04T06:45:58.000Z</time></trkpt>
        <trkpt lat="29.570678" lon="103.40275"><ele>777.57886</ele><time>2026-04-04T06:46:03.000Z</time></trkpt>
        <trkpt lat="29.570632" lon="103.402759"><ele>779.03687</ele><time>2026-04-04T06:46:07.000Z</time></trkpt>
        <trkpt lat="29.570586" lon="103.402764"><ele>780.11957</ele><time>2026-04-04T06:46:10.000Z</time></trkpt>
        <trkpt lat="29.57054" lon="103.402776"><ele>780.0367</ele><time>2026-04-04T06:46:15.000Z</time></trkpt>
        <trkpt lat="29.570492" lon="103.402786"><ele>780.8111</ele><time>2026-04-04T06:46:19.000Z</time></trkpt>
        <trkpt lat="29.57045" lon="103.402805"><ele>779.8331</ele><time>2026-04-04T06:46:23.000Z</time></trkpt>
        <trkpt lat="29.570403" lon="103.402789"><ele>780.0826</ele><time>2026-04-04T06:46:27.000Z</time></trkpt>
        <trkpt lat="29.570354" lon="103.402791"><ele>780.97754</ele><time>2026-04-04T06:46:30.000Z</time></trkpt>
        <trkpt lat="29.570308" lon="103.402793"><ele>782.37714</ele><time>2026-04-04T06:46:33.000Z</time></trkpt>
        <trkpt lat="29.570256" lon="103.402804"><ele>783.1988</ele><time>2026-04-04T06:46:37.000Z</time></trkpt>
        <trkpt lat="29.570208" lon="103.402823"><ele>785.90656</ele><time>2026-04-04T06:46:42.000Z</time></trkpt>
        <trkpt lat="29.570162" lon="103.402837"><ele>787.51953</ele><time>2026-04-04T06:46:46.000Z</time></trkpt>
        <trkpt lat="29.570125" lon="103.402869"><ele>788.62994</ele><time>2026-04-04T06:46:49.000Z</time></trkpt>
        <trkpt lat="29.570079" lon="103.402897"><ele>786.4655</ele><time>2026-04-04T06:46:53.000Z</time></trkpt>
        <trkpt lat="29.570062" lon="103.402955"><ele>784.411</ele><time>2026-04-04T06:46:58.000Z</time></trkpt>
        <trkpt lat="29.570048" lon="103.403024"><ele>785.7111</ele><time>2026-04-04T06:47:03.000Z</time></trkpt>
        <trkpt lat="29.570035" lon="103.403083"><ele>785.0275</ele><time>2026-04-04T06:47:07.000Z</time></trkpt>
        <trkpt lat="29.570015" lon="103.403131"><ele>784.2738</ele><time>2026-04-04T06:47:11.000Z</time></trkpt>
        <trkpt lat="29.569979" lon="103.403175"><ele>785.37524</ele><time>2026-04-04T06:47:16.000Z</time></trkpt>
        <trkpt lat="29.569944" lon="103.403219"><ele>786.0279</ele><time>2026-04-04T06:47:20.000Z</time></trkpt>
        <trkpt lat="29.569914" lon="103.403276"><ele>786.3857</ele><time>2026-04-04T06:47:24.000Z</time></trkpt>
        <trkpt lat="29.56989" lon="103.403321"><ele>787.4159</ele><time>2026-04-04T06:47:28.000Z</time></trkpt>
        <trkpt lat="29.569856" lon="103.403364"><ele>787.2675</ele><time>2026-04-04T06:47:32.000Z</time></trkpt>
        <trkpt lat="29.569816" lon="103.403414"><ele>787.4859</ele><time>2026-04-04T06:47:37.000Z</time></trkpt>
        <trkpt lat="29.569785" lon="103.403458"><ele>787.3129</ele><time>2026-04-04T06:47:41.000Z</time></trkpt>
        <trkpt lat="29.569752" lon="103.403499"><ele>786.8481</ele><time>2026-04-04T06:47:44.000Z</time></trkpt>
        <trkpt lat="29.569735" lon="103.40355"><ele>783.83435</ele><time>2026-04-04T06:47:47.000Z</time></trkpt>
        <trkpt lat="29.569696" lon="103.403581"><ele>784.2328</ele><time>2026-04-04T06:47:52.000Z</time></trkpt>
        <trkpt lat="29.569652" lon="103.403625"><ele>786.8733</ele><time>2026-04-04T06:47:58.000Z</time></trkpt>
        <trkpt lat="29.569614" lon="103.40366"><ele>786.89667</ele><time>2026-04-04T06:48:02.000Z</time></trkpt>
        <trkpt lat="29.569565" lon="103.403692"><ele>786.28986</ele><time>2026-04-04T06:48:06.000Z</time></trkpt>
        <trkpt lat="29.569526" lon="103.403717"><ele>787.3045</ele><time>2026-04-04T06:48:10.000Z</time></trkpt>
        <trkpt lat="29.56948" lon="103.403742"><ele>786.9654</ele><time>2026-04-04T06:48:15.000Z</time></trkpt>
        <trkpt lat="29.569435" lon="103.403778"><ele>788.38074</ele><time>2026-04-04T06:48:21.000Z</time></trkpt>
        <trkpt lat="29.569393" lon="103.403795"><ele>790.0517</ele><time>2026-04-04T06:48:23.000Z</time></trkpt>
        <trkpt lat="29.569349" lon="103.403838"><ele>790.14557</ele><time>2026-04-04T06:48:27.000Z</time></trkpt>
        <trkpt lat="29.569302" lon="103.403842"><ele>789.2935</ele><time>2026-04-04T06:48:30.000Z</time></trkpt>
        <trkpt lat="29.569247" lon="103.403865"><ele>789.4795</ele><time>2026-04-04T06:48:35.000Z</time></trkpt>
        <trkpt lat="29.569201" lon="103.403895"><ele>790.187</ele><time>2026-04-04T06:48:39.000Z</time></trkpt>
        <trkpt lat="29.56915" lon="103.40391"><ele>789.6687</ele><time>2026-04-04T06:48:44.000Z</time></trkpt>
        <trkpt lat="29.569106" lon="103.403926"><ele>790.78094</ele><time>2026-04-04T06:48:48.000Z</time></trkpt>
        <trkpt lat="29.569052" lon="103.403929"><ele>790.6216</ele><time>2026-04-04T06:48:54.000Z</time></trkpt>
        <trkpt lat="29.568998" lon="103.403908"><ele>791.00977</ele><time>2026-04-04T06:48:59.000Z</time></trkpt>
        <trkpt lat="29.56894" lon="103.403896"><ele>793.2517</ele><time>2026-04-04T06:49:04.000Z</time></trkpt>
        <trkpt lat="29.568893" lon="103.403897"><ele>793.68353</ele><time>2026-04-04T06:49:07.000Z</time></trkpt>
        <trkpt lat="29.568876" lon="103.403947"><ele>791.708</ele><time>2026-04-04T06:49:11.000Z</time></trkpt>
        <trkpt lat="29.56885" lon="103.404004"><ele>791.20593</ele><time>2026-04-04T06:49:16.000Z</time></trkpt>
        <trkpt lat="29.568836" lon="103.404054"><ele>788.0222</ele><time>2026-04-04T06:49:22.000Z</time></trkpt>
        <trkpt lat="29.568804" lon="103.404095"><ele>787.4375</ele><time>2026-04-04T06:49:26.000Z</time></trkpt>
        <trkpt lat="29.568784" lon="103.404143"><ele>787.5123</ele><time>2026-04-04T06:49:30.000Z</time></trkpt>
        <trkpt lat="29.56876" lon="103.404189"><ele>787.17944</ele><time>2026-04-04T06:49:35.000Z</time></trkpt>
        <trkpt lat="29.568768" lon="103.404241"><ele>786.5374</ele><time>2026-04-04T06:49:40.000Z</time></trkpt>
        <trkpt lat="29.5688" lon="103.404194"><ele>788.7077</ele><time>2026-04-04T06:49:53.000Z</time></trkpt>
        <trkpt lat="29.568806" lon="103.404143"><ele>789.3359</ele><time>2026-04-04T06:49:56.000Z</time></trkpt>
        <trkpt lat="29.568836" lon="103.404085"><ele>787.8559</ele><time>2026-04-04T06:49:59.000Z</time></trkpt>
        <trkpt lat="29.568854" lon="103.404023"><ele>787.2575</ele><time>2026-04-04T06:50:03.000Z</time></trkpt>
        <trkpt lat="29.568807" lon="103.404018"><ele>788.39844</ele><time>2026-04-04T06:50:12.000Z</time></trkpt>
        <trkpt lat="29.568774" lon="103.404054"><ele>789.79114</ele><time>2026-04-04T06:50:17.000Z</time></trkpt>
        <trkpt lat="29.56874" lon="103.404099"><ele>790.5483</ele><time>2026-04-04T06:50:21.000Z</time></trkpt>
        <trkpt lat="29.568712" lon="103.404142"><ele>791.1387</ele><time>2026-04-04T06:50:25.000Z</time></trkpt>
        <trkpt lat="29.568675" lon="103.404182"><ele>789.2919</ele><time>2026-04-04T06:50:30.000Z</time></trkpt>
        <trkpt lat="29.568649" lon="103.404225"><ele>789.9658</ele><time>2026-04-04T06:50:34.000Z</time></trkpt>
        <trkpt lat="29.568621" lon="103.404272"><ele>793.05707</ele><time>2026-04-04T06:50:40.000Z</time></trkpt>
        <trkpt lat="29.568586" lon="103.40431"><ele>795.6915</ele><time>2026-04-04T06:50:44.000Z</time></trkpt>
        <trkpt lat="29.568555" lon="103.404362"><ele>797.7995</ele><time>2026-04-04T06:50:48.000Z</time></trkpt>
        <trkpt lat="29.568523" lon="103.404411"><ele>798.48694</ele><time>2026-04-04T06:50:53.000Z</time></trkpt>
        <trkpt lat="29.568497" lon="103.404462"><ele>799.4584</ele><time>2026-04-04T06:50:58.000Z</time></trkpt>
        <trkpt lat="29.568464" lon="103.404505"><ele>799.1116</ele><time>2026-04-04T06:51:02.000Z</time></trkpt>
        <trkpt lat="29.568429" lon="103.404559"><ele>798.5257</ele><time>2026-04-04T06:51:06.000Z</time></trkpt>
        <trkpt lat="29.568409" lon="103.404613"><ele>797.3659</ele><time>2026-04-04T06:51:10.000Z</time></trkpt>
        <trkpt lat="29.568378" lon="103.404651"><ele>797.54767</ele><time>2026-04-04T06:51:13.000Z</time></trkpt>
        <trkpt lat="29.56835" lon="103.404693"><ele>798.2457</ele><time>2026-04-04T06:51:16.000Z</time></trkpt>
        <trkpt lat="29.568319" lon="103.404733"><ele>798.9205</ele><time>2026-04-04T06:51:20.000Z</time></trkpt>
        <trkpt lat="29.568288" lon="103.404784"><ele>797.55347</ele><time>2026-04-04T06:51:24.000Z</time></trkpt>
        <trkpt lat="29.568256" lon="103.404828"><ele>796.5674</ele><time>2026-04-04T06:51:29.000Z</time></trkpt>
        <trkpt lat="29.56821" lon="103.404857"><ele>797.22363</ele><time>2026-04-04T06:51:34.000Z</time></trkpt>
        <trkpt lat="29.568159" lon="103.404869"><ele>797.5103</ele><time>2026-04-04T06:51:39.000Z</time></trkpt>
        <trkpt lat="29.568102" lon="103.404882"><ele>797.4006</ele><time>2026-04-04T06:51:43.000Z</time></trkpt>
        <trkpt lat="29.568063" lon="103.404933"><ele>797.4542</ele><time>2026-04-04T06:51:47.000Z</time></trkpt>
        <trkpt lat="29.568012" lon="103.404961"><ele>797.5248</ele><time>2026-04-04T06:51:51.000Z</time></trkpt>
        <trkpt lat="29.567967" lon="103.404986"><ele>797.9685</ele><time>2026-04-04T06:51:55.000Z</time></trkpt>
        <trkpt lat="29.567918" lon="103.405"><ele>797.97186</ele><time>2026-04-04T06:51:59.000Z</time></trkpt>
        <trkpt lat="29.567872" lon="103.405018"><ele>798.4916</ele><time>2026-04-04T06:52:03.000Z</time></trkpt>
        <trkpt lat="29.567827" lon="103.405039"><ele>798.6837</ele><time>2026-04-04T06:52:07.000Z</time></trkpt>
        <trkpt lat="29.56778" lon="103.405046"><ele>799.4634</ele><time>2026-04-04T06:52:12.000Z</time></trkpt>
        <trkpt lat="29.567732" lon="103.405058"><ele>800.837</ele><time>2026-04-04T06:52:16.000Z</time></trkpt>
        <trkpt lat="29.567686" lon="103.405053"><ele>803.0153</ele><time>2026-04-04T06:52:20.000Z</time></trkpt>
        <trkpt lat="29.567629" lon="103.405046"><ele>803.37555</ele><time>2026-04-04T06:52:24.000Z</time></trkpt>
        <trkpt lat="29.567578" lon="103.405052"><ele>806.1974</ele><time>2026-04-04T06:52:28.000Z</time></trkpt>
        <trkpt lat="29.567534" lon="103.405038"><ele>806.808</ele><time>2026-04-04T06:52:32.000Z</time></trkpt>
        <trkpt lat="29.567479" lon="103.405032"><ele>807.4504</ele><time>2026-04-04T06:52:36.000Z</time></trkpt>
        <trkpt lat="29.567432" lon="103.405057"><ele>806.01514</ele><time>2026-04-04T06:52:40.000Z</time></trkpt>
        <trkpt lat="29.567381" lon="103.40507"><ele>804.95667</ele><time>2026-04-04T06:52:45.000Z</time></trkpt>
        <trkpt lat="29.567331" lon="103.405071"><ele>806.15936</ele><time>2026-04-04T06:52:50.000Z</time></trkpt>
        <trkpt lat="29.567281" lon="103.405072"><ele>806.37317</ele><time>2026-04-04T06:52:53.000Z</time></trkpt>
        <trkpt lat="29.567231" lon="103.405089"><ele>806.794</ele><time>2026-04-04T06:52:57.000Z</time></trkpt>
        <trkpt lat="29.567184" lon="103.405084"><ele>808.24414</ele><time>2026-04-04T06:53:02.000Z</time></trkpt>
        <trkpt lat="29.567136" lon="103.405085"><ele>810.13385</ele><time>2026-04-04T06:53:06.000Z</time></trkpt>
        <trkpt lat="29.567088" lon="103.405088"><ele>810.51526</ele><time>2026-04-04T06:53:09.000Z</time></trkpt>
        <trkpt lat="29.567043" lon="103.405109"><ele>810.6534</ele><time>2026-04-04T06:53:12.000Z</time></trkpt>
        <trkpt lat="29.566994" lon="103.405105"><ele>811.3522</ele><time>2026-04-04T06:53:16.000Z</time></trkpt>
        <trkpt lat="29.566945" lon="103.405106"><ele>811.40375</ele><time>2026-04-04T06:53:20.000Z</time></trkpt>
        <trkpt lat="29.566886" lon="103.405101"><ele>811.574</ele><time>2026-04-04T06:53:25.000Z</time></trkpt>
        <trkpt lat="29.566841" lon="103.405109"><ele>812.4377</ele><time>2026-04-04T06:53:30.000Z</time></trkpt>
        <trkpt lat="29.566809" lon="103.40515"><ele>814.3724</ele><time>2026-04-04T06:53:33.000Z</time></trkpt>
        <trkpt lat="29.566785" lon="103.405206"><ele>814.3715</ele><time>2026-04-04T06:53:38.000Z</time></trkpt>
        <trkpt lat="29.566779" lon="103.405271"><ele>813.77203</ele><time>2026-04-04T06:53:44.000Z</time></trkpt>
        <trkpt lat="29.566779" lon="103.405334"><ele>812.65314</ele><time>2026-04-04T06:53:48.000Z</time></trkpt>
        <trkpt lat="29.566804" lon="103.405392"><ele>813.3281</ele><time>2026-04-04T06:53:52.000Z</time></trkpt>
        <trkpt lat="29.566833" lon="103.405433"><ele>812.4563</ele><time>2026-04-04T06:53:55.000Z</time></trkpt>
        <trkpt lat="29.566873" lon="103.405474"><ele>813.6047</ele><time>2026-04-04T06:54:00.000Z</time></trkpt>
        <trkpt lat="29.566912" lon="103.405516"><ele>814.3097</ele><time>2026-04-04T06:54:04.000Z</time></trkpt>
        <trkpt lat="29.566962" lon="103.405536"><ele>814.7823</ele><time>2026-04-04T06:54:07.000Z</time></trkpt>
        <trkpt lat="29.566985" lon="103.405584"><ele>813.83093</ele><time>2026-04-04T06:54:11.000Z</time></trkpt>
        <trkpt lat="29.567021" lon="103.405634"><ele>812.91705</ele><time>2026-04-04T06:54:16.000Z</time></trkpt>
        <trkpt lat="29.56706" lon="103.405674"><ele>813.7135</ele><time>2026-04-04T06:54:19.000Z</time></trkpt>
        <trkpt lat="29.567094" lon="103.405715"><ele>811.10565</ele><time>2026-04-04T06:54:23.000Z</time></trkpt>
        <trkpt lat="29.567135" lon="103.405752"><ele>807.54034</ele><time>2026-04-04T06:54:27.000Z</time></trkpt>
        <trkpt lat="29.567158" lon="103.405801"><ele>807.77747</ele><time>2026-04-04T06:54:31.000Z</time></trkpt>
        <trkpt lat="29.567171" lon="103.405853"><ele>809.90643</ele><time>2026-04-04T06:54:36.000Z</time></trkpt>
        <trkpt lat="29.567183" lon="103.405905"><ele>808.9209</ele><time>2026-04-04T06:54:41.000Z</time></trkpt>
        <trkpt lat="29.567171" lon="103.405959"><ele>807.1616</ele><time>2026-04-04T06:54:47.000Z</time></trkpt>
        <trkpt lat="29.567135" lon="103.405998"><ele>808.1937</ele><time>2026-04-04T06:54:51.000Z</time></trkpt>
        <trkpt lat="29.567091" lon="103.406036"><ele>809.15515</ele><time>2026-04-04T06:54:56.000Z</time></trkpt>
        <trkpt lat="29.567053" lon="103.406067"><ele>811.55835</ele><time>2026-04-04T06:55:01.000Z</time></trkpt>
        <trkpt lat="29.567023" lon="103.406125"><ele>812.4679</ele><time>2026-04-04T06:55:06.000Z</time></trkpt>
        <trkpt lat="29.566994" lon="103.406173"><ele>815.2749</ele><time>2026-04-04T06:55:10.000Z</time></trkpt>
        <trkpt lat="29.566966" lon="103.40622"><ele>815.9301</ele><time>2026-04-04T06:55:14.000Z</time></trkpt>
        <trkpt lat="29.566937" lon="103.406277"><ele>815.51776</ele><time>2026-04-04T06:55:18.000Z</time></trkpt>
        <trkpt lat="29.566913" lon="103.406335"><ele>814.4591</ele><time>2026-04-04T06:55:22.000Z</time></trkpt>
        <trkpt lat="29.566876" lon="103.406381"><ele>813.7638</ele><time>2026-04-04T06:55:26.000Z</time></trkpt>
        <trkpt lat="29.566835" lon="103.40641"><ele>814.1643</ele><time>2026-04-04T06:55:30.000Z</time></trkpt>
        <trkpt lat="29.566803" lon="103.406448"><ele>814.5362</ele><time>2026-04-04T06:55:33.000Z</time></trkpt>
        <trkpt lat="29.566765" lon="103.406486"><ele>815.65063</ele><time>2026-04-04T06:55:37.000Z</time></trkpt>
        <trkpt lat="29.566726" lon="103.406524"><ele>817.17377</ele><time>2026-04-04T06:55:42.000Z</time></trkpt>
        <trkpt lat="29.566691" lon="103.406568"><ele>816.09717</ele><time>2026-04-04T06:55:47.000Z</time></trkpt>
        <trkpt lat="29.566653" lon="103.406615"><ele>816.5261</ele><time>2026-04-04T06:55:53.000Z</time></trkpt>
        <trkpt lat="29.566616" lon="103.40668"><ele>815.51514</ele><time>2026-04-04T06:55:58.000Z</time></trkpt>
        <trkpt lat="29.566592" lon="103.406728"><ele>814.5657</ele><time>2026-04-04T06:56:02.000Z</time></trkpt>
        <trkpt lat="29.566593" lon="103.40678"><ele>814.5699</ele><time>2026-04-04T06:56:05.000Z</time></trkpt>
        <trkpt lat="29.566568" lon="103.40683"><ele>814.9426</ele><time>2026-04-04T06:56:09.000Z</time></trkpt>
        <trkpt lat="29.56655" lon="103.406881"><ele>816.3856</ele><time>2026-04-04T06:56:14.000Z</time></trkpt>
        <trkpt lat="29.566529" lon="103.406937"><ele>817.2407</ele><time>2026-04-04T06:56:18.000Z</time></trkpt>
        <trkpt lat="29.566535" lon="103.406993"><ele>818.07007</ele><time>2026-04-04T06:56:25.000Z</time></trkpt>
        <trkpt lat="29.566547" lon="103.407052"><ele>817.3508</ele><time>2026-04-04T06:56:32.000Z</time></trkpt>
        <trkpt lat="29.56653" lon="103.407107"><ele>812.68695</ele><time>2026-04-04T06:56:44.000Z</time></trkpt>
        <trkpt lat="29.566499" lon="103.40715"><ele>813.1029</ele><time>2026-04-04T06:56:54.000Z</time></trkpt>
        <trkpt lat="29.566508" lon="103.407206"><ele>813.542</ele><time>2026-04-04T06:56:59.000Z</time></trkpt>
        <trkpt lat="29.566529" lon="103.407258"><ele>813.69934</ele><time>2026-04-04T06:57:03.000Z</time></trkpt>
        <trkpt lat="29.566531" lon="103.407324"><ele>817.25525</ele><time>2026-04-04T06:57:07.000Z</time></trkpt>
        <trkpt lat="29.566544" lon="103.407374"><ele>817.95306</ele><time>2026-04-04T06:57:12.000Z</time></trkpt>
        <trkpt lat="29.566559" lon="103.407428"><ele>816.6513</ele><time>2026-04-04T06:57:16.000Z</time></trkpt>
        <trkpt lat="29.566592" lon="103.407469"><ele>816.6319</ele><time>2026-04-04T06:57:20.000Z</time></trkpt>
        <trkpt lat="29.566619" lon="103.407518"><ele>815.6148</ele><time>2026-04-04T06:57:24.000Z</time></trkpt>
        <trkpt lat="29.566647" lon="103.40756"><ele>813.8689</ele><time>2026-04-04T06:57:28.000Z</time></trkpt>
        <trkpt lat="29.566658" lon="103.407614"><ele>813.861</ele><time>2026-04-04T06:57:32.000Z</time></trkpt>
        <trkpt lat="29.566666" lon="103.407666"><ele>813.97314</ele><time>2026-04-04T06:57:36.000Z</time></trkpt>
        <trkpt lat="29.566648" lon="103.407721"><ele>812.7806</ele><time>2026-04-04T06:57:40.000Z</time></trkpt>
        <trkpt lat="29.566662" lon="103.40778"><ele>813.61285</ele><time>2026-04-04T06:57:44.000Z</time></trkpt>
        <trkpt lat="29.566673" lon="103.407837"><ele>814.7101</ele><time>2026-04-04T06:57:48.000Z</time></trkpt>
        <trkpt lat="29.566714" lon="103.407879"><ele>815.8964</ele><time>2026-04-04T06:57:52.000Z</time></trkpt>
        <trkpt lat="29.566742" lon="103.407919"><ele>817.76917</ele><time>2026-04-04T06:58:05.000Z</time></trkpt>
        <trkpt lat="29.566762" lon="103.407983"><ele>816.8113</ele><time>2026-04-04T06:58:14.000Z</time></trkpt>
        <trkpt lat="29.56676" lon="103.408039"><ele>816.96796</ele><time>2026-04-04T06:58:26.000Z</time></trkpt>
        <trkpt lat="29.56676" lon="103.408095"><ele>815.90564</ele><time>2026-04-04T06:58:30.000Z</time></trkpt>
        <trkpt lat="29.566739" lon="103.408153"><ele>814.52844</ele><time>2026-04-04T06:58:36.000Z</time></trkpt>
        <trkpt lat="29.566725" lon="103.408207"><ele>814.00653</ele><time>2026-04-04T06:58:40.000Z</time></trkpt>
        <trkpt lat="29.566711" lon="103.408258"><ele>815.12427</ele><time>2026-04-04T06:58:43.000Z</time></trkpt>
        <trkpt lat="29.566725" lon="103.408312"><ele>815.7708</ele><time>2026-04-04T06:58:48.000Z</time></trkpt>
        <trkpt lat="29.566737" lon="103.408369"><ele>815.8543</ele><time>2026-04-04T06:58:52.000Z</time></trkpt>
        <trkpt lat="29.566759" lon="103.408422"><ele>815.7159</ele><time>2026-04-04T06:58:56.000Z</time></trkpt>
        <trkpt lat="29.5668" lon="103.408449"><ele>816.24725</ele><time>2026-04-04T06:58:59.000Z</time></trkpt>
        <trkpt lat="29.56685" lon="103.408462"><ele>816.21545</ele><time>2026-04-04T06:59:03.000Z</time></trkpt>
        <trkpt lat="29.566905" lon="103.408459"><ele>817.3103</ele><time>2026-04-04T06:59:07.000Z</time></trkpt>
        <trkpt lat="29.566951" lon="103.408443"><ele>817.0446</ele><time>2026-04-04T06:59:10.000Z</time></trkpt>
        <trkpt lat="29.567005" lon="103.408441"><ele>817.4072</ele><time>2026-04-04T06:59:14.000Z</time></trkpt>
        <trkpt lat="29.567062" lon="103.408436"><ele>817.20184</ele><time>2026-04-04T06:59:18.000Z</time></trkpt>
        <trkpt lat="29.567109" lon="103.408447"><ele>818.3479</ele><time>2026-04-04T06:59:22.000Z</time></trkpt>
        <trkpt lat="29.567162" lon="103.408445"><ele>819.31445</ele><time>2026-04-04T06:59:26.000Z</time></trkpt>
        <trkpt lat="29.567212" lon="103.408458"><ele>818.1066</ele><time>2026-04-04T06:59:30.000Z</time></trkpt>
        <trkpt lat="29.56726" lon="103.40849"><ele>818.09467</ele><time>2026-04-04T06:59:34.000Z</time></trkpt>
        <trkpt lat="29.567306" lon="103.408514"><ele>818.6066</ele><time>2026-04-04T06:59:38.000Z</time></trkpt>
        <trkpt lat="29.567349" lon="103.408545"><ele>819.6921</ele><time>2026-04-04T06:59:42.000Z</time></trkpt>
        <trkpt lat="29.567389" lon="103.408577"><ele>820.3231</ele><time>2026-04-04T06:59:46.000Z</time></trkpt>
        <trkpt lat="29.567442" lon="103.40861"><ele>819.6309</ele><time>2026-04-04T06:59:51.000Z</time></trkpt>
        <trkpt lat="29.567482" lon="103.408638"><ele>819.57104</ele><time>2026-04-04T06:59:55.000Z</time></trkpt>
        <trkpt lat="29.567536" lon="103.408657"><ele>820.76965</ele><time>2026-04-04T07:00:01.000Z</time></trkpt>
        <trkpt lat="29.567581" lon="103.408645"><ele>824.17914</ele><time>2026-04-04T07:00:07.000Z</time></trkpt>
        <trkpt lat="29.567618" lon="103.408603"><ele>829.985</ele><time>2026-04-04T07:00:18.000Z</time></trkpt>
        <trkpt lat="29.567642" lon="103.408551"><ele>830.6263</ele><time>2026-04-04T07:00:22.000Z</time></trkpt>
        <trkpt lat="29.56765" lon="103.408487"><ele>831.92487</ele><time>2026-04-04T07:00:25.000Z</time></trkpt>
        <trkpt lat="29.56766" lon="103.408435"><ele>830.89923</ele><time>2026-04-04T07:00:27.000Z</time></trkpt>
        <trkpt lat="29.567707" lon="103.408435"><ele>829.5232</ele><time>2026-04-04T07:00:37.000Z</time></trkpt>
        <trkpt lat="29.56775" lon="103.408458"><ele>831.82666</ele><time>2026-04-04T07:00:43.000Z</time></trkpt>
        <trkpt lat="29.567792" lon="103.408477"><ele>833.5588</ele><time>2026-04-04T07:00:52.000Z</time></trkpt>
        <trkpt lat="29.567814" lon="103.408527"><ele>834.3941</ele><time>2026-04-04T07:01:01.000Z</time></trkpt>
        <trkpt lat="29.567843" lon="103.408574"><ele>832.0836</ele><time>2026-04-04T07:01:09.000Z</time></trkpt>
        <trkpt lat="29.567873" lon="103.408616"><ele>830.88525</ele><time>2026-04-04T07:01:17.000Z</time></trkpt>
        <trkpt lat="29.567913" lon="103.408666"><ele>830.1049</ele><time>2026-04-04T07:01:22.000Z</time></trkpt>
        <trkpt lat="29.567938" lon="103.408713"><ele>831.06824</ele><time>2026-04-04T07:01:26.000Z</time></trkpt>
        <trkpt lat="29.567955" lon="103.408765"><ele>832.56134</ele><time>2026-04-04T07:01:35.000Z</time></trkpt>
        <trkpt lat="29.567953" lon="103.40882"><ele>835.5886</ele><time>2026-04-04T07:01:43.000Z</time></trkpt>
        <trkpt lat="29.567954" lon="103.408877"><ele>839.39624</ele><time>2026-04-04T07:01:51.000Z</time></trkpt>
        <trkpt lat="29.567975" lon="103.408935"><ele>840.72565</ele><time>2026-04-04T07:01:59.000Z</time></trkpt>
        <trkpt lat="29.567988" lon="103.408985"><ele>842.8083</ele><time>2026-04-04T07:02:04.000Z</time></trkpt>
        <trkpt lat="29.568017" lon="103.409037"><ele>848.7911</ele><time>2026-04-04T07:02:18.000Z</time></trkpt>
        <trkpt lat="29.56804" lon="103.409085"><ele>851.12616</ele><time>2026-04-04T07:02:27.000Z</time></trkpt>
        <trkpt lat="29.568055" lon="103.409143"><ele>856.31836</ele><time>2026-04-04T07:02:37.000Z</time></trkpt>
        <trkpt lat="29.568081" lon="103.409196"><ele>855.6688</ele><time>2026-04-04T07:02:47.000Z</time></trkpt>
        <trkpt lat="29.568097" lon="103.409249"><ele>856.2438</ele><time>2026-04-04T07:02:50.000Z</time></trkpt>
        <trkpt lat="29.568123" lon="103.409299"><ele>858.9322</ele><time>2026-04-04T07:02:58.000Z</time></trkpt>
        <trkpt lat="29.568147" lon="103.409346"><ele>863.24036</ele><time>2026-04-04T07:03:06.000Z</time></trkpt>
        <trkpt lat="29.568173" lon="103.409391"><ele>862.1365</ele><time>2026-04-04T07:03:12.000Z</time></trkpt>
        <trkpt lat="29.568208" lon="103.409436"><ele>861.4212</ele><time>2026-04-04T07:03:20.000Z</time></trkpt>
        <trkpt lat="29.568226" lon="103.409486"><ele>864.4023</ele><time>2026-04-04T07:03:32.000Z</time></trkpt>
        <trkpt lat="29.568244" lon="103.409534"><ele>865.4397</ele><time>2026-04-04T07:03:42.000Z</time></trkpt>
        <trkpt lat="29.568274" lon="103.409579"><ele>864.6823</ele><time>2026-04-04T07:03:56.000Z</time></trkpt>
        <trkpt lat="29.568292" lon="103.409626"><ele>861.92175</ele><time>2026-04-04T07:04:07.000Z</time></trkpt>
        <trkpt lat="29.56831" lon="103.409677"><ele>863.8298</ele><time>2026-04-04T07:04:16.000Z</time></trkpt>
        <trkpt lat="29.568329" lon="103.409727"><ele>864.2723</ele><time>2026-04-04T07:04:23.000Z</time></trkpt>
        <trkpt lat="29.568348" lon="103.40978"><ele>866.13904</ele><time>2026-04-04T07:04:30.000Z</time></trkpt>
        <trkpt lat="29.568365" lon="103.409828"><ele>867.13446</ele><time>2026-04-04T07:04:37.000Z</time></trkpt>
        <trkpt lat="29.568386" lon="103.409879"><ele>866.48145</ele><time>2026-04-04T07:04:45.000Z</time></trkpt>
        <trkpt lat="29.568424" lon="103.409927"><ele>868.3079</ele><time>2026-04-04T07:04:49.000Z</time></trkpt>
        <trkpt lat="29.568456" lon="103.409978"><ele>869.0009</ele><time>2026-04-04T07:04:54.000Z</time></trkpt>
        <trkpt lat="29.568505" lon="103.409968"><ele>873.0213</ele><time>2026-04-04T07:05:02.000Z</time></trkpt>
        <trkpt lat="29.568553" lon="103.409984"><ele>873.91296</ele><time>2026-04-04T07:05:08.000Z</time></trkpt>
        <trkpt lat="29.568591" lon="103.410012"><ele>878.33453</ele><time>2026-04-04T07:05:12.000Z</time></trkpt>
        <trkpt lat="29.568634" lon="103.410055"><ele>878.3083</ele><time>2026-04-04T07:05:18.000Z</time></trkpt>
        <trkpt lat="29.568668" lon="103.41009"><ele>878.0041</ele><time>2026-04-04T07:05:21.000Z</time></trkpt>
        <trkpt lat="29.568709" lon="103.410121"><ele>877.4002</ele><time>2026-04-04T07:05:25.000Z</time></trkpt>
        <trkpt lat="29.568739" lon="103.410167"><ele>873.3977</ele><time>2026-04-04T07:05:33.000Z</time></trkpt>
        <trkpt lat="29.56872" lon="103.410222"><ele>872.9822</ele><time>2026-04-04T07:05:37.000Z</time></trkpt>
        <trkpt lat="29.568684" lon="103.410267"><ele>873.36926</ele><time>2026-04-04T07:05:41.000Z</time></trkpt>
        <trkpt lat="29.568686" lon="103.410331"><ele>873.9638</ele><time>2026-04-04T07:05:46.000Z</time></trkpt>
        <trkpt lat="29.568691" lon="103.410385"><ele>874.1923</ele><time>2026-04-04T07:05:51.000Z</time></trkpt>
        <trkpt lat="29.568691" lon="103.410443"><ele>874.49725</ele><time>2026-04-04T07:05:55.000Z</time></trkpt>
        <trkpt lat="29.568678" lon="103.410496"><ele>875.0319</ele><time>2026-04-04T07:05:59.000Z</time></trkpt>
        <trkpt lat="29.56867" lon="103.41056"><ele>875.54846</ele><time>2026-04-04T07:06:03.000Z</time></trkpt>
        <trkpt lat="29.568657" lon="103.410628"><ele>876.9605</ele><time>2026-04-04T07:06:09.000Z</time></trkpt>
        <trkpt lat="29.568649" lon="103.410686"><ele>875.8315</ele><time>2026-04-04T07:06:14.000Z</time></trkpt>
        <trkpt lat="29.568628" lon="103.410747"><ele>876.4191</ele><time>2026-04-04T07:06:19.000Z</time></trkpt>
        <trkpt lat="29.568594" lon="103.410792"><ele>876.02216</ele><time>2026-04-04T07:06:24.000Z</time></trkpt>
        <trkpt lat="29.568567" lon="103.410838"><ele>875.61835</ele><time>2026-04-04T07:06:30.000Z</time></trkpt>
        <trkpt lat="29.568552" lon="103.410896"><ele>876.4608</ele><time>2026-04-04T07:06:34.000Z</time></trkpt>
        <trkpt lat="29.56855" lon="103.410953"><ele>877.58215</ele><time>2026-04-04T07:06:39.000Z</time></trkpt>
        <trkpt lat="29.568537" lon="103.411014"><ele>877.42285</ele><time>2026-04-04T07:06:43.000Z</time></trkpt>
        <trkpt lat="29.568525" lon="103.411068"><ele>877.1782</ele><time>2026-04-04T07:06:49.000Z</time></trkpt>
        <trkpt lat="29.568515" lon="103.411132"><ele>879.00073</ele><time>2026-04-04T07:06:52.000Z</time></trkpt>
        <trkpt lat="29.568496" lon="103.411191"><ele>879.3517</ele><time>2026-04-04T07:06:56.000Z</time></trkpt>
        <trkpt lat="29.568479" lon="103.411249"><ele>878.60944</ele><time>2026-04-04T07:07:01.000Z</time></trkpt>
        <trkpt lat="29.568466" lon="103.411304"><ele>880.88873</ele><time>2026-04-04T07:07:06.000Z</time></trkpt>
        <trkpt lat="29.568438" lon="103.41136"><ele>881.12195</ele><time>2026-04-04T07:07:10.000Z</time></trkpt>
        <trkpt lat="29.568423" lon="103.411422"><ele>883.9186</ele><time>2026-04-04T07:07:14.000Z</time></trkpt>
        <trkpt lat="29.56841" lon="103.411487"><ele>885.704</ele><time>2026-04-04T07:07:19.000Z</time></trkpt>
        <trkpt lat="29.568401" lon="103.411541"><ele>885.94037</ele><time>2026-04-04T07:07:25.000Z</time></trkpt>
        <trkpt lat="29.568441" lon="103.411579"><ele>887.111</ele><time>2026-04-04T07:07:30.000Z</time></trkpt>
        <trkpt lat="29.568478" lon="103.41162"><ele>885.25995</ele><time>2026-04-04T07:07:35.000Z</time></trkpt>
        <trkpt lat="29.568509" lon="103.411676"><ele>885.1721</ele><time>2026-04-04T07:07:40.000Z</time></trkpt>
        <trkpt lat="29.568542" lon="103.411736"><ele>883.9763</ele><time>2026-04-04T07:07:45.000Z</time></trkpt>
        <trkpt lat="29.56858" lon="103.411775"><ele>887.2138</ele><time>2026-04-04T07:07:51.000Z</time></trkpt>
        <trkpt lat="29.568612" lon="103.411818"><ele>896.932</ele><time>2026-04-04T07:08:02.000Z</time></trkpt>
        <trkpt lat="29.56866" lon="103.411844"><ele>898.60187</ele><time>2026-04-04T07:08:11.000Z</time></trkpt>
        <trkpt lat="29.568718" lon="103.411852"><ele>902.0114</ele><time>2026-04-04T07:08:19.000Z</time></trkpt>
        <trkpt lat="29.568742" lon="103.411898"><ele>901.4379</ele><time>2026-04-04T07:08:28.000Z</time></trkpt>
        <trkpt lat="29.568789" lon="103.411884"><ele>900.79877</ele><time>2026-04-04T07:08:31.000Z</time></trkpt>
        <trkpt lat="29.568837" lon="103.411898"><ele>898.4783</ele><time>2026-04-04T07:08:35.000Z</time></trkpt>
        <trkpt lat="29.568886" lon="103.411892"><ele>898.62445</ele><time>2026-04-04T07:08:38.000Z</time></trkpt>
        <trkpt lat="29.568926" lon="103.411931"><ele>898.3962</ele><time>2026-04-04T07:08:44.000Z</time></trkpt>
        <trkpt lat="29.568956" lon="103.411979"><ele>898.6154</ele><time>2026-04-04T07:08:48.000Z</time></trkpt>
        <trkpt lat="29.568983" lon="103.412023"><ele>898.5468</ele><time>2026-04-04T07:08:53.000Z</time></trkpt>
        <trkpt lat="29.569014" lon="103.412076"><ele>899.31024</ele><time>2026-04-04T07:08:57.000Z</time></trkpt>
        <trkpt lat="29.569053" lon="103.412105"><ele>901.8412</ele><time>2026-04-04T07:09:05.000Z</time></trkpt>
        <trkpt lat="29.569094" lon="103.412133"><ele>904.1323</ele><time>2026-04-04T07:09:14.000Z</time></trkpt>
        <trkpt lat="29.569134" lon="103.41216"><ele>906.5504</ele><time>2026-04-04T07:09:25.000Z</time></trkpt>
        <trkpt lat="29.569184" lon="103.412165"><ele>905.81934</ele><time>2026-04-04T07:09:30.000Z</time></trkpt>
        <trkpt lat="29.569227" lon="103.412191"><ele>906.4923</ele><time>2026-04-04T07:09:35.000Z</time></trkpt>
        <trkpt lat="29.569275" lon="103.412173"><ele>906.96576</ele><time>2026-04-04T07:09:44.000Z</time></trkpt>
        <trkpt lat="29.569323" lon="103.412183"><ele>910.3751</ele><time>2026-04-04T07:09:54.000Z</time></trkpt>
        <trkpt lat="29.569365" lon="103.412203"><ele>908.0901</ele><time>2026-04-04T07:10:01.000Z</time></trkpt>
        <trkpt lat="29.56938" lon="103.41226"><ele>910.04443</ele><time>2026-04-04T07:10:18.000Z</time></trkpt>
        <trkpt lat="29.569374" lon="103.412318"><ele>916.5227</ele><time>2026-04-04T07:10:32.000Z</time></trkpt>
        <trkpt lat="29.569388" lon="103.412367"><ele>918.4059</ele><time>2026-04-04T07:10:42.000Z</time></trkpt>
        <trkpt lat="29.569413" lon="103.412414"><ele>918.0528</ele><time>2026-04-04T07:10:46.000Z</time></trkpt>
        <trkpt lat="29.569401" lon="103.412467"><ele>916.0838</ele><time>2026-04-04T07:10:55.000Z</time></trkpt>
        <trkpt lat="29.569379" lon="103.412525"><ele>916.74146</ele><time>2026-04-04T07:10:59.000Z</time></trkpt>
        <trkpt lat="29.569394" lon="103.412576"><ele>916.36505</ele><time>2026-04-04T07:11:03.000Z</time></trkpt>
        <trkpt lat="29.569406" lon="103.412637"><ele>914.7338</ele><time>2026-04-04T07:11:07.000Z</time></trkpt>
        <trkpt lat="29.569431" lon="103.412683"><ele>914.7657</ele><time>2026-04-04T07:11:10.000Z</time></trkpt>
        <trkpt lat="29.569414" lon="103.412734"><ele>911.6842</ele><time>2026-04-04T07:11:14.000Z</time></trkpt>
        <trkpt lat="29.569364" lon="103.412746"><ele>913.7357</ele><time>2026-04-04T07:11:20.000Z</time></trkpt>
        <trkpt lat="29.569319" lon="103.412767"><ele>913.8092</ele><time>2026-04-04T07:11:24.000Z</time></trkpt>
        <trkpt lat="29.569276" lon="103.412807"><ele>914.1537</ele><time>2026-04-04T07:11:29.000Z</time></trkpt>
        <trkpt lat="29.569242" lon="103.412852"><ele>914.1095</ele><time>2026-04-04T07:11:33.000Z</time></trkpt>
        <trkpt lat="29.569202" lon="103.412887"><ele>915.1545</ele><time>2026-04-04T07:11:37.000Z</time></trkpt>
        <trkpt lat="29.569164" lon="103.412918"><ele>915.719</ele><time>2026-04-04T07:11:40.000Z</time></trkpt>
        <trkpt lat="29.569137" lon="103.412973"><ele>917.8034</ele><time>2026-04-04T07:11:45.000Z</time></trkpt>
        <trkpt lat="29.569132" lon="103.413034"><ele>919.3503</ele><time>2026-04-04T07:11:50.000Z</time></trkpt>
        <trkpt lat="29.5691" lon="103.41307"><ele>917.68353</ele><time>2026-04-04T07:11:54.000Z</time></trkpt>
        <trkpt lat="29.569054" lon="103.413093"><ele>917.02814</ele><time>2026-04-04T07:11:59.000Z</time></trkpt>
        <trkpt lat="29.569013" lon="103.41312"><ele>917.5299</ele><time>2026-04-04T07:12:04.000Z</time></trkpt>
        <trkpt lat="29.568995" lon="103.413182"><ele>918.6092</ele><time>2026-04-04T07:12:08.000Z</time></trkpt>
        <trkpt lat="29.569002" lon="103.413235"><ele>918.9604</ele><time>2026-04-04T07:12:11.000Z</time></trkpt>
        <trkpt lat="29.569023" lon="103.413286"><ele>919.28107</ele><time>2026-04-04T07:12:14.000Z</time></trkpt>
        <trkpt lat="29.569016" lon="103.413346"><ele>920.3558</ele><time>2026-04-04T07:12:20.000Z</time></trkpt>
        <trkpt lat="29.568996" lon="103.413399"><ele>920.3509</ele><time>2026-04-04T07:12:26.000Z</time></trkpt>
        <trkpt lat="29.569017" lon="103.413465"><ele>921.115</ele><time>2026-04-04T07:12:31.000Z</time></trkpt>
        <trkpt lat="29.569017" lon="103.413518"><ele>920.8917</ele><time>2026-04-04T07:12:37.000Z</time></trkpt>
        <trkpt lat="29.569045" lon="103.413574"><ele>922.6391</ele><time>2026-04-04T07:12:42.000Z</time></trkpt>
        <trkpt lat="29.569066" lon="103.413624"><ele>923.2036</ele><time>2026-04-04T07:12:45.000Z</time></trkpt>
        <trkpt lat="29.56909" lon="103.413694"><ele>922.3753</ele><time>2026-04-04T07:12:51.000Z</time></trkpt>
        <trkpt lat="29.569119" lon="103.413738"><ele>920.48303</ele><time>2026-04-04T07:12:55.000Z</time></trkpt>
        <trkpt lat="29.569142" lon="103.413793"><ele>922.3727</ele><time>2026-04-04T07:13:00.000Z</time></trkpt>
        <trkpt lat="29.569156" lon="103.413844"><ele>923.68677</ele><time>2026-04-04T07:13:04.000Z</time></trkpt>
        <trkpt lat="29.569149" lon="103.413914"><ele>922.86365</ele><time>2026-04-04T07:13:09.000Z</time></trkpt>
        <trkpt lat="29.56913" lon="103.413963"><ele>922.49817</ele><time>2026-04-04T07:13:12.000Z</time></trkpt>
        <trkpt lat="29.569119" lon="103.414017"><ele>922.3843</ele><time>2026-04-04T07:13:16.000Z</time></trkpt>
        <trkpt lat="29.56911" lon="103.41408"><ele>922.6253</ele><time>2026-04-04T07:13:22.000Z</time></trkpt>
        <trkpt lat="29.569128" lon="103.414135"><ele>923.0522</ele><time>2026-04-04T07:13:25.000Z</time></trkpt>
        <trkpt lat="29.569133" lon="103.414197"><ele>924.0635</ele><time>2026-04-04T07:13:29.000Z</time></trkpt>
        <trkpt lat="29.56914" lon="103.41425"><ele>925.779</ele><time>2026-04-04T07:13:33.000Z</time></trkpt>
        <trkpt lat="29.569129" lon="103.414314"><ele>926.6655</ele><time>2026-04-04T07:13:38.000Z</time></trkpt>
        <trkpt lat="29.569083" lon="103.414358"><ele>923.5699</ele><time>2026-04-04T07:13:42.000Z</time></trkpt>
        <trkpt lat="29.569071" lon="103.414418"><ele>924.3373</ele><time>2026-04-04T07:13:46.000Z</time></trkpt>
        <trkpt lat="29.569073" lon="103.414485"><ele>926.695</ele><time>2026-04-04T07:13:50.000Z</time></trkpt>
        <trkpt lat="29.569098" lon="103.414542"><ele>928.59436</ele><time>2026-04-04T07:13:53.000Z</time></trkpt>
        <trkpt lat="29.569107" lon="103.414599"><ele>928.8568</ele><time>2026-04-04T07:13:56.000Z</time></trkpt>
        <trkpt lat="29.56914" lon="103.414656"><ele>931.90234</ele><time>2026-04-04T07:14:00.000Z</time></trkpt>
        <trkpt lat="29.569183" lon="103.414678"><ele>934.81445</ele><time>2026-04-04T07:14:06.000Z</time></trkpt>
        <trkpt lat="29.569215" lon="103.41472"><ele>934.6715</ele><time>2026-04-04T07:14:32.000Z</time></trkpt>
        <trkpt lat="29.569248" lon="103.414763"><ele>927.52106</ele><time>2026-04-04T07:14:39.000Z</time></trkpt>
        <trkpt lat="29.569279" lon="103.4148"><ele>924.22595</ele><time>2026-04-04T07:14:47.000Z</time></trkpt>
        <trkpt lat="29.569325" lon="103.414824"><ele>926.62244</ele><time>2026-04-04T07:14:52.000Z</time></trkpt>
        <trkpt lat="29.569373" lon="103.414822"><ele>929.07007</ele><time>2026-04-04T07:14:56.000Z</time></trkpt>
        <trkpt lat="29.569416" lon="103.414808"><ele>930.7739</ele><time>2026-04-04T07:15:01.000Z</time></trkpt>
        <trkpt lat="29.569464" lon="103.414791"><ele>933.4587</ele><time>2026-04-04T07:15:06.000Z</time></trkpt>
        <trkpt lat="29.569516" lon="103.414765"><ele>934.92474</ele><time>2026-04-04T07:15:10.000Z</time></trkpt>
        <trkpt lat="29.569566" lon="103.414744"><ele>936.3996</ele><time>2026-04-04T07:15:15.000Z</time></trkpt>
        <trkpt lat="29.569615" lon="103.41474"><ele>936.14795</ele><time>2026-04-04T07:15:19.000Z</time></trkpt>
        <trkpt lat="29.56967" lon="103.414738"><ele>935.6935</ele><time>2026-04-04T07:15:23.000Z</time></trkpt>
        <trkpt lat="29.569728" lon="103.414756"><ele>936.3636</ele><time>2026-04-04T07:15:28.000Z</time></trkpt>
        <trkpt lat="29.569766" lon="103.414791"><ele>935.6285</ele><time>2026-04-04T07:15:32.000Z</time></trkpt>
        <trkpt lat="29.569811" lon="103.414834"><ele>937.68695</ele><time>2026-04-04T07:15:37.000Z</time></trkpt>
        <trkpt lat="29.569857" lon="103.414877"><ele>937.7089</ele><time>2026-04-04T07:15:41.000Z</time></trkpt>
        <trkpt lat="29.569897" lon="103.414913"><ele>936.71436</ele><time>2026-04-04T07:15:44.000Z</time></trkpt>
        <trkpt lat="29.569928" lon="103.414963"><ele>936.0126</ele><time>2026-04-04T07:15:49.000Z</time></trkpt>
        <trkpt lat="29.569935" lon="103.415017"><ele>935.4177</ele><time>2026-04-04T07:15:55.000Z</time></trkpt>
        <trkpt lat="29.569928" lon="103.415081"><ele>935.94824</ele><time>2026-04-04T07:15:59.000Z</time></trkpt>
        <trkpt lat="29.56993" lon="103.415135"><ele>934.4567</ele><time>2026-04-04T07:16:03.000Z</time></trkpt>
        <trkpt lat="29.569927" lon="103.415204"><ele>932.49</ele><time>2026-04-04T07:16:09.000Z</time></trkpt>
        <trkpt lat="29.569946" lon="103.415259"><ele>933.85345</ele><time>2026-04-04T07:16:13.000Z</time></trkpt>
        <trkpt lat="29.569952" lon="103.415319"><ele>932.669</ele><time>2026-04-04T07:16:18.000Z</time></trkpt>
        <trkpt lat="29.56997" lon="103.415376"><ele>931.8017</ele><time>2026-04-04T07:16:23.000Z</time></trkpt>
        <trkpt lat="29.570008" lon="103.415428"><ele>931.18164</ele><time>2026-04-04T07:16:28.000Z</time></trkpt>
        <trkpt lat="29.570038" lon="103.415468"><ele>931.0662</ele><time>2026-04-04T07:16:33.000Z</time></trkpt>
        <trkpt lat="29.570081" lon="103.415493"><ele>930.3284</ele><time>2026-04-04T07:16:37.000Z</time></trkpt>
        <trkpt lat="29.570126" lon="103.415531"><ele>928.0919</ele><time>2026-04-04T07:16:41.000Z</time></trkpt>
        <trkpt lat="29.570175" lon="103.415535"><ele>928.353</ele><time>2026-04-04T07:16:48.000Z</time></trkpt>
        <trkpt lat="29.570232" lon="103.415533"><ele>928.5373</ele><time>2026-04-04T07:16:53.000Z</time></trkpt>
        <trkpt lat="29.570282" lon="103.415539"><ele>926.5638</ele><time>2026-04-04T07:16:59.000Z</time></trkpt>
        <trkpt lat="29.570328" lon="103.415544"><ele>926.88275</ele><time>2026-04-04T07:17:03.000Z</time></trkpt>
        <trkpt lat="29.570374" lon="103.415565"><ele>927.075</ele><time>2026-04-04T07:17:06.000Z</time></trkpt>
        <trkpt lat="29.570411" lon="103.415612"><ele>927.51135</ele><time>2026-04-04T07:17:10.000Z</time></trkpt>
        <trkpt lat="29.570438" lon="103.415666"><ele>926.0588</ele><time>2026-04-04T07:17:14.000Z</time></trkpt>
        <trkpt lat="29.570464" lon="103.415713"><ele>926.28125</ele><time>2026-04-04T07:17:17.000Z</time></trkpt>
        <trkpt lat="29.570499" lon="103.415754"><ele>925.6069</ele><time>2026-04-04T07:17:21.000Z</time></trkpt>
        <trkpt lat="29.570536" lon="103.415797"><ele>925.6901</ele><time>2026-04-04T07:17:25.000Z</time></trkpt>
        <trkpt lat="29.570586" lon="103.415804"><ele>926.0992</ele><time>2026-04-04T07:17:29.000Z</time></trkpt>
        <trkpt lat="29.570634" lon="103.4158"><ele>928.0652</ele><time>2026-04-04T07:17:33.000Z</time></trkpt>
        <trkpt lat="29.570681" lon="103.415836"><ele>930.4561</ele><time>2026-04-04T07:17:38.000Z</time></trkpt>
        <trkpt lat="29.570715" lon="103.415887"><ele>930.00183</ele><time>2026-04-04T07:17:42.000Z</time></trkpt>
        <trkpt lat="29.570748" lon="103.41593"><ele>926.6054</ele><time>2026-04-04T07:17:46.000Z</time></trkpt>
        <trkpt lat="29.570779" lon="103.415976"><ele>930.2346</ele><time>2026-04-04T07:17:51.000Z</time></trkpt>
        <trkpt lat="29.570753" lon="103.416027"><ele>930.4387</ele><time>2026-04-04T07:17:57.000Z</time></trkpt>
        <trkpt lat="29.570716" lon="103.41607"><ele>923.4178</ele><time>2026-04-04T07:18:07.000Z</time></trkpt>
        <trkpt lat="29.570658" lon="103.416094"><ele>920.1546</ele><time>2026-04-04T07:18:17.000Z</time></trkpt>
        <trkpt lat="29.570616" lon="103.416114"><ele>917.2869</ele><time>2026-04-04T07:18:22.000Z</time></trkpt>
        <trkpt lat="29.570574" lon="103.416141"><ele>915.79285</ele><time>2026-04-04T07:18:26.000Z</time></trkpt>
        <trkpt lat="29.570518" lon="103.416153"><ele>915.19183</ele><time>2026-04-04T07:18:30.000Z</time></trkpt>
        <trkpt lat="29.570477" lon="103.416177"><ele>915.46716</ele><time>2026-04-04T07:18:35.000Z</time></trkpt>
        <trkpt lat="29.570441" lon="103.41622"><ele>914.91956</ele><time>2026-04-04T07:18:40.000Z</time></trkpt>
        <trkpt lat="29.570409" lon="103.416266"><ele>917.39496</ele><time>2026-04-04T07:18:46.000Z</time></trkpt>
        <trkpt lat="29.570409" lon="103.416318"><ele>920.7821</ele><time>2026-04-04T07:18:51.000Z</time></trkpt>
        <trkpt lat="29.57041" lon="103.416375"><ele>921.883</ele><time>2026-04-04T07:18:58.000Z</time></trkpt>
        <trkpt lat="29.570403" lon="103.416429"><ele>921.94257</ele><time>2026-04-04T07:19:02.000Z</time></trkpt>
        <trkpt lat="29.570385" lon="103.416482"><ele>920.9892</ele><time>2026-04-04T07:19:07.000Z</time></trkpt>
        <trkpt lat="29.570377" lon="103.416553"><ele>921.5274</ele><time>2026-04-04T07:19:11.000Z</time></trkpt>
        <trkpt lat="29.570371" lon="103.416609"><ele>922.8028</ele><time>2026-04-04T07:19:14.000Z</time></trkpt>
        <trkpt lat="29.570376" lon="103.416669"><ele>922.5226</ele><time>2026-04-04T07:19:18.000Z</time></trkpt>
        <trkpt lat="29.570376" lon="103.416733"><ele>922.18945</ele><time>2026-04-04T07:19:23.000Z</time></trkpt>
        <trkpt lat="29.570363" lon="103.416791"><ele>921.81104</ele><time>2026-04-04T07:19:27.000Z</time></trkpt>
        <trkpt lat="29.570385" lon="103.416846"><ele>920.8972</ele><time>2026-04-04T07:19:30.000Z</time></trkpt>
        <trkpt lat="29.570385" lon="103.416903"><ele>921.9342</ele><time>2026-04-04T07:19:34.000Z</time></trkpt>
        <trkpt lat="29.570394" lon="103.416966"><ele>921.39886</ele><time>2026-04-04T07:19:39.000Z</time></trkpt>
        <trkpt lat="29.570351" lon="103.41701"><ele>919.004</ele><time>2026-04-04T07:19:45.000Z</time></trkpt>
        <trkpt lat="29.570305" lon="103.417018"><ele>917.46893</ele><time>2026-04-04T07:19:49.000Z</time></trkpt>
        <trkpt lat="29.570259" lon="103.417021"><ele>917.2636</ele><time>2026-04-04T07:19:53.000Z</time></trkpt>
        <trkpt lat="29.570208" lon="103.417037"><ele>917.4341</ele><time>2026-04-04T07:19:58.000Z</time></trkpt>
        <trkpt lat="29.570149" lon="103.417056"><ele>918.0392</ele><time>2026-04-04T07:20:04.000Z</time></trkpt>
        <trkpt lat="29.570116" lon="103.417093"><ele>918.18146</ele><time>2026-04-04T07:20:08.000Z</time></trkpt>
        <trkpt lat="29.570094" lon="103.417143"><ele>919.12823</ele><time>2026-04-04T07:20:11.000Z</time></trkpt>
        <trkpt lat="29.570106" lon="103.417198"><ele>919.66864</ele><time>2026-04-04T07:20:14.000Z</time></trkpt>
        <trkpt lat="29.570096" lon="103.417252"><ele>920.8511</ele><time>2026-04-04T07:20:18.000Z</time></trkpt>
        <trkpt lat="29.570073" lon="103.417311"><ele>922.0626</ele><time>2026-04-04T07:20:22.000Z</time></trkpt>
        <trkpt lat="29.570065" lon="103.41737"><ele>921.82526</ele><time>2026-04-04T07:20:26.000Z</time></trkpt>
        <trkpt lat="29.570052" lon="103.417421"><ele>920.34357</ele><time>2026-04-04T07:20:30.000Z</time></trkpt>
        <trkpt lat="29.570041" lon="103.41748"><ele>920.82416</ele><time>2026-04-04T07:20:34.000Z</time></trkpt>
        <trkpt lat="29.570047" lon="103.417532"><ele>920.2929</ele><time>2026-04-04T07:20:38.000Z</time></trkpt>
        <trkpt lat="29.57005" lon="103.417596"><ele>920.52295</ele><time>2026-04-04T07:20:43.000Z</time></trkpt>
        <trkpt lat="29.570038" lon="103.417662"><ele>919.7042</ele><time>2026-04-04T07:20:48.000Z</time></trkpt>
        <trkpt lat="29.57002" lon="103.417718"><ele>920.1092</ele><time>2026-04-04T07:20:54.000Z</time></trkpt>
        <trkpt lat="29.569995" lon="103.417776"><ele>922.9208</ele><time>2026-04-04T07:21:00.000Z</time></trkpt>
        <trkpt lat="29.569958" lon="103.417831"><ele>923.2409</ele><time>2026-04-04T07:21:05.000Z</time></trkpt>
        <trkpt lat="29.56993" lon="103.417882"><ele>923.1325</ele><time>2026-04-04T07:21:09.000Z</time></trkpt>
        <trkpt lat="29.569917" lon="103.417937"><ele>923.0549</ele><time>2026-04-04T07:21:13.000Z</time></trkpt>
        <trkpt lat="29.569896" lon="103.41799"><ele>922.9887</ele><time>2026-04-04T07:21:17.000Z</time></trkpt>
        <trkpt lat="29.56988" lon="103.418045"><ele>924.03296</ele><time>2026-04-04T07:21:22.000Z</time></trkpt>
        <trkpt lat="29.56986" lon="103.418114"><ele>925.09235</ele><time>2026-04-04T07:21:26.000Z</time></trkpt>
        <trkpt lat="29.569846" lon="103.418164"><ele>925.6336</ele><time>2026-04-04T07:21:29.000Z</time></trkpt>
        <trkpt lat="29.569854" lon="103.418228"><ele>926.75464</ele><time>2026-04-04T07:21:33.000Z</time></trkpt>
        <trkpt lat="29.569845" lon="103.418281"><ele>926.741</ele><time>2026-04-04T07:21:36.000Z</time></trkpt>
        <trkpt lat="29.569841" lon="103.418341"><ele>925.7546</ele><time>2026-04-04T07:21:40.000Z</time></trkpt>
        <trkpt lat="29.569849" lon="103.418394"><ele>926.7652</ele><time>2026-04-04T07:21:44.000Z</time></trkpt>
        <trkpt lat="29.569836" lon="103.418444"><ele>927.4202</ele><time>2026-04-04T07:21:48.000Z</time></trkpt>
        <trkpt lat="29.569843" lon="103.418501"><ele>929.83093</ele><time>2026-04-04T07:21:52.000Z</time></trkpt>
        <trkpt lat="29.569839" lon="103.418572"><ele>932.15643</ele><time>2026-04-04T07:21:57.000Z</time></trkpt>
        <trkpt lat="29.569824" lon="103.418634"><ele>930.9342</ele><time>2026-04-04T07:22:01.000Z</time></trkpt>
        <trkpt lat="29.5698" lon="103.41869"><ele>932.33136</ele><time>2026-04-04T07:22:05.000Z</time></trkpt>
        <trkpt lat="29.569789" lon="103.418751"><ele>931.83075</ele><time>2026-04-04T07:22:10.000Z</time></trkpt>
        <trkpt lat="29.569789" lon="103.418803"><ele>933.9095</ele><time>2026-04-04T07:22:13.000Z</time></trkpt>
        <trkpt lat="29.56978" lon="103.418862"><ele>931.67993</ele><time>2026-04-04T07:22:18.000Z</time></trkpt>
        <trkpt lat="29.569761" lon="103.418915"><ele>932.72205</ele><time>2026-04-04T07:22:22.000Z</time></trkpt>
        <trkpt lat="29.569762" lon="103.418969"><ele>932.4081</ele><time>2026-04-04T07:22:25.000Z</time></trkpt>
        <trkpt lat="29.569758" lon="103.419037"><ele>932.15564</ele><time>2026-04-04T07:22:30.000Z</time></trkpt>
        <trkpt lat="29.569761" lon="103.419108"><ele>930.4349</ele><time>2026-04-04T07:22:34.000Z</time></trkpt>
        <trkpt lat="29.569758" lon="103.419171"><ele>930.1454</ele><time>2026-04-04T07:22:38.000Z</time></trkpt>
        <trkpt lat="29.56974" lon="103.419219"><ele>929.6373</ele><time>2026-04-04T07:22:42.000Z</time></trkpt>
        <trkpt lat="29.569722" lon="103.41927"><ele>931.03613</ele><time>2026-04-04T07:22:47.000Z</time></trkpt>
        <trkpt lat="29.569694" lon="103.419322"><ele>932.57184</ele><time>2026-04-04T07:22:52.000Z</time></trkpt>
        <trkpt lat="29.569666" lon="103.419376"><ele>933.018</ele><time>2026-04-04T07:22:56.000Z</time></trkpt>
        <trkpt lat="29.569628" lon="103.419418"><ele>933.3246</ele><time>2026-04-04T07:23:00.000Z</time></trkpt>
        <trkpt lat="29.569591" lon="103.419463"><ele>933.84143</ele><time>2026-04-04T07:23:04.000Z</time></trkpt>
        <trkpt lat="29.56957" lon="103.419512"><ele>933.3366</ele><time>2026-04-04T07:23:09.000Z</time></trkpt>
        <trkpt lat="29.569541" lon="103.419557"><ele>933.55896</ele><time>2026-04-04T07:23:15.000Z</time></trkpt>
        <trkpt lat="29.569522" lon="103.419612"><ele>936.9939</ele><time>2026-04-04T07:23:21.000Z</time></trkpt>
        <trkpt lat="29.569486" lon="103.419646"><ele>937.4905</ele><time>2026-04-04T07:23:25.000Z</time></trkpt>
        <trkpt lat="29.569435" lon="103.419676"><ele>936.7273</ele><time>2026-04-04T07:23:28.000Z</time></trkpt>
        <trkpt lat="29.569389" lon="103.41972"><ele>937.94574</ele><time>2026-04-04T07:23:36.000Z</time></trkpt>
        <trkpt lat="29.569348" lon="103.419741"><ele>938.74854</ele><time>2026-04-04T07:23:40.000Z</time></trkpt>
        <trkpt lat="29.569305" lon="103.41977"><ele>940.11206</ele><time>2026-04-04T07:23:44.000Z</time></trkpt>
        <trkpt lat="29.569263" lon="103.419803"><ele>943.07446</ele><time>2026-04-04T07:23:50.000Z</time></trkpt>
        <trkpt lat="29.569229" lon="103.419837"><ele>944.5361</ele><time>2026-04-04T07:23:53.000Z</time></trkpt>
        <trkpt lat="29.569183" lon="103.419859"><ele>943.446</ele><time>2026-04-04T07:23:56.000Z</time></trkpt>
        <trkpt lat="29.569139" lon="103.419872"><ele>942.6854</ele><time>2026-04-04T07:23:59.000Z</time></trkpt>
        <trkpt lat="29.569093" lon="103.41987"><ele>943.66766</ele><time>2026-04-04T07:24:02.000Z</time></trkpt>
        <trkpt lat="29.56904" lon="103.4199"><ele>942.8236</ele><time>2026-04-04T07:24:06.000Z</time></trkpt>
        <trkpt lat="29.568998" lon="103.419926"><ele>940.39233</ele><time>2026-04-04T07:24:10.000Z</time></trkpt>
        <trkpt lat="29.568957" lon="103.419964"><ele>939.9416</ele><time>2026-04-04T07:24:14.000Z</time></trkpt>
        <trkpt lat="29.56891" lon="103.419995"><ele>938.7526</ele><time>2026-04-04T07:24:30.000Z</time></trkpt>
        <trkpt lat="29.568861" lon="103.420016"><ele>939.85864</ele><time>2026-04-04T07:24:36.000Z</time></trkpt>
        <trkpt lat="29.56882" lon="103.420037"><ele>939.33405</ele><time>2026-04-04T07:24:41.000Z</time></trkpt>
        <trkpt lat="29.568771" lon="103.420057"><ele>938.49164</ele><time>2026-04-04T07:25:27.000Z</time></trkpt>
        <trkpt lat="29.568727" lon="103.420084"><ele>937.63104</ele><time>2026-04-04T07:25:34.000Z</time></trkpt>
        <trkpt lat="29.568678" lon="103.420097"><ele>936.4033</ele><time>2026-04-04T07:25:42.000Z</time></trkpt>
        <trkpt lat="29.568626" lon="103.420114"><ele>935.636</ele><time>2026-04-04T07:25:51.000Z</time></trkpt>
        <trkpt lat="29.568592" lon="103.420074"><ele>931.0381</ele><time>2026-04-04T07:38:17.000Z</time></trkpt>
        <trkpt lat="29.568546" lon="103.420069"><ele>931.4721</ele><time>2026-04-04T07:38:28.000Z</time></trkpt>
        <trkpt lat="29.568495" lon="103.420066"><ele>930.4846</ele><time>2026-04-04T07:38:36.000Z</time></trkpt>
        <trkpt lat="29.568446" lon="103.420071"><ele>928.2733</ele><time>2026-04-04T07:38:43.000Z</time></trkpt>
        <trkpt lat="29.568399" lon="103.42008"><ele>927.4148</ele><time>2026-04-04T07:38:49.000Z</time></trkpt>
        <trkpt lat="29.568346" lon="103.420076"><ele>925.30536</ele><time>2026-04-04T07:38:57.000Z</time></trkpt>
        <trkpt lat="29.568295" lon="103.420111"><ele>926.44507</ele><time>2026-04-04T07:39:03.000Z</time></trkpt>
        <trkpt lat="29.56825" lon="103.420096"><ele>922.97394</ele><time>2026-04-04T07:39:10.000Z</time></trkpt>
        <trkpt lat="29.568202" lon="103.420092"><ele>923.3136</ele><time>2026-04-04T07:39:17.000Z</time></trkpt>
        <trkpt lat="29.568157" lon="103.420101"><ele>920.7595</ele><time>2026-04-04T07:39:25.000Z</time></trkpt>
        <trkpt lat="29.568111" lon="103.420135"><ele>921.70825</ele><time>2026-04-04T07:39:39.000Z</time></trkpt>
        <trkpt lat="29.568061" lon="103.420129"><ele>918.0602</ele><time>2026-04-04T07:39:47.000Z</time></trkpt>
        <trkpt lat="29.56801" lon="103.420146"><ele>913.3668</ele><time>2026-04-04T07:39:56.000Z</time></trkpt>
        <trkpt lat="29.567962" lon="103.420171"><ele>908.64343</ele><time>2026-04-04T07:40:03.000Z</time></trkpt>
        <trkpt lat="29.567906" lon="103.420194"><ele>908.33777</ele><time>2026-04-04T07:40:11.000Z</time></trkpt>
        <trkpt lat="29.567867" lon="103.420235"><ele>908.29407</ele><time>2026-04-04T07:40:17.000Z</time></trkpt>
        <trkpt lat="29.567812" lon="103.420257"><ele>903.54956</ele><time>2026-04-04T07:40:24.000Z</time></trkpt>
        <trkpt lat="29.567772" lon="103.42029"><ele>900.249</ele><time>2026-04-04T07:40:30.000Z</time></trkpt>
        <trkpt lat="29.567732" lon="103.420323"><ele>898.76465</ele><time>2026-04-04T07:40:35.000Z</time></trkpt>
        <trkpt lat="29.567688" lon="103.420341"><ele>897.7747</ele><time>2026-04-04T07:40:40.000Z</time></trkpt>
        <trkpt lat="29.567643" lon="103.420358"><ele>897.138</ele><time>2026-04-04T07:40:46.000Z</time></trkpt>
        <trkpt lat="29.567596" lon="103.420385"><ele>895.52216</ele><time>2026-04-04T07:40:52.000Z</time></trkpt>
        <trkpt lat="29.567565" lon="103.420431"><ele>892.28</ele><time>2026-04-04T07:40:57.000Z</time></trkpt>
        <trkpt lat="29.567505" lon="103.420444"><ele>893.80426</ele><time>2026-04-04T07:41:03.000Z</time></trkpt>
        <trkpt lat="29.567451" lon="103.420452"><ele>889.0514</ele><time>2026-04-04T07:41:14.000Z</time></trkpt>
        <trkpt lat="29.567397" lon="103.420455"><ele>888.0811</ele><time>2026-04-04T07:41:20.000Z</time></trkpt>
        <trkpt lat="29.567347" lon="103.420468"><ele>885.87006</ele><time>2026-04-04T07:41:27.000Z</time></trkpt>
        <trkpt lat="29.567301" lon="103.420464"><ele>878.6694</ele><time>2026-04-04T07:41:35.000Z</time></trkpt>
        <trkpt lat="29.567255" lon="103.420457"><ele>876.39435</ele><time>2026-04-04T07:41:42.000Z</time></trkpt>
        <trkpt lat="29.567208" lon="103.420426"><ele>875.7391</ele><time>2026-04-04T07:41:49.000Z</time></trkpt>
        <trkpt lat="29.567169" lon="103.420399"><ele>875.9911</ele><time>2026-04-04T07:41:54.000Z</time></trkpt>
        <trkpt lat="29.567131" lon="103.420372"><ele>873.01404</ele><time>2026-04-04T07:42:01.000Z</time></trkpt>
        <trkpt lat="29.567097" lon="103.420334"><ele>869.9876</ele><time>2026-04-04T07:42:09.000Z</time></trkpt>
        <trkpt lat="29.567075" lon="103.420276"><ele>868.7644</ele><time>2026-04-04T07:42:15.000Z</time></trkpt>
        <trkpt lat="29.567077" lon="103.420217"><ele>869.40924</ele><time>2026-04-04T07:42:21.000Z</time></trkpt>
        <trkpt lat="29.567063" lon="103.420167"><ele>870.3947</ele><time>2026-04-04T07:42:27.000Z</time></trkpt>
        <trkpt lat="29.567056" lon="103.420103"><ele>868.9296</ele><time>2026-04-04T07:42:33.000Z</time></trkpt>
        <trkpt lat="29.567009" lon="103.42007"><ele>868.38184</ele><time>2026-04-04T07:42:42.000Z</time></trkpt>
        <trkpt lat="29.566973" lon="103.420035"><ele>868.3015</ele><time>2026-04-04T07:42:48.000Z</time></trkpt>
        <trkpt lat="29.566933" lon="103.420009"><ele>867.11926</ele><time>2026-04-04T07:42:51.000Z</time></trkpt>
        <trkpt lat="29.566904" lon="103.419966"><ele>865.1321</ele><time>2026-04-04T07:42:57.000Z</time></trkpt>
        <trkpt lat="29.566864" lon="103.419932"><ele>860.60156</ele><time>2026-04-04T07:43:04.000Z</time></trkpt>
        <trkpt lat="29.566831" lon="103.419889"><ele>855.19836</ele><time>2026-04-04T07:43:12.000Z</time></trkpt>
        <trkpt lat="29.566799" lon="103.419853"><ele>852.4229</ele><time>2026-04-04T07:43:20.000Z</time></trkpt>
        <trkpt lat="29.566759" lon="103.419818"><ele>852.1316</ele><time>2026-04-04T07:43:29.000Z</time></trkpt>
        <trkpt lat="29.566716" lon="103.419871"><ele>851.23315</ele><time>2026-04-04T07:43:53.000Z</time></trkpt>
        <trkpt lat="29.566716" lon="103.419928"><ele>850.7488</ele><time>2026-04-04T07:43:58.000Z</time></trkpt>
        <trkpt lat="29.566712" lon="103.419989"><ele>849.8323</ele><time>2026-04-04T07:44:04.000Z</time></trkpt>
        <trkpt lat="29.566694" lon="103.420041"><ele>849.44556</ele><time>2026-04-04T07:44:08.000Z</time></trkpt>
        <trkpt lat="29.566662" lon="103.420084"><ele>849.24384</ele><time>2026-04-04T07:44:12.000Z</time></trkpt>
        <trkpt lat="29.566632" lon="103.420124"><ele>849.996</ele><time>2026-04-04T07:44:15.000Z</time></trkpt>
        <trkpt lat="29.566594" lon="103.420176"><ele>850.3755</ele><time>2026-04-04T07:44:19.000Z</time></trkpt>
        <trkpt lat="29.566573" lon="103.420223"><ele>851.27814</ele><time>2026-04-04T07:44:22.000Z</time></trkpt>
        <trkpt lat="29.566532" lon="103.420255"><ele>848.5279</ele><time>2026-04-04T07:44:27.000Z</time></trkpt>
        <trkpt lat="29.566497" lon="103.420288"><ele>848.19086</ele><time>2026-04-04T07:44:30.000Z</time></trkpt>
        <trkpt lat="29.566464" lon="103.420336"><ele>849.49646</ele><time>2026-04-04T07:44:34.000Z</time></trkpt>
        <trkpt lat="29.566426" lon="103.420375"><ele>849.6407</ele><time>2026-04-04T07:44:39.000Z</time></trkpt>
        <trkpt lat="29.566396" lon="103.420419"><ele>850.8216</ele><time>2026-04-04T07:44:43.000Z</time></trkpt>
        <trkpt lat="29.566359" lon="103.420462"><ele>854.63434</ele><time>2026-04-04T07:44:50.000Z</time></trkpt>
        <trkpt lat="29.566358" lon="103.420529"><ele>854.5557</ele><time>2026-04-04T07:44:55.000Z</time></trkpt>
        <trkpt lat="29.566343" lon="103.420583"><ele>853.4517</ele><time>2026-04-04T07:44:59.000Z</time></trkpt>
        <trkpt lat="29.566313" lon="103.420643"><ele>851.8349</ele><time>2026-04-04T07:45:05.000Z</time></trkpt>
        <trkpt lat="29.5663" lon="103.420701"><ele>852.187</ele><time>2026-04-04T07:45:08.000Z</time></trkpt>
        <trkpt lat="29.566286" lon="103.420758"><ele>850.7257</ele><time>2026-04-04T07:45:11.000Z</time></trkpt>
        <trkpt lat="29.566282" lon="103.420818"><ele>849.86597</ele><time>2026-04-04T07:45:15.000Z</time></trkpt>
        <trkpt lat="29.566263" lon="103.420875"><ele>850.449</ele><time>2026-04-04T07:45:20.000Z</time></trkpt>
        <trkpt lat="29.566252" lon="103.420936"><ele>850.52155</ele><time>2026-04-04T07:45:25.000Z</time></trkpt>
        <trkpt lat="29.566237" lon="103.420987"><ele>848.2924</ele><time>2026-04-04T07:45:30.000Z</time></trkpt>
        <trkpt lat="29.566214" lon="103.421042"><ele>847.76904</ele><time>2026-04-04T07:45:35.000Z</time></trkpt>
        <trkpt lat="29.566176" lon="103.42108"><ele>847.0508</ele><time>2026-04-04T07:45:40.000Z</time></trkpt>
        <trkpt lat="29.566132" lon="103.421096"><ele>845.3562</ele><time>2026-04-04T07:45:46.000Z</time></trkpt>
        <trkpt lat="29.566106" lon="103.421139"><ele>848.3835</ele><time>2026-04-04T07:45:57.000Z</time></trkpt>
        <trkpt lat="29.566055" lon="103.421138"><ele>848.70514</ele><time>2026-04-04T07:46:04.000Z</time></trkpt>
        <trkpt lat="29.566009" lon="103.421141"><ele>849.4005</ele><time>2026-04-04T07:46:17.000Z</time></trkpt>
        <trkpt lat="29.565964" lon="103.421132"><ele>849.41284</ele><time>2026-04-04T07:46:21.000Z</time></trkpt>
        <trkpt lat="29.565906" lon="103.421116"><ele>850.33966</ele><time>2026-04-04T07:46:24.000Z</time></trkpt>
        <trkpt lat="29.565852" lon="103.421103"><ele>850.6263</ele><time>2026-04-04T07:46:27.000Z</time></trkpt>
        <trkpt lat="29.565805" lon="103.421092"><ele>849.856</ele><time>2026-04-04T07:46:30.000Z</time></trkpt>
        <trkpt lat="29.565746" lon="103.4211"><ele>851.105</ele><time>2026-04-04T07:46:34.000Z</time></trkpt>
        <trkpt lat="29.565691" lon="103.421097"><ele>850.3503</ele><time>2026-04-04T07:46:39.000Z</time></trkpt>
        <trkpt lat="29.565636" lon="103.421116"><ele>848.3851</ele><time>2026-04-04T07:46:43.000Z</time></trkpt>
        <trkpt lat="29.565595" lon="103.42114"><ele>847.704</ele><time>2026-04-04T07:46:46.000Z</time></trkpt>
        <trkpt lat="29.565543" lon="103.421175"><ele>847.1314</ele><time>2026-04-04T07:46:50.000Z</time></trkpt>
        <trkpt lat="29.565505" lon="103.421207"><ele>846.1713</ele><time>2026-04-04T07:46:53.000Z</time></trkpt>
        <trkpt lat="29.565462" lon="103.421226"><ele>845.8887</ele><time>2026-04-04T07:46:57.000Z</time></trkpt>
        <trkpt lat="29.565413" lon="103.421224"><ele>843.76074</ele><time>2026-04-04T07:47:10.000Z</time></trkpt>
        <trkpt lat="29.565369" lon="103.421246"><ele>844.66833</ele><time>2026-04-04T07:47:23.000Z</time></trkpt>
        <trkpt lat="29.565323" lon="103.42125"><ele>841.4403</ele><time>2026-04-04T07:47:31.000Z</time></trkpt>
        <trkpt lat="29.565281" lon="103.421271"><ele>840.93066</ele><time>2026-04-04T07:47:36.000Z</time></trkpt>
        <trkpt lat="29.565245" lon="103.421304"><ele>837.553</ele><time>2026-04-04T07:47:42.000Z</time></trkpt>
        <trkpt lat="29.565196" lon="103.421329"><ele>835.5465</ele><time>2026-04-04T07:47:51.000Z</time></trkpt>
        <trkpt lat="29.565157" lon="103.421358"><ele>834.8668</ele><time>2026-04-04T07:47:56.000Z</time></trkpt>
        <trkpt lat="29.565108" lon="103.421375"><ele>831.2196</ele><time>2026-04-04T07:48:05.000Z</time></trkpt>
        <trkpt lat="29.565084" lon="103.42142"><ele>827.3791</ele><time>2026-04-04T07:48:25.000Z</time></trkpt>
        <trkpt lat="29.565048" lon="103.421386"><ele>827.12366</ele><time>2026-04-04T07:48:35.000Z</time></trkpt>
        <trkpt lat="29.565003" lon="103.421378"><ele>825.9066</ele><time>2026-04-04T07:48:41.000Z</time></trkpt>
        <trkpt lat="29.564955" lon="103.421362"><ele>825.18097</ele><time>2026-04-04T07:48:50.000Z</time></trkpt>
        <trkpt lat="29.56492" lon="103.421328"><ele>824.15967</ele><time>2026-04-04T07:48:56.000Z</time></trkpt>
        <trkpt lat="29.564884" lon="103.421295"><ele>823.50336</ele><time>2026-04-04T07:49:03.000Z</time></trkpt>
        <trkpt lat="29.564841" lon="103.421265"><ele>819.3588</ele><time>2026-04-04T07:49:16.000Z</time></trkpt>
        <trkpt lat="29.564815" lon="103.421209"><ele>816.25085</ele><time>2026-04-04T07:49:25.000Z</time></trkpt>
        <trkpt lat="29.564784" lon="103.421144"><ele>815.73737</ele><time>2026-04-04T07:49:33.000Z</time></trkpt>
        <trkpt lat="29.564751" lon="103.421098"><ele>814.0972</ele><time>2026-04-04T07:49:38.000Z</time></trkpt>
        <trkpt lat="29.564709" lon="103.421117"><ele>814.22614</ele><time>2026-04-04T07:49:45.000Z</time></trkpt>
        <trkpt lat="29.564661" lon="103.421156"><ele>813.18567</ele><time>2026-04-04T07:49:51.000Z</time></trkpt>
        <trkpt lat="29.564619" lon="103.421187"><ele>813.24133</ele><time>2026-04-04T07:49:55.000Z</time></trkpt>
        <trkpt lat="29.564571" lon="103.421225"><ele>813.03796</ele><time>2026-04-04T07:50:01.000Z</time></trkpt>
        <trkpt lat="29.564535" lon="103.421255"><ele>812.4377</ele><time>2026-04-04T07:50:05.000Z</time></trkpt>
        <trkpt lat="29.564492" lon="103.421282"><ele>812.5286</ele><time>2026-04-04T07:50:09.000Z</time></trkpt>
        <trkpt lat="29.564447" lon="103.421304"><ele>810.2815</ele><time>2026-04-04T07:50:14.000Z</time></trkpt>
        <trkpt lat="29.564397" lon="103.421339"><ele>809.64734</ele><time>2026-04-04T07:50:18.000Z</time></trkpt>
        <trkpt lat="29.564346" lon="103.421342"><ele>804.3048</ele><time>2026-04-04T07:50:24.000Z</time></trkpt>
        <trkpt lat="29.564298" lon="103.421335"><ele>802.30194</ele><time>2026-04-04T07:50:28.000Z</time></trkpt>
        <trkpt lat="29.564285" lon="103.421401"><ele>802.59924</ele><time>2026-04-04T07:50:32.000Z</time></trkpt>
        <trkpt lat="29.564309" lon="103.421452"><ele>802.89734</ele><time>2026-04-04T07:50:36.000Z</time></trkpt>
        <trkpt lat="29.56434" lon="103.421493"><ele>799.4484</ele><time>2026-04-04T07:50:44.000Z</time></trkpt>
        <trkpt lat="29.564352" lon="103.421544"><ele>795.9939</ele><time>2026-04-04T07:50:54.000Z</time></trkpt>
        <trkpt lat="29.56435" lon="103.421597"><ele>793.4982</ele><time>2026-04-04T07:51:01.000Z</time></trkpt>
        <trkpt lat="29.564381" lon="103.42164"><ele>793.30975</ele><time>2026-04-04T07:51:06.000Z</time></trkpt>
        <trkpt lat="29.56439" lon="103.42169"><ele>790.72284</ele><time>2026-04-04T07:51:12.000Z</time></trkpt>
        <trkpt lat="29.564377" lon="103.42175"><ele>791.57336</ele><time>2026-04-04T07:51:18.000Z</time></trkpt>
        <trkpt lat="29.564378" lon="103.421807"><ele>786.7501</ele><time>2026-04-04T07:51:32.000Z</time></trkpt>
        <trkpt lat="29.564365" lon="103.421858"><ele>785.75183</ele><time>2026-04-04T07:51:40.000Z</time></trkpt>
        <trkpt lat="29.564371" lon="103.421911"><ele>782.79816</ele><time>2026-04-04T07:51:49.000Z</time></trkpt>
        <trkpt lat="29.564381" lon="103.421966"><ele>783.67316</ele><time>2026-04-04T07:51:54.000Z</time></trkpt>
        <trkpt lat="29.564391" lon="103.422019"><ele>777.36145</ele><time>2026-04-04T07:52:09.000Z</time></trkpt>
        <trkpt lat="29.564398" lon="103.422084"><ele>777.9973</ele><time>2026-04-04T07:52:17.000Z</time></trkpt>
        <trkpt lat="29.564391" lon="103.422148"><ele>777.17523</ele><time>2026-04-04T07:52:28.000Z</time></trkpt>
        <trkpt lat="29.564417" lon="103.42221"><ele>775.3127</ele><time>2026-04-04T07:52:35.000Z</time></trkpt>
        <trkpt lat="29.564405" lon="103.42226"><ele>774.2395</ele><time>2026-04-04T07:52:41.000Z</time></trkpt>
        <trkpt lat="29.564412" lon="103.422317"><ele>770.06177</ele><time>2026-04-04T07:52:51.000Z</time></trkpt>
        <trkpt lat="29.564405" lon="103.422377"><ele>770.3439</ele><time>2026-04-04T07:52:59.000Z</time></trkpt>
        <trkpt lat="29.564422" lon="103.422426"><ele>767.6371</ele><time>2026-04-04T07:53:08.000Z</time></trkpt>
        <trkpt lat="29.564428" lon="103.422488"><ele>767.8335</ele><time>2026-04-04T07:53:13.000Z</time></trkpt>
        <trkpt lat="29.564438" lon="103.422539"><ele>767.25696</ele><time>2026-04-04T07:53:21.000Z</time></trkpt>
        <trkpt lat="29.56444" lon="103.422596"><ele>764.07965</ele><time>2026-04-04T07:53:27.000Z</time></trkpt>
        <trkpt lat="29.564463" lon="103.422643"><ele>761.4014</ele><time>2026-04-04T07:53:33.000Z</time></trkpt>
        <trkpt lat="29.564466" lon="103.422697"><ele>761.12885</ele><time>2026-04-04T07:53:40.000Z</time></trkpt>
        <trkpt lat="29.564492" lon="103.42276"><ele>763.043</ele><time>2026-04-04T07:53:44.000Z</time></trkpt>
        <trkpt lat="29.564514" lon="103.422809"><ele>762.9392</ele><time>2026-04-04T07:53:50.000Z</time></trkpt>
        <trkpt lat="29.564516" lon="103.422865"><ele>762.43335</ele><time>2026-04-04T07:54:02.000Z</time></trkpt>
        <trkpt lat="29.564516" lon="103.422921"><ele>764.262</ele><time>2026-04-04T07:54:07.000Z</time></trkpt>
        <trkpt lat="29.564509" lon="103.422984"><ele>763.35583</ele><time>2026-04-04T07:54:13.000Z</time></trkpt>
        <trkpt lat="29.5645" lon="103.423049"><ele>760.9023</ele><time>2026-04-04T07:54:20.000Z</time></trkpt>
        <trkpt lat="29.564492" lon="103.423102"><ele>762.3626</ele><time>2026-04-04T07:54:21.000Z</time></trkpt>
        <trkpt lat="29.564489" lon="103.423157"><ele>763.1031</ele><time>2026-04-04T07:54:29.000Z</time></trkpt>
        <trkpt lat="29.564509" lon="103.423207"><ele>760.83203</ele><time>2026-04-04T07:54:36.000Z</time></trkpt>
        <trkpt lat="29.564508" lon="103.423265"><ele>753.9067</ele><time>2026-04-04T07:54:48.000Z</time></trkpt>
        <trkpt lat="29.564506" lon="103.42333"><ele>750.17523</ele><time>2026-04-04T07:54:55.000Z</time></trkpt>
        <trkpt lat="29.564487" lon="103.423385"><ele>746.7878</ele><time>2026-04-04T07:55:02.000Z</time></trkpt>
        <trkpt lat="29.564464" lon="103.423437"><ele>743.774</ele><time>2026-04-04T07:55:11.000Z</time></trkpt>
        <trkpt lat="29.564439" lon="103.423491"><ele>742.28143</ele><time>2026-04-04T07:55:18.000Z</time></trkpt>
        <trkpt lat="29.564423" lon="103.423549"><ele>740.0999</ele><time>2026-04-04T07:55:22.000Z</time></trkpt>
        <trkpt lat="29.564397" lon="103.423602"><ele>740.8645</ele><time>2026-04-04T07:55:26.000Z</time></trkpt>
        <trkpt lat="29.5644" lon="103.423662"><ele>740.9658</ele><time>2026-04-04T07:55:30.000Z</time></trkpt>
        <trkpt lat="29.564414" lon="103.42372"><ele>744.058</ele><time>2026-04-04T07:55:35.000Z</time></trkpt>
        <trkpt lat="29.564445" lon="103.423766"><ele>744.0065</ele><time>2026-04-04T07:55:40.000Z</time></trkpt>
        <trkpt lat="29.564483" lon="103.423811"><ele>741.4589</ele><time>2026-04-04T07:55:47.000Z</time></trkpt>
        <trkpt lat="29.56449" lon="103.423864"><ele>737.781</ele><time>2026-04-04T07:55:52.000Z</time></trkpt>
        <trkpt lat="29.564496" lon="103.423924"><ele>736.32135</ele><time>2026-04-04T07:55:57.000Z</time></trkpt>
        <trkpt lat="29.564454" lon="103.423954"><ele>734.4711</ele><time>2026-04-04T07:56:03.000Z</time></trkpt>
        <trkpt lat="29.564445" lon="103.424005"><ele>732.3436</ele><time>2026-04-04T07:56:12.000Z</time></trkpt>
        <trkpt lat="29.564481" lon="103.424035"><ele>733.17645</ele><time>2026-04-04T07:56:16.000Z</time></trkpt>
        <trkpt lat="29.564526" lon="103.424051"><ele>733.24725</ele><time>2026-04-04T07:56:21.000Z</time></trkpt>
        <trkpt lat="29.564531" lon="103.424106"><ele>731.96747</ele><time>2026-04-04T07:56:28.000Z</time></trkpt>
        <trkpt lat="29.564536" lon="103.424162"><ele>732.885</ele><time>2026-04-04T07:56:31.000Z</time></trkpt>
        <trkpt lat="29.564564" lon="103.424219"><ele>733.02234</ele><time>2026-04-04T07:56:36.000Z</time></trkpt>
        <trkpt lat="29.564581" lon="103.424273"><ele>733.98096</ele><time>2026-04-04T07:56:43.000Z</time></trkpt>
        <trkpt lat="29.564625" lon="103.424293"><ele>733.41473</ele><time>2026-04-04T07:56:53.000Z</time></trkpt>
        <trkpt lat="29.564611" lon="103.424343"><ele>733.86383</ele><time>2026-04-04T07:56:59.000Z</time></trkpt>
        <trkpt lat="29.564643" lon="103.424385"><ele>733.12054</ele><time>2026-04-04T07:57:05.000Z</time></trkpt>
        <trkpt lat="29.564659" lon="103.424435"><ele>732.1253</ele><time>2026-04-04T07:57:09.000Z</time></trkpt>
        <trkpt lat="29.564668" lon="103.424491"><ele>730.0485</ele><time>2026-04-04T07:57:14.000Z</time></trkpt>
        <trkpt lat="29.564677" lon="103.424557"><ele>729.21814</ele><time>2026-04-04T07:57:21.000Z</time></trkpt>
        <trkpt lat="29.564683" lon="103.424616"><ele>726.55884</ele><time>2026-04-04T07:57:29.000Z</time></trkpt>
        <trkpt lat="29.564686" lon="103.424684"><ele>724.4371</ele><time>2026-04-04T07:57:34.000Z</time></trkpt>
        <trkpt lat="29.5647" lon="103.424733"><ele>724.3575</ele><time>2026-04-04T07:57:41.000Z</time></trkpt>
        <trkpt lat="29.564688" lon="103.424785"><ele>723.17554</ele><time>2026-04-04T07:57:44.000Z</time></trkpt>
        <trkpt lat="29.564703" lon="103.424847"><ele>723.05414</ele><time>2026-04-04T07:57:47.000Z</time></trkpt>
        <trkpt lat="29.564726" lon="103.424898"><ele>723.5747</ele><time>2026-04-04T07:57:50.000Z</time></trkpt>
        <trkpt lat="29.564751" lon="103.424953"><ele>724.11975</ele><time>2026-04-04T07:57:54.000Z</time></trkpt>
        <trkpt lat="29.564748" lon="103.425006"><ele>722.85944</ele><time>2026-04-04T07:58:04.000Z</time></trkpt>
        <trkpt lat="29.564768" lon="103.425056"><ele>715.1806</ele><time>2026-04-04T07:58:20.000Z</time></trkpt>
        <trkpt lat="29.564752" lon="103.425111"><ele>702.04193</ele><time>2026-04-04T07:58:36.000Z</time></trkpt>
        <trkpt lat="29.564771" lon="103.425161"><ele>703.85144</ele><time>2026-04-04T07:58:42.000Z</time></trkpt>
        <trkpt lat="29.564811" lon="103.425198"><ele>703.2726</ele><time>2026-04-04T07:58:49.000Z</time></trkpt>
        <trkpt lat="29.564874" lon="103.42523"><ele>704.03735</ele><time>2026-04-04T07:58:54.000Z</time></trkpt>
        <trkpt lat="29.564924" lon="103.425273"><ele>705.5042</ele><time>2026-04-04T07:58:57.000Z</time></trkpt>
        <trkpt lat="29.564964" lon="103.425319"><ele>706.2661</ele><time>2026-04-04T07:59:01.000Z</time></trkpt>
        <trkpt lat="29.564982" lon="103.425371"><ele>706.9201</ele><time>2026-04-04T07:59:05.000Z</time></trkpt>
        <trkpt lat="29.565008" lon="103.425417"><ele>707.44214</ele><time>2026-04-04T07:59:10.000Z</time></trkpt>
        <trkpt lat="29.565032" lon="103.42547"><ele>706.28687</ele><time>2026-04-04T07:59:14.000Z</time></trkpt>
        <trkpt lat="29.565064" lon="103.425513"><ele>706.57104</ele><time>2026-04-04T07:59:18.000Z</time></trkpt>
        <trkpt lat="29.565108" lon="103.42555"><ele>707.0858</ele><time>2026-04-04T07:59:23.000Z</time></trkpt>
        <trkpt lat="29.565148" lon="103.425575"><ele>706.9618</ele><time>2026-04-04T07:59:27.000Z</time></trkpt>
        <trkpt lat="29.565185" lon="103.425619"><ele>706.97485</ele><time>2026-04-04T07:59:30.000Z</time></trkpt>
        <trkpt lat="29.565229" lon="103.425666"><ele>705.61304</ele><time>2026-04-04T07:59:34.000Z</time></trkpt>
        <trkpt lat="29.565265" lon="103.425722"><ele>702.336</ele><time>2026-04-04T07:59:38.000Z</time></trkpt>
        <trkpt lat="29.565265" lon="103.425784"><ele>699.85095</ele><time>2026-04-04T07:59:43.000Z</time></trkpt>
        <trkpt lat="29.565219" lon="103.425794"><ele>694.5177</ele><time>2026-04-04T07:59:49.000Z</time></trkpt>
        <trkpt lat="29.565186" lon="103.425838"><ele>691.0689</ele><time>2026-04-04T07:59:57.000Z</time></trkpt>
        <trkpt lat="29.565161" lon="103.425881"><ele>688.144</ele><time>2026-04-04T08:00:05.000Z</time></trkpt>
        <trkpt lat="29.565142" lon="103.425935"><ele>684.7252</ele><time>2026-04-04T08:00:13.000Z</time></trkpt>
        <trkpt lat="29.565143" lon="103.425992"><ele>682.21356</ele><time>2026-04-04T08:00:21.000Z</time></trkpt>
        <trkpt lat="29.565128" lon="103.426042"><ele>679.48596</ele><time>2026-04-04T08:00:28.000Z</time></trkpt>
        <trkpt lat="29.565118" lon="103.4261"><ele>676.8722</ele><time>2026-04-04T08:00:37.000Z</time></trkpt>
        <trkpt lat="29.565119" lon="103.426155"><ele>674.24286</ele><time>2026-04-04T08:00:45.000Z</time></trkpt>
        <trkpt lat="29.565097" lon="103.426201"><ele>674.66815</ele><time>2026-04-04T08:01:04.000Z</time></trkpt>
        <trkpt lat="29.56509" lon="103.426254"><ele>672.5766</ele><time>2026-04-04T08:01:12.000Z</time></trkpt>
        <trkpt lat="29.56507" lon="103.426303"><ele>669.8979</ele><time>2026-04-04T08:01:19.000Z</time></trkpt>
        <trkpt lat="29.565078" lon="103.426366"><ele>668.4793</ele><time>2026-04-04T08:01:26.000Z</time></trkpt>
        <trkpt lat="29.565068" lon="103.42642"><ele>666.49304</ele><time>2026-04-04T08:01:33.000Z</time></trkpt>
        <trkpt lat="29.565051" lon="103.426475"><ele>667.02234</ele><time>2026-04-04T08:01:40.000Z</time></trkpt>
        <trkpt lat="29.565034" lon="103.426526"><ele>668.5993</ele><time>2026-04-04T08:01:47.000Z</time></trkpt>
        <trkpt lat="29.565039" lon="103.426583"><ele>667.27264</ele><time>2026-04-04T08:02:00.000Z</time></trkpt>
        <trkpt lat="29.565015" lon="103.42663"><ele>665.47516</ele><time>2026-04-04T08:02:07.000Z</time></trkpt>
        <trkpt lat="29.564983" lon="103.426676"><ele>662.0794</ele><time>2026-04-04T08:02:25.000Z</time></trkpt>
        <trkpt lat="29.564963" lon="103.426724"><ele>659.9284</ele><time>2026-04-04T08:02:34.000Z</time></trkpt>
        <trkpt lat="29.564962" lon="103.426779"><ele>658.5487</ele><time>2026-04-04T08:02:38.000Z</time></trkpt>
        <trkpt lat="29.564952" lon="103.426833"><ele>657.9037</ele><time>2026-04-04T08:02:43.000Z</time></trkpt>
        <trkpt lat="29.564965" lon="103.426883"><ele>657.76385</ele><time>2026-04-04T08:02:46.000Z</time></trkpt>
        <trkpt lat="29.564997" lon="103.426931"><ele>657.6616</ele><time>2026-04-04T08:02:53.000Z</time></trkpt>
        <trkpt lat="29.565022" lon="103.426975"><ele>659.46234</ele><time>2026-04-04T08:02:59.000Z</time></trkpt>
        <trkpt lat="29.565075" lon="103.426987"><ele>659.31647</ele><time>2026-04-04T08:03:07.000Z</time></trkpt>
        <trkpt lat="29.565121" lon="103.427"><ele>659.576</ele><time>2026-04-04T08:03:11.000Z</time></trkpt>
        <trkpt lat="29.565165" lon="103.42703"><ele>660.08527</ele><time>2026-04-04T08:03:14.000Z</time></trkpt>
        <trkpt lat="29.565204" lon="103.427069"><ele>661.9426</ele><time>2026-04-04T08:03:18.000Z</time></trkpt>
        <trkpt lat="29.565235" lon="103.427113"><ele>663.0605</ele><time>2026-04-04T08:03:22.000Z</time></trkpt>
        <trkpt lat="29.565271" lon="103.427155"><ele>662.29004</ele><time>2026-04-04T08:03:26.000Z</time></trkpt>
        <trkpt lat="29.565313" lon="103.427178"><ele>656.9913</ele><time>2026-04-04T08:03:30.000Z</time></trkpt>
        <trkpt lat="29.565346" lon="103.427225"><ele>656.78815</ele><time>2026-04-04T08:03:34.000Z</time></trkpt>
        <trkpt lat="29.565364" lon="103.427283"><ele>656.78845</ele><time>2026-04-04T08:03:38.000Z</time></trkpt>
        <trkpt lat="29.565397" lon="103.427327"><ele>659.23987</ele><time>2026-04-04T08:03:42.000Z</time></trkpt>
        <trkpt lat="29.565422" lon="103.427383"><ele>659.7998</ele><time>2026-04-04T08:03:46.000Z</time></trkpt>
        <trkpt lat="29.565443" lon="103.427442"><ele>660.5442</ele><time>2026-04-04T08:03:50.000Z</time></trkpt>
        <trkpt lat="29.565428" lon="103.427503"><ele>661.03937</ele><time>2026-04-04T08:03:53.000Z</time></trkpt>
        <trkpt lat="29.565438" lon="103.427561"><ele>659.7808</ele><time>2026-04-04T08:03:57.000Z</time></trkpt>
        <trkpt lat="29.565452" lon="103.427615"><ele>659.8619</ele><time>2026-04-04T08:04:00.000Z</time></trkpt>
        <trkpt lat="29.565447" lon="103.427678"><ele>660.6947</ele><time>2026-04-04T08:04:04.000Z</time></trkpt>
        <trkpt lat="29.56544" lon="103.427735"><ele>661.2977</ele><time>2026-04-04T08:04:07.000Z</time></trkpt>
        <trkpt lat="29.565452" lon="103.427803"><ele>662.26416</ele><time>2026-04-04T08:04:11.000Z</time></trkpt>
        <trkpt lat="29.565461" lon="103.427861"><ele>663.6249</ele><time>2026-04-04T08:04:14.000Z</time></trkpt>
        <trkpt lat="29.565464" lon="103.427916"><ele>664.44684</ele><time>2026-04-04T08:04:17.000Z</time></trkpt>
        <trkpt lat="29.565444" lon="103.427975"><ele>665.54553</ele><time>2026-04-04T08:04:20.000Z</time></trkpt>
        <trkpt lat="29.565427" lon="103.42803"><ele>665.7749</ele><time>2026-04-04T08:04:23.000Z</time></trkpt>
        <trkpt lat="29.565405" lon="103.42809"><ele>664.35406</ele><time>2026-04-04T08:04:27.000Z</time></trkpt>
        <trkpt lat="29.565366" lon="103.428142"><ele>663.28296</ele><time>2026-04-04T08:04:31.000Z</time></trkpt>
        <trkpt lat="29.565327" lon="103.428178"><ele>664.88654</ele><time>2026-04-04T08:04:35.000Z</time></trkpt>
        <trkpt lat="29.565275" lon="103.428187"><ele>664.01666</ele><time>2026-04-04T08:04:38.000Z</time></trkpt>
        <trkpt lat="29.565231" lon="103.428207"><ele>662.19653</ele><time>2026-04-04T08:04:41.000Z</time></trkpt>
        <trkpt lat="29.565187" lon="103.428238"><ele>663.0283</ele><time>2026-04-04T08:04:45.000Z</time></trkpt>
        <trkpt lat="29.565141" lon="103.428246"><ele>661.2362</ele><time>2026-04-04T08:04:48.000Z</time></trkpt>
        <trkpt lat="29.565095" lon="103.428275"><ele>661.1801</ele><time>2026-04-04T08:04:52.000Z</time></trkpt>
        <trkpt lat="29.565056" lon="103.428318"><ele>657.7524</ele><time>2026-04-04T08:04:56.000Z</time></trkpt>
        <trkpt lat="29.565022" lon="103.428369"><ele>658.20984</ele><time>2026-04-04T08:05:01.000Z</time></trkpt>
        <trkpt lat="29.564984" lon="103.428411"><ele>658.59796</ele><time>2026-04-04T08:05:05.000Z</time></trkpt>
        <trkpt lat="29.564929" lon="103.428418"><ele>658.9039</ele><time>2026-04-04T08:05:10.000Z</time></trkpt>
        <trkpt lat="29.564886" lon="103.428449"><ele>658.2308</ele><time>2026-04-04T08:05:14.000Z</time></trkpt>
        <trkpt lat="29.564842" lon="103.428485"><ele>658.86395</ele><time>2026-04-04T08:05:18.000Z</time></trkpt>
        <trkpt lat="29.564811" lon="103.428532"><ele>658.1882</ele><time>2026-04-04T08:05:21.000Z</time></trkpt>
        <trkpt lat="29.564786" lon="103.428595"><ele>655.94336</ele><time>2026-04-04T08:05:25.000Z</time></trkpt>
        <trkpt lat="29.564798" lon="103.42865"><ele>655.2938</ele><time>2026-04-04T08:05:27.000Z</time></trkpt>
        <trkpt lat="29.56482" lon="103.428707"><ele>653.62836</ele><time>2026-04-04T08:05:30.000Z</time></trkpt>
        <trkpt lat="29.564826" lon="103.428761"><ele>652.1593</ele><time>2026-04-04T08:05:34.000Z</time></trkpt>
        <trkpt lat="29.56484" lon="103.42881"><ele>648.12317</ele><time>2026-04-04T08:05:39.000Z</time></trkpt>
        <trkpt lat="29.564857" lon="103.428865"><ele>645.2159</ele><time>2026-04-04T08:05:44.000Z</time></trkpt>
        <trkpt lat="29.564849" lon="103.428917"><ele>644.91156</ele><time>2026-04-04T08:05:48.000Z</time></trkpt>
        <trkpt lat="29.564869" lon="103.428976"><ele>643.47003</ele><time>2026-04-04T08:05:52.000Z</time></trkpt>
        <trkpt lat="29.56489" lon="103.429029"><ele>643.6106</ele><time>2026-04-04T08:05:56.000Z</time></trkpt>
        <trkpt lat="29.5649" lon="103.429085"><ele>642.4773</ele><time>2026-04-04T08:06:01.000Z</time></trkpt>
        <trkpt lat="29.564896" lon="103.429145"><ele>642.7396</ele><time>2026-04-04T08:06:05.000Z</time></trkpt>
        <trkpt lat="29.564917" lon="103.429199"><ele>642.9328</ele><time>2026-04-04T08:06:08.000Z</time></trkpt>
        <trkpt lat="29.564923" lon="103.42926"><ele>641.9297</ele><time>2026-04-04T08:06:12.000Z</time></trkpt>
        <trkpt lat="29.564925" lon="103.429315"><ele>641.4145</ele><time>2026-04-04T08:06:15.000Z</time></trkpt>
        <trkpt lat="29.564918" lon="103.429371"><ele>641.0282</ele><time>2026-04-04T08:06:19.000Z</time></trkpt>
        <trkpt lat="29.564926" lon="103.429428"><ele>641.28314</ele><time>2026-04-04T08:06:23.000Z</time></trkpt>
        <trkpt lat="29.564959" lon="103.429482"><ele>640.7041</ele><time>2026-04-04T08:06:27.000Z</time></trkpt>
        <trkpt lat="29.564993" lon="103.429522"><ele>638.7412</ele><time>2026-04-04T08:06:31.000Z</time></trkpt>
        <trkpt lat="29.565025" lon="103.429571"><ele>637.2884</ele><time>2026-04-04T08:06:35.000Z</time></trkpt>
        <trkpt lat="29.565063" lon="103.42961"><ele>634.94324</ele><time>2026-04-04T08:06:39.000Z</time></trkpt>
        <trkpt lat="29.565093" lon="103.429661"><ele>634.77234</ele><time>2026-04-04T08:06:43.000Z</time></trkpt>
        <trkpt lat="29.565119" lon="103.429716"><ele>635.6607</ele><time>2026-04-04T08:06:47.000Z</time></trkpt>
        <trkpt lat="29.565134" lon="103.429765"><ele>636.67725</ele><time>2026-04-04T08:06:51.000Z</time></trkpt>
        <trkpt lat="29.565162" lon="103.429817"><ele>636.3433</ele><time>2026-04-04T08:06:55.000Z</time></trkpt>
        <trkpt lat="29.565192" lon="103.429871"><ele>637.4503</ele><time>2026-04-04T08:06:59.000Z</time></trkpt>
        <trkpt lat="29.565215" lon="103.429933"><ele>637.1712</ele><time>2026-04-04T08:07:03.000Z</time></trkpt>
        <trkpt lat="29.565242" lon="103.429975"><ele>636.9572</ele><time>2026-04-04T08:07:08.000Z</time></trkpt>
        <trkpt lat="29.56526" lon="103.430035"><ele>637.1977</ele><time>2026-04-04T08:07:13.000Z</time></trkpt>
        <trkpt lat="29.565271" lon="103.430093"><ele>637.7263</ele><time>2026-04-04T08:07:17.000Z</time></trkpt>
        <trkpt lat="29.565293" lon="103.430145"><ele>636.53046</ele><time>2026-04-04T08:07:21.000Z</time></trkpt>
        <trkpt lat="29.565301" lon="103.430199"><ele>635.82306</ele><time>2026-04-04T08:07:25.000Z</time></trkpt>
        <trkpt lat="29.565315" lon="103.430256"><ele>633.98346</ele><time>2026-04-04T08:07:29.000Z</time></trkpt>
        <trkpt lat="29.565329" lon="103.430306"><ele>633.4798</ele><time>2026-04-04T08:07:32.000Z</time></trkpt>
        <trkpt lat="29.565339" lon="103.430369"><ele>631.7581</ele><time>2026-04-04T08:07:37.000Z</time></trkpt>
        <trkpt lat="29.56535" lon="103.430421"><ele>626.54846</ele><time>2026-04-04T08:07:42.000Z</time></trkpt>
        <trkpt lat="29.565353" lon="103.430481"><ele>624.53815</ele><time>2026-04-04T08:07:47.000Z</time></trkpt>
        <trkpt lat="29.565347" lon="103.430541"><ele>627.62024</ele><time>2026-04-04T08:07:51.000Z</time></trkpt>
        <trkpt lat="29.565367" lon="103.430601"><ele>626.97015</ele><time>2026-04-04T08:07:55.000Z</time></trkpt>
        <trkpt lat="29.565393" lon="103.43066"><ele>624.6125</ele><time>2026-04-04T08:07:59.000Z</time></trkpt>
        <trkpt lat="29.565401" lon="103.430722"><ele>626.11017</ele><time>2026-04-04T08:08:03.000Z</time></trkpt>
        <trkpt lat="29.565394" lon="103.43078"><ele>624.6501</ele><time>2026-04-04T08:08:07.000Z</time></trkpt>
        <trkpt lat="29.565373" lon="103.430843"><ele>626.12695</ele><time>2026-04-04T08:08:11.000Z</time></trkpt>
        <trkpt lat="29.565406" lon="103.430899"><ele>626.0264</ele><time>2026-04-04T08:08:15.000Z</time></trkpt>
        <trkpt lat="29.565447" lon="103.430933"><ele>625.26465</ele><time>2026-04-04T08:08:18.000Z</time></trkpt>
        <trkpt lat="29.565497" lon="103.430949"><ele>623.21747</ele><time>2026-04-04T08:08:22.000Z</time></trkpt>
        <trkpt lat="29.565528" lon="103.430995"><ele>621.8995</ele><time>2026-04-04T08:08:26.000Z</time></trkpt>
        <trkpt lat="29.565556" lon="103.431046"><ele>621.7389</ele><time>2026-04-04T08:08:30.000Z</time></trkpt>
        <trkpt lat="29.565568" lon="103.431106"><ele>623.6417</ele><time>2026-04-04T08:08:34.000Z</time></trkpt>
        <trkpt lat="29.565549" lon="103.431167"><ele>623.91956</ele><time>2026-04-04T08:08:38.000Z</time></trkpt>
        <trkpt lat="29.565531" lon="103.431224"><ele>623.1008</ele><time>2026-04-04T08:08:42.000Z</time></trkpt>
        <trkpt lat="29.565513" lon="103.431273"><ele>621.9001</ele><time>2026-04-04T08:08:46.000Z</time></trkpt>
        <trkpt lat="29.565518" lon="103.431327"><ele>621.96045</ele><time>2026-04-04T08:08:50.000Z</time></trkpt>
        <trkpt lat="29.565509" lon="103.431394"><ele>621.38635</ele><time>2026-04-04T08:08:54.000Z</time></trkpt>
        <trkpt lat="29.565493" lon="103.431448"><ele>619.9497</ele><time>2026-04-04T08:08:59.000Z</time></trkpt>
        <trkpt lat="29.565472" lon="103.431502"><ele>617.9098</ele><time>2026-04-04T08:09:03.000Z</time></trkpt>
        <trkpt lat="29.565456" lon="103.431558"><ele>615.79456</ele><time>2026-04-04T08:09:07.000Z</time></trkpt>
        <trkpt lat="29.565441" lon="103.431609"><ele>616.38806</ele><time>2026-04-04T08:09:11.000Z</time></trkpt>
        <trkpt lat="29.565426" lon="103.43166"><ele>613.09357</ele><time>2026-04-04T08:09:16.000Z</time></trkpt>
        <trkpt lat="29.565406" lon="103.431706"><ele>612.6816</ele><time>2026-04-04T08:09:20.000Z</time></trkpt>
        <trkpt lat="29.565397" lon="103.431762"><ele>612.1258</ele><time>2026-04-04T08:09:24.000Z</time></trkpt>
        <trkpt lat="29.565389" lon="103.431821"><ele>612.86224</ele><time>2026-04-04T08:09:28.000Z</time></trkpt>
        <trkpt lat="29.565368" lon="103.431873"><ele>613.01013</ele><time>2026-04-04T08:09:32.000Z</time></trkpt>
        <trkpt lat="29.565333" lon="103.431926"><ele>612.4809</ele><time>2026-04-04T08:09:35.000Z</time></trkpt>
        <trkpt lat="29.565323" lon="103.43199"><ele>609.7635</ele><time>2026-04-04T08:09:39.000Z</time></trkpt>
        <trkpt lat="29.565337" lon="103.432041"><ele>605.237</ele><time>2026-04-04T08:09:44.000Z</time></trkpt>
        <trkpt lat="29.56537" lon="103.432082"><ele>600.7659</ele><time>2026-04-04T08:09:51.000Z</time></trkpt>
        <trkpt lat="29.565392" lon="103.432132"><ele>601.84796</ele><time>2026-04-04T08:09:57.000Z</time></trkpt>
        <trkpt lat="29.565409" lon="103.432187"><ele>601.944</ele><time>2026-04-04T08:10:00.000Z</time></trkpt>
        <trkpt lat="29.565413" lon="103.432247"><ele>604.39557</ele><time>2026-04-04T08:10:03.000Z</time></trkpt>
        <trkpt lat="29.565444" lon="103.432296"><ele>603.2839</ele><time>2026-04-04T08:10:14.000Z</time></trkpt>
        <trkpt lat="29.565461" lon="103.432351"><ele>601.263</ele><time>2026-04-04T08:10:18.000Z</time></trkpt>
        <trkpt lat="29.565482" lon="103.432397"><ele>600.9671</ele><time>2026-04-04T08:10:22.000Z</time></trkpt>
        <trkpt lat="29.565438" lon="103.432435"><ele>605.5397</ele><time>2026-04-04T08:10:28.000Z</time></trkpt>
        <trkpt lat="29.565385" lon="103.432436"><ele>605.0589</ele><time>2026-04-04T08:10:35.000Z</time></trkpt>
        <trkpt lat="29.565339" lon="103.432448"><ele>602.4081</ele><time>2026-04-04T08:10:43.000Z</time></trkpt>
        <trkpt lat="29.565284" lon="103.432428"><ele>600.7004</ele><time>2026-04-04T08:10:49.000Z</time></trkpt>
        <trkpt lat="29.565234" lon="103.432445"><ele>600.1121</ele><time>2026-04-04T08:10:53.000Z</time></trkpt>
        <trkpt lat="29.565183" lon="103.43242"><ele>600.81604</ele><time>2026-04-04T08:10:57.000Z</time></trkpt>
        <trkpt lat="29.565166" lon="103.432467"><ele>592.8359</ele><time>2026-04-04T08:11:05.000Z</time></trkpt>
        <trkpt lat="29.565187" lon="103.432515"><ele>590.65845</ele><time>2026-04-04T08:11:09.000Z</time></trkpt>
        <trkpt lat="29.565178" lon="103.43257"><ele>591.0421</ele><time>2026-04-04T08:11:13.000Z</time></trkpt>
        <trkpt lat="29.565196" lon="103.432623"><ele>592.9449</ele><time>2026-04-04T08:11:17.000Z</time></trkpt>
        <trkpt lat="29.565203" lon="103.432674"><ele>592.63983</ele><time>2026-04-04T08:11:21.000Z</time></trkpt>
        <trkpt lat="29.565223" lon="103.43274"><ele>593.0035</ele><time>2026-04-04T08:11:24.000Z</time></trkpt>
        <trkpt lat="29.565244" lon="103.432787"><ele>593.99567</ele><time>2026-04-04T08:11:27.000Z</time></trkpt>
        <trkpt lat="29.565234" lon="103.43284"><ele>594.624</ele><time>2026-04-04T08:11:31.000Z</time></trkpt>
        <trkpt lat="29.565256" lon="103.432898"><ele>594.1746</ele><time>2026-04-04T08:11:38.000Z</time></trkpt>
        <trkpt lat="29.565285" lon="103.43295"><ele>593.4993</ele><time>2026-04-04T08:11:40.000Z</time></trkpt>
        <trkpt lat="29.565291" lon="103.433002"><ele>592.8817</ele><time>2026-04-04T08:11:43.000Z</time></trkpt>
        <trkpt lat="29.565306" lon="103.433051"><ele>590.8815</ele><time>2026-04-04T08:11:47.000Z</time></trkpt>
        <trkpt lat="29.565335" lon="103.433102"><ele>590.50275</ele><time>2026-04-04T08:11:51.000Z</time></trkpt>
        <trkpt lat="29.565334" lon="103.43317"><ele>591.1821</ele><time>2026-04-04T08:11:55.000Z</time></trkpt>
        <trkpt lat="29.565365" lon="103.433224"><ele>590.1623</ele><time>2026-04-04T08:12:00.000Z</time></trkpt>
        <trkpt lat="29.565403" lon="103.43326"><ele>589.3943</ele><time>2026-04-04T08:12:04.000Z</time></trkpt>
        <trkpt lat="29.565417" lon="103.433314"><ele>590.928</ele><time>2026-04-04T08:12:08.000Z</time></trkpt>
        <trkpt lat="29.565449" lon="103.433363"><ele>590.57837</ele><time>2026-04-04T08:12:12.000Z</time></trkpt>
        <trkpt lat="29.565475" lon="103.433408"><ele>589.28784</ele><time>2026-04-04T08:12:17.000Z</time></trkpt>
        <trkpt lat="29.565502" lon="103.433462"><ele>589.17285</ele><time>2026-04-04T08:12:21.000Z</time></trkpt>
        <trkpt lat="29.565517" lon="103.433511"><ele>589.064</ele><time>2026-04-04T08:12:25.000Z</time></trkpt>
        <trkpt lat="29.565548" lon="103.433552"><ele>589.67487</ele><time>2026-04-04T08:12:29.000Z</time></trkpt>
        <trkpt lat="29.565599" lon="103.433566"><ele>590.03033</ele><time>2026-04-04T08:12:33.000Z</time></trkpt>
        <trkpt lat="29.565609" lon="103.433626"><ele>589.6203</ele><time>2026-04-04T08:12:36.000Z</time></trkpt>
        <trkpt lat="29.565609" lon="103.433691"><ele>587.5872</ele><time>2026-04-04T08:12:41.000Z</time></trkpt>
        <trkpt lat="29.565605" lon="103.433749"><ele>584.15625</ele><time>2026-04-04T08:12:47.000Z</time></trkpt>
        <trkpt lat="29.565602" lon="103.433807"><ele>584.4901</ele><time>2026-04-04T08:12:51.000Z</time></trkpt>
        <trkpt lat="29.56562" lon="103.433863"><ele>585.34735</ele><time>2026-04-04T08:12:55.000Z</time></trkpt>
        <trkpt lat="29.565636" lon="103.433919"><ele>583.7996</ele><time>2026-04-04T08:12:59.000Z</time></trkpt>
        <trkpt lat="29.565656" lon="103.433966"><ele>583.6021</ele><time>2026-04-04T08:13:02.000Z</time></trkpt>
        <trkpt lat="29.565665" lon="103.434032"><ele>585.62665</ele><time>2026-04-04T08:13:07.000Z</time></trkpt>
        <trkpt lat="29.565661" lon="103.434099"><ele>586.9605</ele><time>2026-04-04T08:13:11.000Z</time></trkpt>
        <trkpt lat="29.565647" lon="103.434162"><ele>588.8826</ele><time>2026-04-04T08:13:15.000Z</time></trkpt>
        <trkpt lat="29.565635" lon="103.434222"><ele>587.8932</ele><time>2026-04-04T08:13:19.000Z</time></trkpt>
        <trkpt lat="29.56563" lon="103.43428"><ele>586.3683</ele><time>2026-04-04T08:13:23.000Z</time></trkpt>
        <trkpt lat="29.565611" lon="103.43434"><ele>588.7777</ele><time>2026-04-04T08:13:28.000Z</time></trkpt>
        <trkpt lat="29.565603" lon="103.434398"><ele>590.8755</ele><time>2026-04-04T08:13:32.000Z</time></trkpt>
        <trkpt lat="29.565586" lon="103.434455"><ele>588.9812</ele><time>2026-04-04T08:13:36.000Z</time></trkpt>
        <trkpt lat="29.565558" lon="103.434509"><ele>588.7628</ele><time>2026-04-04T08:13:40.000Z</time></trkpt>
        <trkpt lat="29.565556" lon="103.434561"><ele>587.5388</ele><time>2026-04-04T08:13:43.000Z</time></trkpt>
        <trkpt lat="29.565563" lon="103.434616"><ele>584.75586</ele><time>2026-04-04T08:13:48.000Z</time></trkpt>
        <trkpt lat="29.565577" lon="103.434674"><ele>584.03015</ele><time>2026-04-04T08:13:51.000Z</time></trkpt>
        <trkpt lat="29.565596" lon="103.434721"><ele>584.4698</ele><time>2026-04-04T08:13:55.000Z</time></trkpt>
        <trkpt lat="29.565625" lon="103.434763"><ele>583.5552</ele><time>2026-04-04T08:14:00.000Z</time></trkpt>
        <trkpt lat="29.56564" lon="103.43482"><ele>582.5164</ele><time>2026-04-04T08:14:05.000Z</time></trkpt>
        <trkpt lat="29.565658" lon="103.434874"><ele>582.1403</ele><time>2026-04-04T08:14:08.000Z</time></trkpt>
        <trkpt lat="29.565694" lon="103.434917"><ele>581.9168</ele><time>2026-04-04T08:14:12.000Z</time></trkpt>
        <trkpt lat="29.565747" lon="103.434942"><ele>585.01624</ele><time>2026-04-04T08:14:16.000Z</time></trkpt>
        <trkpt lat="29.565797" lon="103.434976"><ele>581.42645</ele><time>2026-04-04T08:14:22.000Z</time></trkpt>
        <trkpt lat="29.565843" lon="103.435001"><ele>579.3198</ele><time>2026-04-04T08:14:27.000Z</time></trkpt>
        <trkpt lat="29.565882" lon="103.435045"><ele>578.20215</ele><time>2026-04-04T08:14:34.000Z</time></trkpt>
        <trkpt lat="29.565903" lon="103.435099"><ele>578.601</ele><time>2026-04-04T08:14:40.000Z</time></trkpt>
        <trkpt lat="29.565944" lon="103.435148"><ele>576.8978</ele><time>2026-04-04T08:14:43.000Z</time></trkpt>
        <trkpt lat="29.565963" lon="103.435199"><ele>577.28076</ele><time>2026-04-04T08:14:45.000Z</time></trkpt>
        <trkpt lat="29.565987" lon="103.435263"><ele>576.85144</ele><time>2026-04-04T08:14:48.000Z</time></trkpt>
        <trkpt lat="29.566008" lon="103.435319"><ele>575.48334</ele><time>2026-04-04T08:14:52.000Z</time></trkpt>
        <trkpt lat="29.566029" lon="103.43538"><ele>573.9461</ele><time>2026-04-04T08:14:58.000Z</time></trkpt>
        <trkpt lat="29.566044" lon="103.435433"><ele>573.13837</ele><time>2026-04-04T08:15:01.000Z</time></trkpt>
        <trkpt lat="29.566066" lon="103.435489"><ele>569.83655</ele><time>2026-04-04T08:15:05.000Z</time></trkpt>
        <trkpt lat="29.566093" lon="103.435546"><ele>569.3212</ele><time>2026-04-04T08:15:09.000Z</time></trkpt>
        <trkpt lat="29.566118" lon="103.4356"><ele>569.47107</ele><time>2026-04-04T08:15:13.000Z</time></trkpt>
        <trkpt lat="29.566132" lon="103.435657"><ele>567.04376</ele><time>2026-04-04T08:15:18.000Z</time></trkpt>
        <trkpt lat="29.566142" lon="103.435718"><ele>566.15894</ele><time>2026-04-04T08:15:23.000Z</time></trkpt>
        <trkpt lat="29.566146" lon="103.43578"><ele>566.0291</ele><time>2026-04-04T08:15:27.000Z</time></trkpt>
        <trkpt lat="29.566157" lon="103.435841"><ele>566.5469</ele><time>2026-04-04T08:15:32.000Z</time></trkpt>
        <trkpt lat="29.566178" lon="103.435893"><ele>567.5822</ele><time>2026-04-04T08:15:36.000Z</time></trkpt>
        <trkpt lat="29.566193" lon="103.435949"><ele>568.8894</ele><time>2026-04-04T08:15:40.000Z</time></trkpt>
        <trkpt lat="29.566226" lon="103.435997"><ele>566.86536</ele><time>2026-04-04T08:15:44.000Z</time></trkpt>
        <trkpt lat="29.566248" lon="103.436047"><ele>566.8814</ele><time>2026-04-04T08:15:47.000Z</time></trkpt>
        <trkpt lat="29.566252" lon="103.436112"><ele>567.92065</ele><time>2026-04-04T08:15:51.000Z</time></trkpt>
        <trkpt lat="29.566274" lon="103.436157"><ele>569.36896</ele><time>2026-04-04T08:15:55.000Z</time></trkpt>
        <trkpt lat="29.566285" lon="103.436211"><ele>569.256</ele><time>2026-04-04T08:15:59.000Z</time></trkpt>
        <trkpt lat="29.5663" lon="103.436266"><ele>568.21735</ele><time>2026-04-04T08:16:03.000Z</time></trkpt>
        <trkpt lat="29.566327" lon="103.436324"><ele>567.8271</ele><time>2026-04-04T08:16:07.000Z</time></trkpt>
        <trkpt lat="29.566343" lon="103.436382"><ele>568.44293</ele><time>2026-04-04T08:16:11.000Z</time></trkpt>
        <trkpt lat="29.566365" lon="103.436445"><ele>568.41315</ele><time>2026-04-04T08:16:15.000Z</time></trkpt>
        <trkpt lat="29.566384" lon="103.436505"><ele>570.4097</ele><time>2026-04-04T08:16:19.000Z</time></trkpt>
        <trkpt lat="29.566402" lon="103.43656"><ele>571.26215</ele><time>2026-04-04T08:16:23.000Z</time></trkpt>
        <trkpt lat="29.566427" lon="103.436614"><ele>572.56354</ele><time>2026-04-04T08:16:27.000Z</time></trkpt>
        <trkpt lat="29.566461" lon="103.436663"><ele>573.25745</ele><time>2026-04-04T08:16:31.000Z</time></trkpt>
        <trkpt lat="29.566491" lon="103.43671"><ele>573.2491</ele><time>2026-04-04T08:16:35.000Z</time></trkpt>
        <trkpt lat="29.566526" lon="103.436754"><ele>570.3611</ele><time>2026-04-04T08:16:39.000Z</time></trkpt>
        <trkpt lat="29.566557" lon="103.436804"><ele>569.83435</ele><time>2026-04-04T08:16:43.000Z</time></trkpt>
        <trkpt lat="29.566579" lon="103.436851"><ele>569.5071</ele><time>2026-04-04T08:16:46.000Z</time></trkpt>
        <trkpt lat="29.566609" lon="103.436906"><ele>568.77576</ele><time>2026-04-04T08:16:50.000Z</time></trkpt>
        <trkpt lat="29.566628" lon="103.436958"><ele>569.1445</ele><time>2026-04-04T08:16:53.000Z</time></trkpt>
        <trkpt lat="29.566667" lon="103.437012"><ele>568.2549</ele><time>2026-04-04T08:16:57.000Z</time></trkpt>
        <trkpt lat="29.566687" lon="103.437058"><ele>567.67</ele><time>2026-04-04T08:17:00.000Z</time></trkpt>
        <trkpt lat="29.566716" lon="103.437103"><ele>568.06744</ele><time>2026-04-04T08:17:03.000Z</time></trkpt>
        <trkpt lat="29.566754" lon="103.437148"><ele>567.4244</ele><time>2026-04-04T08:17:07.000Z</time></trkpt>
        <trkpt lat="29.566778" lon="103.437207"><ele>567.0087</ele><time>2026-04-04T08:17:11.000Z</time></trkpt>
        <trkpt lat="29.56681" lon="103.437245"><ele>566.0262</ele><time>2026-04-04T08:17:15.000Z</time></trkpt>
        <trkpt lat="29.566839" lon="103.437303"><ele>567.28253</ele><time>2026-04-04T08:17:19.000Z</time></trkpt>
        <trkpt lat="29.566869" lon="103.43736"><ele>566.612</ele><time>2026-04-04T08:17:23.000Z</time></trkpt>
        <trkpt lat="29.566896" lon="103.437413"><ele>566.7285</ele><time>2026-04-04T08:17:27.000Z</time></trkpt>
        <trkpt lat="29.566919" lon="103.43746"><ele>565.6035</ele><time>2026-04-04T08:17:31.000Z</time></trkpt>
        <trkpt lat="29.566951" lon="103.437507"><ele>564.8519</ele><time>2026-04-04T08:17:35.000Z</time></trkpt>
        <trkpt lat="29.566986" lon="103.43755"><ele>563.6588</ele><time>2026-04-04T08:17:39.000Z</time></trkpt>
        <trkpt lat="29.567011" lon="103.43761"><ele>559.561</ele><time>2026-04-04T08:17:46.000Z</time></trkpt>
        <trkpt lat="29.56704" lon="103.437654"><ele>557.7797</ele><time>2026-04-04T08:17:51.000Z</time></trkpt>
        <trkpt lat="29.567067" lon="103.437703"><ele>558.1752</ele><time>2026-04-04T08:17:54.000Z</time></trkpt>
        <trkpt lat="29.567094" lon="103.437756"><ele>558.4337</ele><time>2026-04-04T08:17:56.000Z</time></trkpt>
        <trkpt lat="29.567124" lon="103.437796"><ele>557.8235</ele><time>2026-04-04T08:17:59.000Z</time></trkpt>
        <trkpt lat="29.567157" lon="103.437836"><ele>557.9524</ele><time>2026-04-04T08:18:03.000Z</time></trkpt>
        <trkpt lat="29.567178" lon="103.437883"><ele>557.74133</ele><time>2026-04-04T08:18:06.000Z</time></trkpt>
        <trkpt lat="29.567185" lon="103.437936"><ele>558.2375</ele><time>2026-04-04T08:18:09.000Z</time></trkpt>
        <trkpt lat="29.567226" lon="103.437974"><ele>559.16675</ele><time>2026-04-04T08:18:13.000Z</time></trkpt>
        <trkpt lat="29.567256" lon="103.438016"><ele>559.57404</ele><time>2026-04-04T08:18:17.000Z</time></trkpt>
        <trkpt lat="29.567275" lon="103.438066"><ele>562.11383</ele><time>2026-04-04T08:18:21.000Z</time></trkpt>
        <trkpt lat="29.567313" lon="103.438115"><ele>558.8837</ele><time>2026-04-04T08:18:25.000Z</time></trkpt>
        <trkpt lat="29.56735" lon="103.438168"><ele>557.2861</ele><time>2026-04-04T08:18:29.000Z</time></trkpt>
        <trkpt lat="29.567389" lon="103.438208"><ele>556.5459</ele><time>2026-04-04T08:18:32.000Z</time></trkpt>
        <trkpt lat="29.567417" lon="103.438266"><ele>556.8718</ele><time>2026-04-04T08:18:36.000Z</time></trkpt>
        <trkpt lat="29.567451" lon="103.438307"><ele>555.00507</ele><time>2026-04-04T08:18:40.000Z</time></trkpt>
        <trkpt lat="29.567474" lon="103.438358"><ele>558.38055</ele><time>2026-04-04T08:18:44.000Z</time></trkpt>
        <trkpt lat="29.567516" lon="103.438397"><ele>556.8825</ele><time>2026-04-04T08:18:47.000Z</time></trkpt>
        <trkpt lat="29.567543" lon="103.438451"><ele>553.03827</ele><time>2026-04-04T08:18:53.000Z</time></trkpt>
        <trkpt lat="29.567576" lon="103.4385"><ele>550.68494</ele><time>2026-04-04T08:18:57.000Z</time></trkpt>
        <trkpt lat="29.567609" lon="103.438539"><ele>549.0416</ele><time>2026-04-04T08:19:00.000Z</time></trkpt>
        <trkpt lat="29.567635" lon="103.438582"><ele>549.2352</ele><time>2026-04-04T08:19:03.000Z</time></trkpt>
        <trkpt lat="29.567676" lon="103.438611"><ele>549.43896</ele><time>2026-04-04T08:19:06.000Z</time></trkpt>
        <trkpt lat="29.567706" lon="103.438662"><ele>548.1188</ele><time>2026-04-04T08:19:10.000Z</time></trkpt>
        <trkpt lat="29.567737" lon="103.438712"><ele>547.2164</ele><time>2026-04-04T08:19:14.000Z</time></trkpt>
        <trkpt lat="29.567772" lon="103.438763"><ele>547.8497</ele><time>2026-04-04T08:19:18.000Z</time></trkpt>
        <trkpt lat="29.567803" lon="103.43881"><ele>548.199</ele><time>2026-04-04T08:19:22.000Z</time></trkpt>
        <trkpt lat="29.567836" lon="103.438853"><ele>548.40594</ele><time>2026-04-04T08:19:26.000Z</time></trkpt>
        <trkpt lat="29.56787" lon="103.4389"><ele>549.1106</ele><time>2026-04-04T08:19:30.000Z</time></trkpt>
        <trkpt lat="29.567903" lon="103.438942"><ele>549.2788</ele><time>2026-04-04T08:19:34.000Z</time></trkpt>
        <trkpt lat="29.567945" lon="103.438982"><ele>546.09564</ele><time>2026-04-04T08:19:39.000Z</time></trkpt>
        <trkpt lat="29.567979" lon="103.439029"><ele>544.28815</ele><time>2026-04-04T08:19:45.000Z</time></trkpt>
        <trkpt lat="29.568011" lon="103.439074"><ele>544.03217</ele><time>2026-04-04T08:19:49.000Z</time></trkpt>
        <trkpt lat="29.568047" lon="103.439114"><ele>544.507</ele><time>2026-04-04T08:19:53.000Z</time></trkpt>
        <trkpt lat="29.568075" lon="103.43916"><ele>545.64734</ele><time>2026-04-04T08:19:57.000Z</time></trkpt>
        <trkpt lat="29.56811" lon="103.439194"><ele>546.6478</ele><time>2026-04-04T08:20:01.000Z</time></trkpt>
        <trkpt lat="29.568146" lon="103.439237"><ele>545.35175</ele><time>2026-04-04T08:20:04.000Z</time></trkpt>
        <trkpt lat="29.568193" lon="103.439271"><ele>545.5487</ele><time>2026-04-04T08:20:08.000Z</time></trkpt>
        <trkpt lat="29.568239" lon="103.439307"><ele>544.75665</ele><time>2026-04-04T08:20:12.000Z</time></trkpt>
        <trkpt lat="29.568271" lon="103.439353"><ele>547.1053</ele><time>2026-04-04T08:20:16.000Z</time></trkpt>
        <trkpt lat="29.568315" lon="103.439391"><ele>547.98566</ele><time>2026-04-04T08:20:21.000Z</time></trkpt>
        <trkpt lat="29.568352" lon="103.439437"><ele>548.8262</ele><time>2026-04-04T08:20:25.000Z</time></trkpt>
        <trkpt lat="29.568393" lon="103.439466"><ele>547.16254</ele><time>2026-04-04T08:20:29.000Z</time></trkpt>
        <trkpt lat="29.568427" lon="103.439513"><ele>546.175</ele><time>2026-04-04T08:20:33.000Z</time></trkpt>
        <trkpt lat="29.568468" lon="103.439556"><ele>543.83514</ele><time>2026-04-04T08:20:37.000Z</time></trkpt>
        <trkpt lat="29.568499" lon="103.439597"><ele>544.35583</ele><time>2026-04-04T08:20:40.000Z</time></trkpt>
        <trkpt lat="29.568528" lon="103.439652"><ele>544.2853</ele><time>2026-04-04T08:20:44.000Z</time></trkpt>
        <trkpt lat="29.56857" lon="103.439692"><ele>544.60156</ele><time>2026-04-04T08:20:48.000Z</time></trkpt>
        <trkpt lat="29.568595" lon="103.439743"><ele>542.89954</ele><time>2026-04-04T08:20:52.000Z</time></trkpt>
        <trkpt lat="29.568628" lon="103.439791"><ele>544.89606</ele><time>2026-04-04T08:20:56.000Z</time></trkpt>
        <trkpt lat="29.568663" lon="103.439837"><ele>544.7624</ele><time>2026-04-04T08:21:00.000Z</time></trkpt>
        <trkpt lat="29.568709" lon="103.439876"><ele>545.6508</ele><time>2026-04-04T08:21:04.000Z</time></trkpt>
        <trkpt lat="29.568713" lon="103.439931"><ele>546.46094</ele><time>2026-04-04T08:21:08.000Z</time></trkpt>
        <trkpt lat="29.568742" lon="103.439978"><ele>545.7363</ele><time>2026-04-04T08:21:12.000Z</time></trkpt>
        <trkpt lat="29.568783" lon="103.440015"><ele>543.5703</ele><time>2026-04-04T08:21:16.000Z</time></trkpt>
        <trkpt lat="29.568814" lon="103.440053"><ele>543.2851</ele><time>2026-04-04T08:21:20.000Z</time></trkpt>
        <trkpt lat="29.568848" lon="103.440093"><ele>544.70166</ele><time>2026-04-04T08:21:24.000Z</time></trkpt>
        <trkpt lat="29.568872" lon="103.440148"><ele>543.91504</ele><time>2026-04-04T08:21:28.000Z</time></trkpt>
        <trkpt lat="29.568904" lon="103.440203"><ele>543.1379</ele><time>2026-04-04T08:21:32.000Z</time></trkpt>
        <trkpt lat="29.568938" lon="103.44025"><ele>541.14594</ele><time>2026-04-04T08:21:36.000Z</time></trkpt>
        <trkpt lat="29.56897" lon="103.440302"><ele>541.6315</ele><time>2026-04-04T08:21:40.000Z</time></trkpt>
        <trkpt lat="29.568988" lon="103.440353"><ele>541.62585</ele><time>2026-04-04T08:21:44.000Z</time></trkpt>
        <trkpt lat="29.569004" lon="103.440406"><ele>541.1402</ele><time>2026-04-04T08:21:49.000Z</time></trkpt>
        <trkpt lat="29.569019" lon="103.440461"><ele>541.7037</ele><time>2026-04-04T08:21:53.000Z</time></trkpt>
        <trkpt lat="29.569023" lon="103.440519"><ele>539.78827</ele><time>2026-04-04T08:21:57.000Z</time></trkpt>
        <trkpt lat="29.569034" lon="103.440583"><ele>538.95624</ele><time>2026-04-04T08:22:01.000Z</time></trkpt>
        <trkpt lat="29.569038" lon="103.440638"><ele>536.61926</ele><time>2026-04-04T08:22:11.000Z</time></trkpt>
        <trkpt lat="29.569025" lon="103.44069"><ele>535.27844</ele><time>2026-04-04T08:22:14.000Z</time></trkpt>
        <trkpt lat="29.568998" lon="103.440649"><ele>530.9235</ele><time>2026-04-04T08:22:26.000Z</time></trkpt>
        <trkpt lat="29.568954" lon="103.440604"><ele>530.99274</ele><time>2026-04-04T08:22:38.000Z</time></trkpt>
        <trkpt lat="29.568922" lon="103.440566"><ele>531.3316</ele><time>2026-04-04T08:22:42.000Z</time></trkpt>
        <trkpt lat="29.568877" lon="103.440536"><ele>532.6291</ele><time>2026-04-04T08:22:46.000Z</time></trkpt>
        <trkpt lat="29.568835" lon="103.440498"><ele>532.644</ele><time>2026-04-04T08:22:50.000Z</time></trkpt>
        <trkpt lat="29.56879" lon="103.440465"><ele>532.30115</ele><time>2026-04-04T08:22:55.000Z</time></trkpt>
        <trkpt lat="29.568754" lon="103.44042"><ele>530.94824</ele><time>2026-04-04T08:23:00.000Z</time></trkpt>
        <trkpt lat="29.568715" lon="103.440393"><ele>529.7752</ele><time>2026-04-04T08:23:03.000Z</time></trkpt>
        <trkpt lat="29.568742" lon="103.440437"><ele>526.50244</ele><time>2026-04-04T08:23:30.000Z</time></trkpt>
        <trkpt lat="29.5687" lon="103.44049"><ele>525.5659</ele><time>2026-04-04T08:23:38.000Z</time></trkpt>
        <trkpt lat="29.568675" lon="103.440536"><ele>524.4174</ele><time>2026-04-04T08:23:44.000Z</time></trkpt>
        <trkpt lat="29.568667" lon="103.440589"><ele>524.29987</ele><time>2026-04-04T08:23:49.000Z</time></trkpt>
        <trkpt lat="29.568686" lon="103.440645"><ele>523.8456</ele><time>2026-04-04T08:23:54.000Z</time></trkpt>
        <trkpt lat="29.568679" lon="103.440705"><ele>524.92163</ele><time>2026-04-04T08:24:02.000Z</time></trkpt>
        <trkpt lat="29.568656" lon="103.440752"><ele>526.2308</ele><time>2026-04-04T08:24:06.000Z</time></trkpt>
        <trkpt lat="29.568613" lon="103.440804"><ele>524.6272</ele><time>2026-04-04T08:24:10.000Z</time></trkpt>
        <trkpt lat="29.568623" lon="103.440855"><ele>524.1227</ele><time>2026-04-04T08:24:14.000Z</time></trkpt>
        <trkpt lat="29.568649" lon="103.440906"><ele>525.53314</ele><time>2026-04-04T08:24:21.000Z</time></trkpt>
        <trkpt lat="29.568667" lon="103.440956"><ele>527.5292</ele><time>2026-04-04T08:24:25.000Z</time></trkpt>
        <trkpt lat="29.568698" lon="103.440998"><ele>528.3866</ele><time>2026-04-04T08:24:28.000Z</time></trkpt>
        <trkpt lat="29.568719" lon="103.441054"><ele>527.64294</ele><time>2026-04-04T08:24:32.000Z</time></trkpt>
        <trkpt lat="29.568725" lon="103.44111"><ele>526.47797</ele><time>2026-04-04T08:24:36.000Z</time></trkpt>
        <trkpt lat="29.568737" lon="103.441161"><ele>526.6148</ele><time>2026-04-04T08:24:41.000Z</time></trkpt>
        <trkpt lat="29.568738" lon="103.441229"><ele>525.34314</ele><time>2026-04-04T08:24:45.000Z</time></trkpt>
        <trkpt lat="29.568706" lon="103.441275"><ele>523.6266</ele><time>2026-04-04T08:24:50.000Z</time></trkpt>
        <trkpt lat="29.568681" lon="103.441323"><ele>522.30646</ele><time>2026-04-04T08:24:54.000Z</time></trkpt>
        <trkpt lat="29.568694" lon="103.441373"><ele>520.607</ele><time>2026-04-04T08:25:07.000Z</time></trkpt>
        <trkpt lat="29.568696" lon="103.441426"><ele>520.335</ele><time>2026-04-04T08:25:14.000Z</time></trkpt>
        <trkpt lat="29.568751" lon="103.441421"><ele>520.9446</ele><time>2026-04-04T08:25:26.000Z</time></trkpt>
        <trkpt lat="29.568806" lon="103.441427"><ele>523.0638</ele><time>2026-04-04T08:25:30.000Z</time></trkpt>
        <trkpt lat="29.568853" lon="103.441438"><ele>524.83453</ele><time>2026-04-04T08:25:34.000Z</time></trkpt>
        <trkpt lat="29.568896" lon="103.441468"><ele>524.9538</ele><time>2026-04-04T08:25:38.000Z</time></trkpt>
        <trkpt lat="29.568935" lon="103.441498"><ele>525.7436</ele><time>2026-04-04T08:25:43.000Z</time></trkpt>
        <trkpt lat="29.568963" lon="103.441558"><ele>524.10974</ele><time>2026-04-04T08:25:47.000Z</time></trkpt>
        <trkpt lat="29.568982" lon="103.441609"><ele>523.51294</ele><time>2026-04-04T08:25:51.000Z</time></trkpt>
        <trkpt lat="29.568997" lon="103.441669"><ele>523.68665</ele><time>2026-04-04T08:25:55.000Z</time></trkpt>
        <trkpt lat="29.568997" lon="103.44173"><ele>523.153</ele><time>2026-04-04T08:26:01.000Z</time></trkpt>
        <trkpt lat="29.568999" lon="103.441782"><ele>522.6654</ele><time>2026-04-04T08:26:04.000Z</time></trkpt>
        <trkpt lat="29.56899" lon="103.441835"><ele>522.202</ele><time>2026-04-04T08:26:07.000Z</time></trkpt>
        <trkpt lat="29.568981" lon="103.441894"><ele>521.65393</ele><time>2026-04-04T08:26:11.000Z</time></trkpt>
        <trkpt lat="29.568972" lon="103.441961"><ele>520.3803</ele><time>2026-04-04T08:26:15.000Z</time></trkpt>
        <trkpt lat="29.568969" lon="103.442019"><ele>520.23444</ele><time>2026-04-04T08:26:19.000Z</time></trkpt>
        <trkpt lat="29.56897" lon="103.442085"><ele>520.3617</ele><time>2026-04-04T08:26:23.000Z</time></trkpt>
        <trkpt lat="29.568957" lon="103.442136"><ele>521.23627</ele><time>2026-04-04T08:26:26.000Z</time></trkpt>
        <trkpt lat="29.568942" lon="103.442194"><ele>519.90045</ele><time>2026-04-04T08:26:31.000Z</time></trkpt>
        <trkpt lat="29.568927" lon="103.442247"><ele>520.1675</ele><time>2026-04-04T08:26:35.000Z</time></trkpt>
        <trkpt lat="29.568917" lon="103.442299"><ele>519.5964</ele><time>2026-04-04T08:26:38.000Z</time></trkpt>
        <trkpt lat="29.568918" lon="103.442361"><ele>519.6408</ele><time>2026-04-04T08:26:42.000Z</time></trkpt>
        <trkpt lat="29.5689" lon="103.44241"><ele>519.8125</ele><time>2026-04-04T08:26:46.000Z</time></trkpt>
        <trkpt lat="29.568899" lon="103.442464"><ele>520.3137</ele><time>2026-04-04T08:26:49.000Z</time></trkpt>
        <trkpt lat="29.568886" lon="103.442528"><ele>520.1674</ele><time>2026-04-04T08:26:53.000Z</time></trkpt>
        <trkpt lat="29.568884" lon="103.442586"><ele>520.4152</ele><time>2026-04-04T08:26:56.000Z</time></trkpt>
        <trkpt lat="29.568882" lon="103.442651"><ele>519.3952</ele><time>2026-04-04T08:27:00.000Z</time></trkpt>
        <trkpt lat="29.568866" lon="103.442715"><ele>519.3338</ele><time>2026-04-04T08:27:04.000Z</time></trkpt>
        <trkpt lat="29.568831" lon="103.44277"><ele>517.35187</ele><time>2026-04-04T08:27:08.000Z</time></trkpt>
        <trkpt lat="29.56881" lon="103.442827"><ele>516.2225</ele><time>2026-04-04T08:27:12.000Z</time></trkpt>
        <trkpt lat="29.568801" lon="103.442891"><ele>516.2404</ele><time>2026-04-04T08:27:16.000Z</time></trkpt>
        <trkpt lat="29.568791" lon="103.44295"><ele>515.41766</ele><time>2026-04-04T08:27:20.000Z</time></trkpt>
        <trkpt lat="29.568795" lon="103.443007"><ele>514.9401</ele><time>2026-04-04T08:27:24.000Z</time></trkpt>
        <trkpt lat="29.568778" lon="103.443062"><ele>514.9903</ele><time>2026-04-04T08:27:28.000Z</time></trkpt>
        <trkpt lat="29.568768" lon="103.443113"><ele>514.8703</ele><time>2026-04-04T08:27:32.000Z</time></trkpt>
        <trkpt lat="29.568751" lon="103.443164"><ele>515.95624</ele><time>2026-04-04T08:27:36.000Z</time></trkpt>
        <trkpt lat="29.568721" lon="103.443218"><ele>515.86914</ele><time>2026-04-04T08:27:41.000Z</time></trkpt>
        <trkpt lat="29.568686" lon="103.443255"><ele>516.52203</ele><time>2026-04-04T08:27:45.000Z</time></trkpt>
        <trkpt lat="29.568645" lon="103.443281"><ele>515.57983</ele><time>2026-04-04T08:27:49.000Z</time></trkpt>
        <trkpt lat="29.568607" lon="103.44331"><ele>516.58325</ele><time>2026-04-04T08:27:55.000Z</time></trkpt>
        <trkpt lat="29.568563" lon="103.443332"><ele>516.9477</ele><time>2026-04-04T08:28:03.000Z</time></trkpt>
        <trkpt lat="29.568509" lon="103.443337"><ele>515.22675</ele><time>2026-04-04T08:28:09.000Z</time></trkpt>
        <trkpt lat="29.568466" lon="103.443363"><ele>513.9067</ele><time>2026-04-04T08:28:16.000Z</time></trkpt>
        <trkpt lat="29.568427" lon="103.443393"><ele>515.8228</ele><time>2026-04-04T08:28:33.000Z</time></trkpt>
        <trkpt lat="29.56844" lon="103.443446"><ele>514.405</ele><time>2026-04-04T08:29:05.000Z</time></trkpt>
        <trkpt lat="29.568451" lon="103.443498"><ele>514.95105</ele><time>2026-04-04T08:29:11.000Z</time></trkpt>
        <trkpt lat="29.568482" lon="103.443552"><ele>515.7739</ele><time>2026-04-04T08:29:18.000Z</time></trkpt>
        <trkpt lat="29.568525" lon="103.443594"><ele>516.0314</ele><time>2026-04-04T08:29:23.000Z</time></trkpt>
        <trkpt lat="29.568562" lon="103.443644"><ele>515.8578</ele><time>2026-04-04T08:29:28.000Z</time></trkpt>
        <trkpt lat="29.568585" lon="103.443693"><ele>515.2587</ele><time>2026-04-04T08:29:34.000Z</time></trkpt>
      </trkseg>
  </trk>
</gpx>